<?xml version="1.0" encoding="UTF-8" standalone="no" ?>
<gpx xmlns="http://www.topografix.com/GPX/1/1" xmlns:xsi="http://www.w3.org/2001/XMLSchema-instance" xsi:schemaLocation="http://www.topografix.com/GPX/1/1 http://www.topografix.com/GPX/1/1/gpx.xsd" version="1.1" creator="VisuGPX - https://www.visugpx.com">
  <metadata>
    <name>Velaux-Roquefavour_20 mars 2024</name>
    <desc><![CDATA[Boucle de 15 km, dénivelé cumulé 300 m au départ de Velaux (Chemin du Moulin)]]></desc>
  </metadata>
  <trk>
    <name><![CDATA[Velaux-Roquefavour_20 mars 2024]]></name>
    <trkseg>
      <trkpt lat="43.52491" lon="5.26879">
        <ele>122.2</ele>
        <time>2024-03-20T08:31:30.951Z</time>
      </trkpt>
      <trkpt lat="43.52488" lon="5.26882">
        <ele>122.2</ele>
        <time>2024-03-20T08:31:32.000Z</time>
      </trkpt>
      <trkpt lat="43.52492" lon="5.26885">
        <ele>122.5</ele>
        <time>2024-03-20T08:31:33.000Z</time>
      </trkpt>
      <trkpt lat="43.52492" lon="5.26888">
        <ele>122.6</ele>
        <time>2024-03-20T08:31:50.000Z</time>
      </trkpt>
      <trkpt lat="43.52491" lon="5.2689">
        <ele>122.7</ele>
        <time>2024-03-20T08:31:59.000Z</time>
      </trkpt>
      <trkpt lat="43.5249" lon="5.26893">
        <ele>123</ele>
        <time>2024-03-20T08:32:58.000Z</time>
      </trkpt>
      <trkpt lat="43.52489" lon="5.26895">
        <ele>123</ele>
        <time>2024-03-20T08:34:14.000Z</time>
      </trkpt>
      <trkpt lat="43.52489" lon="5.26892">
        <ele>122.8</ele>
        <time>2024-03-20T08:37:36.000Z</time>
      </trkpt>
      <trkpt lat="43.52491" lon="5.26892">
        <ele>122.9</ele>
        <time>2024-03-20T08:38:36.000Z</time>
      </trkpt>
      <trkpt lat="43.52493" lon="5.26891">
        <ele>122.9</ele>
        <time>2024-03-20T08:38:39.000Z</time>
      </trkpt>
      <trkpt lat="43.52494" lon="5.26889">
        <ele>122.8</ele>
        <time>2024-03-20T08:38:42.000Z</time>
      </trkpt>
      <trkpt lat="43.52495" lon="5.26886">
        <ele>122.7</ele>
        <time>2024-03-20T08:38:46.000Z</time>
      </trkpt>
      <trkpt lat="43.52497" lon="5.26885">
        <ele>122.7</ele>
        <time>2024-03-20T08:38:49.000Z</time>
      </trkpt>
      <trkpt lat="43.52497" lon="5.26888">
        <ele>122.8</ele>
        <time>2024-03-20T08:40:19.000Z</time>
      </trkpt>
      <trkpt lat="43.52495" lon="5.26884">
        <ele>122.6</ele>
        <time>2024-03-20T08:41:25.000Z</time>
      </trkpt>
      <trkpt lat="43.52492" lon="5.26886">
        <ele>122.6</ele>
        <time>2024-03-20T08:41:30.000Z</time>
      </trkpt>
      <trkpt lat="43.5249" lon="5.26885">
        <ele>122.5</ele>
        <time>2024-03-20T08:41:35.000Z</time>
      </trkpt>
      <trkpt lat="43.52489" lon="5.26888">
        <ele>122.5</ele>
        <time>2024-03-20T08:41:54.000Z</time>
      </trkpt>
      <trkpt lat="43.52487" lon="5.26889">
        <ele>122.5</ele>
        <time>2024-03-20T08:42:03.000Z</time>
      </trkpt>
      <trkpt lat="43.52485" lon="5.26889">
        <ele>122.5</ele>
        <time>2024-03-20T08:42:06.000Z</time>
      </trkpt>
      <trkpt lat="43.52484" lon="5.26892">
        <ele>122.7</ele>
        <time>2024-03-20T08:42:09.000Z</time>
      </trkpt>
      <trkpt lat="43.52482" lon="5.26895">
        <ele>122.7</ele>
        <time>2024-03-20T08:42:12.000Z</time>
      </trkpt>
      <trkpt lat="43.5248" lon="5.26898">
        <ele>122.9</ele>
        <time>2024-03-20T08:42:15.000Z</time>
      </trkpt>
      <trkpt lat="43.52479" lon="5.26899">
        <ele>123</ele>
        <time>2024-03-20T08:42:17.000Z</time>
      </trkpt>
      <trkpt lat="43.52479" lon="5.26903">
        <ele>123.2</ele>
        <time>2024-03-20T08:42:21.000Z</time>
      </trkpt>
      <trkpt lat="43.52477" lon="5.26907">
        <ele>123.5</ele>
        <time>2024-03-20T08:42:30.000Z</time>
      </trkpt>
      <trkpt lat="43.52478" lon="5.26909">
        <ele>123.7</ele>
        <time>2024-03-20T08:42:39.000Z</time>
      </trkpt>
      <trkpt lat="43.52475" lon="5.26911">
        <ele>123.7</ele>
        <time>2024-03-20T08:43:21.000Z</time>
      </trkpt>
      <trkpt lat="43.52473" lon="5.26911">
        <ele>123.6</ele>
        <time>2024-03-20T08:43:26.000Z</time>
      </trkpt>
      <trkpt lat="43.5247" lon="5.26913">
        <ele>123.3</ele>
        <time>2024-03-20T08:43:28.000Z</time>
      </trkpt>
      <trkpt lat="43.52468" lon="5.26917">
        <ele>123.1</ele>
        <time>2024-03-20T08:43:31.000Z</time>
      </trkpt>
      <trkpt lat="43.52465" lon="5.26921">
        <ele>122.8</ele>
        <time>2024-03-20T08:43:34.000Z</time>
      </trkpt>
      <trkpt lat="43.52464" lon="5.26923">
        <ele>122.6</ele>
        <time>2024-03-20T08:43:36.000Z</time>
      </trkpt>
      <trkpt lat="43.52462" lon="5.26926">
        <ele>122.6</ele>
        <time>2024-03-20T08:43:38.000Z</time>
      </trkpt>
      <trkpt lat="43.5246" lon="5.26929">
        <ele>122.5</ele>
        <time>2024-03-20T08:43:40.000Z</time>
      </trkpt>
      <trkpt lat="43.52458" lon="5.2693">
        <ele>122.4</ele>
        <time>2024-03-20T08:43:42.000Z</time>
      </trkpt>
      <trkpt lat="43.52456" lon="5.26933">
        <ele>122.4</ele>
        <time>2024-03-20T08:43:44.000Z</time>
      </trkpt>
      <trkpt lat="43.52454" lon="5.26935">
        <ele>122.5</ele>
        <time>2024-03-20T08:43:46.000Z</time>
      </trkpt>
      <trkpt lat="43.52453" lon="5.26938">
        <ele>122.7</ele>
        <time>2024-03-20T08:43:48.000Z</time>
      </trkpt>
      <trkpt lat="43.52451" lon="5.26942">
        <ele>123.1</ele>
        <time>2024-03-20T08:43:50.000Z</time>
      </trkpt>
      <trkpt lat="43.5245" lon="5.26946">
        <ele>123.4</ele>
        <time>2024-03-20T08:43:52.000Z</time>
      </trkpt>
      <trkpt lat="43.52449" lon="5.26948">
        <ele>123.5</ele>
        <time>2024-03-20T08:43:54.000Z</time>
      </trkpt>
      <trkpt lat="43.52448" lon="5.2695">
        <ele>123.5</ele>
        <time>2024-03-20T08:43:56.000Z</time>
      </trkpt>
      <trkpt lat="43.52446" lon="5.26953">
        <ele>123.4</ele>
        <time>2024-03-20T08:43:58.000Z</time>
      </trkpt>
      <trkpt lat="43.52444" lon="5.26955">
        <ele>123.4</ele>
        <time>2024-03-20T08:44:00.000Z</time>
      </trkpt>
      <trkpt lat="43.52444" lon="5.26962">
        <ele>123.6</ele>
        <time>2024-03-20T08:44:12.000Z</time>
      </trkpt>
      <trkpt lat="43.52442" lon="5.26963">
        <ele>123.7</ele>
        <time>2024-03-20T08:44:15.000Z</time>
      </trkpt>
      <trkpt lat="43.5244" lon="5.26964">
        <ele>123.8</ele>
        <time>2024-03-20T08:44:17.000Z</time>
      </trkpt>
      <trkpt lat="43.52437" lon="5.26963">
        <ele>123.8</ele>
        <time>2024-03-20T08:44:22.000Z</time>
      </trkpt>
      <trkpt lat="43.52435" lon="5.26964">
        <ele>123.8</ele>
        <time>2024-03-20T08:44:43.000Z</time>
      </trkpt>
      <trkpt lat="43.52434" lon="5.26967">
        <ele>123.9</ele>
        <time>2024-03-20T08:44:45.000Z</time>
      </trkpt>
      <trkpt lat="43.52432" lon="5.26968">
        <ele>123.9</ele>
        <time>2024-03-20T08:44:49.000Z</time>
      </trkpt>
      <trkpt lat="43.5243" lon="5.26968">
        <ele>123.9</ele>
        <time>2024-03-20T08:44:51.000Z</time>
      </trkpt>
      <trkpt lat="43.52428" lon="5.26967">
        <ele>123.9</ele>
        <time>2024-03-20T08:44:54.000Z</time>
      </trkpt>
      <trkpt lat="43.52425" lon="5.26967">
        <ele>123.9</ele>
        <time>2024-03-20T08:44:58.000Z</time>
      </trkpt>
      <trkpt lat="43.52423" lon="5.26965">
        <ele>123.9</ele>
        <time>2024-03-20T08:45:01.000Z</time>
      </trkpt>
      <trkpt lat="43.52421" lon="5.26965">
        <ele>124</ele>
        <time>2024-03-20T08:45:04.000Z</time>
      </trkpt>
      <trkpt lat="43.52419" lon="5.26964">
        <ele>124</ele>
        <time>2024-03-20T08:45:07.000Z</time>
      </trkpt>
      <trkpt lat="43.52417" lon="5.26963">
        <ele>124</ele>
        <time>2024-03-20T08:45:10.000Z</time>
      </trkpt>
      <trkpt lat="43.52415" lon="5.26961">
        <ele>124.1</ele>
        <time>2024-03-20T08:45:12.000Z</time>
      </trkpt>
      <trkpt lat="43.52412" lon="5.2696">
        <ele>124.3</ele>
        <time>2024-03-20T08:45:14.000Z</time>
      </trkpt>
      <trkpt lat="43.5241" lon="5.26959">
        <ele>124.4</ele>
        <time>2024-03-20T08:45:15.000Z</time>
      </trkpt>
      <trkpt lat="43.52406" lon="5.26958">
        <ele>124.6</ele>
        <time>2024-03-20T08:45:18.000Z</time>
      </trkpt>
      <trkpt lat="43.52404" lon="5.26958">
        <ele>124.7</ele>
        <time>2024-03-20T08:45:20.000Z</time>
      </trkpt>
      <trkpt lat="43.52402" lon="5.2696">
        <ele>124.7</ele>
        <time>2024-03-20T08:45:22.000Z</time>
      </trkpt>
      <trkpt lat="43.524" lon="5.26962">
        <ele>124.9</ele>
        <time>2024-03-20T08:45:24.000Z</time>
      </trkpt>
      <trkpt lat="43.52397" lon="5.26963">
        <ele>124.9</ele>
        <time>2024-03-20T08:45:26.000Z</time>
      </trkpt>
      <trkpt lat="43.52395" lon="5.26965">
        <ele>125</ele>
        <time>2024-03-20T08:45:29.000Z</time>
      </trkpt>
      <trkpt lat="43.52393" lon="5.26967">
        <ele>125</ele>
        <time>2024-03-20T08:45:31.000Z</time>
      </trkpt>
      <trkpt lat="43.52391" lon="5.26969">
        <ele>125</ele>
        <time>2024-03-20T08:45:33.000Z</time>
      </trkpt>
      <trkpt lat="43.5239" lon="5.26971">
        <ele>125</ele>
        <time>2024-03-20T08:45:36.000Z</time>
      </trkpt>
      <trkpt lat="43.52388" lon="5.26974">
        <ele>125</ele>
        <time>2024-03-20T08:45:39.000Z</time>
      </trkpt>
      <trkpt lat="43.52387" lon="5.26975">
        <ele>125</ele>
        <time>2024-03-20T08:45:42.000Z</time>
      </trkpt>
      <trkpt lat="43.52385" lon="5.26976">
        <ele>125</ele>
        <time>2024-03-20T08:45:44.000Z</time>
      </trkpt>
      <trkpt lat="43.52383" lon="5.26978">
        <ele>125</ele>
        <time>2024-03-20T08:45:46.000Z</time>
      </trkpt>
      <trkpt lat="43.52381" lon="5.26979">
        <ele>125.1</ele>
        <time>2024-03-20T08:45:48.000Z</time>
      </trkpt>
      <trkpt lat="43.52379" lon="5.26982">
        <ele>125.1</ele>
        <time>2024-03-20T08:45:50.000Z</time>
      </trkpt>
      <trkpt lat="43.52377" lon="5.26983">
        <ele>125.2</ele>
        <time>2024-03-20T08:45:54.000Z</time>
      </trkpt>
      <trkpt lat="43.52376" lon="5.26985">
        <ele>125.2</ele>
        <time>2024-03-20T08:45:56.000Z</time>
      </trkpt>
      <trkpt lat="43.52374" lon="5.26987">
        <ele>125.3</ele>
        <time>2024-03-20T08:45:58.000Z</time>
      </trkpt>
      <trkpt lat="43.52373" lon="5.26989">
        <ele>125.3</ele>
        <time>2024-03-20T08:46:00.000Z</time>
      </trkpt>
      <trkpt lat="43.52372" lon="5.26991">
        <ele>125.4</ele>
        <time>2024-03-20T08:46:02.000Z</time>
      </trkpt>
      <trkpt lat="43.5237" lon="5.26993">
        <ele>125.5</ele>
        <time>2024-03-20T08:46:04.000Z</time>
      </trkpt>
      <trkpt lat="43.52369" lon="5.26995">
        <ele>125.6</ele>
        <time>2024-03-20T08:46:06.000Z</time>
      </trkpt>
      <trkpt lat="43.52366" lon="5.26999">
        <ele>125.8</ele>
        <time>2024-03-20T08:46:10.000Z</time>
      </trkpt>
      <trkpt lat="43.52365" lon="5.27001">
        <ele>125.9</ele>
        <time>2024-03-20T08:46:12.000Z</time>
      </trkpt>
      <trkpt lat="43.52363" lon="5.27004">
        <ele>125.9</ele>
        <time>2024-03-20T08:46:14.000Z</time>
      </trkpt>
      <trkpt lat="43.52362" lon="5.27007">
        <ele>126</ele>
        <time>2024-03-20T08:46:16.000Z</time>
      </trkpt>
      <trkpt lat="43.52361" lon="5.27009">
        <ele>126</ele>
        <time>2024-03-20T08:46:18.000Z</time>
      </trkpt>
      <trkpt lat="43.52359" lon="5.27012">
        <ele>125.9</ele>
        <time>2024-03-20T08:46:20.000Z</time>
      </trkpt>
      <trkpt lat="43.52359" lon="5.27015">
        <ele>125.9</ele>
        <time>2024-03-20T08:46:21.000Z</time>
      </trkpt>
      <trkpt lat="43.52358" lon="5.2702">
        <ele>125.9</ele>
        <time>2024-03-20T08:46:23.000Z</time>
      </trkpt>
      <trkpt lat="43.52357" lon="5.27023">
        <ele>126</ele>
        <time>2024-03-20T08:46:27.000Z</time>
      </trkpt>
      <trkpt lat="43.52356" lon="5.27026">
        <ele>126</ele>
        <time>2024-03-20T08:46:30.000Z</time>
      </trkpt>
      <trkpt lat="43.52354" lon="5.27028">
        <ele>126</ele>
        <time>2024-03-20T08:46:33.000Z</time>
      </trkpt>
      <trkpt lat="43.52351" lon="5.27029">
        <ele>126</ele>
        <time>2024-03-20T08:46:35.000Z</time>
      </trkpt>
      <trkpt lat="43.5235" lon="5.27031">
        <ele>126.1</ele>
        <time>2024-03-20T08:46:37.000Z</time>
      </trkpt>
      <trkpt lat="43.52348" lon="5.27033">
        <ele>126.1</ele>
        <time>2024-03-20T08:46:39.000Z</time>
      </trkpt>
      <trkpt lat="43.52346" lon="5.27035">
        <ele>126.1</ele>
        <time>2024-03-20T08:46:41.000Z</time>
      </trkpt>
      <trkpt lat="43.52344" lon="5.27037">
        <ele>126.2</ele>
        <time>2024-03-20T08:46:43.000Z</time>
      </trkpt>
      <trkpt lat="43.52342" lon="5.27039">
        <ele>126.3</ele>
        <time>2024-03-20T08:46:45.000Z</time>
      </trkpt>
      <trkpt lat="43.5234" lon="5.27041">
        <ele>126.4</ele>
        <time>2024-03-20T08:46:47.000Z</time>
      </trkpt>
      <trkpt lat="43.52338" lon="5.27043">
        <ele>126.4</ele>
        <time>2024-03-20T08:46:50.000Z</time>
      </trkpt>
      <trkpt lat="43.52336" lon="5.27043">
        <ele>126.5</ele>
        <time>2024-03-20T08:46:53.000Z</time>
      </trkpt>
      <trkpt lat="43.52334" lon="5.27044">
        <ele>126.6</ele>
        <time>2024-03-20T08:46:55.000Z</time>
      </trkpt>
      <trkpt lat="43.52331" lon="5.27046">
        <ele>126.4</ele>
        <time>2024-03-20T08:46:57.000Z</time>
      </trkpt>
      <trkpt lat="43.52329" lon="5.27047">
        <ele>126.1</ele>
        <time>2024-03-20T08:46:59.000Z</time>
      </trkpt>
      <trkpt lat="43.52328" lon="5.27049">
        <ele>126</ele>
        <time>2024-03-20T08:47:01.000Z</time>
      </trkpt>
      <trkpt lat="43.52326" lon="5.27051">
        <ele>125.9</ele>
        <time>2024-03-20T08:47:03.000Z</time>
      </trkpt>
      <trkpt lat="43.52324" lon="5.27052">
        <ele>125.8</ele>
        <time>2024-03-20T08:47:05.000Z</time>
      </trkpt>
      <trkpt lat="43.52322" lon="5.27054">
        <ele>125.7</ele>
        <time>2024-03-20T08:47:07.000Z</time>
      </trkpt>
      <trkpt lat="43.5232" lon="5.27056">
        <ele>125.6</ele>
        <time>2024-03-20T08:47:09.000Z</time>
      </trkpt>
      <trkpt lat="43.52319" lon="5.27058">
        <ele>125.6</ele>
        <time>2024-03-20T08:47:11.000Z</time>
      </trkpt>
      <trkpt lat="43.52316" lon="5.27059">
        <ele>125.4</ele>
        <time>2024-03-20T08:47:14.000Z</time>
      </trkpt>
      <trkpt lat="43.52315" lon="5.27061">
        <ele>125.4</ele>
        <time>2024-03-20T08:47:16.000Z</time>
      </trkpt>
      <trkpt lat="43.52313" lon="5.27063">
        <ele>125.4</ele>
        <time>2024-03-20T08:47:18.000Z</time>
      </trkpt>
      <trkpt lat="43.52311" lon="5.27065">
        <ele>125.4</ele>
        <time>2024-03-20T08:47:20.000Z</time>
      </trkpt>
      <trkpt lat="43.52309" lon="5.27067">
        <ele>125.5</ele>
        <time>2024-03-20T08:47:22.000Z</time>
      </trkpt>
      <trkpt lat="43.52308" lon="5.2707">
        <ele>125.6</ele>
        <time>2024-03-20T08:47:24.000Z</time>
      </trkpt>
      <trkpt lat="43.52306" lon="5.27073">
        <ele>125.9</ele>
        <time>2024-03-20T08:47:27.000Z</time>
      </trkpt>
      <trkpt lat="43.52305" lon="5.27075">
        <ele>126</ele>
        <time>2024-03-20T08:47:29.000Z</time>
      </trkpt>
      <trkpt lat="43.52303" lon="5.27076">
        <ele>125.9</ele>
        <time>2024-03-20T08:47:31.000Z</time>
      </trkpt>
      <trkpt lat="43.52302" lon="5.27078">
        <ele>126</ele>
        <time>2024-03-20T08:47:33.000Z</time>
      </trkpt>
      <trkpt lat="43.523" lon="5.2708">
        <ele>126</ele>
        <time>2024-03-20T08:47:35.000Z</time>
      </trkpt>
      <trkpt lat="43.52299" lon="5.27082">
        <ele>126.1</ele>
        <time>2024-03-20T08:47:37.000Z</time>
      </trkpt>
      <trkpt lat="43.52296" lon="5.27084">
        <ele>126</ele>
        <time>2024-03-20T08:47:40.000Z</time>
      </trkpt>
      <trkpt lat="43.52295" lon="5.27086">
        <ele>125.9</ele>
        <time>2024-03-20T08:47:42.000Z</time>
      </trkpt>
      <trkpt lat="43.52293" lon="5.27088">
        <ele>125.9</ele>
        <time>2024-03-20T08:47:44.000Z</time>
      </trkpt>
      <trkpt lat="43.52291" lon="5.2709">
        <ele>125.8</ele>
        <time>2024-03-20T08:47:46.000Z</time>
      </trkpt>
      <trkpt lat="43.5229" lon="5.27091">
        <ele>125.8</ele>
        <time>2024-03-20T08:47:48.000Z</time>
      </trkpt>
      <trkpt lat="43.52287" lon="5.27094">
        <ele>125.8</ele>
        <time>2024-03-20T08:47:51.000Z</time>
      </trkpt>
      <trkpt lat="43.52286" lon="5.27097">
        <ele>125.9</ele>
        <time>2024-03-20T08:47:53.000Z</time>
      </trkpt>
      <trkpt lat="43.52284" lon="5.271">
        <ele>126.1</ele>
        <time>2024-03-20T08:47:55.000Z</time>
      </trkpt>
      <trkpt lat="43.52282" lon="5.27102">
        <ele>126.2</ele>
        <time>2024-03-20T08:47:57.000Z</time>
      </trkpt>
      <trkpt lat="43.52281" lon="5.27104">
        <ele>126.3</ele>
        <time>2024-03-20T08:47:59.000Z</time>
      </trkpt>
      <trkpt lat="43.52279" lon="5.27105">
        <ele>126.4</ele>
        <time>2024-03-20T08:48:01.000Z</time>
      </trkpt>
      <trkpt lat="43.52277" lon="5.27107">
        <ele>126.5</ele>
        <time>2024-03-20T08:48:03.000Z</time>
      </trkpt>
      <trkpt lat="43.52276" lon="5.27109">
        <ele>126.5</ele>
        <time>2024-03-20T08:48:05.000Z</time>
      </trkpt>
      <trkpt lat="43.52274" lon="5.27112">
        <ele>126.7</ele>
        <time>2024-03-20T08:48:07.000Z</time>
      </trkpt>
      <trkpt lat="43.52273" lon="5.27116">
        <ele>126.7</ele>
        <time>2024-03-20T08:48:09.000Z</time>
      </trkpt>
      <trkpt lat="43.52273" lon="5.27119">
        <ele>126.8</ele>
        <time>2024-03-20T08:48:10.000Z</time>
      </trkpt>
      <trkpt lat="43.52272" lon="5.27121">
        <ele>126.8</ele>
        <time>2024-03-20T08:48:12.000Z</time>
      </trkpt>
      <trkpt lat="43.5227" lon="5.27124">
        <ele>126.8</ele>
        <time>2024-03-20T08:48:14.000Z</time>
      </trkpt>
      <trkpt lat="43.52269" lon="5.27128">
        <ele>126.8</ele>
        <time>2024-03-20T08:48:17.000Z</time>
      </trkpt>
      <trkpt lat="43.52267" lon="5.27131">
        <ele>126.8</ele>
        <time>2024-03-20T08:48:20.000Z</time>
      </trkpt>
      <trkpt lat="43.52265" lon="5.27132">
        <ele>126.8</ele>
        <time>2024-03-20T08:48:22.000Z</time>
      </trkpt>
      <trkpt lat="43.52263" lon="5.27129">
        <ele>126.4</ele>
        <time>2024-03-20T08:48:24.000Z</time>
      </trkpt>
      <trkpt lat="43.52264" lon="5.27127">
        <ele>126.4</ele>
        <time>2024-03-20T08:48:26.000Z</time>
      </trkpt>
      <trkpt lat="43.52262" lon="5.27134">
        <ele>126.5</ele>
        <time>2024-03-20T08:48:27.000Z</time>
      </trkpt>
      <trkpt lat="43.52261" lon="5.27136">
        <ele>126.6</ele>
        <time>2024-03-20T08:48:28.000Z</time>
      </trkpt>
      <trkpt lat="43.5226" lon="5.27138">
        <ele>126.7</ele>
        <time>2024-03-20T08:48:30.000Z</time>
      </trkpt>
      <trkpt lat="43.52259" lon="5.27141">
        <ele>126.7</ele>
        <time>2024-03-20T08:48:33.000Z</time>
      </trkpt>
      <trkpt lat="43.52257" lon="5.27142">
        <ele>126.7</ele>
        <time>2024-03-20T08:48:35.000Z</time>
      </trkpt>
      <trkpt lat="43.52256" lon="5.27146">
        <ele>126.9</ele>
        <time>2024-03-20T08:48:37.000Z</time>
      </trkpt>
      <trkpt lat="43.52257" lon="5.27148">
        <ele>127.1</ele>
        <time>2024-03-20T08:48:39.000Z</time>
      </trkpt>
      <trkpt lat="43.52255" lon="5.27151">
        <ele>127.2</ele>
        <time>2024-03-20T08:48:41.000Z</time>
      </trkpt>
      <trkpt lat="43.52256" lon="5.27154">
        <ele>127.4</ele>
        <time>2024-03-20T08:48:43.000Z</time>
      </trkpt>
      <trkpt lat="43.52255" lon="5.27157">
        <ele>127.6</ele>
        <time>2024-03-20T08:48:44.000Z</time>
      </trkpt>
      <trkpt lat="43.52255" lon="5.2716">
        <ele>127.8</ele>
        <time>2024-03-20T08:48:47.000Z</time>
      </trkpt>
      <trkpt lat="43.52253" lon="5.27161">
        <ele>127.7</ele>
        <time>2024-03-20T08:48:49.000Z</time>
      </trkpt>
      <trkpt lat="43.52252" lon="5.27162">
        <ele>127.7</ele>
        <time>2024-03-20T08:48:50.000Z</time>
      </trkpt>
      <trkpt lat="43.5225" lon="5.27166">
        <ele>127.9</ele>
        <time>2024-03-20T08:48:52.000Z</time>
      </trkpt>
      <trkpt lat="43.5225" lon="5.2717">
        <ele>128</ele>
        <time>2024-03-20T08:48:55.000Z</time>
      </trkpt>
      <trkpt lat="43.52249" lon="5.27172">
        <ele>127.8</ele>
        <time>2024-03-20T08:48:57.000Z</time>
      </trkpt>
      <trkpt lat="43.52248" lon="5.27174">
        <ele>127.7</ele>
        <time>2024-03-20T08:48:59.000Z</time>
      </trkpt>
      <trkpt lat="43.52246" lon="5.27177">
        <ele>127.5</ele>
        <time>2024-03-20T08:49:00.000Z</time>
      </trkpt>
      <trkpt lat="43.52246" lon="5.2718">
        <ele>127.7</ele>
        <time>2024-03-20T08:49:02.000Z</time>
      </trkpt>
      <trkpt lat="43.52244" lon="5.27181">
        <ele>127.5</ele>
        <time>2024-03-20T08:49:03.000Z</time>
      </trkpt>
      <trkpt lat="43.52242" lon="5.27183">
        <ele>127.3</ele>
        <time>2024-03-20T08:49:05.000Z</time>
      </trkpt>
      <trkpt lat="43.52242" lon="5.27187">
        <ele>127.6</ele>
        <time>2024-03-20T08:49:08.000Z</time>
      </trkpt>
      <trkpt lat="43.5224" lon="5.27189">
        <ele>127.7</ele>
        <time>2024-03-20T08:49:10.000Z</time>
      </trkpt>
      <trkpt lat="43.52238" lon="5.27191">
        <ele>127.8</ele>
        <time>2024-03-20T08:49:13.000Z</time>
      </trkpt>
      <trkpt lat="43.52237" lon="5.27194">
        <ele>128</ele>
        <time>2024-03-20T08:49:15.000Z</time>
      </trkpt>
      <trkpt lat="43.52234" lon="5.27196">
        <ele>127.9</ele>
        <time>2024-03-20T08:49:19.000Z</time>
      </trkpt>
      <trkpt lat="43.52231" lon="5.27199">
        <ele>128</ele>
        <time>2024-03-20T08:49:21.000Z</time>
      </trkpt>
      <trkpt lat="43.5223" lon="5.27202">
        <ele>128.2</ele>
        <time>2024-03-20T08:49:23.000Z</time>
      </trkpt>
      <trkpt lat="43.52229" lon="5.27205">
        <ele>128.5</ele>
        <time>2024-03-20T08:49:27.000Z</time>
      </trkpt>
      <trkpt lat="43.52228" lon="5.27209">
        <ele>128.8</ele>
        <time>2024-03-20T08:49:30.000Z</time>
      </trkpt>
      <trkpt lat="43.52226" lon="5.27212">
        <ele>129</ele>
        <time>2024-03-20T08:49:33.000Z</time>
      </trkpt>
      <trkpt lat="43.52225" lon="5.27214">
        <ele>129.2</ele>
        <time>2024-03-20T08:49:35.000Z</time>
      </trkpt>
      <trkpt lat="43.52223" lon="5.27217">
        <ele>129.5</ele>
        <time>2024-03-20T08:49:38.000Z</time>
      </trkpt>
      <trkpt lat="43.52222" lon="5.2722">
        <ele>129.8</ele>
        <time>2024-03-20T08:49:40.000Z</time>
      </trkpt>
      <trkpt lat="43.52221" lon="5.27222">
        <ele>129.8</ele>
        <time>2024-03-20T08:49:42.000Z</time>
      </trkpt>
      <trkpt lat="43.5222" lon="5.27224">
        <ele>129.6</ele>
        <time>2024-03-20T08:49:45.000Z</time>
      </trkpt>
      <trkpt lat="43.52219" lon="5.27229">
        <ele>129.5</ele>
        <time>2024-03-20T08:49:48.000Z</time>
      </trkpt>
      <trkpt lat="43.52218" lon="5.27231">
        <ele>129.4</ele>
        <time>2024-03-20T08:49:50.000Z</time>
      </trkpt>
      <trkpt lat="43.52216" lon="5.27233">
        <ele>129.2</ele>
        <time>2024-03-20T08:49:52.000Z</time>
      </trkpt>
      <trkpt lat="43.52215" lon="5.27236">
        <ele>129.3</ele>
        <time>2024-03-20T08:49:54.000Z</time>
      </trkpt>
      <trkpt lat="43.52213" lon="5.27239">
        <ele>129.2</ele>
        <time>2024-03-20T08:49:57.000Z</time>
      </trkpt>
      <trkpt lat="43.52212" lon="5.27241">
        <ele>129.3</ele>
        <time>2024-03-20T08:49:59.000Z</time>
      </trkpt>
      <trkpt lat="43.52211" lon="5.27244">
        <ele>129.5</ele>
        <time>2024-03-20T08:50:01.000Z</time>
      </trkpt>
      <trkpt lat="43.52209" lon="5.27246">
        <ele>129.6</ele>
        <time>2024-03-20T08:50:03.000Z</time>
      </trkpt>
      <trkpt lat="43.52208" lon="5.27249">
        <ele>129.8</ele>
        <time>2024-03-20T08:50:05.000Z</time>
      </trkpt>
      <trkpt lat="43.52207" lon="5.27251">
        <ele>130</ele>
        <time>2024-03-20T08:50:07.000Z</time>
      </trkpt>
      <trkpt lat="43.52205" lon="5.27254">
        <ele>130.2</ele>
        <time>2024-03-20T08:50:10.000Z</time>
      </trkpt>
      <trkpt lat="43.52204" lon="5.27257">
        <ele>130.4</ele>
        <time>2024-03-20T08:50:12.000Z</time>
      </trkpt>
      <trkpt lat="43.52202" lon="5.27261">
        <ele>130.7</ele>
        <time>2024-03-20T08:50:16.000Z</time>
      </trkpt>
      <trkpt lat="43.52201" lon="5.27265">
        <ele>131.1</ele>
        <time>2024-03-20T08:50:18.000Z</time>
      </trkpt>
      <trkpt lat="43.52199" lon="5.27267">
        <ele>131.2</ele>
        <time>2024-03-20T08:50:21.000Z</time>
      </trkpt>
      <trkpt lat="43.52197" lon="5.2727">
        <ele>131.4</ele>
        <time>2024-03-20T08:50:24.000Z</time>
      </trkpt>
      <trkpt lat="43.52196" lon="5.27273">
        <ele>131.6</ele>
        <time>2024-03-20T08:50:26.000Z</time>
      </trkpt>
      <trkpt lat="43.52195" lon="5.27275">
        <ele>131.8</ele>
        <time>2024-03-20T08:50:28.000Z</time>
      </trkpt>
      <trkpt lat="43.52194" lon="5.27278">
        <ele>131.9</ele>
        <time>2024-03-20T08:50:30.000Z</time>
      </trkpt>
      <trkpt lat="43.52193" lon="5.2728">
        <ele>131.9</ele>
        <time>2024-03-20T08:50:33.000Z</time>
      </trkpt>
      <trkpt lat="43.52192" lon="5.27283">
        <ele>131.9</ele>
        <time>2024-03-20T08:50:35.000Z</time>
      </trkpt>
      <trkpt lat="43.52191" lon="5.27287">
        <ele>132</ele>
        <time>2024-03-20T08:50:38.000Z</time>
      </trkpt>
      <trkpt lat="43.5219" lon="5.27292">
        <ele>132.1</ele>
        <time>2024-03-20T08:50:41.000Z</time>
      </trkpt>
      <trkpt lat="43.52188" lon="5.27294">
        <ele>132</ele>
        <time>2024-03-20T08:50:43.000Z</time>
      </trkpt>
      <trkpt lat="43.52188" lon="5.27297">
        <ele>132.2</ele>
        <time>2024-03-20T08:50:45.000Z</time>
      </trkpt>
      <trkpt lat="43.52187" lon="5.273">
        <ele>132.2</ele>
        <time>2024-03-20T08:50:47.000Z</time>
      </trkpt>
      <trkpt lat="43.52186" lon="5.27303">
        <ele>132.3</ele>
        <time>2024-03-20T08:50:49.000Z</time>
      </trkpt>
      <trkpt lat="43.52185" lon="5.27306">
        <ele>132.3</ele>
        <time>2024-03-20T08:50:51.000Z</time>
      </trkpt>
      <trkpt lat="43.52183" lon="5.2731">
        <ele>132.3</ele>
        <time>2024-03-20T08:50:54.000Z</time>
      </trkpt>
      <trkpt lat="43.52182" lon="5.27313">
        <ele>132.3</ele>
        <time>2024-03-20T08:50:56.000Z</time>
      </trkpt>
      <trkpt lat="43.52181" lon="5.27315">
        <ele>132.3</ele>
        <time>2024-03-20T08:50:58.000Z</time>
      </trkpt>
      <trkpt lat="43.5218" lon="5.27319">
        <ele>132.3</ele>
        <time>2024-03-20T08:51:00.000Z</time>
      </trkpt>
      <trkpt lat="43.52179" lon="5.27322">
        <ele>132.3</ele>
        <time>2024-03-20T08:51:02.000Z</time>
      </trkpt>
      <trkpt lat="43.52178" lon="5.27325">
        <ele>132.4</ele>
        <time>2024-03-20T08:51:04.000Z</time>
      </trkpt>
      <trkpt lat="43.52177" lon="5.27329">
        <ele>132.4</ele>
        <time>2024-03-20T08:51:07.000Z</time>
      </trkpt>
      <trkpt lat="43.52177" lon="5.27333">
        <ele>132.5</ele>
        <time>2024-03-20T08:51:09.000Z</time>
      </trkpt>
      <trkpt lat="43.52176" lon="5.27336">
        <ele>132.6</ele>
        <time>2024-03-20T08:51:12.000Z</time>
      </trkpt>
      <trkpt lat="43.52176" lon="5.27339">
        <ele>132.6</ele>
        <time>2024-03-20T08:51:14.000Z</time>
      </trkpt>
      <trkpt lat="43.52175" lon="5.27342">
        <ele>132.6</ele>
        <time>2024-03-20T08:51:16.000Z</time>
      </trkpt>
      <trkpt lat="43.52175" lon="5.27345">
        <ele>132.6</ele>
        <time>2024-03-20T08:51:18.000Z</time>
      </trkpt>
      <trkpt lat="43.52175" lon="5.27348">
        <ele>132.7</ele>
        <time>2024-03-20T08:51:20.000Z</time>
      </trkpt>
      <trkpt lat="43.52175" lon="5.27351">
        <ele>132.9</ele>
        <time>2024-03-20T08:51:22.000Z</time>
      </trkpt>
      <trkpt lat="43.52175" lon="5.27354">
        <ele>133.1</ele>
        <time>2024-03-20T08:51:24.000Z</time>
      </trkpt>
      <trkpt lat="43.52175" lon="5.27357">
        <ele>133.2</ele>
        <time>2024-03-20T08:51:26.000Z</time>
      </trkpt>
      <trkpt lat="43.52175" lon="5.27361">
        <ele>133.5</ele>
        <time>2024-03-20T08:51:29.000Z</time>
      </trkpt>
      <trkpt lat="43.52174" lon="5.27366">
        <ele>133.3</ele>
        <time>2024-03-20T08:51:32.000Z</time>
      </trkpt>
      <trkpt lat="43.52174" lon="5.2737">
        <ele>133.2</ele>
        <time>2024-03-20T08:51:34.000Z</time>
      </trkpt>
      <trkpt lat="43.52174" lon="5.27373">
        <ele>133.3</ele>
        <time>2024-03-20T08:51:37.000Z</time>
      </trkpt>
      <trkpt lat="43.52174" lon="5.27376">
        <ele>133.4</ele>
        <time>2024-03-20T08:51:39.000Z</time>
      </trkpt>
      <trkpt lat="43.52173" lon="5.27379">
        <ele>133.2</ele>
        <time>2024-03-20T08:51:42.000Z</time>
      </trkpt>
      <trkpt lat="43.52172" lon="5.27383">
        <ele>132.9</ele>
        <time>2024-03-20T08:51:45.000Z</time>
      </trkpt>
      <trkpt lat="43.52171" lon="5.27385">
        <ele>132.7</ele>
        <time>2024-03-20T08:51:47.000Z</time>
      </trkpt>
      <trkpt lat="43.5217" lon="5.27388">
        <ele>132.6</ele>
        <time>2024-03-20T08:51:49.000Z</time>
      </trkpt>
      <trkpt lat="43.52169" lon="5.2739">
        <ele>132.6</ele>
        <time>2024-03-20T08:51:51.000Z</time>
      </trkpt>
      <trkpt lat="43.52167" lon="5.27393">
        <ele>133</ele>
        <time>2024-03-20T08:51:53.000Z</time>
      </trkpt>
      <trkpt lat="43.52166" lon="5.27395">
        <ele>133.2</ele>
        <time>2024-03-20T08:51:55.000Z</time>
      </trkpt>
      <trkpt lat="43.52165" lon="5.27398">
        <ele>133.7</ele>
        <time>2024-03-20T08:51:57.000Z</time>
      </trkpt>
      <trkpt lat="43.52164" lon="5.27402">
        <ele>134.3</ele>
        <time>2024-03-20T08:51:59.000Z</time>
      </trkpt>
      <trkpt lat="43.52163" lon="5.27404">
        <ele>134.5</ele>
        <time>2024-03-20T08:52:02.000Z</time>
      </trkpt>
      <trkpt lat="43.52161" lon="5.27405">
        <ele>134.3</ele>
        <time>2024-03-20T08:52:04.000Z</time>
      </trkpt>
      <trkpt lat="43.52159" lon="5.27406">
        <ele>134.2</ele>
        <time>2024-03-20T08:52:06.000Z</time>
      </trkpt>
      <trkpt lat="43.52158" lon="5.27409">
        <ele>134.3</ele>
        <time>2024-03-20T08:52:08.000Z</time>
      </trkpt>
      <trkpt lat="43.52155" lon="5.27409">
        <ele>133.9</ele>
        <time>2024-03-20T08:52:11.000Z</time>
      </trkpt>
      <trkpt lat="43.52153" lon="5.27411">
        <ele>133.7</ele>
        <time>2024-03-20T08:52:13.000Z</time>
      </trkpt>
      <trkpt lat="43.52152" lon="5.27413">
        <ele>133.7</ele>
        <time>2024-03-20T08:52:15.000Z</time>
      </trkpt>
      <trkpt lat="43.52149" lon="5.27415">
        <ele>133.4</ele>
        <time>2024-03-20T08:52:17.000Z</time>
      </trkpt>
      <trkpt lat="43.52148" lon="5.27417">
        <ele>133.3</ele>
        <time>2024-03-20T08:52:19.000Z</time>
      </trkpt>
      <trkpt lat="43.52146" lon="5.2742">
        <ele>133.2</ele>
        <time>2024-03-20T08:52:21.000Z</time>
      </trkpt>
      <trkpt lat="43.52145" lon="5.27422">
        <ele>133</ele>
        <time>2024-03-20T08:52:23.000Z</time>
      </trkpt>
      <trkpt lat="43.52143" lon="5.27424">
        <ele>133</ele>
        <time>2024-03-20T08:52:25.000Z</time>
      </trkpt>
      <trkpt lat="43.52142" lon="5.27427">
        <ele>133</ele>
        <time>2024-03-20T08:52:27.000Z</time>
      </trkpt>
      <trkpt lat="43.5214" lon="5.27429">
        <ele>133</ele>
        <time>2024-03-20T08:52:29.000Z</time>
      </trkpt>
      <trkpt lat="43.52139" lon="5.27431">
        <ele>133.1</ele>
        <time>2024-03-20T08:52:31.000Z</time>
      </trkpt>
      <trkpt lat="43.52138" lon="5.27434">
        <ele>133.5</ele>
        <time>2024-03-20T08:52:33.000Z</time>
      </trkpt>
      <trkpt lat="43.52136" lon="5.27436">
        <ele>133.8</ele>
        <time>2024-03-20T08:52:35.000Z</time>
      </trkpt>
      <trkpt lat="43.52135" lon="5.27439">
        <ele>134.1</ele>
        <time>2024-03-20T08:52:37.000Z</time>
      </trkpt>
      <trkpt lat="43.52133" lon="5.27442">
        <ele>134.3</ele>
        <time>2024-03-20T08:52:39.000Z</time>
      </trkpt>
      <trkpt lat="43.52132" lon="5.27445">
        <ele>134.6</ele>
        <time>2024-03-20T08:52:41.000Z</time>
      </trkpt>
      <trkpt lat="43.5213" lon="5.27448">
        <ele>134.8</ele>
        <time>2024-03-20T08:52:43.000Z</time>
      </trkpt>
      <trkpt lat="43.52129" lon="5.27451">
        <ele>135.2</ele>
        <time>2024-03-20T08:52:46.000Z</time>
      </trkpt>
      <trkpt lat="43.52128" lon="5.27453">
        <ele>135.3</ele>
        <time>2024-03-20T08:52:48.000Z</time>
      </trkpt>
      <trkpt lat="43.52127" lon="5.27456">
        <ele>135.5</ele>
        <time>2024-03-20T08:52:50.000Z</time>
      </trkpt>
      <trkpt lat="43.52125" lon="5.27458">
        <ele>135.5</ele>
        <time>2024-03-20T08:52:52.000Z</time>
      </trkpt>
      <trkpt lat="43.52123" lon="5.27461">
        <ele>135.5</ele>
        <time>2024-03-20T08:52:55.000Z</time>
      </trkpt>
      <trkpt lat="43.52122" lon="5.27464">
        <ele>135.6</ele>
        <time>2024-03-20T08:52:58.000Z</time>
      </trkpt>
      <trkpt lat="43.52121" lon="5.27467">
        <ele>135.7</ele>
        <time>2024-03-20T08:53:00.000Z</time>
      </trkpt>
      <trkpt lat="43.5212" lon="5.27471">
        <ele>135.7</ele>
        <time>2024-03-20T08:53:03.000Z</time>
      </trkpt>
      <trkpt lat="43.52118" lon="5.27474">
        <ele>135.6</ele>
        <time>2024-03-20T08:53:05.000Z</time>
      </trkpt>
      <trkpt lat="43.52117" lon="5.27476">
        <ele>135.5</ele>
        <time>2024-03-20T08:53:08.000Z</time>
      </trkpt>
      <trkpt lat="43.52116" lon="5.27479">
        <ele>135.4</ele>
        <time>2024-03-20T08:53:10.000Z</time>
      </trkpt>
      <trkpt lat="43.52115" lon="5.27481">
        <ele>135.3</ele>
        <time>2024-03-20T08:53:12.000Z</time>
      </trkpt>
      <trkpt lat="43.52114" lon="5.27483">
        <ele>135.3</ele>
        <time>2024-03-20T08:53:14.000Z</time>
      </trkpt>
      <trkpt lat="43.52113" lon="5.27487">
        <ele>135.4</ele>
        <time>2024-03-20T08:53:16.000Z</time>
      </trkpt>
      <trkpt lat="43.52112" lon="5.2749">
        <ele>135.5</ele>
        <time>2024-03-20T08:53:18.000Z</time>
      </trkpt>
      <trkpt lat="43.52111" lon="5.27494">
        <ele>135.6</ele>
        <time>2024-03-20T08:53:21.000Z</time>
      </trkpt>
      <trkpt lat="43.5211" lon="5.27497">
        <ele>135.9</ele>
        <time>2024-03-20T08:53:23.000Z</time>
      </trkpt>
      <trkpt lat="43.52109" lon="5.275">
        <ele>136.3</ele>
        <time>2024-03-20T08:53:26.000Z</time>
      </trkpt>
      <trkpt lat="43.52108" lon="5.27504">
        <ele>136.9</ele>
        <time>2024-03-20T08:53:29.000Z</time>
      </trkpt>
      <trkpt lat="43.52107" lon="5.27507">
        <ele>137.3</ele>
        <time>2024-03-20T08:53:31.000Z</time>
      </trkpt>
      <trkpt lat="43.52107" lon="5.2751">
        <ele>137.6</ele>
        <time>2024-03-20T08:53:33.000Z</time>
      </trkpt>
      <trkpt lat="43.52106" lon="5.27514">
        <ele>138</ele>
        <time>2024-03-20T08:53:35.000Z</time>
      </trkpt>
      <trkpt lat="43.52104" lon="5.27516">
        <ele>138.3</ele>
        <time>2024-03-20T08:53:38.000Z</time>
      </trkpt>
      <trkpt lat="43.52103" lon="5.27519">
        <ele>138.5</ele>
        <time>2024-03-20T08:53:40.000Z</time>
      </trkpt>
      <trkpt lat="43.52102" lon="5.27522">
        <ele>138.7</ele>
        <time>2024-03-20T08:53:42.000Z</time>
      </trkpt>
      <trkpt lat="43.52101" lon="5.27525">
        <ele>138.9</ele>
        <time>2024-03-20T08:53:44.000Z</time>
      </trkpt>
      <trkpt lat="43.521" lon="5.27529">
        <ele>139.1</ele>
        <time>2024-03-20T08:53:46.000Z</time>
      </trkpt>
      <trkpt lat="43.521" lon="5.27532">
        <ele>139.3</ele>
        <time>2024-03-20T08:53:48.000Z</time>
      </trkpt>
      <trkpt lat="43.521" lon="5.27536">
        <ele>139.5</ele>
        <time>2024-03-20T08:53:51.000Z</time>
      </trkpt>
      <trkpt lat="43.521" lon="5.27538">
        <ele>139.7</ele>
        <time>2024-03-20T08:53:53.000Z</time>
      </trkpt>
      <trkpt lat="43.52099" lon="5.27542">
        <ele>139.8</ele>
        <time>2024-03-20T08:53:55.000Z</time>
      </trkpt>
      <trkpt lat="43.52098" lon="5.27544">
        <ele>139.9</ele>
        <time>2024-03-20T08:53:57.000Z</time>
      </trkpt>
      <trkpt lat="43.52096" lon="5.27546">
        <ele>139.9</ele>
        <time>2024-03-20T08:53:59.000Z</time>
      </trkpt>
      <trkpt lat="43.52095" lon="5.27548">
        <ele>139.9</ele>
        <time>2024-03-20T08:54:01.000Z</time>
      </trkpt>
      <trkpt lat="43.52095" lon="5.27551">
        <ele>140</ele>
        <time>2024-03-20T08:54:03.000Z</time>
      </trkpt>
      <trkpt lat="43.52092" lon="5.27554">
        <ele>139.9</ele>
        <time>2024-03-20T08:54:07.000Z</time>
      </trkpt>
      <trkpt lat="43.5209" lon="5.27555">
        <ele>139.7</ele>
        <time>2024-03-20T08:54:10.000Z</time>
      </trkpt>
      <trkpt lat="43.52088" lon="5.27557">
        <ele>139.7</ele>
        <time>2024-03-20T08:54:12.000Z</time>
      </trkpt>
      <trkpt lat="43.52087" lon="5.2756">
        <ele>139.7</ele>
        <time>2024-03-20T08:54:14.000Z</time>
      </trkpt>
      <trkpt lat="43.52086" lon="5.27562">
        <ele>139.8</ele>
        <time>2024-03-20T08:54:16.000Z</time>
      </trkpt>
      <trkpt lat="43.52085" lon="5.27565">
        <ele>139.8</ele>
        <time>2024-03-20T08:54:18.000Z</time>
      </trkpt>
      <trkpt lat="43.52083" lon="5.27568">
        <ele>139.9</ele>
        <time>2024-03-20T08:54:20.000Z</time>
      </trkpt>
      <trkpt lat="43.52082" lon="5.27571">
        <ele>140.3</ele>
        <time>2024-03-20T08:54:22.000Z</time>
      </trkpt>
      <trkpt lat="43.52081" lon="5.27573">
        <ele>140.6</ele>
        <time>2024-03-20T08:54:24.000Z</time>
      </trkpt>
      <trkpt lat="43.5208" lon="5.27575">
        <ele>140.9</ele>
        <time>2024-03-20T08:54:26.000Z</time>
      </trkpt>
      <trkpt lat="43.5208" lon="5.27578">
        <ele>141</ele>
        <time>2024-03-20T08:54:28.000Z</time>
      </trkpt>
      <trkpt lat="43.52081" lon="5.27581">
        <ele>141.2</ele>
        <time>2024-03-20T08:54:31.000Z</time>
      </trkpt>
      <trkpt lat="43.52081" lon="5.27584">
        <ele>141.3</ele>
        <time>2024-03-20T08:54:37.000Z</time>
      </trkpt>
      <trkpt lat="43.5208" lon="5.27586">
        <ele>141.5</ele>
        <time>2024-03-20T08:54:42.000Z</time>
      </trkpt>
      <trkpt lat="43.52077" lon="5.27587">
        <ele>141.8</ele>
        <time>2024-03-20T08:54:45.000Z</time>
      </trkpt>
      <trkpt lat="43.52075" lon="5.27589">
        <ele>142.1</ele>
        <time>2024-03-20T08:54:48.000Z</time>
      </trkpt>
      <trkpt lat="43.52073" lon="5.27591">
        <ele>142.3</ele>
        <time>2024-03-20T08:54:51.000Z</time>
      </trkpt>
      <trkpt lat="43.52072" lon="5.27593">
        <ele>142.4</ele>
        <time>2024-03-20T08:54:53.000Z</time>
      </trkpt>
      <trkpt lat="43.52071" lon="5.27596">
        <ele>142.6</ele>
        <time>2024-03-20T08:54:55.000Z</time>
      </trkpt>
      <trkpt lat="43.52071" lon="5.27599">
        <ele>142.7</ele>
        <time>2024-03-20T08:54:57.000Z</time>
      </trkpt>
      <trkpt lat="43.5207" lon="5.27603">
        <ele>142.8</ele>
        <time>2024-03-20T08:54:59.000Z</time>
      </trkpt>
      <trkpt lat="43.5207" lon="5.27606">
        <ele>142.9</ele>
        <time>2024-03-20T08:55:02.000Z</time>
      </trkpt>
      <trkpt lat="43.52069" lon="5.27609">
        <ele>143</ele>
        <time>2024-03-20T08:55:04.000Z</time>
      </trkpt>
      <trkpt lat="43.52068" lon="5.27611">
        <ele>143.1</ele>
        <time>2024-03-20T08:55:06.000Z</time>
      </trkpt>
      <trkpt lat="43.52068" lon="5.27614">
        <ele>143.3</ele>
        <time>2024-03-20T08:55:08.000Z</time>
      </trkpt>
      <trkpt lat="43.52067" lon="5.27617">
        <ele>143.6</ele>
        <time>2024-03-20T08:55:11.000Z</time>
      </trkpt>
      <trkpt lat="43.52066" lon="5.2762">
        <ele>143.9</ele>
        <time>2024-03-20T08:55:13.000Z</time>
      </trkpt>
      <trkpt lat="43.52064" lon="5.27622">
        <ele>144.2</ele>
        <time>2024-03-20T08:55:15.000Z</time>
      </trkpt>
      <trkpt lat="43.52063" lon="5.27625">
        <ele>144.5</ele>
        <time>2024-03-20T08:55:18.000Z</time>
      </trkpt>
      <trkpt lat="43.52062" lon="5.27629">
        <ele>144.9</ele>
        <time>2024-03-20T08:55:21.000Z</time>
      </trkpt>
      <trkpt lat="43.5206" lon="5.27633">
        <ele>145.2</ele>
        <time>2024-03-20T08:55:24.000Z</time>
      </trkpt>
      <trkpt lat="43.52059" lon="5.27636">
        <ele>145.5</ele>
        <time>2024-03-20T08:55:27.000Z</time>
      </trkpt>
      <trkpt lat="43.52058" lon="5.27638">
        <ele>145.8</ele>
        <time>2024-03-20T08:55:29.000Z</time>
      </trkpt>
      <trkpt lat="43.52057" lon="5.27641">
        <ele>145.9</ele>
        <time>2024-03-20T08:55:31.000Z</time>
      </trkpt>
      <trkpt lat="43.52055" lon="5.27643">
        <ele>145.9</ele>
        <time>2024-03-20T08:55:33.000Z</time>
      </trkpt>
      <trkpt lat="43.52054" lon="5.27645">
        <ele>146</ele>
        <time>2024-03-20T08:55:35.000Z</time>
      </trkpt>
      <trkpt lat="43.52053" lon="5.2765">
        <ele>146</ele>
        <time>2024-03-20T08:55:39.000Z</time>
      </trkpt>
      <trkpt lat="43.52052" lon="5.27652">
        <ele>146.2</ele>
        <time>2024-03-20T08:55:42.000Z</time>
      </trkpt>
      <trkpt lat="43.52051" lon="5.27656">
        <ele>146.3</ele>
        <time>2024-03-20T08:55:45.000Z</time>
      </trkpt>
      <trkpt lat="43.52049" lon="5.27659">
        <ele>146.5</ele>
        <time>2024-03-20T08:55:47.000Z</time>
      </trkpt>
      <trkpt lat="43.52048" lon="5.27662">
        <ele>146.6</ele>
        <time>2024-03-20T08:55:49.000Z</time>
      </trkpt>
      <trkpt lat="43.52047" lon="5.27667">
        <ele>146.8</ele>
        <time>2024-03-20T08:55:52.000Z</time>
      </trkpt>
      <trkpt lat="43.52046" lon="5.27669">
        <ele>147.1</ele>
        <time>2024-03-20T08:55:54.000Z</time>
      </trkpt>
      <trkpt lat="43.52045" lon="5.27671">
        <ele>147.3</ele>
        <time>2024-03-20T08:55:56.000Z</time>
      </trkpt>
      <trkpt lat="43.52044" lon="5.27674">
        <ele>147.6</ele>
        <time>2024-03-20T08:55:58.000Z</time>
      </trkpt>
      <trkpt lat="43.52043" lon="5.27677">
        <ele>147.8</ele>
        <time>2024-03-20T08:56:00.000Z</time>
      </trkpt>
      <trkpt lat="43.52041" lon="5.27679">
        <ele>148.1</ele>
        <time>2024-03-20T08:56:02.000Z</time>
      </trkpt>
      <trkpt lat="43.52041" lon="5.27682">
        <ele>148.1</ele>
        <time>2024-03-20T08:56:04.000Z</time>
      </trkpt>
      <trkpt lat="43.52039" lon="5.27684">
        <ele>148.4</ele>
        <time>2024-03-20T08:56:06.000Z</time>
      </trkpt>
      <trkpt lat="43.52038" lon="5.27686">
        <ele>148.6</ele>
        <time>2024-03-20T08:56:08.000Z</time>
      </trkpt>
      <trkpt lat="43.52036" lon="5.27689">
        <ele>148.9</ele>
        <time>2024-03-20T08:56:10.000Z</time>
      </trkpt>
      <trkpt lat="43.52034" lon="5.2769">
        <ele>149.2</ele>
        <time>2024-03-20T08:56:12.000Z</time>
      </trkpt>
      <trkpt lat="43.52032" lon="5.27694">
        <ele>149.4</ele>
        <time>2024-03-20T08:56:15.000Z</time>
      </trkpt>
      <trkpt lat="43.52031" lon="5.27698">
        <ele>149.5</ele>
        <time>2024-03-20T08:56:18.000Z</time>
      </trkpt>
      <trkpt lat="43.52029" lon="5.27701">
        <ele>149.6</ele>
        <time>2024-03-20T08:56:20.000Z</time>
      </trkpt>
      <trkpt lat="43.52029" lon="5.27704">
        <ele>149.6</ele>
        <time>2024-03-20T08:56:22.000Z</time>
      </trkpt>
      <trkpt lat="43.52028" lon="5.27706">
        <ele>149.6</ele>
        <time>2024-03-20T08:56:24.000Z</time>
      </trkpt>
      <trkpt lat="43.52026" lon="5.27709">
        <ele>149.8</ele>
        <time>2024-03-20T08:56:27.000Z</time>
      </trkpt>
      <trkpt lat="43.52025" lon="5.27712">
        <ele>149.9</ele>
        <time>2024-03-20T08:56:29.000Z</time>
      </trkpt>
      <trkpt lat="43.52023" lon="5.27714">
        <ele>150.1</ele>
        <time>2024-03-20T08:56:32.000Z</time>
      </trkpt>
      <trkpt lat="43.52022" lon="5.27716">
        <ele>150.4</ele>
        <time>2024-03-20T08:56:34.000Z</time>
      </trkpt>
      <trkpt lat="43.52019" lon="5.27719">
        <ele>150.7</ele>
        <time>2024-03-20T08:56:37.000Z</time>
      </trkpt>
      <trkpt lat="43.52018" lon="5.2772">
        <ele>150.9</ele>
        <time>2024-03-20T08:56:39.000Z</time>
      </trkpt>
      <trkpt lat="43.52016" lon="5.27723">
        <ele>151</ele>
        <time>2024-03-20T08:56:42.000Z</time>
      </trkpt>
      <trkpt lat="43.52015" lon="5.27726">
        <ele>151.2</ele>
        <time>2024-03-20T08:56:45.000Z</time>
      </trkpt>
      <trkpt lat="43.52014" lon="5.27729">
        <ele>151.3</ele>
        <time>2024-03-20T08:56:47.000Z</time>
      </trkpt>
      <trkpt lat="43.52013" lon="5.27732">
        <ele>151.3</ele>
        <time>2024-03-20T08:56:49.000Z</time>
      </trkpt>
      <trkpt lat="43.52013" lon="5.27735">
        <ele>151.3</ele>
        <time>2024-03-20T08:56:51.000Z</time>
      </trkpt>
      <trkpt lat="43.52011" lon="5.27737">
        <ele>151.4</ele>
        <time>2024-03-20T08:56:53.000Z</time>
      </trkpt>
      <trkpt lat="43.52009" lon="5.27739">
        <ele>151.5</ele>
        <time>2024-03-20T08:56:54.000Z</time>
      </trkpt>
      <trkpt lat="43.52008" lon="5.27742">
        <ele>151.6</ele>
        <time>2024-03-20T08:56:56.000Z</time>
      </trkpt>
      <trkpt lat="43.52006" lon="5.27745">
        <ele>151.7</ele>
        <time>2024-03-20T08:56:59.000Z</time>
      </trkpt>
      <trkpt lat="43.52004" lon="5.27748">
        <ele>151.6</ele>
        <time>2024-03-20T08:57:03.000Z</time>
      </trkpt>
      <trkpt lat="43.52002" lon="5.2775">
        <ele>151.7</ele>
        <time>2024-03-20T08:57:05.000Z</time>
      </trkpt>
      <trkpt lat="43.52001" lon="5.27752">
        <ele>151.8</ele>
        <time>2024-03-20T08:57:07.000Z</time>
      </trkpt>
      <trkpt lat="43.52" lon="5.27755">
        <ele>151.9</ele>
        <time>2024-03-20T08:57:09.000Z</time>
      </trkpt>
      <trkpt lat="43.51998" lon="5.27758">
        <ele>152.1</ele>
        <time>2024-03-20T08:57:11.000Z</time>
      </trkpt>
      <trkpt lat="43.51997" lon="5.2776">
        <ele>152.2</ele>
        <time>2024-03-20T08:57:13.000Z</time>
      </trkpt>
      <trkpt lat="43.51995" lon="5.27762">
        <ele>152.3</ele>
        <time>2024-03-20T08:57:15.000Z</time>
      </trkpt>
      <trkpt lat="43.51994" lon="5.27764">
        <ele>152.4</ele>
        <time>2024-03-20T08:57:17.000Z</time>
      </trkpt>
      <trkpt lat="43.51992" lon="5.27768">
        <ele>152.6</ele>
        <time>2024-03-20T08:57:20.000Z</time>
      </trkpt>
      <trkpt lat="43.51991" lon="5.27771">
        <ele>152.7</ele>
        <time>2024-03-20T08:57:22.000Z</time>
      </trkpt>
      <trkpt lat="43.51989" lon="5.27774">
        <ele>152.7</ele>
        <time>2024-03-20T08:57:24.000Z</time>
      </trkpt>
      <trkpt lat="43.51989" lon="5.27778">
        <ele>152.6</ele>
        <time>2024-03-20T08:57:25.000Z</time>
      </trkpt>
      <trkpt lat="43.51987" lon="5.2778">
        <ele>152.8</ele>
        <time>2024-03-20T08:57:26.000Z</time>
      </trkpt>
      <trkpt lat="43.51985" lon="5.27783">
        <ele>152.8</ele>
        <time>2024-03-20T08:57:29.000Z</time>
      </trkpt>
      <trkpt lat="43.51984" lon="5.27785">
        <ele>152.9</ele>
        <time>2024-03-20T08:57:33.000Z</time>
      </trkpt>
      <trkpt lat="43.51982" lon="5.27787">
        <ele>153</ele>
        <time>2024-03-20T08:57:37.000Z</time>
      </trkpt>
      <trkpt lat="43.51981" lon="5.27789">
        <ele>153</ele>
        <time>2024-03-20T08:57:39.000Z</time>
      </trkpt>
      <trkpt lat="43.5198" lon="5.27792">
        <ele>153</ele>
        <time>2024-03-20T08:57:41.000Z</time>
      </trkpt>
      <trkpt lat="43.51979" lon="5.27794">
        <ele>153</ele>
        <time>2024-03-20T08:57:43.000Z</time>
      </trkpt>
      <trkpt lat="43.51978" lon="5.27798">
        <ele>152.9</ele>
        <time>2024-03-20T08:57:46.000Z</time>
      </trkpt>
      <trkpt lat="43.51976" lon="5.27801">
        <ele>153</ele>
        <time>2024-03-20T08:57:49.000Z</time>
      </trkpt>
      <trkpt lat="43.51975" lon="5.27803">
        <ele>152.9</ele>
        <time>2024-03-20T08:57:51.000Z</time>
      </trkpt>
      <trkpt lat="43.51974" lon="5.27807">
        <ele>152.8</ele>
        <time>2024-03-20T08:57:54.000Z</time>
      </trkpt>
      <trkpt lat="43.51972" lon="5.27809">
        <ele>152.8</ele>
        <time>2024-03-20T08:57:56.000Z</time>
      </trkpt>
      <trkpt lat="43.51971" lon="5.27811">
        <ele>152.7</ele>
        <time>2024-03-20T08:57:58.000Z</time>
      </trkpt>
      <trkpt lat="43.5197" lon="5.27814">
        <ele>152.6</ele>
        <time>2024-03-20T08:58:00.000Z</time>
      </trkpt>
      <trkpt lat="43.51969" lon="5.27817">
        <ele>152.6</ele>
        <time>2024-03-20T08:58:02.000Z</time>
      </trkpt>
      <trkpt lat="43.51968" lon="5.2782">
        <ele>152.5</ele>
        <time>2024-03-20T08:58:05.000Z</time>
      </trkpt>
      <trkpt lat="43.51966" lon="5.27822">
        <ele>152.5</ele>
        <time>2024-03-20T08:58:07.000Z</time>
      </trkpt>
      <trkpt lat="43.51965" lon="5.27825">
        <ele>152.4</ele>
        <time>2024-03-20T08:58:09.000Z</time>
      </trkpt>
      <trkpt lat="43.51963" lon="5.27828">
        <ele>152.4</ele>
        <time>2024-03-20T08:58:11.000Z</time>
      </trkpt>
      <trkpt lat="43.51962" lon="5.2783">
        <ele>152.4</ele>
        <time>2024-03-20T08:58:13.000Z</time>
      </trkpt>
      <trkpt lat="43.5196" lon="5.27833">
        <ele>152.3</ele>
        <time>2024-03-20T08:58:16.000Z</time>
      </trkpt>
      <trkpt lat="43.51959" lon="5.27836">
        <ele>152.3</ele>
        <time>2024-03-20T08:58:18.000Z</time>
      </trkpt>
      <trkpt lat="43.51958" lon="5.27838">
        <ele>152.4</ele>
        <time>2024-03-20T08:58:20.000Z</time>
      </trkpt>
      <trkpt lat="43.51956" lon="5.2784">
        <ele>152.4</ele>
        <time>2024-03-20T08:58:22.000Z</time>
      </trkpt>
      <trkpt lat="43.51954" lon="5.27843">
        <ele>152.5</ele>
        <time>2024-03-20T08:58:24.000Z</time>
      </trkpt>
      <trkpt lat="43.51953" lon="5.27846">
        <ele>152.5</ele>
        <time>2024-03-20T08:58:26.000Z</time>
      </trkpt>
      <trkpt lat="43.51952" lon="5.27848">
        <ele>152.5</ele>
        <time>2024-03-20T08:58:28.000Z</time>
      </trkpt>
      <trkpt lat="43.51951" lon="5.2785">
        <ele>152.6</ele>
        <time>2024-03-20T08:58:30.000Z</time>
      </trkpt>
      <trkpt lat="43.5195" lon="5.27852">
        <ele>152.6</ele>
        <time>2024-03-20T08:58:32.000Z</time>
      </trkpt>
      <trkpt lat="43.51949" lon="5.27855">
        <ele>152.6</ele>
        <time>2024-03-20T08:58:34.000Z</time>
      </trkpt>
      <trkpt lat="43.51948" lon="5.2786">
        <ele>152.6</ele>
        <time>2024-03-20T08:58:36.000Z</time>
      </trkpt>
      <trkpt lat="43.51947" lon="5.27861">
        <ele>152.7</ele>
        <time>2024-03-20T08:58:38.000Z</time>
      </trkpt>
      <trkpt lat="43.51946" lon="5.27865">
        <ele>152.4</ele>
        <time>2024-03-20T08:58:40.000Z</time>
      </trkpt>
      <trkpt lat="43.51944" lon="5.27867">
        <ele>152.4</ele>
        <time>2024-03-20T08:58:43.000Z</time>
      </trkpt>
      <trkpt lat="43.51943" lon="5.27871">
        <ele>152.1</ele>
        <time>2024-03-20T08:58:45.000Z</time>
      </trkpt>
      <trkpt lat="43.51942" lon="5.27873">
        <ele>152</ele>
        <time>2024-03-20T08:58:47.000Z</time>
      </trkpt>
      <trkpt lat="43.51941" lon="5.27875">
        <ele>151.9</ele>
        <time>2024-03-20T08:58:48.000Z</time>
      </trkpt>
      <trkpt lat="43.5194" lon="5.27878">
        <ele>151.7</ele>
        <time>2024-03-20T08:58:50.000Z</time>
      </trkpt>
      <trkpt lat="43.51939" lon="5.27881">
        <ele>151.5</ele>
        <time>2024-03-20T08:58:52.000Z</time>
      </trkpt>
      <trkpt lat="43.51937" lon="5.27882">
        <ele>151.7</ele>
        <time>2024-03-20T08:58:54.000Z</time>
      </trkpt>
      <trkpt lat="43.51935" lon="5.27885">
        <ele>151.7</ele>
        <time>2024-03-20T08:58:56.000Z</time>
      </trkpt>
      <trkpt lat="43.51933" lon="5.27888">
        <ele>151.6</ele>
        <time>2024-03-20T08:58:58.000Z</time>
      </trkpt>
      <trkpt lat="43.51933" lon="5.27891">
        <ele>151.5</ele>
        <time>2024-03-20T08:59:00.000Z</time>
      </trkpt>
      <trkpt lat="43.51935" lon="5.27888">
        <ele>151.5</ele>
        <time>2024-03-20T08:59:05.000Z</time>
      </trkpt>
      <trkpt lat="43.51934" lon="5.2789">
        <ele>151.4</ele>
        <time>2024-03-20T08:59:35.000Z</time>
      </trkpt>
      <trkpt lat="43.51933" lon="5.27888">
        <ele>151.7</ele>
        <time>2024-03-20T09:00:22.000Z</time>
      </trkpt>
      <trkpt lat="43.51931" lon="5.27888">
        <ele>152</ele>
        <time>2024-03-20T09:00:51.000Z</time>
      </trkpt>
      <trkpt lat="43.51929" lon="5.27885">
        <ele>152.5</ele>
        <time>2024-03-20T09:00:55.000Z</time>
      </trkpt>
      <trkpt lat="43.51927" lon="5.27884">
        <ele>152.8</ele>
        <time>2024-03-20T09:00:57.000Z</time>
      </trkpt>
      <trkpt lat="43.51926" lon="5.27882">
        <ele>153.1</ele>
        <time>2024-03-20T09:00:59.000Z</time>
      </trkpt>
      <trkpt lat="43.51924" lon="5.2788">
        <ele>153.5</ele>
        <time>2024-03-20T09:01:01.000Z</time>
      </trkpt>
      <trkpt lat="43.51922" lon="5.27877">
        <ele>153.8</ele>
        <time>2024-03-20T09:01:05.000Z</time>
      </trkpt>
      <trkpt lat="43.51921" lon="5.27874">
        <ele>154.1</ele>
        <time>2024-03-20T09:01:09.000Z</time>
      </trkpt>
      <trkpt lat="43.5192" lon="5.27873">
        <ele>154.3</ele>
        <time>2024-03-20T09:01:12.000Z</time>
      </trkpt>
      <trkpt lat="43.51918" lon="5.27869">
        <ele>154.5</ele>
        <time>2024-03-20T09:01:14.000Z</time>
      </trkpt>
      <trkpt lat="43.51916" lon="5.27867">
        <ele>154.8</ele>
        <time>2024-03-20T09:01:17.000Z</time>
      </trkpt>
      <trkpt lat="43.51914" lon="5.27866">
        <ele>155</ele>
        <time>2024-03-20T09:01:19.000Z</time>
      </trkpt>
      <trkpt lat="43.51913" lon="5.27864">
        <ele>155.2</ele>
        <time>2024-03-20T09:01:21.000Z</time>
      </trkpt>
      <trkpt lat="43.51911" lon="5.27862">
        <ele>155.5</ele>
        <time>2024-03-20T09:01:23.000Z</time>
      </trkpt>
      <trkpt lat="43.51909" lon="5.2786">
        <ele>156</ele>
        <time>2024-03-20T09:01:26.000Z</time>
      </trkpt>
      <trkpt lat="43.51907" lon="5.27858">
        <ele>156.4</ele>
        <time>2024-03-20T09:01:28.000Z</time>
      </trkpt>
      <trkpt lat="43.51905" lon="5.27858">
        <ele>156.7</ele>
        <time>2024-03-20T09:01:31.000Z</time>
      </trkpt>
      <trkpt lat="43.51903" lon="5.27857">
        <ele>157</ele>
        <time>2024-03-20T09:01:33.000Z</time>
      </trkpt>
      <trkpt lat="43.51901" lon="5.27858">
        <ele>157.3</ele>
        <time>2024-03-20T09:01:36.000Z</time>
      </trkpt>
      <trkpt lat="43.51898" lon="5.27857">
        <ele>157.7</ele>
        <time>2024-03-20T09:01:39.000Z</time>
      </trkpt>
      <trkpt lat="43.51896" lon="5.27858">
        <ele>157.9</ele>
        <time>2024-03-20T09:01:43.000Z</time>
      </trkpt>
      <trkpt lat="43.51893" lon="5.27858">
        <ele>158.2</ele>
        <time>2024-03-20T09:01:45.000Z</time>
      </trkpt>
      <trkpt lat="43.51891" lon="5.27858">
        <ele>158.5</ele>
        <time>2024-03-20T09:01:48.000Z</time>
      </trkpt>
      <trkpt lat="43.51889" lon="5.27858">
        <ele>158.7</ele>
        <time>2024-03-20T09:01:52.000Z</time>
      </trkpt>
      <trkpt lat="43.51886" lon="5.27858">
        <ele>158.7</ele>
        <time>2024-03-20T09:01:55.000Z</time>
      </trkpt>
      <trkpt lat="43.51883" lon="5.27858">
        <ele>158.9</ele>
        <time>2024-03-20T09:01:57.000Z</time>
      </trkpt>
      <trkpt lat="43.51881" lon="5.27858">
        <ele>159</ele>
        <time>2024-03-20T09:02:00.000Z</time>
      </trkpt>
      <trkpt lat="43.51878" lon="5.27857">
        <ele>159.3</ele>
        <time>2024-03-20T09:02:02.000Z</time>
      </trkpt>
      <trkpt lat="43.51876" lon="5.27857">
        <ele>159.3</ele>
        <time>2024-03-20T09:02:07.000Z</time>
      </trkpt>
      <trkpt lat="43.51877" lon="5.27858">
        <ele>159</ele>
        <time>2024-03-20T09:02:12.000Z</time>
      </trkpt>
      <trkpt lat="43.51874" lon="5.27858">
        <ele>159.2</ele>
        <time>2024-03-20T09:02:22.000Z</time>
      </trkpt>
      <trkpt lat="43.51872" lon="5.27857">
        <ele>159.5</ele>
        <time>2024-03-20T09:02:25.000Z</time>
      </trkpt>
      <trkpt lat="43.5187" lon="5.27857">
        <ele>159.5</ele>
        <time>2024-03-20T09:02:28.000Z</time>
      </trkpt>
      <trkpt lat="43.5187" lon="5.27854">
        <ele>160</ele>
        <time>2024-03-20T09:02:40.000Z</time>
      </trkpt>
      <trkpt lat="43.51868" lon="5.27856">
        <ele>159.8</ele>
        <time>2024-03-20T09:02:45.000Z</time>
      </trkpt>
      <trkpt lat="43.51865" lon="5.27853">
        <ele>160.3</ele>
        <time>2024-03-20T09:02:47.000Z</time>
      </trkpt>
      <trkpt lat="43.51863" lon="5.27854">
        <ele>160.2</ele>
        <time>2024-03-20T09:02:49.000Z</time>
      </trkpt>
      <trkpt lat="43.51861" lon="5.27854">
        <ele>160.3</ele>
        <time>2024-03-20T09:02:51.000Z</time>
      </trkpt>
      <trkpt lat="43.51858" lon="5.27853">
        <ele>159.7</ele>
        <time>2024-03-20T09:02:53.000Z</time>
      </trkpt>
      <trkpt lat="43.51856" lon="5.27851">
        <ele>159.5</ele>
        <time>2024-03-20T09:02:56.000Z</time>
      </trkpt>
      <trkpt lat="43.51853" lon="5.2785">
        <ele>159</ele>
        <time>2024-03-20T09:02:59.000Z</time>
      </trkpt>
      <trkpt lat="43.51852" lon="5.2785">
        <ele>158.7</ele>
        <time>2024-03-20T09:03:02.000Z</time>
      </trkpt>
      <trkpt lat="43.5185" lon="5.27848">
        <ele>158.5</ele>
        <time>2024-03-20T09:03:05.000Z</time>
      </trkpt>
      <trkpt lat="43.51848" lon="5.27848">
        <ele>158</ele>
        <time>2024-03-20T09:03:09.000Z</time>
      </trkpt>
      <trkpt lat="43.51846" lon="5.27846">
        <ele>157.8</ele>
        <time>2024-03-20T09:03:12.000Z</time>
      </trkpt>
      <trkpt lat="43.51844" lon="5.27846">
        <ele>157.4</ele>
        <time>2024-03-20T09:03:15.000Z</time>
      </trkpt>
      <trkpt lat="43.51842" lon="5.27844">
        <ele>157.2</ele>
        <time>2024-03-20T09:03:17.000Z</time>
      </trkpt>
      <trkpt lat="43.5184" lon="5.27842">
        <ele>156.9</ele>
        <time>2024-03-20T09:03:20.000Z</time>
      </trkpt>
      <trkpt lat="43.51838" lon="5.2784">
        <ele>156.6</ele>
        <time>2024-03-20T09:03:22.000Z</time>
      </trkpt>
      <trkpt lat="43.51837" lon="5.27839">
        <ele>156.3</ele>
        <time>2024-03-20T09:03:24.000Z</time>
      </trkpt>
      <trkpt lat="43.51835" lon="5.27837">
        <ele>156.1</ele>
        <time>2024-03-20T09:03:26.000Z</time>
      </trkpt>
      <trkpt lat="43.51833" lon="5.27835">
        <ele>155.8</ele>
        <time>2024-03-20T09:03:29.000Z</time>
      </trkpt>
      <trkpt lat="43.51831" lon="5.27834">
        <ele>155.8</ele>
        <time>2024-03-20T09:03:31.000Z</time>
      </trkpt>
      <trkpt lat="43.51829" lon="5.27833">
        <ele>155.9</ele>
        <time>2024-03-20T09:03:33.000Z</time>
      </trkpt>
      <trkpt lat="43.51826" lon="5.27832">
        <ele>155.8</ele>
        <time>2024-03-20T09:03:36.000Z</time>
      </trkpt>
      <trkpt lat="43.51824" lon="5.27831">
        <ele>155.8</ele>
        <time>2024-03-20T09:03:38.000Z</time>
      </trkpt>
      <trkpt lat="43.51822" lon="5.27832">
        <ele>155.6</ele>
        <time>2024-03-20T09:03:40.000Z</time>
      </trkpt>
      <trkpt lat="43.51819" lon="5.27831">
        <ele>155.7</ele>
        <time>2024-03-20T09:03:42.000Z</time>
      </trkpt>
      <trkpt lat="43.51816" lon="5.27829">
        <ele>155.8</ele>
        <time>2024-03-20T09:03:45.000Z</time>
      </trkpt>
      <trkpt lat="43.51815" lon="5.2783">
        <ele>155.6</ele>
        <time>2024-03-20T09:03:46.000Z</time>
      </trkpt>
      <trkpt lat="43.51812" lon="5.2783">
        <ele>155.3</ele>
        <time>2024-03-20T09:03:48.000Z</time>
      </trkpt>
      <trkpt lat="43.5181" lon="5.27831">
        <ele>154.9</ele>
        <time>2024-03-20T09:03:51.000Z</time>
      </trkpt>
      <trkpt lat="43.51809" lon="5.27833">
        <ele>154.3</ele>
        <time>2024-03-20T09:03:53.000Z</time>
      </trkpt>
      <trkpt lat="43.51806" lon="5.27832">
        <ele>154.5</ele>
        <time>2024-03-20T09:03:56.000Z</time>
      </trkpt>
      <trkpt lat="43.51804" lon="5.27833">
        <ele>154</ele>
        <time>2024-03-20T09:03:59.000Z</time>
      </trkpt>
      <trkpt lat="43.51802" lon="5.27832">
        <ele>154.4</ele>
        <time>2024-03-20T09:04:02.000Z</time>
      </trkpt>
      <trkpt lat="43.518" lon="5.27833">
        <ele>154.3</ele>
        <time>2024-03-20T09:04:05.000Z</time>
      </trkpt>
      <trkpt lat="43.51797" lon="5.27834">
        <ele>154.3</ele>
        <time>2024-03-20T09:04:08.000Z</time>
      </trkpt>
      <trkpt lat="43.51795" lon="5.27833">
        <ele>154.6</ele>
        <time>2024-03-20T09:04:10.000Z</time>
      </trkpt>
      <trkpt lat="43.51794" lon="5.27834">
        <ele>154.4</ele>
        <time>2024-03-20T09:04:12.000Z</time>
      </trkpt>
      <trkpt lat="43.51791" lon="5.27832">
        <ele>154.8</ele>
        <time>2024-03-20T09:04:15.000Z</time>
      </trkpt>
      <trkpt lat="43.51789" lon="5.27834">
        <ele>154.6</ele>
        <time>2024-03-20T09:04:17.000Z</time>
      </trkpt>
      <trkpt lat="43.51786" lon="5.27835">
        <ele>154.5</ele>
        <time>2024-03-20T09:04:21.000Z</time>
      </trkpt>
      <trkpt lat="43.51784" lon="5.27835">
        <ele>154.6</ele>
        <time>2024-03-20T09:04:23.000Z</time>
      </trkpt>
      <trkpt lat="43.51782" lon="5.27834">
        <ele>154.8</ele>
        <time>2024-03-20T09:04:26.000Z</time>
      </trkpt>
      <trkpt lat="43.5178" lon="5.27834">
        <ele>154.9</ele>
        <time>2024-03-20T09:04:29.000Z</time>
      </trkpt>
      <trkpt lat="43.51777" lon="5.27832">
        <ele>155.3</ele>
        <time>2024-03-20T09:04:32.000Z</time>
      </trkpt>
      <trkpt lat="43.51775" lon="5.27832">
        <ele>155.6</ele>
        <time>2024-03-20T09:04:35.000Z</time>
      </trkpt>
      <trkpt lat="43.51773" lon="5.27832">
        <ele>155.7</ele>
        <time>2024-03-20T09:04:37.000Z</time>
      </trkpt>
      <trkpt lat="43.5177" lon="5.27832">
        <ele>155.9</ele>
        <time>2024-03-20T09:04:40.000Z</time>
      </trkpt>
      <trkpt lat="43.51768" lon="5.2783">
        <ele>156.3</ele>
        <time>2024-03-20T09:04:42.000Z</time>
      </trkpt>
      <trkpt lat="43.51766" lon="5.2783">
        <ele>156.4</ele>
        <time>2024-03-20T09:04:45.000Z</time>
      </trkpt>
      <trkpt lat="43.51764" lon="5.27832">
        <ele>156.3</ele>
        <time>2024-03-20T09:04:47.000Z</time>
      </trkpt>
      <trkpt lat="43.51762" lon="5.27834">
        <ele>156.1</ele>
        <time>2024-03-20T09:04:52.000Z</time>
      </trkpt>
      <trkpt lat="43.51761" lon="5.27836">
        <ele>155.9</ele>
        <time>2024-03-20T09:04:53.000Z</time>
      </trkpt>
      <trkpt lat="43.51758" lon="5.2784">
        <ele>155.5</ele>
        <time>2024-03-20T09:04:59.000Z</time>
      </trkpt>
      <trkpt lat="43.51757" lon="5.27843">
        <ele>155.3</ele>
        <time>2024-03-20T09:05:03.000Z</time>
      </trkpt>
      <trkpt lat="43.51756" lon="5.27845">
        <ele>155</ele>
        <time>2024-03-20T09:05:05.000Z</time>
      </trkpt>
      <trkpt lat="43.51755" lon="5.27848">
        <ele>154.6</ele>
        <time>2024-03-20T09:05:08.000Z</time>
      </trkpt>
      <trkpt lat="43.51753" lon="5.2785">
        <ele>154.4</ele>
        <time>2024-03-20T09:05:09.000Z</time>
      </trkpt>
      <trkpt lat="43.51753" lon="5.27853">
        <ele>154</ele>
        <time>2024-03-20T09:05:11.000Z</time>
      </trkpt>
      <trkpt lat="43.51752" lon="5.27855">
        <ele>153.7</ele>
        <time>2024-03-20T09:05:13.000Z</time>
      </trkpt>
      <trkpt lat="43.51752" lon="5.27858">
        <ele>153.3</ele>
        <time>2024-03-20T09:05:17.000Z</time>
      </trkpt>
      <trkpt lat="43.51752" lon="5.27862">
        <ele>152.9</ele>
        <time>2024-03-20T09:05:19.000Z</time>
      </trkpt>
      <trkpt lat="43.51751" lon="5.27864">
        <ele>152.5</ele>
        <time>2024-03-20T09:05:21.000Z</time>
      </trkpt>
      <trkpt lat="43.51749" lon="5.27868">
        <ele>152.2</ele>
        <time>2024-03-20T09:05:23.000Z</time>
      </trkpt>
      <trkpt lat="43.51748" lon="5.2787">
        <ele>152.2</ele>
        <time>2024-03-20T09:05:24.000Z</time>
      </trkpt>
      <trkpt lat="43.51747" lon="5.27872">
        <ele>152.1</ele>
        <time>2024-03-20T09:05:25.000Z</time>
      </trkpt>
      <trkpt lat="43.51745" lon="5.27872">
        <ele>152.4</ele>
        <time>2024-03-20T09:05:26.000Z</time>
      </trkpt>
      <trkpt lat="43.51744" lon="5.27874">
        <ele>152.4</ele>
        <time>2024-03-20T09:05:29.000Z</time>
      </trkpt>
      <trkpt lat="43.51741" lon="5.27875">
        <ele>152.8</ele>
        <time>2024-03-20T09:05:31.000Z</time>
      </trkpt>
      <trkpt lat="43.51739" lon="5.27875">
        <ele>153.3</ele>
        <time>2024-03-20T09:05:33.000Z</time>
      </trkpt>
      <trkpt lat="43.51737" lon="5.27877">
        <ele>153.2</ele>
        <time>2024-03-20T09:05:36.000Z</time>
      </trkpt>
      <trkpt lat="43.51735" lon="5.27879">
        <ele>153</ele>
        <time>2024-03-20T09:05:38.000Z</time>
      </trkpt>
      <trkpt lat="43.51733" lon="5.2788">
        <ele>153.5</ele>
        <time>2024-03-20T09:05:40.000Z</time>
      </trkpt>
      <trkpt lat="43.51732" lon="5.27882">
        <ele>153.1</ele>
        <time>2024-03-20T09:05:42.000Z</time>
      </trkpt>
      <trkpt lat="43.5173" lon="5.27885">
        <ele>152.7</ele>
        <time>2024-03-20T09:05:45.000Z</time>
      </trkpt>
      <trkpt lat="43.51729" lon="5.27886">
        <ele>152.7</ele>
        <time>2024-03-20T09:05:46.000Z</time>
      </trkpt>
      <trkpt lat="43.51727" lon="5.27889">
        <ele>152.3</ele>
        <time>2024-03-20T09:05:48.000Z</time>
      </trkpt>
      <trkpt lat="43.51724" lon="5.27891">
        <ele>152.3</ele>
        <time>2024-03-20T09:05:50.000Z</time>
      </trkpt>
      <trkpt lat="43.51723" lon="5.27894">
        <ele>152.1</ele>
        <time>2024-03-20T09:05:52.000Z</time>
      </trkpt>
      <trkpt lat="43.51721" lon="5.27896">
        <ele>151.8</ele>
        <time>2024-03-20T09:05:54.000Z</time>
      </trkpt>
      <trkpt lat="43.5172" lon="5.27899">
        <ele>151.6</ele>
        <time>2024-03-20T09:05:56.000Z</time>
      </trkpt>
      <trkpt lat="43.51718" lon="5.27901">
        <ele>151.4</ele>
        <time>2024-03-20T09:05:59.000Z</time>
      </trkpt>
      <trkpt lat="43.51717" lon="5.27904">
        <ele>151.1</ele>
        <time>2024-03-20T09:06:01.000Z</time>
      </trkpt>
      <trkpt lat="43.51717" lon="5.27907">
        <ele>150.7</ele>
        <time>2024-03-20T09:06:03.000Z</time>
      </trkpt>
      <trkpt lat="43.51715" lon="5.27909">
        <ele>150.4</ele>
        <time>2024-03-20T09:06:05.000Z</time>
      </trkpt>
      <trkpt lat="43.51714" lon="5.27911">
        <ele>150.2</ele>
        <time>2024-03-20T09:06:07.000Z</time>
      </trkpt>
      <trkpt lat="43.51713" lon="5.27914">
        <ele>149.9</ele>
        <time>2024-03-20T09:06:09.000Z</time>
      </trkpt>
      <trkpt lat="43.51712" lon="5.27916">
        <ele>149.6</ele>
        <time>2024-03-20T09:06:11.000Z</time>
      </trkpt>
      <trkpt lat="43.5171" lon="5.27919">
        <ele>149.6</ele>
        <time>2024-03-20T09:06:13.000Z</time>
      </trkpt>
      <trkpt lat="43.51709" lon="5.27921">
        <ele>149.6</ele>
        <time>2024-03-20T09:06:15.000Z</time>
      </trkpt>
      <trkpt lat="43.51707" lon="5.27923">
        <ele>149.8</ele>
        <time>2024-03-20T09:06:17.000Z</time>
      </trkpt>
      <trkpt lat="43.51705" lon="5.27925">
        <ele>149.9</ele>
        <time>2024-03-20T09:06:19.000Z</time>
      </trkpt>
      <trkpt lat="43.51703" lon="5.27926">
        <ele>150.2</ele>
        <time>2024-03-20T09:06:22.000Z</time>
      </trkpt>
      <trkpt lat="43.51701" lon="5.27927">
        <ele>150.4</ele>
        <time>2024-03-20T09:06:24.000Z</time>
      </trkpt>
      <trkpt lat="43.51699" lon="5.27929">
        <ele>150.5</ele>
        <time>2024-03-20T09:06:26.000Z</time>
      </trkpt>
      <trkpt lat="43.51697" lon="5.2793">
        <ele>150.7</ele>
        <time>2024-03-20T09:06:28.000Z</time>
      </trkpt>
      <trkpt lat="43.51694" lon="5.2793">
        <ele>151</ele>
        <time>2024-03-20T09:06:31.000Z</time>
      </trkpt>
      <trkpt lat="43.51692" lon="5.2793">
        <ele>150.9</ele>
        <time>2024-03-20T09:06:33.000Z</time>
      </trkpt>
      <trkpt lat="43.5169" lon="5.27931">
        <ele>150.8</ele>
        <time>2024-03-20T09:06:35.000Z</time>
      </trkpt>
      <trkpt lat="43.51687" lon="5.2793">
        <ele>150.7</ele>
        <time>2024-03-20T09:06:37.000Z</time>
      </trkpt>
      <trkpt lat="43.51685" lon="5.2793">
        <ele>150.6</ele>
        <time>2024-03-20T09:06:39.000Z</time>
      </trkpt>
      <trkpt lat="43.51683" lon="5.27928">
        <ele>150.6</ele>
        <time>2024-03-20T09:06:41.000Z</time>
      </trkpt>
      <trkpt lat="43.51681" lon="5.27927">
        <ele>150.5</ele>
        <time>2024-03-20T09:06:43.000Z</time>
      </trkpt>
      <trkpt lat="43.51679" lon="5.27927">
        <ele>150.5</ele>
        <time>2024-03-20T09:06:45.000Z</time>
      </trkpt>
      <trkpt lat="43.51677" lon="5.27925">
        <ele>150.6</ele>
        <time>2024-03-20T09:06:47.000Z</time>
      </trkpt>
      <trkpt lat="43.51675" lon="5.27924">
        <ele>150.6</ele>
        <time>2024-03-20T09:06:49.000Z</time>
      </trkpt>
      <trkpt lat="43.51674" lon="5.27922">
        <ele>150.7</ele>
        <time>2024-03-20T09:06:51.000Z</time>
      </trkpt>
      <trkpt lat="43.51671" lon="5.27922">
        <ele>150.7</ele>
        <time>2024-03-20T09:06:53.000Z</time>
      </trkpt>
      <trkpt lat="43.51669" lon="5.2792">
        <ele>150.7</ele>
        <time>2024-03-20T09:06:55.000Z</time>
      </trkpt>
      <trkpt lat="43.51667" lon="5.27918">
        <ele>150.8</ele>
        <time>2024-03-20T09:06:57.000Z</time>
      </trkpt>
      <trkpt lat="43.51665" lon="5.27916">
        <ele>150.9</ele>
        <time>2024-03-20T09:07:00.000Z</time>
      </trkpt>
      <trkpt lat="43.51663" lon="5.27915">
        <ele>151</ele>
        <time>2024-03-20T09:07:02.000Z</time>
      </trkpt>
      <trkpt lat="43.51661" lon="5.27913">
        <ele>151.2</ele>
        <time>2024-03-20T09:07:03.000Z</time>
      </trkpt>
      <trkpt lat="43.5166" lon="5.2791">
        <ele>151.4</ele>
        <time>2024-03-20T09:07:05.000Z</time>
      </trkpt>
      <trkpt lat="43.51659" lon="5.27908">
        <ele>151.9</ele>
        <time>2024-03-20T09:07:08.000Z</time>
      </trkpt>
      <trkpt lat="43.51657" lon="5.27906">
        <ele>151.7</ele>
        <time>2024-03-20T09:07:09.000Z</time>
      </trkpt>
      <trkpt lat="43.51655" lon="5.27904">
        <ele>151.9</ele>
        <time>2024-03-20T09:07:12.000Z</time>
      </trkpt>
      <trkpt lat="43.51653" lon="5.27902">
        <ele>152</ele>
        <time>2024-03-20T09:07:17.000Z</time>
      </trkpt>
      <trkpt lat="43.51651" lon="5.27901">
        <ele>151.8</ele>
        <time>2024-03-20T09:07:19.000Z</time>
      </trkpt>
      <trkpt lat="43.51649" lon="5.27899">
        <ele>151.7</ele>
        <time>2024-03-20T09:07:21.000Z</time>
      </trkpt>
      <trkpt lat="43.51647" lon="5.27897">
        <ele>151.6</ele>
        <time>2024-03-20T09:07:23.000Z</time>
      </trkpt>
      <trkpt lat="43.51645" lon="5.27894">
        <ele>151.6</ele>
        <time>2024-03-20T09:07:26.000Z</time>
      </trkpt>
      <trkpt lat="43.51644" lon="5.27891">
        <ele>151.7</ele>
        <time>2024-03-20T09:07:29.000Z</time>
      </trkpt>
      <trkpt lat="43.51642" lon="5.27889">
        <ele>151.7</ele>
        <time>2024-03-20T09:07:32.000Z</time>
      </trkpt>
      <trkpt lat="43.51641" lon="5.27887">
        <ele>151.9</ele>
        <time>2024-03-20T09:07:34.000Z</time>
      </trkpt>
      <trkpt lat="43.51639" lon="5.27885">
        <ele>151.8</ele>
        <time>2024-03-20T09:07:36.000Z</time>
      </trkpt>
      <trkpt lat="43.51637" lon="5.27884">
        <ele>151.9</ele>
        <time>2024-03-20T09:07:38.000Z</time>
      </trkpt>
      <trkpt lat="43.51635" lon="5.27882">
        <ele>152</ele>
        <time>2024-03-20T09:07:41.000Z</time>
      </trkpt>
      <trkpt lat="43.51634" lon="5.27879">
        <ele>152.3</ele>
        <time>2024-03-20T09:07:44.000Z</time>
      </trkpt>
      <trkpt lat="43.51632" lon="5.27878">
        <ele>152.4</ele>
        <time>2024-03-20T09:07:46.000Z</time>
      </trkpt>
      <trkpt lat="43.51631" lon="5.27875">
        <ele>152.6</ele>
        <time>2024-03-20T09:07:48.000Z</time>
      </trkpt>
      <trkpt lat="43.51629" lon="5.27873">
        <ele>152.7</ele>
        <time>2024-03-20T09:07:50.000Z</time>
      </trkpt>
      <trkpt lat="43.51628" lon="5.2787">
        <ele>152.9</ele>
        <time>2024-03-20T09:07:52.000Z</time>
      </trkpt>
      <trkpt lat="43.51628" lon="5.27867">
        <ele>153.2</ele>
        <time>2024-03-20T09:07:54.000Z</time>
      </trkpt>
      <trkpt lat="43.51626" lon="5.27864">
        <ele>153.4</ele>
        <time>2024-03-20T09:07:57.000Z</time>
      </trkpt>
      <trkpt lat="43.51625" lon="5.2786">
        <ele>153.5</ele>
        <time>2024-03-20T09:07:59.000Z</time>
      </trkpt>
      <trkpt lat="43.51623" lon="5.27855">
        <ele>153.8</ele>
        <time>2024-03-20T09:08:02.000Z</time>
      </trkpt>
      <trkpt lat="43.51622" lon="5.27852">
        <ele>154</ele>
        <time>2024-03-20T09:08:05.000Z</time>
      </trkpt>
      <trkpt lat="43.5162" lon="5.2785">
        <ele>153.8</ele>
        <time>2024-03-20T09:08:07.000Z</time>
      </trkpt>
      <trkpt lat="43.51619" lon="5.27847">
        <ele>153.7</ele>
        <time>2024-03-20T09:08:09.000Z</time>
      </trkpt>
      <trkpt lat="43.51618" lon="5.27845">
        <ele>153.6</ele>
        <time>2024-03-20T09:08:11.000Z</time>
      </trkpt>
      <trkpt lat="43.51616" lon="5.27843">
        <ele>153.5</ele>
        <time>2024-03-20T09:08:13.000Z</time>
      </trkpt>
      <trkpt lat="43.51615" lon="5.2784">
        <ele>153.5</ele>
        <time>2024-03-20T09:08:15.000Z</time>
      </trkpt>
      <trkpt lat="43.51611" lon="5.27838">
        <ele>152.5</ele>
        <time>2024-03-20T09:08:18.000Z</time>
      </trkpt>
      <trkpt lat="43.51609" lon="5.27836">
        <ele>152.5</ele>
        <time>2024-03-20T09:08:20.000Z</time>
      </trkpt>
      <trkpt lat="43.51608" lon="5.27833">
        <ele>152.8</ele>
        <time>2024-03-20T09:08:22.000Z</time>
      </trkpt>
      <trkpt lat="43.51607" lon="5.2783">
        <ele>153.1</ele>
        <time>2024-03-20T09:08:24.000Z</time>
      </trkpt>
      <trkpt lat="43.51606" lon="5.27827">
        <ele>153.6</ele>
        <time>2024-03-20T09:08:26.000Z</time>
      </trkpt>
      <trkpt lat="43.51604" lon="5.27824">
        <ele>154</ele>
        <time>2024-03-20T09:08:29.000Z</time>
      </trkpt>
      <trkpt lat="43.51602" lon="5.27821">
        <ele>154.1</ele>
        <time>2024-03-20T09:08:31.000Z</time>
      </trkpt>
      <trkpt lat="43.516" lon="5.27821">
        <ele>153.8</ele>
        <time>2024-03-20T09:08:33.000Z</time>
      </trkpt>
      <trkpt lat="43.51598" lon="5.27818">
        <ele>153.8</ele>
        <time>2024-03-20T09:08:36.000Z</time>
      </trkpt>
      <trkpt lat="43.51597" lon="5.27815">
        <ele>154</ele>
        <time>2024-03-20T09:08:38.000Z</time>
      </trkpt>
      <trkpt lat="43.51595" lon="5.27812">
        <ele>154.2</ele>
        <time>2024-03-20T09:08:41.000Z</time>
      </trkpt>
      <trkpt lat="43.51594" lon="5.27809">
        <ele>154.4</ele>
        <time>2024-03-20T09:08:44.000Z</time>
      </trkpt>
      <trkpt lat="43.51594" lon="5.27806">
        <ele>154.6</ele>
        <time>2024-03-20T09:08:46.000Z</time>
      </trkpt>
      <trkpt lat="43.51593" lon="5.27802">
        <ele>155.1</ele>
        <time>2024-03-20T09:08:48.000Z</time>
      </trkpt>
      <trkpt lat="43.51593" lon="5.27799">
        <ele>155.4</ele>
        <time>2024-03-20T09:08:50.000Z</time>
      </trkpt>
      <trkpt lat="43.51591" lon="5.27795">
        <ele>155.5</ele>
        <time>2024-03-20T09:08:53.000Z</time>
      </trkpt>
      <trkpt lat="43.51589" lon="5.27793">
        <ele>155.5</ele>
        <time>2024-03-20T09:08:55.000Z</time>
      </trkpt>
      <trkpt lat="43.51587" lon="5.2779">
        <ele>155.3</ele>
        <time>2024-03-20T09:08:57.000Z</time>
      </trkpt>
      <trkpt lat="43.51585" lon="5.27788">
        <ele>155</ele>
        <time>2024-03-20T09:08:59.000Z</time>
      </trkpt>
      <trkpt lat="43.51583" lon="5.27786">
        <ele>154.8</ele>
        <time>2024-03-20T09:09:01.000Z</time>
      </trkpt>
      <trkpt lat="43.51581" lon="5.27784">
        <ele>155</ele>
        <time>2024-03-20T09:09:03.000Z</time>
      </trkpt>
      <trkpt lat="43.51579" lon="5.27782">
        <ele>155.1</ele>
        <time>2024-03-20T09:09:05.000Z</time>
      </trkpt>
      <trkpt lat="43.51577" lon="5.2778">
        <ele>155.2</ele>
        <time>2024-03-20T09:09:07.000Z</time>
      </trkpt>
      <trkpt lat="43.51574" lon="5.27778">
        <ele>155.3</ele>
        <time>2024-03-20T09:09:10.000Z</time>
      </trkpt>
      <trkpt lat="43.51571" lon="5.27777">
        <ele>155.3</ele>
        <time>2024-03-20T09:09:12.000Z</time>
      </trkpt>
      <trkpt lat="43.51569" lon="5.27777">
        <ele>155.2</ele>
        <time>2024-03-20T09:09:14.000Z</time>
      </trkpt>
      <trkpt lat="43.51568" lon="5.27775">
        <ele>155.4</ele>
        <time>2024-03-20T09:09:16.000Z</time>
      </trkpt>
      <trkpt lat="43.51566" lon="5.27773">
        <ele>155.5</ele>
        <time>2024-03-20T09:09:19.000Z</time>
      </trkpt>
      <trkpt lat="43.51563" lon="5.27772">
        <ele>155.6</ele>
        <time>2024-03-20T09:09:22.000Z</time>
      </trkpt>
      <trkpt lat="43.51562" lon="5.2777">
        <ele>155.8</ele>
        <time>2024-03-20T09:09:24.000Z</time>
      </trkpt>
      <trkpt lat="43.51559" lon="5.27768">
        <ele>155.9</ele>
        <time>2024-03-20T09:09:26.000Z</time>
      </trkpt>
      <trkpt lat="43.51557" lon="5.27765">
        <ele>156</ele>
        <time>2024-03-20T09:09:29.000Z</time>
      </trkpt>
      <trkpt lat="43.51555" lon="5.27761">
        <ele>156.3</ele>
        <time>2024-03-20T09:09:33.000Z</time>
      </trkpt>
      <trkpt lat="43.51553" lon="5.27759">
        <ele>156.3</ele>
        <time>2024-03-20T09:09:35.000Z</time>
      </trkpt>
      <trkpt lat="43.51551" lon="5.27756">
        <ele>156.4</ele>
        <time>2024-03-20T09:09:37.000Z</time>
      </trkpt>
      <trkpt lat="43.51549" lon="5.27754">
        <ele>156.4</ele>
        <time>2024-03-20T09:09:40.000Z</time>
      </trkpt>
      <trkpt lat="43.51549" lon="5.27751">
        <ele>156.6</ele>
        <time>2024-03-20T09:09:42.000Z</time>
      </trkpt>
      <trkpt lat="43.51547" lon="5.27749">
        <ele>156.7</ele>
        <time>2024-03-20T09:09:44.000Z</time>
      </trkpt>
      <trkpt lat="43.51546" lon="5.27745">
        <ele>157.2</ele>
        <time>2024-03-20T09:09:48.000Z</time>
      </trkpt>
      <trkpt lat="43.51545" lon="5.27742">
        <ele>157.6</ele>
        <time>2024-03-20T09:09:51.000Z</time>
      </trkpt>
      <trkpt lat="43.51544" lon="5.2774">
        <ele>157.9</ele>
        <time>2024-03-20T09:09:53.000Z</time>
      </trkpt>
      <trkpt lat="43.51542" lon="5.27738">
        <ele>157.9</ele>
        <time>2024-03-20T09:09:55.000Z</time>
      </trkpt>
      <trkpt lat="43.5154" lon="5.27736">
        <ele>157.8</ele>
        <time>2024-03-20T09:09:56.000Z</time>
      </trkpt>
      <trkpt lat="43.51538" lon="5.27733">
        <ele>158</ele>
        <time>2024-03-20T09:09:59.000Z</time>
      </trkpt>
      <trkpt lat="43.51536" lon="5.2773">
        <ele>158.3</ele>
        <time>2024-03-20T09:10:01.000Z</time>
      </trkpt>
      <trkpt lat="43.51534" lon="5.27726">
        <ele>158.5</ele>
        <time>2024-03-20T09:10:03.000Z</time>
      </trkpt>
      <trkpt lat="43.51532" lon="5.27725">
        <ele>158.4</ele>
        <time>2024-03-20T09:10:05.000Z</time>
      </trkpt>
      <trkpt lat="43.51531" lon="5.27722">
        <ele>158.6</ele>
        <time>2024-03-20T09:10:09.000Z</time>
      </trkpt>
      <trkpt lat="43.5153" lon="5.27719">
        <ele>159.3</ele>
        <time>2024-03-20T09:10:11.000Z</time>
      </trkpt>
      <trkpt lat="43.51527" lon="5.27716">
        <ele>159.6</ele>
        <time>2024-03-20T09:10:14.000Z</time>
      </trkpt>
      <trkpt lat="43.51525" lon="5.27714">
        <ele>160</ele>
        <time>2024-03-20T09:10:16.000Z</time>
      </trkpt>
      <trkpt lat="43.51523" lon="5.27713">
        <ele>160.2</ele>
        <time>2024-03-20T09:10:18.000Z</time>
      </trkpt>
      <trkpt lat="43.51522" lon="5.27711">
        <ele>160.5</ele>
        <time>2024-03-20T09:10:20.000Z</time>
      </trkpt>
      <trkpt lat="43.5152" lon="5.27709">
        <ele>160.8</ele>
        <time>2024-03-20T09:10:23.000Z</time>
      </trkpt>
      <trkpt lat="43.51518" lon="5.27708">
        <ele>160.9</ele>
        <time>2024-03-20T09:10:25.000Z</time>
      </trkpt>
      <trkpt lat="43.51516" lon="5.27707">
        <ele>161</ele>
        <time>2024-03-20T09:10:27.000Z</time>
      </trkpt>
      <trkpt lat="43.51514" lon="5.27705">
        <ele>161</ele>
        <time>2024-03-20T09:10:29.000Z</time>
      </trkpt>
      <trkpt lat="43.51512" lon="5.27705">
        <ele>160.8</ele>
        <time>2024-03-20T09:10:31.000Z</time>
      </trkpt>
      <trkpt lat="43.5151" lon="5.27703">
        <ele>160.8</ele>
        <time>2024-03-20T09:10:33.000Z</time>
      </trkpt>
      <trkpt lat="43.51508" lon="5.27701">
        <ele>161</ele>
        <time>2024-03-20T09:10:35.000Z</time>
      </trkpt>
      <trkpt lat="43.51506" lon="5.277">
        <ele>161</ele>
        <time>2024-03-20T09:10:37.000Z</time>
      </trkpt>
      <trkpt lat="43.51504" lon="5.27698">
        <ele>161</ele>
        <time>2024-03-20T09:10:39.000Z</time>
      </trkpt>
      <trkpt lat="43.51502" lon="5.27697">
        <ele>161</ele>
        <time>2024-03-20T09:10:41.000Z</time>
      </trkpt>
      <trkpt lat="43.515" lon="5.27694">
        <ele>161</ele>
        <time>2024-03-20T09:10:43.000Z</time>
      </trkpt>
      <trkpt lat="43.51498" lon="5.27693">
        <ele>161.3</ele>
        <time>2024-03-20T09:10:45.000Z</time>
      </trkpt>
      <trkpt lat="43.51496" lon="5.2769">
        <ele>161.6</ele>
        <time>2024-03-20T09:10:47.000Z</time>
      </trkpt>
      <trkpt lat="43.51494" lon="5.27689">
        <ele>161.8</ele>
        <time>2024-03-20T09:10:48.000Z</time>
      </trkpt>
      <trkpt lat="43.51491" lon="5.27687">
        <ele>161.6</ele>
        <time>2024-03-20T09:10:51.000Z</time>
      </trkpt>
      <trkpt lat="43.51489" lon="5.27688">
        <ele>161.2</ele>
        <time>2024-03-20T09:10:53.000Z</time>
      </trkpt>
      <trkpt lat="43.51485" lon="5.27687">
        <ele>160.9</ele>
        <time>2024-03-20T09:10:55.000Z</time>
      </trkpt>
      <trkpt lat="43.51483" lon="5.27686">
        <ele>160.8</ele>
        <time>2024-03-20T09:10:57.000Z</time>
      </trkpt>
      <trkpt lat="43.51482" lon="5.27684">
        <ele>161.2</ele>
        <time>2024-03-20T09:10:59.000Z</time>
      </trkpt>
      <trkpt lat="43.5148" lon="5.27682">
        <ele>161.3</ele>
        <time>2024-03-20T09:11:01.000Z</time>
      </trkpt>
      <trkpt lat="43.51477" lon="5.2768">
        <ele>161.3</ele>
        <time>2024-03-20T09:11:03.000Z</time>
      </trkpt>
      <trkpt lat="43.51474" lon="5.2768">
        <ele>160.9</ele>
        <time>2024-03-20T09:11:05.000Z</time>
      </trkpt>
      <trkpt lat="43.51472" lon="5.27679">
        <ele>160.9</ele>
        <time>2024-03-20T09:11:07.000Z</time>
      </trkpt>
      <trkpt lat="43.51469" lon="5.27678">
        <ele>161</ele>
        <time>2024-03-20T09:11:09.000Z</time>
      </trkpt>
      <trkpt lat="43.51467" lon="5.27676">
        <ele>161.2</ele>
        <time>2024-03-20T09:11:11.000Z</time>
      </trkpt>
      <trkpt lat="43.51465" lon="5.27674">
        <ele>161.4</ele>
        <time>2024-03-20T09:11:13.000Z</time>
      </trkpt>
      <trkpt lat="43.51463" lon="5.27673">
        <ele>161.5</ele>
        <time>2024-03-20T09:11:15.000Z</time>
      </trkpt>
      <trkpt lat="43.5146" lon="5.27673">
        <ele>161.6</ele>
        <time>2024-03-20T09:11:18.000Z</time>
      </trkpt>
      <trkpt lat="43.51458" lon="5.27672">
        <ele>161.7</ele>
        <time>2024-03-20T09:11:20.000Z</time>
      </trkpt>
      <trkpt lat="43.51456" lon="5.27672">
        <ele>161.6</ele>
        <time>2024-03-20T09:11:22.000Z</time>
      </trkpt>
      <trkpt lat="43.51454" lon="5.27671">
        <ele>161.6</ele>
        <time>2024-03-20T09:11:24.000Z</time>
      </trkpt>
      <trkpt lat="43.51451" lon="5.27671">
        <ele>161.6</ele>
        <time>2024-03-20T09:11:26.000Z</time>
      </trkpt>
      <trkpt lat="43.51449" lon="5.2767">
        <ele>161.7</ele>
        <time>2024-03-20T09:11:28.000Z</time>
      </trkpt>
      <trkpt lat="43.51446" lon="5.2767">
        <ele>161.6</ele>
        <time>2024-03-20T09:11:30.000Z</time>
      </trkpt>
      <trkpt lat="43.51445" lon="5.27667">
        <ele>162</ele>
        <time>2024-03-20T09:11:33.000Z</time>
      </trkpt>
      <trkpt lat="43.51443" lon="5.27665">
        <ele>162.3</ele>
        <time>2024-03-20T09:11:35.000Z</time>
      </trkpt>
      <trkpt lat="43.51442" lon="5.27662">
        <ele>162.7</ele>
        <time>2024-03-20T09:11:36.000Z</time>
      </trkpt>
      <trkpt lat="43.51439" lon="5.27661">
        <ele>162.8</ele>
        <time>2024-03-20T09:11:38.000Z</time>
      </trkpt>
      <trkpt lat="43.51437" lon="5.27661">
        <ele>162.8</ele>
        <time>2024-03-20T09:11:40.000Z</time>
      </trkpt>
      <trkpt lat="43.51435" lon="5.2766">
        <ele>162.8</ele>
        <time>2024-03-20T09:11:42.000Z</time>
      </trkpt>
      <trkpt lat="43.51433" lon="5.27659">
        <ele>163</ele>
        <time>2024-03-20T09:11:45.000Z</time>
      </trkpt>
      <trkpt lat="43.5143" lon="5.27658">
        <ele>163</ele>
        <time>2024-03-20T09:11:47.000Z</time>
      </trkpt>
      <trkpt lat="43.51428" lon="5.27658">
        <ele>163</ele>
        <time>2024-03-20T09:11:48.000Z</time>
      </trkpt>
      <trkpt lat="43.51427" lon="5.27657">
        <ele>163.2</ele>
        <time>2024-03-20T09:11:50.000Z</time>
      </trkpt>
      <trkpt lat="43.51425" lon="5.27656">
        <ele>163.3</ele>
        <time>2024-03-20T09:11:52.000Z</time>
      </trkpt>
      <trkpt lat="43.51423" lon="5.27654">
        <ele>163.6</ele>
        <time>2024-03-20T09:11:55.000Z</time>
      </trkpt>
      <trkpt lat="43.51421" lon="5.27652">
        <ele>163.8</ele>
        <time>2024-03-20T09:11:57.000Z</time>
      </trkpt>
      <trkpt lat="43.5142" lon="5.2765">
        <ele>164.1</ele>
        <time>2024-03-20T09:11:59.000Z</time>
      </trkpt>
      <trkpt lat="43.51418" lon="5.27648">
        <ele>164.4</ele>
        <time>2024-03-20T09:12:02.000Z</time>
      </trkpt>
      <trkpt lat="43.51417" lon="5.27646">
        <ele>164.8</ele>
        <time>2024-03-20T09:12:05.000Z</time>
      </trkpt>
      <trkpt lat="43.51416" lon="5.27644">
        <ele>165.1</ele>
        <time>2024-03-20T09:12:07.000Z</time>
      </trkpt>
      <trkpt lat="43.51415" lon="5.27642">
        <ele>165.5</ele>
        <time>2024-03-20T09:12:09.000Z</time>
      </trkpt>
      <trkpt lat="43.51413" lon="5.2764">
        <ele>165.7</ele>
        <time>2024-03-20T09:12:11.000Z</time>
      </trkpt>
      <trkpt lat="43.51411" lon="5.27637">
        <ele>166</ele>
        <time>2024-03-20T09:12:13.000Z</time>
      </trkpt>
      <trkpt lat="43.51409" lon="5.27635">
        <ele>166.2</ele>
        <time>2024-03-20T09:12:15.000Z</time>
      </trkpt>
      <trkpt lat="43.51408" lon="5.27633">
        <ele>166.4</ele>
        <time>2024-03-20T09:12:17.000Z</time>
      </trkpt>
      <trkpt lat="43.51407" lon="5.27631">
        <ele>166.7</ele>
        <time>2024-03-20T09:12:20.000Z</time>
      </trkpt>
      <trkpt lat="43.51405" lon="5.27628">
        <ele>167</ele>
        <time>2024-03-20T09:12:22.000Z</time>
      </trkpt>
      <trkpt lat="43.51403" lon="5.27626">
        <ele>167.1</ele>
        <time>2024-03-20T09:12:24.000Z</time>
      </trkpt>
      <trkpt lat="43.51401" lon="5.27624">
        <ele>167.3</ele>
        <time>2024-03-20T09:12:27.000Z</time>
      </trkpt>
      <trkpt lat="43.51399" lon="5.27622">
        <ele>167.4</ele>
        <time>2024-03-20T09:12:29.000Z</time>
      </trkpt>
      <trkpt lat="43.51397" lon="5.27621">
        <ele>167.4</ele>
        <time>2024-03-20T09:12:31.000Z</time>
      </trkpt>
      <trkpt lat="43.51394" lon="5.27619">
        <ele>167.4</ele>
        <time>2024-03-20T09:12:33.000Z</time>
      </trkpt>
      <trkpt lat="43.51392" lon="5.27618">
        <ele>167.5</ele>
        <time>2024-03-20T09:12:35.000Z</time>
      </trkpt>
      <trkpt lat="43.5139" lon="5.27616">
        <ele>167.5</ele>
        <time>2024-03-20T09:12:37.000Z</time>
      </trkpt>
      <trkpt lat="43.51388" lon="5.27616">
        <ele>167.6</ele>
        <time>2024-03-20T09:12:39.000Z</time>
      </trkpt>
      <trkpt lat="43.51386" lon="5.27616">
        <ele>167.8</ele>
        <time>2024-03-20T09:12:41.000Z</time>
      </trkpt>
      <trkpt lat="43.51383" lon="5.27615">
        <ele>168.1</ele>
        <time>2024-03-20T09:12:44.000Z</time>
      </trkpt>
      <trkpt lat="43.51382" lon="5.27615">
        <ele>168.4</ele>
        <time>2024-03-20T09:12:46.000Z</time>
      </trkpt>
      <trkpt lat="43.51379" lon="5.27613">
        <ele>168.7</ele>
        <time>2024-03-20T09:12:48.000Z</time>
      </trkpt>
      <trkpt lat="43.51377" lon="5.27614">
        <ele>168.9</ele>
        <time>2024-03-20T09:12:50.000Z</time>
      </trkpt>
      <trkpt lat="43.51375" lon="5.27614">
        <ele>169.1</ele>
        <time>2024-03-20T09:12:52.000Z</time>
      </trkpt>
      <trkpt lat="43.51373" lon="5.27614">
        <ele>169.3</ele>
        <time>2024-03-20T09:12:54.000Z</time>
      </trkpt>
      <trkpt lat="43.51369" lon="5.27613">
        <ele>169.8</ele>
        <time>2024-03-20T09:12:57.000Z</time>
      </trkpt>
      <trkpt lat="43.51367" lon="5.27614">
        <ele>170</ele>
        <time>2024-03-20T09:12:59.000Z</time>
      </trkpt>
      <trkpt lat="43.51365" lon="5.27613">
        <ele>170.2</ele>
        <time>2024-03-20T09:13:01.000Z</time>
      </trkpt>
      <trkpt lat="43.51363" lon="5.27614">
        <ele>170.3</ele>
        <time>2024-03-20T09:13:04.000Z</time>
      </trkpt>
      <trkpt lat="43.51361" lon="5.27613">
        <ele>170.7</ele>
        <time>2024-03-20T09:13:07.000Z</time>
      </trkpt>
      <trkpt lat="43.51358" lon="5.27612">
        <ele>171.1</ele>
        <time>2024-03-20T09:13:12.000Z</time>
      </trkpt>
      <trkpt lat="43.51356" lon="5.27611">
        <ele>171.7</ele>
        <time>2024-03-20T09:13:15.000Z</time>
      </trkpt>
      <trkpt lat="43.51354" lon="5.2761">
        <ele>172.1</ele>
        <time>2024-03-20T09:13:18.000Z</time>
      </trkpt>
      <trkpt lat="43.51352" lon="5.27609">
        <ele>172.5</ele>
        <time>2024-03-20T09:13:20.000Z</time>
      </trkpt>
      <trkpt lat="43.5135" lon="5.2761">
        <ele>172.7</ele>
        <time>2024-03-20T09:13:23.000Z</time>
      </trkpt>
      <trkpt lat="43.51347" lon="5.27609">
        <ele>173.3</ele>
        <time>2024-03-20T09:13:26.000Z</time>
      </trkpt>
      <trkpt lat="43.51345" lon="5.27608">
        <ele>173.8</ele>
        <time>2024-03-20T09:13:29.000Z</time>
      </trkpt>
      <trkpt lat="43.51344" lon="5.27607">
        <ele>174.3</ele>
        <time>2024-03-20T09:13:31.000Z</time>
      </trkpt>
      <trkpt lat="43.51342" lon="5.27606">
        <ele>174.8</ele>
        <time>2024-03-20T09:13:33.000Z</time>
      </trkpt>
      <trkpt lat="43.51339" lon="5.27605">
        <ele>175.3</ele>
        <time>2024-03-20T09:13:36.000Z</time>
      </trkpt>
      <trkpt lat="43.51338" lon="5.27604">
        <ele>175.9</ele>
        <time>2024-03-20T09:13:39.000Z</time>
      </trkpt>
      <trkpt lat="43.51336" lon="5.27605">
        <ele>175.9</ele>
        <time>2024-03-20T09:13:41.000Z</time>
      </trkpt>
      <trkpt lat="43.51334" lon="5.27604">
        <ele>176.3</ele>
        <time>2024-03-20T09:13:43.000Z</time>
      </trkpt>
      <trkpt lat="43.51332" lon="5.27604">
        <ele>176.6</ele>
        <time>2024-03-20T09:13:46.000Z</time>
      </trkpt>
      <trkpt lat="43.5133" lon="5.27602">
        <ele>177.4</ele>
        <time>2024-03-20T09:13:51.000Z</time>
      </trkpt>
      <trkpt lat="43.51328" lon="5.27602">
        <ele>177.9</ele>
        <time>2024-03-20T09:13:53.000Z</time>
      </trkpt>
      <trkpt lat="43.51326" lon="5.27601">
        <ele>178.4</ele>
        <time>2024-03-20T09:13:56.000Z</time>
      </trkpt>
      <trkpt lat="43.51324" lon="5.276">
        <ele>179</ele>
        <time>2024-03-20T09:13:59.000Z</time>
      </trkpt>
      <trkpt lat="43.51322" lon="5.27599">
        <ele>179.5</ele>
        <time>2024-03-20T09:14:03.000Z</time>
      </trkpt>
      <trkpt lat="43.5132" lon="5.27599">
        <ele>179.8</ele>
        <time>2024-03-20T09:14:06.000Z</time>
      </trkpt>
      <trkpt lat="43.51318" lon="5.27598">
        <ele>180.4</ele>
        <time>2024-03-20T09:14:08.000Z</time>
      </trkpt>
      <trkpt lat="43.51317" lon="5.27597">
        <ele>181</ele>
        <time>2024-03-20T09:14:10.000Z</time>
      </trkpt>
      <trkpt lat="43.51315" lon="5.27596">
        <ele>181.6</ele>
        <time>2024-03-20T09:14:12.000Z</time>
      </trkpt>
      <trkpt lat="43.51313" lon="5.27597">
        <ele>181.6</ele>
        <time>2024-03-20T09:14:14.000Z</time>
      </trkpt>
      <trkpt lat="43.5131" lon="5.27597">
        <ele>181.9</ele>
        <time>2024-03-20T09:14:19.000Z</time>
      </trkpt>
      <trkpt lat="43.51307" lon="5.27595">
        <ele>183</ele>
        <time>2024-03-20T09:14:26.000Z</time>
      </trkpt>
      <trkpt lat="43.51305" lon="5.27595">
        <ele>183.2</ele>
        <time>2024-03-20T09:14:28.000Z</time>
      </trkpt>
      <trkpt lat="43.51303" lon="5.27594">
        <ele>183.6</ele>
        <time>2024-03-20T09:14:31.000Z</time>
      </trkpt>
      <trkpt lat="43.51301" lon="5.27594">
        <ele>183.5</ele>
        <time>2024-03-20T09:14:35.000Z</time>
      </trkpt>
      <trkpt lat="43.51299" lon="5.27593">
        <ele>183.6</ele>
        <time>2024-03-20T09:14:37.000Z</time>
      </trkpt>
      <trkpt lat="43.51297" lon="5.27591">
        <ele>184.3</ele>
        <time>2024-03-20T09:14:41.000Z</time>
      </trkpt>
      <trkpt lat="43.51295" lon="5.2759">
        <ele>184.5</ele>
        <time>2024-03-20T09:14:44.000Z</time>
      </trkpt>
      <trkpt lat="43.51293" lon="5.27589">
        <ele>185.1</ele>
        <time>2024-03-20T09:14:48.000Z</time>
      </trkpt>
      <trkpt lat="43.51291" lon="5.27587">
        <ele>185.7</ele>
        <time>2024-03-20T09:14:51.000Z</time>
      </trkpt>
      <trkpt lat="43.51289" lon="5.27587">
        <ele>185.8</ele>
        <time>2024-03-20T09:14:56.000Z</time>
      </trkpt>
      <trkpt lat="43.51287" lon="5.27585">
        <ele>186.3</ele>
        <time>2024-03-20T09:15:00.000Z</time>
      </trkpt>
      <trkpt lat="43.51284" lon="5.27585">
        <ele>186.6</ele>
        <time>2024-03-20T09:15:06.000Z</time>
      </trkpt>
      <trkpt lat="43.51282" lon="5.27584">
        <ele>186.9</ele>
        <time>2024-03-20T09:15:08.000Z</time>
      </trkpt>
      <trkpt lat="43.5128" lon="5.27582">
        <ele>187.7</ele>
        <time>2024-03-20T09:15:10.000Z</time>
      </trkpt>
      <trkpt lat="43.51278" lon="5.27581">
        <ele>188.5</ele>
        <time>2024-03-20T09:15:12.000Z</time>
      </trkpt>
      <trkpt lat="43.51276" lon="5.2758">
        <ele>189.1</ele>
        <time>2024-03-20T09:15:14.000Z</time>
      </trkpt>
      <trkpt lat="43.51274" lon="5.2758">
        <ele>189.5</ele>
        <time>2024-03-20T09:15:16.000Z</time>
      </trkpt>
      <trkpt lat="43.51272" lon="5.27579">
        <ele>190.1</ele>
        <time>2024-03-20T09:15:18.000Z</time>
      </trkpt>
      <trkpt lat="43.5127" lon="5.27578">
        <ele>190.8</ele>
        <time>2024-03-20T09:15:21.000Z</time>
      </trkpt>
      <trkpt lat="43.51268" lon="5.27578">
        <ele>191.1</ele>
        <time>2024-03-20T09:15:23.000Z</time>
      </trkpt>
      <trkpt lat="43.51266" lon="5.27577">
        <ele>191.6</ele>
        <time>2024-03-20T09:15:26.000Z</time>
      </trkpt>
      <trkpt lat="43.51263" lon="5.27577">
        <ele>191.7</ele>
        <time>2024-03-20T09:15:29.000Z</time>
      </trkpt>
      <trkpt lat="43.51261" lon="5.27577">
        <ele>191.8</ele>
        <time>2024-03-20T09:15:32.000Z</time>
      </trkpt>
      <trkpt lat="43.51259" lon="5.27577">
        <ele>192.1</ele>
        <time>2024-03-20T09:15:35.000Z</time>
      </trkpt>
      <trkpt lat="43.51257" lon="5.27577">
        <ele>192.3</ele>
        <time>2024-03-20T09:15:38.000Z</time>
      </trkpt>
      <trkpt lat="43.51255" lon="5.27576">
        <ele>192.7</ele>
        <time>2024-03-20T09:15:40.000Z</time>
      </trkpt>
      <trkpt lat="43.51252" lon="5.27576">
        <ele>193.1</ele>
        <time>2024-03-20T09:15:43.000Z</time>
      </trkpt>
      <trkpt lat="43.5125" lon="5.27576">
        <ele>193.2</ele>
        <time>2024-03-20T09:15:46.000Z</time>
      </trkpt>
      <trkpt lat="43.51247" lon="5.27576">
        <ele>194.1</ele>
        <time>2024-03-20T09:15:49.000Z</time>
      </trkpt>
      <trkpt lat="43.51245" lon="5.27576">
        <ele>194.8</ele>
        <time>2024-03-20T09:15:52.000Z</time>
      </trkpt>
      <trkpt lat="43.51242" lon="5.27577">
        <ele>195.3</ele>
        <time>2024-03-20T09:15:56.000Z</time>
      </trkpt>
      <trkpt lat="43.5124" lon="5.27578">
        <ele>195.3</ele>
        <time>2024-03-20T09:15:59.000Z</time>
      </trkpt>
      <trkpt lat="43.51238" lon="5.27579">
        <ele>195.2</ele>
        <time>2024-03-20T09:16:03.000Z</time>
      </trkpt>
      <trkpt lat="43.51236" lon="5.2758">
        <ele>195.4</ele>
        <time>2024-03-20T09:16:05.000Z</time>
      </trkpt>
      <trkpt lat="43.51234" lon="5.27581">
        <ele>195.3</ele>
        <time>2024-03-20T09:16:07.000Z</time>
      </trkpt>
      <trkpt lat="43.51232" lon="5.27581">
        <ele>195.8</ele>
        <time>2024-03-20T09:16:13.000Z</time>
      </trkpt>
      <trkpt lat="43.51229" lon="5.27582">
        <ele>196.4</ele>
        <time>2024-03-20T09:16:16.000Z</time>
      </trkpt>
      <trkpt lat="43.51227" lon="5.27582">
        <ele>197.1</ele>
        <time>2024-03-20T09:16:19.000Z</time>
      </trkpt>
      <trkpt lat="43.51225" lon="5.27582">
        <ele>197.8</ele>
        <time>2024-03-20T09:16:23.000Z</time>
      </trkpt>
      <trkpt lat="43.51223" lon="5.27581">
        <ele>198.6</ele>
        <time>2024-03-20T09:16:26.000Z</time>
      </trkpt>
      <trkpt lat="43.51221" lon="5.27583">
        <ele>198.7</ele>
        <time>2024-03-20T09:16:29.000Z</time>
      </trkpt>
      <trkpt lat="43.51219" lon="5.27584">
        <ele>198.4</ele>
        <time>2024-03-20T09:16:34.000Z</time>
      </trkpt>
      <trkpt lat="43.51217" lon="5.27585">
        <ele>198.5</ele>
        <time>2024-03-20T09:16:36.000Z</time>
      </trkpt>
      <trkpt lat="43.51215" lon="5.27586">
        <ele>198.8</ele>
        <time>2024-03-20T09:16:38.000Z</time>
      </trkpt>
      <trkpt lat="43.51213" lon="5.27585">
        <ele>199.5</ele>
        <time>2024-03-20T09:16:40.000Z</time>
      </trkpt>
      <trkpt lat="43.51211" lon="5.27585">
        <ele>200.1</ele>
        <time>2024-03-20T09:16:44.000Z</time>
      </trkpt>
      <trkpt lat="43.51209" lon="5.27584">
        <ele>200.6</ele>
        <time>2024-03-20T09:16:47.000Z</time>
      </trkpt>
      <trkpt lat="43.51207" lon="5.27585">
        <ele>201.1</ele>
        <time>2024-03-20T09:16:50.000Z</time>
      </trkpt>
      <trkpt lat="43.51203" lon="5.27585">
        <ele>201.8</ele>
        <time>2024-03-20T09:16:55.000Z</time>
      </trkpt>
      <trkpt lat="43.512" lon="5.27586">
        <ele>202.3</ele>
        <time>2024-03-20T09:16:58.000Z</time>
      </trkpt>
      <trkpt lat="43.51199" lon="5.27586">
        <ele>202.7</ele>
        <time>2024-03-20T09:17:01.000Z</time>
      </trkpt>
      <trkpt lat="43.51197" lon="5.27586">
        <ele>203.1</ele>
        <time>2024-03-20T09:17:04.000Z</time>
      </trkpt>
      <trkpt lat="43.51195" lon="5.27588">
        <ele>203.5</ele>
        <time>2024-03-20T09:17:07.000Z</time>
      </trkpt>
      <trkpt lat="43.51193" lon="5.27588">
        <ele>203.9</ele>
        <time>2024-03-20T09:17:11.000Z</time>
      </trkpt>
      <trkpt lat="43.5119" lon="5.27589">
        <ele>204.4</ele>
        <time>2024-03-20T09:17:15.000Z</time>
      </trkpt>
      <trkpt lat="43.51188" lon="5.27591">
        <ele>204.6</ele>
        <time>2024-03-20T09:17:19.000Z</time>
      </trkpt>
      <trkpt lat="43.51185" lon="5.27593">
        <ele>205.1</ele>
        <time>2024-03-20T09:17:23.000Z</time>
      </trkpt>
      <trkpt lat="43.51182" lon="5.27593">
        <ele>205.7</ele>
        <time>2024-03-20T09:17:29.000Z</time>
      </trkpt>
      <trkpt lat="43.51181" lon="5.27594">
        <ele>206</ele>
        <time>2024-03-20T09:17:32.000Z</time>
      </trkpt>
      <trkpt lat="43.51179" lon="5.27595">
        <ele>206.5</ele>
        <time>2024-03-20T09:17:35.000Z</time>
      </trkpt>
      <trkpt lat="43.51176" lon="5.27595">
        <ele>206.9</ele>
        <time>2024-03-20T09:17:39.000Z</time>
      </trkpt>
      <trkpt lat="43.51175" lon="5.27596">
        <ele>207.2</ele>
        <time>2024-03-20T09:17:42.000Z</time>
      </trkpt>
      <trkpt lat="43.51173" lon="5.27596">
        <ele>207.7</ele>
        <time>2024-03-20T09:17:48.000Z</time>
      </trkpt>
      <trkpt lat="43.5117" lon="5.27595">
        <ele>208.4</ele>
        <time>2024-03-20T09:17:52.000Z</time>
      </trkpt>
      <trkpt lat="43.51168" lon="5.27594">
        <ele>208.9</ele>
        <time>2024-03-20T09:17:55.000Z</time>
      </trkpt>
      <trkpt lat="43.51166" lon="5.27594">
        <ele>209.3</ele>
        <time>2024-03-20T09:17:58.000Z</time>
      </trkpt>
      <trkpt lat="43.51164" lon="5.27594">
        <ele>209.5</ele>
        <time>2024-03-20T09:18:01.000Z</time>
      </trkpt>
      <trkpt lat="43.51161" lon="5.27594">
        <ele>209.8</ele>
        <time>2024-03-20T09:18:05.000Z</time>
      </trkpt>
      <trkpt lat="43.5116" lon="5.27593">
        <ele>210</ele>
        <time>2024-03-20T09:18:08.000Z</time>
      </trkpt>
      <trkpt lat="43.51157" lon="5.27591">
        <ele>210.3</ele>
        <time>2024-03-20T09:18:12.000Z</time>
      </trkpt>
      <trkpt lat="43.51156" lon="5.27591">
        <ele>210.5</ele>
        <time>2024-03-20T09:18:14.000Z</time>
      </trkpt>
      <trkpt lat="43.51153" lon="5.27591">
        <ele>210.7</ele>
        <time>2024-03-20T09:18:17.000Z</time>
      </trkpt>
      <trkpt lat="43.51151" lon="5.2759">
        <ele>210.9</ele>
        <time>2024-03-20T09:18:21.000Z</time>
      </trkpt>
      <trkpt lat="43.51149" lon="5.2759">
        <ele>211.1</ele>
        <time>2024-03-20T09:18:24.000Z</time>
      </trkpt>
      <trkpt lat="43.51146" lon="5.27592">
        <ele>211.3</ele>
        <time>2024-03-20T09:18:27.000Z</time>
      </trkpt>
      <trkpt lat="43.51145" lon="5.27593">
        <ele>211.5</ele>
        <time>2024-03-20T09:18:29.000Z</time>
      </trkpt>
      <trkpt lat="43.51142" lon="5.27593">
        <ele>211.7</ele>
        <time>2024-03-20T09:18:31.000Z</time>
      </trkpt>
      <trkpt lat="43.5114" lon="5.27594">
        <ele>211.9</ele>
        <time>2024-03-20T09:18:34.000Z</time>
      </trkpt>
      <trkpt lat="43.51139" lon="5.27595">
        <ele>212</ele>
        <time>2024-03-20T09:18:37.000Z</time>
      </trkpt>
      <trkpt lat="43.51136" lon="5.27596">
        <ele>212.2</ele>
        <time>2024-03-20T09:18:40.000Z</time>
      </trkpt>
      <trkpt lat="43.51135" lon="5.27597">
        <ele>212.2</ele>
        <time>2024-03-20T09:18:43.000Z</time>
      </trkpt>
      <trkpt lat="43.51133" lon="5.27598">
        <ele>212.3</ele>
        <time>2024-03-20T09:18:45.000Z</time>
      </trkpt>
      <trkpt lat="43.5113" lon="5.27599">
        <ele>212.4</ele>
        <time>2024-03-20T09:18:47.000Z</time>
      </trkpt>
      <trkpt lat="43.51128" lon="5.276">
        <ele>212.5</ele>
        <time>2024-03-20T09:18:50.000Z</time>
      </trkpt>
      <trkpt lat="43.51126" lon="5.276">
        <ele>212.6</ele>
        <time>2024-03-20T09:18:52.000Z</time>
      </trkpt>
      <trkpt lat="43.51124" lon="5.27602">
        <ele>212.7</ele>
        <time>2024-03-20T09:18:55.000Z</time>
      </trkpt>
      <trkpt lat="43.51122" lon="5.27603">
        <ele>212.8</ele>
        <time>2024-03-20T09:18:58.000Z</time>
      </trkpt>
      <trkpt lat="43.51119" lon="5.27602">
        <ele>212.9</ele>
        <time>2024-03-20T09:19:00.000Z</time>
      </trkpt>
      <trkpt lat="43.51117" lon="5.27603">
        <ele>213</ele>
        <time>2024-03-20T09:19:03.000Z</time>
      </trkpt>
      <trkpt lat="43.51115" lon="5.27605">
        <ele>213</ele>
        <time>2024-03-20T09:19:06.000Z</time>
      </trkpt>
      <trkpt lat="43.51113" lon="5.27606">
        <ele>213.1</ele>
        <time>2024-03-20T09:19:09.000Z</time>
      </trkpt>
      <trkpt lat="43.51111" lon="5.27607">
        <ele>213.2</ele>
        <time>2024-03-20T09:19:11.000Z</time>
      </trkpt>
      <trkpt lat="43.51109" lon="5.27609">
        <ele>213.2</ele>
        <time>2024-03-20T09:19:13.000Z</time>
      </trkpt>
      <trkpt lat="43.51106" lon="5.27609">
        <ele>213.4</ele>
        <time>2024-03-20T09:19:16.000Z</time>
      </trkpt>
      <trkpt lat="43.51104" lon="5.2761">
        <ele>213.5</ele>
        <time>2024-03-20T09:19:19.000Z</time>
      </trkpt>
      <trkpt lat="43.51102" lon="5.27612">
        <ele>213.6</ele>
        <time>2024-03-20T09:19:23.000Z</time>
      </trkpt>
      <trkpt lat="43.511" lon="5.27612">
        <ele>213.8</ele>
        <time>2024-03-20T09:19:27.000Z</time>
      </trkpt>
      <trkpt lat="43.51097" lon="5.27614">
        <ele>214.1</ele>
        <time>2024-03-20T09:19:30.000Z</time>
      </trkpt>
      <trkpt lat="43.51095" lon="5.27616">
        <ele>214.2</ele>
        <time>2024-03-20T09:19:33.000Z</time>
      </trkpt>
      <trkpt lat="43.51093" lon="5.27619">
        <ele>214.4</ele>
        <time>2024-03-20T09:19:36.000Z</time>
      </trkpt>
      <trkpt lat="43.51091" lon="5.27619">
        <ele>214.5</ele>
        <time>2024-03-20T09:19:40.000Z</time>
      </trkpt>
      <trkpt lat="43.5109" lon="5.2762">
        <ele>214.6</ele>
        <time>2024-03-20T09:19:43.000Z</time>
      </trkpt>
      <trkpt lat="43.51088" lon="5.2762">
        <ele>214.7</ele>
        <time>2024-03-20T09:19:48.000Z</time>
      </trkpt>
      <trkpt lat="43.51086" lon="5.27622">
        <ele>214.9</ele>
        <time>2024-03-20T09:20:08.000Z</time>
      </trkpt>
      <trkpt lat="43.51084" lon="5.27624">
        <ele>215</ele>
        <time>2024-03-20T09:20:12.000Z</time>
      </trkpt>
      <trkpt lat="43.51084" lon="5.27627">
        <ele>215</ele>
        <time>2024-03-20T09:20:15.000Z</time>
      </trkpt>
      <trkpt lat="43.51086" lon="5.27625">
        <ele>214.9</ele>
        <time>2024-03-20T09:23:37.000Z</time>
      </trkpt>
      <trkpt lat="43.51087" lon="5.27624">
        <ele>214.8</ele>
        <time>2024-03-20T09:23:39.000Z</time>
      </trkpt>
      <trkpt lat="43.51089" lon="5.27623">
        <ele>214.7</ele>
        <time>2024-03-20T09:23:44.000Z</time>
      </trkpt>
      <trkpt lat="43.51091" lon="5.2762">
        <ele>214.6</ele>
        <time>2024-03-20T09:23:48.000Z</time>
      </trkpt>
      <trkpt lat="43.51092" lon="5.27618">
        <ele>214.4</ele>
        <time>2024-03-20T09:23:52.000Z</time>
      </trkpt>
      <trkpt lat="43.51092" lon="5.27615">
        <ele>214.4</ele>
        <time>2024-03-20T09:23:58.000Z</time>
      </trkpt>
      <trkpt lat="43.51091" lon="5.27618">
        <ele>214.5</ele>
        <time>2024-03-20T09:25:25.000Z</time>
      </trkpt>
      <trkpt lat="43.51089" lon="5.2762">
        <ele>214.6</ele>
        <time>2024-03-20T09:25:28.000Z</time>
      </trkpt>
      <trkpt lat="43.51088" lon="5.27622">
        <ele>214.7</ele>
        <time>2024-03-20T09:25:30.000Z</time>
      </trkpt>
      <trkpt lat="43.51086" lon="5.27625">
        <ele>214.8</ele>
        <time>2024-03-20T09:25:35.000Z</time>
      </trkpt>
      <trkpt lat="43.51084" lon="5.27625">
        <ele>214.9</ele>
        <time>2024-03-20T09:25:44.000Z</time>
      </trkpt>
      <trkpt lat="43.51082" lon="5.27628">
        <ele>215</ele>
        <time>2024-03-20T09:25:51.000Z</time>
      </trkpt>
      <trkpt lat="43.5108" lon="5.2763">
        <ele>215.1</ele>
        <time>2024-03-20T09:25:54.000Z</time>
      </trkpt>
      <trkpt lat="43.51078" lon="5.27632">
        <ele>215.2</ele>
        <time>2024-03-20T09:25:57.000Z</time>
      </trkpt>
      <trkpt lat="43.51077" lon="5.27633">
        <ele>215.2</ele>
        <time>2024-03-20T09:25:59.000Z</time>
      </trkpt>
      <trkpt lat="43.51075" lon="5.27635">
        <ele>215.3</ele>
        <time>2024-03-20T09:26:01.000Z</time>
      </trkpt>
      <trkpt lat="43.51073" lon="5.27637">
        <ele>215.4</ele>
        <time>2024-03-20T09:26:04.000Z</time>
      </trkpt>
      <trkpt lat="43.51071" lon="5.27639">
        <ele>215.4</ele>
        <time>2024-03-20T09:26:07.000Z</time>
      </trkpt>
      <trkpt lat="43.51069" lon="5.27641">
        <ele>215.4</ele>
        <time>2024-03-20T09:26:10.000Z</time>
      </trkpt>
      <trkpt lat="43.51067" lon="5.27643">
        <ele>215.4</ele>
        <time>2024-03-20T09:26:13.000Z</time>
      </trkpt>
      <trkpt lat="43.51065" lon="5.27646">
        <ele>215.4</ele>
        <time>2024-03-20T09:26:16.000Z</time>
      </trkpt>
      <trkpt lat="43.51064" lon="5.27648">
        <ele>215.4</ele>
        <time>2024-03-20T09:26:18.000Z</time>
      </trkpt>
      <trkpt lat="43.51062" lon="5.27649">
        <ele>215.4</ele>
        <time>2024-03-20T09:26:20.000Z</time>
      </trkpt>
      <trkpt lat="43.51061" lon="5.27651">
        <ele>215.4</ele>
        <time>2024-03-20T09:26:22.000Z</time>
      </trkpt>
      <trkpt lat="43.51059" lon="5.27652">
        <ele>215.4</ele>
        <time>2024-03-20T09:26:24.000Z</time>
      </trkpt>
      <trkpt lat="43.51057" lon="5.27655">
        <ele>215.4</ele>
        <time>2024-03-20T09:26:26.000Z</time>
      </trkpt>
      <trkpt lat="43.51056" lon="5.27656">
        <ele>215.4</ele>
        <time>2024-03-20T09:26:28.000Z</time>
      </trkpt>
      <trkpt lat="43.51054" lon="5.27658">
        <ele>215.2</ele>
        <time>2024-03-20T09:26:30.000Z</time>
      </trkpt>
      <trkpt lat="43.51052" lon="5.27661">
        <ele>214.9</ele>
        <time>2024-03-20T09:26:33.000Z</time>
      </trkpt>
      <trkpt lat="43.5105" lon="5.27663">
        <ele>214.7</ele>
        <time>2024-03-20T09:26:35.000Z</time>
      </trkpt>
      <trkpt lat="43.51048" lon="5.27664">
        <ele>214.5</ele>
        <time>2024-03-20T09:26:37.000Z</time>
      </trkpt>
      <trkpt lat="43.51047" lon="5.27667">
        <ele>214.3</ele>
        <time>2024-03-20T09:26:41.000Z</time>
      </trkpt>
      <trkpt lat="43.51045" lon="5.27668">
        <ele>214.3</ele>
        <time>2024-03-20T09:26:42.000Z</time>
      </trkpt>
      <trkpt lat="43.51043" lon="5.27671">
        <ele>214.2</ele>
        <time>2024-03-20T09:26:44.000Z</time>
      </trkpt>
      <trkpt lat="43.51042" lon="5.27673">
        <ele>214.2</ele>
        <time>2024-03-20T09:26:46.000Z</time>
      </trkpt>
      <trkpt lat="43.5104" lon="5.27675">
        <ele>214.2</ele>
        <time>2024-03-20T09:26:48.000Z</time>
      </trkpt>
      <trkpt lat="43.51038" lon="5.27676">
        <ele>214.1</ele>
        <time>2024-03-20T09:26:50.000Z</time>
      </trkpt>
      <trkpt lat="43.51036" lon="5.27677">
        <ele>214.1</ele>
        <time>2024-03-20T09:26:52.000Z</time>
      </trkpt>
      <trkpt lat="43.51034" lon="5.27678">
        <ele>214.1</ele>
        <time>2024-03-20T09:26:54.000Z</time>
      </trkpt>
      <trkpt lat="43.51033" lon="5.27681">
        <ele>214.2</ele>
        <time>2024-03-20T09:26:56.000Z</time>
      </trkpt>
      <trkpt lat="43.51032" lon="5.27683">
        <ele>214.3</ele>
        <time>2024-03-20T09:26:58.000Z</time>
      </trkpt>
      <trkpt lat="43.51031" lon="5.27685">
        <ele>214.4</ele>
        <time>2024-03-20T09:27:00.000Z</time>
      </trkpt>
      <trkpt lat="43.51029" lon="5.27687">
        <ele>214.5</ele>
        <time>2024-03-20T09:27:02.000Z</time>
      </trkpt>
      <trkpt lat="43.51027" lon="5.27689">
        <ele>214.5</ele>
        <time>2024-03-20T09:27:04.000Z</time>
      </trkpt>
      <trkpt lat="43.51025" lon="5.27691">
        <ele>214.4</ele>
        <time>2024-03-20T09:27:06.000Z</time>
      </trkpt>
      <trkpt lat="43.51023" lon="5.27693">
        <ele>214.4</ele>
        <time>2024-03-20T09:27:08.000Z</time>
      </trkpt>
      <trkpt lat="43.51021" lon="5.27693">
        <ele>214.3</ele>
        <time>2024-03-20T09:27:10.000Z</time>
      </trkpt>
      <trkpt lat="43.51019" lon="5.27694">
        <ele>214.4</ele>
        <time>2024-03-20T09:27:27.000Z</time>
      </trkpt>
      <trkpt lat="43.51017" lon="5.27696">
        <ele>214.4</ele>
        <time>2024-03-20T09:27:30.000Z</time>
      </trkpt>
      <trkpt lat="43.51015" lon="5.27697">
        <ele>214.4</ele>
        <time>2024-03-20T09:27:32.000Z</time>
      </trkpt>
      <trkpt lat="43.51013" lon="5.27699">
        <ele>214.4</ele>
        <time>2024-03-20T09:27:35.000Z</time>
      </trkpt>
      <trkpt lat="43.51011" lon="5.27702">
        <ele>214.5</ele>
        <time>2024-03-20T09:27:38.000Z</time>
      </trkpt>
      <trkpt lat="43.51009" lon="5.27703">
        <ele>214.5</ele>
        <time>2024-03-20T09:27:40.000Z</time>
      </trkpt>
      <trkpt lat="43.51007" lon="5.27704">
        <ele>214.6</ele>
        <time>2024-03-20T09:27:42.000Z</time>
      </trkpt>
      <trkpt lat="43.51004" lon="5.27706">
        <ele>214.7</ele>
        <time>2024-03-20T09:27:45.000Z</time>
      </trkpt>
      <trkpt lat="43.51002" lon="5.27707">
        <ele>214.8</ele>
        <time>2024-03-20T09:27:47.000Z</time>
      </trkpt>
      <trkpt lat="43.51" lon="5.27708">
        <ele>214.9</ele>
        <time>2024-03-20T09:27:49.000Z</time>
      </trkpt>
      <trkpt lat="43.50998" lon="5.27708">
        <ele>215</ele>
        <time>2024-03-20T09:27:51.000Z</time>
      </trkpt>
      <trkpt lat="43.50996" lon="5.27709">
        <ele>215</ele>
        <time>2024-03-20T09:27:53.000Z</time>
      </trkpt>
      <trkpt lat="43.50993" lon="5.2771">
        <ele>215.3</ele>
        <time>2024-03-20T09:27:55.000Z</time>
      </trkpt>
      <trkpt lat="43.50992" lon="5.27712">
        <ele>215.4</ele>
        <time>2024-03-20T09:27:57.000Z</time>
      </trkpt>
      <trkpt lat="43.5099" lon="5.27713">
        <ele>215.5</ele>
        <time>2024-03-20T09:27:59.000Z</time>
      </trkpt>
      <trkpt lat="43.50987" lon="5.27714">
        <ele>215.6</ele>
        <time>2024-03-20T09:28:02.000Z</time>
      </trkpt>
      <trkpt lat="43.50985" lon="5.27714">
        <ele>215.6</ele>
        <time>2024-03-20T09:28:04.000Z</time>
      </trkpt>
      <trkpt lat="43.50983" lon="5.27715">
        <ele>215.7</ele>
        <time>2024-03-20T09:28:06.000Z</time>
      </trkpt>
      <trkpt lat="43.50981" lon="5.27716">
        <ele>215.7</ele>
        <time>2024-03-20T09:28:08.000Z</time>
      </trkpt>
      <trkpt lat="43.50979" lon="5.27717">
        <ele>215.7</ele>
        <time>2024-03-20T09:28:10.000Z</time>
      </trkpt>
      <trkpt lat="43.50977" lon="5.27717">
        <ele>215.7</ele>
        <time>2024-03-20T09:28:12.000Z</time>
      </trkpt>
      <trkpt lat="43.50974" lon="5.27717">
        <ele>215.7</ele>
        <time>2024-03-20T09:28:14.000Z</time>
      </trkpt>
      <trkpt lat="43.50972" lon="5.27717">
        <ele>215.6</ele>
        <time>2024-03-20T09:28:16.000Z</time>
      </trkpt>
      <trkpt lat="43.5097" lon="5.27718">
        <ele>215.8</ele>
        <time>2024-03-20T09:28:18.000Z</time>
      </trkpt>
      <trkpt lat="43.50968" lon="5.2772">
        <ele>216</ele>
        <time>2024-03-20T09:28:20.000Z</time>
      </trkpt>
      <trkpt lat="43.50966" lon="5.27721">
        <ele>216.1</ele>
        <time>2024-03-20T09:28:22.000Z</time>
      </trkpt>
      <trkpt lat="43.50964" lon="5.27721">
        <ele>216.2</ele>
        <time>2024-03-20T09:28:24.000Z</time>
      </trkpt>
      <trkpt lat="43.50961" lon="5.27721">
        <ele>216.3</ele>
        <time>2024-03-20T09:28:26.000Z</time>
      </trkpt>
      <trkpt lat="43.50958" lon="5.27721">
        <ele>216.4</ele>
        <time>2024-03-20T09:28:28.000Z</time>
      </trkpt>
      <trkpt lat="43.50956" lon="5.27722">
        <ele>216.6</ele>
        <time>2024-03-20T09:28:31.000Z</time>
      </trkpt>
      <trkpt lat="43.50953" lon="5.27722">
        <ele>216.7</ele>
        <time>2024-03-20T09:28:34.000Z</time>
      </trkpt>
      <trkpt lat="43.50949" lon="5.27723">
        <ele>217</ele>
        <time>2024-03-20T09:28:37.000Z</time>
      </trkpt>
      <trkpt lat="43.50947" lon="5.27724">
        <ele>217.1</ele>
        <time>2024-03-20T09:28:39.000Z</time>
      </trkpt>
      <trkpt lat="43.50945" lon="5.27725">
        <ele>217.3</ele>
        <time>2024-03-20T09:28:41.000Z</time>
      </trkpt>
      <trkpt lat="43.50942" lon="5.27727">
        <ele>217.3</ele>
        <time>2024-03-20T09:28:43.000Z</time>
      </trkpt>
      <trkpt lat="43.5094" lon="5.27729">
        <ele>217.3</ele>
        <time>2024-03-20T09:28:46.000Z</time>
      </trkpt>
      <trkpt lat="43.50939" lon="5.2773">
        <ele>217.3</ele>
        <time>2024-03-20T09:28:48.000Z</time>
      </trkpt>
      <trkpt lat="43.50937" lon="5.27731">
        <ele>217.1</ele>
        <time>2024-03-20T09:28:50.000Z</time>
      </trkpt>
      <trkpt lat="43.50934" lon="5.27732">
        <ele>217.1</ele>
        <time>2024-03-20T09:28:52.000Z</time>
      </trkpt>
      <trkpt lat="43.50932" lon="5.27734">
        <ele>217</ele>
        <time>2024-03-20T09:28:54.000Z</time>
      </trkpt>
      <trkpt lat="43.5093" lon="5.27734">
        <ele>216.9</ele>
        <time>2024-03-20T09:28:56.000Z</time>
      </trkpt>
      <trkpt lat="43.50928" lon="5.27736">
        <ele>217</ele>
        <time>2024-03-20T09:28:58.000Z</time>
      </trkpt>
      <trkpt lat="43.50925" lon="5.27739">
        <ele>217.1</ele>
        <time>2024-03-20T09:29:01.000Z</time>
      </trkpt>
      <trkpt lat="43.50922" lon="5.2774">
        <ele>217.1</ele>
        <time>2024-03-20T09:29:04.000Z</time>
      </trkpt>
      <trkpt lat="43.5092" lon="5.27741">
        <ele>217</ele>
        <time>2024-03-20T09:29:06.000Z</time>
      </trkpt>
      <trkpt lat="43.50918" lon="5.27742">
        <ele>216.9</ele>
        <time>2024-03-20T09:29:09.000Z</time>
      </trkpt>
      <trkpt lat="43.50916" lon="5.27742">
        <ele>216.9</ele>
        <time>2024-03-20T09:29:11.000Z</time>
      </trkpt>
      <trkpt lat="43.50914" lon="5.27744">
        <ele>217.1</ele>
        <time>2024-03-20T09:29:14.000Z</time>
      </trkpt>
      <trkpt lat="43.50913" lon="5.27746">
        <ele>217.4</ele>
        <time>2024-03-20T09:29:16.000Z</time>
      </trkpt>
      <trkpt lat="43.50911" lon="5.27747">
        <ele>217.6</ele>
        <time>2024-03-20T09:29:18.000Z</time>
      </trkpt>
      <trkpt lat="43.50909" lon="5.27748">
        <ele>217.7</ele>
        <time>2024-03-20T09:29:20.000Z</time>
      </trkpt>
      <trkpt lat="43.50907" lon="5.2775">
        <ele>218</ele>
        <time>2024-03-20T09:29:23.000Z</time>
      </trkpt>
      <trkpt lat="43.50905" lon="5.27753">
        <ele>218.4</ele>
        <time>2024-03-20T09:29:25.000Z</time>
      </trkpt>
      <trkpt lat="43.50903" lon="5.27755">
        <ele>218.6</ele>
        <time>2024-03-20T09:29:27.000Z</time>
      </trkpt>
      <trkpt lat="43.50901" lon="5.27757">
        <ele>218.7</ele>
        <time>2024-03-20T09:29:29.000Z</time>
      </trkpt>
      <trkpt lat="43.509" lon="5.27759">
        <ele>218.9</ele>
        <time>2024-03-20T09:29:33.000Z</time>
      </trkpt>
      <trkpt lat="43.50898" lon="5.2776">
        <ele>219</ele>
        <time>2024-03-20T09:29:35.000Z</time>
      </trkpt>
      <trkpt lat="43.50896" lon="5.27763">
        <ele>219.1</ele>
        <time>2024-03-20T09:29:38.000Z</time>
      </trkpt>
      <trkpt lat="43.50895" lon="5.27765">
        <ele>219.1</ele>
        <time>2024-03-20T09:29:40.000Z</time>
      </trkpt>
      <trkpt lat="43.50893" lon="5.27768">
        <ele>219.1</ele>
        <time>2024-03-20T09:29:42.000Z</time>
      </trkpt>
      <trkpt lat="43.50892" lon="5.2777">
        <ele>219.1</ele>
        <time>2024-03-20T09:29:44.000Z</time>
      </trkpt>
      <trkpt lat="43.50891" lon="5.27773">
        <ele>219.1</ele>
        <time>2024-03-20T09:29:46.000Z</time>
      </trkpt>
      <trkpt lat="43.5089" lon="5.27775">
        <ele>219</ele>
        <time>2024-03-20T09:29:48.000Z</time>
      </trkpt>
      <trkpt lat="43.50888" lon="5.27776">
        <ele>218.8</ele>
        <time>2024-03-20T09:29:50.000Z</time>
      </trkpt>
      <trkpt lat="43.50887" lon="5.27779">
        <ele>218.7</ele>
        <time>2024-03-20T09:29:52.000Z</time>
      </trkpt>
      <trkpt lat="43.50885" lon="5.27781">
        <ele>218.6</ele>
        <time>2024-03-20T09:29:54.000Z</time>
      </trkpt>
      <trkpt lat="43.50883" lon="5.27783">
        <ele>218.4</ele>
        <time>2024-03-20T09:29:56.000Z</time>
      </trkpt>
      <trkpt lat="43.50882" lon="5.27785">
        <ele>218.3</ele>
        <time>2024-03-20T09:29:58.000Z</time>
      </trkpt>
      <trkpt lat="43.50882" lon="5.27788">
        <ele>218.5</ele>
        <time>2024-03-20T09:29:59.000Z</time>
      </trkpt>
      <trkpt lat="43.50881" lon="5.27791">
        <ele>218.6</ele>
        <time>2024-03-20T09:30:01.000Z</time>
      </trkpt>
      <trkpt lat="43.50879" lon="5.27792">
        <ele>218.3</ele>
        <time>2024-03-20T09:30:03.000Z</time>
      </trkpt>
      <trkpt lat="43.50877" lon="5.27793">
        <ele>218.2</ele>
        <time>2024-03-20T09:30:05.000Z</time>
      </trkpt>
      <trkpt lat="43.50875" lon="5.27796">
        <ele>218.1</ele>
        <time>2024-03-20T09:30:08.000Z</time>
      </trkpt>
      <trkpt lat="43.50874" lon="5.27798">
        <ele>218.2</ele>
        <time>2024-03-20T09:30:10.000Z</time>
      </trkpt>
      <trkpt lat="43.50872" lon="5.27801">
        <ele>218.2</ele>
        <time>2024-03-20T09:30:12.000Z</time>
      </trkpt>
      <trkpt lat="43.50871" lon="5.27805">
        <ele>218.3</ele>
        <time>2024-03-20T09:30:14.000Z</time>
      </trkpt>
      <trkpt lat="43.50869" lon="5.27807">
        <ele>218.3</ele>
        <time>2024-03-20T09:30:16.000Z</time>
      </trkpt>
      <trkpt lat="43.50868" lon="5.27809">
        <ele>218.3</ele>
        <time>2024-03-20T09:30:18.000Z</time>
      </trkpt>
      <trkpt lat="43.50866" lon="5.27812">
        <ele>218.2</ele>
        <time>2024-03-20T09:30:20.000Z</time>
      </trkpt>
      <trkpt lat="43.50865" lon="5.27814">
        <ele>218.2</ele>
        <time>2024-03-20T09:30:22.000Z</time>
      </trkpt>
      <trkpt lat="43.50863" lon="5.27817">
        <ele>218</ele>
        <time>2024-03-20T09:30:24.000Z</time>
      </trkpt>
      <trkpt lat="43.50861" lon="5.27819">
        <ele>218</ele>
        <time>2024-03-20T09:30:26.000Z</time>
      </trkpt>
      <trkpt lat="43.5086" lon="5.27821">
        <ele>218</ele>
        <time>2024-03-20T09:30:28.000Z</time>
      </trkpt>
      <trkpt lat="43.50857" lon="5.27824">
        <ele>218.1</ele>
        <time>2024-03-20T09:30:31.000Z</time>
      </trkpt>
      <trkpt lat="43.50855" lon="5.27826">
        <ele>218.2</ele>
        <time>2024-03-20T09:30:34.000Z</time>
      </trkpt>
      <trkpt lat="43.50853" lon="5.27828">
        <ele>218.3</ele>
        <time>2024-03-20T09:30:36.000Z</time>
      </trkpt>
      <trkpt lat="43.50851" lon="5.2783">
        <ele>218.3</ele>
        <time>2024-03-20T09:30:38.000Z</time>
      </trkpt>
      <trkpt lat="43.5085" lon="5.27832">
        <ele>218.5</ele>
        <time>2024-03-20T09:30:40.000Z</time>
      </trkpt>
      <trkpt lat="43.50849" lon="5.27836">
        <ele>218.7</ele>
        <time>2024-03-20T09:30:42.000Z</time>
      </trkpt>
      <trkpt lat="43.50847" lon="5.27838">
        <ele>218.9</ele>
        <time>2024-03-20T09:30:44.000Z</time>
      </trkpt>
      <trkpt lat="43.50846" lon="5.2784">
        <ele>218.9</ele>
        <time>2024-03-20T09:30:46.000Z</time>
      </trkpt>
      <trkpt lat="43.50844" lon="5.27842">
        <ele>218.9</ele>
        <time>2024-03-20T09:30:49.000Z</time>
      </trkpt>
      <trkpt lat="43.50841" lon="5.27844">
        <ele>218.9</ele>
        <time>2024-03-20T09:30:52.000Z</time>
      </trkpt>
      <trkpt lat="43.5084" lon="5.27846">
        <ele>218.9</ele>
        <time>2024-03-20T09:30:54.000Z</time>
      </trkpt>
      <trkpt lat="43.50838" lon="5.27848">
        <ele>218.9</ele>
        <time>2024-03-20T09:30:57.000Z</time>
      </trkpt>
      <trkpt lat="43.50836" lon="5.2785">
        <ele>218.8</ele>
        <time>2024-03-20T09:30:59.000Z</time>
      </trkpt>
      <trkpt lat="43.50835" lon="5.27851">
        <ele>218.7</ele>
        <time>2024-03-20T09:31:01.000Z</time>
      </trkpt>
      <trkpt lat="43.50833" lon="5.27853">
        <ele>218.7</ele>
        <time>2024-03-20T09:31:03.000Z</time>
      </trkpt>
      <trkpt lat="43.50831" lon="5.27856">
        <ele>218.8</ele>
        <time>2024-03-20T09:31:05.000Z</time>
      </trkpt>
      <trkpt lat="43.50829" lon="5.27857">
        <ele>218.9</ele>
        <time>2024-03-20T09:31:07.000Z</time>
      </trkpt>
      <trkpt lat="43.50827" lon="5.2786">
        <ele>219</ele>
        <time>2024-03-20T09:31:09.000Z</time>
      </trkpt>
      <trkpt lat="43.50826" lon="5.27863">
        <ele>219.1</ele>
        <time>2024-03-20T09:31:11.000Z</time>
      </trkpt>
      <trkpt lat="43.50824" lon="5.27865">
        <ele>219.3</ele>
        <time>2024-03-20T09:31:14.000Z</time>
      </trkpt>
      <trkpt lat="43.50822" lon="5.27867">
        <ele>219.4</ele>
        <time>2024-03-20T09:31:16.000Z</time>
      </trkpt>
      <trkpt lat="43.50821" lon="5.2787">
        <ele>219.5</ele>
        <time>2024-03-20T09:31:18.000Z</time>
      </trkpt>
      <trkpt lat="43.50819" lon="5.27872">
        <ele>219.6</ele>
        <time>2024-03-20T09:31:20.000Z</time>
      </trkpt>
      <trkpt lat="43.50818" lon="5.27874">
        <ele>219.6</ele>
        <time>2024-03-20T09:31:22.000Z</time>
      </trkpt>
      <trkpt lat="43.50817" lon="5.27877">
        <ele>219.7</ele>
        <time>2024-03-20T09:31:24.000Z</time>
      </trkpt>
      <trkpt lat="43.50816" lon="5.2788">
        <ele>219.8</ele>
        <time>2024-03-20T09:31:26.000Z</time>
      </trkpt>
      <trkpt lat="43.50816" lon="5.27883">
        <ele>219.9</ele>
        <time>2024-03-20T09:31:28.000Z</time>
      </trkpt>
      <trkpt lat="43.50814" lon="5.27885">
        <ele>219.8</ele>
        <time>2024-03-20T09:31:30.000Z</time>
      </trkpt>
      <trkpt lat="43.50812" lon="5.27887">
        <ele>219.6</ele>
        <time>2024-03-20T09:31:32.000Z</time>
      </trkpt>
      <trkpt lat="43.5081" lon="5.27887">
        <ele>219.4</ele>
        <time>2024-03-20T09:31:34.000Z</time>
      </trkpt>
      <trkpt lat="43.50808" lon="5.27891">
        <ele>219.3</ele>
        <time>2024-03-20T09:31:37.000Z</time>
      </trkpt>
      <trkpt lat="43.50806" lon="5.27894">
        <ele>219.2</ele>
        <time>2024-03-20T09:31:39.000Z</time>
      </trkpt>
      <trkpt lat="43.50805" lon="5.27896">
        <ele>219.2</ele>
        <time>2024-03-20T09:31:41.000Z</time>
      </trkpt>
      <trkpt lat="43.50803" lon="5.27898">
        <ele>219.2</ele>
        <time>2024-03-20T09:31:43.000Z</time>
      </trkpt>
      <trkpt lat="43.50802" lon="5.27901">
        <ele>219.3</ele>
        <time>2024-03-20T09:31:45.000Z</time>
      </trkpt>
      <trkpt lat="43.508" lon="5.27905">
        <ele>219.4</ele>
        <time>2024-03-20T09:31:48.000Z</time>
      </trkpt>
      <trkpt lat="43.50799" lon="5.27908">
        <ele>219.4</ele>
        <time>2024-03-20T09:31:50.000Z</time>
      </trkpt>
      <trkpt lat="43.50798" lon="5.27911">
        <ele>219.5</ele>
        <time>2024-03-20T09:31:52.000Z</time>
      </trkpt>
      <trkpt lat="43.50796" lon="5.27913">
        <ele>219.5</ele>
        <time>2024-03-20T09:31:54.000Z</time>
      </trkpt>
      <trkpt lat="43.50796" lon="5.27916">
        <ele>219.6</ele>
        <time>2024-03-20T09:31:56.000Z</time>
      </trkpt>
      <trkpt lat="43.50794" lon="5.27918">
        <ele>219.6</ele>
        <time>2024-03-20T09:31:58.000Z</time>
      </trkpt>
      <trkpt lat="43.50794" lon="5.27922">
        <ele>219.7</ele>
        <time>2024-03-20T09:32:01.000Z</time>
      </trkpt>
      <trkpt lat="43.50792" lon="5.27925">
        <ele>219.7</ele>
        <time>2024-03-20T09:32:04.000Z</time>
      </trkpt>
      <trkpt lat="43.50791" lon="5.27928">
        <ele>219.7</ele>
        <time>2024-03-20T09:32:06.000Z</time>
      </trkpt>
      <trkpt lat="43.5079" lon="5.27931">
        <ele>219.7</ele>
        <time>2024-03-20T09:32:09.000Z</time>
      </trkpt>
      <trkpt lat="43.50789" lon="5.27933">
        <ele>219.6</ele>
        <time>2024-03-20T09:32:11.000Z</time>
      </trkpt>
      <trkpt lat="43.50787" lon="5.27936">
        <ele>219.6</ele>
        <time>2024-03-20T09:32:13.000Z</time>
      </trkpt>
      <trkpt lat="43.50786" lon="5.27939">
        <ele>219.5</ele>
        <time>2024-03-20T09:32:16.000Z</time>
      </trkpt>
      <trkpt lat="43.50785" lon="5.27942">
        <ele>219.5</ele>
        <time>2024-03-20T09:32:18.000Z</time>
      </trkpt>
      <trkpt lat="43.50783" lon="5.27945">
        <ele>219.3</ele>
        <time>2024-03-20T09:32:20.000Z</time>
      </trkpt>
      <trkpt lat="43.50781" lon="5.27948">
        <ele>219</ele>
        <time>2024-03-20T09:32:23.000Z</time>
      </trkpt>
      <trkpt lat="43.5078" lon="5.27951">
        <ele>218.7</ele>
        <time>2024-03-20T09:32:25.000Z</time>
      </trkpt>
      <trkpt lat="43.50779" lon="5.27953">
        <ele>218.5</ele>
        <time>2024-03-20T09:32:27.000Z</time>
      </trkpt>
      <trkpt lat="43.50778" lon="5.27956">
        <ele>218.2</ele>
        <time>2024-03-20T09:32:29.000Z</time>
      </trkpt>
      <trkpt lat="43.50776" lon="5.27958">
        <ele>217.9</ele>
        <time>2024-03-20T09:32:31.000Z</time>
      </trkpt>
      <trkpt lat="43.50775" lon="5.27962">
        <ele>217.6</ele>
        <time>2024-03-20T09:32:33.000Z</time>
      </trkpt>
      <trkpt lat="43.50774" lon="5.27965">
        <ele>217.4</ele>
        <time>2024-03-20T09:32:35.000Z</time>
      </trkpt>
      <trkpt lat="43.50774" lon="5.27967">
        <ele>217.2</ele>
        <time>2024-03-20T09:32:37.000Z</time>
      </trkpt>
      <trkpt lat="43.50773" lon="5.2797">
        <ele>217</ele>
        <time>2024-03-20T09:32:39.000Z</time>
      </trkpt>
      <trkpt lat="43.50772" lon="5.27973">
        <ele>216.8</ele>
        <time>2024-03-20T09:32:41.000Z</time>
      </trkpt>
      <trkpt lat="43.50771" lon="5.27975">
        <ele>216.7</ele>
        <time>2024-03-20T09:32:43.000Z</time>
      </trkpt>
      <trkpt lat="43.5077" lon="5.27978">
        <ele>216.6</ele>
        <time>2024-03-20T09:32:45.000Z</time>
      </trkpt>
      <trkpt lat="43.50769" lon="5.2798">
        <ele>216.5</ele>
        <time>2024-03-20T09:32:47.000Z</time>
      </trkpt>
      <trkpt lat="43.50768" lon="5.27984">
        <ele>216.4</ele>
        <time>2024-03-20T09:32:50.000Z</time>
      </trkpt>
      <trkpt lat="43.50766" lon="5.27988">
        <ele>216.2</ele>
        <time>2024-03-20T09:32:53.000Z</time>
      </trkpt>
      <trkpt lat="43.50765" lon="5.27991">
        <ele>216.2</ele>
        <time>2024-03-20T09:32:55.000Z</time>
      </trkpt>
      <trkpt lat="43.50764" lon="5.27993">
        <ele>216.1</ele>
        <time>2024-03-20T09:32:58.000Z</time>
      </trkpt>
      <trkpt lat="43.50763" lon="5.27997">
        <ele>216.1</ele>
        <time>2024-03-20T09:33:00.000Z</time>
      </trkpt>
      <trkpt lat="43.50763" lon="5.27999">
        <ele>216</ele>
        <time>2024-03-20T09:33:02.000Z</time>
      </trkpt>
      <trkpt lat="43.50762" lon="5.28002">
        <ele>216</ele>
        <time>2024-03-20T09:33:04.000Z</time>
      </trkpt>
      <trkpt lat="43.50761" lon="5.28005">
        <ele>215.9</ele>
        <time>2024-03-20T09:33:06.000Z</time>
      </trkpt>
      <trkpt lat="43.50759" lon="5.28008">
        <ele>215.9</ele>
        <time>2024-03-20T09:33:09.000Z</time>
      </trkpt>
      <trkpt lat="43.50758" lon="5.28011">
        <ele>215.9</ele>
        <time>2024-03-20T09:33:11.000Z</time>
      </trkpt>
      <trkpt lat="43.50757" lon="5.28014">
        <ele>215.9</ele>
        <time>2024-03-20T09:33:14.000Z</time>
      </trkpt>
      <trkpt lat="43.50756" lon="5.28017">
        <ele>215.9</ele>
        <time>2024-03-20T09:33:16.000Z</time>
      </trkpt>
      <trkpt lat="43.50755" lon="5.28019">
        <ele>215.9</ele>
        <time>2024-03-20T09:33:18.000Z</time>
      </trkpt>
      <trkpt lat="43.50754" lon="5.28021">
        <ele>215.9</ele>
        <time>2024-03-20T09:33:20.000Z</time>
      </trkpt>
      <trkpt lat="43.50753" lon="5.28023">
        <ele>215.9</ele>
        <time>2024-03-20T09:33:22.000Z</time>
      </trkpt>
      <trkpt lat="43.50752" lon="5.28026">
        <ele>215.9</ele>
        <time>2024-03-20T09:33:24.000Z</time>
      </trkpt>
      <trkpt lat="43.50751" lon="5.28029">
        <ele>216</ele>
        <time>2024-03-20T09:33:26.000Z</time>
      </trkpt>
      <trkpt lat="43.5075" lon="5.28031">
        <ele>216</ele>
        <time>2024-03-20T09:33:28.000Z</time>
      </trkpt>
      <trkpt lat="43.5075" lon="5.28035">
        <ele>216</ele>
        <time>2024-03-20T09:33:31.000Z</time>
      </trkpt>
      <trkpt lat="43.5075" lon="5.28039">
        <ele>216</ele>
        <time>2024-03-20T09:33:33.000Z</time>
      </trkpt>
      <trkpt lat="43.50751" lon="5.28042">
        <ele>215.9</ele>
        <time>2024-03-20T09:33:35.000Z</time>
      </trkpt>
      <trkpt lat="43.50752" lon="5.28045">
        <ele>215.8</ele>
        <time>2024-03-20T09:33:38.000Z</time>
      </trkpt>
      <trkpt lat="43.50752" lon="5.28048">
        <ele>215.8</ele>
        <time>2024-03-20T09:33:41.000Z</time>
      </trkpt>
      <trkpt lat="43.50753" lon="5.28051">
        <ele>215.7</ele>
        <time>2024-03-20T09:33:44.000Z</time>
      </trkpt>
      <trkpt lat="43.50752" lon="5.28055">
        <ele>215.7</ele>
        <time>2024-03-20T09:34:31.000Z</time>
      </trkpt>
      <trkpt lat="43.50752" lon="5.28057">
        <ele>215.8</ele>
        <time>2024-03-20T09:34:34.000Z</time>
      </trkpt>
      <trkpt lat="43.50751" lon="5.2806">
        <ele>215.7</ele>
        <time>2024-03-20T09:35:29.000Z</time>
      </trkpt>
      <trkpt lat="43.5075" lon="5.28062">
        <ele>215.8</ele>
        <time>2024-03-20T09:35:56.000Z</time>
      </trkpt>
      <trkpt lat="43.5075" lon="5.28065">
        <ele>215.6</ele>
        <time>2024-03-20T09:36:02.000Z</time>
      </trkpt>
      <trkpt lat="43.50751" lon="5.28067">
        <ele>215.4</ele>
        <time>2024-03-20T09:36:06.000Z</time>
      </trkpt>
      <trkpt lat="43.50753" lon="5.2807">
        <ele>215.2</ele>
        <time>2024-03-20T09:36:13.000Z</time>
      </trkpt>
      <trkpt lat="43.50753" lon="5.28065">
        <ele>215.3</ele>
        <time>2024-03-20T09:38:05.000Z</time>
      </trkpt>
      <trkpt lat="43.50753" lon="5.28062">
        <ele>215.5</ele>
        <time>2024-03-20T09:38:09.000Z</time>
      </trkpt>
      <trkpt lat="43.50755" lon="5.28059">
        <ele>215.4</ele>
        <time>2024-03-20T09:38:15.000Z</time>
      </trkpt>
      <trkpt lat="43.50755" lon="5.28055">
        <ele>215.5</ele>
        <time>2024-03-20T09:38:22.000Z</time>
      </trkpt>
      <trkpt lat="43.50755" lon="5.28052">
        <ele>215.5</ele>
        <time>2024-03-20T09:38:41.000Z</time>
      </trkpt>
      <trkpt lat="43.50754" lon="5.28047">
        <ele>215.6</ele>
        <time>2024-03-20T09:38:46.000Z</time>
      </trkpt>
      <trkpt lat="43.50754" lon="5.28044">
        <ele>215.7</ele>
        <time>2024-03-20T09:38:49.000Z</time>
      </trkpt>
      <trkpt lat="43.50753" lon="5.28042">
        <ele>215.8</ele>
        <time>2024-03-20T09:38:54.000Z</time>
      </trkpt>
      <trkpt lat="43.50754" lon="5.28042">
        <ele>215.7</ele>
        <time>2024-03-20T09:38:57.000Z</time>
      </trkpt>
      <trkpt lat="43.50753" lon="5.28044">
        <ele>215.8</ele>
        <time>2024-03-20T09:39:54.000Z</time>
      </trkpt>
      <trkpt lat="43.50752" lon="5.28046">
        <ele>215.9</ele>
        <time>2024-03-20T09:40:05.000Z</time>
      </trkpt>
      <trkpt lat="43.50751" lon="5.2805">
        <ele>215.9</ele>
        <time>2024-03-20T09:40:39.000Z</time>
      </trkpt>
      <trkpt lat="43.50752" lon="5.28052">
        <ele>215.8</ele>
        <time>2024-03-20T09:40:48.000Z</time>
      </trkpt>
      <trkpt lat="43.50751" lon="5.28054">
        <ele>215.9</ele>
        <time>2024-03-20T09:40:51.000Z</time>
      </trkpt>
      <trkpt lat="43.50751" lon="5.28057">
        <ele>215.8</ele>
        <time>2024-03-20T09:40:55.000Z</time>
      </trkpt>
      <trkpt lat="43.50751" lon="5.28061">
        <ele>215.8</ele>
        <time>2024-03-20T09:40:57.000Z</time>
      </trkpt>
      <trkpt lat="43.5075" lon="5.28063">
        <ele>215.7</ele>
        <time>2024-03-20T09:40:59.000Z</time>
      </trkpt>
      <trkpt lat="43.5075" lon="5.28067">
        <ele>215.6</ele>
        <time>2024-03-20T09:41:02.000Z</time>
      </trkpt>
      <trkpt lat="43.50752" lon="5.2807">
        <ele>215.3</ele>
        <time>2024-03-20T09:41:05.000Z</time>
      </trkpt>
      <trkpt lat="43.50753" lon="5.28073">
        <ele>215.1</ele>
        <time>2024-03-20T09:41:07.000Z</time>
      </trkpt>
      <trkpt lat="43.50754" lon="5.28077">
        <ele>214.8</ele>
        <time>2024-03-20T09:41:09.000Z</time>
      </trkpt>
      <trkpt lat="43.50756" lon="5.28079">
        <ele>214.6</ele>
        <time>2024-03-20T09:41:11.000Z</time>
      </trkpt>
      <trkpt lat="43.50756" lon="5.28082">
        <ele>214.4</ele>
        <time>2024-03-20T09:41:13.000Z</time>
      </trkpt>
      <trkpt lat="43.50757" lon="5.28084">
        <ele>214.3</ele>
        <time>2024-03-20T09:41:15.000Z</time>
      </trkpt>
      <trkpt lat="43.50757" lon="5.28088">
        <ele>214.4</ele>
        <time>2024-03-20T09:41:18.000Z</time>
      </trkpt>
      <trkpt lat="43.50759" lon="5.28089">
        <ele>214.2</ele>
        <time>2024-03-20T09:41:20.000Z</time>
      </trkpt>
      <trkpt lat="43.5076" lon="5.28094">
        <ele>214.2</ele>
        <time>2024-03-20T09:41:22.000Z</time>
      </trkpt>
      <trkpt lat="43.50761" lon="5.28097">
        <ele>214.2</ele>
        <time>2024-03-20T09:41:24.000Z</time>
      </trkpt>
      <trkpt lat="43.50762" lon="5.281">
        <ele>214.1</ele>
        <time>2024-03-20T09:41:27.000Z</time>
      </trkpt>
      <trkpt lat="43.50763" lon="5.28104">
        <ele>214</ele>
        <time>2024-03-20T09:41:29.000Z</time>
      </trkpt>
      <trkpt lat="43.50765" lon="5.28105">
        <ele>213.8</ele>
        <time>2024-03-20T09:41:31.000Z</time>
      </trkpt>
      <trkpt lat="43.50766" lon="5.28107">
        <ele>213.6</ele>
        <time>2024-03-20T09:41:33.000Z</time>
      </trkpt>
      <trkpt lat="43.50768" lon="5.28109">
        <ele>213.4</ele>
        <time>2024-03-20T09:41:35.000Z</time>
      </trkpt>
      <trkpt lat="43.5077" lon="5.28112">
        <ele>213.2</ele>
        <time>2024-03-20T09:41:38.000Z</time>
      </trkpt>
      <trkpt lat="43.50771" lon="5.28113">
        <ele>213.1</ele>
        <time>2024-03-20T09:41:40.000Z</time>
      </trkpt>
      <trkpt lat="43.50773" lon="5.28116">
        <ele>213.1</ele>
        <time>2024-03-20T09:41:42.000Z</time>
      </trkpt>
      <trkpt lat="43.50774" lon="5.2812">
        <ele>213.1</ele>
        <time>2024-03-20T09:41:44.000Z</time>
      </trkpt>
      <trkpt lat="43.50775" lon="5.28122">
        <ele>213.2</ele>
        <time>2024-03-20T09:41:46.000Z</time>
      </trkpt>
      <trkpt lat="43.50777" lon="5.28125">
        <ele>213.2</ele>
        <time>2024-03-20T09:41:49.000Z</time>
      </trkpt>
      <trkpt lat="43.50778" lon="5.28128">
        <ele>213.2</ele>
        <time>2024-03-20T09:41:51.000Z</time>
      </trkpt>
      <trkpt lat="43.50778" lon="5.28131">
        <ele>213.3</ele>
        <time>2024-03-20T09:41:53.000Z</time>
      </trkpt>
      <trkpt lat="43.5078" lon="5.28133">
        <ele>213.2</ele>
        <time>2024-03-20T09:41:55.000Z</time>
      </trkpt>
      <trkpt lat="43.50781" lon="5.28136">
        <ele>213.3</ele>
        <time>2024-03-20T09:41:57.000Z</time>
      </trkpt>
      <trkpt lat="43.50782" lon="5.28138">
        <ele>213.4</ele>
        <time>2024-03-20T09:41:59.000Z</time>
      </trkpt>
      <trkpt lat="43.50783" lon="5.28141">
        <ele>213.6</ele>
        <time>2024-03-20T09:42:01.000Z</time>
      </trkpt>
      <trkpt lat="43.50784" lon="5.28143">
        <ele>213.8</ele>
        <time>2024-03-20T09:42:03.000Z</time>
      </trkpt>
      <trkpt lat="43.50786" lon="5.28144">
        <ele>213.9</ele>
        <time>2024-03-20T09:42:05.000Z</time>
      </trkpt>
      <trkpt lat="43.50788" lon="5.28147">
        <ele>214.2</ele>
        <time>2024-03-20T09:42:07.000Z</time>
      </trkpt>
      <trkpt lat="43.50789" lon="5.2815">
        <ele>214.6</ele>
        <time>2024-03-20T09:42:09.000Z</time>
      </trkpt>
      <trkpt lat="43.5079" lon="5.28153">
        <ele>215.1</ele>
        <time>2024-03-20T09:42:12.000Z</time>
      </trkpt>
      <trkpt lat="43.50791" lon="5.28155">
        <ele>215.3</ele>
        <time>2024-03-20T09:42:14.000Z</time>
      </trkpt>
      <trkpt lat="43.50793" lon="5.28158">
        <ele>215.6</ele>
        <time>2024-03-20T09:42:16.000Z</time>
      </trkpt>
      <trkpt lat="43.50793" lon="5.2816">
        <ele>215.9</ele>
        <time>2024-03-20T09:42:18.000Z</time>
      </trkpt>
      <trkpt lat="43.50796" lon="5.28163">
        <ele>216.1</ele>
        <time>2024-03-20T09:42:21.000Z</time>
      </trkpt>
      <trkpt lat="43.50797" lon="5.28166">
        <ele>216.3</ele>
        <time>2024-03-20T09:42:24.000Z</time>
      </trkpt>
      <trkpt lat="43.508" lon="5.28168">
        <ele>216.5</ele>
        <time>2024-03-20T09:42:27.000Z</time>
      </trkpt>
      <trkpt lat="43.50801" lon="5.2817">
        <ele>216.7</ele>
        <time>2024-03-20T09:42:29.000Z</time>
      </trkpt>
      <trkpt lat="43.50803" lon="5.28172">
        <ele>216.8</ele>
        <time>2024-03-20T09:42:31.000Z</time>
      </trkpt>
      <trkpt lat="43.50804" lon="5.28174">
        <ele>217.2</ele>
        <time>2024-03-20T09:42:34.000Z</time>
      </trkpt>
      <trkpt lat="43.50805" lon="5.28176">
        <ele>217.4</ele>
        <time>2024-03-20T09:42:36.000Z</time>
      </trkpt>
      <trkpt lat="43.50807" lon="5.28179">
        <ele>217.7</ele>
        <time>2024-03-20T09:42:38.000Z</time>
      </trkpt>
      <trkpt lat="43.50809" lon="5.28182">
        <ele>218</ele>
        <time>2024-03-20T09:42:40.000Z</time>
      </trkpt>
      <trkpt lat="43.50811" lon="5.28184">
        <ele>218.3</ele>
        <time>2024-03-20T09:42:43.000Z</time>
      </trkpt>
      <trkpt lat="43.50813" lon="5.28187">
        <ele>218.6</ele>
        <time>2024-03-20T09:42:47.000Z</time>
      </trkpt>
      <trkpt lat="43.50814" lon="5.2819">
        <ele>219</ele>
        <time>2024-03-20T09:42:49.000Z</time>
      </trkpt>
      <trkpt lat="43.50816" lon="5.28192">
        <ele>219.3</ele>
        <time>2024-03-20T09:42:51.000Z</time>
      </trkpt>
      <trkpt lat="43.50818" lon="5.28194">
        <ele>219.3</ele>
        <time>2024-03-20T09:42:53.000Z</time>
      </trkpt>
      <trkpt lat="43.50819" lon="5.28196">
        <ele>219.7</ele>
        <time>2024-03-20T09:42:55.000Z</time>
      </trkpt>
      <trkpt lat="43.50821" lon="5.28198">
        <ele>219.7</ele>
        <time>2024-03-20T09:42:57.000Z</time>
      </trkpt>
      <trkpt lat="43.50823" lon="5.28202">
        <ele>220</ele>
        <time>2024-03-20T09:43:01.000Z</time>
      </trkpt>
      <trkpt lat="43.50824" lon="5.28206">
        <ele>220.4</ele>
        <time>2024-03-20T09:43:04.000Z</time>
      </trkpt>
      <trkpt lat="43.50826" lon="5.28208">
        <ele>220.5</ele>
        <time>2024-03-20T09:43:07.000Z</time>
      </trkpt>
      <trkpt lat="43.50828" lon="5.2821">
        <ele>220.5</ele>
        <time>2024-03-20T09:43:09.000Z</time>
      </trkpt>
      <trkpt lat="43.50828" lon="5.28213">
        <ele>220.9</ele>
        <time>2024-03-20T09:43:11.000Z</time>
      </trkpt>
      <trkpt lat="43.5083" lon="5.28216">
        <ele>221.1</ele>
        <time>2024-03-20T09:43:13.000Z</time>
      </trkpt>
      <trkpt lat="43.50831" lon="5.28218">
        <ele>221.2</ele>
        <time>2024-03-20T09:43:15.000Z</time>
      </trkpt>
      <trkpt lat="43.50831" lon="5.28221">
        <ele>221.4</ele>
        <time>2024-03-20T09:43:17.000Z</time>
      </trkpt>
      <trkpt lat="43.50832" lon="5.28224">
        <ele>221.8</ele>
        <time>2024-03-20T09:43:20.000Z</time>
      </trkpt>
      <trkpt lat="43.50833" lon="5.28226">
        <ele>221.9</ele>
        <time>2024-03-20T09:43:22.000Z</time>
      </trkpt>
      <trkpt lat="43.50836" lon="5.28228">
        <ele>221.8</ele>
        <time>2024-03-20T09:43:25.000Z</time>
      </trkpt>
      <trkpt lat="43.50837" lon="5.28232">
        <ele>222.2</ele>
        <time>2024-03-20T09:43:28.000Z</time>
      </trkpt>
      <trkpt lat="43.50838" lon="5.28235">
        <ele>222.6</ele>
        <time>2024-03-20T09:43:30.000Z</time>
      </trkpt>
      <trkpt lat="43.50838" lon="5.28238">
        <ele>223.3</ele>
        <time>2024-03-20T09:43:33.000Z</time>
      </trkpt>
      <trkpt lat="43.50839" lon="5.28241">
        <ele>224</ele>
        <time>2024-03-20T09:43:35.000Z</time>
      </trkpt>
      <trkpt lat="43.50839" lon="5.28244">
        <ele>224.6</ele>
        <time>2024-03-20T09:43:38.000Z</time>
      </trkpt>
      <trkpt lat="43.5084" lon="5.28249">
        <ele>225.3</ele>
        <time>2024-03-20T09:43:41.000Z</time>
      </trkpt>
      <trkpt lat="43.50842" lon="5.28252">
        <ele>225.3</ele>
        <time>2024-03-20T09:43:44.000Z</time>
      </trkpt>
      <trkpt lat="43.50842" lon="5.28255">
        <ele>225.8</ele>
        <time>2024-03-20T09:43:47.000Z</time>
      </trkpt>
      <trkpt lat="43.50843" lon="5.28258">
        <ele>226</ele>
        <time>2024-03-20T09:43:49.000Z</time>
      </trkpt>
      <trkpt lat="43.50844" lon="5.28261">
        <ele>226.3</ele>
        <time>2024-03-20T09:43:51.000Z</time>
      </trkpt>
      <trkpt lat="43.50844" lon="5.28264">
        <ele>227</ele>
        <time>2024-03-20T09:43:54.000Z</time>
      </trkpt>
      <trkpt lat="43.50845" lon="5.28267">
        <ele>227.4</ele>
        <time>2024-03-20T09:43:57.000Z</time>
      </trkpt>
      <trkpt lat="43.50846" lon="5.28271">
        <ele>227.7</ele>
        <time>2024-03-20T09:43:59.000Z</time>
      </trkpt>
      <trkpt lat="43.50846" lon="5.28274">
        <ele>228.2</ele>
        <time>2024-03-20T09:44:02.000Z</time>
      </trkpt>
      <trkpt lat="43.50846" lon="5.28277">
        <ele>228.8</ele>
        <time>2024-03-20T09:44:04.000Z</time>
      </trkpt>
      <trkpt lat="43.50847" lon="5.28281">
        <ele>229.3</ele>
        <time>2024-03-20T09:44:07.000Z</time>
      </trkpt>
      <trkpt lat="43.50848" lon="5.28284">
        <ele>229.3</ele>
        <time>2024-03-20T09:44:09.000Z</time>
      </trkpt>
      <trkpt lat="43.50848" lon="5.28287">
        <ele>229.7</ele>
        <time>2024-03-20T09:44:11.000Z</time>
      </trkpt>
      <trkpt lat="43.50849" lon="5.2829">
        <ele>229.9</ele>
        <time>2024-03-20T09:44:13.000Z</time>
      </trkpt>
      <trkpt lat="43.50849" lon="5.28292">
        <ele>230.1</ele>
        <time>2024-03-20T09:44:15.000Z</time>
      </trkpt>
      <trkpt lat="43.50851" lon="5.28295">
        <ele>230</ele>
        <time>2024-03-20T09:44:17.000Z</time>
      </trkpt>
      <trkpt lat="43.50852" lon="5.28298">
        <ele>230.1</ele>
        <time>2024-03-20T09:44:19.000Z</time>
      </trkpt>
      <trkpt lat="43.50852" lon="5.283">
        <ele>230.2</ele>
        <time>2024-03-20T09:44:21.000Z</time>
      </trkpt>
      <trkpt lat="43.50854" lon="5.28304">
        <ele>230.2</ele>
        <time>2024-03-20T09:44:24.000Z</time>
      </trkpt>
      <trkpt lat="43.50855" lon="5.28306">
        <ele>230.1</ele>
        <time>2024-03-20T09:44:26.000Z</time>
      </trkpt>
      <trkpt lat="43.50855" lon="5.28309">
        <ele>230.4</ele>
        <time>2024-03-20T09:44:28.000Z</time>
      </trkpt>
      <trkpt lat="43.50856" lon="5.28311">
        <ele>230.4</ele>
        <time>2024-03-20T09:44:30.000Z</time>
      </trkpt>
      <trkpt lat="43.50857" lon="5.28315">
        <ele>230.8</ele>
        <time>2024-03-20T09:44:33.000Z</time>
      </trkpt>
      <trkpt lat="43.50858" lon="5.28318">
        <ele>230.6</ele>
        <time>2024-03-20T09:44:36.000Z</time>
      </trkpt>
      <trkpt lat="43.50859" lon="5.28322">
        <ele>230.9</ele>
        <time>2024-03-20T09:44:38.000Z</time>
      </trkpt>
      <trkpt lat="43.5086" lon="5.28324">
        <ele>231</ele>
        <time>2024-03-20T09:44:40.000Z</time>
      </trkpt>
      <trkpt lat="43.5086" lon="5.28327">
        <ele>231.4</ele>
        <time>2024-03-20T09:44:42.000Z</time>
      </trkpt>
      <trkpt lat="43.50861" lon="5.28329">
        <ele>231.3</ele>
        <time>2024-03-20T09:44:44.000Z</time>
      </trkpt>
      <trkpt lat="43.50862" lon="5.28332">
        <ele>231.5</ele>
        <time>2024-03-20T09:44:47.000Z</time>
      </trkpt>
      <trkpt lat="43.50863" lon="5.28336">
        <ele>231.9</ele>
        <time>2024-03-20T09:44:50.000Z</time>
      </trkpt>
      <trkpt lat="43.50863" lon="5.28339">
        <ele>232.4</ele>
        <time>2024-03-20T09:44:52.000Z</time>
      </trkpt>
      <trkpt lat="43.50863" lon="5.28342">
        <ele>232.8</ele>
        <time>2024-03-20T09:44:55.000Z</time>
      </trkpt>
      <trkpt lat="43.50864" lon="5.28345">
        <ele>233.1</ele>
        <time>2024-03-20T09:44:57.000Z</time>
      </trkpt>
      <trkpt lat="43.50865" lon="5.28348">
        <ele>233.3</ele>
        <time>2024-03-20T09:44:59.000Z</time>
      </trkpt>
      <trkpt lat="43.50866" lon="5.2835">
        <ele>233.5</ele>
        <time>2024-03-20T09:45:01.000Z</time>
      </trkpt>
      <trkpt lat="43.50866" lon="5.28352">
        <ele>233.6</ele>
        <time>2024-03-20T09:45:03.000Z</time>
      </trkpt>
      <trkpt lat="43.50867" lon="5.28355">
        <ele>234</ele>
        <time>2024-03-20T09:45:05.000Z</time>
      </trkpt>
      <trkpt lat="43.50868" lon="5.28357">
        <ele>234.1</ele>
        <time>2024-03-20T09:45:07.000Z</time>
      </trkpt>
      <trkpt lat="43.50869" lon="5.2836">
        <ele>234.2</ele>
        <time>2024-03-20T09:45:09.000Z</time>
      </trkpt>
      <trkpt lat="43.5087" lon="5.28363">
        <ele>234.6</ele>
        <time>2024-03-20T09:45:12.000Z</time>
      </trkpt>
      <trkpt lat="43.5087" lon="5.28366">
        <ele>235.1</ele>
        <time>2024-03-20T09:45:14.000Z</time>
      </trkpt>
      <trkpt lat="43.50872" lon="5.28369">
        <ele>235.4</ele>
        <time>2024-03-20T09:45:17.000Z</time>
      </trkpt>
      <trkpt lat="43.50872" lon="5.28373">
        <ele>236.1</ele>
        <time>2024-03-20T09:45:20.000Z</time>
      </trkpt>
      <trkpt lat="43.50873" lon="5.28376">
        <ele>236.7</ele>
        <time>2024-03-20T09:45:23.000Z</time>
      </trkpt>
      <trkpt lat="43.50873" lon="5.28379">
        <ele>237</ele>
        <time>2024-03-20T09:45:26.000Z</time>
      </trkpt>
      <trkpt lat="43.50875" lon="5.28382">
        <ele>237.2</ele>
        <time>2024-03-20T09:45:29.000Z</time>
      </trkpt>
      <trkpt lat="43.50875" lon="5.28385">
        <ele>237.6</ele>
        <time>2024-03-20T09:45:31.000Z</time>
      </trkpt>
      <trkpt lat="43.50876" lon="5.28388">
        <ele>237.8</ele>
        <time>2024-03-20T09:45:33.000Z</time>
      </trkpt>
      <trkpt lat="43.50877" lon="5.2839">
        <ele>237.8</ele>
        <time>2024-03-20T09:45:35.000Z</time>
      </trkpt>
      <trkpt lat="43.50878" lon="5.28393">
        <ele>238.3</ele>
        <time>2024-03-20T09:45:38.000Z</time>
      </trkpt>
      <trkpt lat="43.50878" lon="5.28396">
        <ele>238.9</ele>
        <time>2024-03-20T09:45:41.000Z</time>
      </trkpt>
      <trkpt lat="43.50879" lon="5.28399">
        <ele>239.1</ele>
        <time>2024-03-20T09:45:43.000Z</time>
      </trkpt>
      <trkpt lat="43.5088" lon="5.28402">
        <ele>239.4</ele>
        <time>2024-03-20T09:45:46.000Z</time>
      </trkpt>
      <trkpt lat="43.50881" lon="5.28404">
        <ele>239.5</ele>
        <time>2024-03-20T09:45:49.000Z</time>
      </trkpt>
      <trkpt lat="43.50882" lon="5.28407">
        <ele>239.8</ele>
        <time>2024-03-20T09:45:53.000Z</time>
      </trkpt>
      <trkpt lat="43.50883" lon="5.28409">
        <ele>239.8</ele>
        <time>2024-03-20T09:45:55.000Z</time>
      </trkpt>
      <trkpt lat="43.50884" lon="5.28412">
        <ele>240.2</ele>
        <time>2024-03-20T09:45:58.000Z</time>
      </trkpt>
      <trkpt lat="43.50885" lon="5.28414">
        <ele>240.1</ele>
        <time>2024-03-20T09:46:00.000Z</time>
      </trkpt>
      <trkpt lat="43.50886" lon="5.28418">
        <ele>240.5</ele>
        <time>2024-03-20T09:46:03.000Z</time>
      </trkpt>
      <trkpt lat="43.50887" lon="5.2842">
        <ele>241</ele>
        <time>2024-03-20T09:46:06.000Z</time>
      </trkpt>
      <trkpt lat="43.50888" lon="5.28423">
        <ele>241.4</ele>
        <time>2024-03-20T09:46:08.000Z</time>
      </trkpt>
      <trkpt lat="43.5089" lon="5.28425">
        <ele>241.5</ele>
        <time>2024-03-20T09:46:11.000Z</time>
      </trkpt>
      <trkpt lat="43.5089" lon="5.28428">
        <ele>242.3</ele>
        <time>2024-03-20T09:46:14.000Z</time>
      </trkpt>
      <trkpt lat="43.50892" lon="5.2843">
        <ele>242.5</ele>
        <time>2024-03-20T09:46:17.000Z</time>
      </trkpt>
      <trkpt lat="43.50893" lon="5.28432">
        <ele>243</ele>
        <time>2024-03-20T09:46:20.000Z</time>
      </trkpt>
      <trkpt lat="43.50895" lon="5.28434">
        <ele>243</ele>
        <time>2024-03-20T09:46:23.000Z</time>
      </trkpt>
      <trkpt lat="43.50897" lon="5.28437">
        <ele>243.7</ele>
        <time>2024-03-20T09:46:27.000Z</time>
      </trkpt>
      <trkpt lat="43.50897" lon="5.2844">
        <ele>244.5</ele>
        <time>2024-03-20T09:46:30.000Z</time>
      </trkpt>
      <trkpt lat="43.50898" lon="5.28443">
        <ele>245.2</ele>
        <time>2024-03-20T09:46:33.000Z</time>
      </trkpt>
      <trkpt lat="43.50899" lon="5.28446">
        <ele>245.7</ele>
        <time>2024-03-20T09:46:37.000Z</time>
      </trkpt>
      <trkpt lat="43.509" lon="5.28449">
        <ele>245.9</ele>
        <time>2024-03-20T09:46:42.000Z</time>
      </trkpt>
      <trkpt lat="43.50901" lon="5.28452">
        <ele>246.2</ele>
        <time>2024-03-20T09:46:45.000Z</time>
      </trkpt>
      <trkpt lat="43.50901" lon="5.28454">
        <ele>246.4</ele>
        <time>2024-03-20T09:46:47.000Z</time>
      </trkpt>
      <trkpt lat="43.50902" lon="5.28457">
        <ele>246.6</ele>
        <time>2024-03-20T09:46:50.000Z</time>
      </trkpt>
      <trkpt lat="43.50903" lon="5.28459">
        <ele>246.9</ele>
        <time>2024-03-20T09:46:52.000Z</time>
      </trkpt>
      <trkpt lat="43.50904" lon="5.28462">
        <ele>247.3</ele>
        <time>2024-03-20T09:46:56.000Z</time>
      </trkpt>
      <trkpt lat="43.50905" lon="5.28465">
        <ele>247.6</ele>
        <time>2024-03-20T09:46:59.000Z</time>
      </trkpt>
      <trkpt lat="43.50905" lon="5.28468">
        <ele>248.2</ele>
        <time>2024-03-20T09:47:02.000Z</time>
      </trkpt>
      <trkpt lat="43.50906" lon="5.28471">
        <ele>248.6</ele>
        <time>2024-03-20T09:47:05.000Z</time>
      </trkpt>
      <trkpt lat="43.50906" lon="5.28474">
        <ele>248.8</ele>
        <time>2024-03-20T09:47:08.000Z</time>
      </trkpt>
      <trkpt lat="43.50906" lon="5.28477">
        <ele>248.8</ele>
        <time>2024-03-20T09:47:11.000Z</time>
      </trkpt>
      <trkpt lat="43.50906" lon="5.2848">
        <ele>248.8</ele>
        <time>2024-03-20T09:47:14.000Z</time>
      </trkpt>
      <trkpt lat="43.50906" lon="5.28483">
        <ele>248.9</ele>
        <time>2024-03-20T09:47:17.000Z</time>
      </trkpt>
      <trkpt lat="43.50906" lon="5.28486">
        <ele>248.9</ele>
        <time>2024-03-20T09:47:20.000Z</time>
      </trkpt>
      <trkpt lat="43.50906" lon="5.28489">
        <ele>248.9</ele>
        <time>2024-03-20T09:47:23.000Z</time>
      </trkpt>
      <trkpt lat="43.50905" lon="5.28491">
        <ele>249</ele>
        <time>2024-03-20T09:47:26.000Z</time>
      </trkpt>
      <trkpt lat="43.50903" lon="5.28494">
        <ele>249</ele>
        <time>2024-03-20T09:47:29.000Z</time>
      </trkpt>
      <trkpt lat="43.50901" lon="5.28497">
        <ele>249</ele>
        <time>2024-03-20T09:47:33.000Z</time>
      </trkpt>
      <trkpt lat="43.509" lon="5.28498">
        <ele>249</ele>
        <time>2024-03-20T09:47:36.000Z</time>
      </trkpt>
      <trkpt lat="43.50898" lon="5.28501">
        <ele>249</ele>
        <time>2024-03-20T09:47:41.000Z</time>
      </trkpt>
      <trkpt lat="43.50897" lon="5.28503">
        <ele>249.2</ele>
        <time>2024-03-20T09:47:44.000Z</time>
      </trkpt>
      <trkpt lat="43.50897" lon="5.28507">
        <ele>249.3</ele>
        <time>2024-03-20T09:47:47.000Z</time>
      </trkpt>
      <trkpt lat="43.50899" lon="5.28508">
        <ele>249.4</ele>
        <time>2024-03-20T09:51:02.000Z</time>
      </trkpt>
      <trkpt lat="43.50901" lon="5.28507">
        <ele>249.4</ele>
        <time>2024-03-20T09:51:06.000Z</time>
      </trkpt>
      <trkpt lat="43.50904" lon="5.28506">
        <ele>249.3</ele>
        <time>2024-03-20T09:51:09.000Z</time>
      </trkpt>
      <trkpt lat="43.50905" lon="5.28504">
        <ele>249.2</ele>
        <time>2024-03-20T09:51:12.000Z</time>
      </trkpt>
      <trkpt lat="43.50904" lon="5.28506">
        <ele>249.3</ele>
        <time>2024-03-20T09:51:30.000Z</time>
      </trkpt>
      <trkpt lat="43.50903" lon="5.28508">
        <ele>249.5</ele>
        <time>2024-03-20T09:51:32.000Z</time>
      </trkpt>
      <trkpt lat="43.50902" lon="5.2851">
        <ele>249.5</ele>
        <time>2024-03-20T09:51:34.000Z</time>
      </trkpt>
      <trkpt lat="43.50901" lon="5.28513">
        <ele>249.7</ele>
        <time>2024-03-20T09:51:37.000Z</time>
      </trkpt>
      <trkpt lat="43.509" lon="5.28516">
        <ele>249.8</ele>
        <time>2024-03-20T09:51:40.000Z</time>
      </trkpt>
      <trkpt lat="43.50899" lon="5.28519">
        <ele>249.9</ele>
        <time>2024-03-20T09:51:43.000Z</time>
      </trkpt>
      <trkpt lat="43.50898" lon="5.28522">
        <ele>250</ele>
        <time>2024-03-20T09:51:45.000Z</time>
      </trkpt>
      <trkpt lat="43.50897" lon="5.28524">
        <ele>250.1</ele>
        <time>2024-03-20T09:51:47.000Z</time>
      </trkpt>
      <trkpt lat="43.50896" lon="5.28527">
        <ele>250.2</ele>
        <time>2024-03-20T09:51:49.000Z</time>
      </trkpt>
      <trkpt lat="43.50894" lon="5.2853">
        <ele>250.2</ele>
        <time>2024-03-20T09:51:52.000Z</time>
      </trkpt>
      <trkpt lat="43.50893" lon="5.28533">
        <ele>250.2</ele>
        <time>2024-03-20T09:51:54.000Z</time>
      </trkpt>
      <trkpt lat="43.50893" lon="5.28536">
        <ele>250.1</ele>
        <time>2024-03-20T09:51:56.000Z</time>
      </trkpt>
      <trkpt lat="43.50891" lon="5.28539">
        <ele>250.1</ele>
        <time>2024-03-20T09:51:58.000Z</time>
      </trkpt>
      <trkpt lat="43.50891" lon="5.28542">
        <ele>250.1</ele>
        <time>2024-03-20T09:52:00.000Z</time>
      </trkpt>
      <trkpt lat="43.5089" lon="5.28544">
        <ele>250</ele>
        <time>2024-03-20T09:52:02.000Z</time>
      </trkpt>
      <trkpt lat="43.50889" lon="5.28547">
        <ele>250</ele>
        <time>2024-03-20T09:52:04.000Z</time>
      </trkpt>
      <trkpt lat="43.50888" lon="5.2855">
        <ele>250</ele>
        <time>2024-03-20T09:52:07.000Z</time>
      </trkpt>
      <trkpt lat="43.50888" lon="5.28553">
        <ele>250</ele>
        <time>2024-03-20T09:52:09.000Z</time>
      </trkpt>
      <trkpt lat="43.50888" lon="5.28556">
        <ele>250</ele>
        <time>2024-03-20T09:52:11.000Z</time>
      </trkpt>
      <trkpt lat="43.50887" lon="5.28559">
        <ele>250.1</ele>
        <time>2024-03-20T09:52:13.000Z</time>
      </trkpt>
      <trkpt lat="43.50886" lon="5.28564">
        <ele>250.2</ele>
        <time>2024-03-20T09:52:16.000Z</time>
      </trkpt>
      <trkpt lat="43.50885" lon="5.28566">
        <ele>250.3</ele>
        <time>2024-03-20T09:52:19.000Z</time>
      </trkpt>
      <trkpt lat="43.50884" lon="5.2857">
        <ele>250.3</ele>
        <time>2024-03-20T09:52:22.000Z</time>
      </trkpt>
      <trkpt lat="43.50883" lon="5.28573">
        <ele>250.4</ele>
        <time>2024-03-20T09:52:24.000Z</time>
      </trkpt>
      <trkpt lat="43.50882" lon="5.28577">
        <ele>250.4</ele>
        <time>2024-03-20T09:52:27.000Z</time>
      </trkpt>
      <trkpt lat="43.50881" lon="5.28579">
        <ele>250.4</ele>
        <time>2024-03-20T09:52:29.000Z</time>
      </trkpt>
      <trkpt lat="43.50881" lon="5.28583">
        <ele>250.4</ele>
        <time>2024-03-20T09:52:31.000Z</time>
      </trkpt>
      <trkpt lat="43.50879" lon="5.28587">
        <ele>250.2</ele>
        <time>2024-03-20T09:52:33.000Z</time>
      </trkpt>
      <trkpt lat="43.50878" lon="5.2859">
        <ele>250.1</ele>
        <time>2024-03-20T09:52:35.000Z</time>
      </trkpt>
      <trkpt lat="43.50877" lon="5.28592">
        <ele>249.9</ele>
        <time>2024-03-20T09:52:37.000Z</time>
      </trkpt>
      <trkpt lat="43.50875" lon="5.28594">
        <ele>249.8</ele>
        <time>2024-03-20T09:52:40.000Z</time>
      </trkpt>
      <trkpt lat="43.50874" lon="5.28597">
        <ele>249.7</ele>
        <time>2024-03-20T09:52:44.000Z</time>
      </trkpt>
      <trkpt lat="43.50875" lon="5.28599">
        <ele>249.7</ele>
        <time>2024-03-20T09:52:48.000Z</time>
      </trkpt>
      <trkpt lat="43.50875" lon="5.28602">
        <ele>249.7</ele>
        <time>2024-03-20T09:52:51.000Z</time>
      </trkpt>
      <trkpt lat="43.50874" lon="5.28604">
        <ele>249.6</ele>
        <time>2024-03-20T09:52:53.000Z</time>
      </trkpt>
      <trkpt lat="43.50873" lon="5.28607">
        <ele>249.5</ele>
        <time>2024-03-20T09:52:55.000Z</time>
      </trkpt>
      <trkpt lat="43.50872" lon="5.2861">
        <ele>249.4</ele>
        <time>2024-03-20T09:52:57.000Z</time>
      </trkpt>
      <trkpt lat="43.50872" lon="5.28612">
        <ele>249.3</ele>
        <time>2024-03-20T09:52:59.000Z</time>
      </trkpt>
      <trkpt lat="43.50872" lon="5.28615">
        <ele>249.2</ele>
        <time>2024-03-20T09:53:01.000Z</time>
      </trkpt>
      <trkpt lat="43.50871" lon="5.28618">
        <ele>249.1</ele>
        <time>2024-03-20T09:53:03.000Z</time>
      </trkpt>
      <trkpt lat="43.5087" lon="5.2862">
        <ele>249</ele>
        <time>2024-03-20T09:53:06.000Z</time>
      </trkpt>
      <trkpt lat="43.5087" lon="5.28623">
        <ele>248.9</ele>
        <time>2024-03-20T09:53:08.000Z</time>
      </trkpt>
      <trkpt lat="43.50869" lon="5.28627">
        <ele>248.7</ele>
        <time>2024-03-20T09:53:10.000Z</time>
      </trkpt>
      <trkpt lat="43.50868" lon="5.28629">
        <ele>248.6</ele>
        <time>2024-03-20T09:53:12.000Z</time>
      </trkpt>
      <trkpt lat="43.50868" lon="5.28632">
        <ele>248.5</ele>
        <time>2024-03-20T09:53:14.000Z</time>
      </trkpt>
      <trkpt lat="43.50866" lon="5.28634">
        <ele>248.4</ele>
        <time>2024-03-20T09:53:16.000Z</time>
      </trkpt>
      <trkpt lat="43.50866" lon="5.28637">
        <ele>248.2</ele>
        <time>2024-03-20T09:53:18.000Z</time>
      </trkpt>
      <trkpt lat="43.50865" lon="5.2864">
        <ele>248.1</ele>
        <time>2024-03-20T09:53:20.000Z</time>
      </trkpt>
      <trkpt lat="43.50863" lon="5.28642">
        <ele>248.1</ele>
        <time>2024-03-20T09:53:23.000Z</time>
      </trkpt>
      <trkpt lat="43.50862" lon="5.28645">
        <ele>248</ele>
        <time>2024-03-20T09:53:25.000Z</time>
      </trkpt>
      <trkpt lat="43.50861" lon="5.28648">
        <ele>248</ele>
        <time>2024-03-20T09:53:27.000Z</time>
      </trkpt>
      <trkpt lat="43.50859" lon="5.2865">
        <ele>248</ele>
        <time>2024-03-20T09:53:32.000Z</time>
      </trkpt>
      <trkpt lat="43.50858" lon="5.28653">
        <ele>248</ele>
        <time>2024-03-20T09:53:34.000Z</time>
      </trkpt>
      <trkpt lat="43.50857" lon="5.28655">
        <ele>248</ele>
        <time>2024-03-20T09:53:36.000Z</time>
      </trkpt>
      <trkpt lat="43.50856" lon="5.28658">
        <ele>248</ele>
        <time>2024-03-20T09:53:39.000Z</time>
      </trkpt>
      <trkpt lat="43.50854" lon="5.28658">
        <ele>248</ele>
        <time>2024-03-20T09:53:42.000Z</time>
      </trkpt>
      <trkpt lat="43.50852" lon="5.28661">
        <ele>248</ele>
        <time>2024-03-20T09:53:44.000Z</time>
      </trkpt>
      <trkpt lat="43.50851" lon="5.28665">
        <ele>248</ele>
        <time>2024-03-20T09:53:46.000Z</time>
      </trkpt>
      <trkpt lat="43.5085" lon="5.28667">
        <ele>248</ele>
        <time>2024-03-20T09:53:48.000Z</time>
      </trkpt>
      <trkpt lat="43.5085" lon="5.28671">
        <ele>247.9</ele>
        <time>2024-03-20T09:53:51.000Z</time>
      </trkpt>
      <trkpt lat="43.5085" lon="5.28674">
        <ele>247.9</ele>
        <time>2024-03-20T09:53:53.000Z</time>
      </trkpt>
      <trkpt lat="43.50849" lon="5.28679">
        <ele>247.8</ele>
        <time>2024-03-20T09:53:55.000Z</time>
      </trkpt>
      <trkpt lat="43.50847" lon="5.28681">
        <ele>247.7</ele>
        <time>2024-03-20T09:53:58.000Z</time>
      </trkpt>
      <trkpt lat="43.50847" lon="5.28685">
        <ele>247.7</ele>
        <time>2024-03-20T09:54:00.000Z</time>
      </trkpt>
      <trkpt lat="43.50848" lon="5.28688">
        <ele>247.6</ele>
        <time>2024-03-20T09:54:04.000Z</time>
      </trkpt>
      <trkpt lat="43.50849" lon="5.2869">
        <ele>247.6</ele>
        <time>2024-03-20T09:54:06.000Z</time>
      </trkpt>
      <trkpt lat="43.50849" lon="5.28694">
        <ele>247.6</ele>
        <time>2024-03-20T09:54:08.000Z</time>
      </trkpt>
      <trkpt lat="43.5085" lon="5.28697">
        <ele>247.5</ele>
        <time>2024-03-20T09:54:10.000Z</time>
      </trkpt>
      <trkpt lat="43.50851" lon="5.28702">
        <ele>247.5</ele>
        <time>2024-03-20T09:54:13.000Z</time>
      </trkpt>
      <trkpt lat="43.50851" lon="5.28705">
        <ele>247.5</ele>
        <time>2024-03-20T09:54:15.000Z</time>
      </trkpt>
      <trkpt lat="43.50852" lon="5.28708">
        <ele>247.5</ele>
        <time>2024-03-20T09:54:18.000Z</time>
      </trkpt>
      <trkpt lat="43.50852" lon="5.28711">
        <ele>247.5</ele>
        <time>2024-03-20T09:54:20.000Z</time>
      </trkpt>
      <trkpt lat="43.50853" lon="5.28714">
        <ele>247.5</ele>
        <time>2024-03-20T09:54:22.000Z</time>
      </trkpt>
      <trkpt lat="43.50854" lon="5.28717">
        <ele>247.5</ele>
        <time>2024-03-20T09:54:24.000Z</time>
      </trkpt>
      <trkpt lat="43.50855" lon="5.2872">
        <ele>247.6</ele>
        <time>2024-03-20T09:54:26.000Z</time>
      </trkpt>
      <trkpt lat="43.50856" lon="5.28724">
        <ele>247.6</ele>
        <time>2024-03-20T09:54:28.000Z</time>
      </trkpt>
      <trkpt lat="43.50855" lon="5.28727">
        <ele>247.6</ele>
        <time>2024-03-20T09:54:30.000Z</time>
      </trkpt>
      <trkpt lat="43.50856" lon="5.28729">
        <ele>247.6</ele>
        <time>2024-03-20T09:54:32.000Z</time>
      </trkpt>
      <trkpt lat="43.50856" lon="5.28732">
        <ele>247.7</ele>
        <time>2024-03-20T09:54:34.000Z</time>
      </trkpt>
      <trkpt lat="43.50857" lon="5.28735">
        <ele>247.7</ele>
        <time>2024-03-20T09:54:36.000Z</time>
      </trkpt>
      <trkpt lat="43.50857" lon="5.28738">
        <ele>247.7</ele>
        <time>2024-03-20T09:54:38.000Z</time>
      </trkpt>
      <trkpt lat="43.50857" lon="5.28741">
        <ele>247.7</ele>
        <time>2024-03-20T09:54:40.000Z</time>
      </trkpt>
      <trkpt lat="43.50857" lon="5.28744">
        <ele>247.7</ele>
        <time>2024-03-20T09:54:42.000Z</time>
      </trkpt>
      <trkpt lat="43.50858" lon="5.28747">
        <ele>247.7</ele>
        <time>2024-03-20T09:54:44.000Z</time>
      </trkpt>
      <trkpt lat="43.50858" lon="5.28751">
        <ele>247.8</ele>
        <time>2024-03-20T09:54:47.000Z</time>
      </trkpt>
      <trkpt lat="43.50857" lon="5.28754">
        <ele>247.7</ele>
        <time>2024-03-20T09:54:49.000Z</time>
      </trkpt>
      <trkpt lat="43.50859" lon="5.28757">
        <ele>247.8</ele>
        <time>2024-03-20T09:54:51.000Z</time>
      </trkpt>
      <trkpt lat="43.50859" lon="5.2876">
        <ele>247.9</ele>
        <time>2024-03-20T09:54:53.000Z</time>
      </trkpt>
      <trkpt lat="43.5086" lon="5.28763">
        <ele>247.9</ele>
        <time>2024-03-20T09:54:55.000Z</time>
      </trkpt>
      <trkpt lat="43.5086" lon="5.28766">
        <ele>247.9</ele>
        <time>2024-03-20T09:54:57.000Z</time>
      </trkpt>
      <trkpt lat="43.5086" lon="5.28769">
        <ele>247.9</ele>
        <time>2024-03-20T09:54:59.000Z</time>
      </trkpt>
      <trkpt lat="43.5086" lon="5.28772">
        <ele>247.9</ele>
        <time>2024-03-20T09:55:01.000Z</time>
      </trkpt>
      <trkpt lat="43.50861" lon="5.28775">
        <ele>248</ele>
        <time>2024-03-20T09:55:03.000Z</time>
      </trkpt>
      <trkpt lat="43.50861" lon="5.28778">
        <ele>248</ele>
        <time>2024-03-20T09:55:05.000Z</time>
      </trkpt>
      <trkpt lat="43.50862" lon="5.2878">
        <ele>248</ele>
        <time>2024-03-20T09:55:07.000Z</time>
      </trkpt>
      <trkpt lat="43.50863" lon="5.28784">
        <ele>248</ele>
        <time>2024-03-20T09:55:10.000Z</time>
      </trkpt>
      <trkpt lat="43.50864" lon="5.28787">
        <ele>248</ele>
        <time>2024-03-20T09:55:12.000Z</time>
      </trkpt>
      <trkpt lat="43.50864" lon="5.2879">
        <ele>248</ele>
        <time>2024-03-20T09:55:14.000Z</time>
      </trkpt>
      <trkpt lat="43.50864" lon="5.28793">
        <ele>248</ele>
        <time>2024-03-20T09:55:16.000Z</time>
      </trkpt>
      <trkpt lat="43.50863" lon="5.28795">
        <ele>248</ele>
        <time>2024-03-20T09:55:18.000Z</time>
      </trkpt>
      <trkpt lat="43.50865" lon="5.28798">
        <ele>248</ele>
        <time>2024-03-20T09:55:20.000Z</time>
      </trkpt>
      <trkpt lat="43.50865" lon="5.28801">
        <ele>248</ele>
        <time>2024-03-20T09:55:22.000Z</time>
      </trkpt>
      <trkpt lat="43.50866" lon="5.28804">
        <ele>248</ele>
        <time>2024-03-20T09:55:24.000Z</time>
      </trkpt>
      <trkpt lat="43.50866" lon="5.28807">
        <ele>248.1</ele>
        <time>2024-03-20T09:55:26.000Z</time>
      </trkpt>
      <trkpt lat="43.50868" lon="5.28811">
        <ele>248.2</ele>
        <time>2024-03-20T09:55:28.000Z</time>
      </trkpt>
      <trkpt lat="43.50868" lon="5.28813">
        <ele>248.3</ele>
        <time>2024-03-20T09:55:30.000Z</time>
      </trkpt>
      <trkpt lat="43.50869" lon="5.28817">
        <ele>248.4</ele>
        <time>2024-03-20T09:55:32.000Z</time>
      </trkpt>
      <trkpt lat="43.50869" lon="5.2882">
        <ele>248.5</ele>
        <time>2024-03-20T09:55:34.000Z</time>
      </trkpt>
      <trkpt lat="43.50869" lon="5.28823">
        <ele>248.6</ele>
        <time>2024-03-20T09:55:36.000Z</time>
      </trkpt>
      <trkpt lat="43.50869" lon="5.28826">
        <ele>248.7</ele>
        <time>2024-03-20T09:55:39.000Z</time>
      </trkpt>
      <trkpt lat="43.5087" lon="5.28831">
        <ele>248.9</ele>
        <time>2024-03-20T09:55:42.000Z</time>
      </trkpt>
      <trkpt lat="43.5087" lon="5.28834">
        <ele>249</ele>
        <time>2024-03-20T09:55:44.000Z</time>
      </trkpt>
      <trkpt lat="43.5087" lon="5.28837">
        <ele>249.1</ele>
        <time>2024-03-20T09:55:46.000Z</time>
      </trkpt>
      <trkpt lat="43.5087" lon="5.2884">
        <ele>249.3</ele>
        <time>2024-03-20T09:55:48.000Z</time>
      </trkpt>
      <trkpt lat="43.5087" lon="5.28844">
        <ele>249.4</ele>
        <time>2024-03-20T09:55:50.000Z</time>
      </trkpt>
      <trkpt lat="43.5087" lon="5.28846">
        <ele>249.5</ele>
        <time>2024-03-20T09:55:52.000Z</time>
      </trkpt>
      <trkpt lat="43.5087" lon="5.2885">
        <ele>249.6</ele>
        <time>2024-03-20T09:55:54.000Z</time>
      </trkpt>
      <trkpt lat="43.5087" lon="5.28853">
        <ele>249.7</ele>
        <time>2024-03-20T09:55:57.000Z</time>
      </trkpt>
      <trkpt lat="43.5087" lon="5.28857">
        <ele>249.8</ele>
        <time>2024-03-20T09:55:59.000Z</time>
      </trkpt>
      <trkpt lat="43.5087" lon="5.28859">
        <ele>249.9</ele>
        <time>2024-03-20T09:56:01.000Z</time>
      </trkpt>
      <trkpt lat="43.5087" lon="5.28864">
        <ele>250</ele>
        <time>2024-03-20T09:56:03.000Z</time>
      </trkpt>
      <trkpt lat="43.5087" lon="5.28867">
        <ele>250.1</ele>
        <time>2024-03-20T09:56:05.000Z</time>
      </trkpt>
      <trkpt lat="43.50869" lon="5.28872">
        <ele>250.1</ele>
        <time>2024-03-20T09:56:08.000Z</time>
      </trkpt>
      <trkpt lat="43.50869" lon="5.28876">
        <ele>250.1</ele>
        <time>2024-03-20T09:56:10.000Z</time>
      </trkpt>
      <trkpt lat="43.50869" lon="5.28879">
        <ele>250.2</ele>
        <time>2024-03-20T09:56:12.000Z</time>
      </trkpt>
      <trkpt lat="43.50869" lon="5.28882">
        <ele>250.2</ele>
        <time>2024-03-20T09:56:14.000Z</time>
      </trkpt>
      <trkpt lat="43.50869" lon="5.28885">
        <ele>250.2</ele>
        <time>2024-03-20T09:56:16.000Z</time>
      </trkpt>
      <trkpt lat="43.50868" lon="5.28888">
        <ele>250.2</ele>
        <time>2024-03-20T09:56:19.000Z</time>
      </trkpt>
      <trkpt lat="43.50867" lon="5.28891">
        <ele>250.3</ele>
        <time>2024-03-20T09:56:21.000Z</time>
      </trkpt>
      <trkpt lat="43.50868" lon="5.28894">
        <ele>250.4</ele>
        <time>2024-03-20T09:56:24.000Z</time>
      </trkpt>
      <trkpt lat="43.50867" lon="5.28897">
        <ele>250.5</ele>
        <time>2024-03-20T09:56:26.000Z</time>
      </trkpt>
      <trkpt lat="43.50868" lon="5.28901">
        <ele>250.7</ele>
        <time>2024-03-20T09:56:28.000Z</time>
      </trkpt>
      <trkpt lat="43.50868" lon="5.28904">
        <ele>250.8</ele>
        <time>2024-03-20T09:56:30.000Z</time>
      </trkpt>
      <trkpt lat="43.50869" lon="5.28908">
        <ele>251</ele>
        <time>2024-03-20T09:56:33.000Z</time>
      </trkpt>
      <trkpt lat="43.50868" lon="5.2891">
        <ele>251</ele>
        <time>2024-03-20T09:56:42.000Z</time>
      </trkpt>
      <trkpt lat="43.50866" lon="5.28913">
        <ele>251</ele>
        <time>2024-03-20T09:56:44.000Z</time>
      </trkpt>
      <trkpt lat="43.50865" lon="5.28915">
        <ele>251.1</ele>
        <time>2024-03-20T09:56:46.000Z</time>
      </trkpt>
      <trkpt lat="43.50864" lon="5.28917">
        <ele>251.1</ele>
        <time>2024-03-20T09:56:48.000Z</time>
      </trkpt>
      <trkpt lat="43.50863" lon="5.2892">
        <ele>251.1</ele>
        <time>2024-03-20T09:56:50.000Z</time>
      </trkpt>
      <trkpt lat="43.50862" lon="5.28924">
        <ele>251</ele>
        <time>2024-03-20T09:56:53.000Z</time>
      </trkpt>
      <trkpt lat="43.50861" lon="5.28927">
        <ele>251</ele>
        <time>2024-03-20T09:56:55.000Z</time>
      </trkpt>
      <trkpt lat="43.5086" lon="5.28929">
        <ele>250.9</ele>
        <time>2024-03-20T09:56:57.000Z</time>
      </trkpt>
      <trkpt lat="43.50859" lon="5.28932">
        <ele>250.9</ele>
        <time>2024-03-20T09:56:59.000Z</time>
      </trkpt>
      <trkpt lat="43.50859" lon="5.28935">
        <ele>250.8</ele>
        <time>2024-03-20T09:57:02.000Z</time>
      </trkpt>
      <trkpt lat="43.50859" lon="5.28937">
        <ele>250.9</ele>
        <time>2024-03-20T09:57:05.000Z</time>
      </trkpt>
      <trkpt lat="43.50858" lon="5.2894">
        <ele>250.8</ele>
        <time>2024-03-20T09:57:11.000Z</time>
      </trkpt>
      <trkpt lat="43.50857" lon="5.28942">
        <ele>250.7</ele>
        <time>2024-03-20T09:57:13.000Z</time>
      </trkpt>
      <trkpt lat="43.50856" lon="5.28945">
        <ele>250.6</ele>
        <time>2024-03-20T09:57:15.000Z</time>
      </trkpt>
      <trkpt lat="43.50855" lon="5.28947">
        <ele>250.6</ele>
        <time>2024-03-20T09:57:17.000Z</time>
      </trkpt>
      <trkpt lat="43.50855" lon="5.28951">
        <ele>250.5</ele>
        <time>2024-03-20T09:57:20.000Z</time>
      </trkpt>
      <trkpt lat="43.50854" lon="5.28953">
        <ele>250.5</ele>
        <time>2024-03-20T09:57:22.000Z</time>
      </trkpt>
      <trkpt lat="43.50853" lon="5.28955">
        <ele>250.4</ele>
        <time>2024-03-20T09:57:25.000Z</time>
      </trkpt>
      <trkpt lat="43.50853" lon="5.28958">
        <ele>250.4</ele>
        <time>2024-03-20T09:57:29.000Z</time>
      </trkpt>
      <trkpt lat="43.50851" lon="5.2896">
        <ele>250.3</ele>
        <time>2024-03-20T09:57:32.000Z</time>
      </trkpt>
      <trkpt lat="43.5085" lon="5.28963">
        <ele>250.2</ele>
        <time>2024-03-20T09:57:35.000Z</time>
      </trkpt>
      <trkpt lat="43.50848" lon="5.28966">
        <ele>250.1</ele>
        <time>2024-03-20T09:57:37.000Z</time>
      </trkpt>
      <trkpt lat="43.50848" lon="5.28969">
        <ele>250</ele>
        <time>2024-03-20T09:57:39.000Z</time>
      </trkpt>
      <trkpt lat="43.50846" lon="5.28972">
        <ele>249.9</ele>
        <time>2024-03-20T09:57:42.000Z</time>
      </trkpt>
      <trkpt lat="43.50845" lon="5.28974">
        <ele>249.8</ele>
        <time>2024-03-20T09:57:44.000Z</time>
      </trkpt>
      <trkpt lat="43.50844" lon="5.28977">
        <ele>249.7</ele>
        <time>2024-03-20T09:57:46.000Z</time>
      </trkpt>
      <trkpt lat="43.50842" lon="5.2898">
        <ele>249.6</ele>
        <time>2024-03-20T09:57:48.000Z</time>
      </trkpt>
      <trkpt lat="43.50841" lon="5.28984">
        <ele>249.5</ele>
        <time>2024-03-20T09:57:51.000Z</time>
      </trkpt>
      <trkpt lat="43.5084" lon="5.28987">
        <ele>249.5</ele>
        <time>2024-03-20T09:57:53.000Z</time>
      </trkpt>
      <trkpt lat="43.50839" lon="5.2899">
        <ele>249.4</ele>
        <time>2024-03-20T09:57:55.000Z</time>
      </trkpt>
      <trkpt lat="43.50837" lon="5.28992">
        <ele>249.3</ele>
        <time>2024-03-20T09:57:57.000Z</time>
      </trkpt>
      <trkpt lat="43.50835" lon="5.28995">
        <ele>249.1</ele>
        <time>2024-03-20T09:58:00.000Z</time>
      </trkpt>
      <trkpt lat="43.50834" lon="5.28998">
        <ele>249</ele>
        <time>2024-03-20T09:58:02.000Z</time>
      </trkpt>
      <trkpt lat="43.50832" lon="5.28999">
        <ele>248.9</ele>
        <time>2024-03-20T09:58:04.000Z</time>
      </trkpt>
      <trkpt lat="43.50831" lon="5.29001">
        <ele>248.8</ele>
        <time>2024-03-20T09:58:06.000Z</time>
      </trkpt>
      <trkpt lat="43.50829" lon="5.29004">
        <ele>248.7</ele>
        <time>2024-03-20T09:58:08.000Z</time>
      </trkpt>
      <trkpt lat="43.50827" lon="5.29006">
        <ele>248.6</ele>
        <time>2024-03-20T09:58:10.000Z</time>
      </trkpt>
      <trkpt lat="43.50826" lon="5.29008">
        <ele>248.5</ele>
        <time>2024-03-20T09:58:12.000Z</time>
      </trkpt>
      <trkpt lat="43.50824" lon="5.2901">
        <ele>248.3</ele>
        <time>2024-03-20T09:58:15.000Z</time>
      </trkpt>
      <trkpt lat="43.50823" lon="5.29013">
        <ele>248.3</ele>
        <time>2024-03-20T09:58:17.000Z</time>
      </trkpt>
      <trkpt lat="43.50822" lon="5.29016">
        <ele>248.1</ele>
        <time>2024-03-20T09:58:19.000Z</time>
      </trkpt>
      <trkpt lat="43.5082" lon="5.29018">
        <ele>248.1</ele>
        <time>2024-03-20T09:58:21.000Z</time>
      </trkpt>
      <trkpt lat="43.50818" lon="5.29021">
        <ele>247.9</ele>
        <time>2024-03-20T09:58:23.000Z</time>
      </trkpt>
      <trkpt lat="43.50818" lon="5.29023">
        <ele>247.9</ele>
        <time>2024-03-20T09:58:25.000Z</time>
      </trkpt>
      <trkpt lat="43.50817" lon="5.29026">
        <ele>247.8</ele>
        <time>2024-03-20T09:58:27.000Z</time>
      </trkpt>
      <trkpt lat="43.50814" lon="5.29029">
        <ele>247.6</ele>
        <time>2024-03-20T09:58:30.000Z</time>
      </trkpt>
      <trkpt lat="43.50813" lon="5.29032">
        <ele>247.5</ele>
        <time>2024-03-20T09:58:32.000Z</time>
      </trkpt>
      <trkpt lat="43.50812" lon="5.29034">
        <ele>247.4</ele>
        <time>2024-03-20T09:58:34.000Z</time>
      </trkpt>
      <trkpt lat="43.5081" lon="5.29036">
        <ele>247.3</ele>
        <time>2024-03-20T09:58:36.000Z</time>
      </trkpt>
      <trkpt lat="43.50809" lon="5.29038">
        <ele>247.2</ele>
        <time>2024-03-20T09:58:38.000Z</time>
      </trkpt>
      <trkpt lat="43.50807" lon="5.2904">
        <ele>247.1</ele>
        <time>2024-03-20T09:58:40.000Z</time>
      </trkpt>
      <trkpt lat="43.50806" lon="5.29043">
        <ele>247</ele>
        <time>2024-03-20T09:58:43.000Z</time>
      </trkpt>
      <trkpt lat="43.50804" lon="5.29045">
        <ele>246.9</ele>
        <time>2024-03-20T09:58:45.000Z</time>
      </trkpt>
      <trkpt lat="43.50803" lon="5.29047">
        <ele>246.9</ele>
        <time>2024-03-20T09:58:47.000Z</time>
      </trkpt>
      <trkpt lat="43.50802" lon="5.2905">
        <ele>246.8</ele>
        <time>2024-03-20T09:58:49.000Z</time>
      </trkpt>
      <trkpt lat="43.50801" lon="5.29053">
        <ele>246.7</ele>
        <time>2024-03-20T09:58:51.000Z</time>
      </trkpt>
      <trkpt lat="43.508" lon="5.29055">
        <ele>246.6</ele>
        <time>2024-03-20T09:58:53.000Z</time>
      </trkpt>
      <trkpt lat="43.508" lon="5.29058">
        <ele>246.6</ele>
        <time>2024-03-20T09:58:55.000Z</time>
      </trkpt>
      <trkpt lat="43.50798" lon="5.29061">
        <ele>246.4</ele>
        <time>2024-03-20T09:58:58.000Z</time>
      </trkpt>
      <trkpt lat="43.50796" lon="5.29064">
        <ele>246.3</ele>
        <time>2024-03-20T09:59:01.000Z</time>
      </trkpt>
      <trkpt lat="43.50795" lon="5.29067">
        <ele>246.3</ele>
        <time>2024-03-20T09:59:03.000Z</time>
      </trkpt>
      <trkpt lat="43.50795" lon="5.2907">
        <ele>246.2</ele>
        <time>2024-03-20T09:59:05.000Z</time>
      </trkpt>
      <trkpt lat="43.50794" lon="5.29072">
        <ele>246.2</ele>
        <time>2024-03-20T09:59:07.000Z</time>
      </trkpt>
      <trkpt lat="43.50794" lon="5.29075">
        <ele>246.1</ele>
        <time>2024-03-20T09:59:09.000Z</time>
      </trkpt>
      <trkpt lat="43.50793" lon="5.29078">
        <ele>246.1</ele>
        <time>2024-03-20T09:59:11.000Z</time>
      </trkpt>
      <trkpt lat="43.50793" lon="5.29081">
        <ele>246.1</ele>
        <time>2024-03-20T09:59:13.000Z</time>
      </trkpt>
      <trkpt lat="43.50792" lon="5.29086">
        <ele>245.8</ele>
        <time>2024-03-20T09:59:17.000Z</time>
      </trkpt>
      <trkpt lat="43.50791" lon="5.29089">
        <ele>245.6</ele>
        <time>2024-03-20T09:59:19.000Z</time>
      </trkpt>
      <trkpt lat="43.50791" lon="5.29092">
        <ele>245.3</ele>
        <time>2024-03-20T09:59:22.000Z</time>
      </trkpt>
      <trkpt lat="43.5079" lon="5.29095">
        <ele>245.1</ele>
        <time>2024-03-20T09:59:24.000Z</time>
      </trkpt>
      <trkpt lat="43.5079" lon="5.29098">
        <ele>244.8</ele>
        <time>2024-03-20T09:59:26.000Z</time>
      </trkpt>
      <trkpt lat="43.5079" lon="5.291">
        <ele>244.6</ele>
        <time>2024-03-20T09:59:28.000Z</time>
      </trkpt>
      <trkpt lat="43.5079" lon="5.29104">
        <ele>244.3</ele>
        <time>2024-03-20T09:59:31.000Z</time>
      </trkpt>
      <trkpt lat="43.5079" lon="5.29108">
        <ele>244.1</ele>
        <time>2024-03-20T09:59:33.000Z</time>
      </trkpt>
      <trkpt lat="43.5079" lon="5.29111">
        <ele>243.9</ele>
        <time>2024-03-20T09:59:36.000Z</time>
      </trkpt>
      <trkpt lat="43.50789" lon="5.29114">
        <ele>243.7</ele>
        <time>2024-03-20T09:59:38.000Z</time>
      </trkpt>
      <trkpt lat="43.50789" lon="5.29117">
        <ele>243.6</ele>
        <time>2024-03-20T09:59:40.000Z</time>
      </trkpt>
      <trkpt lat="43.50789" lon="5.2912">
        <ele>243.5</ele>
        <time>2024-03-20T09:59:42.000Z</time>
      </trkpt>
      <trkpt lat="43.50789" lon="5.29123">
        <ele>243.4</ele>
        <time>2024-03-20T09:59:44.000Z</time>
      </trkpt>
      <trkpt lat="43.50789" lon="5.29126">
        <ele>243.3</ele>
        <time>2024-03-20T09:59:46.000Z</time>
      </trkpt>
      <trkpt lat="43.50789" lon="5.29129">
        <ele>243.2</ele>
        <time>2024-03-20T09:59:48.000Z</time>
      </trkpt>
      <trkpt lat="43.5079" lon="5.29132">
        <ele>243.1</ele>
        <time>2024-03-20T09:59:50.000Z</time>
      </trkpt>
      <trkpt lat="43.5079" lon="5.29136">
        <ele>243</ele>
        <time>2024-03-20T09:59:52.000Z</time>
      </trkpt>
      <trkpt lat="43.5079" lon="5.29139">
        <ele>242.9</ele>
        <time>2024-03-20T09:59:54.000Z</time>
      </trkpt>
      <trkpt lat="43.50789" lon="5.29142">
        <ele>242.8</ele>
        <time>2024-03-20T09:59:57.000Z</time>
      </trkpt>
      <trkpt lat="43.50789" lon="5.29146">
        <ele>242.8</ele>
        <time>2024-03-20T09:59:59.000Z</time>
      </trkpt>
      <trkpt lat="43.50789" lon="5.29149">
        <ele>242.8</ele>
        <time>2024-03-20T10:00:01.000Z</time>
      </trkpt>
      <trkpt lat="43.50789" lon="5.29152">
        <ele>242.8</ele>
        <time>2024-03-20T10:00:03.000Z</time>
      </trkpt>
      <trkpt lat="43.50788" lon="5.29155">
        <ele>242.8</ele>
        <time>2024-03-20T10:00:05.000Z</time>
      </trkpt>
      <trkpt lat="43.50788" lon="5.29158">
        <ele>242.8</ele>
        <time>2024-03-20T10:00:07.000Z</time>
      </trkpt>
      <trkpt lat="43.50788" lon="5.29161">
        <ele>242.8</ele>
        <time>2024-03-20T10:00:09.000Z</time>
      </trkpt>
      <trkpt lat="43.50788" lon="5.29166">
        <ele>242.7</ele>
        <time>2024-03-20T10:00:12.000Z</time>
      </trkpt>
      <trkpt lat="43.50788" lon="5.2917">
        <ele>242.7</ele>
        <time>2024-03-20T10:00:14.000Z</time>
      </trkpt>
      <trkpt lat="43.50788" lon="5.29172">
        <ele>242.7</ele>
        <time>2024-03-20T10:00:16.000Z</time>
      </trkpt>
      <trkpt lat="43.50788" lon="5.29176">
        <ele>242.7</ele>
        <time>2024-03-20T10:00:18.000Z</time>
      </trkpt>
      <trkpt lat="43.50788" lon="5.29179">
        <ele>242.7</ele>
        <time>2024-03-20T10:00:20.000Z</time>
      </trkpt>
      <trkpt lat="43.50788" lon="5.29182">
        <ele>242.7</ele>
        <time>2024-03-20T10:00:22.000Z</time>
      </trkpt>
      <trkpt lat="43.50787" lon="5.29184">
        <ele>242.7</ele>
        <time>2024-03-20T10:00:24.000Z</time>
      </trkpt>
      <trkpt lat="43.50787" lon="5.29189">
        <ele>242.7</ele>
        <time>2024-03-20T10:00:27.000Z</time>
      </trkpt>
      <trkpt lat="43.50787" lon="5.29193">
        <ele>242.7</ele>
        <time>2024-03-20T10:00:29.000Z</time>
      </trkpt>
      <trkpt lat="43.50787" lon="5.29196">
        <ele>242.7</ele>
        <time>2024-03-20T10:00:31.000Z</time>
      </trkpt>
      <trkpt lat="43.50787" lon="5.29199">
        <ele>242.7</ele>
        <time>2024-03-20T10:00:33.000Z</time>
      </trkpt>
      <trkpt lat="43.50787" lon="5.29202">
        <ele>242.7</ele>
        <time>2024-03-20T10:00:35.000Z</time>
      </trkpt>
      <trkpt lat="43.50788" lon="5.29205">
        <ele>242.7</ele>
        <time>2024-03-20T10:00:37.000Z</time>
      </trkpt>
      <trkpt lat="43.50788" lon="5.29208">
        <ele>242.7</ele>
        <time>2024-03-20T10:00:39.000Z</time>
      </trkpt>
      <trkpt lat="43.50787" lon="5.2921">
        <ele>242.7</ele>
        <time>2024-03-20T10:00:41.000Z</time>
      </trkpt>
      <trkpt lat="43.50787" lon="5.29213">
        <ele>242.7</ele>
        <time>2024-03-20T10:00:43.000Z</time>
      </trkpt>
      <trkpt lat="43.50788" lon="5.29217">
        <ele>242.7</ele>
        <time>2024-03-20T10:00:45.000Z</time>
      </trkpt>
      <trkpt lat="43.50788" lon="5.2922">
        <ele>242.8</ele>
        <time>2024-03-20T10:00:47.000Z</time>
      </trkpt>
      <trkpt lat="43.50789" lon="5.29223">
        <ele>242.8</ele>
        <time>2024-03-20T10:00:49.000Z</time>
      </trkpt>
      <trkpt lat="43.50789" lon="5.29227">
        <ele>242.7</ele>
        <time>2024-03-20T10:00:51.000Z</time>
      </trkpt>
      <trkpt lat="43.50789" lon="5.2923">
        <ele>242.7</ele>
        <time>2024-03-20T10:00:53.000Z</time>
      </trkpt>
      <trkpt lat="43.50789" lon="5.29233">
        <ele>242.6</ele>
        <time>2024-03-20T10:00:56.000Z</time>
      </trkpt>
      <trkpt lat="43.50788" lon="5.29236">
        <ele>242.6</ele>
        <time>2024-03-20T10:00:58.000Z</time>
      </trkpt>
      <trkpt lat="43.50788" lon="5.2924">
        <ele>242.5</ele>
        <time>2024-03-20T10:01:01.000Z</time>
      </trkpt>
      <trkpt lat="43.50789" lon="5.29243">
        <ele>242.5</ele>
        <time>2024-03-20T10:01:03.000Z</time>
      </trkpt>
      <trkpt lat="43.50789" lon="5.29246">
        <ele>242.4</ele>
        <time>2024-03-20T10:01:05.000Z</time>
      </trkpt>
      <trkpt lat="43.50789" lon="5.2925">
        <ele>242.4</ele>
        <time>2024-03-20T10:01:07.000Z</time>
      </trkpt>
      <trkpt lat="43.50788" lon="5.29253">
        <ele>242.4</ele>
        <time>2024-03-20T10:01:09.000Z</time>
      </trkpt>
      <trkpt lat="43.50788" lon="5.29256">
        <ele>242.4</ele>
        <time>2024-03-20T10:01:12.000Z</time>
      </trkpt>
      <trkpt lat="43.50788" lon="5.29259">
        <ele>242.4</ele>
        <time>2024-03-20T10:01:14.000Z</time>
      </trkpt>
      <trkpt lat="43.50788" lon="5.29262">
        <ele>242.4</ele>
        <time>2024-03-20T10:01:16.000Z</time>
      </trkpt>
      <trkpt lat="43.50788" lon="5.29265">
        <ele>242.4</ele>
        <time>2024-03-20T10:01:18.000Z</time>
      </trkpt>
      <trkpt lat="43.50788" lon="5.29268">
        <ele>242.4</ele>
        <time>2024-03-20T10:01:20.000Z</time>
      </trkpt>
      <trkpt lat="43.50787" lon="5.29271">
        <ele>242.3</ele>
        <time>2024-03-20T10:01:22.000Z</time>
      </trkpt>
      <trkpt lat="43.50788" lon="5.29274">
        <ele>242.3</ele>
        <time>2024-03-20T10:01:24.000Z</time>
      </trkpt>
      <trkpt lat="43.50788" lon="5.29277">
        <ele>242.4</ele>
        <time>2024-03-20T10:01:26.000Z</time>
      </trkpt>
      <trkpt lat="43.50787" lon="5.2928">
        <ele>242.3</ele>
        <time>2024-03-20T10:01:28.000Z</time>
      </trkpt>
      <trkpt lat="43.50788" lon="5.29284">
        <ele>242.2</ele>
        <time>2024-03-20T10:01:31.000Z</time>
      </trkpt>
      <trkpt lat="43.50788" lon="5.29287">
        <ele>242</ele>
        <time>2024-03-20T10:01:34.000Z</time>
      </trkpt>
      <trkpt lat="43.50789" lon="5.2929">
        <ele>242</ele>
        <time>2024-03-20T10:01:36.000Z</time>
      </trkpt>
      <trkpt lat="43.5079" lon="5.29292">
        <ele>241.9</ele>
        <time>2024-03-20T10:01:39.000Z</time>
      </trkpt>
      <trkpt lat="43.50791" lon="5.29294">
        <ele>241.9</ele>
        <time>2024-03-20T10:01:41.000Z</time>
      </trkpt>
      <trkpt lat="43.50791" lon="5.29297">
        <ele>241.8</ele>
        <time>2024-03-20T10:01:43.000Z</time>
      </trkpt>
      <trkpt lat="43.50792" lon="5.293">
        <ele>241.7</ele>
        <time>2024-03-20T10:01:45.000Z</time>
      </trkpt>
      <trkpt lat="43.50793" lon="5.29302">
        <ele>241.7</ele>
        <time>2024-03-20T10:01:47.000Z</time>
      </trkpt>
      <trkpt lat="43.50794" lon="5.29306">
        <ele>241.6</ele>
        <time>2024-03-20T10:01:50.000Z</time>
      </trkpt>
      <trkpt lat="43.50796" lon="5.29308">
        <ele>241.5</ele>
        <time>2024-03-20T10:01:52.000Z</time>
      </trkpt>
      <trkpt lat="43.50796" lon="5.29311">
        <ele>241.4</ele>
        <time>2024-03-20T10:01:55.000Z</time>
      </trkpt>
      <trkpt lat="43.50796" lon="5.29314">
        <ele>241.2</ele>
        <time>2024-03-20T10:01:57.000Z</time>
      </trkpt>
      <trkpt lat="43.50797" lon="5.29317">
        <ele>241.1</ele>
        <time>2024-03-20T10:01:59.000Z</time>
      </trkpt>
      <trkpt lat="43.50798" lon="5.29321">
        <ele>240.9</ele>
        <time>2024-03-20T10:02:02.000Z</time>
      </trkpt>
      <trkpt lat="43.50799" lon="5.29323">
        <ele>240.8</ele>
        <time>2024-03-20T10:02:04.000Z</time>
      </trkpt>
      <trkpt lat="43.50799" lon="5.29326">
        <ele>240.6</ele>
        <time>2024-03-20T10:02:06.000Z</time>
      </trkpt>
      <trkpt lat="43.508" lon="5.2933">
        <ele>240.4</ele>
        <time>2024-03-20T10:02:09.000Z</time>
      </trkpt>
      <trkpt lat="43.50801" lon="5.29333">
        <ele>240.2</ele>
        <time>2024-03-20T10:02:11.000Z</time>
      </trkpt>
      <trkpt lat="43.50801" lon="5.29336">
        <ele>240.1</ele>
        <time>2024-03-20T10:02:13.000Z</time>
      </trkpt>
      <trkpt lat="43.50802" lon="5.29338">
        <ele>239.9</ele>
        <time>2024-03-20T10:02:15.000Z</time>
      </trkpt>
      <trkpt lat="43.50802" lon="5.29341">
        <ele>239.8</ele>
        <time>2024-03-20T10:02:17.000Z</time>
      </trkpt>
      <trkpt lat="43.50803" lon="5.29344">
        <ele>239.7</ele>
        <time>2024-03-20T10:02:20.000Z</time>
      </trkpt>
      <trkpt lat="43.50804" lon="5.29348">
        <ele>239.5</ele>
        <time>2024-03-20T10:02:23.000Z</time>
      </trkpt>
      <trkpt lat="43.50805" lon="5.2935">
        <ele>239.4</ele>
        <time>2024-03-20T10:02:25.000Z</time>
      </trkpt>
      <trkpt lat="43.50805" lon="5.29353">
        <ele>239.3</ele>
        <time>2024-03-20T10:02:28.000Z</time>
      </trkpt>
      <trkpt lat="43.50806" lon="5.29356">
        <ele>239.2</ele>
        <time>2024-03-20T10:02:30.000Z</time>
      </trkpt>
      <trkpt lat="43.50807" lon="5.29359">
        <ele>239</ele>
        <time>2024-03-20T10:02:32.000Z</time>
      </trkpt>
      <trkpt lat="43.50808" lon="5.29362">
        <ele>238.8</ele>
        <time>2024-03-20T10:02:35.000Z</time>
      </trkpt>
      <trkpt lat="43.50809" lon="5.29365">
        <ele>238.9</ele>
        <time>2024-03-20T10:02:37.000Z</time>
      </trkpt>
      <trkpt lat="43.50809" lon="5.29368">
        <ele>238.9</ele>
        <time>2024-03-20T10:02:39.000Z</time>
      </trkpt>
      <trkpt lat="43.50811" lon="5.29371">
        <ele>238.9</ele>
        <time>2024-03-20T10:02:41.000Z</time>
      </trkpt>
      <trkpt lat="43.50812" lon="5.29373">
        <ele>238.8</ele>
        <time>2024-03-20T10:02:43.000Z</time>
      </trkpt>
      <trkpt lat="43.50814" lon="5.29376">
        <ele>238.8</ele>
        <time>2024-03-20T10:02:46.000Z</time>
      </trkpt>
      <trkpt lat="43.50815" lon="5.29379">
        <ele>238.8</ele>
        <time>2024-03-20T10:02:48.000Z</time>
      </trkpt>
      <trkpt lat="43.50816" lon="5.29381">
        <ele>238.9</ele>
        <time>2024-03-20T10:02:50.000Z</time>
      </trkpt>
      <trkpt lat="43.50818" lon="5.29384">
        <ele>238.9</ele>
        <time>2024-03-20T10:02:53.000Z</time>
      </trkpt>
      <trkpt lat="43.50819" lon="5.29387">
        <ele>239</ele>
        <time>2024-03-20T10:02:55.000Z</time>
      </trkpt>
      <trkpt lat="43.5082" lon="5.29389">
        <ele>239</ele>
        <time>2024-03-20T10:02:57.000Z</time>
      </trkpt>
      <trkpt lat="43.50821" lon="5.29392">
        <ele>239</ele>
        <time>2024-03-20T10:03:00.000Z</time>
      </trkpt>
      <trkpt lat="43.50822" lon="5.29395">
        <ele>238.9</ele>
        <time>2024-03-20T10:03:02.000Z</time>
      </trkpt>
      <trkpt lat="43.50823" lon="5.29398">
        <ele>239</ele>
        <time>2024-03-20T10:03:04.000Z</time>
      </trkpt>
      <trkpt lat="43.50823" lon="5.294">
        <ele>239</ele>
        <time>2024-03-20T10:03:06.000Z</time>
      </trkpt>
      <trkpt lat="43.50825" lon="5.29404">
        <ele>239</ele>
        <time>2024-03-20T10:03:08.000Z</time>
      </trkpt>
      <trkpt lat="43.50826" lon="5.29406">
        <ele>239</ele>
        <time>2024-03-20T10:03:10.000Z</time>
      </trkpt>
      <trkpt lat="43.50827" lon="5.29409">
        <ele>239</ele>
        <time>2024-03-20T10:03:12.000Z</time>
      </trkpt>
      <trkpt lat="43.50828" lon="5.29412">
        <ele>239.1</ele>
        <time>2024-03-20T10:03:14.000Z</time>
      </trkpt>
      <trkpt lat="43.50828" lon="5.29415">
        <ele>239.1</ele>
        <time>2024-03-20T10:03:16.000Z</time>
      </trkpt>
      <trkpt lat="43.50829" lon="5.29418">
        <ele>239.1</ele>
        <time>2024-03-20T10:03:18.000Z</time>
      </trkpt>
      <trkpt lat="43.50829" lon="5.29421">
        <ele>239</ele>
        <time>2024-03-20T10:03:20.000Z</time>
      </trkpt>
      <trkpt lat="43.5083" lon="5.29423">
        <ele>238.9</ele>
        <time>2024-03-20T10:03:22.000Z</time>
      </trkpt>
      <trkpt lat="43.5083" lon="5.29427">
        <ele>238.8</ele>
        <time>2024-03-20T10:03:24.000Z</time>
      </trkpt>
      <trkpt lat="43.50832" lon="5.2943">
        <ele>238.6</ele>
        <time>2024-03-20T10:03:26.000Z</time>
      </trkpt>
      <trkpt lat="43.50833" lon="5.29432">
        <ele>238.5</ele>
        <time>2024-03-20T10:03:28.000Z</time>
      </trkpt>
      <trkpt lat="43.50833" lon="5.29436">
        <ele>238.3</ele>
        <time>2024-03-20T10:03:31.000Z</time>
      </trkpt>
      <trkpt lat="43.50834" lon="5.29439">
        <ele>238.2</ele>
        <time>2024-03-20T10:03:33.000Z</time>
      </trkpt>
      <trkpt lat="43.50834" lon="5.29442">
        <ele>238.1</ele>
        <time>2024-03-20T10:03:35.000Z</time>
      </trkpt>
      <trkpt lat="43.50835" lon="5.29445">
        <ele>237.9</ele>
        <time>2024-03-20T10:03:38.000Z</time>
      </trkpt>
      <trkpt lat="43.50835" lon="5.29448">
        <ele>237.8</ele>
        <time>2024-03-20T10:03:40.000Z</time>
      </trkpt>
      <trkpt lat="43.50836" lon="5.29451">
        <ele>237.7</ele>
        <time>2024-03-20T10:03:42.000Z</time>
      </trkpt>
      <trkpt lat="43.50836" lon="5.29454">
        <ele>237.6</ele>
        <time>2024-03-20T10:03:44.000Z</time>
      </trkpt>
      <trkpt lat="43.50836" lon="5.29457">
        <ele>237.4</ele>
        <time>2024-03-20T10:03:46.000Z</time>
      </trkpt>
      <trkpt lat="43.50837" lon="5.2946">
        <ele>237.3</ele>
        <time>2024-03-20T10:03:48.000Z</time>
      </trkpt>
      <trkpt lat="43.50838" lon="5.29464">
        <ele>237.2</ele>
        <time>2024-03-20T10:03:50.000Z</time>
      </trkpt>
      <trkpt lat="43.50838" lon="5.29467">
        <ele>237</ele>
        <time>2024-03-20T10:03:52.000Z</time>
      </trkpt>
      <trkpt lat="43.50839" lon="5.2947">
        <ele>236.9</ele>
        <time>2024-03-20T10:03:54.000Z</time>
      </trkpt>
      <trkpt lat="43.5084" lon="5.29472">
        <ele>236.8</ele>
        <time>2024-03-20T10:03:56.000Z</time>
      </trkpt>
      <trkpt lat="43.50841" lon="5.29476">
        <ele>236.6</ele>
        <time>2024-03-20T10:03:59.000Z</time>
      </trkpt>
      <trkpt lat="43.50842" lon="5.29479">
        <ele>236.5</ele>
        <time>2024-03-20T10:04:01.000Z</time>
      </trkpt>
      <trkpt lat="43.50843" lon="5.29483">
        <ele>236.3</ele>
        <time>2024-03-20T10:04:04.000Z</time>
      </trkpt>
      <trkpt lat="43.50844" lon="5.29485">
        <ele>236.1</ele>
        <time>2024-03-20T10:04:06.000Z</time>
      </trkpt>
      <trkpt lat="43.50845" lon="5.29487">
        <ele>236</ele>
        <time>2024-03-20T10:04:08.000Z</time>
      </trkpt>
      <trkpt lat="43.50846" lon="5.29491">
        <ele>235.9</ele>
        <time>2024-03-20T10:04:11.000Z</time>
      </trkpt>
      <trkpt lat="43.50847" lon="5.29493">
        <ele>235.7</ele>
        <time>2024-03-20T10:04:13.000Z</time>
      </trkpt>
      <trkpt lat="43.50849" lon="5.29497">
        <ele>235.5</ele>
        <time>2024-03-20T10:04:16.000Z</time>
      </trkpt>
      <trkpt lat="43.5085" lon="5.295">
        <ele>235.4</ele>
        <time>2024-03-20T10:04:18.000Z</time>
      </trkpt>
      <trkpt lat="43.50851" lon="5.29503">
        <ele>235.3</ele>
        <time>2024-03-20T10:04:20.000Z</time>
      </trkpt>
      <trkpt lat="43.50853" lon="5.29505">
        <ele>235.1</ele>
        <time>2024-03-20T10:04:22.000Z</time>
      </trkpt>
      <trkpt lat="43.50854" lon="5.29508">
        <ele>235</ele>
        <time>2024-03-20T10:04:24.000Z</time>
      </trkpt>
      <trkpt lat="43.50855" lon="5.29511">
        <ele>234.8</ele>
        <time>2024-03-20T10:04:26.000Z</time>
      </trkpt>
      <trkpt lat="43.50857" lon="5.29515">
        <ele>234.6</ele>
        <time>2024-03-20T10:04:29.000Z</time>
      </trkpt>
      <trkpt lat="43.50857" lon="5.29518">
        <ele>234.5</ele>
        <time>2024-03-20T10:04:31.000Z</time>
      </trkpt>
      <trkpt lat="43.50858" lon="5.29521">
        <ele>234.4</ele>
        <time>2024-03-20T10:04:34.000Z</time>
      </trkpt>
      <trkpt lat="43.50858" lon="5.29524">
        <ele>234.2</ele>
        <time>2024-03-20T10:04:36.000Z</time>
      </trkpt>
      <trkpt lat="43.50859" lon="5.29528">
        <ele>234.1</ele>
        <time>2024-03-20T10:04:38.000Z</time>
      </trkpt>
      <trkpt lat="43.50859" lon="5.29531">
        <ele>234</ele>
        <time>2024-03-20T10:04:40.000Z</time>
      </trkpt>
      <trkpt lat="43.5086" lon="5.29533">
        <ele>233.9</ele>
        <time>2024-03-20T10:04:42.000Z</time>
      </trkpt>
      <trkpt lat="43.5086" lon="5.29536">
        <ele>233.7</ele>
        <time>2024-03-20T10:04:44.000Z</time>
      </trkpt>
      <trkpt lat="43.50861" lon="5.2954">
        <ele>233.6</ele>
        <time>2024-03-20T10:04:47.000Z</time>
      </trkpt>
      <trkpt lat="43.50862" lon="5.29543">
        <ele>233.5</ele>
        <time>2024-03-20T10:04:49.000Z</time>
      </trkpt>
      <trkpt lat="43.50862" lon="5.29546">
        <ele>233.3</ele>
        <time>2024-03-20T10:04:51.000Z</time>
      </trkpt>
      <trkpt lat="43.50863" lon="5.29549">
        <ele>233.2</ele>
        <time>2024-03-20T10:04:53.000Z</time>
      </trkpt>
      <trkpt lat="43.50863" lon="5.29551">
        <ele>233.1</ele>
        <time>2024-03-20T10:04:55.000Z</time>
      </trkpt>
      <trkpt lat="43.50864" lon="5.29554">
        <ele>233</ele>
        <time>2024-03-20T10:04:57.000Z</time>
      </trkpt>
      <trkpt lat="43.50866" lon="5.29557">
        <ele>232.9</ele>
        <time>2024-03-20T10:04:59.000Z</time>
      </trkpt>
      <trkpt lat="43.50868" lon="5.2956">
        <ele>232.8</ele>
        <time>2024-03-20T10:05:01.000Z</time>
      </trkpt>
      <trkpt lat="43.5087" lon="5.29562">
        <ele>232.7</ele>
        <time>2024-03-20T10:05:04.000Z</time>
      </trkpt>
      <trkpt lat="43.50872" lon="5.29567">
        <ele>232.4</ele>
        <time>2024-03-20T10:05:08.000Z</time>
      </trkpt>
      <trkpt lat="43.50874" lon="5.29569">
        <ele>232.3</ele>
        <time>2024-03-20T10:05:10.000Z</time>
      </trkpt>
      <trkpt lat="43.50875" lon="5.29572">
        <ele>232.1</ele>
        <time>2024-03-20T10:05:13.000Z</time>
      </trkpt>
      <trkpt lat="43.50877" lon="5.29574">
        <ele>231.9</ele>
        <time>2024-03-20T10:05:15.000Z</time>
      </trkpt>
      <trkpt lat="43.50878" lon="5.29578">
        <ele>231.7</ele>
        <time>2024-03-20T10:05:18.000Z</time>
      </trkpt>
      <trkpt lat="43.50877" lon="5.29581">
        <ele>231.5</ele>
        <time>2024-03-20T10:05:20.000Z</time>
      </trkpt>
      <trkpt lat="43.50878" lon="5.29585">
        <ele>231.3</ele>
        <time>2024-03-20T10:05:23.000Z</time>
      </trkpt>
      <trkpt lat="43.50878" lon="5.29588">
        <ele>231.2</ele>
        <time>2024-03-20T10:05:25.000Z</time>
      </trkpt>
      <trkpt lat="43.50878" lon="5.29591">
        <ele>231</ele>
        <time>2024-03-20T10:05:28.000Z</time>
      </trkpt>
      <trkpt lat="43.50878" lon="5.29594">
        <ele>230.9</ele>
        <time>2024-03-20T10:05:30.000Z</time>
      </trkpt>
      <trkpt lat="43.50877" lon="5.29598">
        <ele>230.7</ele>
        <time>2024-03-20T10:05:33.000Z</time>
      </trkpt>
      <trkpt lat="43.50877" lon="5.29601">
        <ele>230.5</ele>
        <time>2024-03-20T10:05:35.000Z</time>
      </trkpt>
      <trkpt lat="43.50877" lon="5.29604">
        <ele>230.4</ele>
        <time>2024-03-20T10:05:37.000Z</time>
      </trkpt>
      <trkpt lat="43.50876" lon="5.29607">
        <ele>230.2</ele>
        <time>2024-03-20T10:05:40.000Z</time>
      </trkpt>
      <trkpt lat="43.50876" lon="5.2961">
        <ele>230</ele>
        <time>2024-03-20T10:05:42.000Z</time>
      </trkpt>
      <trkpt lat="43.50876" lon="5.29613">
        <ele>229.9</ele>
        <time>2024-03-20T10:05:44.000Z</time>
      </trkpt>
      <trkpt lat="43.50876" lon="5.29617">
        <ele>229.8</ele>
        <time>2024-03-20T10:05:47.000Z</time>
      </trkpt>
      <trkpt lat="43.50877" lon="5.2962">
        <ele>229.6</ele>
        <time>2024-03-20T10:05:49.000Z</time>
      </trkpt>
      <trkpt lat="43.50876" lon="5.29623">
        <ele>229.5</ele>
        <time>2024-03-20T10:05:51.000Z</time>
      </trkpt>
      <trkpt lat="43.50877" lon="5.29626">
        <ele>229.4</ele>
        <time>2024-03-20T10:05:53.000Z</time>
      </trkpt>
      <trkpt lat="43.50878" lon="5.29629">
        <ele>229.2</ele>
        <time>2024-03-20T10:05:55.000Z</time>
      </trkpt>
      <trkpt lat="43.50878" lon="5.29631">
        <ele>229.1</ele>
        <time>2024-03-20T10:05:57.000Z</time>
      </trkpt>
      <trkpt lat="43.5088" lon="5.29635">
        <ele>228.9</ele>
        <time>2024-03-20T10:06:00.000Z</time>
      </trkpt>
      <trkpt lat="43.50881" lon="5.29638">
        <ele>228.6</ele>
        <time>2024-03-20T10:06:02.000Z</time>
      </trkpt>
      <trkpt lat="43.50883" lon="5.29641">
        <ele>228.4</ele>
        <time>2024-03-20T10:06:05.000Z</time>
      </trkpt>
      <trkpt lat="43.50884" lon="5.29643">
        <ele>228.3</ele>
        <time>2024-03-20T10:06:07.000Z</time>
      </trkpt>
      <trkpt lat="43.50885" lon="5.29646">
        <ele>228.1</ele>
        <time>2024-03-20T10:06:09.000Z</time>
      </trkpt>
      <trkpt lat="43.50886" lon="5.29649">
        <ele>227.9</ele>
        <time>2024-03-20T10:06:11.000Z</time>
      </trkpt>
      <trkpt lat="43.50887" lon="5.29651">
        <ele>227.7</ele>
        <time>2024-03-20T10:06:13.000Z</time>
      </trkpt>
      <trkpt lat="43.50887" lon="5.29654">
        <ele>227.6</ele>
        <time>2024-03-20T10:06:15.000Z</time>
      </trkpt>
      <trkpt lat="43.50888" lon="5.29657">
        <ele>227.4</ele>
        <time>2024-03-20T10:06:17.000Z</time>
      </trkpt>
      <trkpt lat="43.50889" lon="5.29661">
        <ele>227.2</ele>
        <time>2024-03-20T10:06:19.000Z</time>
      </trkpt>
      <trkpt lat="43.50889" lon="5.29664">
        <ele>227.1</ele>
        <time>2024-03-20T10:06:21.000Z</time>
      </trkpt>
      <trkpt lat="43.50889" lon="5.29667">
        <ele>227</ele>
        <time>2024-03-20T10:06:24.000Z</time>
      </trkpt>
      <trkpt lat="43.5089" lon="5.2967">
        <ele>226.9</ele>
        <time>2024-03-20T10:06:26.000Z</time>
      </trkpt>
      <trkpt lat="43.50891" lon="5.29672">
        <ele>226.8</ele>
        <time>2024-03-20T10:06:28.000Z</time>
      </trkpt>
      <trkpt lat="43.50892" lon="5.29675">
        <ele>226.8</ele>
        <time>2024-03-20T10:06:30.000Z</time>
      </trkpt>
      <trkpt lat="43.50892" lon="5.29678">
        <ele>226.6</ele>
        <time>2024-03-20T10:06:33.000Z</time>
      </trkpt>
      <trkpt lat="43.50893" lon="5.29681">
        <ele>226.5</ele>
        <time>2024-03-20T10:06:35.000Z</time>
      </trkpt>
      <trkpt lat="43.50894" lon="5.29684">
        <ele>226.3</ele>
        <time>2024-03-20T10:06:37.000Z</time>
      </trkpt>
      <trkpt lat="43.50895" lon="5.29687">
        <ele>226.2</ele>
        <time>2024-03-20T10:06:39.000Z</time>
      </trkpt>
      <trkpt lat="43.50896" lon="5.2969">
        <ele>226</ele>
        <time>2024-03-20T10:06:42.000Z</time>
      </trkpt>
      <trkpt lat="43.50897" lon="5.29693">
        <ele>225.8</ele>
        <time>2024-03-20T10:06:44.000Z</time>
      </trkpt>
      <trkpt lat="43.50898" lon="5.29695">
        <ele>225.7</ele>
        <time>2024-03-20T10:06:46.000Z</time>
      </trkpt>
      <trkpt lat="43.50899" lon="5.29699">
        <ele>225.6</ele>
        <time>2024-03-20T10:06:49.000Z</time>
      </trkpt>
      <trkpt lat="43.509" lon="5.29701">
        <ele>225.5</ele>
        <time>2024-03-20T10:06:51.000Z</time>
      </trkpt>
      <trkpt lat="43.50901" lon="5.29705">
        <ele>225.3</ele>
        <time>2024-03-20T10:06:54.000Z</time>
      </trkpt>
      <trkpt lat="43.50901" lon="5.29707">
        <ele>225.2</ele>
        <time>2024-03-20T10:06:56.000Z</time>
      </trkpt>
      <trkpt lat="43.50902" lon="5.2971">
        <ele>225</ele>
        <time>2024-03-20T10:06:58.000Z</time>
      </trkpt>
      <trkpt lat="43.50903" lon="5.29713">
        <ele>224.9</ele>
        <time>2024-03-20T10:07:00.000Z</time>
      </trkpt>
      <trkpt lat="43.50904" lon="5.29716">
        <ele>224.5</ele>
        <time>2024-03-20T10:07:02.000Z</time>
      </trkpt>
      <trkpt lat="43.50905" lon="5.29719">
        <ele>224.3</ele>
        <time>2024-03-20T10:07:04.000Z</time>
      </trkpt>
      <trkpt lat="43.50905" lon="5.29721">
        <ele>224.1</ele>
        <time>2024-03-20T10:07:06.000Z</time>
      </trkpt>
      <trkpt lat="43.50906" lon="5.29725">
        <ele>223.9</ele>
        <time>2024-03-20T10:07:08.000Z</time>
      </trkpt>
      <trkpt lat="43.50906" lon="5.29727">
        <ele>223.7</ele>
        <time>2024-03-20T10:07:10.000Z</time>
      </trkpt>
      <trkpt lat="43.50907" lon="5.29729">
        <ele>223.4</ele>
        <time>2024-03-20T10:07:12.000Z</time>
      </trkpt>
      <trkpt lat="43.50907" lon="5.29732">
        <ele>223.2</ele>
        <time>2024-03-20T10:07:14.000Z</time>
      </trkpt>
      <trkpt lat="43.50908" lon="5.29735">
        <ele>222.9</ele>
        <time>2024-03-20T10:07:17.000Z</time>
      </trkpt>
      <trkpt lat="43.5091" lon="5.29739">
        <ele>222.4</ele>
        <time>2024-03-20T10:07:20.000Z</time>
      </trkpt>
      <trkpt lat="43.5091" lon="5.29742">
        <ele>222.1</ele>
        <time>2024-03-20T10:07:22.000Z</time>
      </trkpt>
      <trkpt lat="43.50911" lon="5.29744">
        <ele>221.8</ele>
        <time>2024-03-20T10:07:24.000Z</time>
      </trkpt>
      <trkpt lat="43.50912" lon="5.29747">
        <ele>221.4</ele>
        <time>2024-03-20T10:07:26.000Z</time>
      </trkpt>
      <trkpt lat="43.50913" lon="5.29751">
        <ele>221</ele>
        <time>2024-03-20T10:07:30.000Z</time>
      </trkpt>
      <trkpt lat="43.50913" lon="5.29754">
        <ele>220.6</ele>
        <time>2024-03-20T10:07:32.000Z</time>
      </trkpt>
      <trkpt lat="43.50913" lon="5.29757">
        <ele>220.4</ele>
        <time>2024-03-20T10:07:34.000Z</time>
      </trkpt>
      <trkpt lat="43.50914" lon="5.2976">
        <ele>219.9</ele>
        <time>2024-03-20T10:07:36.000Z</time>
      </trkpt>
      <trkpt lat="43.50915" lon="5.29763">
        <ele>219.6</ele>
        <time>2024-03-20T10:07:39.000Z</time>
      </trkpt>
      <trkpt lat="43.50915" lon="5.29765">
        <ele>219.4</ele>
        <time>2024-03-20T10:07:41.000Z</time>
      </trkpt>
      <trkpt lat="43.50916" lon="5.29769">
        <ele>218.9</ele>
        <time>2024-03-20T10:07:44.000Z</time>
      </trkpt>
      <trkpt lat="43.50916" lon="5.29772">
        <ele>218.6</ele>
        <time>2024-03-20T10:07:46.000Z</time>
      </trkpt>
      <trkpt lat="43.50917" lon="5.29775">
        <ele>218.3</ele>
        <time>2024-03-20T10:07:49.000Z</time>
      </trkpt>
      <trkpt lat="43.50917" lon="5.29778">
        <ele>218.1</ele>
        <time>2024-03-20T10:07:52.000Z</time>
      </trkpt>
      <trkpt lat="43.50917" lon="5.29781">
        <ele>217.8</ele>
        <time>2024-03-20T10:07:54.000Z</time>
      </trkpt>
      <trkpt lat="43.50917" lon="5.29784">
        <ele>217.4</ele>
        <time>2024-03-20T10:07:56.000Z</time>
      </trkpt>
      <trkpt lat="43.50917" lon="5.29786">
        <ele>217.1</ele>
        <time>2024-03-20T10:07:58.000Z</time>
      </trkpt>
      <trkpt lat="43.50916" lon="5.2979">
        <ele>216.8</ele>
        <time>2024-03-20T10:08:01.000Z</time>
      </trkpt>
      <trkpt lat="43.50916" lon="5.29793">
        <ele>216.4</ele>
        <time>2024-03-20T10:08:04.000Z</time>
      </trkpt>
      <trkpt lat="43.50916" lon="5.29796">
        <ele>216.2</ele>
        <time>2024-03-20T10:08:06.000Z</time>
      </trkpt>
      <trkpt lat="43.50916" lon="5.29799">
        <ele>216</ele>
        <time>2024-03-20T10:08:08.000Z</time>
      </trkpt>
      <trkpt lat="43.50916" lon="5.29802">
        <ele>215.7</ele>
        <time>2024-03-20T10:08:11.000Z</time>
      </trkpt>
      <trkpt lat="43.50916" lon="5.29806">
        <ele>215.3</ele>
        <time>2024-03-20T10:08:14.000Z</time>
      </trkpt>
      <trkpt lat="43.50916" lon="5.29808">
        <ele>215</ele>
        <time>2024-03-20T10:08:16.000Z</time>
      </trkpt>
      <trkpt lat="43.50916" lon="5.29811">
        <ele>214.7</ele>
        <time>2024-03-20T10:08:18.000Z</time>
      </trkpt>
      <trkpt lat="43.50915" lon="5.29814">
        <ele>214.7</ele>
        <time>2024-03-20T10:08:20.000Z</time>
      </trkpt>
      <trkpt lat="43.50914" lon="5.29817">
        <ele>214.6</ele>
        <time>2024-03-20T10:08:23.000Z</time>
      </trkpt>
      <trkpt lat="43.50914" lon="5.2982">
        <ele>214.4</ele>
        <time>2024-03-20T10:08:25.000Z</time>
      </trkpt>
      <trkpt lat="43.50915" lon="5.29823">
        <ele>213.8</ele>
        <time>2024-03-20T10:08:28.000Z</time>
      </trkpt>
      <trkpt lat="43.50915" lon="5.29826">
        <ele>213.3</ele>
        <time>2024-03-20T10:08:31.000Z</time>
      </trkpt>
      <trkpt lat="43.50916" lon="5.29829">
        <ele>212.7</ele>
        <time>2024-03-20T10:08:33.000Z</time>
      </trkpt>
      <trkpt lat="43.50917" lon="5.29833">
        <ele>212.1</ele>
        <time>2024-03-20T10:08:36.000Z</time>
      </trkpt>
      <trkpt lat="43.50918" lon="5.29836">
        <ele>212.1</ele>
        <time>2024-03-20T10:08:39.000Z</time>
      </trkpt>
      <trkpt lat="43.50919" lon="5.29839">
        <ele>212.1</ele>
        <time>2024-03-20T10:08:41.000Z</time>
      </trkpt>
      <trkpt lat="43.5092" lon="5.29841">
        <ele>212.1</ele>
        <time>2024-03-20T10:08:43.000Z</time>
      </trkpt>
      <trkpt lat="43.5092" lon="5.29844">
        <ele>212</ele>
        <time>2024-03-20T10:08:45.000Z</time>
      </trkpt>
      <trkpt lat="43.50921" lon="5.29847">
        <ele>211.9</ele>
        <time>2024-03-20T10:08:47.000Z</time>
      </trkpt>
      <trkpt lat="43.50922" lon="5.29849">
        <ele>211.7</ele>
        <time>2024-03-20T10:08:49.000Z</time>
      </trkpt>
      <trkpt lat="43.50923" lon="5.2985">
        <ele>211.5</ele>
        <time>2024-03-20T10:08:51.000Z</time>
      </trkpt>
      <trkpt lat="43.50924" lon="5.29854">
        <ele>211.2</ele>
        <time>2024-03-20T10:08:54.000Z</time>
      </trkpt>
      <trkpt lat="43.50926" lon="5.29856">
        <ele>210.8</ele>
        <time>2024-03-20T10:08:57.000Z</time>
      </trkpt>
      <trkpt lat="43.50927" lon="5.29858">
        <ele>210.5</ele>
        <time>2024-03-20T10:08:59.000Z</time>
      </trkpt>
      <trkpt lat="43.50928" lon="5.29861">
        <ele>210</ele>
        <time>2024-03-20T10:09:01.000Z</time>
      </trkpt>
      <trkpt lat="43.50929" lon="5.29863">
        <ele>209.6</ele>
        <time>2024-03-20T10:09:03.000Z</time>
      </trkpt>
      <trkpt lat="43.50931" lon="5.29865">
        <ele>209.1</ele>
        <time>2024-03-20T10:09:05.000Z</time>
      </trkpt>
      <trkpt lat="43.50932" lon="5.29868">
        <ele>208.4</ele>
        <time>2024-03-20T10:09:08.000Z</time>
      </trkpt>
      <trkpt lat="43.50933" lon="5.2987">
        <ele>208</ele>
        <time>2024-03-20T10:09:10.000Z</time>
      </trkpt>
      <trkpt lat="43.50934" lon="5.29873">
        <ele>207.4</ele>
        <time>2024-03-20T10:09:12.000Z</time>
      </trkpt>
      <trkpt lat="43.50935" lon="5.29875">
        <ele>206.6</ele>
        <time>2024-03-20T10:09:15.000Z</time>
      </trkpt>
      <trkpt lat="43.50936" lon="5.29878">
        <ele>205.8</ele>
        <time>2024-03-20T10:09:18.000Z</time>
      </trkpt>
      <trkpt lat="43.50938" lon="5.29881">
        <ele>204.7</ele>
        <time>2024-03-20T10:09:21.000Z</time>
      </trkpt>
      <trkpt lat="43.50939" lon="5.29885">
        <ele>203.4</ele>
        <time>2024-03-20T10:09:24.000Z</time>
      </trkpt>
      <trkpt lat="43.5094" lon="5.29887">
        <ele>202.4</ele>
        <time>2024-03-20T10:09:26.000Z</time>
      </trkpt>
      <trkpt lat="43.50941" lon="5.29889">
        <ele>201.6</ele>
        <time>2024-03-20T10:09:29.000Z</time>
      </trkpt>
      <trkpt lat="43.50942" lon="5.29892">
        <ele>201</ele>
        <time>2024-03-20T10:09:32.000Z</time>
      </trkpt>
      <trkpt lat="43.50942" lon="5.29895">
        <ele>200.9</ele>
        <time>2024-03-20T10:09:34.000Z</time>
      </trkpt>
      <trkpt lat="43.50943" lon="5.29898">
        <ele>200.6</ele>
        <time>2024-03-20T10:09:36.000Z</time>
      </trkpt>
      <trkpt lat="43.50942" lon="5.29901">
        <ele>200.7</ele>
        <time>2024-03-20T10:09:38.000Z</time>
      </trkpt>
      <trkpt lat="43.50942" lon="5.29903">
        <ele>200.7</ele>
        <time>2024-03-20T10:09:40.000Z</time>
      </trkpt>
      <trkpt lat="43.50942" lon="5.29906">
        <ele>200.6</ele>
        <time>2024-03-20T10:09:42.000Z</time>
      </trkpt>
      <trkpt lat="43.50943" lon="5.2991">
        <ele>200</ele>
        <time>2024-03-20T10:09:45.000Z</time>
      </trkpt>
      <trkpt lat="43.50943" lon="5.29913">
        <ele>199.9</ele>
        <time>2024-03-20T10:09:48.000Z</time>
      </trkpt>
      <trkpt lat="43.50943" lon="5.29916">
        <ele>199.9</ele>
        <time>2024-03-20T10:09:51.000Z</time>
      </trkpt>
      <trkpt lat="43.50943" lon="5.29919">
        <ele>199.4</ele>
        <time>2024-03-20T10:09:53.000Z</time>
      </trkpt>
      <trkpt lat="43.50943" lon="5.29922">
        <ele>199.2</ele>
        <time>2024-03-20T10:09:56.000Z</time>
      </trkpt>
      <trkpt lat="43.50943" lon="5.29925">
        <ele>199.3</ele>
        <time>2024-03-20T10:10:00.000Z</time>
      </trkpt>
      <trkpt lat="43.50942" lon="5.29927">
        <ele>199.6</ele>
        <time>2024-03-20T10:10:02.000Z</time>
      </trkpt>
      <trkpt lat="43.50942" lon="5.2993">
        <ele>199.5</ele>
        <time>2024-03-20T10:10:04.000Z</time>
      </trkpt>
      <trkpt lat="43.50942" lon="5.29935">
        <ele>198.7</ele>
        <time>2024-03-20T10:10:08.000Z</time>
      </trkpt>
      <trkpt lat="43.50941" lon="5.29938">
        <ele>199</ele>
        <time>2024-03-20T10:10:11.000Z</time>
      </trkpt>
      <trkpt lat="43.50941" lon="5.2994">
        <ele>198.8</ele>
        <time>2024-03-20T10:10:13.000Z</time>
      </trkpt>
      <trkpt lat="43.50941" lon="5.29944">
        <ele>198.9</ele>
        <time>2024-03-20T10:10:16.000Z</time>
      </trkpt>
      <trkpt lat="43.5094" lon="5.29947">
        <ele>198.8</ele>
        <time>2024-03-20T10:10:19.000Z</time>
      </trkpt>
      <trkpt lat="43.50939" lon="5.2995">
        <ele>198.9</ele>
        <time>2024-03-20T10:10:21.000Z</time>
      </trkpt>
      <trkpt lat="43.50938" lon="5.29953">
        <ele>198.8</ele>
        <time>2024-03-20T10:10:24.000Z</time>
      </trkpt>
      <trkpt lat="43.50938" lon="5.29957">
        <ele>198.7</ele>
        <time>2024-03-20T10:10:27.000Z</time>
      </trkpt>
      <trkpt lat="43.50937" lon="5.2996">
        <ele>198.5</ele>
        <time>2024-03-20T10:10:29.000Z</time>
      </trkpt>
      <trkpt lat="43.50937" lon="5.29965">
        <ele>198</ele>
        <time>2024-03-20T10:10:32.000Z</time>
      </trkpt>
      <trkpt lat="43.50936" lon="5.29968">
        <ele>197.9</ele>
        <time>2024-03-20T10:10:34.000Z</time>
      </trkpt>
      <trkpt lat="43.50935" lon="5.29972">
        <ele>197.8</ele>
        <time>2024-03-20T10:10:37.000Z</time>
      </trkpt>
      <trkpt lat="43.50934" lon="5.29975">
        <ele>197.9</ele>
        <time>2024-03-20T10:10:39.000Z</time>
      </trkpt>
      <trkpt lat="43.50934" lon="5.29979">
        <ele>197.4</ele>
        <time>2024-03-20T10:10:42.000Z</time>
      </trkpt>
      <trkpt lat="43.50933" lon="5.29982">
        <ele>197</ele>
        <time>2024-03-20T10:10:44.000Z</time>
      </trkpt>
      <trkpt lat="43.50932" lon="5.29985">
        <ele>197.1</ele>
        <time>2024-03-20T10:10:47.000Z</time>
      </trkpt>
      <trkpt lat="43.50931" lon="5.29988">
        <ele>196.7</ele>
        <time>2024-03-20T10:10:49.000Z</time>
      </trkpt>
      <trkpt lat="43.50931" lon="5.29991">
        <ele>196.3</ele>
        <time>2024-03-20T10:10:51.000Z</time>
      </trkpt>
      <trkpt lat="43.50929" lon="5.29994">
        <ele>196.4</ele>
        <time>2024-03-20T10:10:53.000Z</time>
      </trkpt>
      <trkpt lat="43.50928" lon="5.29998">
        <ele>196.2</ele>
        <time>2024-03-20T10:10:56.000Z</time>
      </trkpt>
      <trkpt lat="43.50927" lon="5.30001">
        <ele>196</ele>
        <time>2024-03-20T10:10:58.000Z</time>
      </trkpt>
      <trkpt lat="43.50927" lon="5.30004">
        <ele>195.7</ele>
        <time>2024-03-20T10:11:00.000Z</time>
      </trkpt>
      <trkpt lat="43.50927" lon="5.30008">
        <ele>195.6</ele>
        <time>2024-03-20T10:11:03.000Z</time>
      </trkpt>
      <trkpt lat="43.50926" lon="5.30011">
        <ele>195.7</ele>
        <time>2024-03-20T10:11:05.000Z</time>
      </trkpt>
      <trkpt lat="43.50926" lon="5.30013">
        <ele>195.7</ele>
        <time>2024-03-20T10:11:07.000Z</time>
      </trkpt>
      <trkpt lat="43.50923" lon="5.30016">
        <ele>196.1</ele>
        <time>2024-03-20T10:11:10.000Z</time>
      </trkpt>
      <trkpt lat="43.50923" lon="5.30019">
        <ele>196</ele>
        <time>2024-03-20T10:11:12.000Z</time>
      </trkpt>
      <trkpt lat="43.50922" lon="5.30021">
        <ele>196.1</ele>
        <time>2024-03-20T10:11:14.000Z</time>
      </trkpt>
      <trkpt lat="43.50921" lon="5.30023">
        <ele>196.1</ele>
        <time>2024-03-20T10:11:16.000Z</time>
      </trkpt>
      <trkpt lat="43.5092" lon="5.30026">
        <ele>196.2</ele>
        <time>2024-03-20T10:11:18.000Z</time>
      </trkpt>
      <trkpt lat="43.50919" lon="5.30029">
        <ele>196.3</ele>
        <time>2024-03-20T10:11:20.000Z</time>
      </trkpt>
      <trkpt lat="43.50918" lon="5.30033">
        <ele>196.3</ele>
        <time>2024-03-20T10:11:22.000Z</time>
      </trkpt>
      <trkpt lat="43.50916" lon="5.30037">
        <ele>196.3</ele>
        <time>2024-03-20T10:11:25.000Z</time>
      </trkpt>
      <trkpt lat="43.50915" lon="5.3004">
        <ele>196.3</ele>
        <time>2024-03-20T10:11:28.000Z</time>
      </trkpt>
      <trkpt lat="43.50914" lon="5.30042">
        <ele>196.6</ele>
        <time>2024-03-20T10:11:30.000Z</time>
      </trkpt>
      <trkpt lat="43.50912" lon="5.30045">
        <ele>196.7</ele>
        <time>2024-03-20T10:11:33.000Z</time>
      </trkpt>
      <trkpt lat="43.50912" lon="5.30048">
        <ele>196.6</ele>
        <time>2024-03-20T10:11:35.000Z</time>
      </trkpt>
      <trkpt lat="43.5091" lon="5.3005">
        <ele>196.7</ele>
        <time>2024-03-20T10:11:37.000Z</time>
      </trkpt>
      <trkpt lat="43.50908" lon="5.30053">
        <ele>197</ele>
        <time>2024-03-20T10:11:39.000Z</time>
      </trkpt>
      <trkpt lat="43.50907" lon="5.30056">
        <ele>197.1</ele>
        <time>2024-03-20T10:11:41.000Z</time>
      </trkpt>
      <trkpt lat="43.50906" lon="5.30059">
        <ele>197.1</ele>
        <time>2024-03-20T10:11:43.000Z</time>
      </trkpt>
      <trkpt lat="43.50905" lon="5.30062">
        <ele>197.2</ele>
        <time>2024-03-20T10:11:46.000Z</time>
      </trkpt>
      <trkpt lat="43.50904" lon="5.30064">
        <ele>197.2</ele>
        <time>2024-03-20T10:11:48.000Z</time>
      </trkpt>
      <trkpt lat="43.50902" lon="5.30067">
        <ele>197.3</ele>
        <time>2024-03-20T10:11:51.000Z</time>
      </trkpt>
      <trkpt lat="43.50901" lon="5.3007">
        <ele>197</ele>
        <time>2024-03-20T10:11:53.000Z</time>
      </trkpt>
      <trkpt lat="43.50901" lon="5.30073">
        <ele>196.6</ele>
        <time>2024-03-20T10:11:55.000Z</time>
      </trkpt>
      <trkpt lat="43.50902" lon="5.30076">
        <ele>196</ele>
        <time>2024-03-20T10:11:58.000Z</time>
      </trkpt>
      <trkpt lat="43.50904" lon="5.30075">
        <ele>195.9</ele>
        <time>2024-03-20T10:13:25.000Z</time>
      </trkpt>
      <trkpt lat="43.50906" lon="5.30072">
        <ele>195.8</ele>
        <time>2024-03-20T10:13:32.000Z</time>
      </trkpt>
      <trkpt lat="43.50904" lon="5.30071">
        <ele>196.4</ele>
        <time>2024-03-20T10:14:04.000Z</time>
      </trkpt>
      <trkpt lat="43.50903" lon="5.30073">
        <ele>196.2</ele>
        <time>2024-03-20T10:14:28.000Z</time>
      </trkpt>
      <trkpt lat="43.50904" lon="5.30077">
        <ele>195.6</ele>
        <time>2024-03-20T10:14:58.000Z</time>
      </trkpt>
      <trkpt lat="43.50905" lon="5.30079">
        <ele>195.1</ele>
        <time>2024-03-20T10:15:00.000Z</time>
      </trkpt>
      <trkpt lat="43.50906" lon="5.30082">
        <ele>194.7</ele>
        <time>2024-03-20T10:15:04.000Z</time>
      </trkpt>
      <trkpt lat="43.50907" lon="5.30085">
        <ele>194.3</ele>
        <time>2024-03-20T10:15:06.000Z</time>
      </trkpt>
      <trkpt lat="43.50909" lon="5.30087">
        <ele>193.7</ele>
        <time>2024-03-20T10:15:09.000Z</time>
      </trkpt>
      <trkpt lat="43.50912" lon="5.30088">
        <ele>193.1</ele>
        <time>2024-03-20T10:15:15.000Z</time>
      </trkpt>
      <trkpt lat="43.50914" lon="5.30089">
        <ele>192.7</ele>
        <time>2024-03-20T10:15:17.000Z</time>
      </trkpt>
      <trkpt lat="43.50916" lon="5.30091">
        <ele>192.2</ele>
        <time>2024-03-20T10:15:20.000Z</time>
      </trkpt>
      <trkpt lat="43.50919" lon="5.30092">
        <ele>191.9</ele>
        <time>2024-03-20T10:15:23.000Z</time>
      </trkpt>
      <trkpt lat="43.50921" lon="5.30094">
        <ele>191.6</ele>
        <time>2024-03-20T10:15:25.000Z</time>
      </trkpt>
      <trkpt lat="43.50922" lon="5.30095">
        <ele>191.3</ele>
        <time>2024-03-20T10:15:27.000Z</time>
      </trkpt>
      <trkpt lat="43.50924" lon="5.30097">
        <ele>191.2</ele>
        <time>2024-03-20T10:15:29.000Z</time>
      </trkpt>
      <trkpt lat="43.50926" lon="5.30099">
        <ele>190.9</ele>
        <time>2024-03-20T10:15:32.000Z</time>
      </trkpt>
      <trkpt lat="43.50928" lon="5.30099">
        <ele>190.7</ele>
        <time>2024-03-20T10:15:35.000Z</time>
      </trkpt>
      <trkpt lat="43.50929" lon="5.30102">
        <ele>190.5</ele>
        <time>2024-03-20T10:15:37.000Z</time>
      </trkpt>
      <trkpt lat="43.50931" lon="5.30104">
        <ele>190.4</ele>
        <time>2024-03-20T10:15:39.000Z</time>
      </trkpt>
      <trkpt lat="43.50933" lon="5.30105">
        <ele>190.3</ele>
        <time>2024-03-20T10:15:41.000Z</time>
      </trkpt>
      <trkpt lat="43.50935" lon="5.30107">
        <ele>190.2</ele>
        <time>2024-03-20T10:15:43.000Z</time>
      </trkpt>
      <trkpt lat="43.50937" lon="5.30108">
        <ele>190.1</ele>
        <time>2024-03-20T10:15:45.000Z</time>
      </trkpt>
      <trkpt lat="43.50939" lon="5.30109">
        <ele>190</ele>
        <time>2024-03-20T10:15:47.000Z</time>
      </trkpt>
      <trkpt lat="43.50941" lon="5.30111">
        <ele>190</ele>
        <time>2024-03-20T10:15:49.000Z</time>
      </trkpt>
      <trkpt lat="43.50943" lon="5.30111">
        <ele>190</ele>
        <time>2024-03-20T10:15:51.000Z</time>
      </trkpt>
      <trkpt lat="43.50945" lon="5.30113">
        <ele>190.1</ele>
        <time>2024-03-20T10:15:53.000Z</time>
      </trkpt>
      <trkpt lat="43.50947" lon="5.30115">
        <ele>190.3</ele>
        <time>2024-03-20T10:15:56.000Z</time>
      </trkpt>
      <trkpt lat="43.50948" lon="5.30117">
        <ele>190.5</ele>
        <time>2024-03-20T10:15:59.000Z</time>
      </trkpt>
      <trkpt lat="43.50949" lon="5.3012">
        <ele>190.6</ele>
        <time>2024-03-20T10:16:01.000Z</time>
      </trkpt>
      <trkpt lat="43.50948" lon="5.30123">
        <ele>190.4</ele>
        <time>2024-03-20T10:16:04.000Z</time>
      </trkpt>
      <trkpt lat="43.50947" lon="5.30126">
        <ele>190.3</ele>
        <time>2024-03-20T10:16:07.000Z</time>
      </trkpt>
      <trkpt lat="43.50945" lon="5.30128">
        <ele>190.1</ele>
        <time>2024-03-20T10:16:09.000Z</time>
      </trkpt>
      <trkpt lat="43.50944" lon="5.3013">
        <ele>190</ele>
        <time>2024-03-20T10:16:11.000Z</time>
      </trkpt>
      <trkpt lat="43.50943" lon="5.30133">
        <ele>189.9</ele>
        <time>2024-03-20T10:16:14.000Z</time>
      </trkpt>
      <trkpt lat="43.50942" lon="5.30135">
        <ele>189.8</ele>
        <time>2024-03-20T10:16:18.000Z</time>
      </trkpt>
      <trkpt lat="43.5094" lon="5.30137">
        <ele>189.7</ele>
        <time>2024-03-20T10:16:21.000Z</time>
      </trkpt>
      <trkpt lat="43.50938" lon="5.30139">
        <ele>189.5</ele>
        <time>2024-03-20T10:16:24.000Z</time>
      </trkpt>
      <trkpt lat="43.50937" lon="5.30141">
        <ele>189.5</ele>
        <time>2024-03-20T10:16:26.000Z</time>
      </trkpt>
      <trkpt lat="43.50935" lon="5.30143">
        <ele>189.4</ele>
        <time>2024-03-20T10:16:28.000Z</time>
      </trkpt>
      <trkpt lat="43.50933" lon="5.30145">
        <ele>189.3</ele>
        <time>2024-03-20T10:16:31.000Z</time>
      </trkpt>
      <trkpt lat="43.50932" lon="5.30146">
        <ele>189.1</ele>
        <time>2024-03-20T10:16:35.000Z</time>
      </trkpt>
      <trkpt lat="43.5093" lon="5.30149">
        <ele>189</ele>
        <time>2024-03-20T10:16:37.000Z</time>
      </trkpt>
      <trkpt lat="43.50929" lon="5.30152">
        <ele>188.8</ele>
        <time>2024-03-20T10:16:39.000Z</time>
      </trkpt>
      <trkpt lat="43.50927" lon="5.30153">
        <ele>188.5</ele>
        <time>2024-03-20T10:16:41.000Z</time>
      </trkpt>
      <trkpt lat="43.50926" lon="5.30155">
        <ele>188.3</ele>
        <time>2024-03-20T10:16:43.000Z</time>
      </trkpt>
      <trkpt lat="43.50923" lon="5.30157">
        <ele>187.7</ele>
        <time>2024-03-20T10:16:48.000Z</time>
      </trkpt>
      <trkpt lat="43.50921" lon="5.30161">
        <ele>187.3</ele>
        <time>2024-03-20T10:16:50.000Z</time>
      </trkpt>
      <trkpt lat="43.5092" lon="5.30165">
        <ele>186.8</ele>
        <time>2024-03-20T10:16:53.000Z</time>
      </trkpt>
      <trkpt lat="43.50918" lon="5.30167">
        <ele>186.4</ele>
        <time>2024-03-20T10:16:56.000Z</time>
      </trkpt>
      <trkpt lat="43.50918" lon="5.30169">
        <ele>186.2</ele>
        <time>2024-03-20T10:16:58.000Z</time>
      </trkpt>
      <trkpt lat="43.50917" lon="5.30172">
        <ele>186</ele>
        <time>2024-03-20T10:17:00.000Z</time>
      </trkpt>
      <trkpt lat="43.50915" lon="5.30175">
        <ele>185.9</ele>
        <time>2024-03-20T10:17:02.000Z</time>
      </trkpt>
      <trkpt lat="43.50914" lon="5.30177">
        <ele>185.8</ele>
        <time>2024-03-20T10:17:05.000Z</time>
      </trkpt>
      <trkpt lat="43.50912" lon="5.30179">
        <ele>185.6</ele>
        <time>2024-03-20T10:17:07.000Z</time>
      </trkpt>
      <trkpt lat="43.5091" lon="5.30182">
        <ele>185.4</ele>
        <time>2024-03-20T10:17:10.000Z</time>
      </trkpt>
      <trkpt lat="43.50909" lon="5.30183">
        <ele>185.2</ele>
        <time>2024-03-20T10:17:12.000Z</time>
      </trkpt>
      <trkpt lat="43.50907" lon="5.30186">
        <ele>185</ele>
        <time>2024-03-20T10:17:15.000Z</time>
      </trkpt>
      <trkpt lat="43.50906" lon="5.30188">
        <ele>184.7</ele>
        <time>2024-03-20T10:17:17.000Z</time>
      </trkpt>
      <trkpt lat="43.50905" lon="5.3019">
        <ele>184.5</ele>
        <time>2024-03-20T10:17:19.000Z</time>
      </trkpt>
      <trkpt lat="43.50904" lon="5.30194">
        <ele>184.1</ele>
        <time>2024-03-20T10:17:21.000Z</time>
      </trkpt>
      <trkpt lat="43.50902" lon="5.30196">
        <ele>183.8</ele>
        <time>2024-03-20T10:17:23.000Z</time>
      </trkpt>
      <trkpt lat="43.50901" lon="5.302">
        <ele>183.5</ele>
        <time>2024-03-20T10:17:26.000Z</time>
      </trkpt>
      <trkpt lat="43.50901" lon="5.30203">
        <ele>183.3</ele>
        <time>2024-03-20T10:17:28.000Z</time>
      </trkpt>
      <trkpt lat="43.50899" lon="5.30205">
        <ele>182.9</ele>
        <time>2024-03-20T10:17:30.000Z</time>
      </trkpt>
      <trkpt lat="43.50898" lon="5.30207">
        <ele>182.5</ele>
        <time>2024-03-20T10:17:33.000Z</time>
      </trkpt>
      <trkpt lat="43.50896" lon="5.30209">
        <ele>182.1</ele>
        <time>2024-03-20T10:17:35.000Z</time>
      </trkpt>
      <trkpt lat="43.50895" lon="5.30211">
        <ele>181.7</ele>
        <time>2024-03-20T10:17:38.000Z</time>
      </trkpt>
      <trkpt lat="43.50894" lon="5.30214">
        <ele>181.2</ele>
        <time>2024-03-20T10:17:40.000Z</time>
      </trkpt>
      <trkpt lat="43.50893" lon="5.30217">
        <ele>180.5</ele>
        <time>2024-03-20T10:17:42.000Z</time>
      </trkpt>
      <trkpt lat="43.50892" lon="5.30221">
        <ele>180</ele>
        <time>2024-03-20T10:17:44.000Z</time>
      </trkpt>
      <trkpt lat="43.50891" lon="5.30224">
        <ele>179.7</ele>
        <time>2024-03-20T10:17:46.000Z</time>
      </trkpt>
      <trkpt lat="43.5089" lon="5.30227">
        <ele>179.6</ele>
        <time>2024-03-20T10:17:49.000Z</time>
      </trkpt>
      <trkpt lat="43.50889" lon="5.3023">
        <ele>179.5</ele>
        <time>2024-03-20T10:17:51.000Z</time>
      </trkpt>
      <trkpt lat="43.50888" lon="5.30233">
        <ele>179.7</ele>
        <time>2024-03-20T10:17:53.000Z</time>
      </trkpt>
      <trkpt lat="43.50887" lon="5.30235">
        <ele>179.7</ele>
        <time>2024-03-20T10:17:55.000Z</time>
      </trkpt>
      <trkpt lat="43.50885" lon="5.30237">
        <ele>179.7</ele>
        <time>2024-03-20T10:17:57.000Z</time>
      </trkpt>
      <trkpt lat="43.50885" lon="5.3024">
        <ele>179.8</ele>
        <time>2024-03-20T10:17:59.000Z</time>
      </trkpt>
      <trkpt lat="43.50884" lon="5.30242">
        <ele>179.8</ele>
        <time>2024-03-20T10:18:02.000Z</time>
      </trkpt>
      <trkpt lat="43.50882" lon="5.30245">
        <ele>179.6</ele>
        <time>2024-03-20T10:18:04.000Z</time>
      </trkpt>
      <trkpt lat="43.50881" lon="5.30248">
        <ele>179.5</ele>
        <time>2024-03-20T10:18:07.000Z</time>
      </trkpt>
      <trkpt lat="43.50879" lon="5.30251">
        <ele>179.2</ele>
        <time>2024-03-20T10:18:10.000Z</time>
      </trkpt>
      <trkpt lat="43.50878" lon="5.30253">
        <ele>178.9</ele>
        <time>2024-03-20T10:18:12.000Z</time>
      </trkpt>
      <trkpt lat="43.50876" lon="5.30256">
        <ele>178.5</ele>
        <time>2024-03-20T10:18:15.000Z</time>
      </trkpt>
      <trkpt lat="43.50875" lon="5.30258">
        <ele>178.2</ele>
        <time>2024-03-20T10:18:17.000Z</time>
      </trkpt>
      <trkpt lat="43.50873" lon="5.30261">
        <ele>178</ele>
        <time>2024-03-20T10:18:19.000Z</time>
      </trkpt>
      <trkpt lat="43.50872" lon="5.30263">
        <ele>177.7</ele>
        <time>2024-03-20T10:18:21.000Z</time>
      </trkpt>
      <trkpt lat="43.50872" lon="5.30265">
        <ele>177.4</ele>
        <time>2024-03-20T10:18:23.000Z</time>
      </trkpt>
      <trkpt lat="43.5087" lon="5.30268">
        <ele>177</ele>
        <time>2024-03-20T10:18:25.000Z</time>
      </trkpt>
      <trkpt lat="43.50869" lon="5.30271">
        <ele>176.5</ele>
        <time>2024-03-20T10:18:28.000Z</time>
      </trkpt>
      <trkpt lat="43.50867" lon="5.30274">
        <ele>176</ele>
        <time>2024-03-20T10:18:30.000Z</time>
      </trkpt>
      <trkpt lat="43.50866" lon="5.30276">
        <ele>175.4</ele>
        <time>2024-03-20T10:18:32.000Z</time>
      </trkpt>
      <trkpt lat="43.50865" lon="5.30279">
        <ele>175</ele>
        <time>2024-03-20T10:18:34.000Z</time>
      </trkpt>
      <trkpt lat="43.50863" lon="5.30281">
        <ele>174.4</ele>
        <time>2024-03-20T10:18:36.000Z</time>
      </trkpt>
      <trkpt lat="43.50862" lon="5.30284">
        <ele>173.9</ele>
        <time>2024-03-20T10:18:38.000Z</time>
      </trkpt>
      <trkpt lat="43.50862" lon="5.30288">
        <ele>173.4</ele>
        <time>2024-03-20T10:18:41.000Z</time>
      </trkpt>
      <trkpt lat="43.50861" lon="5.30291">
        <ele>173.1</ele>
        <time>2024-03-20T10:18:43.000Z</time>
      </trkpt>
      <trkpt lat="43.5086" lon="5.30294">
        <ele>172.9</ele>
        <time>2024-03-20T10:18:47.000Z</time>
      </trkpt>
      <trkpt lat="43.50859" lon="5.30297">
        <ele>172.7</ele>
        <time>2024-03-20T10:18:49.000Z</time>
      </trkpt>
      <trkpt lat="43.50859" lon="5.303">
        <ele>172.4</ele>
        <time>2024-03-20T10:18:51.000Z</time>
      </trkpt>
      <trkpt lat="43.50859" lon="5.30304">
        <ele>172.1</ele>
        <time>2024-03-20T10:18:53.000Z</time>
      </trkpt>
      <trkpt lat="43.50859" lon="5.30307">
        <ele>171.9</ele>
        <time>2024-03-20T10:18:55.000Z</time>
      </trkpt>
      <trkpt lat="43.50858" lon="5.30311">
        <ele>171.6</ele>
        <time>2024-03-20T10:18:57.000Z</time>
      </trkpt>
      <trkpt lat="43.50857" lon="5.30314">
        <ele>171.4</ele>
        <time>2024-03-20T10:18:59.000Z</time>
      </trkpt>
      <trkpt lat="43.50857" lon="5.30318">
        <ele>171.1</ele>
        <time>2024-03-20T10:19:02.000Z</time>
      </trkpt>
      <trkpt lat="43.50857" lon="5.30321">
        <ele>170.9</ele>
        <time>2024-03-20T10:19:04.000Z</time>
      </trkpt>
      <trkpt lat="43.50857" lon="5.30323">
        <ele>170.7</ele>
        <time>2024-03-20T10:19:06.000Z</time>
      </trkpt>
      <trkpt lat="43.50856" lon="5.30326">
        <ele>170.5</ele>
        <time>2024-03-20T10:19:08.000Z</time>
      </trkpt>
      <trkpt lat="43.50856" lon="5.30329">
        <ele>170.3</ele>
        <time>2024-03-20T10:19:10.000Z</time>
      </trkpt>
      <trkpt lat="43.50856" lon="5.30332">
        <ele>170.1</ele>
        <time>2024-03-20T10:19:12.000Z</time>
      </trkpt>
      <trkpt lat="43.50856" lon="5.30337">
        <ele>169.7</ele>
        <time>2024-03-20T10:19:15.000Z</time>
      </trkpt>
      <trkpt lat="43.50856" lon="5.3034">
        <ele>169.5</ele>
        <time>2024-03-20T10:19:18.000Z</time>
      </trkpt>
      <trkpt lat="43.50856" lon="5.30344">
        <ele>169.2</ele>
        <time>2024-03-20T10:19:21.000Z</time>
      </trkpt>
      <trkpt lat="43.50857" lon="5.30347">
        <ele>169</ele>
        <time>2024-03-20T10:19:23.000Z</time>
      </trkpt>
      <trkpt lat="43.50857" lon="5.3035">
        <ele>168.7</ele>
        <time>2024-03-20T10:19:25.000Z</time>
      </trkpt>
      <trkpt lat="43.50857" lon="5.30354">
        <ele>168.4</ele>
        <time>2024-03-20T10:19:27.000Z</time>
      </trkpt>
      <trkpt lat="43.50857" lon="5.30357">
        <ele>168.2</ele>
        <time>2024-03-20T10:19:29.000Z</time>
      </trkpt>
      <trkpt lat="43.50857" lon="5.30361">
        <ele>167.9</ele>
        <time>2024-03-20T10:19:31.000Z</time>
      </trkpt>
      <trkpt lat="43.50858" lon="5.30364">
        <ele>167.6</ele>
        <time>2024-03-20T10:19:33.000Z</time>
      </trkpt>
      <trkpt lat="43.5086" lon="5.30366">
        <ele>167.4</ele>
        <time>2024-03-20T10:19:35.000Z</time>
      </trkpt>
      <trkpt lat="43.50859" lon="5.3037">
        <ele>167</ele>
        <time>2024-03-20T10:19:38.000Z</time>
      </trkpt>
      <trkpt lat="43.5086" lon="5.30373">
        <ele>166.7</ele>
        <time>2024-03-20T10:19:41.000Z</time>
      </trkpt>
      <trkpt lat="43.5086" lon="5.30376">
        <ele>166.4</ele>
        <time>2024-03-20T10:19:43.000Z</time>
      </trkpt>
      <trkpt lat="43.5086" lon="5.30379">
        <ele>166.1</ele>
        <time>2024-03-20T10:19:45.000Z</time>
      </trkpt>
      <trkpt lat="43.50859" lon="5.30383">
        <ele>165.6</ele>
        <time>2024-03-20T10:19:49.000Z</time>
      </trkpt>
      <trkpt lat="43.5086" lon="5.30386">
        <ele>165.3</ele>
        <time>2024-03-20T10:19:51.000Z</time>
      </trkpt>
      <trkpt lat="43.5086" lon="5.30389">
        <ele>165</ele>
        <time>2024-03-20T10:19:53.000Z</time>
      </trkpt>
      <trkpt lat="43.5086" lon="5.30392">
        <ele>164.8</ele>
        <time>2024-03-20T10:19:55.000Z</time>
      </trkpt>
      <trkpt lat="43.5086" lon="5.30396">
        <ele>164.5</ele>
        <time>2024-03-20T10:19:58.000Z</time>
      </trkpt>
      <trkpt lat="43.5086" lon="5.304">
        <ele>164.2</ele>
        <time>2024-03-20T10:20:01.000Z</time>
      </trkpt>
      <trkpt lat="43.5086" lon="5.30403">
        <ele>164</ele>
        <time>2024-03-20T10:20:04.000Z</time>
      </trkpt>
      <trkpt lat="43.50859" lon="5.30405">
        <ele>163.8</ele>
        <time>2024-03-20T10:20:06.000Z</time>
      </trkpt>
      <trkpt lat="43.50858" lon="5.30408">
        <ele>163.6</ele>
        <time>2024-03-20T10:20:08.000Z</time>
      </trkpt>
      <trkpt lat="43.50858" lon="5.30411">
        <ele>163.4</ele>
        <time>2024-03-20T10:20:10.000Z</time>
      </trkpt>
      <trkpt lat="43.50858" lon="5.30414">
        <ele>163.2</ele>
        <time>2024-03-20T10:20:12.000Z</time>
      </trkpt>
      <trkpt lat="43.50857" lon="5.30417">
        <ele>163</ele>
        <time>2024-03-20T10:20:14.000Z</time>
      </trkpt>
      <trkpt lat="43.50857" lon="5.30419">
        <ele>162.6</ele>
        <time>2024-03-20T10:20:16.000Z</time>
      </trkpt>
      <trkpt lat="43.50855" lon="5.30422">
        <ele>162.3</ele>
        <time>2024-03-20T10:20:19.000Z</time>
      </trkpt>
      <trkpt lat="43.50854" lon="5.30424">
        <ele>162</ele>
        <time>2024-03-20T10:20:21.000Z</time>
      </trkpt>
      <trkpt lat="43.50853" lon="5.30427">
        <ele>161.6</ele>
        <time>2024-03-20T10:20:23.000Z</time>
      </trkpt>
      <trkpt lat="43.50852" lon="5.3043">
        <ele>161.2</ele>
        <time>2024-03-20T10:20:25.000Z</time>
      </trkpt>
      <trkpt lat="43.50852" lon="5.30433">
        <ele>160.8</ele>
        <time>2024-03-20T10:20:27.000Z</time>
      </trkpt>
      <trkpt lat="43.5085" lon="5.30436">
        <ele>160.4</ele>
        <time>2024-03-20T10:20:29.000Z</time>
      </trkpt>
      <trkpt lat="43.50849" lon="5.30439">
        <ele>160.1</ele>
        <time>2024-03-20T10:20:31.000Z</time>
      </trkpt>
      <trkpt lat="43.50848" lon="5.30442">
        <ele>159.8</ele>
        <time>2024-03-20T10:20:33.000Z</time>
      </trkpt>
      <trkpt lat="43.50846" lon="5.30445">
        <ele>159.5</ele>
        <time>2024-03-20T10:20:36.000Z</time>
      </trkpt>
      <trkpt lat="43.50846" lon="5.30447">
        <ele>159.3</ele>
        <time>2024-03-20T10:20:38.000Z</time>
      </trkpt>
      <trkpt lat="43.50844" lon="5.3045">
        <ele>159.1</ele>
        <time>2024-03-20T10:20:40.000Z</time>
      </trkpt>
      <trkpt lat="43.50843" lon="5.30454">
        <ele>158.9</ele>
        <time>2024-03-20T10:20:42.000Z</time>
      </trkpt>
      <trkpt lat="43.50842" lon="5.30457">
        <ele>158.7</ele>
        <time>2024-03-20T10:20:44.000Z</time>
      </trkpt>
      <trkpt lat="43.5084" lon="5.30459">
        <ele>158.6</ele>
        <time>2024-03-20T10:20:46.000Z</time>
      </trkpt>
      <trkpt lat="43.5084" lon="5.30463">
        <ele>158.3</ele>
        <time>2024-03-20T10:20:48.000Z</time>
      </trkpt>
      <trkpt lat="43.50839" lon="5.30467">
        <ele>158</ele>
        <time>2024-03-20T10:20:51.000Z</time>
      </trkpt>
      <trkpt lat="43.50838" lon="5.3047">
        <ele>157.9</ele>
        <time>2024-03-20T10:20:53.000Z</time>
      </trkpt>
      <trkpt lat="43.50837" lon="5.30472">
        <ele>157.8</ele>
        <time>2024-03-20T10:20:55.000Z</time>
      </trkpt>
      <trkpt lat="43.50836" lon="5.30475">
        <ele>157.6</ele>
        <time>2024-03-20T10:20:57.000Z</time>
      </trkpt>
      <trkpt lat="43.50835" lon="5.30479">
        <ele>157.4</ele>
        <time>2024-03-20T10:21:00.000Z</time>
      </trkpt>
      <trkpt lat="43.50835" lon="5.30481">
        <ele>157.3</ele>
        <time>2024-03-20T10:21:01.000Z</time>
      </trkpt>
      <trkpt lat="43.50834" lon="5.30485">
        <ele>157</ele>
        <time>2024-03-20T10:21:03.000Z</time>
      </trkpt>
      <trkpt lat="43.50833" lon="5.30487">
        <ele>156.9</ele>
        <time>2024-03-20T10:21:05.000Z</time>
      </trkpt>
      <trkpt lat="43.50833" lon="5.30491">
        <ele>156.8</ele>
        <time>2024-03-20T10:21:07.000Z</time>
      </trkpt>
      <trkpt lat="43.50832" lon="5.30494">
        <ele>156.7</ele>
        <time>2024-03-20T10:21:09.000Z</time>
      </trkpt>
      <trkpt lat="43.50831" lon="5.30497">
        <ele>156.7</ele>
        <time>2024-03-20T10:21:11.000Z</time>
      </trkpt>
      <trkpt lat="43.5083" lon="5.30499">
        <ele>156.7</ele>
        <time>2024-03-20T10:21:13.000Z</time>
      </trkpt>
      <trkpt lat="43.5083" lon="5.30502">
        <ele>156.6</ele>
        <time>2024-03-20T10:21:15.000Z</time>
      </trkpt>
      <trkpt lat="43.5083" lon="5.30506">
        <ele>156.5</ele>
        <time>2024-03-20T10:21:17.000Z</time>
      </trkpt>
      <trkpt lat="43.50829" lon="5.30509">
        <ele>156.4</ele>
        <time>2024-03-20T10:21:19.000Z</time>
      </trkpt>
      <trkpt lat="43.50829" lon="5.30512">
        <ele>156.1</ele>
        <time>2024-03-20T10:21:22.000Z</time>
      </trkpt>
      <trkpt lat="43.5083" lon="5.30515">
        <ele>155.8</ele>
        <time>2024-03-20T10:21:24.000Z</time>
      </trkpt>
      <trkpt lat="43.5083" lon="5.30519">
        <ele>155.5</ele>
        <time>2024-03-20T10:21:26.000Z</time>
      </trkpt>
      <trkpt lat="43.50831" lon="5.30522">
        <ele>155.1</ele>
        <time>2024-03-20T10:21:27.000Z</time>
      </trkpt>
      <trkpt lat="43.50832" lon="5.30525">
        <ele>154.5</ele>
        <time>2024-03-20T10:21:29.000Z</time>
      </trkpt>
      <trkpt lat="43.50832" lon="5.30528">
        <ele>154.3</ele>
        <time>2024-03-20T10:21:30.000Z</time>
      </trkpt>
      <trkpt lat="43.50833" lon="5.30531">
        <ele>154.2</ele>
        <time>2024-03-20T10:21:31.000Z</time>
      </trkpt>
      <trkpt lat="43.50835" lon="5.30534">
        <ele>153.9</ele>
        <time>2024-03-20T10:21:34.000Z</time>
      </trkpt>
      <trkpt lat="43.50834" lon="5.30537">
        <ele>154.3</ele>
        <time>2024-03-20T10:21:36.000Z</time>
      </trkpt>
      <trkpt lat="43.50836" lon="5.3054">
        <ele>153.9</ele>
        <time>2024-03-20T10:21:38.000Z</time>
      </trkpt>
      <trkpt lat="43.50837" lon="5.30543">
        <ele>153.7</ele>
        <time>2024-03-20T10:21:40.000Z</time>
      </trkpt>
      <trkpt lat="43.50838" lon="5.30545">
        <ele>153.5</ele>
        <time>2024-03-20T10:21:43.000Z</time>
      </trkpt>
      <trkpt lat="43.50837" lon="5.30549">
        <ele>153.6</ele>
        <time>2024-03-20T10:21:46.000Z</time>
      </trkpt>
      <trkpt lat="43.50838" lon="5.30552">
        <ele>153.6</ele>
        <time>2024-03-20T10:21:48.000Z</time>
      </trkpt>
      <trkpt lat="43.50838" lon="5.30555">
        <ele>153.5</ele>
        <time>2024-03-20T10:21:50.000Z</time>
      </trkpt>
      <trkpt lat="43.50837" lon="5.30558">
        <ele>153.9</ele>
        <time>2024-03-20T10:21:52.000Z</time>
      </trkpt>
      <trkpt lat="43.50837" lon="5.30563">
        <ele>154.3</ele>
        <time>2024-03-20T10:21:55.000Z</time>
      </trkpt>
      <trkpt lat="43.5084" lon="5.30568">
        <ele>153.7</ele>
        <time>2024-03-20T10:21:58.000Z</time>
      </trkpt>
      <trkpt lat="43.50841" lon="5.3057">
        <ele>153.7</ele>
        <time>2024-03-20T10:22:01.000Z</time>
      </trkpt>
      <trkpt lat="43.50842" lon="5.30574">
        <ele>153.3</ele>
        <time>2024-03-20T10:22:03.000Z</time>
      </trkpt>
      <trkpt lat="43.50844" lon="5.30577">
        <ele>152.7</ele>
        <time>2024-03-20T10:22:06.000Z</time>
      </trkpt>
      <trkpt lat="43.50845" lon="5.30579">
        <ele>152.5</ele>
        <time>2024-03-20T10:22:08.000Z</time>
      </trkpt>
      <trkpt lat="43.50846" lon="5.30582">
        <ele>152.2</ele>
        <time>2024-03-20T10:22:10.000Z</time>
      </trkpt>
      <trkpt lat="43.50846" lon="5.30585">
        <ele>152.1</ele>
        <time>2024-03-20T10:22:12.000Z</time>
      </trkpt>
      <trkpt lat="43.50847" lon="5.30588">
        <ele>151.9</ele>
        <time>2024-03-20T10:22:14.000Z</time>
      </trkpt>
      <trkpt lat="43.50848" lon="5.3059">
        <ele>151.5</ele>
        <time>2024-03-20T10:22:16.000Z</time>
      </trkpt>
      <trkpt lat="43.5085" lon="5.30595">
        <ele>151.3</ele>
        <time>2024-03-20T10:22:19.000Z</time>
      </trkpt>
      <trkpt lat="43.5085" lon="5.30598">
        <ele>151.1</ele>
        <time>2024-03-20T10:22:21.000Z</time>
      </trkpt>
      <trkpt lat="43.50852" lon="5.30601">
        <ele>150.7</ele>
        <time>2024-03-20T10:22:23.000Z</time>
      </trkpt>
      <trkpt lat="43.50853" lon="5.30605">
        <ele>150.3</ele>
        <time>2024-03-20T10:22:26.000Z</time>
      </trkpt>
      <trkpt lat="43.50854" lon="5.30608">
        <ele>150.4</ele>
        <time>2024-03-20T10:22:28.000Z</time>
      </trkpt>
      <trkpt lat="43.50854" lon="5.30611">
        <ele>150.1</ele>
        <time>2024-03-20T10:22:30.000Z</time>
      </trkpt>
      <trkpt lat="43.50855" lon="5.30614">
        <ele>149.7</ele>
        <time>2024-03-20T10:22:32.000Z</time>
      </trkpt>
      <trkpt lat="43.50856" lon="5.30617">
        <ele>149.2</ele>
        <time>2024-03-20T10:22:34.000Z</time>
      </trkpt>
      <trkpt lat="43.50857" lon="5.3062">
        <ele>148.8</ele>
        <time>2024-03-20T10:22:36.000Z</time>
      </trkpt>
      <trkpt lat="43.50857" lon="5.30623">
        <ele>148.7</ele>
        <time>2024-03-20T10:22:38.000Z</time>
      </trkpt>
      <trkpt lat="43.50858" lon="5.30626">
        <ele>148.4</ele>
        <time>2024-03-20T10:22:40.000Z</time>
      </trkpt>
      <trkpt lat="43.50858" lon="5.30629">
        <ele>148.4</ele>
        <time>2024-03-20T10:22:42.000Z</time>
      </trkpt>
      <trkpt lat="43.50858" lon="5.30631">
        <ele>148.4</ele>
        <time>2024-03-20T10:22:44.000Z</time>
      </trkpt>
      <trkpt lat="43.50858" lon="5.30635">
        <ele>148.4</ele>
        <time>2024-03-20T10:22:46.000Z</time>
      </trkpt>
      <trkpt lat="43.50858" lon="5.30637">
        <ele>148.3</ele>
        <time>2024-03-20T10:22:48.000Z</time>
      </trkpt>
      <trkpt lat="43.50858" lon="5.30642">
        <ele>148.2</ele>
        <time>2024-03-20T10:22:50.000Z</time>
      </trkpt>
      <trkpt lat="43.50857" lon="5.30645">
        <ele>148.5</ele>
        <time>2024-03-20T10:22:53.000Z</time>
      </trkpt>
      <trkpt lat="43.50856" lon="5.30648">
        <ele>148.4</ele>
        <time>2024-03-20T10:22:55.000Z</time>
      </trkpt>
      <trkpt lat="43.50855" lon="5.3065">
        <ele>148.6</ele>
        <time>2024-03-20T10:22:57.000Z</time>
      </trkpt>
      <trkpt lat="43.50854" lon="5.30653">
        <ele>148.7</ele>
        <time>2024-03-20T10:22:59.000Z</time>
      </trkpt>
      <trkpt lat="43.50854" lon="5.30657">
        <ele>148.3</ele>
        <time>2024-03-20T10:23:01.000Z</time>
      </trkpt>
      <trkpt lat="43.50856" lon="5.30661">
        <ele>147.5</ele>
        <time>2024-03-20T10:23:03.000Z</time>
      </trkpt>
      <trkpt lat="43.50854" lon="5.30664">
        <ele>147.6</ele>
        <time>2024-03-20T10:23:06.000Z</time>
      </trkpt>
      <trkpt lat="43.50854" lon="5.30667">
        <ele>147.5</ele>
        <time>2024-03-20T10:23:08.000Z</time>
      </trkpt>
      <trkpt lat="43.50854" lon="5.3067">
        <ele>147.4</ele>
        <time>2024-03-20T10:23:10.000Z</time>
      </trkpt>
      <trkpt lat="43.50853" lon="5.30673">
        <ele>147.4</ele>
        <time>2024-03-20T10:23:12.000Z</time>
      </trkpt>
      <trkpt lat="43.50852" lon="5.30676">
        <ele>147.6</ele>
        <time>2024-03-20T10:23:14.000Z</time>
      </trkpt>
      <trkpt lat="43.50851" lon="5.30679">
        <ele>147.7</ele>
        <time>2024-03-20T10:23:16.000Z</time>
      </trkpt>
      <trkpt lat="43.50851" lon="5.30681">
        <ele>147.7</ele>
        <time>2024-03-20T10:23:18.000Z</time>
      </trkpt>
      <trkpt lat="43.50851" lon="5.30685">
        <ele>147.4</ele>
        <time>2024-03-20T10:23:20.000Z</time>
      </trkpt>
      <trkpt lat="43.50849" lon="5.30687">
        <ele>147.6</ele>
        <time>2024-03-20T10:23:22.000Z</time>
      </trkpt>
      <trkpt lat="43.50849" lon="5.30692">
        <ele>147.3</ele>
        <time>2024-03-20T10:23:25.000Z</time>
      </trkpt>
      <trkpt lat="43.50848" lon="5.30697">
        <ele>147.3</ele>
        <time>2024-03-20T10:23:27.000Z</time>
      </trkpt>
      <trkpt lat="43.50847" lon="5.307">
        <ele>147.2</ele>
        <time>2024-03-20T10:23:28.000Z</time>
      </trkpt>
      <trkpt lat="43.50847" lon="5.30704">
        <ele>147</ele>
        <time>2024-03-20T10:23:31.000Z</time>
      </trkpt>
      <trkpt lat="43.50847" lon="5.30707">
        <ele>146.8</ele>
        <time>2024-03-20T10:23:34.000Z</time>
      </trkpt>
      <trkpt lat="43.50848" lon="5.3071">
        <ele>146.6</ele>
        <time>2024-03-20T10:23:37.000Z</time>
      </trkpt>
      <trkpt lat="43.5085" lon="5.30709">
        <ele>146.3</ele>
        <time>2024-03-20T10:23:44.000Z</time>
      </trkpt>
      <trkpt lat="43.50852" lon="5.3071">
        <ele>145.9</ele>
        <time>2024-03-20T10:23:46.000Z</time>
      </trkpt>
      <trkpt lat="43.50854" lon="5.30711">
        <ele>145.6</ele>
        <time>2024-03-20T10:23:49.000Z</time>
      </trkpt>
      <trkpt lat="43.50857" lon="5.30712">
        <ele>145.2</ele>
        <time>2024-03-20T10:23:51.000Z</time>
      </trkpt>
      <trkpt lat="43.50859" lon="5.30712">
        <ele>145</ele>
        <time>2024-03-20T10:23:52.000Z</time>
      </trkpt>
      <trkpt lat="43.50861" lon="5.30714">
        <ele>144.7</ele>
        <time>2024-03-20T10:23:55.000Z</time>
      </trkpt>
      <trkpt lat="43.50864" lon="5.30716">
        <ele>145.5</ele>
        <time>2024-03-20T10:23:57.000Z</time>
      </trkpt>
      <trkpt lat="43.50866" lon="5.30716">
        <ele>146.3</ele>
        <time>2024-03-20T10:23:59.000Z</time>
      </trkpt>
      <trkpt lat="43.50868" lon="5.30716">
        <ele>146.9</ele>
        <time>2024-03-20T10:24:01.000Z</time>
      </trkpt>
      <trkpt lat="43.50869" lon="5.30719">
        <ele>147.5</ele>
        <time>2024-03-20T10:24:04.000Z</time>
      </trkpt>
      <trkpt lat="43.50869" lon="5.30721">
        <ele>147.8</ele>
        <time>2024-03-20T10:24:06.000Z</time>
      </trkpt>
      <trkpt lat="43.50869" lon="5.30719">
        <ele>147.4</ele>
        <time>2024-03-20T10:24:08.000Z</time>
      </trkpt>
      <trkpt lat="43.5087" lon="5.30715">
        <ele>147.3</ele>
        <time>2024-03-20T10:24:14.000Z</time>
      </trkpt>
      <trkpt lat="43.50871" lon="5.30717">
        <ele>147.9</ele>
        <time>2024-03-20T10:24:17.000Z</time>
      </trkpt>
      <trkpt lat="43.50873" lon="5.30717">
        <ele>148.5</ele>
        <time>2024-03-20T10:24:23.000Z</time>
      </trkpt>
      <trkpt lat="43.50871" lon="5.30716">
        <ele>147.7</ele>
        <time>2024-03-20T10:24:36.000Z</time>
      </trkpt>
      <trkpt lat="43.50872" lon="5.30719">
        <ele>148.5</ele>
        <time>2024-03-20T10:25:13.000Z</time>
      </trkpt>
      <trkpt lat="43.50873" lon="5.30721">
        <ele>149.2</ele>
        <time>2024-03-20T10:25:20.000Z</time>
      </trkpt>
      <trkpt lat="43.50872" lon="5.30722">
        <ele>148.9</ele>
        <time>2024-03-20T10:25:27.000Z</time>
      </trkpt>
      <trkpt lat="43.50869" lon="5.30719">
        <ele>147.5</ele>
        <time>2024-03-20T10:25:47.000Z</time>
      </trkpt>
      <trkpt lat="43.50869" lon="5.30715">
        <ele>147.1</ele>
        <time>2024-03-20T10:26:14.000Z</time>
      </trkpt>
      <trkpt lat="43.5087" lon="5.30718">
        <ele>147.6</ele>
        <time>2024-03-20T10:26:23.000Z</time>
      </trkpt>
      <trkpt lat="43.50867" lon="5.30722">
        <ele>147</ele>
        <time>2024-03-20T10:26:25.000Z</time>
      </trkpt>
      <trkpt lat="43.50865" lon="5.30724">
        <ele>146.8</ele>
        <time>2024-03-20T10:26:28.000Z</time>
      </trkpt>
      <trkpt lat="43.50863" lon="5.30726">
        <ele>146.6</ele>
        <time>2024-03-20T10:26:30.000Z</time>
      </trkpt>
      <trkpt lat="43.50862" lon="5.30728">
        <ele>146.8</ele>
        <time>2024-03-20T10:26:32.000Z</time>
      </trkpt>
      <trkpt lat="43.50858" lon="5.3073">
        <ele>147.1</ele>
        <time>2024-03-20T10:26:34.000Z</time>
      </trkpt>
      <trkpt lat="43.50857" lon="5.30733">
        <ele>147.6</ele>
        <time>2024-03-20T10:26:35.000Z</time>
      </trkpt>
      <trkpt lat="43.50857" lon="5.30735">
        <ele>148.1</ele>
        <time>2024-03-20T10:26:37.000Z</time>
      </trkpt>
      <trkpt lat="43.50855" lon="5.30738">
        <ele>148.6</ele>
        <time>2024-03-20T10:26:40.000Z</time>
      </trkpt>
      <trkpt lat="43.50853" lon="5.3074">
        <ele>148.8</ele>
        <time>2024-03-20T10:26:46.000Z</time>
      </trkpt>
      <trkpt lat="43.50852" lon="5.30741">
        <ele>148.9</ele>
        <time>2024-03-20T10:26:48.000Z</time>
      </trkpt>
      <trkpt lat="43.5085" lon="5.30744">
        <ele>149</ele>
        <time>2024-03-20T10:26:51.000Z</time>
      </trkpt>
      <trkpt lat="43.50848" lon="5.30745">
        <ele>149</ele>
        <time>2024-03-20T10:26:52.000Z</time>
      </trkpt>
      <trkpt lat="43.50847" lon="5.30747">
        <ele>149</ele>
        <time>2024-03-20T10:26:53.000Z</time>
      </trkpt>
      <trkpt lat="43.50846" lon="5.30749">
        <ele>149.1</ele>
        <time>2024-03-20T10:26:55.000Z</time>
      </trkpt>
      <trkpt lat="43.50844" lon="5.30751">
        <ele>149.1</ele>
        <time>2024-03-20T10:26:56.000Z</time>
      </trkpt>
      <trkpt lat="43.50842" lon="5.30754">
        <ele>149.1</ele>
        <time>2024-03-20T10:26:58.000Z</time>
      </trkpt>
      <trkpt lat="43.50839" lon="5.30756">
        <ele>148.9</ele>
        <time>2024-03-20T10:26:59.000Z</time>
      </trkpt>
      <trkpt lat="43.50837" lon="5.30756">
        <ele>148.3</ele>
        <time>2024-03-20T10:27:01.000Z</time>
      </trkpt>
      <trkpt lat="43.50836" lon="5.30758">
        <ele>148.2</ele>
        <time>2024-03-20T10:27:03.000Z</time>
      </trkpt>
      <trkpt lat="43.50837" lon="5.30761">
        <ele>148.7</ele>
        <time>2024-03-20T10:27:05.000Z</time>
      </trkpt>
      <trkpt lat="43.50836" lon="5.30765">
        <ele>148.8</ele>
        <time>2024-03-20T10:27:07.000Z</time>
      </trkpt>
      <trkpt lat="43.50834" lon="5.30768">
        <ele>148.7</ele>
        <time>2024-03-20T10:27:09.000Z</time>
      </trkpt>
      <trkpt lat="43.50833" lon="5.3077">
        <ele>148.5</ele>
        <time>2024-03-20T10:27:10.000Z</time>
      </trkpt>
      <trkpt lat="43.50832" lon="5.30773">
        <ele>148.9</ele>
        <time>2024-03-20T10:27:12.000Z</time>
      </trkpt>
      <trkpt lat="43.50831" lon="5.30775">
        <ele>149.1</ele>
        <time>2024-03-20T10:27:15.000Z</time>
      </trkpt>
      <trkpt lat="43.50829" lon="5.30779">
        <ele>149.6</ele>
        <time>2024-03-20T10:27:17.000Z</time>
      </trkpt>
      <trkpt lat="43.50829" lon="5.30782">
        <ele>150.3</ele>
        <time>2024-03-20T10:27:19.000Z</time>
      </trkpt>
      <trkpt lat="43.50827" lon="5.30783">
        <ele>150.6</ele>
        <time>2024-03-20T10:27:21.000Z</time>
      </trkpt>
      <trkpt lat="43.50825" lon="5.30785">
        <ele>151.1</ele>
        <time>2024-03-20T10:27:23.000Z</time>
      </trkpt>
      <trkpt lat="43.50823" lon="5.30786">
        <ele>151.4</ele>
        <time>2024-03-20T10:27:26.000Z</time>
      </trkpt>
      <trkpt lat="43.5082" lon="5.30789">
        <ele>151.7</ele>
        <time>2024-03-20T10:27:29.000Z</time>
      </trkpt>
      <trkpt lat="43.50819" lon="5.30791">
        <ele>151.9</ele>
        <time>2024-03-20T10:27:31.000Z</time>
      </trkpt>
      <trkpt lat="43.50817" lon="5.30792">
        <ele>152</ele>
        <time>2024-03-20T10:27:35.000Z</time>
      </trkpt>
      <trkpt lat="43.50814" lon="5.30794">
        <ele>151.9</ele>
        <time>2024-03-20T10:27:38.000Z</time>
      </trkpt>
      <trkpt lat="43.50816" lon="5.308">
        <ele>152.4</ele>
        <time>2024-03-20T10:27:40.000Z</time>
      </trkpt>
      <trkpt lat="43.50816" lon="5.30803">
        <ele>152.7</ele>
        <time>2024-03-20T10:27:42.000Z</time>
      </trkpt>
      <trkpt lat="43.50817" lon="5.30806">
        <ele>153.1</ele>
        <time>2024-03-20T10:27:44.000Z</time>
      </trkpt>
      <trkpt lat="43.50817" lon="5.3081">
        <ele>153.3</ele>
        <time>2024-03-20T10:27:46.000Z</time>
      </trkpt>
      <trkpt lat="43.50816" lon="5.30813">
        <ele>153.4</ele>
        <time>2024-03-20T10:27:48.000Z</time>
      </trkpt>
      <trkpt lat="43.50815" lon="5.30816">
        <ele>153.5</ele>
        <time>2024-03-20T10:27:56.000Z</time>
      </trkpt>
      <trkpt lat="43.50815" lon="5.3082">
        <ele>153.8</ele>
        <time>2024-03-20T10:28:00.000Z</time>
      </trkpt>
      <trkpt lat="43.50816" lon="5.30822">
        <ele>154.1</ele>
        <time>2024-03-20T10:28:02.000Z</time>
      </trkpt>
      <trkpt lat="43.50817" lon="5.30825">
        <ele>154.4</ele>
        <time>2024-03-20T10:28:07.000Z</time>
      </trkpt>
      <trkpt lat="43.50816" lon="5.30827">
        <ele>154.4</ele>
        <time>2024-03-20T10:28:10.000Z</time>
      </trkpt>
      <trkpt lat="43.50816" lon="5.30831">
        <ele>154.6</ele>
        <time>2024-03-20T10:28:13.000Z</time>
      </trkpt>
      <trkpt lat="43.50815" lon="5.30834">
        <ele>154.8</ele>
        <time>2024-03-20T10:28:17.000Z</time>
      </trkpt>
      <trkpt lat="43.50815" lon="5.30836">
        <ele>155.1</ele>
        <time>2024-03-20T10:28:19.000Z</time>
      </trkpt>
      <trkpt lat="43.50815" lon="5.30839">
        <ele>155.4</ele>
        <time>2024-03-20T10:28:21.000Z</time>
      </trkpt>
      <trkpt lat="43.50816" lon="5.30843">
        <ele>155.8</ele>
        <time>2024-03-20T10:28:23.000Z</time>
      </trkpt>
      <trkpt lat="43.50816" lon="5.30845">
        <ele>156.1</ele>
        <time>2024-03-20T10:28:25.000Z</time>
      </trkpt>
      <trkpt lat="43.50816" lon="5.30848">
        <ele>156.4</ele>
        <time>2024-03-20T10:28:28.000Z</time>
      </trkpt>
      <trkpt lat="43.50816" lon="5.30852">
        <ele>156.9</ele>
        <time>2024-03-20T10:28:31.000Z</time>
      </trkpt>
      <trkpt lat="43.50816" lon="5.30856">
        <ele>157.2</ele>
        <time>2024-03-20T10:28:34.000Z</time>
      </trkpt>
      <trkpt lat="43.50815" lon="5.3086">
        <ele>157.5</ele>
        <time>2024-03-20T10:28:37.000Z</time>
      </trkpt>
      <trkpt lat="43.50814" lon="5.30863">
        <ele>157.7</ele>
        <time>2024-03-20T10:28:40.000Z</time>
      </trkpt>
      <trkpt lat="43.50814" lon="5.30866">
        <ele>157.9</ele>
        <time>2024-03-20T10:28:42.000Z</time>
      </trkpt>
      <trkpt lat="43.50812" lon="5.30869">
        <ele>157.8</ele>
        <time>2024-03-20T10:28:44.000Z</time>
      </trkpt>
      <trkpt lat="43.50812" lon="5.30872">
        <ele>158.1</ele>
        <time>2024-03-20T10:28:47.000Z</time>
      </trkpt>
      <trkpt lat="43.50811" lon="5.30875">
        <ele>158.1</ele>
        <time>2024-03-20T10:28:49.000Z</time>
      </trkpt>
      <trkpt lat="43.50812" lon="5.30877">
        <ele>158.4</ele>
        <time>2024-03-20T10:28:51.000Z</time>
      </trkpt>
      <trkpt lat="43.50811" lon="5.3088">
        <ele>158.4</ele>
        <time>2024-03-20T10:28:54.000Z</time>
      </trkpt>
      <trkpt lat="43.5081" lon="5.30883">
        <ele>158.6</ele>
        <time>2024-03-20T10:28:57.000Z</time>
      </trkpt>
      <trkpt lat="43.50809" lon="5.30886">
        <ele>158.6</ele>
        <time>2024-03-20T10:29:00.000Z</time>
      </trkpt>
      <trkpt lat="43.50809" lon="5.3089">
        <ele>158.8</ele>
        <time>2024-03-20T10:29:03.000Z</time>
      </trkpt>
      <trkpt lat="43.50808" lon="5.30892">
        <ele>158.8</ele>
        <time>2024-03-20T10:29:05.000Z</time>
      </trkpt>
      <trkpt lat="43.50807" lon="5.30895">
        <ele>158.9</ele>
        <time>2024-03-20T10:29:07.000Z</time>
      </trkpt>
      <trkpt lat="43.50806" lon="5.30898">
        <ele>159.2</ele>
        <time>2024-03-20T10:29:09.000Z</time>
      </trkpt>
      <trkpt lat="43.50806" lon="5.30901">
        <ele>159.5</ele>
        <time>2024-03-20T10:29:12.000Z</time>
      </trkpt>
      <trkpt lat="43.50806" lon="5.30904">
        <ele>159.8</ele>
        <time>2024-03-20T10:29:14.000Z</time>
      </trkpt>
      <trkpt lat="43.50806" lon="5.30907">
        <ele>160</ele>
        <time>2024-03-20T10:29:16.000Z</time>
      </trkpt>
      <trkpt lat="43.50805" lon="5.30909">
        <ele>160.2</ele>
        <time>2024-03-20T10:29:18.000Z</time>
      </trkpt>
      <trkpt lat="43.50805" lon="5.30912">
        <ele>160.5</ele>
        <time>2024-03-20T10:29:20.000Z</time>
      </trkpt>
      <trkpt lat="43.50804" lon="5.30915">
        <ele>160.7</ele>
        <time>2024-03-20T10:29:22.000Z</time>
      </trkpt>
      <trkpt lat="43.50804" lon="5.30918">
        <ele>161</ele>
        <time>2024-03-20T10:29:24.000Z</time>
      </trkpt>
      <trkpt lat="43.50804" lon="5.30921">
        <ele>161.2</ele>
        <time>2024-03-20T10:29:27.000Z</time>
      </trkpt>
      <trkpt lat="43.50803" lon="5.30924">
        <ele>161.3</ele>
        <time>2024-03-20T10:29:29.000Z</time>
      </trkpt>
      <trkpt lat="43.50802" lon="5.30926">
        <ele>161.4</ele>
        <time>2024-03-20T10:29:32.000Z</time>
      </trkpt>
      <trkpt lat="43.508" lon="5.3093">
        <ele>161.4</ele>
        <time>2024-03-20T10:29:35.000Z</time>
      </trkpt>
      <trkpt lat="43.50798" lon="5.30932">
        <ele>161.4</ele>
        <time>2024-03-20T10:29:37.000Z</time>
      </trkpt>
      <trkpt lat="43.50797" lon="5.30935">
        <ele>161.5</ele>
        <time>2024-03-20T10:29:39.000Z</time>
      </trkpt>
      <trkpt lat="43.50796" lon="5.30939">
        <ele>161.7</ele>
        <time>2024-03-20T10:29:41.000Z</time>
      </trkpt>
      <trkpt lat="43.50795" lon="5.30942">
        <ele>161.8</ele>
        <time>2024-03-20T10:29:44.000Z</time>
      </trkpt>
      <trkpt lat="43.50795" lon="5.30946">
        <ele>161.9</ele>
        <time>2024-03-20T10:29:46.000Z</time>
      </trkpt>
      <trkpt lat="43.50794" lon="5.30949">
        <ele>162.1</ele>
        <time>2024-03-20T10:29:48.000Z</time>
      </trkpt>
      <trkpt lat="43.50793" lon="5.30951">
        <ele>162.3</ele>
        <time>2024-03-20T10:29:50.000Z</time>
      </trkpt>
      <trkpt lat="43.50792" lon="5.30955">
        <ele>162.6</ele>
        <time>2024-03-20T10:29:53.000Z</time>
      </trkpt>
      <trkpt lat="43.50792" lon="5.30958">
        <ele>162.8</ele>
        <time>2024-03-20T10:29:56.000Z</time>
      </trkpt>
      <trkpt lat="43.50791" lon="5.30961">
        <ele>162.8</ele>
        <time>2024-03-20T10:29:59.000Z</time>
      </trkpt>
      <trkpt lat="43.50789" lon="5.30963">
        <ele>162.9</ele>
        <time>2024-03-20T10:30:01.000Z</time>
      </trkpt>
      <trkpt lat="43.50789" lon="5.30966">
        <ele>163.1</ele>
        <time>2024-03-20T10:30:05.000Z</time>
      </trkpt>
      <trkpt lat="43.50788" lon="5.30969">
        <ele>163.2</ele>
        <time>2024-03-20T10:30:06.000Z</time>
      </trkpt>
      <trkpt lat="43.50787" lon="5.30971">
        <ele>163.3</ele>
        <time>2024-03-20T10:30:08.000Z</time>
      </trkpt>
      <trkpt lat="43.50786" lon="5.30974">
        <ele>163.3</ele>
        <time>2024-03-20T10:30:10.000Z</time>
      </trkpt>
      <trkpt lat="43.50785" lon="5.30976">
        <ele>163.3</ele>
        <time>2024-03-20T10:30:12.000Z</time>
      </trkpt>
      <trkpt lat="43.50784" lon="5.30978">
        <ele>163.4</ele>
        <time>2024-03-20T10:30:14.000Z</time>
      </trkpt>
      <trkpt lat="43.50783" lon="5.30982">
        <ele>163.4</ele>
        <time>2024-03-20T10:30:17.000Z</time>
      </trkpt>
      <trkpt lat="43.50782" lon="5.30985">
        <ele>163.5</ele>
        <time>2024-03-20T10:30:19.000Z</time>
      </trkpt>
      <trkpt lat="43.50781" lon="5.30988">
        <ele>163.7</ele>
        <time>2024-03-20T10:30:21.000Z</time>
      </trkpt>
      <trkpt lat="43.50781" lon="5.30992">
        <ele>163.9</ele>
        <time>2024-03-20T10:30:23.000Z</time>
      </trkpt>
      <trkpt lat="43.5078" lon="5.30995">
        <ele>164</ele>
        <time>2024-03-20T10:30:25.000Z</time>
      </trkpt>
      <trkpt lat="43.5078" lon="5.30999">
        <ele>164.3</ele>
        <time>2024-03-20T10:30:27.000Z</time>
      </trkpt>
      <trkpt lat="43.5078" lon="5.31003">
        <ele>164.6</ele>
        <time>2024-03-20T10:30:29.000Z</time>
      </trkpt>
      <trkpt lat="43.50779" lon="5.31006">
        <ele>165</ele>
        <time>2024-03-20T10:30:32.000Z</time>
      </trkpt>
      <trkpt lat="43.50779" lon="5.3101">
        <ele>165.3</ele>
        <time>2024-03-20T10:30:34.000Z</time>
      </trkpt>
      <trkpt lat="43.50779" lon="5.31014">
        <ele>165.6</ele>
        <time>2024-03-20T10:30:37.000Z</time>
      </trkpt>
      <trkpt lat="43.50777" lon="5.31017">
        <ele>165.8</ele>
        <time>2024-03-20T10:30:40.000Z</time>
      </trkpt>
      <trkpt lat="43.50776" lon="5.3102">
        <ele>165.9</ele>
        <time>2024-03-20T10:30:42.000Z</time>
      </trkpt>
      <trkpt lat="43.50775" lon="5.31022">
        <ele>166</ele>
        <time>2024-03-20T10:30:44.000Z</time>
      </trkpt>
      <trkpt lat="43.50774" lon="5.31025">
        <ele>166.2</ele>
        <time>2024-03-20T10:30:46.000Z</time>
      </trkpt>
      <trkpt lat="43.50774" lon="5.31028">
        <ele>166.4</ele>
        <time>2024-03-20T10:30:48.000Z</time>
      </trkpt>
      <trkpt lat="43.50773" lon="5.3103">
        <ele>166.5</ele>
        <time>2024-03-20T10:30:50.000Z</time>
      </trkpt>
      <trkpt lat="43.50773" lon="5.31033">
        <ele>166.6</ele>
        <time>2024-03-20T10:30:52.000Z</time>
      </trkpt>
      <trkpt lat="43.50772" lon="5.31036">
        <ele>166.6</ele>
        <time>2024-03-20T10:30:54.000Z</time>
      </trkpt>
      <trkpt lat="43.5077" lon="5.31039">
        <ele>166.6</ele>
        <time>2024-03-20T10:30:56.000Z</time>
      </trkpt>
      <trkpt lat="43.5077" lon="5.31041">
        <ele>166.6</ele>
        <time>2024-03-20T10:30:58.000Z</time>
      </trkpt>
      <trkpt lat="43.50769" lon="5.31045">
        <ele>166.8</ele>
        <time>2024-03-20T10:31:00.000Z</time>
      </trkpt>
      <trkpt lat="43.50768" lon="5.31048">
        <ele>166.8</ele>
        <time>2024-03-20T10:31:02.000Z</time>
      </trkpt>
      <trkpt lat="43.50768" lon="5.31051">
        <ele>166.9</ele>
        <time>2024-03-20T10:31:04.000Z</time>
      </trkpt>
      <trkpt lat="43.50767" lon="5.31053">
        <ele>167</ele>
        <time>2024-03-20T10:31:06.000Z</time>
      </trkpt>
      <trkpt lat="43.50766" lon="5.31056">
        <ele>166.9</ele>
        <time>2024-03-20T10:31:09.000Z</time>
      </trkpt>
      <trkpt lat="43.50766" lon="5.31059">
        <ele>167.1</ele>
        <time>2024-03-20T10:31:11.000Z</time>
      </trkpt>
      <trkpt lat="43.50765" lon="5.31062">
        <ele>167.2</ele>
        <time>2024-03-20T10:31:13.000Z</time>
      </trkpt>
      <trkpt lat="43.50765" lon="5.31066">
        <ele>167.4</ele>
        <time>2024-03-20T10:31:15.000Z</time>
      </trkpt>
      <trkpt lat="43.50764" lon="5.31069">
        <ele>167.5</ele>
        <time>2024-03-20T10:31:17.000Z</time>
      </trkpt>
      <trkpt lat="43.50763" lon="5.31072">
        <ele>167.5</ele>
        <time>2024-03-20T10:31:19.000Z</time>
      </trkpt>
      <trkpt lat="43.50762" lon="5.31074">
        <ele>167.6</ele>
        <time>2024-03-20T10:31:21.000Z</time>
      </trkpt>
      <trkpt lat="43.50762" lon="5.31077">
        <ele>167.7</ele>
        <time>2024-03-20T10:31:23.000Z</time>
      </trkpt>
      <trkpt lat="43.50761" lon="5.31079">
        <ele>167.7</ele>
        <time>2024-03-20T10:31:25.000Z</time>
      </trkpt>
      <trkpt lat="43.5076" lon="5.31083">
        <ele>167.8</ele>
        <time>2024-03-20T10:31:28.000Z</time>
      </trkpt>
      <trkpt lat="43.50759" lon="5.31086">
        <ele>167.7</ele>
        <time>2024-03-20T10:31:30.000Z</time>
      </trkpt>
      <trkpt lat="43.50758" lon="5.31089">
        <ele>167.6</ele>
        <time>2024-03-20T10:31:32.000Z</time>
      </trkpt>
      <trkpt lat="43.50758" lon="5.31092">
        <ele>167.5</ele>
        <time>2024-03-20T10:31:34.000Z</time>
      </trkpt>
      <trkpt lat="43.50757" lon="5.31094">
        <ele>167.3</ele>
        <time>2024-03-20T10:31:36.000Z</time>
      </trkpt>
      <trkpt lat="43.50756" lon="5.31098">
        <ele>167.3</ele>
        <time>2024-03-20T10:31:38.000Z</time>
      </trkpt>
      <trkpt lat="43.50755" lon="5.31101">
        <ele>167</ele>
        <time>2024-03-20T10:31:40.000Z</time>
      </trkpt>
      <trkpt lat="43.50754" lon="5.31104">
        <ele>166.9</ele>
        <time>2024-03-20T10:31:42.000Z</time>
      </trkpt>
      <trkpt lat="43.50753" lon="5.31107">
        <ele>166.5</ele>
        <time>2024-03-20T10:31:44.000Z</time>
      </trkpt>
      <trkpt lat="43.50752" lon="5.3111">
        <ele>166.4</ele>
        <time>2024-03-20T10:31:46.000Z</time>
      </trkpt>
      <trkpt lat="43.50751" lon="5.31113">
        <ele>166.3</ele>
        <time>2024-03-20T10:31:48.000Z</time>
      </trkpt>
      <trkpt lat="43.5075" lon="5.31116">
        <ele>166.3</ele>
        <time>2024-03-20T10:31:50.000Z</time>
      </trkpt>
      <trkpt lat="43.50749" lon="5.31118">
        <ele>166.4</ele>
        <time>2024-03-20T10:31:52.000Z</time>
      </trkpt>
      <trkpt lat="43.50749" lon="5.31122">
        <ele>166.7</ele>
        <time>2024-03-20T10:31:54.000Z</time>
      </trkpt>
      <trkpt lat="43.50748" lon="5.31124">
        <ele>166.7</ele>
        <time>2024-03-20T10:31:56.000Z</time>
      </trkpt>
      <trkpt lat="43.50746" lon="5.31127">
        <ele>166.6</ele>
        <time>2024-03-20T10:31:58.000Z</time>
      </trkpt>
      <trkpt lat="43.50745" lon="5.3113">
        <ele>166.6</ele>
        <time>2024-03-20T10:32:00.000Z</time>
      </trkpt>
      <trkpt lat="43.50744" lon="5.31132">
        <ele>166.6</ele>
        <time>2024-03-20T10:32:02.000Z</time>
      </trkpt>
      <trkpt lat="43.50745" lon="5.31135">
        <ele>166.8</ele>
        <time>2024-03-20T10:33:07.000Z</time>
      </trkpt>
      <trkpt lat="43.50745" lon="5.31131">
        <ele>166.6</ele>
        <time>2024-03-20T10:33:46.000Z</time>
      </trkpt>
      <trkpt lat="43.50745" lon="5.31128">
        <ele>166.5</ele>
        <time>2024-03-20T10:33:49.000Z</time>
      </trkpt>
      <trkpt lat="43.50747" lon="5.31126">
        <ele>166.6</ele>
        <time>2024-03-20T10:33:52.000Z</time>
      </trkpt>
      <trkpt lat="43.50749" lon="5.31121">
        <ele>166.5</ele>
        <time>2024-03-20T10:33:57.000Z</time>
      </trkpt>
      <trkpt lat="43.5075" lon="5.31119">
        <ele>166.5</ele>
        <time>2024-03-20T10:33:59.000Z</time>
      </trkpt>
      <trkpt lat="43.50751" lon="5.31117">
        <ele>166.7</ele>
        <time>2024-03-20T10:34:02.000Z</time>
      </trkpt>
      <trkpt lat="43.50752" lon="5.31114">
        <ele>166.6</ele>
        <time>2024-03-20T10:34:05.000Z</time>
      </trkpt>
      <trkpt lat="43.50753" lon="5.31112">
        <ele>166.7</ele>
        <time>2024-03-20T10:34:46.000Z</time>
      </trkpt>
      <trkpt lat="43.50755" lon="5.31109">
        <ele>167</ele>
        <time>2024-03-20T10:34:52.000Z</time>
      </trkpt>
      <trkpt lat="43.50753" lon="5.31107">
        <ele>166.5</ele>
        <time>2024-03-20T10:34:59.000Z</time>
      </trkpt>
      <trkpt lat="43.50752" lon="5.31111">
        <ele>166.5</ele>
        <time>2024-03-20T10:35:06.000Z</time>
      </trkpt>
      <trkpt lat="43.50751" lon="5.31115">
        <ele>166.5</ele>
        <time>2024-03-20T10:35:09.000Z</time>
      </trkpt>
      <trkpt lat="43.5075" lon="5.31118">
        <ele>166.4</ele>
        <time>2024-03-20T10:35:11.000Z</time>
      </trkpt>
      <trkpt lat="43.50748" lon="5.31123">
        <ele>166.6</ele>
        <time>2024-03-20T10:35:14.000Z</time>
      </trkpt>
      <trkpt lat="43.50747" lon="5.31125">
        <ele>166.6</ele>
        <time>2024-03-20T10:35:16.000Z</time>
      </trkpt>
      <trkpt lat="43.50746" lon="5.31128">
        <ele>166.7</ele>
        <time>2024-03-20T10:35:18.000Z</time>
      </trkpt>
      <trkpt lat="43.50745" lon="5.31131">
        <ele>166.6</ele>
        <time>2024-03-20T10:35:20.000Z</time>
      </trkpt>
      <trkpt lat="43.50744" lon="5.31133">
        <ele>166.6</ele>
        <time>2024-03-20T10:35:22.000Z</time>
      </trkpt>
      <trkpt lat="43.50743" lon="5.31136">
        <ele>166.6</ele>
        <time>2024-03-20T10:35:24.000Z</time>
      </trkpt>
      <trkpt lat="43.50742" lon="5.31138">
        <ele>166.5</ele>
        <time>2024-03-20T10:35:26.000Z</time>
      </trkpt>
      <trkpt lat="43.5074" lon="5.3114">
        <ele>166.3</ele>
        <time>2024-03-20T10:35:28.000Z</time>
      </trkpt>
      <trkpt lat="43.50739" lon="5.31144">
        <ele>166.1</ele>
        <time>2024-03-20T10:35:30.000Z</time>
      </trkpt>
      <trkpt lat="43.50738" lon="5.31147">
        <ele>166</ele>
        <time>2024-03-20T10:35:32.000Z</time>
      </trkpt>
      <trkpt lat="43.50737" lon="5.31151">
        <ele>165.8</ele>
        <time>2024-03-20T10:35:34.000Z</time>
      </trkpt>
      <trkpt lat="43.50735" lon="5.31154">
        <ele>165.6</ele>
        <time>2024-03-20T10:35:36.000Z</time>
      </trkpt>
      <trkpt lat="43.50734" lon="5.31156">
        <ele>165.3</ele>
        <time>2024-03-20T10:35:38.000Z</time>
      </trkpt>
      <trkpt lat="43.50733" lon="5.31159">
        <ele>165.2</ele>
        <time>2024-03-20T10:35:40.000Z</time>
      </trkpt>
      <trkpt lat="43.50732" lon="5.31162">
        <ele>165.1</ele>
        <time>2024-03-20T10:35:42.000Z</time>
      </trkpt>
      <trkpt lat="43.50732" lon="5.31168">
        <ele>165</ele>
        <time>2024-03-20T10:35:45.000Z</time>
      </trkpt>
      <trkpt lat="43.50731" lon="5.31171">
        <ele>165.1</ele>
        <time>2024-03-20T10:35:48.000Z</time>
      </trkpt>
      <trkpt lat="43.5073" lon="5.31174">
        <ele>165.1</ele>
        <time>2024-03-20T10:35:50.000Z</time>
      </trkpt>
      <trkpt lat="43.5073" lon="5.31179">
        <ele>165.1</ele>
        <time>2024-03-20T10:35:52.000Z</time>
      </trkpt>
      <trkpt lat="43.5073" lon="5.31181">
        <ele>165.4</ele>
        <time>2024-03-20T10:35:54.000Z</time>
      </trkpt>
      <trkpt lat="43.5073" lon="5.31184">
        <ele>165.4</ele>
        <time>2024-03-20T10:35:56.000Z</time>
      </trkpt>
      <trkpt lat="43.5073" lon="5.31188">
        <ele>165.6</ele>
        <time>2024-03-20T10:35:58.000Z</time>
      </trkpt>
      <trkpt lat="43.5073" lon="5.3119">
        <ele>165.7</ele>
        <time>2024-03-20T10:36:00.000Z</time>
      </trkpt>
      <trkpt lat="43.5073" lon="5.31193">
        <ele>165.9</ele>
        <time>2024-03-20T10:36:02.000Z</time>
      </trkpt>
      <trkpt lat="43.50731" lon="5.31196">
        <ele>166.1</ele>
        <time>2024-03-20T10:36:04.000Z</time>
      </trkpt>
      <trkpt lat="43.50731" lon="5.31199">
        <ele>166.2</ele>
        <time>2024-03-20T10:36:06.000Z</time>
      </trkpt>
      <trkpt lat="43.50731" lon="5.31203">
        <ele>166.3</ele>
        <time>2024-03-20T10:36:08.000Z</time>
      </trkpt>
      <trkpt lat="43.50731" lon="5.31205">
        <ele>166.5</ele>
        <time>2024-03-20T10:36:10.000Z</time>
      </trkpt>
      <trkpt lat="43.50731" lon="5.31208">
        <ele>166.5</ele>
        <time>2024-03-20T10:36:12.000Z</time>
      </trkpt>
      <trkpt lat="43.50732" lon="5.31212">
        <ele>166.8</ele>
        <time>2024-03-20T10:36:14.000Z</time>
      </trkpt>
      <trkpt lat="43.50732" lon="5.31216">
        <ele>166.9</ele>
        <time>2024-03-20T10:36:17.000Z</time>
      </trkpt>
      <trkpt lat="43.50731" lon="5.31219">
        <ele>166.9</ele>
        <time>2024-03-20T10:36:19.000Z</time>
      </trkpt>
      <trkpt lat="43.50732" lon="5.31223">
        <ele>167.2</ele>
        <time>2024-03-20T10:36:21.000Z</time>
      </trkpt>
      <trkpt lat="43.50732" lon="5.31226">
        <ele>167.3</ele>
        <time>2024-03-20T10:36:23.000Z</time>
      </trkpt>
      <trkpt lat="43.50731" lon="5.31229">
        <ele>167.3</ele>
        <time>2024-03-20T10:36:25.000Z</time>
      </trkpt>
      <trkpt lat="43.50731" lon="5.31231">
        <ele>167.2</ele>
        <time>2024-03-20T10:36:27.000Z</time>
      </trkpt>
      <trkpt lat="43.5073" lon="5.31234">
        <ele>167.2</ele>
        <time>2024-03-20T10:36:29.000Z</time>
      </trkpt>
      <trkpt lat="43.50729" lon="5.31236">
        <ele>167.1</ele>
        <time>2024-03-20T10:36:31.000Z</time>
      </trkpt>
      <trkpt lat="43.50728" lon="5.31239">
        <ele>167</ele>
        <time>2024-03-20T10:36:33.000Z</time>
      </trkpt>
      <trkpt lat="43.50727" lon="5.31241">
        <ele>166.9</ele>
        <time>2024-03-20T10:36:35.000Z</time>
      </trkpt>
      <trkpt lat="43.50726" lon="5.31245">
        <ele>166.7</ele>
        <time>2024-03-20T10:36:37.000Z</time>
      </trkpt>
      <trkpt lat="43.50725" lon="5.31249">
        <ele>166.6</ele>
        <time>2024-03-20T10:36:39.000Z</time>
      </trkpt>
      <trkpt lat="43.50724" lon="5.31252">
        <ele>166.6</ele>
        <time>2024-03-20T10:36:41.000Z</time>
      </trkpt>
      <trkpt lat="43.50723" lon="5.31255">
        <ele>166.7</ele>
        <time>2024-03-20T10:36:43.000Z</time>
      </trkpt>
      <trkpt lat="43.50722" lon="5.31258">
        <ele>166.8</ele>
        <time>2024-03-20T10:36:45.000Z</time>
      </trkpt>
      <trkpt lat="43.50721" lon="5.31261">
        <ele>166.9</ele>
        <time>2024-03-20T10:36:47.000Z</time>
      </trkpt>
      <trkpt lat="43.50719" lon="5.31264">
        <ele>167</ele>
        <time>2024-03-20T10:36:50.000Z</time>
      </trkpt>
      <trkpt lat="43.50719" lon="5.31267">
        <ele>167.2</ele>
        <time>2024-03-20T10:36:52.000Z</time>
      </trkpt>
      <trkpt lat="43.50718" lon="5.31271">
        <ele>167.5</ele>
        <time>2024-03-20T10:36:54.000Z</time>
      </trkpt>
      <trkpt lat="43.50717" lon="5.31276">
        <ele>167.8</ele>
        <time>2024-03-20T10:36:57.000Z</time>
      </trkpt>
      <trkpt lat="43.50716" lon="5.31278">
        <ele>167.9</ele>
        <time>2024-03-20T10:36:59.000Z</time>
      </trkpt>
      <trkpt lat="43.50715" lon="5.31281">
        <ele>167.9</ele>
        <time>2024-03-20T10:37:01.000Z</time>
      </trkpt>
      <trkpt lat="43.50715" lon="5.31284">
        <ele>168</ele>
        <time>2024-03-20T10:37:03.000Z</time>
      </trkpt>
      <trkpt lat="43.50715" lon="5.31287">
        <ele>168.2</ele>
        <time>2024-03-20T10:37:05.000Z</time>
      </trkpt>
      <trkpt lat="43.50715" lon="5.3129">
        <ele>168.5</ele>
        <time>2024-03-20T10:37:07.000Z</time>
      </trkpt>
      <trkpt lat="43.50715" lon="5.31294">
        <ele>168.6</ele>
        <time>2024-03-20T10:37:09.000Z</time>
      </trkpt>
      <trkpt lat="43.50715" lon="5.31297">
        <ele>168.8</ele>
        <time>2024-03-20T10:37:11.000Z</time>
      </trkpt>
      <trkpt lat="43.50715" lon="5.313">
        <ele>169.2</ele>
        <time>2024-03-20T10:37:13.000Z</time>
      </trkpt>
      <trkpt lat="43.50715" lon="5.31303">
        <ele>169.4</ele>
        <time>2024-03-20T10:37:15.000Z</time>
      </trkpt>
      <trkpt lat="43.50715" lon="5.31307">
        <ele>169.5</ele>
        <time>2024-03-20T10:37:18.000Z</time>
      </trkpt>
      <trkpt lat="43.50716" lon="5.3131">
        <ele>169.5</ele>
        <time>2024-03-20T10:37:21.000Z</time>
      </trkpt>
      <trkpt lat="43.50718" lon="5.31311">
        <ele>169.9</ele>
        <time>2024-03-20T10:37:33.000Z</time>
      </trkpt>
      <trkpt lat="43.50719" lon="5.31308">
        <ele>170.3</ele>
        <time>2024-03-20T10:37:54.000Z</time>
      </trkpt>
      <trkpt lat="43.50722" lon="5.31306">
        <ele>170.9</ele>
        <time>2024-03-20T10:37:57.000Z</time>
      </trkpt>
      <trkpt lat="43.50723" lon="5.31307">
        <ele>171.1</ele>
        <time>2024-03-20T10:37:59.000Z</time>
      </trkpt>
      <trkpt lat="43.50725" lon="5.31309">
        <ele>171.2</ele>
        <time>2024-03-20T10:38:01.000Z</time>
      </trkpt>
      <trkpt lat="43.50726" lon="5.31312">
        <ele>171.2</ele>
        <time>2024-03-20T10:38:04.000Z</time>
      </trkpt>
      <trkpt lat="43.50727" lon="5.31315">
        <ele>171.3</ele>
        <time>2024-03-20T10:38:06.000Z</time>
      </trkpt>
      <trkpt lat="43.50729" lon="5.31317">
        <ele>171.4</ele>
        <time>2024-03-20T10:38:08.000Z</time>
      </trkpt>
      <trkpt lat="43.5073" lon="5.3132">
        <ele>171.4</ele>
        <time>2024-03-20T10:38:10.000Z</time>
      </trkpt>
      <trkpt lat="43.5073" lon="5.31323">
        <ele>171.4</ele>
        <time>2024-03-20T10:38:12.000Z</time>
      </trkpt>
      <trkpt lat="43.50732" lon="5.31327">
        <ele>171.5</ele>
        <time>2024-03-20T10:38:15.000Z</time>
      </trkpt>
      <trkpt lat="43.50733" lon="5.3133">
        <ele>171.6</ele>
        <time>2024-03-20T10:38:18.000Z</time>
      </trkpt>
      <trkpt lat="43.50734" lon="5.31333">
        <ele>171.7</ele>
        <time>2024-03-20T10:38:20.000Z</time>
      </trkpt>
      <trkpt lat="43.50735" lon="5.31336">
        <ele>172</ele>
        <time>2024-03-20T10:38:23.000Z</time>
      </trkpt>
      <trkpt lat="43.50736" lon="5.31339">
        <ele>172.2</ele>
        <time>2024-03-20T10:38:25.000Z</time>
      </trkpt>
      <trkpt lat="43.50736" lon="5.31342">
        <ele>172.5</ele>
        <time>2024-03-20T10:38:27.000Z</time>
      </trkpt>
      <trkpt lat="43.50737" lon="5.31345">
        <ele>172.7</ele>
        <time>2024-03-20T10:38:29.000Z</time>
      </trkpt>
      <trkpt lat="43.50737" lon="5.31348">
        <ele>172.9</ele>
        <time>2024-03-20T10:38:31.000Z</time>
      </trkpt>
      <trkpt lat="43.50739" lon="5.31351">
        <ele>173.1</ele>
        <time>2024-03-20T10:38:34.000Z</time>
      </trkpt>
      <trkpt lat="43.5074" lon="5.31353">
        <ele>173.4</ele>
        <time>2024-03-20T10:38:36.000Z</time>
      </trkpt>
      <trkpt lat="43.50742" lon="5.31357">
        <ele>173.6</ele>
        <time>2024-03-20T10:38:39.000Z</time>
      </trkpt>
      <trkpt lat="43.50743" lon="5.31359">
        <ele>173.7</ele>
        <time>2024-03-20T10:38:41.000Z</time>
      </trkpt>
      <trkpt lat="43.50746" lon="5.31361">
        <ele>173.8</ele>
        <time>2024-03-20T10:38:44.000Z</time>
      </trkpt>
      <trkpt lat="43.50748" lon="5.31361">
        <ele>173.9</ele>
        <time>2024-03-20T10:38:48.000Z</time>
      </trkpt>
      <trkpt lat="43.5075" lon="5.3136">
        <ele>174</ele>
        <time>2024-03-20T10:38:50.000Z</time>
      </trkpt>
      <trkpt lat="43.50752" lon="5.3136">
        <ele>174.1</ele>
        <time>2024-03-20T10:38:52.000Z</time>
      </trkpt>
      <trkpt lat="43.50754" lon="5.31359">
        <ele>174.2</ele>
        <time>2024-03-20T10:38:54.000Z</time>
      </trkpt>
      <trkpt lat="43.50756" lon="5.31358">
        <ele>174.2</ele>
        <time>2024-03-20T10:38:56.000Z</time>
      </trkpt>
      <trkpt lat="43.50759" lon="5.31356">
        <ele>174.3</ele>
        <time>2024-03-20T10:38:58.000Z</time>
      </trkpt>
      <trkpt lat="43.5076" lon="5.31354">
        <ele>174.4</ele>
        <time>2024-03-20T10:39:00.000Z</time>
      </trkpt>
      <trkpt lat="43.50762" lon="5.31352">
        <ele>174.4</ele>
        <time>2024-03-20T10:39:02.000Z</time>
      </trkpt>
      <trkpt lat="43.50763" lon="5.31349">
        <ele>174.5</ele>
        <time>2024-03-20T10:39:04.000Z</time>
      </trkpt>
      <trkpt lat="43.50765" lon="5.31347">
        <ele>174.5</ele>
        <time>2024-03-20T10:39:06.000Z</time>
      </trkpt>
      <trkpt lat="43.50767" lon="5.31345">
        <ele>174.6</ele>
        <time>2024-03-20T10:39:08.000Z</time>
      </trkpt>
      <trkpt lat="43.50769" lon="5.31343">
        <ele>174.7</ele>
        <time>2024-03-20T10:39:11.000Z</time>
      </trkpt>
      <trkpt lat="43.50771" lon="5.31341">
        <ele>174.7</ele>
        <time>2024-03-20T10:39:13.000Z</time>
      </trkpt>
      <trkpt lat="43.50771" lon="5.31338">
        <ele>174.8</ele>
        <time>2024-03-20T10:39:15.000Z</time>
      </trkpt>
      <trkpt lat="43.50773" lon="5.31335">
        <ele>174.8</ele>
        <time>2024-03-20T10:39:18.000Z</time>
      </trkpt>
      <trkpt lat="43.50774" lon="5.31332">
        <ele>174.9</ele>
        <time>2024-03-20T10:39:20.000Z</time>
      </trkpt>
      <trkpt lat="43.50776" lon="5.31329">
        <ele>175.1</ele>
        <time>2024-03-20T10:39:22.000Z</time>
      </trkpt>
      <trkpt lat="43.50778" lon="5.31326">
        <ele>175.2</ele>
        <time>2024-03-20T10:39:24.000Z</time>
      </trkpt>
      <trkpt lat="43.50779" lon="5.31324">
        <ele>175.4</ele>
        <time>2024-03-20T10:39:26.000Z</time>
      </trkpt>
      <trkpt lat="43.50781" lon="5.31322">
        <ele>175.5</ele>
        <time>2024-03-20T10:39:28.000Z</time>
      </trkpt>
      <trkpt lat="43.50783" lon="5.3132">
        <ele>175.7</ele>
        <time>2024-03-20T10:39:30.000Z</time>
      </trkpt>
      <trkpt lat="43.50785" lon="5.31318">
        <ele>175.8</ele>
        <time>2024-03-20T10:39:32.000Z</time>
      </trkpt>
      <trkpt lat="43.50786" lon="5.31315">
        <ele>176</ele>
        <time>2024-03-20T10:39:34.000Z</time>
      </trkpt>
      <trkpt lat="43.50788" lon="5.31313">
        <ele>176.1</ele>
        <time>2024-03-20T10:39:36.000Z</time>
      </trkpt>
      <trkpt lat="43.5079" lon="5.31311">
        <ele>176.3</ele>
        <time>2024-03-20T10:39:39.000Z</time>
      </trkpt>
      <trkpt lat="43.50792" lon="5.31309">
        <ele>176.4</ele>
        <time>2024-03-20T10:39:41.000Z</time>
      </trkpt>
      <trkpt lat="43.50794" lon="5.31307">
        <ele>176.5</ele>
        <time>2024-03-20T10:39:44.000Z</time>
      </trkpt>
      <trkpt lat="43.50795" lon="5.31306">
        <ele>176.6</ele>
        <time>2024-03-20T10:39:46.000Z</time>
      </trkpt>
      <trkpt lat="43.50796" lon="5.31304">
        <ele>176.7</ele>
        <time>2024-03-20T10:39:48.000Z</time>
      </trkpt>
      <trkpt lat="43.50797" lon="5.31301">
        <ele>176.8</ele>
        <time>2024-03-20T10:39:50.000Z</time>
      </trkpt>
      <trkpt lat="43.50799" lon="5.31298">
        <ele>176.8</ele>
        <time>2024-03-20T10:39:52.000Z</time>
      </trkpt>
      <trkpt lat="43.50801" lon="5.31296">
        <ele>176.9</ele>
        <time>2024-03-20T10:39:54.000Z</time>
      </trkpt>
      <trkpt lat="43.50802" lon="5.31293">
        <ele>176.9</ele>
        <time>2024-03-20T10:39:56.000Z</time>
      </trkpt>
      <trkpt lat="43.50804" lon="5.31291">
        <ele>177</ele>
        <time>2024-03-20T10:39:58.000Z</time>
      </trkpt>
      <trkpt lat="43.50805" lon="5.31288">
        <ele>177</ele>
        <time>2024-03-20T10:40:00.000Z</time>
      </trkpt>
      <trkpt lat="43.50807" lon="5.31285">
        <ele>177</ele>
        <time>2024-03-20T10:40:02.000Z</time>
      </trkpt>
      <trkpt lat="43.50808" lon="5.31283">
        <ele>177.1</ele>
        <time>2024-03-20T10:40:04.000Z</time>
      </trkpt>
      <trkpt lat="43.50809" lon="5.3128">
        <ele>177.1</ele>
        <time>2024-03-20T10:40:06.000Z</time>
      </trkpt>
      <trkpt lat="43.5081" lon="5.31277">
        <ele>177.2</ele>
        <time>2024-03-20T10:40:08.000Z</time>
      </trkpt>
      <trkpt lat="43.50812" lon="5.31274">
        <ele>177.4</ele>
        <time>2024-03-20T10:40:10.000Z</time>
      </trkpt>
      <trkpt lat="43.50813" lon="5.31271">
        <ele>177.5</ele>
        <time>2024-03-20T10:40:12.000Z</time>
      </trkpt>
      <trkpt lat="43.50815" lon="5.31269">
        <ele>177.7</ele>
        <time>2024-03-20T10:40:14.000Z</time>
      </trkpt>
      <trkpt lat="43.50815" lon="5.31265">
        <ele>177.8</ele>
        <time>2024-03-20T10:40:16.000Z</time>
      </trkpt>
      <trkpt lat="43.50817" lon="5.31262">
        <ele>178</ele>
        <time>2024-03-20T10:40:18.000Z</time>
      </trkpt>
      <trkpt lat="43.50819" lon="5.3126">
        <ele>178.1</ele>
        <time>2024-03-20T10:40:20.000Z</time>
      </trkpt>
      <trkpt lat="43.5082" lon="5.31259">
        <ele>178.2</ele>
        <time>2024-03-20T10:40:22.000Z</time>
      </trkpt>
      <trkpt lat="43.50822" lon="5.31255">
        <ele>178.4</ele>
        <time>2024-03-20T10:40:24.000Z</time>
      </trkpt>
      <trkpt lat="43.50823" lon="5.31253">
        <ele>178.5</ele>
        <time>2024-03-20T10:40:26.000Z</time>
      </trkpt>
      <trkpt lat="43.50823" lon="5.3125">
        <ele>178.6</ele>
        <time>2024-03-20T10:40:28.000Z</time>
      </trkpt>
      <trkpt lat="43.50823" lon="5.31246">
        <ele>178.6</ele>
        <time>2024-03-20T10:40:30.000Z</time>
      </trkpt>
      <trkpt lat="43.50824" lon="5.31243">
        <ele>178.7</ele>
        <time>2024-03-20T10:40:32.000Z</time>
      </trkpt>
      <trkpt lat="43.50824" lon="5.3124">
        <ele>178.6</ele>
        <time>2024-03-20T10:40:34.000Z</time>
      </trkpt>
      <trkpt lat="43.50824" lon="5.31237">
        <ele>178.7</ele>
        <time>2024-03-20T10:40:36.000Z</time>
      </trkpt>
      <trkpt lat="43.50826" lon="5.31233">
        <ele>178.7</ele>
        <time>2024-03-20T10:40:39.000Z</time>
      </trkpt>
      <trkpt lat="43.50827" lon="5.31231">
        <ele>178.8</ele>
        <time>2024-03-20T10:40:41.000Z</time>
      </trkpt>
      <trkpt lat="43.50829" lon="5.31227">
        <ele>178.8</ele>
        <time>2024-03-20T10:40:44.000Z</time>
      </trkpt>
      <trkpt lat="43.50829" lon="5.31224">
        <ele>178.9</ele>
        <time>2024-03-20T10:40:46.000Z</time>
      </trkpt>
      <trkpt lat="43.50831" lon="5.31222">
        <ele>178.9</ele>
        <time>2024-03-20T10:40:48.000Z</time>
      </trkpt>
      <trkpt lat="43.50832" lon="5.31218">
        <ele>178.9</ele>
        <time>2024-03-20T10:40:50.000Z</time>
      </trkpt>
      <trkpt lat="43.50833" lon="5.31215">
        <ele>179</ele>
        <time>2024-03-20T10:40:52.000Z</time>
      </trkpt>
      <trkpt lat="43.50833" lon="5.31212">
        <ele>179</ele>
        <time>2024-03-20T10:40:55.000Z</time>
      </trkpt>
      <trkpt lat="43.50835" lon="5.31208">
        <ele>179.1</ele>
        <time>2024-03-20T10:40:57.000Z</time>
      </trkpt>
      <trkpt lat="43.50837" lon="5.31205">
        <ele>179.3</ele>
        <time>2024-03-20T10:41:00.000Z</time>
      </trkpt>
      <trkpt lat="43.50839" lon="5.31203">
        <ele>179.6</ele>
        <time>2024-03-20T10:41:03.000Z</time>
      </trkpt>
      <trkpt lat="43.50841" lon="5.312">
        <ele>179.7</ele>
        <time>2024-03-20T10:41:05.000Z</time>
      </trkpt>
      <trkpt lat="43.50841" lon="5.31198">
        <ele>179.8</ele>
        <time>2024-03-20T10:41:07.000Z</time>
      </trkpt>
      <trkpt lat="43.50843" lon="5.31195">
        <ele>180</ele>
        <time>2024-03-20T10:41:09.000Z</time>
      </trkpt>
      <trkpt lat="43.50845" lon="5.31194">
        <ele>180.3</ele>
        <time>2024-03-20T10:41:11.000Z</time>
      </trkpt>
      <trkpt lat="43.50847" lon="5.31193">
        <ele>180.5</ele>
        <time>2024-03-20T10:41:13.000Z</time>
      </trkpt>
      <trkpt lat="43.50849" lon="5.31191">
        <ele>180.6</ele>
        <time>2024-03-20T10:41:15.000Z</time>
      </trkpt>
      <trkpt lat="43.5085" lon="5.31189">
        <ele>180.8</ele>
        <time>2024-03-20T10:41:17.000Z</time>
      </trkpt>
      <trkpt lat="43.50852" lon="5.31187">
        <ele>180.9</ele>
        <time>2024-03-20T10:41:19.000Z</time>
      </trkpt>
      <trkpt lat="43.50854" lon="5.31186">
        <ele>181.1</ele>
        <time>2024-03-20T10:41:21.000Z</time>
      </trkpt>
      <trkpt lat="43.50856" lon="5.31184">
        <ele>181.2</ele>
        <time>2024-03-20T10:41:24.000Z</time>
      </trkpt>
      <trkpt lat="43.50858" lon="5.31183">
        <ele>181.4</ele>
        <time>2024-03-20T10:41:26.000Z</time>
      </trkpt>
      <trkpt lat="43.50862" lon="5.3118">
        <ele>181.5</ele>
        <time>2024-03-20T10:41:29.000Z</time>
      </trkpt>
      <trkpt lat="43.50865" lon="5.31178">
        <ele>181.5</ele>
        <time>2024-03-20T10:41:31.000Z</time>
      </trkpt>
      <trkpt lat="43.50868" lon="5.31178">
        <ele>181.7</ele>
        <time>2024-03-20T10:41:33.000Z</time>
      </trkpt>
      <trkpt lat="43.5087" lon="5.31178">
        <ele>181.7</ele>
        <time>2024-03-20T10:41:35.000Z</time>
      </trkpt>
      <trkpt lat="43.50872" lon="5.31178">
        <ele>181.8</ele>
        <time>2024-03-20T10:41:37.000Z</time>
      </trkpt>
      <trkpt lat="43.50874" lon="5.31177">
        <ele>181.8</ele>
        <time>2024-03-20T10:41:39.000Z</time>
      </trkpt>
      <trkpt lat="43.50876" lon="5.31177">
        <ele>181.9</ele>
        <time>2024-03-20T10:41:41.000Z</time>
      </trkpt>
      <trkpt lat="43.50878" lon="5.31176">
        <ele>182</ele>
        <time>2024-03-20T10:41:43.000Z</time>
      </trkpt>
      <trkpt lat="43.50881" lon="5.31176">
        <ele>182</ele>
        <time>2024-03-20T10:41:46.000Z</time>
      </trkpt>
      <trkpt lat="43.50883" lon="5.31175">
        <ele>182.1</ele>
        <time>2024-03-20T10:41:48.000Z</time>
      </trkpt>
      <trkpt lat="43.50886" lon="5.31176">
        <ele>182.2</ele>
        <time>2024-03-20T10:41:50.000Z</time>
      </trkpt>
      <trkpt lat="43.50889" lon="5.31177">
        <ele>182.4</ele>
        <time>2024-03-20T10:41:53.000Z</time>
      </trkpt>
      <trkpt lat="43.50891" lon="5.31177">
        <ele>182.4</ele>
        <time>2024-03-20T10:41:55.000Z</time>
      </trkpt>
      <trkpt lat="43.50893" lon="5.31176">
        <ele>182.4</ele>
        <time>2024-03-20T10:41:57.000Z</time>
      </trkpt>
      <trkpt lat="43.50895" lon="5.31175">
        <ele>182.4</ele>
        <time>2024-03-20T10:42:00.000Z</time>
      </trkpt>
      <trkpt lat="43.50897" lon="5.31173">
        <ele>182.4</ele>
        <time>2024-03-20T10:43:37.000Z</time>
      </trkpt>
      <trkpt lat="43.50899" lon="5.31174">
        <ele>182.4</ele>
        <time>2024-03-20T10:43:40.000Z</time>
      </trkpt>
      <trkpt lat="43.50901" lon="5.31175">
        <ele>182.5</ele>
        <time>2024-03-20T10:43:42.000Z</time>
      </trkpt>
      <trkpt lat="43.50904" lon="5.31174">
        <ele>182.5</ele>
        <time>2024-03-20T10:43:45.000Z</time>
      </trkpt>
      <trkpt lat="43.50906" lon="5.31176">
        <ele>182.5</ele>
        <time>2024-03-20T10:43:47.000Z</time>
      </trkpt>
      <trkpt lat="43.50907" lon="5.31176">
        <ele>182.6</ele>
        <time>2024-03-20T10:43:49.000Z</time>
      </trkpt>
      <trkpt lat="43.5091" lon="5.31176">
        <ele>182.6</ele>
        <time>2024-03-20T10:43:52.000Z</time>
      </trkpt>
      <trkpt lat="43.50912" lon="5.31176">
        <ele>182.6</ele>
        <time>2024-03-20T10:43:55.000Z</time>
      </trkpt>
      <trkpt lat="43.50915" lon="5.31177">
        <ele>182.6</ele>
        <time>2024-03-20T10:43:57.000Z</time>
      </trkpt>
      <trkpt lat="43.50917" lon="5.31178">
        <ele>182.6</ele>
        <time>2024-03-20T10:43:59.000Z</time>
      </trkpt>
      <trkpt lat="43.5092" lon="5.31178">
        <ele>182.5</ele>
        <time>2024-03-20T10:44:02.000Z</time>
      </trkpt>
      <trkpt lat="43.50922" lon="5.31179">
        <ele>182.5</ele>
        <time>2024-03-20T10:44:04.000Z</time>
      </trkpt>
      <trkpt lat="43.50924" lon="5.3118">
        <ele>182.4</ele>
        <time>2024-03-20T10:44:06.000Z</time>
      </trkpt>
      <trkpt lat="43.50926" lon="5.31181">
        <ele>182.3</ele>
        <time>2024-03-20T10:44:08.000Z</time>
      </trkpt>
      <trkpt lat="43.50928" lon="5.31182">
        <ele>182.2</ele>
        <time>2024-03-20T10:44:10.000Z</time>
      </trkpt>
      <trkpt lat="43.5093" lon="5.31184">
        <ele>182.1</ele>
        <time>2024-03-20T10:44:12.000Z</time>
      </trkpt>
      <trkpt lat="43.50932" lon="5.31186">
        <ele>181.9</ele>
        <time>2024-03-20T10:44:14.000Z</time>
      </trkpt>
      <trkpt lat="43.50934" lon="5.31189">
        <ele>181.7</ele>
        <time>2024-03-20T10:44:17.000Z</time>
      </trkpt>
      <trkpt lat="43.50937" lon="5.3119">
        <ele>181.6</ele>
        <time>2024-03-20T10:44:19.000Z</time>
      </trkpt>
      <trkpt lat="43.50939" lon="5.31192">
        <ele>181.4</ele>
        <time>2024-03-20T10:44:21.000Z</time>
      </trkpt>
      <trkpt lat="43.50941" lon="5.31193">
        <ele>181.2</ele>
        <time>2024-03-20T10:44:23.000Z</time>
      </trkpt>
      <trkpt lat="43.50943" lon="5.31195">
        <ele>181</ele>
        <time>2024-03-20T10:44:25.000Z</time>
      </trkpt>
      <trkpt lat="43.50944" lon="5.31196">
        <ele>180.9</ele>
        <time>2024-03-20T10:44:27.000Z</time>
      </trkpt>
      <trkpt lat="43.50946" lon="5.31198">
        <ele>180.8</ele>
        <time>2024-03-20T10:44:30.000Z</time>
      </trkpt>
      <trkpt lat="43.50948" lon="5.312">
        <ele>180.7</ele>
        <time>2024-03-20T10:44:32.000Z</time>
      </trkpt>
      <trkpt lat="43.5095" lon="5.31202">
        <ele>180.6</ele>
        <time>2024-03-20T10:44:34.000Z</time>
      </trkpt>
      <trkpt lat="43.50951" lon="5.31204">
        <ele>180.5</ele>
        <time>2024-03-20T10:44:36.000Z</time>
      </trkpt>
      <trkpt lat="43.50953" lon="5.31207">
        <ele>180.4</ele>
        <time>2024-03-20T10:44:38.000Z</time>
      </trkpt>
      <trkpt lat="43.50954" lon="5.31209">
        <ele>180.3</ele>
        <time>2024-03-20T10:44:40.000Z</time>
      </trkpt>
      <trkpt lat="43.50955" lon="5.3121">
        <ele>180.2</ele>
        <time>2024-03-20T10:44:42.000Z</time>
      </trkpt>
      <trkpt lat="43.50957" lon="5.31212">
        <ele>180.2</ele>
        <time>2024-03-20T10:44:44.000Z</time>
      </trkpt>
      <trkpt lat="43.50959" lon="5.31213">
        <ele>180.2</ele>
        <time>2024-03-20T10:44:46.000Z</time>
      </trkpt>
      <trkpt lat="43.5096" lon="5.31214">
        <ele>180.1</ele>
        <time>2024-03-20T10:44:48.000Z</time>
      </trkpt>
      <trkpt lat="43.50962" lon="5.31215">
        <ele>180.2</ele>
        <time>2024-03-20T10:44:50.000Z</time>
      </trkpt>
      <trkpt lat="43.50964" lon="5.31217">
        <ele>180.1</ele>
        <time>2024-03-20T10:44:52.000Z</time>
      </trkpt>
      <trkpt lat="43.50966" lon="5.31218">
        <ele>180.1</ele>
        <time>2024-03-20T10:44:54.000Z</time>
      </trkpt>
      <trkpt lat="43.50969" lon="5.3122">
        <ele>180</ele>
        <time>2024-03-20T10:44:56.000Z</time>
      </trkpt>
      <trkpt lat="43.50971" lon="5.31222">
        <ele>180</ele>
        <time>2024-03-20T10:44:58.000Z</time>
      </trkpt>
      <trkpt lat="43.50973" lon="5.31223">
        <ele>180</ele>
        <time>2024-03-20T10:45:00.000Z</time>
      </trkpt>
      <trkpt lat="43.50975" lon="5.31224">
        <ele>180.1</ele>
        <time>2024-03-20T10:45:02.000Z</time>
      </trkpt>
      <trkpt lat="43.50977" lon="5.31225">
        <ele>180.1</ele>
        <time>2024-03-20T10:45:04.000Z</time>
      </trkpt>
      <trkpt lat="43.50979" lon="5.31227">
        <ele>180.1</ele>
        <time>2024-03-20T10:45:06.000Z</time>
      </trkpt>
      <trkpt lat="43.50981" lon="5.31229">
        <ele>180.1</ele>
        <time>2024-03-20T10:45:08.000Z</time>
      </trkpt>
      <trkpt lat="43.50983" lon="5.31232">
        <ele>180.1</ele>
        <time>2024-03-20T10:45:10.000Z</time>
      </trkpt>
      <trkpt lat="43.50985" lon="5.31233">
        <ele>180.1</ele>
        <time>2024-03-20T10:45:12.000Z</time>
      </trkpt>
      <trkpt lat="43.50987" lon="5.31233">
        <ele>180.2</ele>
        <time>2024-03-20T10:45:15.000Z</time>
      </trkpt>
      <trkpt lat="43.50989" lon="5.31234">
        <ele>180.2</ele>
        <time>2024-03-20T10:45:17.000Z</time>
      </trkpt>
      <trkpt lat="43.50992" lon="5.31235">
        <ele>180.2</ele>
        <time>2024-03-20T10:45:19.000Z</time>
      </trkpt>
      <trkpt lat="43.50993" lon="5.31236">
        <ele>180.3</ele>
        <time>2024-03-20T10:45:21.000Z</time>
      </trkpt>
      <trkpt lat="43.50995" lon="5.31237">
        <ele>180.3</ele>
        <time>2024-03-20T10:45:23.000Z</time>
      </trkpt>
      <trkpt lat="43.50997" lon="5.31239">
        <ele>180.3</ele>
        <time>2024-03-20T10:45:25.000Z</time>
      </trkpt>
      <trkpt lat="43.50999" lon="5.3124">
        <ele>180.3</ele>
        <time>2024-03-20T10:45:27.000Z</time>
      </trkpt>
      <trkpt lat="43.51001" lon="5.31241">
        <ele>180.3</ele>
        <time>2024-03-20T10:45:29.000Z</time>
      </trkpt>
      <trkpt lat="43.51003" lon="5.31243">
        <ele>180.2</ele>
        <time>2024-03-20T10:45:32.000Z</time>
      </trkpt>
      <trkpt lat="43.51005" lon="5.31244">
        <ele>180</ele>
        <time>2024-03-20T10:45:34.000Z</time>
      </trkpt>
      <trkpt lat="43.51007" lon="5.31246">
        <ele>179.9</ele>
        <time>2024-03-20T10:45:36.000Z</time>
      </trkpt>
      <trkpt lat="43.51009" lon="5.31247">
        <ele>179.8</ele>
        <time>2024-03-20T10:45:39.000Z</time>
      </trkpt>
      <trkpt lat="43.51011" lon="5.31249">
        <ele>179.6</ele>
        <time>2024-03-20T10:45:41.000Z</time>
      </trkpt>
      <trkpt lat="43.51013" lon="5.3125">
        <ele>179.6</ele>
        <time>2024-03-20T10:45:43.000Z</time>
      </trkpt>
      <trkpt lat="43.51015" lon="5.31251">
        <ele>179.4</ele>
        <time>2024-03-20T10:45:45.000Z</time>
      </trkpt>
      <trkpt lat="43.51017" lon="5.31253">
        <ele>179.2</ele>
        <time>2024-03-20T10:45:48.000Z</time>
      </trkpt>
      <trkpt lat="43.51019" lon="5.31254">
        <ele>179</ele>
        <time>2024-03-20T10:45:50.000Z</time>
      </trkpt>
      <trkpt lat="43.51021" lon="5.31255">
        <ele>178.9</ele>
        <time>2024-03-20T10:45:52.000Z</time>
      </trkpt>
      <trkpt lat="43.51023" lon="5.31257">
        <ele>178.7</ele>
        <time>2024-03-20T10:45:54.000Z</time>
      </trkpt>
      <trkpt lat="43.51024" lon="5.31259">
        <ele>178.5</ele>
        <time>2024-03-20T10:45:56.000Z</time>
      </trkpt>
      <trkpt lat="43.51025" lon="5.31261">
        <ele>178.3</ele>
        <time>2024-03-20T10:45:58.000Z</time>
      </trkpt>
      <trkpt lat="43.51027" lon="5.31263">
        <ele>178.1</ele>
        <time>2024-03-20T10:46:01.000Z</time>
      </trkpt>
      <trkpt lat="43.51029" lon="5.31266">
        <ele>177.9</ele>
        <time>2024-03-20T10:46:03.000Z</time>
      </trkpt>
      <trkpt lat="43.51031" lon="5.31268">
        <ele>177.7</ele>
        <time>2024-03-20T10:46:05.000Z</time>
      </trkpt>
      <trkpt lat="43.51033" lon="5.3127">
        <ele>177.6</ele>
        <time>2024-03-20T10:46:07.000Z</time>
      </trkpt>
      <trkpt lat="43.51035" lon="5.31272">
        <ele>177.4</ele>
        <time>2024-03-20T10:46:09.000Z</time>
      </trkpt>
      <trkpt lat="43.51036" lon="5.31274">
        <ele>177.3</ele>
        <time>2024-03-20T10:46:11.000Z</time>
      </trkpt>
      <trkpt lat="43.51039" lon="5.31276">
        <ele>177.1</ele>
        <time>2024-03-20T10:46:14.000Z</time>
      </trkpt>
      <trkpt lat="43.5104" lon="5.31279">
        <ele>176.9</ele>
        <time>2024-03-20T10:46:16.000Z</time>
      </trkpt>
      <trkpt lat="43.51042" lon="5.31281">
        <ele>176.7</ele>
        <time>2024-03-20T10:46:18.000Z</time>
      </trkpt>
      <trkpt lat="43.51043" lon="5.31283">
        <ele>176.5</ele>
        <time>2024-03-20T10:46:20.000Z</time>
      </trkpt>
      <trkpt lat="43.51045" lon="5.31285">
        <ele>176.3</ele>
        <time>2024-03-20T10:46:23.000Z</time>
      </trkpt>
      <trkpt lat="43.51047" lon="5.31287">
        <ele>176</ele>
        <time>2024-03-20T10:46:26.000Z</time>
      </trkpt>
      <trkpt lat="43.51048" lon="5.31288">
        <ele>175.9</ele>
        <time>2024-03-20T10:46:28.000Z</time>
      </trkpt>
      <trkpt lat="43.5105" lon="5.3129">
        <ele>175.7</ele>
        <time>2024-03-20T10:46:31.000Z</time>
      </trkpt>
      <trkpt lat="43.51052" lon="5.31291">
        <ele>175.6</ele>
        <time>2024-03-20T10:46:33.000Z</time>
      </trkpt>
      <trkpt lat="43.51054" lon="5.31292">
        <ele>175.5</ele>
        <time>2024-03-20T10:46:35.000Z</time>
      </trkpt>
      <trkpt lat="43.51058" lon="5.31294">
        <ele>175.2</ele>
        <time>2024-03-20T10:46:38.000Z</time>
      </trkpt>
      <trkpt lat="43.5106" lon="5.31296">
        <ele>175</ele>
        <time>2024-03-20T10:46:40.000Z</time>
      </trkpt>
      <trkpt lat="43.51062" lon="5.31298">
        <ele>174.8</ele>
        <time>2024-03-20T10:46:42.000Z</time>
      </trkpt>
      <trkpt lat="43.51064" lon="5.31301">
        <ele>174.5</ele>
        <time>2024-03-20T10:46:45.000Z</time>
      </trkpt>
      <trkpt lat="43.51065" lon="5.31302">
        <ele>174.3</ele>
        <time>2024-03-20T10:46:47.000Z</time>
      </trkpt>
      <trkpt lat="43.51067" lon="5.31304">
        <ele>174.1</ele>
        <time>2024-03-20T10:46:49.000Z</time>
      </trkpt>
      <trkpt lat="43.51069" lon="5.31306">
        <ele>173.9</ele>
        <time>2024-03-20T10:46:51.000Z</time>
      </trkpt>
      <trkpt lat="43.51071" lon="5.31309">
        <ele>173.6</ele>
        <time>2024-03-20T10:46:53.000Z</time>
      </trkpt>
      <trkpt lat="43.51072" lon="5.31311">
        <ele>173.4</ele>
        <time>2024-03-20T10:46:55.000Z</time>
      </trkpt>
      <trkpt lat="43.51074" lon="5.31312">
        <ele>173.2</ele>
        <time>2024-03-20T10:46:57.000Z</time>
      </trkpt>
      <trkpt lat="43.51076" lon="5.31315">
        <ele>172.9</ele>
        <time>2024-03-20T10:46:59.000Z</time>
      </trkpt>
      <trkpt lat="43.51078" lon="5.31316">
        <ele>172.8</ele>
        <time>2024-03-20T10:47:01.000Z</time>
      </trkpt>
      <trkpt lat="43.51079" lon="5.31318">
        <ele>172.6</ele>
        <time>2024-03-20T10:47:03.000Z</time>
      </trkpt>
      <trkpt lat="43.51081" lon="5.3132">
        <ele>172.4</ele>
        <time>2024-03-20T10:47:05.000Z</time>
      </trkpt>
      <trkpt lat="43.51083" lon="5.31321">
        <ele>172.3</ele>
        <time>2024-03-20T10:47:07.000Z</time>
      </trkpt>
      <trkpt lat="43.51085" lon="5.31323">
        <ele>172.1</ele>
        <time>2024-03-20T10:47:09.000Z</time>
      </trkpt>
      <trkpt lat="43.51087" lon="5.31324">
        <ele>171.9</ele>
        <time>2024-03-20T10:47:11.000Z</time>
      </trkpt>
      <trkpt lat="43.51089" lon="5.31325">
        <ele>171.7</ele>
        <time>2024-03-20T10:47:13.000Z</time>
      </trkpt>
      <trkpt lat="43.51091" lon="5.31326">
        <ele>171.4</ele>
        <time>2024-03-20T10:47:15.000Z</time>
      </trkpt>
      <trkpt lat="43.51094" lon="5.31328">
        <ele>171.2</ele>
        <time>2024-03-20T10:47:18.000Z</time>
      </trkpt>
      <trkpt lat="43.51096" lon="5.31329">
        <ele>170.9</ele>
        <time>2024-03-20T10:47:20.000Z</time>
      </trkpt>
      <trkpt lat="43.51098" lon="5.3133">
        <ele>170.8</ele>
        <time>2024-03-20T10:47:22.000Z</time>
      </trkpt>
      <trkpt lat="43.51099" lon="5.31331">
        <ele>170.6</ele>
        <time>2024-03-20T10:47:24.000Z</time>
      </trkpt>
      <trkpt lat="43.51101" lon="5.31333">
        <ele>170.4</ele>
        <time>2024-03-20T10:47:26.000Z</time>
      </trkpt>
      <trkpt lat="43.51103" lon="5.31334">
        <ele>170.3</ele>
        <time>2024-03-20T10:47:28.000Z</time>
      </trkpt>
      <trkpt lat="43.51106" lon="5.31336">
        <ele>170.1</ele>
        <time>2024-03-20T10:47:31.000Z</time>
      </trkpt>
      <trkpt lat="43.51108" lon="5.31337">
        <ele>170</ele>
        <time>2024-03-20T10:47:33.000Z</time>
      </trkpt>
      <trkpt lat="43.5111" lon="5.31338">
        <ele>169.8</ele>
        <time>2024-03-20T10:47:35.000Z</time>
      </trkpt>
      <trkpt lat="43.51112" lon="5.31339">
        <ele>169.6</ele>
        <time>2024-03-20T10:47:37.000Z</time>
      </trkpt>
      <trkpt lat="43.51114" lon="5.31341">
        <ele>169.4</ele>
        <time>2024-03-20T10:47:39.000Z</time>
      </trkpt>
      <trkpt lat="43.51115" lon="5.31343">
        <ele>169.2</ele>
        <time>2024-03-20T10:47:41.000Z</time>
      </trkpt>
      <trkpt lat="43.51117" lon="5.31346">
        <ele>168.9</ele>
        <time>2024-03-20T10:47:44.000Z</time>
      </trkpt>
      <trkpt lat="43.51119" lon="5.31347">
        <ele>168.8</ele>
        <time>2024-03-20T10:47:46.000Z</time>
      </trkpt>
      <trkpt lat="43.51121" lon="5.3135">
        <ele>168.7</ele>
        <time>2024-03-20T10:47:49.000Z</time>
      </trkpt>
      <trkpt lat="43.51123" lon="5.31352">
        <ele>168.6</ele>
        <time>2024-03-20T10:47:51.000Z</time>
      </trkpt>
      <trkpt lat="43.51124" lon="5.31353">
        <ele>168.6</ele>
        <time>2024-03-20T10:47:53.000Z</time>
      </trkpt>
      <trkpt lat="43.51126" lon="5.31355">
        <ele>168.6</ele>
        <time>2024-03-20T10:47:56.000Z</time>
      </trkpt>
      <trkpt lat="43.51128" lon="5.31357">
        <ele>168.7</ele>
        <time>2024-03-20T10:47:58.000Z</time>
      </trkpt>
      <trkpt lat="43.51129" lon="5.31359">
        <ele>168.8</ele>
        <time>2024-03-20T10:48:00.000Z</time>
      </trkpt>
      <trkpt lat="43.51131" lon="5.31359">
        <ele>168.8</ele>
        <time>2024-03-20T10:48:02.000Z</time>
      </trkpt>
      <trkpt lat="43.51133" lon="5.31359">
        <ele>168.8</ele>
        <time>2024-03-20T10:48:04.000Z</time>
      </trkpt>
      <trkpt lat="43.51136" lon="5.31361">
        <ele>168.9</ele>
        <time>2024-03-20T10:48:06.000Z</time>
      </trkpt>
      <trkpt lat="43.51137" lon="5.31363">
        <ele>168.9</ele>
        <time>2024-03-20T10:48:08.000Z</time>
      </trkpt>
      <trkpt lat="43.51139" lon="5.31364">
        <ele>168.9</ele>
        <time>2024-03-20T10:48:10.000Z</time>
      </trkpt>
      <trkpt lat="43.51141" lon="5.31368">
        <ele>168.7</ele>
        <time>2024-03-20T10:48:13.000Z</time>
      </trkpt>
      <trkpt lat="43.51142" lon="5.3137">
        <ele>168.6</ele>
        <time>2024-03-20T10:48:15.000Z</time>
      </trkpt>
      <trkpt lat="43.51143" lon="5.31373">
        <ele>168.5</ele>
        <time>2024-03-20T10:48:17.000Z</time>
      </trkpt>
      <trkpt lat="43.51144" lon="5.31376">
        <ele>168.4</ele>
        <time>2024-03-20T10:48:19.000Z</time>
      </trkpt>
      <trkpt lat="43.51146" lon="5.31378">
        <ele>168.3</ele>
        <time>2024-03-20T10:48:22.000Z</time>
      </trkpt>
      <trkpt lat="43.51148" lon="5.3138">
        <ele>168.2</ele>
        <time>2024-03-20T10:48:24.000Z</time>
      </trkpt>
      <trkpt lat="43.5115" lon="5.31382">
        <ele>168.2</ele>
        <time>2024-03-20T10:48:26.000Z</time>
      </trkpt>
      <trkpt lat="43.51152" lon="5.31382">
        <ele>168.1</ele>
        <time>2024-03-20T10:48:28.000Z</time>
      </trkpt>
      <trkpt lat="43.51154" lon="5.31384">
        <ele>168.1</ele>
        <time>2024-03-20T10:48:30.000Z</time>
      </trkpt>
      <trkpt lat="43.51156" lon="5.31385">
        <ele>168.1</ele>
        <time>2024-03-20T10:48:32.000Z</time>
      </trkpt>
      <trkpt lat="43.51159" lon="5.31386">
        <ele>168</ele>
        <time>2024-03-20T10:48:34.000Z</time>
      </trkpt>
      <trkpt lat="43.51161" lon="5.31387">
        <ele>168</ele>
        <time>2024-03-20T10:48:36.000Z</time>
      </trkpt>
      <trkpt lat="43.51163" lon="5.31388">
        <ele>168</ele>
        <time>2024-03-20T10:48:39.000Z</time>
      </trkpt>
      <trkpt lat="43.51165" lon="5.31387">
        <ele>168</ele>
        <time>2024-03-20T10:48:41.000Z</time>
      </trkpt>
      <trkpt lat="43.51168" lon="5.31386">
        <ele>167.9</ele>
        <time>2024-03-20T10:48:43.000Z</time>
      </trkpt>
      <trkpt lat="43.51171" lon="5.31385">
        <ele>167.6</ele>
        <time>2024-03-20T10:48:46.000Z</time>
      </trkpt>
      <trkpt lat="43.51173" lon="5.31384">
        <ele>167.3</ele>
        <time>2024-03-20T10:48:48.000Z</time>
      </trkpt>
      <trkpt lat="43.51175" lon="5.31384">
        <ele>167.1</ele>
        <time>2024-03-20T10:48:50.000Z</time>
      </trkpt>
      <trkpt lat="43.51178" lon="5.31383">
        <ele>166.8</ele>
        <time>2024-03-20T10:48:53.000Z</time>
      </trkpt>
      <trkpt lat="43.5118" lon="5.31383">
        <ele>166.6</ele>
        <time>2024-03-20T10:48:55.000Z</time>
      </trkpt>
      <trkpt lat="43.51183" lon="5.31382">
        <ele>166.3</ele>
        <time>2024-03-20T10:48:58.000Z</time>
      </trkpt>
      <trkpt lat="43.51185" lon="5.3138">
        <ele>166.1</ele>
        <time>2024-03-20T10:49:00.000Z</time>
      </trkpt>
      <trkpt lat="43.51186" lon="5.31378">
        <ele>165.9</ele>
        <time>2024-03-20T10:49:03.000Z</time>
      </trkpt>
      <trkpt lat="43.51188" lon="5.31377">
        <ele>165.7</ele>
        <time>2024-03-20T10:49:05.000Z</time>
      </trkpt>
      <trkpt lat="43.5119" lon="5.31376">
        <ele>165.5</ele>
        <time>2024-03-20T10:49:07.000Z</time>
      </trkpt>
      <trkpt lat="43.51192" lon="5.31375">
        <ele>165.3</ele>
        <time>2024-03-20T10:49:10.000Z</time>
      </trkpt>
      <trkpt lat="43.51194" lon="5.31374">
        <ele>165.1</ele>
        <time>2024-03-20T10:49:13.000Z</time>
      </trkpt>
      <trkpt lat="43.51196" lon="5.31374">
        <ele>164.8</ele>
        <time>2024-03-20T10:49:15.000Z</time>
      </trkpt>
      <trkpt lat="43.51199" lon="5.31373">
        <ele>164.6</ele>
        <time>2024-03-20T10:49:17.000Z</time>
      </trkpt>
      <trkpt lat="43.512" lon="5.31372">
        <ele>164.4</ele>
        <time>2024-03-20T10:49:19.000Z</time>
      </trkpt>
      <trkpt lat="43.51203" lon="5.3137">
        <ele>164.2</ele>
        <time>2024-03-20T10:49:21.000Z</time>
      </trkpt>
      <trkpt lat="43.51205" lon="5.31369">
        <ele>164</ele>
        <time>2024-03-20T10:49:24.000Z</time>
      </trkpt>
      <trkpt lat="43.51207" lon="5.31369">
        <ele>163.9</ele>
        <time>2024-03-20T10:49:26.000Z</time>
      </trkpt>
      <trkpt lat="43.51209" lon="5.31368">
        <ele>163.7</ele>
        <time>2024-03-20T10:49:28.000Z</time>
      </trkpt>
      <trkpt lat="43.51212" lon="5.31367">
        <ele>163.5</ele>
        <time>2024-03-20T10:49:31.000Z</time>
      </trkpt>
      <trkpt lat="43.51214" lon="5.31365">
        <ele>163.4</ele>
        <time>2024-03-20T10:49:34.000Z</time>
      </trkpt>
      <trkpt lat="43.51216" lon="5.31365">
        <ele>163.3</ele>
        <time>2024-03-20T10:49:36.000Z</time>
      </trkpt>
      <trkpt lat="43.51218" lon="5.31364">
        <ele>163.2</ele>
        <time>2024-03-20T10:49:38.000Z</time>
      </trkpt>
      <trkpt lat="43.5122" lon="5.31362">
        <ele>163.1</ele>
        <time>2024-03-20T10:49:40.000Z</time>
      </trkpt>
      <trkpt lat="43.51222" lon="5.31361">
        <ele>163</ele>
        <time>2024-03-20T10:49:43.000Z</time>
      </trkpt>
      <trkpt lat="43.51225" lon="5.3136">
        <ele>162.8</ele>
        <time>2024-03-20T10:49:46.000Z</time>
      </trkpt>
      <trkpt lat="43.51228" lon="5.3136">
        <ele>162.6</ele>
        <time>2024-03-20T10:49:49.000Z</time>
      </trkpt>
      <trkpt lat="43.51231" lon="5.31359">
        <ele>162.3</ele>
        <time>2024-03-20T10:49:51.000Z</time>
      </trkpt>
      <trkpt lat="43.51233" lon="5.31358">
        <ele>162.1</ele>
        <time>2024-03-20T10:49:53.000Z</time>
      </trkpt>
      <trkpt lat="43.51235" lon="5.31357">
        <ele>161.8</ele>
        <time>2024-03-20T10:49:56.000Z</time>
      </trkpt>
      <trkpt lat="43.51238" lon="5.31356">
        <ele>161.7</ele>
        <time>2024-03-20T10:49:58.000Z</time>
      </trkpt>
      <trkpt lat="43.5124" lon="5.31356">
        <ele>161.6</ele>
        <time>2024-03-20T10:50:00.000Z</time>
      </trkpt>
      <trkpt lat="43.51243" lon="5.31358">
        <ele>161.8</ele>
        <time>2024-03-20T10:50:04.000Z</time>
      </trkpt>
      <trkpt lat="43.51246" lon="5.31358">
        <ele>161.6</ele>
        <time>2024-03-20T10:50:07.000Z</time>
      </trkpt>
      <trkpt lat="43.51248" lon="5.31357">
        <ele>161.4</ele>
        <time>2024-03-20T10:50:09.000Z</time>
      </trkpt>
      <trkpt lat="43.5125" lon="5.31357">
        <ele>161.4</ele>
        <time>2024-03-20T10:50:11.000Z</time>
      </trkpt>
      <trkpt lat="43.51253" lon="5.31357">
        <ele>161.3</ele>
        <time>2024-03-20T10:50:13.000Z</time>
      </trkpt>
      <trkpt lat="43.51255" lon="5.31356">
        <ele>161.3</ele>
        <time>2024-03-20T10:50:15.000Z</time>
      </trkpt>
      <trkpt lat="43.51256" lon="5.31356">
        <ele>161.2</ele>
        <time>2024-03-20T10:50:17.000Z</time>
      </trkpt>
      <trkpt lat="43.51259" lon="5.31356">
        <ele>161.2</ele>
        <time>2024-03-20T10:50:19.000Z</time>
      </trkpt>
      <trkpt lat="43.51261" lon="5.31356">
        <ele>161.1</ele>
        <time>2024-03-20T10:50:21.000Z</time>
      </trkpt>
      <trkpt lat="43.51262" lon="5.31356">
        <ele>161.1</ele>
        <time>2024-03-20T10:50:23.000Z</time>
      </trkpt>
      <trkpt lat="43.51265" lon="5.31355">
        <ele>161.1</ele>
        <time>2024-03-20T10:50:25.000Z</time>
      </trkpt>
      <trkpt lat="43.51267" lon="5.31355">
        <ele>161.1</ele>
        <time>2024-03-20T10:50:27.000Z</time>
      </trkpt>
      <trkpt lat="43.51269" lon="5.31354">
        <ele>161</ele>
        <time>2024-03-20T10:50:30.000Z</time>
      </trkpt>
      <trkpt lat="43.51272" lon="5.31353">
        <ele>161</ele>
        <time>2024-03-20T10:50:32.000Z</time>
      </trkpt>
      <trkpt lat="43.51275" lon="5.31353">
        <ele>161</ele>
        <time>2024-03-20T10:50:34.000Z</time>
      </trkpt>
      <trkpt lat="43.51276" lon="5.31353">
        <ele>161</ele>
        <time>2024-03-20T10:50:36.000Z</time>
      </trkpt>
      <trkpt lat="43.51278" lon="5.31354">
        <ele>161</ele>
        <time>2024-03-20T10:50:39.000Z</time>
      </trkpt>
      <trkpt lat="43.51281" lon="5.31353">
        <ele>161.1</ele>
        <time>2024-03-20T10:50:41.000Z</time>
      </trkpt>
      <trkpt lat="43.51283" lon="5.31353">
        <ele>161.1</ele>
        <time>2024-03-20T10:50:43.000Z</time>
      </trkpt>
      <trkpt lat="43.51285" lon="5.31352">
        <ele>161.2</ele>
        <time>2024-03-20T10:50:45.000Z</time>
      </trkpt>
      <trkpt lat="43.51287" lon="5.31353">
        <ele>161.2</ele>
        <time>2024-03-20T10:50:47.000Z</time>
      </trkpt>
      <trkpt lat="43.51289" lon="5.31354">
        <ele>161.2</ele>
        <time>2024-03-20T10:50:50.000Z</time>
      </trkpt>
      <trkpt lat="43.51291" lon="5.31354">
        <ele>161.2</ele>
        <time>2024-03-20T10:50:52.000Z</time>
      </trkpt>
      <trkpt lat="43.51293" lon="5.31355">
        <ele>161.2</ele>
        <time>2024-03-20T10:50:54.000Z</time>
      </trkpt>
      <trkpt lat="43.51295" lon="5.31355">
        <ele>161.3</ele>
        <time>2024-03-20T10:50:57.000Z</time>
      </trkpt>
      <trkpt lat="43.51297" lon="5.31355">
        <ele>161.3</ele>
        <time>2024-03-20T10:50:59.000Z</time>
      </trkpt>
      <trkpt lat="43.513" lon="5.31355">
        <ele>161.3</ele>
        <time>2024-03-20T10:51:01.000Z</time>
      </trkpt>
      <trkpt lat="43.51302" lon="5.31355">
        <ele>161.4</ele>
        <time>2024-03-20T10:51:03.000Z</time>
      </trkpt>
      <trkpt lat="43.51304" lon="5.31355">
        <ele>161.4</ele>
        <time>2024-03-20T10:51:06.000Z</time>
      </trkpt>
      <trkpt lat="43.51306" lon="5.31354">
        <ele>161.5</ele>
        <time>2024-03-20T10:51:10.000Z</time>
      </trkpt>
      <trkpt lat="43.51308" lon="5.31353">
        <ele>161.4</ele>
        <time>2024-03-20T10:51:12.000Z</time>
      </trkpt>
      <trkpt lat="43.5131" lon="5.31352">
        <ele>161.4</ele>
        <time>2024-03-20T10:51:14.000Z</time>
      </trkpt>
      <trkpt lat="43.51312" lon="5.3135">
        <ele>161.5</ele>
        <time>2024-03-20T10:51:16.000Z</time>
      </trkpt>
      <trkpt lat="43.51314" lon="5.31349">
        <ele>161.4</ele>
        <time>2024-03-20T10:51:18.000Z</time>
      </trkpt>
      <trkpt lat="43.51317" lon="5.31347">
        <ele>161.4</ele>
        <time>2024-03-20T10:51:21.000Z</time>
      </trkpt>
      <trkpt lat="43.51319" lon="5.31345">
        <ele>161.4</ele>
        <time>2024-03-20T10:51:24.000Z</time>
      </trkpt>
      <trkpt lat="43.51321" lon="5.31344">
        <ele>161.3</ele>
        <time>2024-03-20T10:51:26.000Z</time>
      </trkpt>
      <trkpt lat="43.51323" lon="5.31343">
        <ele>161.3</ele>
        <time>2024-03-20T10:51:28.000Z</time>
      </trkpt>
      <trkpt lat="43.51325" lon="5.31343">
        <ele>161.2</ele>
        <time>2024-03-20T10:51:30.000Z</time>
      </trkpt>
      <trkpt lat="43.51327" lon="5.31342">
        <ele>161.1</ele>
        <time>2024-03-20T10:51:32.000Z</time>
      </trkpt>
      <trkpt lat="43.51329" lon="5.31341">
        <ele>161</ele>
        <time>2024-03-20T10:51:34.000Z</time>
      </trkpt>
      <trkpt lat="43.51332" lon="5.31339">
        <ele>160.9</ele>
        <time>2024-03-20T10:51:37.000Z</time>
      </trkpt>
      <trkpt lat="43.51334" lon="5.31338">
        <ele>160.9</ele>
        <time>2024-03-20T10:51:39.000Z</time>
      </trkpt>
      <trkpt lat="43.51336" lon="5.31336">
        <ele>160.9</ele>
        <time>2024-03-20T10:51:41.000Z</time>
      </trkpt>
      <trkpt lat="43.51338" lon="5.31335">
        <ele>160.9</ele>
        <time>2024-03-20T10:51:43.000Z</time>
      </trkpt>
      <trkpt lat="43.5134" lon="5.31334">
        <ele>161</ele>
        <time>2024-03-20T10:51:45.000Z</time>
      </trkpt>
      <trkpt lat="43.51341" lon="5.31332">
        <ele>161.1</ele>
        <time>2024-03-20T10:51:47.000Z</time>
      </trkpt>
      <trkpt lat="43.51344" lon="5.3133">
        <ele>161.3</ele>
        <time>2024-03-20T10:51:50.000Z</time>
      </trkpt>
      <trkpt lat="43.51346" lon="5.3133">
        <ele>161.3</ele>
        <time>2024-03-20T10:51:52.000Z</time>
      </trkpt>
      <trkpt lat="43.51348" lon="5.31328">
        <ele>161.5</ele>
        <time>2024-03-20T10:51:55.000Z</time>
      </trkpt>
      <trkpt lat="43.5135" lon="5.31326">
        <ele>161.7</ele>
        <time>2024-03-20T10:51:57.000Z</time>
      </trkpt>
      <trkpt lat="43.51352" lon="5.31323">
        <ele>161.9</ele>
        <time>2024-03-20T10:52:00.000Z</time>
      </trkpt>
      <trkpt lat="43.51355" lon="5.31321">
        <ele>162</ele>
        <time>2024-03-20T10:52:03.000Z</time>
      </trkpt>
      <trkpt lat="43.51357" lon="5.31321">
        <ele>162</ele>
        <time>2024-03-20T10:52:05.000Z</time>
      </trkpt>
      <trkpt lat="43.51359" lon="5.3132">
        <ele>162</ele>
        <time>2024-03-20T10:52:07.000Z</time>
      </trkpt>
      <trkpt lat="43.51361" lon="5.31318">
        <ele>162.1</ele>
        <time>2024-03-20T10:52:10.000Z</time>
      </trkpt>
      <trkpt lat="43.51363" lon="5.31319">
        <ele>161.9</ele>
        <time>2024-03-20T10:52:13.000Z</time>
      </trkpt>
      <trkpt lat="43.51364" lon="5.31317">
        <ele>161.9</ele>
        <time>2024-03-20T10:52:23.000Z</time>
      </trkpt>
      <trkpt lat="43.51366" lon="5.31314">
        <ele>162</ele>
        <time>2024-03-20T10:52:25.000Z</time>
      </trkpt>
      <trkpt lat="43.51367" lon="5.31312">
        <ele>162.1</ele>
        <time>2024-03-20T10:52:28.000Z</time>
      </trkpt>
      <trkpt lat="43.51369" lon="5.31311">
        <ele>162</ele>
        <time>2024-03-20T10:52:32.000Z</time>
      </trkpt>
      <trkpt lat="43.5137" lon="5.3131">
        <ele>162</ele>
        <time>2024-03-20T10:52:34.000Z</time>
      </trkpt>
      <trkpt lat="43.51372" lon="5.31308">
        <ele>162</ele>
        <time>2024-03-20T10:52:36.000Z</time>
      </trkpt>
      <trkpt lat="43.51374" lon="5.31306">
        <ele>162</ele>
        <time>2024-03-20T10:52:38.000Z</time>
      </trkpt>
      <trkpt lat="43.51375" lon="5.31304">
        <ele>162</ele>
        <time>2024-03-20T10:52:40.000Z</time>
      </trkpt>
      <trkpt lat="43.51377" lon="5.31302">
        <ele>161.9</ele>
        <time>2024-03-20T10:52:43.000Z</time>
      </trkpt>
      <trkpt lat="43.51378" lon="5.313">
        <ele>161.8</ele>
        <time>2024-03-20T10:52:46.000Z</time>
      </trkpt>
      <trkpt lat="43.5138" lon="5.31298">
        <ele>161.7</ele>
        <time>2024-03-20T10:52:49.000Z</time>
      </trkpt>
      <trkpt lat="43.51382" lon="5.31297">
        <ele>161.7</ele>
        <time>2024-03-20T10:52:51.000Z</time>
      </trkpt>
      <trkpt lat="43.51383" lon="5.31295">
        <ele>161.6</ele>
        <time>2024-03-20T10:52:53.000Z</time>
      </trkpt>
      <trkpt lat="43.51385" lon="5.31293">
        <ele>161.6</ele>
        <time>2024-03-20T10:52:55.000Z</time>
      </trkpt>
      <trkpt lat="43.51387" lon="5.31291">
        <ele>161.6</ele>
        <time>2024-03-20T10:52:58.000Z</time>
      </trkpt>
      <trkpt lat="43.51389" lon="5.31289">
        <ele>161.6</ele>
        <time>2024-03-20T10:53:01.000Z</time>
      </trkpt>
      <trkpt lat="43.51392" lon="5.31286">
        <ele>161.7</ele>
        <time>2024-03-20T10:53:04.000Z</time>
      </trkpt>
      <trkpt lat="43.51394" lon="5.31284">
        <ele>161.8</ele>
        <time>2024-03-20T10:53:06.000Z</time>
      </trkpt>
      <trkpt lat="43.51396" lon="5.31283">
        <ele>161.9</ele>
        <time>2024-03-20T10:53:08.000Z</time>
      </trkpt>
      <trkpt lat="43.51398" lon="5.31281">
        <ele>161.9</ele>
        <time>2024-03-20T10:53:11.000Z</time>
      </trkpt>
      <trkpt lat="43.51399" lon="5.31279">
        <ele>162</ele>
        <time>2024-03-20T10:53:14.000Z</time>
      </trkpt>
      <trkpt lat="43.51401" lon="5.31278">
        <ele>161.9</ele>
        <time>2024-03-20T10:53:16.000Z</time>
      </trkpt>
      <trkpt lat="43.51403" lon="5.31276">
        <ele>161.4</ele>
        <time>2024-03-20T10:53:18.000Z</time>
      </trkpt>
      <trkpt lat="43.51405" lon="5.31274">
        <ele>161</ele>
        <time>2024-03-20T10:53:20.000Z</time>
      </trkpt>
      <trkpt lat="43.51406" lon="5.31273">
        <ele>160.8</ele>
        <time>2024-03-20T10:53:22.000Z</time>
      </trkpt>
      <trkpt lat="43.51408" lon="5.31272">
        <ele>160.5</ele>
        <time>2024-03-20T10:53:24.000Z</time>
      </trkpt>
      <trkpt lat="43.51409" lon="5.3127">
        <ele>160.3</ele>
        <time>2024-03-20T10:53:27.000Z</time>
      </trkpt>
      <trkpt lat="43.51411" lon="5.31269">
        <ele>160.2</ele>
        <time>2024-03-20T10:53:29.000Z</time>
      </trkpt>
      <trkpt lat="43.51413" lon="5.31267">
        <ele>159.8</ele>
        <time>2024-03-20T10:53:31.000Z</time>
      </trkpt>
      <trkpt lat="43.51415" lon="5.31265">
        <ele>159.6</ele>
        <time>2024-03-20T10:53:33.000Z</time>
      </trkpt>
      <trkpt lat="43.51417" lon="5.31263">
        <ele>159.4</ele>
        <time>2024-03-20T10:53:36.000Z</time>
      </trkpt>
      <trkpt lat="43.51419" lon="5.31262">
        <ele>159.2</ele>
        <time>2024-03-20T10:53:40.000Z</time>
      </trkpt>
      <trkpt lat="43.5142" lon="5.3126">
        <ele>159</ele>
        <time>2024-03-20T10:53:42.000Z</time>
      </trkpt>
      <trkpt lat="43.51423" lon="5.31258">
        <ele>158.9</ele>
        <time>2024-03-20T10:53:45.000Z</time>
      </trkpt>
      <trkpt lat="43.51425" lon="5.31254">
        <ele>158.6</ele>
        <time>2024-03-20T10:55:33.000Z</time>
      </trkpt>
      <trkpt lat="43.51427" lon="5.31252">
        <ele>158.7</ele>
        <time>2024-03-20T10:55:51.000Z</time>
      </trkpt>
      <trkpt lat="43.51425" lon="5.31251">
        <ele>158.3</ele>
        <time>2024-03-20T10:56:46.000Z</time>
      </trkpt>
      <trkpt lat="43.51424" lon="5.31253">
        <ele>158.3</ele>
        <time>2024-03-20T10:56:49.000Z</time>
      </trkpt>
      <trkpt lat="43.51423" lon="5.31256">
        <ele>158.6</ele>
        <time>2024-03-20T10:56:52.000Z</time>
      </trkpt>
      <trkpt lat="43.51421" lon="5.31258">
        <ele>158.7</ele>
        <time>2024-03-20T10:56:55.000Z</time>
      </trkpt>
      <trkpt lat="43.51419" lon="5.3126">
        <ele>158.9</ele>
        <time>2024-03-20T10:56:57.000Z</time>
      </trkpt>
      <trkpt lat="43.51418" lon="5.31262">
        <ele>159.1</ele>
        <time>2024-03-20T10:56:59.000Z</time>
      </trkpt>
      <trkpt lat="43.51416" lon="5.31262">
        <ele>159.2</ele>
        <time>2024-03-20T10:57:01.000Z</time>
      </trkpt>
      <trkpt lat="43.51414" lon="5.31264">
        <ele>159.3</ele>
        <time>2024-03-20T10:57:03.000Z</time>
      </trkpt>
      <trkpt lat="43.51413" lon="5.31266">
        <ele>159.6</ele>
        <time>2024-03-20T10:57:05.000Z</time>
      </trkpt>
      <trkpt lat="43.51411" lon="5.31268">
        <ele>159.9</ele>
        <time>2024-03-20T10:57:08.000Z</time>
      </trkpt>
      <trkpt lat="43.51409" lon="5.3127">
        <ele>160.3</ele>
        <time>2024-03-20T10:57:17.000Z</time>
      </trkpt>
      <trkpt lat="43.51408" lon="5.31272">
        <ele>160.7</ele>
        <time>2024-03-20T10:57:19.000Z</time>
      </trkpt>
      <trkpt lat="43.51405" lon="5.31274">
        <ele>161.1</ele>
        <time>2024-03-20T10:57:21.000Z</time>
      </trkpt>
      <trkpt lat="43.51403" lon="5.31276">
        <ele>161.6</ele>
        <time>2024-03-20T10:57:23.000Z</time>
      </trkpt>
      <trkpt lat="43.51402" lon="5.31278">
        <ele>162</ele>
        <time>2024-03-20T10:57:25.000Z</time>
      </trkpt>
      <trkpt lat="43.514" lon="5.3128">
        <ele>162</ele>
        <time>2024-03-20T10:57:28.000Z</time>
      </trkpt>
      <trkpt lat="43.51398" lon="5.31281">
        <ele>161.9</ele>
        <time>2024-03-20T10:57:31.000Z</time>
      </trkpt>
      <trkpt lat="43.51395" lon="5.31283">
        <ele>161.8</ele>
        <time>2024-03-20T10:57:34.000Z</time>
      </trkpt>
      <trkpt lat="43.51392" lon="5.31285">
        <ele>161.8</ele>
        <time>2024-03-20T10:57:38.000Z</time>
      </trkpt>
      <trkpt lat="43.5139" lon="5.31288">
        <ele>161.7</ele>
        <time>2024-03-20T10:57:41.000Z</time>
      </trkpt>
      <trkpt lat="43.51389" lon="5.31289">
        <ele>161.6</ele>
        <time>2024-03-20T10:57:43.000Z</time>
      </trkpt>
      <trkpt lat="43.51386" lon="5.31291">
        <ele>161.6</ele>
        <time>2024-03-20T10:57:46.000Z</time>
      </trkpt>
      <trkpt lat="43.51384" lon="5.31293">
        <ele>161.6</ele>
        <time>2024-03-20T10:57:48.000Z</time>
      </trkpt>
      <trkpt lat="43.51383" lon="5.31295">
        <ele>161.7</ele>
        <time>2024-03-20T10:57:50.000Z</time>
      </trkpt>
      <trkpt lat="43.51381" lon="5.31297">
        <ele>161.7</ele>
        <time>2024-03-20T10:57:52.000Z</time>
      </trkpt>
      <trkpt lat="43.5138" lon="5.31299">
        <ele>161.8</ele>
        <time>2024-03-20T10:57:54.000Z</time>
      </trkpt>
      <trkpt lat="43.51379" lon="5.31301">
        <ele>161.8</ele>
        <time>2024-03-20T10:57:56.000Z</time>
      </trkpt>
      <trkpt lat="43.51377" lon="5.31304">
        <ele>161.9</ele>
        <time>2024-03-20T10:57:59.000Z</time>
      </trkpt>
      <trkpt lat="43.51375" lon="5.31305">
        <ele>162</ele>
        <time>2024-03-20T10:58:02.000Z</time>
      </trkpt>
      <trkpt lat="43.51373" lon="5.31306">
        <ele>162.1</ele>
        <time>2024-03-20T10:58:05.000Z</time>
      </trkpt>
      <trkpt lat="43.51372" lon="5.31308">
        <ele>162</ele>
        <time>2024-03-20T10:58:07.000Z</time>
      </trkpt>
      <trkpt lat="43.5137" lon="5.3131">
        <ele>162</ele>
        <time>2024-03-20T10:58:09.000Z</time>
      </trkpt>
      <trkpt lat="43.51368" lon="5.31312">
        <ele>162</ele>
        <time>2024-03-20T10:58:11.000Z</time>
      </trkpt>
      <trkpt lat="43.51367" lon="5.31314">
        <ele>162</ele>
        <time>2024-03-20T10:58:14.000Z</time>
      </trkpt>
      <trkpt lat="43.51365" lon="5.31316">
        <ele>162</ele>
        <time>2024-03-20T10:58:17.000Z</time>
      </trkpt>
      <trkpt lat="43.51363" lon="5.31318">
        <ele>161.9</ele>
        <time>2024-03-20T10:58:19.000Z</time>
      </trkpt>
      <trkpt lat="43.51362" lon="5.31319">
        <ele>162</ele>
        <time>2024-03-20T10:58:25.000Z</time>
      </trkpt>
      <trkpt lat="43.5136" lon="5.31321">
        <ele>161.9</ele>
        <time>2024-03-20T10:58:27.000Z</time>
      </trkpt>
      <trkpt lat="43.51358" lon="5.31322">
        <ele>161.9</ele>
        <time>2024-03-20T10:58:30.000Z</time>
      </trkpt>
      <trkpt lat="43.51356" lon="5.31323">
        <ele>161.8</ele>
        <time>2024-03-20T10:58:32.000Z</time>
      </trkpt>
      <trkpt lat="43.51354" lon="5.31325">
        <ele>161.7</ele>
        <time>2024-03-20T10:58:34.000Z</time>
      </trkpt>
      <trkpt lat="43.51352" lon="5.31327">
        <ele>161.6</ele>
        <time>2024-03-20T10:58:37.000Z</time>
      </trkpt>
      <trkpt lat="43.5135" lon="5.31328">
        <ele>161.5</ele>
        <time>2024-03-20T10:58:39.000Z</time>
      </trkpt>
      <trkpt lat="43.51348" lon="5.31329">
        <ele>161.4</ele>
        <time>2024-03-20T10:58:42.000Z</time>
      </trkpt>
      <trkpt lat="43.51346" lon="5.3133">
        <ele>161.3</ele>
        <time>2024-03-20T10:58:44.000Z</time>
      </trkpt>
      <trkpt lat="43.51344" lon="5.31331">
        <ele>161.2</ele>
        <time>2024-03-20T10:58:48.000Z</time>
      </trkpt>
      <trkpt lat="43.51342" lon="5.31332">
        <ele>161.2</ele>
        <time>2024-03-20T10:58:50.000Z</time>
      </trkpt>
      <trkpt lat="43.5134" lon="5.31334">
        <ele>161</ele>
        <time>2024-03-20T10:58:52.000Z</time>
      </trkpt>
      <trkpt lat="43.51339" lon="5.31335">
        <ele>160.9</ele>
        <time>2024-03-20T10:58:54.000Z</time>
      </trkpt>
      <trkpt lat="43.51337" lon="5.31336">
        <ele>160.9</ele>
        <time>2024-03-20T10:58:58.000Z</time>
      </trkpt>
      <trkpt lat="43.51335" lon="5.31337">
        <ele>160.9</ele>
        <time>2024-03-20T10:59:02.000Z</time>
      </trkpt>
      <trkpt lat="43.51333" lon="5.31338">
        <ele>160.9</ele>
        <time>2024-03-20T10:59:05.000Z</time>
      </trkpt>
      <trkpt lat="43.5133" lon="5.31338">
        <ele>161</ele>
        <time>2024-03-20T10:59:07.000Z</time>
      </trkpt>
      <trkpt lat="43.51328" lon="5.31339">
        <ele>161.2</ele>
        <time>2024-03-20T10:59:11.000Z</time>
      </trkpt>
      <trkpt lat="43.51326" lon="5.3134">
        <ele>161.2</ele>
        <time>2024-03-20T10:59:13.000Z</time>
      </trkpt>
      <trkpt lat="43.51325" lon="5.31342">
        <ele>161.2</ele>
        <time>2024-03-20T10:59:15.000Z</time>
      </trkpt>
      <trkpt lat="43.51322" lon="5.31343">
        <ele>161.3</ele>
        <time>2024-03-20T10:59:17.000Z</time>
      </trkpt>
      <trkpt lat="43.5132" lon="5.31343">
        <ele>161.4</ele>
        <time>2024-03-20T10:59:20.000Z</time>
      </trkpt>
      <trkpt lat="43.51318" lon="5.31344">
        <ele>161.5</ele>
        <time>2024-03-20T10:59:23.000Z</time>
      </trkpt>
      <trkpt lat="43.51315" lon="5.31345">
        <ele>161.6</ele>
        <time>2024-03-20T10:59:26.000Z</time>
      </trkpt>
      <trkpt lat="43.51313" lon="5.31346">
        <ele>161.7</ele>
        <time>2024-03-20T10:59:29.000Z</time>
      </trkpt>
      <trkpt lat="43.51311" lon="5.31347">
        <ele>161.7</ele>
        <time>2024-03-20T10:59:31.000Z</time>
      </trkpt>
      <trkpt lat="43.51309" lon="5.31348">
        <ele>161.8</ele>
        <time>2024-03-20T10:59:34.000Z</time>
      </trkpt>
      <trkpt lat="43.51308" lon="5.31349">
        <ele>161.8</ele>
        <time>2024-03-20T10:59:36.000Z</time>
      </trkpt>
      <trkpt lat="43.51305" lon="5.31349">
        <ele>161.9</ele>
        <time>2024-03-20T10:59:40.000Z</time>
      </trkpt>
      <trkpt lat="43.51304" lon="5.31348">
        <ele>161.9</ele>
        <time>2024-03-20T10:59:42.000Z</time>
      </trkpt>
      <trkpt lat="43.51302" lon="5.31348">
        <ele>161.8</ele>
        <time>2024-03-20T10:59:44.000Z</time>
      </trkpt>
      <trkpt lat="43.51299" lon="5.3135">
        <ele>161.6</ele>
        <time>2024-03-20T10:59:47.000Z</time>
      </trkpt>
      <trkpt lat="43.51297" lon="5.3135">
        <ele>161.5</ele>
        <time>2024-03-20T10:59:49.000Z</time>
      </trkpt>
      <trkpt lat="43.51294" lon="5.31351">
        <ele>161.4</ele>
        <time>2024-03-20T10:59:51.000Z</time>
      </trkpt>
      <trkpt lat="43.51292" lon="5.31353">
        <ele>161.3</ele>
        <time>2024-03-20T10:59:55.000Z</time>
      </trkpt>
      <trkpt lat="43.51289" lon="5.31353">
        <ele>161.3</ele>
        <time>2024-03-20T10:59:58.000Z</time>
      </trkpt>
      <trkpt lat="43.51287" lon="5.31355">
        <ele>161.1</ele>
        <time>2024-03-20T11:00:08.000Z</time>
      </trkpt>
      <trkpt lat="43.51286" lon="5.31356">
        <ele>161.1</ele>
        <time>2024-03-20T11:00:10.000Z</time>
      </trkpt>
      <trkpt lat="43.51284" lon="5.31356">
        <ele>161.1</ele>
        <time>2024-03-20T11:00:13.000Z</time>
      </trkpt>
      <trkpt lat="43.51282" lon="5.31357">
        <ele>161</ele>
        <time>2024-03-20T11:00:15.000Z</time>
      </trkpt>
      <trkpt lat="43.51278" lon="5.31356">
        <ele>161</ele>
        <time>2024-03-20T11:00:47.000Z</time>
      </trkpt>
      <trkpt lat="43.51276" lon="5.31357">
        <ele>161</ele>
        <time>2024-03-20T11:00:49.000Z</time>
      </trkpt>
      <trkpt lat="43.51274" lon="5.31356">
        <ele>161</ele>
        <time>2024-03-20T11:00:51.000Z</time>
      </trkpt>
      <trkpt lat="43.51272" lon="5.31357">
        <ele>161.1</ele>
        <time>2024-03-20T11:00:53.000Z</time>
      </trkpt>
      <trkpt lat="43.5127" lon="5.31357">
        <ele>161.1</ele>
        <time>2024-03-20T11:00:55.000Z</time>
      </trkpt>
      <trkpt lat="43.51267" lon="5.31356">
        <ele>161.1</ele>
        <time>2024-03-20T11:00:57.000Z</time>
      </trkpt>
      <trkpt lat="43.51265" lon="5.31356">
        <ele>161.1</ele>
        <time>2024-03-20T11:00:59.000Z</time>
      </trkpt>
      <trkpt lat="43.51262" lon="5.31356">
        <ele>161.2</ele>
        <time>2024-03-20T11:01:02.000Z</time>
      </trkpt>
      <trkpt lat="43.5126" lon="5.31357">
        <ele>161.2</ele>
        <time>2024-03-20T11:01:05.000Z</time>
      </trkpt>
      <trkpt lat="43.51259" lon="5.31359">
        <ele>161.5</ele>
        <time>2024-03-20T11:01:07.000Z</time>
      </trkpt>
      <trkpt lat="43.51256" lon="5.31362">
        <ele>161.7</ele>
        <time>2024-03-20T11:01:10.000Z</time>
      </trkpt>
      <trkpt lat="43.51255" lon="5.31363">
        <ele>161.7</ele>
        <time>2024-03-20T11:01:13.000Z</time>
      </trkpt>
      <trkpt lat="43.51253" lon="5.31366">
        <ele>161.6</ele>
        <time>2024-03-20T11:01:15.000Z</time>
      </trkpt>
      <trkpt lat="43.51252" lon="5.31368">
        <ele>161.4</ele>
        <time>2024-03-20T11:01:19.000Z</time>
      </trkpt>
      <trkpt lat="43.51253" lon="5.31371">
        <ele>161.2</ele>
        <time>2024-03-20T11:02:22.000Z</time>
      </trkpt>
      <trkpt lat="43.51252" lon="5.31368">
        <ele>161.4</ele>
        <time>2024-03-20T11:04:03.000Z</time>
      </trkpt>
      <trkpt lat="43.51254" lon="5.31369">
        <ele>161.3</ele>
        <time>2024-03-20T11:04:36.000Z</time>
      </trkpt>
      <trkpt lat="43.51252" lon="5.31371">
        <ele>161.2</ele>
        <time>2024-03-20T11:06:15.000Z</time>
      </trkpt>
      <trkpt lat="43.5125" lon="5.31371">
        <ele>161.3</ele>
        <time>2024-03-20T11:08:32.000Z</time>
      </trkpt>
      <trkpt lat="43.51249" lon="5.31373">
        <ele>161.2</ele>
        <time>2024-03-20T11:08:39.000Z</time>
      </trkpt>
      <trkpt lat="43.51245" lon="5.31373">
        <ele>161.3</ele>
        <time>2024-03-20T11:08:40.000Z</time>
      </trkpt>
      <trkpt lat="43.51246" lon="5.31371">
        <ele>161.5</ele>
        <time>2024-03-20T11:11:52.000Z</time>
      </trkpt>
      <trkpt lat="43.51248" lon="5.3137">
        <ele>161.4</ele>
        <time>2024-03-20T11:13:01.000Z</time>
      </trkpt>
      <trkpt lat="43.5125" lon="5.3137">
        <ele>161.3</ele>
        <time>2024-03-20T11:18:37.000Z</time>
      </trkpt>
      <trkpt lat="43.5125" lon="5.31368">
        <ele>161.5</ele>
        <time>2024-03-20T11:26:48.000Z</time>
      </trkpt>
      <trkpt lat="43.5125" lon="5.31365">
        <ele>161.7</ele>
        <time>2024-03-20T11:26:50.000Z</time>
      </trkpt>
      <trkpt lat="43.5125" lon="5.31362">
        <ele>162</ele>
        <time>2024-03-20T11:26:53.000Z</time>
      </trkpt>
      <trkpt lat="43.51249" lon="5.31359">
        <ele>161.8</ele>
        <time>2024-03-20T11:26:55.000Z</time>
      </trkpt>
      <trkpt lat="43.51248" lon="5.31362">
        <ele>162</ele>
        <time>2024-03-20T11:27:06.000Z</time>
      </trkpt>
      <trkpt lat="43.51249" lon="5.31365">
        <ele>161.7</ele>
        <time>2024-03-20T11:27:09.000Z</time>
      </trkpt>
      <trkpt lat="43.5125" lon="5.31369">
        <ele>161.4</ele>
        <time>2024-03-20T11:27:13.000Z</time>
      </trkpt>
      <trkpt lat="43.51251" lon="5.31373">
        <ele>161.1</ele>
        <time>2024-03-20T11:27:17.000Z</time>
      </trkpt>
      <trkpt lat="43.51249" lon="5.31372">
        <ele>161.2</ele>
        <time>2024-03-20T11:28:03.000Z</time>
      </trkpt>
      <trkpt lat="43.51246" lon="5.31373">
        <ele>161.3</ele>
        <time>2024-03-20T11:28:04.000Z</time>
      </trkpt>
      <trkpt lat="43.51247" lon="5.3137">
        <ele>161.4</ele>
        <time>2024-03-20T11:28:05.000Z</time>
      </trkpt>
      <trkpt lat="43.51248" lon="5.31367">
        <ele>161.6</ele>
        <time>2024-03-20T11:31:35.000Z</time>
      </trkpt>
      <trkpt lat="43.51245" lon="5.31367">
        <ele>161.7</ele>
        <time>2024-03-20T11:31:36.000Z</time>
      </trkpt>
      <trkpt lat="43.51243" lon="5.31369">
        <ele>161.7</ele>
        <time>2024-03-20T11:31:37.000Z</time>
      </trkpt>
      <trkpt lat="43.51244" lon="5.3137">
        <ele>161.6</ele>
        <time>2024-03-20T11:32:37.000Z</time>
      </trkpt>
      <trkpt lat="43.51247" lon="5.3137">
        <ele>161.5</ele>
        <time>2024-03-20T11:34:27.000Z</time>
      </trkpt>
      <trkpt lat="43.51245" lon="5.3137">
        <ele>161.5</ele>
        <time>2024-03-20T11:34:29.000Z</time>
      </trkpt>
      <trkpt lat="43.51247" lon="5.31373">
        <ele>161.2</ele>
        <time>2024-03-20T11:35:02.000Z</time>
      </trkpt>
      <trkpt lat="43.51245" lon="5.31373">
        <ele>161.3</ele>
        <time>2024-03-20T11:35:03.000Z</time>
      </trkpt>
      <trkpt lat="43.51244" lon="5.3137">
        <ele>161.6</ele>
        <time>2024-03-20T11:35:06.000Z</time>
      </trkpt>
      <trkpt lat="43.51244" lon="5.31367">
        <ele>161.8</ele>
        <time>2024-03-20T11:35:09.000Z</time>
      </trkpt>
      <trkpt lat="43.51242" lon="5.31363">
        <ele>162.2</ele>
        <time>2024-03-20T11:35:14.000Z</time>
      </trkpt>
      <trkpt lat="43.51243" lon="5.31366">
        <ele>161.9</ele>
        <time>2024-03-20T11:35:58.000Z</time>
      </trkpt>
      <trkpt lat="43.51245" lon="5.31368">
        <ele>161.6</ele>
        <time>2024-03-20T11:36:01.000Z</time>
      </trkpt>
      <trkpt lat="43.51246" lon="5.31371">
        <ele>161.4</ele>
        <time>2024-03-20T11:36:03.000Z</time>
      </trkpt>
      <trkpt lat="43.51248" lon="5.31374">
        <ele>161.2</ele>
        <time>2024-03-20T11:36:06.000Z</time>
      </trkpt>
      <trkpt lat="43.5125" lon="5.31375">
        <ele>161</ele>
        <time>2024-03-20T11:36:40.000Z</time>
      </trkpt>
      <trkpt lat="43.51251" lon="5.31373">
        <ele>161.1</ele>
        <time>2024-03-20T11:42:25.000Z</time>
      </trkpt>
      <trkpt lat="43.51251" lon="5.3137">
        <ele>161.3</ele>
        <time>2024-03-20T11:45:31.000Z</time>
      </trkpt>
      <trkpt lat="43.51253" lon="5.31369">
        <ele>161.3</ele>
        <time>2024-03-20T11:54:35.000Z</time>
      </trkpt>
      <trkpt lat="43.51251" lon="5.31367">
        <ele>161.6</ele>
        <time>2024-03-20T11:56:17.000Z</time>
      </trkpt>
      <trkpt lat="43.5125" lon="5.31365">
        <ele>161.8</ele>
        <time>2024-03-20T11:56:20.000Z</time>
      </trkpt>
      <trkpt lat="43.51249" lon="5.31363">
        <ele>161.9</ele>
        <time>2024-03-20T11:56:23.000Z</time>
      </trkpt>
      <trkpt lat="43.5125" lon="5.31359">
        <ele>161.7</ele>
        <time>2024-03-20T11:56:34.000Z</time>
      </trkpt>
      <trkpt lat="43.51248" lon="5.31359">
        <ele>161.8</ele>
        <time>2024-03-20T11:56:57.000Z</time>
      </trkpt>
      <trkpt lat="43.51249" lon="5.31357">
        <ele>161.4</ele>
        <time>2024-03-20T11:57:13.000Z</time>
      </trkpt>
      <trkpt lat="43.51246" lon="5.31357">
        <ele>161.5</ele>
        <time>2024-03-20T11:58:52.000Z</time>
      </trkpt>
      <trkpt lat="43.51244" lon="5.31356">
        <ele>161.4</ele>
        <time>2024-03-20T11:59:10.000Z</time>
      </trkpt>
      <trkpt lat="43.51243" lon="5.31355">
        <ele>161.3</ele>
        <time>2024-03-20T11:59:12.000Z</time>
      </trkpt>
      <trkpt lat="43.51241" lon="5.31354">
        <ele>161.2</ele>
        <time>2024-03-20T11:59:15.000Z</time>
      </trkpt>
      <trkpt lat="43.51238" lon="5.31353">
        <ele>161.1</ele>
        <time>2024-03-20T11:59:18.000Z</time>
      </trkpt>
      <trkpt lat="43.51236" lon="5.31353">
        <ele>161.1</ele>
        <time>2024-03-20T11:59:20.000Z</time>
      </trkpt>
      <trkpt lat="43.51234" lon="5.31353">
        <ele>161.3</ele>
        <time>2024-03-20T11:59:22.000Z</time>
      </trkpt>
      <trkpt lat="43.51232" lon="5.31354">
        <ele>161.5</ele>
        <time>2024-03-20T11:59:25.000Z</time>
      </trkpt>
      <trkpt lat="43.5123" lon="5.31354">
        <ele>161.6</ele>
        <time>2024-03-20T11:59:28.000Z</time>
      </trkpt>
      <trkpt lat="43.51227" lon="5.31355">
        <ele>161.7</ele>
        <time>2024-03-20T11:59:31.000Z</time>
      </trkpt>
      <trkpt lat="43.51225" lon="5.31355">
        <ele>161.8</ele>
        <time>2024-03-20T11:59:34.000Z</time>
      </trkpt>
      <trkpt lat="43.51223" lon="5.31356">
        <ele>162.1</ele>
        <time>2024-03-20T11:59:37.000Z</time>
      </trkpt>
      <trkpt lat="43.5122" lon="5.31357">
        <ele>162.4</ele>
        <time>2024-03-20T11:59:40.000Z</time>
      </trkpt>
      <trkpt lat="43.51218" lon="5.31358">
        <ele>162.6</ele>
        <time>2024-03-20T11:59:42.000Z</time>
      </trkpt>
      <trkpt lat="43.51216" lon="5.31359">
        <ele>163</ele>
        <time>2024-03-20T11:59:44.000Z</time>
      </trkpt>
      <trkpt lat="43.51214" lon="5.31359">
        <ele>163.2</ele>
        <time>2024-03-20T11:59:46.000Z</time>
      </trkpt>
      <trkpt lat="43.51211" lon="5.3136">
        <ele>163.6</ele>
        <time>2024-03-20T11:59:48.000Z</time>
      </trkpt>
      <trkpt lat="43.51209" lon="5.31361">
        <ele>163.9</ele>
        <time>2024-03-20T11:59:52.000Z</time>
      </trkpt>
      <trkpt lat="43.51207" lon="5.31362">
        <ele>164.1</ele>
        <time>2024-03-20T11:59:54.000Z</time>
      </trkpt>
      <trkpt lat="43.51205" lon="5.31363">
        <ele>164.2</ele>
        <time>2024-03-20T11:59:56.000Z</time>
      </trkpt>
      <trkpt lat="43.51203" lon="5.31363">
        <ele>164.4</ele>
        <time>2024-03-20T11:59:58.000Z</time>
      </trkpt>
      <trkpt lat="43.51201" lon="5.31365">
        <ele>164.5</ele>
        <time>2024-03-20T12:00:01.000Z</time>
      </trkpt>
      <trkpt lat="43.51199" lon="5.31366">
        <ele>164.6</ele>
        <time>2024-03-20T12:00:03.000Z</time>
      </trkpt>
      <trkpt lat="43.51197" lon="5.31367">
        <ele>164.8</ele>
        <time>2024-03-20T12:00:05.000Z</time>
      </trkpt>
      <trkpt lat="43.51195" lon="5.31368">
        <ele>165</ele>
        <time>2024-03-20T12:00:07.000Z</time>
      </trkpt>
      <trkpt lat="43.51193" lon="5.31369">
        <ele>165.2</ele>
        <time>2024-03-20T12:00:10.000Z</time>
      </trkpt>
      <trkpt lat="43.51191" lon="5.3137">
        <ele>165.4</ele>
        <time>2024-03-20T12:00:13.000Z</time>
      </trkpt>
      <trkpt lat="43.51188" lon="5.31371">
        <ele>165.7</ele>
        <time>2024-03-20T12:00:16.000Z</time>
      </trkpt>
      <trkpt lat="43.51187" lon="5.31373">
        <ele>165.8</ele>
        <time>2024-03-20T12:00:18.000Z</time>
      </trkpt>
      <trkpt lat="43.51184" lon="5.31374">
        <ele>166.1</ele>
        <time>2024-03-20T12:00:20.000Z</time>
      </trkpt>
      <trkpt lat="43.51182" lon="5.31376">
        <ele>166.3</ele>
        <time>2024-03-20T12:00:22.000Z</time>
      </trkpt>
      <trkpt lat="43.5118" lon="5.31376">
        <ele>166.6</ele>
        <time>2024-03-20T12:00:25.000Z</time>
      </trkpt>
      <trkpt lat="43.51178" lon="5.31377">
        <ele>166.8</ele>
        <time>2024-03-20T12:00:27.000Z</time>
      </trkpt>
      <trkpt lat="43.51175" lon="5.31378">
        <ele>167.1</ele>
        <time>2024-03-20T12:00:30.000Z</time>
      </trkpt>
      <trkpt lat="43.51173" lon="5.31378">
        <ele>167.4</ele>
        <time>2024-03-20T12:00:33.000Z</time>
      </trkpt>
      <trkpt lat="43.5117" lon="5.31379">
        <ele>167.6</ele>
        <time>2024-03-20T12:00:37.000Z</time>
      </trkpt>
      <trkpt lat="43.51168" lon="5.3138">
        <ele>167.9</ele>
        <time>2024-03-20T12:00:40.000Z</time>
      </trkpt>
      <trkpt lat="43.51166" lon="5.31379">
        <ele>168</ele>
        <time>2024-03-20T12:00:42.000Z</time>
      </trkpt>
      <trkpt lat="43.51164" lon="5.31379">
        <ele>168</ele>
        <time>2024-03-20T12:00:44.000Z</time>
      </trkpt>
      <trkpt lat="43.51161" lon="5.3138">
        <ele>168.1</ele>
        <time>2024-03-20T12:00:47.000Z</time>
      </trkpt>
      <trkpt lat="43.51159" lon="5.31378">
        <ele>168.1</ele>
        <time>2024-03-20T12:00:50.000Z</time>
      </trkpt>
      <trkpt lat="43.51156" lon="5.31377">
        <ele>168.2</ele>
        <time>2024-03-20T12:00:52.000Z</time>
      </trkpt>
      <trkpt lat="43.51154" lon="5.31376">
        <ele>168.2</ele>
        <time>2024-03-20T12:00:55.000Z</time>
      </trkpt>
      <trkpt lat="43.51151" lon="5.31375">
        <ele>168.3</ele>
        <time>2024-03-20T12:00:57.000Z</time>
      </trkpt>
      <trkpt lat="43.51149" lon="5.31374">
        <ele>168.4</ele>
        <time>2024-03-20T12:00:59.000Z</time>
      </trkpt>
      <trkpt lat="43.51147" lon="5.31372">
        <ele>168.4</ele>
        <time>2024-03-20T12:01:01.000Z</time>
      </trkpt>
      <trkpt lat="43.51146" lon="5.31369">
        <ele>168.5</ele>
        <time>2024-03-20T12:01:04.000Z</time>
      </trkpt>
      <trkpt lat="43.51145" lon="5.31367">
        <ele>168.6</ele>
        <time>2024-03-20T12:01:07.000Z</time>
      </trkpt>
      <trkpt lat="43.51145" lon="5.31364">
        <ele>168.7</ele>
        <time>2024-03-20T12:01:10.000Z</time>
      </trkpt>
      <trkpt lat="43.51144" lon="5.31361">
        <ele>168.7</ele>
        <time>2024-03-20T12:01:13.000Z</time>
      </trkpt>
      <trkpt lat="43.51142" lon="5.31358">
        <ele>168.4</ele>
        <time>2024-03-20T12:01:16.000Z</time>
      </trkpt>
      <trkpt lat="43.5114" lon="5.31356">
        <ele>168.2</ele>
        <time>2024-03-20T12:01:18.000Z</time>
      </trkpt>
      <trkpt lat="43.51139" lon="5.31353">
        <ele>167.9</ele>
        <time>2024-03-20T12:01:20.000Z</time>
      </trkpt>
      <trkpt lat="43.51136" lon="5.31352">
        <ele>167.8</ele>
        <time>2024-03-20T12:01:22.000Z</time>
      </trkpt>
      <trkpt lat="43.51135" lon="5.31351">
        <ele>167.8</ele>
        <time>2024-03-20T12:01:24.000Z</time>
      </trkpt>
      <trkpt lat="43.51133" lon="5.31349">
        <ele>167.7</ele>
        <time>2024-03-20T12:01:26.000Z</time>
      </trkpt>
      <trkpt lat="43.51131" lon="5.31347">
        <ele>167.7</ele>
        <time>2024-03-20T12:01:29.000Z</time>
      </trkpt>
      <trkpt lat="43.51128" lon="5.31346">
        <ele>167.9</ele>
        <time>2024-03-20T12:01:31.000Z</time>
      </trkpt>
      <trkpt lat="43.51126" lon="5.31345">
        <ele>168</ele>
        <time>2024-03-20T12:01:33.000Z</time>
      </trkpt>
      <trkpt lat="43.51125" lon="5.31344">
        <ele>168.1</ele>
        <time>2024-03-20T12:01:36.000Z</time>
      </trkpt>
      <trkpt lat="43.51123" lon="5.31341">
        <ele>168.2</ele>
        <time>2024-03-20T12:01:39.000Z</time>
      </trkpt>
      <trkpt lat="43.51121" lon="5.31344">
        <ele>168.5</ele>
        <time>2024-03-20T12:01:52.000Z</time>
      </trkpt>
      <trkpt lat="43.51121" lon="5.31347">
        <ele>168.6</ele>
        <time>2024-03-20T12:02:07.000Z</time>
      </trkpt>
      <trkpt lat="43.51121" lon="5.31344">
        <ele>168.5</ele>
        <time>2024-03-20T12:02:23.000Z</time>
      </trkpt>
      <trkpt lat="43.51123" lon="5.31341">
        <ele>168.2</ele>
        <time>2024-03-20T12:02:27.000Z</time>
      </trkpt>
      <trkpt lat="43.51125" lon="5.31341">
        <ele>168</ele>
        <time>2024-03-20T12:02:31.000Z</time>
      </trkpt>
      <trkpt lat="43.51127" lon="5.3134">
        <ele>167.6</ele>
        <time>2024-03-20T12:02:39.000Z</time>
      </trkpt>
      <trkpt lat="43.51129" lon="5.3134">
        <ele>167.3</ele>
        <time>2024-03-20T12:02:42.000Z</time>
      </trkpt>
      <trkpt lat="43.51131" lon="5.31339">
        <ele>166.9</ele>
        <time>2024-03-20T12:02:48.000Z</time>
      </trkpt>
      <trkpt lat="43.51133" lon="5.31338">
        <ele>166.6</ele>
        <time>2024-03-20T12:02:51.000Z</time>
      </trkpt>
      <trkpt lat="43.51134" lon="5.31336">
        <ele>166.2</ele>
        <time>2024-03-20T12:02:53.000Z</time>
      </trkpt>
      <trkpt lat="43.51135" lon="5.31334">
        <ele>165.7</ele>
        <time>2024-03-20T12:02:57.000Z</time>
      </trkpt>
      <trkpt lat="43.51137" lon="5.31332">
        <ele>165.3</ele>
        <time>2024-03-20T12:02:59.000Z</time>
      </trkpt>
      <trkpt lat="43.51137" lon="5.31329">
        <ele>165</ele>
        <time>2024-03-20T12:03:03.000Z</time>
      </trkpt>
      <trkpt lat="43.51139" lon="5.31328">
        <ele>164.6</ele>
        <time>2024-03-20T12:03:07.000Z</time>
      </trkpt>
      <trkpt lat="43.51141" lon="5.31324">
        <ele>164</ele>
        <time>2024-03-20T12:03:24.000Z</time>
      </trkpt>
      <trkpt lat="43.51143" lon="5.31323">
        <ele>163.5</ele>
        <time>2024-03-20T12:03:34.000Z</time>
      </trkpt>
      <trkpt lat="43.51145" lon="5.31322">
        <ele>163</ele>
        <time>2024-03-20T12:03:38.000Z</time>
      </trkpt>
      <trkpt lat="43.51147" lon="5.31321">
        <ele>162.4</ele>
        <time>2024-03-20T12:03:42.000Z</time>
      </trkpt>
      <trkpt lat="43.51149" lon="5.3132">
        <ele>161.9</ele>
        <time>2024-03-20T12:03:47.000Z</time>
      </trkpt>
      <trkpt lat="43.51151" lon="5.31321">
        <ele>161.4</ele>
        <time>2024-03-20T12:03:52.000Z</time>
      </trkpt>
      <trkpt lat="43.51155" lon="5.3132">
        <ele>160.6</ele>
        <time>2024-03-20T12:04:00.000Z</time>
      </trkpt>
      <trkpt lat="43.51157" lon="5.31319">
        <ele>159.9</ele>
        <time>2024-03-20T12:04:04.000Z</time>
      </trkpt>
      <trkpt lat="43.51159" lon="5.31318">
        <ele>159.4</ele>
        <time>2024-03-20T12:04:07.000Z</time>
      </trkpt>
      <trkpt lat="43.51162" lon="5.31317">
        <ele>158.6</ele>
        <time>2024-03-20T12:04:12.000Z</time>
      </trkpt>
      <trkpt lat="43.51166" lon="5.31317">
        <ele>157.7</ele>
        <time>2024-03-20T12:04:18.000Z</time>
      </trkpt>
      <trkpt lat="43.51168" lon="5.31316">
        <ele>157.3</ele>
        <time>2024-03-20T12:04:21.000Z</time>
      </trkpt>
      <trkpt lat="43.5117" lon="5.31316">
        <ele>156.8</ele>
        <time>2024-03-20T12:04:25.000Z</time>
      </trkpt>
      <trkpt lat="43.51172" lon="5.31315">
        <ele>156.3</ele>
        <time>2024-03-20T12:04:28.000Z</time>
      </trkpt>
      <trkpt lat="43.51174" lon="5.31316">
        <ele>155.9</ele>
        <time>2024-03-20T12:04:31.000Z</time>
      </trkpt>
      <trkpt lat="43.51178" lon="5.31318">
        <ele>155.5</ele>
        <time>2024-03-20T12:04:37.000Z</time>
      </trkpt>
      <trkpt lat="43.51181" lon="5.31316">
        <ele>154.8</ele>
        <time>2024-03-20T12:04:41.000Z</time>
      </trkpt>
      <trkpt lat="43.51183" lon="5.31315">
        <ele>154</ele>
        <time>2024-03-20T12:04:43.000Z</time>
      </trkpt>
      <trkpt lat="43.51185" lon="5.31313">
        <ele>153.2</ele>
        <time>2024-03-20T12:04:46.000Z</time>
      </trkpt>
      <trkpt lat="43.51188" lon="5.31313">
        <ele>152.4</ele>
        <time>2024-03-20T12:04:49.000Z</time>
      </trkpt>
      <trkpt lat="43.5119" lon="5.31313">
        <ele>152.1</ele>
        <time>2024-03-20T12:04:51.000Z</time>
      </trkpt>
      <trkpt lat="43.51192" lon="5.31312">
        <ele>151.4</ele>
        <time>2024-03-20T12:04:54.000Z</time>
      </trkpt>
      <trkpt lat="43.51193" lon="5.3131">
        <ele>150.5</ele>
        <time>2024-03-20T12:04:58.000Z</time>
      </trkpt>
      <trkpt lat="43.51195" lon="5.31308">
        <ele>149.8</ele>
        <time>2024-03-20T12:05:01.000Z</time>
      </trkpt>
      <trkpt lat="43.51197" lon="5.31307">
        <ele>149.3</ele>
        <time>2024-03-20T12:05:05.000Z</time>
      </trkpt>
      <trkpt lat="43.512" lon="5.31307">
        <ele>149.2</ele>
        <time>2024-03-20T12:05:11.000Z</time>
      </trkpt>
      <trkpt lat="43.51202" lon="5.31306">
        <ele>149</ele>
        <time>2024-03-20T12:05:14.000Z</time>
      </trkpt>
      <trkpt lat="43.51205" lon="5.31306">
        <ele>148.8</ele>
        <time>2024-03-20T12:05:16.000Z</time>
      </trkpt>
      <trkpt lat="43.51207" lon="5.31306">
        <ele>148.8</ele>
        <time>2024-03-20T12:05:18.000Z</time>
      </trkpt>
      <trkpt lat="43.51209" lon="5.31306">
        <ele>148.5</ele>
        <time>2024-03-20T12:05:20.000Z</time>
      </trkpt>
      <trkpt lat="43.51211" lon="5.31304">
        <ele>148.3</ele>
        <time>2024-03-20T12:05:22.000Z</time>
      </trkpt>
      <trkpt lat="43.51213" lon="5.31301">
        <ele>147.8</ele>
        <time>2024-03-20T12:05:25.000Z</time>
      </trkpt>
      <trkpt lat="43.51214" lon="5.313">
        <ele>147.5</ele>
        <time>2024-03-20T12:05:29.000Z</time>
      </trkpt>
      <trkpt lat="43.51217" lon="5.31297">
        <ele>146.6</ele>
        <time>2024-03-20T12:05:34.000Z</time>
      </trkpt>
      <trkpt lat="43.51218" lon="5.31295">
        <ele>146</ele>
        <time>2024-03-20T12:05:37.000Z</time>
      </trkpt>
      <trkpt lat="43.51221" lon="5.31293">
        <ele>145.2</ele>
        <time>2024-03-20T12:05:39.000Z</time>
      </trkpt>
      <trkpt lat="43.51222" lon="5.31292">
        <ele>144.5</ele>
        <time>2024-03-20T12:05:41.000Z</time>
      </trkpt>
      <trkpt lat="43.51223" lon="5.31289">
        <ele>143.8</ele>
        <time>2024-03-20T12:05:44.000Z</time>
      </trkpt>
      <trkpt lat="43.51225" lon="5.31288">
        <ele>143.3</ele>
        <time>2024-03-20T12:05:46.000Z</time>
      </trkpt>
      <trkpt lat="43.51226" lon="5.31285">
        <ele>142.6</ele>
        <time>2024-03-20T12:05:50.000Z</time>
      </trkpt>
      <trkpt lat="43.51227" lon="5.31283">
        <ele>142</ele>
        <time>2024-03-20T12:05:52.000Z</time>
      </trkpt>
      <trkpt lat="43.51229" lon="5.31282">
        <ele>141.3</ele>
        <time>2024-03-20T12:05:54.000Z</time>
      </trkpt>
      <trkpt lat="43.51232" lon="5.3128">
        <ele>140.7</ele>
        <time>2024-03-20T12:06:00.000Z</time>
      </trkpt>
      <trkpt lat="43.51234" lon="5.3128">
        <ele>140.4</ele>
        <time>2024-03-20T12:06:03.000Z</time>
      </trkpt>
      <trkpt lat="43.51235" lon="5.31279">
        <ele>139.9</ele>
        <time>2024-03-20T12:06:08.000Z</time>
      </trkpt>
      <trkpt lat="43.51237" lon="5.31278">
        <ele>139.4</ele>
        <time>2024-03-20T12:06:11.000Z</time>
      </trkpt>
      <trkpt lat="43.5124" lon="5.31278">
        <ele>139.3</ele>
        <time>2024-03-20T12:06:14.000Z</time>
      </trkpt>
      <trkpt lat="43.51242" lon="5.31279">
        <ele>139.2</ele>
        <time>2024-03-20T12:06:17.000Z</time>
      </trkpt>
      <trkpt lat="43.51244" lon="5.3128">
        <ele>139.5</ele>
        <time>2024-03-20T12:06:20.000Z</time>
      </trkpt>
      <trkpt lat="43.51246" lon="5.31281">
        <ele>139.5</ele>
        <time>2024-03-20T12:06:23.000Z</time>
      </trkpt>
      <trkpt lat="43.51248" lon="5.3128">
        <ele>139</ele>
        <time>2024-03-20T12:06:26.000Z</time>
      </trkpt>
      <trkpt lat="43.5125" lon="5.31279">
        <ele>138.6</ele>
        <time>2024-03-20T12:06:29.000Z</time>
      </trkpt>
      <trkpt lat="43.51253" lon="5.31278">
        <ele>138.4</ele>
        <time>2024-03-20T12:06:32.000Z</time>
      </trkpt>
      <trkpt lat="43.51255" lon="5.31277">
        <ele>138.7</ele>
        <time>2024-03-20T12:06:35.000Z</time>
      </trkpt>
      <trkpt lat="43.51257" lon="5.31276">
        <ele>139</ele>
        <time>2024-03-20T12:06:37.000Z</time>
      </trkpt>
      <trkpt lat="43.51259" lon="5.31273">
        <ele>139.2</ele>
        <time>2024-03-20T12:06:39.000Z</time>
      </trkpt>
      <trkpt lat="43.51261" lon="5.31272">
        <ele>139.3</ele>
        <time>2024-03-20T12:06:41.000Z</time>
      </trkpt>
      <trkpt lat="43.51263" lon="5.3127">
        <ele>139.3</ele>
        <time>2024-03-20T12:06:44.000Z</time>
      </trkpt>
      <trkpt lat="43.51264" lon="5.31268">
        <ele>139.1</ele>
        <time>2024-03-20T12:06:46.000Z</time>
      </trkpt>
      <trkpt lat="43.51268" lon="5.31265">
        <ele>138.7</ele>
        <time>2024-03-20T12:06:52.000Z</time>
      </trkpt>
      <trkpt lat="43.5127" lon="5.31263">
        <ele>138.3</ele>
        <time>2024-03-20T12:06:55.000Z</time>
      </trkpt>
      <trkpt lat="43.51271" lon="5.31261">
        <ele>137.7</ele>
        <time>2024-03-20T12:06:57.000Z</time>
      </trkpt>
      <trkpt lat="43.51272" lon="5.31258">
        <ele>137.1</ele>
        <time>2024-03-20T12:07:00.000Z</time>
      </trkpt>
      <trkpt lat="43.51273" lon="5.31255">
        <ele>136.3</ele>
        <time>2024-03-20T12:07:05.000Z</time>
      </trkpt>
      <trkpt lat="43.51275" lon="5.31252">
        <ele>135.2</ele>
        <time>2024-03-20T12:07:10.000Z</time>
      </trkpt>
      <trkpt lat="43.51276" lon="5.3125">
        <ele>134.3</ele>
        <time>2024-03-20T12:07:13.000Z</time>
      </trkpt>
      <trkpt lat="43.51278" lon="5.31248">
        <ele>133.8</ele>
        <time>2024-03-20T12:07:15.000Z</time>
      </trkpt>
      <trkpt lat="43.51279" lon="5.31246">
        <ele>134</ele>
        <time>2024-03-20T12:07:18.000Z</time>
      </trkpt>
      <trkpt lat="43.51281" lon="5.31244">
        <ele>134.2</ele>
        <time>2024-03-20T12:07:22.000Z</time>
      </trkpt>
      <trkpt lat="43.51282" lon="5.31241">
        <ele>134.2</ele>
        <time>2024-03-20T12:07:25.000Z</time>
      </trkpt>
      <trkpt lat="43.51283" lon="5.31238">
        <ele>133.9</ele>
        <time>2024-03-20T12:07:28.000Z</time>
      </trkpt>
      <trkpt lat="43.51284" lon="5.31236">
        <ele>133.9</ele>
        <time>2024-03-20T12:07:32.000Z</time>
      </trkpt>
      <trkpt lat="43.51285" lon="5.31234">
        <ele>133.7</ele>
        <time>2024-03-20T12:07:34.000Z</time>
      </trkpt>
      <trkpt lat="43.51286" lon="5.31232">
        <ele>133.3</ele>
        <time>2024-03-20T12:07:36.000Z</time>
      </trkpt>
      <trkpt lat="43.51287" lon="5.31228">
        <ele>132.6</ele>
        <time>2024-03-20T12:07:40.000Z</time>
      </trkpt>
      <trkpt lat="43.51289" lon="5.31225">
        <ele>132.1</ele>
        <time>2024-03-20T12:07:44.000Z</time>
      </trkpt>
      <trkpt lat="43.5129" lon="5.31223">
        <ele>131.6</ele>
        <time>2024-03-20T12:07:46.000Z</time>
      </trkpt>
      <trkpt lat="43.51292" lon="5.31221">
        <ele>131.4</ele>
        <time>2024-03-20T12:07:50.000Z</time>
      </trkpt>
      <trkpt lat="43.51293" lon="5.31219">
        <ele>131.3</ele>
        <time>2024-03-20T12:07:53.000Z</time>
      </trkpt>
      <trkpt lat="43.51296" lon="5.31216">
        <ele>131</ele>
        <time>2024-03-20T12:07:56.000Z</time>
      </trkpt>
      <trkpt lat="43.51298" lon="5.31215">
        <ele>130.6</ele>
        <time>2024-03-20T12:08:02.000Z</time>
      </trkpt>
      <trkpt lat="43.513" lon="5.31214">
        <ele>130.2</ele>
        <time>2024-03-20T12:08:05.000Z</time>
      </trkpt>
      <trkpt lat="43.51302" lon="5.31211">
        <ele>129.4</ele>
        <time>2024-03-20T12:08:09.000Z</time>
      </trkpt>
      <trkpt lat="43.51303" lon="5.31208">
        <ele>128.5</ele>
        <time>2024-03-20T12:08:12.000Z</time>
      </trkpt>
      <trkpt lat="43.51304" lon="5.31206">
        <ele>127.7</ele>
        <time>2024-03-20T12:08:14.000Z</time>
      </trkpt>
      <trkpt lat="43.51306" lon="5.31204">
        <ele>126.8</ele>
        <time>2024-03-20T12:08:17.000Z</time>
      </trkpt>
      <trkpt lat="43.51307" lon="5.31202">
        <ele>126.2</ele>
        <time>2024-03-20T12:08:19.000Z</time>
      </trkpt>
      <trkpt lat="43.51309" lon="5.312">
        <ele>125.8</ele>
        <time>2024-03-20T12:08:21.000Z</time>
      </trkpt>
      <trkpt lat="43.51311" lon="5.31197">
        <ele>125.2</ele>
        <time>2024-03-20T12:08:24.000Z</time>
      </trkpt>
      <trkpt lat="43.51312" lon="5.31195">
        <ele>124.7</ele>
        <time>2024-03-20T12:08:26.000Z</time>
      </trkpt>
      <trkpt lat="43.51314" lon="5.31194">
        <ele>124.6</ele>
        <time>2024-03-20T12:08:29.000Z</time>
      </trkpt>
      <trkpt lat="43.51317" lon="5.31193">
        <ele>124.8</ele>
        <time>2024-03-20T12:08:31.000Z</time>
      </trkpt>
      <trkpt lat="43.51319" lon="5.3119">
        <ele>124.9</ele>
        <time>2024-03-20T12:08:35.000Z</time>
      </trkpt>
      <trkpt lat="43.5132" lon="5.31187">
        <ele>124.8</ele>
        <time>2024-03-20T12:08:37.000Z</time>
      </trkpt>
      <trkpt lat="43.51321" lon="5.31185">
        <ele>124.7</ele>
        <time>2024-03-20T12:08:38.000Z</time>
      </trkpt>
      <trkpt lat="43.51322" lon="5.31182">
        <ele>124.4</ele>
        <time>2024-03-20T12:08:41.000Z</time>
      </trkpt>
      <trkpt lat="43.51323" lon="5.3118">
        <ele>124.1</ele>
        <time>2024-03-20T12:08:43.000Z</time>
      </trkpt>
      <trkpt lat="43.51324" lon="5.31177">
        <ele>123.7</ele>
        <time>2024-03-20T12:08:45.000Z</time>
      </trkpt>
      <trkpt lat="43.51325" lon="5.31174">
        <ele>123.2</ele>
        <time>2024-03-20T12:08:47.000Z</time>
      </trkpt>
      <trkpt lat="43.51326" lon="5.31172">
        <ele>122.6</ele>
        <time>2024-03-20T12:08:49.000Z</time>
      </trkpt>
      <trkpt lat="43.51327" lon="5.3117">
        <ele>121.9</ele>
        <time>2024-03-20T12:08:51.000Z</time>
      </trkpt>
      <trkpt lat="43.51329" lon="5.31169">
        <ele>121.1</ele>
        <time>2024-03-20T12:08:53.000Z</time>
      </trkpt>
      <trkpt lat="43.51331" lon="5.31167">
        <ele>120</ele>
        <time>2024-03-20T12:08:55.000Z</time>
      </trkpt>
      <trkpt lat="43.51334" lon="5.31165">
        <ele>118.9</ele>
        <time>2024-03-20T12:08:58.000Z</time>
      </trkpt>
      <trkpt lat="43.51336" lon="5.31162">
        <ele>118.3</ele>
        <time>2024-03-20T12:09:01.000Z</time>
      </trkpt>
      <trkpt lat="43.51336" lon="5.31158">
        <ele>118.2</ele>
        <time>2024-03-20T12:09:03.000Z</time>
      </trkpt>
      <trkpt lat="43.51338" lon="5.31155">
        <ele>117.7</ele>
        <time>2024-03-20T12:09:05.000Z</time>
      </trkpt>
      <trkpt lat="43.51338" lon="5.31153">
        <ele>117.7</ele>
        <time>2024-03-20T12:09:06.000Z</time>
      </trkpt>
      <trkpt lat="43.51337" lon="5.31149">
        <ele>117.9</ele>
        <time>2024-03-20T12:09:08.000Z</time>
      </trkpt>
      <trkpt lat="43.51336" lon="5.31147">
        <ele>118.6</ele>
        <time>2024-03-20T12:09:10.000Z</time>
      </trkpt>
      <trkpt lat="43.51335" lon="5.31145">
        <ele>119.1</ele>
        <time>2024-03-20T12:09:12.000Z</time>
      </trkpt>
      <trkpt lat="43.51334" lon="5.31143">
        <ele>119.7</ele>
        <time>2024-03-20T12:09:14.000Z</time>
      </trkpt>
      <trkpt lat="43.51333" lon="5.3114">
        <ele>120</ele>
        <time>2024-03-20T12:09:17.000Z</time>
      </trkpt>
      <trkpt lat="43.51332" lon="5.31137">
        <ele>120.5</ele>
        <time>2024-03-20T12:09:19.000Z</time>
      </trkpt>
      <trkpt lat="43.51331" lon="5.31135">
        <ele>121.1</ele>
        <time>2024-03-20T12:09:21.000Z</time>
      </trkpt>
      <trkpt lat="43.51332" lon="5.31132">
        <ele>121.4</ele>
        <time>2024-03-20T12:09:24.000Z</time>
      </trkpt>
      <trkpt lat="43.51333" lon="5.3113">
        <ele>121.3</ele>
        <time>2024-03-20T12:09:28.000Z</time>
      </trkpt>
      <trkpt lat="43.51335" lon="5.31129">
        <ele>120.9</ele>
        <time>2024-03-20T12:09:31.000Z</time>
      </trkpt>
      <trkpt lat="43.51337" lon="5.31128">
        <ele>120.6</ele>
        <time>2024-03-20T12:09:33.000Z</time>
      </trkpt>
      <trkpt lat="43.51339" lon="5.31127">
        <ele>119.9</ele>
        <time>2024-03-20T12:09:38.000Z</time>
      </trkpt>
      <trkpt lat="43.51341" lon="5.31127">
        <ele>119.3</ele>
        <time>2024-03-20T12:09:47.000Z</time>
      </trkpt>
      <trkpt lat="43.51345" lon="5.31127">
        <ele>118.3</ele>
        <time>2024-03-20T12:09:53.000Z</time>
      </trkpt>
      <trkpt lat="43.51347" lon="5.31129">
        <ele>116.9</ele>
        <time>2024-03-20T12:09:59.000Z</time>
      </trkpt>
      <trkpt lat="43.51349" lon="5.3113">
        <ele>116</ele>
        <time>2024-03-20T12:10:02.000Z</time>
      </trkpt>
      <trkpt lat="43.51351" lon="5.3113">
        <ele>115.2</ele>
        <time>2024-03-20T12:10:05.000Z</time>
      </trkpt>
      <trkpt lat="43.51352" lon="5.31131">
        <ele>114</ele>
        <time>2024-03-20T12:10:09.000Z</time>
      </trkpt>
      <trkpt lat="43.51355" lon="5.31134">
        <ele>111.5</ele>
        <time>2024-03-20T12:10:18.000Z</time>
      </trkpt>
      <trkpt lat="43.51358" lon="5.31135">
        <ele>109.7</ele>
        <time>2024-03-20T12:10:24.000Z</time>
      </trkpt>
      <trkpt lat="43.51361" lon="5.31138">
        <ele>106.7</ele>
        <time>2024-03-20T12:10:30.000Z</time>
      </trkpt>
      <trkpt lat="43.51364" lon="5.3114">
        <ele>105.8</ele>
        <time>2024-03-20T12:10:36.000Z</time>
      </trkpt>
      <trkpt lat="43.51366" lon="5.3114">
        <ele>105.7</ele>
        <time>2024-03-20T12:10:44.000Z</time>
      </trkpt>
      <trkpt lat="43.51369" lon="5.31142">
        <ele>105.6</ele>
        <time>2024-03-20T12:10:51.000Z</time>
      </trkpt>
      <trkpt lat="43.51371" lon="5.31143">
        <ele>105.6</ele>
        <time>2024-03-20T12:10:54.000Z</time>
      </trkpt>
      <trkpt lat="43.51373" lon="5.31145">
        <ele>105.8</ele>
        <time>2024-03-20T12:10:57.000Z</time>
      </trkpt>
      <trkpt lat="43.51375" lon="5.31145">
        <ele>105.6</ele>
        <time>2024-03-20T12:11:00.000Z</time>
      </trkpt>
      <trkpt lat="43.51376" lon="5.31147">
        <ele>105.8</ele>
        <time>2024-03-20T12:11:03.000Z</time>
      </trkpt>
      <trkpt lat="43.51378" lon="5.31149">
        <ele>105.8</ele>
        <time>2024-03-20T12:11:06.000Z</time>
      </trkpt>
      <trkpt lat="43.51381" lon="5.31149">
        <ele>105.6</ele>
        <time>2024-03-20T12:11:09.000Z</time>
      </trkpt>
      <trkpt lat="43.51383" lon="5.3115">
        <ele>105.5</ele>
        <time>2024-03-20T12:11:11.000Z</time>
      </trkpt>
      <trkpt lat="43.51385" lon="5.31149">
        <ele>105.3</ele>
        <time>2024-03-20T12:11:14.000Z</time>
      </trkpt>
      <trkpt lat="43.51386" lon="5.31151">
        <ele>105.5</ele>
        <time>2024-03-20T12:11:16.000Z</time>
      </trkpt>
      <trkpt lat="43.51388" lon="5.31153">
        <ele>105.6</ele>
        <time>2024-03-20T12:11:18.000Z</time>
      </trkpt>
      <trkpt lat="43.51391" lon="5.31153">
        <ele>105.8</ele>
        <time>2024-03-20T12:11:21.000Z</time>
      </trkpt>
      <trkpt lat="43.51393" lon="5.31152">
        <ele>105.8</ele>
        <time>2024-03-20T12:11:24.000Z</time>
      </trkpt>
      <trkpt lat="43.51396" lon="5.31151">
        <ele>105.8</ele>
        <time>2024-03-20T12:11:28.000Z</time>
      </trkpt>
      <trkpt lat="43.51398" lon="5.3115">
        <ele>105.9</ele>
        <time>2024-03-20T12:11:31.000Z</time>
      </trkpt>
      <trkpt lat="43.51401" lon="5.31149">
        <ele>105.7</ele>
        <time>2024-03-20T12:11:34.000Z</time>
      </trkpt>
      <trkpt lat="43.51403" lon="5.31146">
        <ele>104.8</ele>
        <time>2024-03-20T12:11:37.000Z</time>
      </trkpt>
      <trkpt lat="43.51405" lon="5.31144">
        <ele>104</ele>
        <time>2024-03-20T12:11:39.000Z</time>
      </trkpt>
      <trkpt lat="43.51407" lon="5.3114">
        <ele>102.8</ele>
        <time>2024-03-20T12:11:41.000Z</time>
      </trkpt>
      <trkpt lat="43.51409" lon="5.31135">
        <ele>101.8</ele>
        <time>2024-03-20T12:11:47.000Z</time>
      </trkpt>
      <trkpt lat="43.5141" lon="5.31132">
        <ele>101.2</ele>
        <time>2024-03-20T12:11:54.000Z</time>
      </trkpt>
      <trkpt lat="43.51413" lon="5.3113">
        <ele>100.4</ele>
        <time>2024-03-20T12:11:58.000Z</time>
      </trkpt>
      <trkpt lat="43.51415" lon="5.31128">
        <ele>99.4</ele>
        <time>2024-03-20T12:12:01.000Z</time>
      </trkpt>
      <trkpt lat="43.51417" lon="5.31126">
        <ele>98.4</ele>
        <time>2024-03-20T12:12:05.000Z</time>
      </trkpt>
      <trkpt lat="43.51418" lon="5.31124">
        <ele>98.2</ele>
        <time>2024-03-20T12:12:08.000Z</time>
      </trkpt>
      <trkpt lat="43.5142" lon="5.31123">
        <ele>98.4</ele>
        <time>2024-03-20T12:12:11.000Z</time>
      </trkpt>
      <trkpt lat="43.51422" lon="5.31121">
        <ele>98.3</ele>
        <time>2024-03-20T12:12:14.000Z</time>
      </trkpt>
      <trkpt lat="43.51424" lon="5.3112">
        <ele>98.2</ele>
        <time>2024-03-20T12:12:17.000Z</time>
      </trkpt>
      <trkpt lat="43.51425" lon="5.31117">
        <ele>97.7</ele>
        <time>2024-03-20T12:12:20.000Z</time>
      </trkpt>
      <trkpt lat="43.51427" lon="5.31115">
        <ele>97.3</ele>
        <time>2024-03-20T12:12:26.000Z</time>
      </trkpt>
      <trkpt lat="43.51429" lon="5.31112">
        <ele>97.1</ele>
        <time>2024-03-20T12:12:28.000Z</time>
      </trkpt>
      <trkpt lat="43.51431" lon="5.31109">
        <ele>96.8</ele>
        <time>2024-03-20T12:12:32.000Z</time>
      </trkpt>
      <trkpt lat="43.51433" lon="5.31106">
        <ele>96.7</ele>
        <time>2024-03-20T12:12:35.000Z</time>
      </trkpt>
      <trkpt lat="43.51434" lon="5.31104">
        <ele>96.4</ele>
        <time>2024-03-20T12:12:37.000Z</time>
      </trkpt>
      <trkpt lat="43.51436" lon="5.31101">
        <ele>95.9</ele>
        <time>2024-03-20T12:12:39.000Z</time>
      </trkpt>
      <trkpt lat="43.51437" lon="5.31099">
        <ele>95.3</ele>
        <time>2024-03-20T12:12:41.000Z</time>
      </trkpt>
      <trkpt lat="43.51439" lon="5.31098">
        <ele>95.2</ele>
        <time>2024-03-20T12:12:42.000Z</time>
      </trkpt>
      <trkpt lat="43.51442" lon="5.31096">
        <ele>94.4</ele>
        <time>2024-03-20T12:12:43.000Z</time>
      </trkpt>
      <trkpt lat="43.51444" lon="5.31096">
        <ele>94</ele>
        <time>2024-03-20T12:12:45.000Z</time>
      </trkpt>
      <trkpt lat="43.51444" lon="5.31092">
        <ele>92.6</ele>
        <time>2024-03-20T12:12:47.000Z</time>
      </trkpt>
      <trkpt lat="43.51446" lon="5.31089">
        <ele>90.8</ele>
        <time>2024-03-20T12:12:49.000Z</time>
      </trkpt>
      <trkpt lat="43.51445" lon="5.31086">
        <ele>90</ele>
        <time>2024-03-20T12:12:51.000Z</time>
      </trkpt>
      <trkpt lat="43.51444" lon="5.31089">
        <ele>91.2</ele>
        <time>2024-03-20T12:12:55.000Z</time>
      </trkpt>
      <trkpt lat="43.51441" lon="5.31089">
        <ele>92.1</ele>
        <time>2024-03-20T12:13:22.000Z</time>
      </trkpt>
      <trkpt lat="43.51445" lon="5.31092">
        <ele>92.4</ele>
        <time>2024-03-20T12:13:23.000Z</time>
      </trkpt>
      <trkpt lat="43.51449" lon="5.31084">
        <ele>88</ele>
        <time>2024-03-20T12:13:24.000Z</time>
      </trkpt>
      <trkpt lat="43.51446" lon="5.31085">
        <ele>89.2</ele>
        <time>2024-03-20T12:13:37.000Z</time>
      </trkpt>
      <trkpt lat="43.51444" lon="5.31088">
        <ele>91</ele>
        <time>2024-03-20T12:13:39.000Z</time>
      </trkpt>
      <trkpt lat="43.51443" lon="5.31085">
        <ele>90</ele>
        <time>2024-03-20T12:13:44.000Z</time>
      </trkpt>
      <trkpt lat="43.51443" lon="5.31082">
        <ele>89.5</ele>
        <time>2024-03-20T12:13:45.000Z</time>
      </trkpt>
      <trkpt lat="43.51442" lon="5.31085">
        <ele>90.6</ele>
        <time>2024-03-20T12:13:48.000Z</time>
      </trkpt>
      <trkpt lat="43.5144" lon="5.31084">
        <ele>90.8</ele>
        <time>2024-03-20T12:14:39.000Z</time>
      </trkpt>
      <trkpt lat="43.51437" lon="5.31088">
        <ele>92.9</ele>
        <time>2024-03-20T12:15:01.000Z</time>
      </trkpt>
      <trkpt lat="43.51439" lon="5.31088">
        <ele>92.3</ele>
        <time>2024-03-20T12:15:13.000Z</time>
      </trkpt>
      <trkpt lat="43.51438" lon="5.31086">
        <ele>91.9</ele>
        <time>2024-03-20T12:15:35.000Z</time>
      </trkpt>
      <trkpt lat="43.51438" lon="5.31082">
        <ele>91.4</ele>
        <time>2024-03-20T12:15:42.000Z</time>
      </trkpt>
      <trkpt lat="43.51439" lon="5.31085">
        <ele>91.5</ele>
        <time>2024-03-20T12:15:47.000Z</time>
      </trkpt>
      <trkpt lat="43.51441" lon="5.31085">
        <ele>90.9</ele>
        <time>2024-03-20T12:16:46.000Z</time>
      </trkpt>
      <trkpt lat="43.51439" lon="5.31081">
        <ele>91</ele>
        <time>2024-03-20T12:17:07.000Z</time>
      </trkpt>
      <trkpt lat="43.5144" lon="5.31079">
        <ele>90.5</ele>
        <time>2024-03-20T12:17:11.000Z</time>
      </trkpt>
      <trkpt lat="43.51439" lon="5.31085">
        <ele>91.5</ele>
        <time>2024-03-20T12:17:33.000Z</time>
      </trkpt>
      <trkpt lat="43.51441" lon="5.31085">
        <ele>91</ele>
        <time>2024-03-20T12:17:34.000Z</time>
      </trkpt>
      <trkpt lat="43.51442" lon="5.31088">
        <ele>91.6</ele>
        <time>2024-03-20T12:17:35.000Z</time>
      </trkpt>
      <trkpt lat="43.51441" lon="5.31082">
        <ele>90.3</ele>
        <time>2024-03-20T12:17:41.000Z</time>
      </trkpt>
      <trkpt lat="43.51438" lon="5.31084">
        <ele>91.3</ele>
        <time>2024-03-20T12:17:43.000Z</time>
      </trkpt>
      <trkpt lat="43.5144" lon="5.31082">
        <ele>90.6</ele>
        <time>2024-03-20T12:17:45.000Z</time>
      </trkpt>
      <trkpt lat="43.51443" lon="5.31083">
        <ele>89.5</ele>
        <time>2024-03-20T12:17:53.000Z</time>
      </trkpt>
      <trkpt lat="43.51441" lon="5.31083">
        <ele>90.2</ele>
        <time>2024-03-20T12:18:00.000Z</time>
      </trkpt>
      <trkpt lat="43.51443" lon="5.31085">
        <ele>90.1</ele>
        <time>2024-03-20T12:18:12.000Z</time>
      </trkpt>
      <trkpt lat="43.51445" lon="5.31086">
        <ele>90.2</ele>
        <time>2024-03-20T12:18:13.000Z</time>
      </trkpt>
      <trkpt lat="43.51446" lon="5.31084">
        <ele>89</ele>
        <time>2024-03-20T12:18:21.000Z</time>
      </trkpt>
      <trkpt lat="43.51445" lon="5.31082">
        <ele>88.8</ele>
        <time>2024-03-20T12:18:27.000Z</time>
      </trkpt>
      <trkpt lat="43.51444" lon="5.31081">
        <ele>89</ele>
        <time>2024-03-20T12:18:28.000Z</time>
      </trkpt>
      <trkpt lat="43.51441" lon="5.31077">
        <ele>90</ele>
        <time>2024-03-20T12:18:30.000Z</time>
      </trkpt>
      <trkpt lat="43.5144" lon="5.31079">
        <ele>90.5</ele>
        <time>2024-03-20T12:18:32.000Z</time>
      </trkpt>
      <trkpt lat="43.51436" lon="5.31079">
        <ele>91.9</ele>
        <time>2024-03-20T12:18:48.000Z</time>
      </trkpt>
      <trkpt lat="43.51437" lon="5.31082">
        <ele>91.6</ele>
        <time>2024-03-20T12:18:49.000Z</time>
      </trkpt>
      <trkpt lat="43.51437" lon="5.31076">
        <ele>91.7</ele>
        <time>2024-03-20T12:19:33.000Z</time>
      </trkpt>
      <trkpt lat="43.51437" lon="5.31072">
        <ele>91.5</ele>
        <time>2024-03-20T12:19:42.000Z</time>
      </trkpt>
      <trkpt lat="43.51439" lon="5.31074">
        <ele>90.6</ele>
        <time>2024-03-20T12:19:44.000Z</time>
      </trkpt>
      <trkpt lat="43.51442" lon="5.31076">
        <ele>89.5</ele>
        <time>2024-03-20T12:19:50.000Z</time>
      </trkpt>
      <trkpt lat="43.51444" lon="5.31075">
        <ele>88.4</ele>
        <time>2024-03-20T12:19:51.000Z</time>
      </trkpt>
      <trkpt lat="43.51443" lon="5.3107">
        <ele>88.1</ele>
        <time>2024-03-20T12:19:59.000Z</time>
      </trkpt>
      <trkpt lat="43.51441" lon="5.31072">
        <ele>89.6</ele>
        <time>2024-03-20T12:20:00.000Z</time>
      </trkpt>
      <trkpt lat="43.51436" lon="5.31074">
        <ele>92.2</ele>
        <time>2024-03-20T12:20:01.000Z</time>
      </trkpt>
      <trkpt lat="43.51436" lon="5.31076">
        <ele>92.3</ele>
        <time>2024-03-20T12:20:02.000Z</time>
      </trkpt>
      <trkpt lat="43.5144" lon="5.31074">
        <ele>90.1</ele>
        <time>2024-03-20T12:20:09.000Z</time>
      </trkpt>
      <trkpt lat="43.51442" lon="5.31072">
        <ele>89</ele>
        <time>2024-03-20T12:20:10.000Z</time>
      </trkpt>
      <trkpt lat="43.51442" lon="5.31066">
        <ele>88.5</ele>
        <time>2024-03-20T12:20:33.000Z</time>
      </trkpt>
      <trkpt lat="43.51437" lon="5.31068">
        <ele>91.7</ele>
        <time>2024-03-20T12:21:14.000Z</time>
      </trkpt>
      <trkpt lat="43.5144" lon="5.31069">
        <ele>90.1</ele>
        <time>2024-03-20T12:21:30.000Z</time>
      </trkpt>
      <trkpt lat="43.51442" lon="5.31074">
        <ele>89.2</ele>
        <time>2024-03-20T12:21:31.000Z</time>
      </trkpt>
      <trkpt lat="43.5144" lon="5.31076">
        <ele>90</ele>
        <time>2024-03-20T12:24:54.000Z</time>
      </trkpt>
      <trkpt lat="43.51439" lon="5.31077">
        <ele>90.9</ele>
        <time>2024-03-20T12:24:56.000Z</time>
      </trkpt>
      <trkpt lat="43.51437" lon="5.31079">
        <ele>91.7</ele>
        <time>2024-03-20T12:25:05.000Z</time>
      </trkpt>
      <trkpt lat="43.51438" lon="5.3108">
        <ele>91.1</ele>
        <time>2024-03-20T12:25:07.000Z</time>
      </trkpt>
      <trkpt lat="43.5144" lon="5.31079">
        <ele>90.3</ele>
        <time>2024-03-20T12:25:27.000Z</time>
      </trkpt>
      <trkpt lat="43.51441" lon="5.31075">
        <ele>89.9</ele>
        <time>2024-03-20T12:25:30.000Z</time>
      </trkpt>
      <trkpt lat="43.51441" lon="5.31073">
        <ele>89.6</ele>
        <time>2024-03-20T12:25:32.000Z</time>
      </trkpt>
      <trkpt lat="43.51441" lon="5.31069">
        <ele>89.4</ele>
        <time>2024-03-20T12:25:35.000Z</time>
      </trkpt>
      <trkpt lat="43.51441" lon="5.31066">
        <ele>89</ele>
        <time>2024-03-20T12:25:40.000Z</time>
      </trkpt>
      <trkpt lat="43.51441" lon="5.31063">
        <ele>88.9</ele>
        <time>2024-03-20T12:25:42.000Z</time>
      </trkpt>
      <trkpt lat="43.51441" lon="5.3106">
        <ele>88.7</ele>
        <time>2024-03-20T12:25:44.000Z</time>
      </trkpt>
      <trkpt lat="43.51441" lon="5.31055">
        <ele>88.5</ele>
        <time>2024-03-20T12:25:47.000Z</time>
      </trkpt>
      <trkpt lat="43.51441" lon="5.31053">
        <ele>88.1</ele>
        <time>2024-03-20T12:25:49.000Z</time>
      </trkpt>
      <trkpt lat="43.51441" lon="5.31049">
        <ele>87.9</ele>
        <time>2024-03-20T12:25:51.000Z</time>
      </trkpt>
      <trkpt lat="43.51441" lon="5.31046">
        <ele>87.7</ele>
        <time>2024-03-20T12:25:54.000Z</time>
      </trkpt>
      <trkpt lat="43.51442" lon="5.31041">
        <ele>86.7</ele>
        <time>2024-03-20T12:25:57.000Z</time>
      </trkpt>
      <trkpt lat="43.51442" lon="5.31039">
        <ele>86.8</ele>
        <time>2024-03-20T12:25:59.000Z</time>
      </trkpt>
      <trkpt lat="43.51443" lon="5.31036">
        <ele>86.1</ele>
        <time>2024-03-20T12:26:00.000Z</time>
      </trkpt>
      <trkpt lat="43.5144" lon="5.31033">
        <ele>88.2</ele>
        <time>2024-03-20T12:26:03.000Z</time>
      </trkpt>
      <trkpt lat="43.51441" lon="5.31028">
        <ele>87.3</ele>
        <time>2024-03-20T12:26:06.000Z</time>
      </trkpt>
      <trkpt lat="43.51439" lon="5.31027">
        <ele>88.7</ele>
        <time>2024-03-20T12:26:08.000Z</time>
      </trkpt>
      <trkpt lat="43.51439" lon="5.31024">
        <ele>88.7</ele>
        <time>2024-03-20T12:26:10.000Z</time>
      </trkpt>
      <trkpt lat="43.51439" lon="5.3102">
        <ele>89</ele>
        <time>2024-03-20T12:26:12.000Z</time>
      </trkpt>
      <trkpt lat="43.51439" lon="5.31017">
        <ele>88.9</ele>
        <time>2024-03-20T12:26:13.000Z</time>
      </trkpt>
      <trkpt lat="43.51437" lon="5.31015">
        <ele>90.5</ele>
        <time>2024-03-20T12:26:16.000Z</time>
      </trkpt>
      <trkpt lat="43.51435" lon="5.31012">
        <ele>91.8</ele>
        <time>2024-03-20T12:26:19.000Z</time>
      </trkpt>
      <trkpt lat="43.51434" lon="5.31009">
        <ele>92.2</ele>
        <time>2024-03-20T12:26:21.000Z</time>
      </trkpt>
      <trkpt lat="43.51435" lon="5.31005">
        <ele>91.6</ele>
        <time>2024-03-20T12:26:24.000Z</time>
      </trkpt>
      <trkpt lat="43.51435" lon="5.31002">
        <ele>91.2</ele>
        <time>2024-03-20T12:26:26.000Z</time>
      </trkpt>
      <trkpt lat="43.51435" lon="5.30999">
        <ele>90.9</ele>
        <time>2024-03-20T12:26:28.000Z</time>
      </trkpt>
      <trkpt lat="43.51435" lon="5.30996">
        <ele>90.8</ele>
        <time>2024-03-20T12:26:30.000Z</time>
      </trkpt>
      <trkpt lat="43.51434" lon="5.30994">
        <ele>91.4</ele>
        <time>2024-03-20T12:26:32.000Z</time>
      </trkpt>
      <trkpt lat="43.51432" lon="5.30991">
        <ele>92.5</ele>
        <time>2024-03-20T12:26:35.000Z</time>
      </trkpt>
      <trkpt lat="43.5143" lon="5.30988">
        <ele>93</ele>
        <time>2024-03-20T12:26:40.000Z</time>
      </trkpt>
      <trkpt lat="43.51429" lon="5.30986">
        <ele>93.3</ele>
        <time>2024-03-20T12:26:44.000Z</time>
      </trkpt>
      <trkpt lat="43.51428" lon="5.30984">
        <ele>93.5</ele>
        <time>2024-03-20T12:26:46.000Z</time>
      </trkpt>
      <trkpt lat="43.51428" lon="5.30981">
        <ele>92.7</ele>
        <time>2024-03-20T12:26:48.000Z</time>
      </trkpt>
      <trkpt lat="43.51427" lon="5.30978">
        <ele>92.4</ele>
        <time>2024-03-20T12:26:51.000Z</time>
      </trkpt>
      <trkpt lat="43.51427" lon="5.30974">
        <ele>91.7</ele>
        <time>2024-03-20T12:26:54.000Z</time>
      </trkpt>
      <trkpt lat="43.51426" lon="5.30972">
        <ele>91.7</ele>
        <time>2024-03-20T12:26:57.000Z</time>
      </trkpt>
      <trkpt lat="43.51426" lon="5.30969">
        <ele>91.6</ele>
        <time>2024-03-20T12:27:00.000Z</time>
      </trkpt>
      <trkpt lat="43.51425" lon="5.30964">
        <ele>91.6</ele>
        <time>2024-03-20T12:27:04.000Z</time>
      </trkpt>
      <trkpt lat="43.51426" lon="5.30962">
        <ele>91.2</ele>
        <time>2024-03-20T12:27:06.000Z</time>
      </trkpt>
      <trkpt lat="43.51424" lon="5.30958">
        <ele>91.9</ele>
        <time>2024-03-20T12:27:10.000Z</time>
      </trkpt>
      <trkpt lat="43.51423" lon="5.30955">
        <ele>92.4</ele>
        <time>2024-03-20T12:27:13.000Z</time>
      </trkpt>
      <trkpt lat="43.51423" lon="5.30952">
        <ele>92.4</ele>
        <time>2024-03-20T12:27:16.000Z</time>
      </trkpt>
      <trkpt lat="43.51422" lon="5.30949">
        <ele>92.7</ele>
        <time>2024-03-20T12:27:19.000Z</time>
      </trkpt>
      <trkpt lat="43.51421" lon="5.30946">
        <ele>93.1</ele>
        <time>2024-03-20T12:27:22.000Z</time>
      </trkpt>
      <trkpt lat="43.5142" lon="5.30944">
        <ele>93.4</ele>
        <time>2024-03-20T12:27:24.000Z</time>
      </trkpt>
      <trkpt lat="43.51421" lon="5.30938">
        <ele>92.8</ele>
        <time>2024-03-20T12:27:28.000Z</time>
      </trkpt>
      <trkpt lat="43.51421" lon="5.30936">
        <ele>92.5</ele>
        <time>2024-03-20T12:27:30.000Z</time>
      </trkpt>
      <trkpt lat="43.51421" lon="5.30933">
        <ele>92</ele>
        <time>2024-03-20T12:27:32.000Z</time>
      </trkpt>
      <trkpt lat="43.51422" lon="5.30929">
        <ele>91.5</ele>
        <time>2024-03-20T12:27:35.000Z</time>
      </trkpt>
      <trkpt lat="43.51423" lon="5.30926">
        <ele>91.1</ele>
        <time>2024-03-20T12:27:39.000Z</time>
      </trkpt>
      <trkpt lat="43.51424" lon="5.30922">
        <ele>90.4</ele>
        <time>2024-03-20T12:27:43.000Z</time>
      </trkpt>
      <trkpt lat="43.51422" lon="5.30919">
        <ele>90.8</ele>
        <time>2024-03-20T12:27:46.000Z</time>
      </trkpt>
      <trkpt lat="43.51421" lon="5.30915">
        <ele>91.1</ele>
        <time>2024-03-20T12:27:49.000Z</time>
      </trkpt>
      <trkpt lat="43.51421" lon="5.30912">
        <ele>90.8</ele>
        <time>2024-03-20T12:27:51.000Z</time>
      </trkpt>
      <trkpt lat="43.51421" lon="5.30908">
        <ele>90.5</ele>
        <time>2024-03-20T12:27:53.000Z</time>
      </trkpt>
      <trkpt lat="43.5142" lon="5.30905">
        <ele>90.6</ele>
        <time>2024-03-20T12:27:56.000Z</time>
      </trkpt>
      <trkpt lat="43.5142" lon="5.30903">
        <ele>90.4</ele>
        <time>2024-03-20T12:27:58.000Z</time>
      </trkpt>
      <trkpt lat="43.5142" lon="5.309">
        <ele>90</ele>
        <time>2024-03-20T12:28:01.000Z</time>
      </trkpt>
      <trkpt lat="43.51419" lon="5.30897">
        <ele>90</ele>
        <time>2024-03-20T12:28:04.000Z</time>
      </trkpt>
      <trkpt lat="43.51419" lon="5.30895">
        <ele>89.8</ele>
        <time>2024-03-20T12:28:06.000Z</time>
      </trkpt>
      <trkpt lat="43.51417" lon="5.30891">
        <ele>90.1</ele>
        <time>2024-03-20T12:28:10.000Z</time>
      </trkpt>
      <trkpt lat="43.51417" lon="5.30887">
        <ele>89.9</ele>
        <time>2024-03-20T12:28:13.000Z</time>
      </trkpt>
      <trkpt lat="43.51417" lon="5.30884">
        <ele>89.7</ele>
        <time>2024-03-20T12:28:15.000Z</time>
      </trkpt>
      <trkpt lat="43.51415" lon="5.30881">
        <ele>90.5</ele>
        <time>2024-03-20T12:28:17.000Z</time>
      </trkpt>
      <trkpt lat="43.51415" lon="5.30878">
        <ele>90.8</ele>
        <time>2024-03-20T12:28:19.000Z</time>
      </trkpt>
      <trkpt lat="43.51414" lon="5.30875">
        <ele>91</ele>
        <time>2024-03-20T12:28:21.000Z</time>
      </trkpt>
      <trkpt lat="43.51414" lon="5.30871">
        <ele>90.7</ele>
        <time>2024-03-20T12:28:25.000Z</time>
      </trkpt>
      <trkpt lat="43.51414" lon="5.30868">
        <ele>90.5</ele>
        <time>2024-03-20T12:28:27.000Z</time>
      </trkpt>
      <trkpt lat="43.51414" lon="5.30865">
        <ele>90.3</ele>
        <time>2024-03-20T12:28:30.000Z</time>
      </trkpt>
      <trkpt lat="43.51414" lon="5.30862">
        <ele>89.8</ele>
        <time>2024-03-20T12:28:33.000Z</time>
      </trkpt>
      <trkpt lat="43.51414" lon="5.30859">
        <ele>89.2</ele>
        <time>2024-03-20T12:28:36.000Z</time>
      </trkpt>
      <trkpt lat="43.51415" lon="5.30855">
        <ele>88.3</ele>
        <time>2024-03-20T12:28:39.000Z</time>
      </trkpt>
      <trkpt lat="43.51414" lon="5.30851">
        <ele>88.5</ele>
        <time>2024-03-20T12:28:42.000Z</time>
      </trkpt>
      <trkpt lat="43.51413" lon="5.30848">
        <ele>88.8</ele>
        <time>2024-03-20T12:28:45.000Z</time>
      </trkpt>
      <trkpt lat="43.51413" lon="5.30845">
        <ele>88.5</ele>
        <time>2024-03-20T12:28:48.000Z</time>
      </trkpt>
      <trkpt lat="43.51413" lon="5.30842">
        <ele>88</ele>
        <time>2024-03-20T12:28:50.000Z</time>
      </trkpt>
      <trkpt lat="43.51414" lon="5.30838">
        <ele>87.1</ele>
        <time>2024-03-20T12:28:52.000Z</time>
      </trkpt>
      <trkpt lat="43.51414" lon="5.30836">
        <ele>86.5</ele>
        <time>2024-03-20T12:28:54.000Z</time>
      </trkpt>
      <trkpt lat="43.51414" lon="5.30833">
        <ele>86.5</ele>
        <time>2024-03-20T12:28:56.000Z</time>
      </trkpt>
      <trkpt lat="43.51414" lon="5.3083">
        <ele>86.4</ele>
        <time>2024-03-20T12:28:58.000Z</time>
      </trkpt>
      <trkpt lat="43.51413" lon="5.30826">
        <ele>87.2</ele>
        <time>2024-03-20T12:29:02.000Z</time>
      </trkpt>
      <trkpt lat="43.51413" lon="5.30822">
        <ele>87.6</ele>
        <time>2024-03-20T12:29:04.000Z</time>
      </trkpt>
      <trkpt lat="43.51413" lon="5.30818">
        <ele>87.5</ele>
        <time>2024-03-20T12:29:06.000Z</time>
      </trkpt>
      <trkpt lat="43.51413" lon="5.30809">
        <ele>88.2</ele>
        <time>2024-03-20T12:29:09.000Z</time>
      </trkpt>
      <trkpt lat="43.51413" lon="5.30806">
        <ele>88.7</ele>
        <time>2024-03-20T12:29:12.000Z</time>
      </trkpt>
      <trkpt lat="43.51413" lon="5.30802">
        <ele>88.1</ele>
        <time>2024-03-20T12:29:14.000Z</time>
      </trkpt>
      <trkpt lat="43.51411" lon="5.30801">
        <ele>89.5</ele>
        <time>2024-03-20T12:29:15.000Z</time>
      </trkpt>
      <trkpt lat="43.51409" lon="5.30796">
        <ele>90.3</ele>
        <time>2024-03-20T12:29:20.000Z</time>
      </trkpt>
      <trkpt lat="43.51409" lon="5.30793">
        <ele>90.2</ele>
        <time>2024-03-20T12:29:22.000Z</time>
      </trkpt>
      <trkpt lat="43.5141" lon="5.3079">
        <ele>89.9</ele>
        <time>2024-03-20T12:29:24.000Z</time>
      </trkpt>
      <trkpt lat="43.51409" lon="5.30786">
        <ele>90.1</ele>
        <time>2024-03-20T12:29:27.000Z</time>
      </trkpt>
      <trkpt lat="43.5141" lon="5.30783">
        <ele>89.3</ele>
        <time>2024-03-20T12:29:30.000Z</time>
      </trkpt>
      <trkpt lat="43.5141" lon="5.3078">
        <ele>89.4</ele>
        <time>2024-03-20T12:29:32.000Z</time>
      </trkpt>
      <trkpt lat="43.5141" lon="5.30777">
        <ele>89</ele>
        <time>2024-03-20T12:29:35.000Z</time>
      </trkpt>
      <trkpt lat="43.5141" lon="5.30773">
        <ele>88.2</ele>
        <time>2024-03-20T12:29:37.000Z</time>
      </trkpt>
      <trkpt lat="43.51411" lon="5.3077">
        <ele>87.1</ele>
        <time>2024-03-20T12:29:39.000Z</time>
      </trkpt>
      <trkpt lat="43.51411" lon="5.30766">
        <ele>86.3</ele>
        <time>2024-03-20T12:29:41.000Z</time>
      </trkpt>
      <trkpt lat="43.51411" lon="5.30761">
        <ele>85.2</ele>
        <time>2024-03-20T12:29:45.000Z</time>
      </trkpt>
      <trkpt lat="43.51411" lon="5.30758">
        <ele>84.9</ele>
        <time>2024-03-20T12:29:47.000Z</time>
      </trkpt>
      <trkpt lat="43.51411" lon="5.30756">
        <ele>84.4</ele>
        <time>2024-03-20T12:29:49.000Z</time>
      </trkpt>
      <trkpt lat="43.51412" lon="5.30753">
        <ele>83.8</ele>
        <time>2024-03-20T12:29:51.000Z</time>
      </trkpt>
      <trkpt lat="43.51411" lon="5.3075">
        <ele>83.5</ele>
        <time>2024-03-20T12:29:53.000Z</time>
      </trkpt>
      <trkpt lat="43.5141" lon="5.30748">
        <ele>84.1</ele>
        <time>2024-03-20T12:29:55.000Z</time>
      </trkpt>
      <trkpt lat="43.51408" lon="5.30742">
        <ele>85.4</ele>
        <time>2024-03-20T12:29:58.000Z</time>
      </trkpt>
      <trkpt lat="43.51408" lon="5.30737">
        <ele>85.6</ele>
        <time>2024-03-20T12:30:01.000Z</time>
      </trkpt>
      <trkpt lat="43.51407" lon="5.30734">
        <ele>86.1</ele>
        <time>2024-03-20T12:30:04.000Z</time>
      </trkpt>
      <trkpt lat="43.51407" lon="5.30731">
        <ele>86.3</ele>
        <time>2024-03-20T12:30:05.000Z</time>
      </trkpt>
      <trkpt lat="43.51407" lon="5.30728">
        <ele>86.1</ele>
        <time>2024-03-20T12:30:06.000Z</time>
      </trkpt>
      <trkpt lat="43.5141" lon="5.30725">
        <ele>84.5</ele>
        <time>2024-03-20T12:30:10.000Z</time>
      </trkpt>
      <trkpt lat="43.51409" lon="5.30718">
        <ele>85.5</ele>
        <time>2024-03-20T12:30:13.000Z</time>
      </trkpt>
      <trkpt lat="43.51407" lon="5.30716">
        <ele>86.1</ele>
        <time>2024-03-20T12:30:15.000Z</time>
      </trkpt>
      <trkpt lat="43.51406" lon="5.30714">
        <ele>86.7</ele>
        <time>2024-03-20T12:30:16.000Z</time>
      </trkpt>
      <trkpt lat="43.51404" lon="5.30712">
        <ele>87.9</ele>
        <time>2024-03-20T12:30:18.000Z</time>
      </trkpt>
      <trkpt lat="43.51405" lon="5.30708">
        <ele>87.6</ele>
        <time>2024-03-20T12:30:21.000Z</time>
      </trkpt>
      <trkpt lat="43.51403" lon="5.30705">
        <ele>88.4</ele>
        <time>2024-03-20T12:30:25.000Z</time>
      </trkpt>
      <trkpt lat="43.514" lon="5.30704">
        <ele>89.7</ele>
        <time>2024-03-20T12:30:27.000Z</time>
      </trkpt>
      <trkpt lat="43.514" lon="5.30701">
        <ele>89.9</ele>
        <time>2024-03-20T12:30:28.000Z</time>
      </trkpt>
      <trkpt lat="43.514" lon="5.30697">
        <ele>89.7</ele>
        <time>2024-03-20T12:30:32.000Z</time>
      </trkpt>
      <trkpt lat="43.514" lon="5.30694">
        <ele>89.7</ele>
        <time>2024-03-20T12:30:34.000Z</time>
      </trkpt>
      <trkpt lat="43.514" lon="5.3069">
        <ele>89.7</ele>
        <time>2024-03-20T12:30:36.000Z</time>
      </trkpt>
      <trkpt lat="43.51399" lon="5.30688">
        <ele>89.9</ele>
        <time>2024-03-20T12:30:38.000Z</time>
      </trkpt>
      <trkpt lat="43.51399" lon="5.30685">
        <ele>89.8</ele>
        <time>2024-03-20T12:30:40.000Z</time>
      </trkpt>
      <trkpt lat="43.51399" lon="5.30682">
        <ele>89.6</ele>
        <time>2024-03-20T12:30:42.000Z</time>
      </trkpt>
      <trkpt lat="43.51399" lon="5.30679">
        <ele>89.4</ele>
        <time>2024-03-20T12:30:45.000Z</time>
      </trkpt>
      <trkpt lat="43.51399" lon="5.30676">
        <ele>89.1</ele>
        <time>2024-03-20T12:30:48.000Z</time>
      </trkpt>
      <trkpt lat="43.51398" lon="5.30671">
        <ele>89.3</ele>
        <time>2024-03-20T12:30:51.000Z</time>
      </trkpt>
      <trkpt lat="43.51398" lon="5.30667">
        <ele>89.2</ele>
        <time>2024-03-20T12:30:53.000Z</time>
      </trkpt>
      <trkpt lat="43.51397" lon="5.30664">
        <ele>89.3</ele>
        <time>2024-03-20T12:30:56.000Z</time>
      </trkpt>
      <trkpt lat="43.51396" lon="5.30661">
        <ele>89.5</ele>
        <time>2024-03-20T12:30:58.000Z</time>
      </trkpt>
      <trkpt lat="43.51396" lon="5.30655">
        <ele>89.4</ele>
        <time>2024-03-20T12:31:01.000Z</time>
      </trkpt>
      <trkpt lat="43.51395" lon="5.30652">
        <ele>89.4</ele>
        <time>2024-03-20T12:31:03.000Z</time>
      </trkpt>
      <trkpt lat="43.51394" lon="5.30649">
        <ele>89.6</ele>
        <time>2024-03-20T12:31:05.000Z</time>
      </trkpt>
      <trkpt lat="43.51393" lon="5.30646">
        <ele>89.5</ele>
        <time>2024-03-20T12:31:08.000Z</time>
      </trkpt>
      <trkpt lat="43.51391" lon="5.30644">
        <ele>89.8</ele>
        <time>2024-03-20T12:31:10.000Z</time>
      </trkpt>
      <trkpt lat="43.51389" lon="5.30642">
        <ele>90.3</ele>
        <time>2024-03-20T12:31:12.000Z</time>
      </trkpt>
      <trkpt lat="43.51387" lon="5.3064">
        <ele>90.5</ele>
        <time>2024-03-20T12:31:14.000Z</time>
      </trkpt>
      <trkpt lat="43.51384" lon="5.30638">
        <ele>90.8</ele>
        <time>2024-03-20T12:31:16.000Z</time>
      </trkpt>
      <trkpt lat="43.51383" lon="5.30636">
        <ele>90.8</ele>
        <time>2024-03-20T12:31:19.000Z</time>
      </trkpt>
      <trkpt lat="43.51381" lon="5.30634">
        <ele>91</ele>
        <time>2024-03-20T12:31:21.000Z</time>
      </trkpt>
      <trkpt lat="43.51379" lon="5.30632">
        <ele>91.1</ele>
        <time>2024-03-20T12:31:49.000Z</time>
      </trkpt>
      <trkpt lat="43.51379" lon="5.30635">
        <ele>91.5</ele>
        <time>2024-03-20T12:31:57.000Z</time>
      </trkpt>
      <trkpt lat="43.51378" lon="5.30633">
        <ele>91.3</ele>
        <time>2024-03-20T12:32:01.000Z</time>
      </trkpt>
      <trkpt lat="43.51377" lon="5.3063">
        <ele>91.2</ele>
        <time>2024-03-20T12:32:05.000Z</time>
      </trkpt>
      <trkpt lat="43.51375" lon="5.30629">
        <ele>91.4</ele>
        <time>2024-03-20T12:32:08.000Z</time>
      </trkpt>
      <trkpt lat="43.51372" lon="5.30627">
        <ele>91.6</ele>
        <time>2024-03-20T12:32:10.000Z</time>
      </trkpt>
      <trkpt lat="43.5137" lon="5.30625">
        <ele>91.8</ele>
        <time>2024-03-20T12:32:12.000Z</time>
      </trkpt>
      <trkpt lat="43.51367" lon="5.30624">
        <ele>92</ele>
        <time>2024-03-20T12:32:14.000Z</time>
      </trkpt>
      <trkpt lat="43.51365" lon="5.30623">
        <ele>92.2</ele>
        <time>2024-03-20T12:32:16.000Z</time>
      </trkpt>
      <trkpt lat="43.51363" lon="5.30622">
        <ele>92.4</ele>
        <time>2024-03-20T12:32:18.000Z</time>
      </trkpt>
      <trkpt lat="43.5136" lon="5.30622">
        <ele>92.6</ele>
        <time>2024-03-20T12:32:20.000Z</time>
      </trkpt>
      <trkpt lat="43.51358" lon="5.30621">
        <ele>92.8</ele>
        <time>2024-03-20T12:32:22.000Z</time>
      </trkpt>
      <trkpt lat="43.51356" lon="5.30621">
        <ele>93</ele>
        <time>2024-03-20T12:32:24.000Z</time>
      </trkpt>
      <trkpt lat="43.51354" lon="5.3062">
        <ele>93.1</ele>
        <time>2024-03-20T12:32:27.000Z</time>
      </trkpt>
      <trkpt lat="43.51352" lon="5.30619">
        <ele>93.2</ele>
        <time>2024-03-20T12:32:29.000Z</time>
      </trkpt>
      <trkpt lat="43.5135" lon="5.30618">
        <ele>93.2</ele>
        <time>2024-03-20T12:32:31.000Z</time>
      </trkpt>
      <trkpt lat="43.51348" lon="5.30617">
        <ele>93.3</ele>
        <time>2024-03-20T12:32:33.000Z</time>
      </trkpt>
      <trkpt lat="43.51346" lon="5.30617">
        <ele>93.5</ele>
        <time>2024-03-20T12:32:35.000Z</time>
      </trkpt>
      <trkpt lat="43.51343" lon="5.30616">
        <ele>93.7</ele>
        <time>2024-03-20T12:32:37.000Z</time>
      </trkpt>
      <trkpt lat="43.5134" lon="5.30615">
        <ele>93.6</ele>
        <time>2024-03-20T12:32:40.000Z</time>
      </trkpt>
      <trkpt lat="43.51338" lon="5.30615">
        <ele>93.7</ele>
        <time>2024-03-20T12:32:43.000Z</time>
      </trkpt>
      <trkpt lat="43.51335" lon="5.30615">
        <ele>93.9</ele>
        <time>2024-03-20T12:32:46.000Z</time>
      </trkpt>
      <trkpt lat="43.51333" lon="5.30614">
        <ele>93.9</ele>
        <time>2024-03-20T12:32:48.000Z</time>
      </trkpt>
      <trkpt lat="43.51332" lon="5.30611">
        <ele>93.2</ele>
        <time>2024-03-20T12:32:50.000Z</time>
      </trkpt>
      <trkpt lat="43.5133" lon="5.30609">
        <ele>93.5</ele>
        <time>2024-03-20T12:32:51.000Z</time>
      </trkpt>
      <trkpt lat="43.51328" lon="5.30609">
        <ele>93.8</ele>
        <time>2024-03-20T12:32:53.000Z</time>
      </trkpt>
      <trkpt lat="43.51326" lon="5.30608">
        <ele>94</ele>
        <time>2024-03-20T12:32:54.000Z</time>
      </trkpt>
      <trkpt lat="43.51324" lon="5.30606">
        <ele>94.3</ele>
        <time>2024-03-20T12:32:56.000Z</time>
      </trkpt>
      <trkpt lat="43.51322" lon="5.30608">
        <ele>94.6</ele>
        <time>2024-03-20T12:32:57.000Z</time>
      </trkpt>
      <trkpt lat="43.51321" lon="5.3061">
        <ele>94.8</ele>
        <time>2024-03-20T12:33:00.000Z</time>
      </trkpt>
      <trkpt lat="43.51319" lon="5.30607">
        <ele>94.9</ele>
        <time>2024-03-20T12:33:02.000Z</time>
      </trkpt>
      <trkpt lat="43.51317" lon="5.30607">
        <ele>95.2</ele>
        <time>2024-03-20T12:33:04.000Z</time>
      </trkpt>
      <trkpt lat="43.51315" lon="5.30607">
        <ele>95.6</ele>
        <time>2024-03-20T12:33:06.000Z</time>
      </trkpt>
      <trkpt lat="43.51312" lon="5.30607">
        <ele>95.9</ele>
        <time>2024-03-20T12:33:08.000Z</time>
      </trkpt>
      <trkpt lat="43.5131" lon="5.30606">
        <ele>96.3</ele>
        <time>2024-03-20T12:33:10.000Z</time>
      </trkpt>
      <trkpt lat="43.51307" lon="5.30607">
        <ele>96.6</ele>
        <time>2024-03-20T12:33:13.000Z</time>
      </trkpt>
      <trkpt lat="43.51305" lon="5.30607">
        <ele>97</ele>
        <time>2024-03-20T12:33:16.000Z</time>
      </trkpt>
      <trkpt lat="43.51302" lon="5.30607">
        <ele>97.2</ele>
        <time>2024-03-20T12:33:18.000Z</time>
      </trkpt>
      <trkpt lat="43.513" lon="5.30606">
        <ele>97.5</ele>
        <time>2024-03-20T12:33:20.000Z</time>
      </trkpt>
      <trkpt lat="43.51298" lon="5.30606">
        <ele>97.7</ele>
        <time>2024-03-20T12:33:21.000Z</time>
      </trkpt>
      <trkpt lat="43.51295" lon="5.30605">
        <ele>97.9</ele>
        <time>2024-03-20T12:33:23.000Z</time>
      </trkpt>
      <trkpt lat="43.51293" lon="5.30604">
        <ele>98.1</ele>
        <time>2024-03-20T12:33:25.000Z</time>
      </trkpt>
      <trkpt lat="43.5129" lon="5.30602">
        <ele>98.3</ele>
        <time>2024-03-20T12:33:29.000Z</time>
      </trkpt>
      <trkpt lat="43.51288" lon="5.30602">
        <ele>98.6</ele>
        <time>2024-03-20T12:33:31.000Z</time>
      </trkpt>
      <trkpt lat="43.51286" lon="5.306">
        <ele>98.7</ele>
        <time>2024-03-20T12:33:33.000Z</time>
      </trkpt>
      <trkpt lat="43.51284" lon="5.30598">
        <ele>98.9</ele>
        <time>2024-03-20T12:33:35.000Z</time>
      </trkpt>
      <trkpt lat="43.51281" lon="5.30597">
        <ele>99.2</ele>
        <time>2024-03-20T12:33:37.000Z</time>
      </trkpt>
      <trkpt lat="43.51278" lon="5.30595">
        <ele>99.4</ele>
        <time>2024-03-20T12:33:41.000Z</time>
      </trkpt>
      <trkpt lat="43.51275" lon="5.30596">
        <ele>99.7</ele>
        <time>2024-03-20T12:33:44.000Z</time>
      </trkpt>
      <trkpt lat="43.51272" lon="5.30596">
        <ele>99.9</ele>
        <time>2024-03-20T12:33:47.000Z</time>
      </trkpt>
      <trkpt lat="43.5127" lon="5.30596">
        <ele>100.1</ele>
        <time>2024-03-20T12:33:50.000Z</time>
      </trkpt>
      <trkpt lat="43.51267" lon="5.30595">
        <ele>100.4</ele>
        <time>2024-03-20T12:33:52.000Z</time>
      </trkpt>
      <trkpt lat="43.51265" lon="5.30591">
        <ele>100.3</ele>
        <time>2024-03-20T12:33:54.000Z</time>
      </trkpt>
      <trkpt lat="43.51263" lon="5.30589">
        <ele>100.3</ele>
        <time>2024-03-20T12:33:56.000Z</time>
      </trkpt>
      <trkpt lat="43.51261" lon="5.30586">
        <ele>100.3</ele>
        <time>2024-03-20T12:33:59.000Z</time>
      </trkpt>
      <trkpt lat="43.51259" lon="5.30587">
        <ele>100.6</ele>
        <time>2024-03-20T12:34:00.000Z</time>
      </trkpt>
      <trkpt lat="43.51257" lon="5.30587">
        <ele>100.7</ele>
        <time>2024-03-20T12:34:02.000Z</time>
      </trkpt>
      <trkpt lat="43.51255" lon="5.30586">
        <ele>100.8</ele>
        <time>2024-03-20T12:34:04.000Z</time>
      </trkpt>
      <trkpt lat="43.51253" lon="5.30585">
        <ele>100.9</ele>
        <time>2024-03-20T12:34:08.000Z</time>
      </trkpt>
      <trkpt lat="43.5125" lon="5.30585">
        <ele>101.1</ele>
        <time>2024-03-20T12:34:10.000Z</time>
      </trkpt>
      <trkpt lat="43.51248" lon="5.30583">
        <ele>101.2</ele>
        <time>2024-03-20T12:34:13.000Z</time>
      </trkpt>
      <trkpt lat="43.51246" lon="5.30582">
        <ele>101.7</ele>
        <time>2024-03-20T12:34:15.000Z</time>
      </trkpt>
      <trkpt lat="43.51238" lon="5.30584">
        <ele>101.9</ele>
        <time>2024-03-20T12:34:17.000Z</time>
      </trkpt>
      <trkpt lat="43.51237" lon="5.30586">
        <ele>102.2</ele>
        <time>2024-03-20T12:34:18.000Z</time>
      </trkpt>
      <trkpt lat="43.51236" lon="5.30588">
        <ele>102.5</ele>
        <time>2024-03-20T12:34:20.000Z</time>
      </trkpt>
      <trkpt lat="43.51234" lon="5.30585">
        <ele>102.3</ele>
        <time>2024-03-20T12:34:22.000Z</time>
      </trkpt>
      <trkpt lat="43.51235" lon="5.3058">
        <ele>102.9</ele>
        <time>2024-03-20T12:34:23.000Z</time>
      </trkpt>
      <trkpt lat="43.51232" lon="5.30581">
        <ele>102.9</ele>
        <time>2024-03-20T12:34:25.000Z</time>
      </trkpt>
      <trkpt lat="43.5123" lon="5.30579">
        <ele>103.5</ele>
        <time>2024-03-20T12:34:29.000Z</time>
      </trkpt>
      <trkpt lat="43.51228" lon="5.30579">
        <ele>103.7</ele>
        <time>2024-03-20T12:34:31.000Z</time>
      </trkpt>
      <trkpt lat="43.51226" lon="5.30578">
        <ele>104.2</ele>
        <time>2024-03-20T12:34:34.000Z</time>
      </trkpt>
      <trkpt lat="43.51223" lon="5.30578">
        <ele>104.3</ele>
        <time>2024-03-20T12:34:36.000Z</time>
      </trkpt>
      <trkpt lat="43.5122" lon="5.3058">
        <ele>104</ele>
        <time>2024-03-20T12:34:38.000Z</time>
      </trkpt>
      <trkpt lat="43.51217" lon="5.30582">
        <ele>103.7</ele>
        <time>2024-03-20T12:34:41.000Z</time>
      </trkpt>
      <trkpt lat="43.51216" lon="5.30579">
        <ele>104.5</ele>
        <time>2024-03-20T12:34:45.000Z</time>
      </trkpt>
      <trkpt lat="43.51214" lon="5.30577">
        <ele>105.1</ele>
        <time>2024-03-20T12:34:48.000Z</time>
      </trkpt>
      <trkpt lat="43.51211" lon="5.30576">
        <ele>105.3</ele>
        <time>2024-03-20T12:34:50.000Z</time>
      </trkpt>
      <trkpt lat="43.5121" lon="5.30573">
        <ele>106.1</ele>
        <time>2024-03-20T12:34:52.000Z</time>
      </trkpt>
      <trkpt lat="43.51208" lon="5.30572">
        <ele>106.2</ele>
        <time>2024-03-20T12:34:53.000Z</time>
      </trkpt>
      <trkpt lat="43.51205" lon="5.30573">
        <ele>106.1</ele>
        <time>2024-03-20T12:34:55.000Z</time>
      </trkpt>
      <trkpt lat="43.51203" lon="5.30572">
        <ele>106.4</ele>
        <time>2024-03-20T12:34:57.000Z</time>
      </trkpt>
      <trkpt lat="43.51202" lon="5.30569">
        <ele>107</ele>
        <time>2024-03-20T12:34:59.000Z</time>
      </trkpt>
      <trkpt lat="43.512" lon="5.30567">
        <ele>107.3</ele>
        <time>2024-03-20T12:35:02.000Z</time>
      </trkpt>
      <trkpt lat="43.51197" lon="5.30567">
        <ele>107.4</ele>
        <time>2024-03-20T12:35:04.000Z</time>
      </trkpt>
      <trkpt lat="43.51194" lon="5.30567">
        <ele>107.4</ele>
        <time>2024-03-20T12:35:06.000Z</time>
      </trkpt>
      <trkpt lat="43.51192" lon="5.30565">
        <ele>107.8</ele>
        <time>2024-03-20T12:35:08.000Z</time>
      </trkpt>
      <trkpt lat="43.5119" lon="5.30562">
        <ele>108.3</ele>
        <time>2024-03-20T12:35:11.000Z</time>
      </trkpt>
      <trkpt lat="43.51189" lon="5.30564">
        <ele>108.2</ele>
        <time>2024-03-20T12:35:13.000Z</time>
      </trkpt>
      <trkpt lat="43.51185" lon="5.30564">
        <ele>108.4</ele>
        <time>2024-03-20T12:35:18.000Z</time>
      </trkpt>
      <trkpt lat="43.51182" lon="5.30566">
        <ele>108.4</ele>
        <time>2024-03-20T12:35:19.000Z</time>
      </trkpt>
      <trkpt lat="43.51183" lon="5.30563">
        <ele>108.7</ele>
        <time>2024-03-20T12:35:20.000Z</time>
      </trkpt>
      <trkpt lat="43.51185" lon="5.30558">
        <ele>109.1</ele>
        <time>2024-03-20T12:35:21.000Z</time>
      </trkpt>
      <trkpt lat="43.51181" lon="5.30558">
        <ele>109.2</ele>
        <time>2024-03-20T12:35:24.000Z</time>
      </trkpt>
      <trkpt lat="43.51179" lon="5.30558">
        <ele>109.3</ele>
        <time>2024-03-20T12:35:26.000Z</time>
      </trkpt>
      <trkpt lat="43.51177" lon="5.30557">
        <ele>109.6</ele>
        <time>2024-03-20T12:35:30.000Z</time>
      </trkpt>
      <trkpt lat="43.51175" lon="5.30556">
        <ele>109.7</ele>
        <time>2024-03-20T12:35:33.000Z</time>
      </trkpt>
      <trkpt lat="43.51172" lon="5.30555">
        <ele>109.8</ele>
        <time>2024-03-20T12:35:36.000Z</time>
      </trkpt>
      <trkpt lat="43.51171" lon="5.30554">
        <ele>110.2</ele>
        <time>2024-03-20T12:35:38.000Z</time>
      </trkpt>
      <trkpt lat="43.51169" lon="5.30553">
        <ele>110.5</ele>
        <time>2024-03-20T12:35:47.000Z</time>
      </trkpt>
      <trkpt lat="43.51167" lon="5.30551">
        <ele>110.9</ele>
        <time>2024-03-20T12:35:48.000Z</time>
      </trkpt>
      <trkpt lat="43.51165" lon="5.3055">
        <ele>111.3</ele>
        <time>2024-03-20T12:35:49.000Z</time>
      </trkpt>
      <trkpt lat="43.51162" lon="5.3055">
        <ele>111.5</ele>
        <time>2024-03-20T12:35:50.000Z</time>
      </trkpt>
      <trkpt lat="43.51159" lon="5.3055">
        <ele>111.8</ele>
        <time>2024-03-20T12:35:51.000Z</time>
      </trkpt>
      <trkpt lat="43.51158" lon="5.30547">
        <ele>112.5</ele>
        <time>2024-03-20T12:35:53.000Z</time>
      </trkpt>
      <trkpt lat="43.51154" lon="5.30549">
        <ele>112.4</ele>
        <time>2024-03-20T12:35:56.000Z</time>
      </trkpt>
      <trkpt lat="43.51152" lon="5.30551">
        <ele>112.1</ele>
        <time>2024-03-20T12:35:57.000Z</time>
      </trkpt>
      <trkpt lat="43.51151" lon="5.30547">
        <ele>112.9</ele>
        <time>2024-03-20T12:35:58.000Z</time>
      </trkpt>
      <trkpt lat="43.51149" lon="5.30549">
        <ele>112.7</ele>
        <time>2024-03-20T12:36:02.000Z</time>
      </trkpt>
      <trkpt lat="43.51147" lon="5.30549">
        <ele>112.9</ele>
        <time>2024-03-20T12:36:05.000Z</time>
      </trkpt>
      <trkpt lat="43.51144" lon="5.30547">
        <ele>113.4</ele>
        <time>2024-03-20T12:36:11.000Z</time>
      </trkpt>
      <trkpt lat="43.51142" lon="5.30547">
        <ele>113.6</ele>
        <time>2024-03-20T12:36:13.000Z</time>
      </trkpt>
      <trkpt lat="43.51137" lon="5.30548">
        <ele>113.7</ele>
        <time>2024-03-20T12:36:14.000Z</time>
      </trkpt>
      <trkpt lat="43.51135" lon="5.30547">
        <ele>114.2</ele>
        <time>2024-03-20T12:36:18.000Z</time>
      </trkpt>
      <trkpt lat="43.51134" lon="5.30547">
        <ele>114.1</ele>
        <time>2024-03-20T12:36:19.000Z</time>
      </trkpt>
      <trkpt lat="43.51131" lon="5.30548">
        <ele>114.2</ele>
        <time>2024-03-20T12:36:20.000Z</time>
      </trkpt>
      <trkpt lat="43.51129" lon="5.30547">
        <ele>114.5</ele>
        <time>2024-03-20T12:36:22.000Z</time>
      </trkpt>
      <trkpt lat="43.51127" lon="5.30547">
        <ele>114.8</ele>
        <time>2024-03-20T12:36:25.000Z</time>
      </trkpt>
      <trkpt lat="43.51124" lon="5.30546">
        <ele>115.1</ele>
        <time>2024-03-20T12:36:33.000Z</time>
      </trkpt>
      <trkpt lat="43.51121" lon="5.30547">
        <ele>115.2</ele>
        <time>2024-03-20T12:36:36.000Z</time>
      </trkpt>
      <trkpt lat="43.51119" lon="5.30545">
        <ele>115.8</ele>
        <time>2024-03-20T12:36:39.000Z</time>
      </trkpt>
      <trkpt lat="43.51116" lon="5.30543">
        <ele>116.3</ele>
        <time>2024-03-20T12:36:41.000Z</time>
      </trkpt>
      <trkpt lat="43.51114" lon="5.30544">
        <ele>116.4</ele>
        <time>2024-03-20T12:36:42.000Z</time>
      </trkpt>
      <trkpt lat="43.51112" lon="5.30544">
        <ele>116.6</ele>
        <time>2024-03-20T12:36:46.000Z</time>
      </trkpt>
      <trkpt lat="43.5111" lon="5.30543">
        <ele>116.9</ele>
        <time>2024-03-20T12:36:51.000Z</time>
      </trkpt>
      <trkpt lat="43.51108" lon="5.30542">
        <ele>117.4</ele>
        <time>2024-03-20T12:36:53.000Z</time>
      </trkpt>
      <trkpt lat="43.51106" lon="5.30543">
        <ele>117.3</ele>
        <time>2024-03-20T12:36:55.000Z</time>
      </trkpt>
      <trkpt lat="43.51105" lon="5.3054">
        <ele>117.9</ele>
        <time>2024-03-20T12:36:57.000Z</time>
      </trkpt>
      <trkpt lat="43.51103" lon="5.3054">
        <ele>118.3</ele>
        <time>2024-03-20T12:36:59.000Z</time>
      </trkpt>
      <trkpt lat="43.511" lon="5.30536">
        <ele>119.4</ele>
        <time>2024-03-20T12:37:00.000Z</time>
      </trkpt>
      <trkpt lat="43.51099" lon="5.30533">
        <ele>120</ele>
        <time>2024-03-20T12:37:01.000Z</time>
      </trkpt>
      <trkpt lat="43.51096" lon="5.30537">
        <ele>119.5</ele>
        <time>2024-03-20T12:37:04.000Z</time>
      </trkpt>
      <trkpt lat="43.51094" lon="5.30536">
        <ele>119.9</ele>
        <time>2024-03-20T12:37:10.000Z</time>
      </trkpt>
      <trkpt lat="43.51092" lon="5.30534">
        <ele>120.4</ele>
        <time>2024-03-20T12:37:17.000Z</time>
      </trkpt>
      <trkpt lat="43.51089" lon="5.30533">
        <ele>120.7</ele>
        <time>2024-03-20T12:37:18.000Z</time>
      </trkpt>
      <trkpt lat="43.51088" lon="5.30533">
        <ele>120.9</ele>
        <time>2024-03-20T12:37:19.000Z</time>
      </trkpt>
      <trkpt lat="43.51086" lon="5.30533">
        <ele>121</ele>
        <time>2024-03-20T12:37:20.000Z</time>
      </trkpt>
      <trkpt lat="43.51083" lon="5.30537">
        <ele>120.7</ele>
        <time>2024-03-20T12:37:25.000Z</time>
      </trkpt>
      <trkpt lat="43.51081" lon="5.30537">
        <ele>120.9</ele>
        <time>2024-03-20T12:37:27.000Z</time>
      </trkpt>
      <trkpt lat="43.51079" lon="5.30539">
        <ele>120.8</ele>
        <time>2024-03-20T12:37:29.000Z</time>
      </trkpt>
      <trkpt lat="43.51077" lon="5.3054">
        <ele>120.8</ele>
        <time>2024-03-20T12:37:30.000Z</time>
      </trkpt>
      <trkpt lat="43.51075" lon="5.30536">
        <ele>121.5</ele>
        <time>2024-03-20T12:37:32.000Z</time>
      </trkpt>
      <trkpt lat="43.51073" lon="5.30536">
        <ele>121.7</ele>
        <time>2024-03-20T12:37:36.000Z</time>
      </trkpt>
      <trkpt lat="43.51071" lon="5.30535">
        <ele>122</ele>
        <time>2024-03-20T12:37:40.000Z</time>
      </trkpt>
      <trkpt lat="43.51069" lon="5.30536">
        <ele>122</ele>
        <time>2024-03-20T12:37:42.000Z</time>
      </trkpt>
      <trkpt lat="43.51066" lon="5.30536">
        <ele>122.2</ele>
        <time>2024-03-20T12:37:49.000Z</time>
      </trkpt>
      <trkpt lat="43.51059" lon="5.30538">
        <ele>122.5</ele>
        <time>2024-03-20T12:37:51.000Z</time>
      </trkpt>
      <trkpt lat="43.5106" lon="5.30546">
        <ele>121.6</ele>
        <time>2024-03-20T12:37:52.000Z</time>
      </trkpt>
      <trkpt lat="43.51064" lon="5.30556">
        <ele>120.2</ele>
        <time>2024-03-20T12:37:53.000Z</time>
      </trkpt>
      <trkpt lat="43.51062" lon="5.30558">
        <ele>120.8</ele>
        <time>2024-03-20T12:37:54.000Z</time>
      </trkpt>
      <trkpt lat="43.51062" lon="5.30552">
        <ele>120.7</ele>
        <time>2024-03-20T12:37:55.000Z</time>
      </trkpt>
      <trkpt lat="43.51063" lon="5.30546">
        <ele>121.3</ele>
        <time>2024-03-20T12:37:56.000Z</time>
      </trkpt>
      <trkpt lat="43.51063" lon="5.30542">
        <ele>121.7</ele>
        <time>2024-03-20T12:37:58.000Z</time>
      </trkpt>
      <trkpt lat="43.51062" lon="5.30538">
        <ele>122.3</ele>
        <time>2024-03-20T12:37:59.000Z</time>
      </trkpt>
      <trkpt lat="43.51063" lon="5.30536">
        <ele>122.6</ele>
        <time>2024-03-20T12:38:00.000Z</time>
      </trkpt>
      <trkpt lat="43.5106" lon="5.30537">
        <ele>122.6</ele>
        <time>2024-03-20T12:38:02.000Z</time>
      </trkpt>
      <trkpt lat="43.51059" lon="5.30535">
        <ele>123</ele>
        <time>2024-03-20T12:38:05.000Z</time>
      </trkpt>
      <trkpt lat="43.51056" lon="5.30541">
        <ele>122.5</ele>
        <time>2024-03-20T12:38:27.000Z</time>
      </trkpt>
      <trkpt lat="43.51056" lon="5.30538">
        <ele>122.9</ele>
        <time>2024-03-20T12:38:29.000Z</time>
      </trkpt>
      <trkpt lat="43.51059" lon="5.30535">
        <ele>122.9</ele>
        <time>2024-03-20T12:38:42.000Z</time>
      </trkpt>
      <trkpt lat="43.51057" lon="5.30538">
        <ele>122.8</ele>
        <time>2024-03-20T12:39:01.000Z</time>
      </trkpt>
      <trkpt lat="43.51054" lon="5.30538">
        <ele>123.2</ele>
        <time>2024-03-20T12:39:02.000Z</time>
      </trkpt>
      <trkpt lat="43.51056" lon="5.30536">
        <ele>123</ele>
        <time>2024-03-20T12:39:05.000Z</time>
      </trkpt>
      <trkpt lat="43.51059" lon="5.30537">
        <ele>122.8</ele>
        <time>2024-03-20T12:39:10.000Z</time>
      </trkpt>
      <trkpt lat="43.51063" lon="5.30536">
        <ele>122.5</ele>
        <time>2024-03-20T12:39:14.000Z</time>
      </trkpt>
      <trkpt lat="43.51065" lon="5.30533">
        <ele>122.7</ele>
        <time>2024-03-20T12:39:16.000Z</time>
      </trkpt>
      <trkpt lat="43.51067" lon="5.3053">
        <ele>122.9</ele>
        <time>2024-03-20T12:39:18.000Z</time>
      </trkpt>
      <trkpt lat="43.51069" lon="5.30529">
        <ele>122.9</ele>
        <time>2024-03-20T12:39:20.000Z</time>
      </trkpt>
      <trkpt lat="43.51069" lon="5.30532">
        <ele>122.5</ele>
        <time>2024-03-20T12:39:27.000Z</time>
      </trkpt>
      <trkpt lat="43.51071" lon="5.30535">
        <ele>122</ele>
        <time>2024-03-20T12:39:29.000Z</time>
      </trkpt>
      <trkpt lat="43.51072" lon="5.30538">
        <ele>121.5</ele>
        <time>2024-03-20T12:39:32.000Z</time>
      </trkpt>
      <trkpt lat="43.51073" lon="5.30536">
        <ele>121.7</ele>
        <time>2024-03-20T12:39:33.000Z</time>
      </trkpt>
      <trkpt lat="43.51075" lon="5.30533">
        <ele>121.8</ele>
        <time>2024-03-20T12:39:52.000Z</time>
      </trkpt>
      <trkpt lat="43.51076" lon="5.30531">
        <ele>122</ele>
        <time>2024-03-20T12:39:55.000Z</time>
      </trkpt>
      <trkpt lat="43.51076" lon="5.30528">
        <ele>122.5</ele>
        <time>2024-03-20T12:40:01.000Z</time>
      </trkpt>
      <trkpt lat="43.51077" lon="5.3053">
        <ele>122.2</ele>
        <time>2024-03-20T12:40:09.000Z</time>
      </trkpt>
      <trkpt lat="43.51082" lon="5.30525">
        <ele>122.9</ele>
        <time>2024-03-20T12:40:11.000Z</time>
      </trkpt>
      <trkpt lat="43.51084" lon="5.30524">
        <ele>123.2</ele>
        <time>2024-03-20T12:40:13.000Z</time>
      </trkpt>
      <trkpt lat="43.51081" lon="5.30523">
        <ele>123.6</ele>
        <time>2024-03-20T12:40:20.000Z</time>
      </trkpt>
      <trkpt lat="43.51082" lon="5.30522">
        <ele>123.8</ele>
        <time>2024-03-20T12:40:30.000Z</time>
      </trkpt>
      <trkpt lat="43.51086" lon="5.30523">
        <ele>123.3</ele>
        <time>2024-03-20T12:40:35.000Z</time>
      </trkpt>
      <trkpt lat="43.51088" lon="5.30524">
        <ele>122.7</ele>
        <time>2024-03-20T12:40:38.000Z</time>
      </trkpt>
      <trkpt lat="43.5109" lon="5.30526">
        <ele>122</ele>
        <time>2024-03-20T12:40:43.000Z</time>
      </trkpt>
      <trkpt lat="43.51095" lon="5.30526">
        <ele>121.5</ele>
        <time>2024-03-20T12:40:47.000Z</time>
      </trkpt>
      <trkpt lat="43.51098" lon="5.30526">
        <ele>121.5</ele>
        <time>2024-03-20T12:40:50.000Z</time>
      </trkpt>
      <trkpt lat="43.511" lon="5.30526">
        <ele>121.3</ele>
        <time>2024-03-20T12:40:53.000Z</time>
      </trkpt>
      <trkpt lat="43.51102" lon="5.30527">
        <ele>121</ele>
        <time>2024-03-20T12:40:55.000Z</time>
      </trkpt>
      <trkpt lat="43.51105" lon="5.30527">
        <ele>120.6</ele>
        <time>2024-03-20T12:40:59.000Z</time>
      </trkpt>
      <trkpt lat="43.51107" lon="5.30528">
        <ele>120.3</ele>
        <time>2024-03-20T12:41:01.000Z</time>
      </trkpt>
      <trkpt lat="43.5111" lon="5.30529">
        <ele>119.9</ele>
        <time>2024-03-20T12:41:05.000Z</time>
      </trkpt>
      <trkpt lat="43.51112" lon="5.3053">
        <ele>119.4</ele>
        <time>2024-03-20T12:41:08.000Z</time>
      </trkpt>
      <trkpt lat="43.51114" lon="5.3053">
        <ele>119.2</ele>
        <time>2024-03-20T12:41:10.000Z</time>
      </trkpt>
      <trkpt lat="43.51117" lon="5.30531">
        <ele>119</ele>
        <time>2024-03-20T12:41:12.000Z</time>
      </trkpt>
      <trkpt lat="43.51118" lon="5.30531">
        <ele>118.7</ele>
        <time>2024-03-20T12:41:14.000Z</time>
      </trkpt>
      <trkpt lat="43.5112" lon="5.30531">
        <ele>118.7</ele>
        <time>2024-03-20T12:41:16.000Z</time>
      </trkpt>
      <trkpt lat="43.51124" lon="5.3053">
        <ele>118.5</ele>
        <time>2024-03-20T12:41:20.000Z</time>
      </trkpt>
      <trkpt lat="43.51126" lon="5.30532">
        <ele>118.1</ele>
        <time>2024-03-20T12:41:23.000Z</time>
      </trkpt>
      <trkpt lat="43.51128" lon="5.30533">
        <ele>117.8</ele>
        <time>2024-03-20T12:41:26.000Z</time>
      </trkpt>
      <trkpt lat="43.5113" lon="5.30533">
        <ele>117.5</ele>
        <time>2024-03-20T12:41:29.000Z</time>
      </trkpt>
      <trkpt lat="43.51133" lon="5.30532">
        <ele>117.4</ele>
        <time>2024-03-20T12:41:32.000Z</time>
      </trkpt>
      <trkpt lat="43.51135" lon="5.30534">
        <ele>117</ele>
        <time>2024-03-20T12:41:34.000Z</time>
      </trkpt>
      <trkpt lat="43.51139" lon="5.30534">
        <ele>116.6</ele>
        <time>2024-03-20T12:41:38.000Z</time>
      </trkpt>
      <trkpt lat="43.51141" lon="5.30535">
        <ele>116.4</ele>
        <time>2024-03-20T12:41:40.000Z</time>
      </trkpt>
      <trkpt lat="43.51143" lon="5.30533">
        <ele>116.5</ele>
        <time>2024-03-20T12:41:42.000Z</time>
      </trkpt>
      <trkpt lat="43.51146" lon="5.30531">
        <ele>116.9</ele>
        <time>2024-03-20T12:41:44.000Z</time>
      </trkpt>
      <trkpt lat="43.51148" lon="5.30529">
        <ele>117</ele>
        <time>2024-03-20T12:41:45.000Z</time>
      </trkpt>
      <trkpt lat="43.5115" lon="5.30528">
        <ele>117.1</ele>
        <time>2024-03-20T12:41:48.000Z</time>
      </trkpt>
      <trkpt lat="43.51155" lon="5.30528">
        <ele>116.8</ele>
        <time>2024-03-20T12:41:55.000Z</time>
      </trkpt>
      <trkpt lat="43.51158" lon="5.30528">
        <ele>116.7</ele>
        <time>2024-03-20T12:41:57.000Z</time>
      </trkpt>
      <trkpt lat="43.51162" lon="5.30526">
        <ele>116.7</ele>
        <time>2024-03-20T12:42:00.000Z</time>
      </trkpt>
      <trkpt lat="43.51164" lon="5.30525">
        <ele>116.8</ele>
        <time>2024-03-20T12:42:01.000Z</time>
      </trkpt>
      <trkpt lat="43.51166" lon="5.30523">
        <ele>117.1</ele>
        <time>2024-03-20T12:42:02.000Z</time>
      </trkpt>
      <trkpt lat="43.51168" lon="5.30523">
        <ele>117</ele>
        <time>2024-03-20T12:42:03.000Z</time>
      </trkpt>
      <trkpt lat="43.51171" lon="5.30522">
        <ele>117.3</ele>
        <time>2024-03-20T12:42:06.000Z</time>
      </trkpt>
      <trkpt lat="43.51173" lon="5.30523">
        <ele>117.1</ele>
        <time>2024-03-20T12:42:10.000Z</time>
      </trkpt>
      <trkpt lat="43.51175" lon="5.30522">
        <ele>117.2</ele>
        <time>2024-03-20T12:42:12.000Z</time>
      </trkpt>
      <trkpt lat="43.51177" lon="5.30521">
        <ele>117.3</ele>
        <time>2024-03-20T12:42:14.000Z</time>
      </trkpt>
      <trkpt lat="43.51179" lon="5.30522">
        <ele>117.2</ele>
        <time>2024-03-20T12:42:16.000Z</time>
      </trkpt>
      <trkpt lat="43.51182" lon="5.30522">
        <ele>117.2</ele>
        <time>2024-03-20T12:42:18.000Z</time>
      </trkpt>
      <trkpt lat="43.51184" lon="5.30522">
        <ele>117.2</ele>
        <time>2024-03-20T12:42:21.000Z</time>
      </trkpt>
      <trkpt lat="43.51187" lon="5.30522">
        <ele>117.1</ele>
        <time>2024-03-20T12:42:23.000Z</time>
      </trkpt>
      <trkpt lat="43.51189" lon="5.30521">
        <ele>117.2</ele>
        <time>2024-03-20T12:42:25.000Z</time>
      </trkpt>
      <trkpt lat="43.51192" lon="5.30521">
        <ele>117.3</ele>
        <time>2024-03-20T12:42:29.000Z</time>
      </trkpt>
      <trkpt lat="43.51194" lon="5.3052">
        <ele>117.4</ele>
        <time>2024-03-20T12:42:32.000Z</time>
      </trkpt>
      <trkpt lat="43.51197" lon="5.30521">
        <ele>117.3</ele>
        <time>2024-03-20T12:42:34.000Z</time>
      </trkpt>
      <trkpt lat="43.51199" lon="5.30519">
        <ele>117.5</ele>
        <time>2024-03-20T12:42:36.000Z</time>
      </trkpt>
      <trkpt lat="43.51202" lon="5.30519">
        <ele>117.6</ele>
        <time>2024-03-20T12:42:38.000Z</time>
      </trkpt>
      <trkpt lat="43.51205" lon="5.30518">
        <ele>117.8</ele>
        <time>2024-03-20T12:42:41.000Z</time>
      </trkpt>
      <trkpt lat="43.51207" lon="5.30517">
        <ele>117.9</ele>
        <time>2024-03-20T12:42:43.000Z</time>
      </trkpt>
      <trkpt lat="43.5121" lon="5.30518">
        <ele>117.8</ele>
        <time>2024-03-20T12:42:47.000Z</time>
      </trkpt>
      <trkpt lat="43.51212" lon="5.30518">
        <ele>117.8</ele>
        <time>2024-03-20T12:42:49.000Z</time>
      </trkpt>
      <trkpt lat="43.51216" lon="5.30518">
        <ele>117.7</ele>
        <time>2024-03-20T12:42:53.000Z</time>
      </trkpt>
      <trkpt lat="43.51218" lon="5.30517">
        <ele>117.9</ele>
        <time>2024-03-20T12:42:55.000Z</time>
      </trkpt>
      <trkpt lat="43.51221" lon="5.30517">
        <ele>118</ele>
        <time>2024-03-20T12:42:58.000Z</time>
      </trkpt>
      <trkpt lat="43.51225" lon="5.30515">
        <ele>118</ele>
        <time>2024-03-20T12:43:00.000Z</time>
      </trkpt>
      <trkpt lat="43.51227" lon="5.30514">
        <ele>118.2</ele>
        <time>2024-03-20T12:43:01.000Z</time>
      </trkpt>
      <trkpt lat="43.51229" lon="5.30513">
        <ele>118.3</ele>
        <time>2024-03-20T12:43:03.000Z</time>
      </trkpt>
      <trkpt lat="43.51232" lon="5.30513">
        <ele>118.1</ele>
        <time>2024-03-20T12:43:06.000Z</time>
      </trkpt>
      <trkpt lat="43.51234" lon="5.30512">
        <ele>118</ele>
        <time>2024-03-20T12:43:09.000Z</time>
      </trkpt>
      <trkpt lat="43.51236" lon="5.30511">
        <ele>118</ele>
        <time>2024-03-20T12:43:11.000Z</time>
      </trkpt>
      <trkpt lat="43.51237" lon="5.3051">
        <ele>118.1</ele>
        <time>2024-03-20T12:43:13.000Z</time>
      </trkpt>
      <trkpt lat="43.51239" lon="5.30509">
        <ele>118.2</ele>
        <time>2024-03-20T12:43:15.000Z</time>
      </trkpt>
      <trkpt lat="43.51241" lon="5.30509">
        <ele>118.1</ele>
        <time>2024-03-20T12:43:17.000Z</time>
      </trkpt>
      <trkpt lat="43.51244" lon="5.30507">
        <ele>118.2</ele>
        <time>2024-03-20T12:43:20.000Z</time>
      </trkpt>
      <trkpt lat="43.51247" lon="5.30506">
        <ele>118.3</ele>
        <time>2024-03-20T12:43:22.000Z</time>
      </trkpt>
      <trkpt lat="43.51249" lon="5.30505">
        <ele>118.2</ele>
        <time>2024-03-20T12:43:24.000Z</time>
      </trkpt>
      <trkpt lat="43.51251" lon="5.30504">
        <ele>118.3</ele>
        <time>2024-03-20T12:43:26.000Z</time>
      </trkpt>
      <trkpt lat="43.51253" lon="5.30503">
        <ele>118.5</ele>
        <time>2024-03-20T12:43:29.000Z</time>
      </trkpt>
      <trkpt lat="43.51254" lon="5.30502">
        <ele>118.5</ele>
        <time>2024-03-20T12:43:31.000Z</time>
      </trkpt>
      <trkpt lat="43.51256" lon="5.30501">
        <ele>118.6</ele>
        <time>2024-03-20T12:43:34.000Z</time>
      </trkpt>
      <trkpt lat="43.51259" lon="5.305">
        <ele>118.7</ele>
        <time>2024-03-20T12:43:37.000Z</time>
      </trkpt>
      <trkpt lat="43.51261" lon="5.305">
        <ele>118.5</ele>
        <time>2024-03-20T12:43:39.000Z</time>
      </trkpt>
      <trkpt lat="43.51263" lon="5.30501">
        <ele>118.4</ele>
        <time>2024-03-20T12:43:41.000Z</time>
      </trkpt>
      <trkpt lat="43.51266" lon="5.305">
        <ele>118.4</ele>
        <time>2024-03-20T12:43:43.000Z</time>
      </trkpt>
      <trkpt lat="43.51269" lon="5.30498">
        <ele>118.8</ele>
        <time>2024-03-20T12:43:46.000Z</time>
      </trkpt>
      <trkpt lat="43.51271" lon="5.30499">
        <ele>118.6</ele>
        <time>2024-03-20T12:43:49.000Z</time>
      </trkpt>
      <trkpt lat="43.51272" lon="5.30497">
        <ele>119.1</ele>
        <time>2024-03-20T12:43:52.000Z</time>
      </trkpt>
      <trkpt lat="43.51274" lon="5.30498">
        <ele>118.9</ele>
        <time>2024-03-20T12:43:54.000Z</time>
      </trkpt>
      <trkpt lat="43.51277" lon="5.30497">
        <ele>118.9</ele>
        <time>2024-03-20T12:43:57.000Z</time>
      </trkpt>
      <trkpt lat="43.5128" lon="5.30498">
        <ele>118.6</ele>
        <time>2024-03-20T12:44:00.000Z</time>
      </trkpt>
      <trkpt lat="43.51283" lon="5.30497">
        <ele>118.6</ele>
        <time>2024-03-20T12:44:02.000Z</time>
      </trkpt>
      <trkpt lat="43.51288" lon="5.30497">
        <ele>118.5</ele>
        <time>2024-03-20T12:44:06.000Z</time>
      </trkpt>
      <trkpt lat="43.5129" lon="5.30498">
        <ele>118.2</ele>
        <time>2024-03-20T12:44:09.000Z</time>
      </trkpt>
      <trkpt lat="43.51293" lon="5.30497">
        <ele>118.2</ele>
        <time>2024-03-20T12:44:12.000Z</time>
      </trkpt>
      <trkpt lat="43.51295" lon="5.30497">
        <ele>118.2</ele>
        <time>2024-03-20T12:44:14.000Z</time>
      </trkpt>
      <trkpt lat="43.51297" lon="5.30496">
        <ele>118.2</ele>
        <time>2024-03-20T12:44:16.000Z</time>
      </trkpt>
      <trkpt lat="43.513" lon="5.30497">
        <ele>118.1</ele>
        <time>2024-03-20T12:44:18.000Z</time>
      </trkpt>
      <trkpt lat="43.51303" lon="5.30496">
        <ele>118</ele>
        <time>2024-03-20T12:44:21.000Z</time>
      </trkpt>
      <trkpt lat="43.51305" lon="5.30495">
        <ele>118</ele>
        <time>2024-03-20T12:44:23.000Z</time>
      </trkpt>
      <trkpt lat="43.51308" lon="5.30494">
        <ele>118.1</ele>
        <time>2024-03-20T12:44:25.000Z</time>
      </trkpt>
      <trkpt lat="43.51311" lon="5.30493">
        <ele>118.1</ele>
        <time>2024-03-20T12:44:27.000Z</time>
      </trkpt>
      <trkpt lat="43.51314" lon="5.30493">
        <ele>117.9</ele>
        <time>2024-03-20T12:44:29.000Z</time>
      </trkpt>
      <trkpt lat="43.51315" lon="5.30491">
        <ele>118.1</ele>
        <time>2024-03-20T12:44:31.000Z</time>
      </trkpt>
      <trkpt lat="43.51318" lon="5.3049">
        <ele>118.1</ele>
        <time>2024-03-20T12:44:33.000Z</time>
      </trkpt>
      <trkpt lat="43.5132" lon="5.30489">
        <ele>118.2</ele>
        <time>2024-03-20T12:44:37.000Z</time>
      </trkpt>
      <trkpt lat="43.51323" lon="5.30487">
        <ele>118.3</ele>
        <time>2024-03-20T12:44:39.000Z</time>
      </trkpt>
      <trkpt lat="43.51325" lon="5.30484">
        <ele>118.6</ele>
        <time>2024-03-20T12:44:41.000Z</time>
      </trkpt>
      <trkpt lat="43.51328" lon="5.30481">
        <ele>119</ele>
        <time>2024-03-20T12:44:43.000Z</time>
      </trkpt>
      <trkpt lat="43.51329" lon="5.30478">
        <ele>119.5</ele>
        <time>2024-03-20T12:44:44.000Z</time>
      </trkpt>
      <trkpt lat="43.5133" lon="5.30476">
        <ele>119.8</ele>
        <time>2024-03-20T12:44:45.000Z</time>
      </trkpt>
      <trkpt lat="43.51331" lon="5.30471">
        <ele>120.5</ele>
        <time>2024-03-20T12:44:47.000Z</time>
      </trkpt>
      <trkpt lat="43.51332" lon="5.30469">
        <ele>120.9</ele>
        <time>2024-03-20T12:44:48.000Z</time>
      </trkpt>
      <trkpt lat="43.51334" lon="5.30466">
        <ele>121.2</ele>
        <time>2024-03-20T12:44:50.000Z</time>
      </trkpt>
      <trkpt lat="43.51336" lon="5.30463">
        <ele>121.5</ele>
        <time>2024-03-20T12:44:53.000Z</time>
      </trkpt>
      <trkpt lat="43.51337" lon="5.3046">
        <ele>121.8</ele>
        <time>2024-03-20T12:44:55.000Z</time>
      </trkpt>
      <trkpt lat="43.51338" lon="5.30457">
        <ele>122.4</ele>
        <time>2024-03-20T12:44:58.000Z</time>
      </trkpt>
      <trkpt lat="43.51339" lon="5.30455">
        <ele>122.6</ele>
        <time>2024-03-20T12:45:01.000Z</time>
      </trkpt>
      <trkpt lat="43.51341" lon="5.30452">
        <ele>122.7</ele>
        <time>2024-03-20T12:45:04.000Z</time>
      </trkpt>
      <trkpt lat="43.51343" lon="5.30451">
        <ele>122.5</ele>
        <time>2024-03-20T12:45:06.000Z</time>
      </trkpt>
      <trkpt lat="43.51345" lon="5.30449">
        <ele>122.5</ele>
        <time>2024-03-20T12:45:09.000Z</time>
      </trkpt>
      <trkpt lat="43.51347" lon="5.30446">
        <ele>122.5</ele>
        <time>2024-03-20T12:45:12.000Z</time>
      </trkpt>
      <trkpt lat="43.51349" lon="5.30443">
        <ele>123</ele>
        <time>2024-03-20T12:45:14.000Z</time>
      </trkpt>
      <trkpt lat="43.51351" lon="5.3044">
        <ele>123.3</ele>
        <time>2024-03-20T12:45:16.000Z</time>
      </trkpt>
      <trkpt lat="43.51352" lon="5.30438">
        <ele>123.4</ele>
        <time>2024-03-20T12:45:18.000Z</time>
      </trkpt>
      <trkpt lat="43.51354" lon="5.30436">
        <ele>123.4</ele>
        <time>2024-03-20T12:45:20.000Z</time>
      </trkpt>
      <trkpt lat="43.51355" lon="5.30432">
        <ele>123.6</ele>
        <time>2024-03-20T12:45:24.000Z</time>
      </trkpt>
      <trkpt lat="43.51357" lon="5.3043">
        <ele>123.6</ele>
        <time>2024-03-20T12:45:26.000Z</time>
      </trkpt>
      <trkpt lat="43.51359" lon="5.30428">
        <ele>123.1</ele>
        <time>2024-03-20T12:45:29.000Z</time>
      </trkpt>
      <trkpt lat="43.51361" lon="5.30428">
        <ele>122.3</ele>
        <time>2024-03-20T12:45:39.000Z</time>
      </trkpt>
      <trkpt lat="43.51362" lon="5.30424">
        <ele>122.6</ele>
        <time>2024-03-20T12:45:43.000Z</time>
      </trkpt>
      <trkpt lat="43.51361" lon="5.30421">
        <ele>123.3</ele>
        <time>2024-03-20T12:46:19.000Z</time>
      </trkpt>
      <trkpt lat="43.51363" lon="5.30419">
        <ele>123.2</ele>
        <time>2024-03-20T12:48:37.000Z</time>
      </trkpt>
      <trkpt lat="43.51364" lon="5.30417">
        <ele>123.2</ele>
        <time>2024-03-20T12:48:39.000Z</time>
      </trkpt>
      <trkpt lat="43.51365" lon="5.30415">
        <ele>123.3</ele>
        <time>2024-03-20T12:48:41.000Z</time>
      </trkpt>
      <trkpt lat="43.51366" lon="5.30412">
        <ele>123.6</ele>
        <time>2024-03-20T12:48:43.000Z</time>
      </trkpt>
      <trkpt lat="43.51367" lon="5.30408">
        <ele>124</ele>
        <time>2024-03-20T12:48:45.000Z</time>
      </trkpt>
      <trkpt lat="43.51369" lon="5.30407">
        <ele>123.7</ele>
        <time>2024-03-20T12:48:48.000Z</time>
      </trkpt>
      <trkpt lat="43.5137" lon="5.30404">
        <ele>123.9</ele>
        <time>2024-03-20T12:48:51.000Z</time>
      </trkpt>
      <trkpt lat="43.51371" lon="5.30402">
        <ele>123.9</ele>
        <time>2024-03-20T12:48:53.000Z</time>
      </trkpt>
      <trkpt lat="43.51373" lon="5.30399">
        <ele>124.1</ele>
        <time>2024-03-20T12:48:55.000Z</time>
      </trkpt>
      <trkpt lat="43.51375" lon="5.30397">
        <ele>124</ele>
        <time>2024-03-20T12:48:57.000Z</time>
      </trkpt>
      <trkpt lat="43.51376" lon="5.30394">
        <ele>124.1</ele>
        <time>2024-03-20T12:48:59.000Z</time>
      </trkpt>
      <trkpt lat="43.51377" lon="5.30392">
        <ele>124.3</ele>
        <time>2024-03-20T12:49:01.000Z</time>
      </trkpt>
      <trkpt lat="43.51378" lon="5.3039">
        <ele>124.3</ele>
        <time>2024-03-20T12:49:03.000Z</time>
      </trkpt>
      <trkpt lat="43.51379" lon="5.30387">
        <ele>124.4</ele>
        <time>2024-03-20T12:49:05.000Z</time>
      </trkpt>
      <trkpt lat="43.5138" lon="5.30384">
        <ele>124.5</ele>
        <time>2024-03-20T12:49:07.000Z</time>
      </trkpt>
      <trkpt lat="43.51382" lon="5.30381">
        <ele>124.4</ele>
        <time>2024-03-20T12:49:09.000Z</time>
      </trkpt>
      <trkpt lat="43.51384" lon="5.30378">
        <ele>124.3</ele>
        <time>2024-03-20T12:49:11.000Z</time>
      </trkpt>
      <trkpt lat="43.51386" lon="5.30374">
        <ele>124.1</ele>
        <time>2024-03-20T12:49:15.000Z</time>
      </trkpt>
      <trkpt lat="43.51387" lon="5.30371">
        <ele>124.3</ele>
        <time>2024-03-20T12:49:17.000Z</time>
      </trkpt>
      <trkpt lat="43.51388" lon="5.30368">
        <ele>124.3</ele>
        <time>2024-03-20T12:49:19.000Z</time>
      </trkpt>
      <trkpt lat="43.51389" lon="5.30365">
        <ele>124.2</ele>
        <time>2024-03-20T12:49:21.000Z</time>
      </trkpt>
      <trkpt lat="43.51391" lon="5.30362">
        <ele>124.3</ele>
        <time>2024-03-20T12:49:24.000Z</time>
      </trkpt>
      <trkpt lat="43.51391" lon="5.3036">
        <ele>124.5</ele>
        <time>2024-03-20T12:49:26.000Z</time>
      </trkpt>
      <trkpt lat="43.51391" lon="5.30357">
        <ele>124.8</ele>
        <time>2024-03-20T12:49:28.000Z</time>
      </trkpt>
      <trkpt lat="43.51392" lon="5.30353">
        <ele>124.7</ele>
        <time>2024-03-20T12:49:31.000Z</time>
      </trkpt>
      <trkpt lat="43.51393" lon="5.3035">
        <ele>124.6</ele>
        <time>2024-03-20T12:49:33.000Z</time>
      </trkpt>
      <trkpt lat="43.51393" lon="5.30348">
        <ele>124.7</ele>
        <time>2024-03-20T12:49:35.000Z</time>
      </trkpt>
      <trkpt lat="43.51394" lon="5.30346">
        <ele>124.6</ele>
        <time>2024-03-20T12:49:38.000Z</time>
      </trkpt>
      <trkpt lat="43.51395" lon="5.30344">
        <ele>124.5</ele>
        <time>2024-03-20T12:49:40.000Z</time>
      </trkpt>
      <trkpt lat="43.51398" lon="5.3034">
        <ele>124.2</ele>
        <time>2024-03-20T12:49:42.000Z</time>
      </trkpt>
      <trkpt lat="43.51399" lon="5.30337">
        <ele>124.1</ele>
        <time>2024-03-20T12:49:44.000Z</time>
      </trkpt>
      <trkpt lat="43.51401" lon="5.30334">
        <ele>124</ele>
        <time>2024-03-20T12:49:46.000Z</time>
      </trkpt>
      <trkpt lat="43.51401" lon="5.30331">
        <ele>124.2</ele>
        <time>2024-03-20T12:49:48.000Z</time>
      </trkpt>
      <trkpt lat="43.51402" lon="5.30329">
        <ele>124.4</ele>
        <time>2024-03-20T12:49:50.000Z</time>
      </trkpt>
      <trkpt lat="43.51404" lon="5.30326">
        <ele>124.6</ele>
        <time>2024-03-20T12:49:52.000Z</time>
      </trkpt>
      <trkpt lat="43.51405" lon="5.30324">
        <ele>124.6</ele>
        <time>2024-03-20T12:49:54.000Z</time>
      </trkpt>
      <trkpt lat="43.51407" lon="5.30322">
        <ele>124.3</ele>
        <time>2024-03-20T12:49:57.000Z</time>
      </trkpt>
      <trkpt lat="43.51408" lon="5.30319">
        <ele>124.4</ele>
        <time>2024-03-20T12:49:59.000Z</time>
      </trkpt>
      <trkpt lat="43.51409" lon="5.30316">
        <ele>124.7</ele>
        <time>2024-03-20T12:50:01.000Z</time>
      </trkpt>
      <trkpt lat="43.51411" lon="5.30312">
        <ele>124.4</ele>
        <time>2024-03-20T12:50:03.000Z</time>
      </trkpt>
      <trkpt lat="43.51412" lon="5.30311">
        <ele>124.1</ele>
        <time>2024-03-20T12:50:04.000Z</time>
      </trkpt>
      <trkpt lat="43.51414" lon="5.30308">
        <ele>123.8</ele>
        <time>2024-03-20T12:50:06.000Z</time>
      </trkpt>
      <trkpt lat="43.51415" lon="5.30305">
        <ele>123.6</ele>
        <time>2024-03-20T12:50:09.000Z</time>
      </trkpt>
      <trkpt lat="43.51417" lon="5.30301">
        <ele>124</ele>
        <time>2024-03-20T12:50:11.000Z</time>
      </trkpt>
      <trkpt lat="43.51419" lon="5.30298">
        <ele>124.5</ele>
        <time>2024-03-20T12:50:13.000Z</time>
      </trkpt>
      <trkpt lat="43.5142" lon="5.30295">
        <ele>124.8</ele>
        <time>2024-03-20T12:50:16.000Z</time>
      </trkpt>
      <trkpt lat="43.51422" lon="5.30293">
        <ele>125.2</ele>
        <time>2024-03-20T12:50:18.000Z</time>
      </trkpt>
      <trkpt lat="43.51423" lon="5.30291">
        <ele>125.3</ele>
        <time>2024-03-20T12:50:22.000Z</time>
      </trkpt>
      <trkpt lat="43.51426" lon="5.30289">
        <ele>125.3</ele>
        <time>2024-03-20T12:50:25.000Z</time>
      </trkpt>
      <trkpt lat="43.51428" lon="5.30287">
        <ele>125.3</ele>
        <time>2024-03-20T12:50:26.000Z</time>
      </trkpt>
      <trkpt lat="43.5143" lon="5.30286">
        <ele>125.3</ele>
        <time>2024-03-20T12:50:28.000Z</time>
      </trkpt>
      <trkpt lat="43.51432" lon="5.30284">
        <ele>125.2</ele>
        <time>2024-03-20T12:50:31.000Z</time>
      </trkpt>
      <trkpt lat="43.51435" lon="5.30282">
        <ele>125.1</ele>
        <time>2024-03-20T12:50:34.000Z</time>
      </trkpt>
      <trkpt lat="43.51437" lon="5.30279">
        <ele>125.2</ele>
        <time>2024-03-20T12:50:36.000Z</time>
      </trkpt>
      <trkpt lat="43.51438" lon="5.30277">
        <ele>125.4</ele>
        <time>2024-03-20T12:50:38.000Z</time>
      </trkpt>
      <trkpt lat="43.5144" lon="5.30275">
        <ele>125.3</ele>
        <time>2024-03-20T12:50:40.000Z</time>
      </trkpt>
      <trkpt lat="43.51442" lon="5.30272">
        <ele>125.3</ele>
        <time>2024-03-20T12:50:42.000Z</time>
      </trkpt>
      <trkpt lat="43.51445" lon="5.30269">
        <ele>125.2</ele>
        <time>2024-03-20T12:50:45.000Z</time>
      </trkpt>
      <trkpt lat="43.51446" lon="5.30267">
        <ele>125.3</ele>
        <time>2024-03-20T12:50:48.000Z</time>
      </trkpt>
      <trkpt lat="43.51448" lon="5.30265">
        <ele>125.3</ele>
        <time>2024-03-20T12:50:51.000Z</time>
      </trkpt>
      <trkpt lat="43.51451" lon="5.30262">
        <ele>125.3</ele>
        <time>2024-03-20T12:50:55.000Z</time>
      </trkpt>
      <trkpt lat="43.51453" lon="5.30261">
        <ele>125.2</ele>
        <time>2024-03-20T12:50:57.000Z</time>
      </trkpt>
      <trkpt lat="43.51456" lon="5.3026">
        <ele>124.9</ele>
        <time>2024-03-20T12:51:00.000Z</time>
      </trkpt>
      <trkpt lat="43.51458" lon="5.30258">
        <ele>125</ele>
        <time>2024-03-20T12:51:02.000Z</time>
      </trkpt>
      <trkpt lat="43.5146" lon="5.30257">
        <ele>124.8</ele>
        <time>2024-03-20T12:51:04.000Z</time>
      </trkpt>
      <trkpt lat="43.51463" lon="5.30257">
        <ele>124.5</ele>
        <time>2024-03-20T12:51:06.000Z</time>
      </trkpt>
      <trkpt lat="43.51465" lon="5.30257">
        <ele>124.2</ele>
        <time>2024-03-20T12:51:08.000Z</time>
      </trkpt>
      <trkpt lat="43.51467" lon="5.30256">
        <ele>124.1</ele>
        <time>2024-03-20T12:51:10.000Z</time>
      </trkpt>
      <trkpt lat="43.5147" lon="5.30255">
        <ele>124.1</ele>
        <time>2024-03-20T12:51:12.000Z</time>
      </trkpt>
      <trkpt lat="43.51472" lon="5.30254">
        <ele>124.1</ele>
        <time>2024-03-20T12:51:15.000Z</time>
      </trkpt>
      <trkpt lat="43.51474" lon="5.30253">
        <ele>124</ele>
        <time>2024-03-20T12:51:17.000Z</time>
      </trkpt>
      <trkpt lat="43.51476" lon="5.30251">
        <ele>124.2</ele>
        <time>2024-03-20T12:51:19.000Z</time>
      </trkpt>
      <trkpt lat="43.51478" lon="5.3025">
        <ele>124.3</ele>
        <time>2024-03-20T12:51:21.000Z</time>
      </trkpt>
      <trkpt lat="43.5148" lon="5.30249">
        <ele>124.2</ele>
        <time>2024-03-20T12:51:23.000Z</time>
      </trkpt>
      <trkpt lat="43.51483" lon="5.30248">
        <ele>124</ele>
        <time>2024-03-20T12:51:26.000Z</time>
      </trkpt>
      <trkpt lat="43.51485" lon="5.30247">
        <ele>123.9</ele>
        <time>2024-03-20T12:51:28.000Z</time>
      </trkpt>
      <trkpt lat="43.51488" lon="5.30246">
        <ele>123.9</ele>
        <time>2024-03-20T12:51:30.000Z</time>
      </trkpt>
      <trkpt lat="43.51491" lon="5.30243">
        <ele>124.1</ele>
        <time>2024-03-20T12:51:32.000Z</time>
      </trkpt>
      <trkpt lat="43.51493" lon="5.30242">
        <ele>124.2</ele>
        <time>2024-03-20T12:51:33.000Z</time>
      </trkpt>
      <trkpt lat="43.51495" lon="5.30238">
        <ele>124.6</ele>
        <time>2024-03-20T12:51:35.000Z</time>
      </trkpt>
      <trkpt lat="43.51497" lon="5.30237">
        <ele>124.8</ele>
        <time>2024-03-20T12:51:36.000Z</time>
      </trkpt>
      <trkpt lat="43.51499" lon="5.30235">
        <ele>125</ele>
        <time>2024-03-20T12:51:37.000Z</time>
      </trkpt>
      <trkpt lat="43.515" lon="5.30233">
        <ele>125.2</ele>
        <time>2024-03-20T12:51:39.000Z</time>
      </trkpt>
      <trkpt lat="43.51502" lon="5.3023">
        <ele>125.7</ele>
        <time>2024-03-20T12:51:42.000Z</time>
      </trkpt>
      <trkpt lat="43.51503" lon="5.30228">
        <ele>126.2</ele>
        <time>2024-03-20T12:51:44.000Z</time>
      </trkpt>
      <trkpt lat="43.51505" lon="5.30226">
        <ele>126.5</ele>
        <time>2024-03-20T12:51:46.000Z</time>
      </trkpt>
      <trkpt lat="43.51507" lon="5.30224">
        <ele>126.7</ele>
        <time>2024-03-20T12:51:48.000Z</time>
      </trkpt>
      <trkpt lat="43.51509" lon="5.30222">
        <ele>127.1</ele>
        <time>2024-03-20T12:51:50.000Z</time>
      </trkpt>
      <trkpt lat="43.51511" lon="5.30219">
        <ele>127.7</ele>
        <time>2024-03-20T12:51:52.000Z</time>
      </trkpt>
      <trkpt lat="43.51513" lon="5.30217">
        <ele>127.8</ele>
        <time>2024-03-20T12:51:54.000Z</time>
      </trkpt>
      <trkpt lat="43.51514" lon="5.30215">
        <ele>128.1</ele>
        <time>2024-03-20T12:51:57.000Z</time>
      </trkpt>
      <trkpt lat="43.51517" lon="5.30214">
        <ele>128</ele>
        <time>2024-03-20T12:51:59.000Z</time>
      </trkpt>
      <trkpt lat="43.51518" lon="5.30213">
        <ele>128.1</ele>
        <time>2024-03-20T12:52:01.000Z</time>
      </trkpt>
      <trkpt lat="43.5152" lon="5.30212">
        <ele>127.9</ele>
        <time>2024-03-20T12:52:03.000Z</time>
      </trkpt>
      <trkpt lat="43.51523" lon="5.3021">
        <ele>128</ele>
        <time>2024-03-20T12:52:05.000Z</time>
      </trkpt>
      <trkpt lat="43.51524" lon="5.30209">
        <ele>128</ele>
        <time>2024-03-20T12:52:07.000Z</time>
      </trkpt>
      <trkpt lat="43.51526" lon="5.30208">
        <ele>127.9</ele>
        <time>2024-03-20T12:52:09.000Z</time>
      </trkpt>
      <trkpt lat="43.5153" lon="5.30205">
        <ele>127.8</ele>
        <time>2024-03-20T12:52:12.000Z</time>
      </trkpt>
      <trkpt lat="43.51532" lon="5.30202">
        <ele>128</ele>
        <time>2024-03-20T12:52:14.000Z</time>
      </trkpt>
      <trkpt lat="43.51533" lon="5.302">
        <ele>128.2</ele>
        <time>2024-03-20T12:52:16.000Z</time>
      </trkpt>
      <trkpt lat="43.51535" lon="5.30199">
        <ele>128.3</ele>
        <time>2024-03-20T12:52:18.000Z</time>
      </trkpt>
      <trkpt lat="43.51537" lon="5.30197">
        <ele>128.4</ele>
        <time>2024-03-20T12:52:20.000Z</time>
      </trkpt>
      <trkpt lat="43.51539" lon="5.30195">
        <ele>128.7</ele>
        <time>2024-03-20T12:52:22.000Z</time>
      </trkpt>
      <trkpt lat="43.51542" lon="5.30193">
        <ele>128.8</ele>
        <time>2024-03-20T12:52:24.000Z</time>
      </trkpt>
      <trkpt lat="43.51544" lon="5.30192">
        <ele>128.8</ele>
        <time>2024-03-20T12:52:26.000Z</time>
      </trkpt>
      <trkpt lat="43.51546" lon="5.3019">
        <ele>129.1</ele>
        <time>2024-03-20T12:52:29.000Z</time>
      </trkpt>
      <trkpt lat="43.51549" lon="5.30188">
        <ele>129.1</ele>
        <time>2024-03-20T12:52:31.000Z</time>
      </trkpt>
      <trkpt lat="43.51551" lon="5.30187">
        <ele>129.3</ele>
        <time>2024-03-20T12:52:33.000Z</time>
      </trkpt>
      <trkpt lat="43.51554" lon="5.30185">
        <ele>129.3</ele>
        <time>2024-03-20T12:52:35.000Z</time>
      </trkpt>
      <trkpt lat="43.51557" lon="5.30184">
        <ele>129.1</ele>
        <time>2024-03-20T12:52:38.000Z</time>
      </trkpt>
      <trkpt lat="43.5156" lon="5.30182">
        <ele>129.3</ele>
        <time>2024-03-20T12:52:40.000Z</time>
      </trkpt>
      <trkpt lat="43.51561" lon="5.3018">
        <ele>129.4</ele>
        <time>2024-03-20T12:52:42.000Z</time>
      </trkpt>
      <trkpt lat="43.51564" lon="5.30178">
        <ele>129.7</ele>
        <time>2024-03-20T12:52:45.000Z</time>
      </trkpt>
      <trkpt lat="43.51566" lon="5.30176">
        <ele>129.9</ele>
        <time>2024-03-20T12:52:47.000Z</time>
      </trkpt>
      <trkpt lat="43.51568" lon="5.30175">
        <ele>130.1</ele>
        <time>2024-03-20T12:52:49.000Z</time>
      </trkpt>
      <trkpt lat="43.51571" lon="5.30173">
        <ele>130.4</ele>
        <time>2024-03-20T12:52:52.000Z</time>
      </trkpt>
      <trkpt lat="43.51574" lon="5.30171">
        <ele>130.7</ele>
        <time>2024-03-20T12:52:54.000Z</time>
      </trkpt>
      <trkpt lat="43.51577" lon="5.30169">
        <ele>130.9</ele>
        <time>2024-03-20T12:52:56.000Z</time>
      </trkpt>
      <trkpt lat="43.51579" lon="5.30168">
        <ele>131</ele>
        <time>2024-03-20T12:52:59.000Z</time>
      </trkpt>
      <trkpt lat="43.5158" lon="5.30166">
        <ele>131.3</ele>
        <time>2024-03-20T12:53:01.000Z</time>
      </trkpt>
      <trkpt lat="43.51582" lon="5.30165">
        <ele>131.5</ele>
        <time>2024-03-20T12:53:03.000Z</time>
      </trkpt>
      <trkpt lat="43.51584" lon="5.30163">
        <ele>131.5</ele>
        <time>2024-03-20T12:53:05.000Z</time>
      </trkpt>
      <trkpt lat="43.51586" lon="5.30162">
        <ele>131.3</ele>
        <time>2024-03-20T12:53:07.000Z</time>
      </trkpt>
      <trkpt lat="43.51588" lon="5.3016">
        <ele>131.1</ele>
        <time>2024-03-20T12:53:09.000Z</time>
      </trkpt>
      <trkpt lat="43.51591" lon="5.30159">
        <ele>130.9</ele>
        <time>2024-03-20T12:53:12.000Z</time>
      </trkpt>
      <trkpt lat="43.51593" lon="5.30156">
        <ele>131</ele>
        <time>2024-03-20T12:53:14.000Z</time>
      </trkpt>
      <trkpt lat="43.51594" lon="5.30154">
        <ele>131</ele>
        <time>2024-03-20T12:53:15.000Z</time>
      </trkpt>
      <trkpt lat="43.51597" lon="5.30152">
        <ele>130.8</ele>
        <time>2024-03-20T12:53:17.000Z</time>
      </trkpt>
      <trkpt lat="43.51598" lon="5.3015">
        <ele>130.8</ele>
        <time>2024-03-20T12:53:19.000Z</time>
      </trkpt>
      <trkpt lat="43.516" lon="5.30148">
        <ele>130.7</ele>
        <time>2024-03-20T12:53:21.000Z</time>
      </trkpt>
      <trkpt lat="43.51602" lon="5.30147">
        <ele>130.5</ele>
        <time>2024-03-20T12:53:22.000Z</time>
      </trkpt>
      <trkpt lat="43.51604" lon="5.30146">
        <ele>130.3</ele>
        <time>2024-03-20T12:53:24.000Z</time>
      </trkpt>
      <trkpt lat="43.51606" lon="5.30144">
        <ele>130.3</ele>
        <time>2024-03-20T12:53:26.000Z</time>
      </trkpt>
      <trkpt lat="43.51606" lon="5.30137">
        <ele>131.3</ele>
        <time>2024-03-20T12:53:28.000Z</time>
      </trkpt>
      <trkpt lat="43.51608" lon="5.30126">
        <ele>131.8</ele>
        <time>2024-03-20T12:53:30.000Z</time>
      </trkpt>
      <trkpt lat="43.5161" lon="5.30126">
        <ele>131.2</ele>
        <time>2024-03-20T12:53:33.000Z</time>
      </trkpt>
      <trkpt lat="43.51611" lon="5.30123">
        <ele>131.2</ele>
        <time>2024-03-20T12:53:37.000Z</time>
      </trkpt>
      <trkpt lat="43.5161" lon="5.30121">
        <ele>131.6</ele>
        <time>2024-03-20T12:53:40.000Z</time>
      </trkpt>
      <trkpt lat="43.51612" lon="5.3012">
        <ele>131.1</ele>
        <time>2024-03-20T12:53:42.000Z</time>
      </trkpt>
      <trkpt lat="43.51613" lon="5.30117">
        <ele>131</ele>
        <time>2024-03-20T12:53:44.000Z</time>
      </trkpt>
      <trkpt lat="43.51612" lon="5.30115">
        <ele>131.3</ele>
        <time>2024-03-20T12:53:46.000Z</time>
      </trkpt>
      <trkpt lat="43.51614" lon="5.30111">
        <ele>130.8</ele>
        <time>2024-03-20T12:53:48.000Z</time>
      </trkpt>
      <trkpt lat="43.51614" lon="5.30108">
        <ele>131.2</ele>
        <time>2024-03-20T12:53:51.000Z</time>
      </trkpt>
      <trkpt lat="43.51616" lon="5.30106">
        <ele>130.9</ele>
        <time>2024-03-20T12:53:53.000Z</time>
      </trkpt>
      <trkpt lat="43.51617" lon="5.30102">
        <ele>130.7</ele>
        <time>2024-03-20T12:53:55.000Z</time>
      </trkpt>
      <trkpt lat="43.51617" lon="5.30098">
        <ele>131.3</ele>
        <time>2024-03-20T12:54:03.000Z</time>
      </trkpt>
      <trkpt lat="43.51617" lon="5.30094">
        <ele>131.6</ele>
        <time>2024-03-20T12:54:05.000Z</time>
      </trkpt>
      <trkpt lat="43.51618" lon="5.30089">
        <ele>131.9</ele>
        <time>2024-03-20T12:54:16.000Z</time>
      </trkpt>
      <trkpt lat="43.51618" lon="5.30086">
        <ele>132.2</ele>
        <time>2024-03-20T12:54:17.000Z</time>
      </trkpt>
      <trkpt lat="43.51618" lon="5.30083">
        <ele>132.4</ele>
        <time>2024-03-20T12:54:18.000Z</time>
      </trkpt>
      <trkpt lat="43.51618" lon="5.3008">
        <ele>132.8</ele>
        <time>2024-03-20T12:54:19.000Z</time>
      </trkpt>
      <trkpt lat="43.51619" lon="5.30077">
        <ele>133</ele>
        <time>2024-03-20T12:54:20.000Z</time>
      </trkpt>
      <trkpt lat="43.51619" lon="5.30075">
        <ele>132.9</ele>
        <time>2024-03-20T12:54:21.000Z</time>
      </trkpt>
      <trkpt lat="43.5162" lon="5.30071">
        <ele>133</ele>
        <time>2024-03-20T12:54:22.000Z</time>
      </trkpt>
      <trkpt lat="43.5162" lon="5.30068">
        <ele>133.2</ele>
        <time>2024-03-20T12:54:23.000Z</time>
      </trkpt>
      <trkpt lat="43.51621" lon="5.30066">
        <ele>133.1</ele>
        <time>2024-03-20T12:54:24.000Z</time>
      </trkpt>
      <trkpt lat="43.51621" lon="5.30061">
        <ele>133.7</ele>
        <time>2024-03-20T12:54:26.000Z</time>
      </trkpt>
      <trkpt lat="43.5162" lon="5.30059">
        <ele>134.1</ele>
        <time>2024-03-20T12:54:28.000Z</time>
      </trkpt>
      <trkpt lat="43.51621" lon="5.30055">
        <ele>134.2</ele>
        <time>2024-03-20T12:54:32.000Z</time>
      </trkpt>
      <trkpt lat="43.51621" lon="5.30051">
        <ele>134.4</ele>
        <time>2024-03-20T12:54:34.000Z</time>
      </trkpt>
      <trkpt lat="43.51621" lon="5.30049">
        <ele>134.5</ele>
        <time>2024-03-20T12:54:37.000Z</time>
      </trkpt>
      <trkpt lat="43.51622" lon="5.30046">
        <ele>134.6</ele>
        <time>2024-03-20T12:54:38.000Z</time>
      </trkpt>
      <trkpt lat="43.51622" lon="5.30044">
        <ele>134.4</ele>
        <time>2024-03-20T12:54:39.000Z</time>
      </trkpt>
      <trkpt lat="43.51623" lon="5.3004">
        <ele>134.5</ele>
        <time>2024-03-20T12:54:41.000Z</time>
      </trkpt>
      <trkpt lat="43.51623" lon="5.30037">
        <ele>134.8</ele>
        <time>2024-03-20T12:54:43.000Z</time>
      </trkpt>
      <trkpt lat="43.51623" lon="5.30034">
        <ele>135</ele>
        <time>2024-03-20T12:54:49.000Z</time>
      </trkpt>
      <trkpt lat="43.51623" lon="5.30029">
        <ele>135.3</ele>
        <time>2024-03-20T12:54:51.000Z</time>
      </trkpt>
      <trkpt lat="43.51623" lon="5.30022">
        <ele>135.6</ele>
        <time>2024-03-20T12:54:55.000Z</time>
      </trkpt>
      <trkpt lat="43.51622" lon="5.3002">
        <ele>135.6</ele>
        <time>2024-03-20T12:54:56.000Z</time>
      </trkpt>
      <trkpt lat="43.51624" lon="5.30015">
        <ele>135.3</ele>
        <time>2024-03-20T12:54:58.000Z</time>
      </trkpt>
      <trkpt lat="43.51621" lon="5.3001">
        <ele>136.3</ele>
        <time>2024-03-20T12:55:00.000Z</time>
      </trkpt>
      <trkpt lat="43.5162" lon="5.30008">
        <ele>136.6</ele>
        <time>2024-03-20T12:55:01.000Z</time>
      </trkpt>
      <trkpt lat="43.5162" lon="5.30005">
        <ele>136.7</ele>
        <time>2024-03-20T12:55:03.000Z</time>
      </trkpt>
      <trkpt lat="43.5162" lon="5.30002">
        <ele>136.7</ele>
        <time>2024-03-20T12:55:05.000Z</time>
      </trkpt>
      <trkpt lat="43.51619" lon="5.29996">
        <ele>137.2</ele>
        <time>2024-03-20T12:55:28.000Z</time>
      </trkpt>
      <trkpt lat="43.51619" lon="5.29993">
        <ele>137.5</ele>
        <time>2024-03-20T12:55:29.000Z</time>
      </trkpt>
      <trkpt lat="43.51618" lon="5.2999">
        <ele>137.8</ele>
        <time>2024-03-20T12:55:30.000Z</time>
      </trkpt>
      <trkpt lat="43.51617" lon="5.29986">
        <ele>138.1</ele>
        <time>2024-03-20T12:55:38.000Z</time>
      </trkpt>
      <trkpt lat="43.51617" lon="5.29982">
        <ele>138.2</ele>
        <time>2024-03-20T12:55:39.000Z</time>
      </trkpt>
      <trkpt lat="43.51616" lon="5.29979">
        <ele>138.6</ele>
        <time>2024-03-20T12:55:40.000Z</time>
      </trkpt>
      <trkpt lat="43.51617" lon="5.29975">
        <ele>138.6</ele>
        <time>2024-03-20T12:55:41.000Z</time>
      </trkpt>
      <trkpt lat="43.51616" lon="5.29968">
        <ele>138.6</ele>
        <time>2024-03-20T12:55:58.000Z</time>
      </trkpt>
      <trkpt lat="43.51617" lon="5.29963">
        <ele>138.1</ele>
        <time>2024-03-20T12:55:59.000Z</time>
      </trkpt>
      <trkpt lat="43.51617" lon="5.29955">
        <ele>137.8</ele>
        <time>2024-03-20T12:56:01.000Z</time>
      </trkpt>
      <trkpt lat="43.51616" lon="5.29951">
        <ele>138.1</ele>
        <time>2024-03-20T12:56:02.000Z</time>
      </trkpt>
      <trkpt lat="43.51614" lon="5.29945">
        <ele>138.6</ele>
        <time>2024-03-20T12:56:10.000Z</time>
      </trkpt>
      <trkpt lat="43.51614" lon="5.2994">
        <ele>139</ele>
        <time>2024-03-20T12:56:11.000Z</time>
      </trkpt>
      <trkpt lat="43.51613" lon="5.29936">
        <ele>139.3</ele>
        <time>2024-03-20T12:56:12.000Z</time>
      </trkpt>
      <trkpt lat="43.51612" lon="5.29932">
        <ele>140</ele>
        <time>2024-03-20T12:56:13.000Z</time>
      </trkpt>
      <trkpt lat="43.51611" lon="5.29929">
        <ele>140.6</ele>
        <time>2024-03-20T12:56:14.000Z</time>
      </trkpt>
      <trkpt lat="43.51609" lon="5.29926">
        <ele>141.7</ele>
        <time>2024-03-20T12:56:15.000Z</time>
      </trkpt>
      <trkpt lat="43.51609" lon="5.29924">
        <ele>142.1</ele>
        <time>2024-03-20T12:56:17.000Z</time>
      </trkpt>
      <trkpt lat="43.51608" lon="5.29919">
        <ele>142.9</ele>
        <time>2024-03-20T12:56:18.000Z</time>
      </trkpt>
      <trkpt lat="43.51607" lon="5.29914">
        <ele>143.1</ele>
        <time>2024-03-20T12:56:20.000Z</time>
      </trkpt>
      <trkpt lat="43.51607" lon="5.29912">
        <ele>143.2</ele>
        <time>2024-03-20T12:56:21.000Z</time>
      </trkpt>
      <trkpt lat="43.51607" lon="5.29907">
        <ele>143</ele>
        <time>2024-03-20T12:56:23.000Z</time>
      </trkpt>
      <trkpt lat="43.51606" lon="5.29902">
        <ele>143.1</ele>
        <time>2024-03-20T12:56:25.000Z</time>
      </trkpt>
      <trkpt lat="43.51604" lon="5.29898">
        <ele>144</ele>
        <time>2024-03-20T12:56:27.000Z</time>
      </trkpt>
      <trkpt lat="43.51604" lon="5.29895">
        <ele>144.2</ele>
        <time>2024-03-20T12:56:29.000Z</time>
      </trkpt>
      <trkpt lat="43.51601" lon="5.29891">
        <ele>145.3</ele>
        <time>2024-03-20T12:56:31.000Z</time>
      </trkpt>
      <trkpt lat="43.516" lon="5.29889">
        <ele>146</ele>
        <time>2024-03-20T12:56:33.000Z</time>
      </trkpt>
      <trkpt lat="43.516" lon="5.29885">
        <ele>145.6</ele>
        <time>2024-03-20T12:56:35.000Z</time>
      </trkpt>
      <trkpt lat="43.516" lon="5.29881">
        <ele>145.6</ele>
        <time>2024-03-20T12:56:37.000Z</time>
      </trkpt>
      <trkpt lat="43.51599" lon="5.29879">
        <ele>145.8</ele>
        <time>2024-03-20T12:56:40.000Z</time>
      </trkpt>
      <trkpt lat="43.51599" lon="5.29875">
        <ele>145.6</ele>
        <time>2024-03-20T12:56:43.000Z</time>
      </trkpt>
      <trkpt lat="43.51599" lon="5.29872">
        <ele>145.6</ele>
        <time>2024-03-20T12:56:45.000Z</time>
      </trkpt>
      <trkpt lat="43.51599" lon="5.29869">
        <ele>145.2</ele>
        <time>2024-03-20T12:56:47.000Z</time>
      </trkpt>
      <trkpt lat="43.51599" lon="5.29866">
        <ele>145.1</ele>
        <time>2024-03-20T12:56:49.000Z</time>
      </trkpt>
      <trkpt lat="43.516" lon="5.29864">
        <ele>144.5</ele>
        <time>2024-03-20T12:56:51.000Z</time>
      </trkpt>
      <trkpt lat="43.516" lon="5.2986">
        <ele>144.2</ele>
        <time>2024-03-20T12:56:54.000Z</time>
      </trkpt>
      <trkpt lat="43.51599" lon="5.29856">
        <ele>144.7</ele>
        <time>2024-03-20T12:56:56.000Z</time>
      </trkpt>
      <trkpt lat="43.51598" lon="5.29853">
        <ele>144.9</ele>
        <time>2024-03-20T12:56:58.000Z</time>
      </trkpt>
      <trkpt lat="43.51598" lon="5.2985">
        <ele>144.7</ele>
        <time>2024-03-20T12:57:00.000Z</time>
      </trkpt>
      <trkpt lat="43.51598" lon="5.29847">
        <ele>144.8</ele>
        <time>2024-03-20T12:57:03.000Z</time>
      </trkpt>
      <trkpt lat="43.51597" lon="5.29844">
        <ele>145</ele>
        <time>2024-03-20T12:57:05.000Z</time>
      </trkpt>
      <trkpt lat="43.51597" lon="5.2984">
        <ele>144.9</ele>
        <time>2024-03-20T12:57:07.000Z</time>
      </trkpt>
      <trkpt lat="43.51596" lon="5.29837">
        <ele>145</ele>
        <time>2024-03-20T12:57:09.000Z</time>
      </trkpt>
      <trkpt lat="43.51595" lon="5.29833">
        <ele>145.2</ele>
        <time>2024-03-20T12:57:12.000Z</time>
      </trkpt>
      <trkpt lat="43.51596" lon="5.2983">
        <ele>144.9</ele>
        <time>2024-03-20T12:57:14.000Z</time>
      </trkpt>
      <trkpt lat="43.51596" lon="5.29827">
        <ele>144.7</ele>
        <time>2024-03-20T12:57:16.000Z</time>
      </trkpt>
      <trkpt lat="43.51595" lon="5.29821">
        <ele>144.8</ele>
        <time>2024-03-20T12:57:20.000Z</time>
      </trkpt>
      <trkpt lat="43.51594" lon="5.29818">
        <ele>144.8</ele>
        <time>2024-03-20T12:57:22.000Z</time>
      </trkpt>
      <trkpt lat="43.51593" lon="5.29815">
        <ele>144.9</ele>
        <time>2024-03-20T12:57:24.000Z</time>
      </trkpt>
      <trkpt lat="43.51593" lon="5.29811">
        <ele>144.8</ele>
        <time>2024-03-20T12:57:26.000Z</time>
      </trkpt>
      <trkpt lat="43.51592" lon="5.29808">
        <ele>145.2</ele>
        <time>2024-03-20T12:57:28.000Z</time>
      </trkpt>
      <trkpt lat="43.51591" lon="5.29803">
        <ele>145.1</ele>
        <time>2024-03-20T12:57:31.000Z</time>
      </trkpt>
      <trkpt lat="43.5159" lon="5.29798">
        <ele>145.1</ele>
        <time>2024-03-20T12:57:35.000Z</time>
      </trkpt>
      <trkpt lat="43.5159" lon="5.29795">
        <ele>144.8</ele>
        <time>2024-03-20T12:57:37.000Z</time>
      </trkpt>
      <trkpt lat="43.5159" lon="5.29791">
        <ele>144.5</ele>
        <time>2024-03-20T12:57:40.000Z</time>
      </trkpt>
      <trkpt lat="43.51589" lon="5.29787">
        <ele>144.5</ele>
        <time>2024-03-20T12:57:42.000Z</time>
      </trkpt>
      <trkpt lat="43.51588" lon="5.29783">
        <ele>144.7</ele>
        <time>2024-03-20T12:57:45.000Z</time>
      </trkpt>
      <trkpt lat="43.51586" lon="5.2978">
        <ele>145.1</ele>
        <time>2024-03-20T12:57:47.000Z</time>
      </trkpt>
      <trkpt lat="43.51584" lon="5.29776">
        <ele>145.2</ele>
        <time>2024-03-20T12:57:50.000Z</time>
      </trkpt>
      <trkpt lat="43.51584" lon="5.29773">
        <ele>144.8</ele>
        <time>2024-03-20T12:57:52.000Z</time>
      </trkpt>
      <trkpt lat="43.51582" lon="5.29768">
        <ele>145.1</ele>
        <time>2024-03-20T12:57:56.000Z</time>
      </trkpt>
      <trkpt lat="43.51581" lon="5.29765">
        <ele>144.8</ele>
        <time>2024-03-20T12:57:58.000Z</time>
      </trkpt>
      <trkpt lat="43.51579" lon="5.29759">
        <ele>144.8</ele>
        <time>2024-03-20T12:58:02.000Z</time>
      </trkpt>
      <trkpt lat="43.51578" lon="5.29756">
        <ele>144.4</ele>
        <time>2024-03-20T12:58:04.000Z</time>
      </trkpt>
      <trkpt lat="43.51577" lon="5.2975">
        <ele>143.9</ele>
        <time>2024-03-20T12:58:08.000Z</time>
      </trkpt>
      <trkpt lat="43.51575" lon="5.29746">
        <ele>143.3</ele>
        <time>2024-03-20T12:58:11.000Z</time>
      </trkpt>
      <trkpt lat="43.51574" lon="5.29742">
        <ele>142.9</ele>
        <time>2024-03-20T12:58:14.000Z</time>
      </trkpt>
      <trkpt lat="43.51573" lon="5.2974">
        <ele>142.9</ele>
        <time>2024-03-20T12:58:16.000Z</time>
      </trkpt>
      <trkpt lat="43.51571" lon="5.29737">
        <ele>142.8</ele>
        <time>2024-03-20T12:58:18.000Z</time>
      </trkpt>
      <trkpt lat="43.51569" lon="5.29735">
        <ele>143</ele>
        <time>2024-03-20T12:58:20.000Z</time>
      </trkpt>
      <trkpt lat="43.51567" lon="5.29731">
        <ele>142.9</ele>
        <time>2024-03-20T12:58:24.000Z</time>
      </trkpt>
      <trkpt lat="43.51565" lon="5.29728">
        <ele>142.5</ele>
        <time>2024-03-20T12:58:26.000Z</time>
      </trkpt>
      <trkpt lat="43.51564" lon="5.29726">
        <ele>142.2</ele>
        <time>2024-03-20T12:58:28.000Z</time>
      </trkpt>
      <trkpt lat="43.51562" lon="5.29724">
        <ele>142.5</ele>
        <time>2024-03-20T12:58:31.000Z</time>
      </trkpt>
      <trkpt lat="43.51559" lon="5.29721">
        <ele>142.6</ele>
        <time>2024-03-20T12:58:34.000Z</time>
      </trkpt>
      <trkpt lat="43.51558" lon="5.29719">
        <ele>142.4</ele>
        <time>2024-03-20T12:58:36.000Z</time>
      </trkpt>
      <trkpt lat="43.51554" lon="5.29715">
        <ele>142.3</ele>
        <time>2024-03-20T12:58:40.000Z</time>
      </trkpt>
      <trkpt lat="43.51552" lon="5.29714">
        <ele>142.4</ele>
        <time>2024-03-20T12:58:42.000Z</time>
      </trkpt>
      <trkpt lat="43.51548" lon="5.2971">
        <ele>142</ele>
        <time>2024-03-20T12:58:46.000Z</time>
      </trkpt>
      <trkpt lat="43.51546" lon="5.29708">
        <ele>141.9</ele>
        <time>2024-03-20T12:58:48.000Z</time>
      </trkpt>
      <trkpt lat="43.51545" lon="5.29706">
        <ele>141.6</ele>
        <time>2024-03-20T12:58:50.000Z</time>
      </trkpt>
      <trkpt lat="43.51543" lon="5.29705">
        <ele>141.4</ele>
        <time>2024-03-20T12:58:53.000Z</time>
      </trkpt>
      <trkpt lat="43.51541" lon="5.29704">
        <ele>141.5</ele>
        <time>2024-03-20T12:58:55.000Z</time>
      </trkpt>
      <trkpt lat="43.51537" lon="5.29702">
        <ele>141.5</ele>
        <time>2024-03-20T12:58:59.000Z</time>
      </trkpt>
      <trkpt lat="43.51534" lon="5.29699">
        <ele>141.1</ele>
        <time>2024-03-20T12:59:02.000Z</time>
      </trkpt>
      <trkpt lat="43.5153" lon="5.29699">
        <ele>141.8</ele>
        <time>2024-03-20T12:59:05.000Z</time>
      </trkpt>
      <trkpt lat="43.51529" lon="5.29698">
        <ele>141.2</ele>
        <time>2024-03-20T12:59:06.000Z</time>
      </trkpt>
      <trkpt lat="43.51526" lon="5.29696">
        <ele>140.7</ele>
        <time>2024-03-20T12:59:08.000Z</time>
      </trkpt>
      <trkpt lat="43.51525" lon="5.29695">
        <ele>140</ele>
        <time>2024-03-20T12:59:10.000Z</time>
      </trkpt>
      <trkpt lat="43.51522" lon="5.29696">
        <ele>140.4</ele>
        <time>2024-03-20T12:59:12.000Z</time>
      </trkpt>
      <trkpt lat="43.5152" lon="5.29694">
        <ele>139.8</ele>
        <time>2024-03-20T12:59:14.000Z</time>
      </trkpt>
      <trkpt lat="43.51518" lon="5.29694">
        <ele>139.8</ele>
        <time>2024-03-20T12:59:15.000Z</time>
      </trkpt>
      <trkpt lat="43.51515" lon="5.29694">
        <ele>139.7</ele>
        <time>2024-03-20T12:59:17.000Z</time>
      </trkpt>
      <trkpt lat="43.51513" lon="5.29694">
        <ele>139.9</ele>
        <time>2024-03-20T12:59:19.000Z</time>
      </trkpt>
      <trkpt lat="43.5151" lon="5.29693">
        <ele>139.6</ele>
        <time>2024-03-20T12:59:22.000Z</time>
      </trkpt>
      <trkpt lat="43.51508" lon="5.29694">
        <ele>139.7</ele>
        <time>2024-03-20T12:59:24.000Z</time>
      </trkpt>
      <trkpt lat="43.51505" lon="5.29694">
        <ele>139.9</ele>
        <time>2024-03-20T12:59:26.000Z</time>
      </trkpt>
      <trkpt lat="43.51502" lon="5.29695">
        <ele>140.3</ele>
        <time>2024-03-20T12:59:28.000Z</time>
      </trkpt>
      <trkpt lat="43.515" lon="5.29695">
        <ele>140.3</ele>
        <time>2024-03-20T12:59:31.000Z</time>
      </trkpt>
      <trkpt lat="43.51498" lon="5.29695">
        <ele>140</ele>
        <time>2024-03-20T12:59:33.000Z</time>
      </trkpt>
      <trkpt lat="43.51495" lon="5.29696">
        <ele>139.9</ele>
        <time>2024-03-20T12:59:35.000Z</time>
      </trkpt>
      <trkpt lat="43.51493" lon="5.29697">
        <ele>139.6</ele>
        <time>2024-03-20T12:59:37.000Z</time>
      </trkpt>
      <trkpt lat="43.51491" lon="5.29697">
        <ele>139.3</ele>
        <time>2024-03-20T12:59:39.000Z</time>
      </trkpt>
      <trkpt lat="43.51488" lon="5.29698">
        <ele>139.2</ele>
        <time>2024-03-20T12:59:41.000Z</time>
      </trkpt>
      <trkpt lat="43.51486" lon="5.29698">
        <ele>138.9</ele>
        <time>2024-03-20T12:59:43.000Z</time>
      </trkpt>
      <trkpt lat="43.51483" lon="5.29699">
        <ele>138.6</ele>
        <time>2024-03-20T12:59:45.000Z</time>
      </trkpt>
      <trkpt lat="43.51483" lon="5.29701">
        <ele>139.7</ele>
        <time>2024-03-20T12:59:47.000Z</time>
      </trkpt>
      <trkpt lat="43.5148" lon="5.297">
        <ele>138.8</ele>
        <time>2024-03-20T12:59:49.000Z</time>
      </trkpt>
      <trkpt lat="43.51478" lon="5.29703">
        <ele>139.2</ele>
        <time>2024-03-20T12:59:50.000Z</time>
      </trkpt>
      <trkpt lat="43.51474" lon="5.29705">
        <ele>139.4</ele>
        <time>2024-03-20T12:59:52.000Z</time>
      </trkpt>
      <trkpt lat="43.51473" lon="5.29706">
        <ele>139.4</ele>
        <time>2024-03-20T12:59:54.000Z</time>
      </trkpt>
      <trkpt lat="43.5147" lon="5.29707">
        <ele>139.6</ele>
        <time>2024-03-20T12:59:58.000Z</time>
      </trkpt>
      <trkpt lat="43.51468" lon="5.29707">
        <ele>139.5</ele>
        <time>2024-03-20T13:00:00.000Z</time>
      </trkpt>
      <trkpt lat="43.51466" lon="5.29709">
        <ele>139.9</ele>
        <time>2024-03-20T13:00:04.000Z</time>
      </trkpt>
      <trkpt lat="43.51464" lon="5.29709">
        <ele>139.7</ele>
        <time>2024-03-20T13:00:06.000Z</time>
      </trkpt>
      <trkpt lat="43.5146" lon="5.29708">
        <ele>139</ele>
        <time>2024-03-20T13:00:08.000Z</time>
      </trkpt>
      <trkpt lat="43.51456" lon="5.29711">
        <ele>139.8</ele>
        <time>2024-03-20T13:00:10.000Z</time>
      </trkpt>
      <trkpt lat="43.51455" lon="5.29714">
        <ele>140.5</ele>
        <time>2024-03-20T13:00:11.000Z</time>
      </trkpt>
      <trkpt lat="43.51453" lon="5.29716">
        <ele>140.9</ele>
        <time>2024-03-20T13:00:12.000Z</time>
      </trkpt>
      <trkpt lat="43.51451" lon="5.29717">
        <ele>141.2</ele>
        <time>2024-03-20T13:00:14.000Z</time>
      </trkpt>
      <trkpt lat="43.5145" lon="5.29719">
        <ele>141.6</ele>
        <time>2024-03-20T13:00:16.000Z</time>
      </trkpt>
      <trkpt lat="43.51446" lon="5.2972">
        <ele>141.4</ele>
        <time>2024-03-20T13:00:27.000Z</time>
      </trkpt>
      <trkpt lat="43.51444" lon="5.29723">
        <ele>142.1</ele>
        <time>2024-03-20T13:00:28.000Z</time>
      </trkpt>
      <trkpt lat="43.51442" lon="5.29722">
        <ele>141.5</ele>
        <time>2024-03-20T13:00:29.000Z</time>
      </trkpt>
      <trkpt lat="43.51439" lon="5.29722">
        <ele>140.9</ele>
        <time>2024-03-20T13:00:30.000Z</time>
      </trkpt>
      <trkpt lat="43.51436" lon="5.29723">
        <ele>140.4</ele>
        <time>2024-03-20T13:00:32.000Z</time>
      </trkpt>
      <trkpt lat="43.51434" lon="5.29724">
        <ele>140.5</ele>
        <time>2024-03-20T13:00:33.000Z</time>
      </trkpt>
      <trkpt lat="43.51432" lon="5.29726">
        <ele>140.7</ele>
        <time>2024-03-20T13:00:35.000Z</time>
      </trkpt>
      <trkpt lat="43.5143" lon="5.29727">
        <ele>140.8</ele>
        <time>2024-03-20T13:00:37.000Z</time>
      </trkpt>
      <trkpt lat="43.51428" lon="5.29727">
        <ele>140.3</ele>
        <time>2024-03-20T13:00:38.000Z</time>
      </trkpt>
      <trkpt lat="43.51425" lon="5.2973">
        <ele>140.6</ele>
        <time>2024-03-20T13:00:40.000Z</time>
      </trkpt>
      <trkpt lat="43.51423" lon="5.29732">
        <ele>140.7</ele>
        <time>2024-03-20T13:00:42.000Z</time>
      </trkpt>
      <trkpt lat="43.5142" lon="5.29735">
        <ele>140.7</ele>
        <time>2024-03-20T13:00:45.000Z</time>
      </trkpt>
      <trkpt lat="43.51418" lon="5.29737">
        <ele>140.8</ele>
        <time>2024-03-20T13:00:47.000Z</time>
      </trkpt>
      <trkpt lat="43.51415" lon="5.29738">
        <ele>141.2</ele>
        <time>2024-03-20T13:00:53.000Z</time>
      </trkpt>
      <trkpt lat="43.51413" lon="5.2974">
        <ele>141.5</ele>
        <time>2024-03-20T13:00:55.000Z</time>
      </trkpt>
      <trkpt lat="43.51411" lon="5.29742">
        <ele>141.8</ele>
        <time>2024-03-20T13:00:59.000Z</time>
      </trkpt>
      <trkpt lat="43.5141" lon="5.29743">
        <ele>142.2</ele>
        <time>2024-03-20T13:01:01.000Z</time>
      </trkpt>
      <trkpt lat="43.51407" lon="5.29746">
        <ele>142.5</ele>
        <time>2024-03-20T13:01:03.000Z</time>
      </trkpt>
      <trkpt lat="43.51405" lon="5.29748">
        <ele>142.7</ele>
        <time>2024-03-20T13:01:05.000Z</time>
      </trkpt>
      <trkpt lat="43.514" lon="5.29749">
        <ele>142.2</ele>
        <time>2024-03-20T13:01:08.000Z</time>
      </trkpt>
      <trkpt lat="43.51396" lon="5.2975">
        <ele>142.1</ele>
        <time>2024-03-20T13:01:10.000Z</time>
      </trkpt>
      <trkpt lat="43.51394" lon="5.29752">
        <ele>142.3</ele>
        <time>2024-03-20T13:01:12.000Z</time>
      </trkpt>
      <trkpt lat="43.51392" lon="5.29754">
        <ele>142.9</ele>
        <time>2024-03-20T13:01:15.000Z</time>
      </trkpt>
      <trkpt lat="43.5139" lon="5.29754">
        <ele>142.7</ele>
        <time>2024-03-20T13:01:17.000Z</time>
      </trkpt>
      <trkpt lat="43.51387" lon="5.29755">
        <ele>142.7</ele>
        <time>2024-03-20T13:01:19.000Z</time>
      </trkpt>
      <trkpt lat="43.51385" lon="5.29756">
        <ele>143.1</ele>
        <time>2024-03-20T13:01:21.000Z</time>
      </trkpt>
      <trkpt lat="43.51384" lon="5.29758">
        <ele>143.6</ele>
        <time>2024-03-20T13:01:24.000Z</time>
      </trkpt>
      <trkpt lat="43.51382" lon="5.29759">
        <ele>143.7</ele>
        <time>2024-03-20T13:01:26.000Z</time>
      </trkpt>
      <trkpt lat="43.51379" lon="5.2976">
        <ele>143.8</ele>
        <time>2024-03-20T13:01:30.000Z</time>
      </trkpt>
      <trkpt lat="43.51376" lon="5.29761">
        <ele>144.1</ele>
        <time>2024-03-20T13:01:32.000Z</time>
      </trkpt>
      <trkpt lat="43.51374" lon="5.29764">
        <ele>144.7</ele>
        <time>2024-03-20T13:01:36.000Z</time>
      </trkpt>
      <trkpt lat="43.51372" lon="5.29765">
        <ele>144.6</ele>
        <time>2024-03-20T13:01:38.000Z</time>
      </trkpt>
      <trkpt lat="43.51368" lon="5.29767">
        <ele>144.9</ele>
        <time>2024-03-20T13:01:42.000Z</time>
      </trkpt>
      <trkpt lat="43.51366" lon="5.2977">
        <ele>145.2</ele>
        <time>2024-03-20T13:01:45.000Z</time>
      </trkpt>
      <trkpt lat="43.51364" lon="5.29771">
        <ele>145.2</ele>
        <time>2024-03-20T13:01:48.000Z</time>
      </trkpt>
      <trkpt lat="43.51361" lon="5.29772">
        <ele>145</ele>
        <time>2024-03-20T13:01:50.000Z</time>
      </trkpt>
      <trkpt lat="43.51358" lon="5.29772">
        <ele>145</ele>
        <time>2024-03-20T13:01:51.000Z</time>
      </trkpt>
      <trkpt lat="43.51356" lon="5.29775">
        <ele>145.4</ele>
        <time>2024-03-20T13:01:54.000Z</time>
      </trkpt>
      <trkpt lat="43.51355" lon="5.29777">
        <ele>145.6</ele>
        <time>2024-03-20T13:01:55.000Z</time>
      </trkpt>
      <trkpt lat="43.51353" lon="5.29779">
        <ele>146.1</ele>
        <time>2024-03-20T13:01:58.000Z</time>
      </trkpt>
      <trkpt lat="43.51351" lon="5.29783">
        <ele>147.3</ele>
        <time>2024-03-20T13:02:01.000Z</time>
      </trkpt>
      <trkpt lat="43.51349" lon="5.29784">
        <ele>147.4</ele>
        <time>2024-03-20T13:02:03.000Z</time>
      </trkpt>
      <trkpt lat="43.51344" lon="5.29787">
        <ele>148</ele>
        <time>2024-03-20T13:02:07.000Z</time>
      </trkpt>
      <trkpt lat="43.5134" lon="5.29781">
        <ele>146.1</ele>
        <time>2024-03-20T13:02:09.000Z</time>
      </trkpt>
      <trkpt lat="43.51339" lon="5.29783">
        <ele>146.5</ele>
        <time>2024-03-20T13:02:11.000Z</time>
      </trkpt>
      <trkpt lat="43.51337" lon="5.29786">
        <ele>147.1</ele>
        <time>2024-03-20T13:02:13.000Z</time>
      </trkpt>
      <trkpt lat="43.51334" lon="5.29787">
        <ele>147.1</ele>
        <time>2024-03-20T13:02:16.000Z</time>
      </trkpt>
      <trkpt lat="43.51332" lon="5.2979">
        <ele>147.7</ele>
        <time>2024-03-20T13:02:17.000Z</time>
      </trkpt>
      <trkpt lat="43.5133" lon="5.29792">
        <ele>148.2</ele>
        <time>2024-03-20T13:02:19.000Z</time>
      </trkpt>
      <trkpt lat="43.51328" lon="5.29794">
        <ele>148.5</ele>
        <time>2024-03-20T13:02:28.000Z</time>
      </trkpt>
      <trkpt lat="43.51325" lon="5.29795">
        <ele>148.7</ele>
        <time>2024-03-20T13:02:30.000Z</time>
      </trkpt>
      <trkpt lat="43.5132" lon="5.29797">
        <ele>148.9</ele>
        <time>2024-03-20T13:02:40.000Z</time>
      </trkpt>
      <trkpt lat="43.51317" lon="5.29797">
        <ele>148.9</ele>
        <time>2024-03-20T13:02:42.000Z</time>
      </trkpt>
      <trkpt lat="43.51314" lon="5.29796">
        <ele>148.7</ele>
        <time>2024-03-20T13:02:58.000Z</time>
      </trkpt>
      <trkpt lat="43.51312" lon="5.29796">
        <ele>148.7</ele>
        <time>2024-03-20T13:02:59.000Z</time>
      </trkpt>
      <trkpt lat="43.5131" lon="5.29795">
        <ele>148.6</ele>
        <time>2024-03-20T13:03:00.000Z</time>
      </trkpt>
      <trkpt lat="43.51308" lon="5.29795">
        <ele>148.6</ele>
        <time>2024-03-20T13:03:01.000Z</time>
      </trkpt>
      <trkpt lat="43.51306" lon="5.29793">
        <ele>148.6</ele>
        <time>2024-03-20T13:03:02.000Z</time>
      </trkpt>
      <trkpt lat="43.51303" lon="5.29792">
        <ele>148.7</ele>
        <time>2024-03-20T13:03:04.000Z</time>
      </trkpt>
      <trkpt lat="43.51301" lon="5.2979">
        <ele>148.8</ele>
        <time>2024-03-20T13:03:06.000Z</time>
      </trkpt>
      <trkpt lat="43.51298" lon="5.29788">
        <ele>148.9</ele>
        <time>2024-03-20T13:03:10.000Z</time>
      </trkpt>
      <trkpt lat="43.51296" lon="5.29786">
        <ele>149</ele>
        <time>2024-03-20T13:03:12.000Z</time>
      </trkpt>
      <trkpt lat="43.51291" lon="5.2978">
        <ele>149.2</ele>
        <time>2024-03-20T13:03:29.000Z</time>
      </trkpt>
      <trkpt lat="43.51286" lon="5.29777">
        <ele>149.5</ele>
        <time>2024-03-20T13:03:31.000Z</time>
      </trkpt>
      <trkpt lat="43.51285" lon="5.29775">
        <ele>149.8</ele>
        <time>2024-03-20T13:03:32.000Z</time>
      </trkpt>
      <trkpt lat="43.5128" lon="5.2977">
        <ele>150.7</ele>
        <time>2024-03-20T13:03:35.000Z</time>
      </trkpt>
      <trkpt lat="43.51276" lon="5.29767">
        <ele>151.3</ele>
        <time>2024-03-20T13:03:37.000Z</time>
      </trkpt>
      <trkpt lat="43.51275" lon="5.29766">
        <ele>151.7</ele>
        <time>2024-03-20T13:03:38.000Z</time>
      </trkpt>
      <trkpt lat="43.51271" lon="5.29764">
        <ele>152.4</ele>
        <time>2024-03-20T13:03:41.000Z</time>
      </trkpt>
      <trkpt lat="43.51268" lon="5.29763">
        <ele>152.8</ele>
        <time>2024-03-20T13:03:43.000Z</time>
      </trkpt>
      <trkpt lat="43.51263" lon="5.29764">
        <ele>153.3</ele>
        <time>2024-03-20T13:03:47.000Z</time>
      </trkpt>
      <trkpt lat="43.51261" lon="5.29765">
        <ele>153.5</ele>
        <time>2024-03-20T13:03:49.000Z</time>
      </trkpt>
      <trkpt lat="43.51258" lon="5.29767">
        <ele>153.8</ele>
        <time>2024-03-20T13:03:53.000Z</time>
      </trkpt>
      <trkpt lat="43.51257" lon="5.29768">
        <ele>153.8</ele>
        <time>2024-03-20T13:03:55.000Z</time>
      </trkpt>
      <trkpt lat="43.51254" lon="5.29771">
        <ele>154</ele>
        <time>2024-03-20T13:03:59.000Z</time>
      </trkpt>
      <trkpt lat="43.51252" lon="5.29772">
        <ele>154.2</ele>
        <time>2024-03-20T13:04:02.000Z</time>
      </trkpt>
      <trkpt lat="43.51249" lon="5.29773">
        <ele>154.5</ele>
        <time>2024-03-20T13:04:06.000Z</time>
      </trkpt>
      <trkpt lat="43.51247" lon="5.29772">
        <ele>154.9</ele>
        <time>2024-03-20T13:04:08.000Z</time>
      </trkpt>
      <trkpt lat="43.51245" lon="5.29769">
        <ele>155.4</ele>
        <time>2024-03-20T13:04:13.000Z</time>
      </trkpt>
      <trkpt lat="43.51242" lon="5.29769">
        <ele>156</ele>
        <time>2024-03-20T13:04:18.000Z</time>
      </trkpt>
      <trkpt lat="43.5124" lon="5.29767">
        <ele>156.4</ele>
        <time>2024-03-20T13:04:25.000Z</time>
      </trkpt>
      <trkpt lat="43.51238" lon="5.29765">
        <ele>156.9</ele>
        <time>2024-03-20T13:04:29.000Z</time>
      </trkpt>
      <trkpt lat="43.51236" lon="5.29763">
        <ele>157.4</ele>
        <time>2024-03-20T13:04:33.000Z</time>
      </trkpt>
      <trkpt lat="43.51234" lon="5.29761">
        <ele>157.8</ele>
        <time>2024-03-20T13:04:47.000Z</time>
      </trkpt>
      <trkpt lat="43.51234" lon="5.29758">
        <ele>158</ele>
        <time>2024-03-20T13:04:52.000Z</time>
      </trkpt>
      <trkpt lat="43.51234" lon="5.29755">
        <ele>158.1</ele>
        <time>2024-03-20T13:04:56.000Z</time>
      </trkpt>
      <trkpt lat="43.51233" lon="5.29753">
        <ele>158.3</ele>
        <time>2024-03-20T13:05:00.000Z</time>
      </trkpt>
      <trkpt lat="43.51233" lon="5.2975">
        <ele>158.5</ele>
        <time>2024-03-20T13:05:05.000Z</time>
      </trkpt>
      <trkpt lat="43.51234" lon="5.29746">
        <ele>158.6</ele>
        <time>2024-03-20T13:05:48.000Z</time>
      </trkpt>
      <trkpt lat="43.51232" lon="5.29747">
        <ele>158.8</ele>
        <time>2024-03-20T13:06:40.000Z</time>
      </trkpt>
      <trkpt lat="43.51233" lon="5.29744">
        <ele>158.8</ele>
        <time>2024-03-20T13:07:00.000Z</time>
      </trkpt>
      <trkpt lat="43.51234" lon="5.29742">
        <ele>158.7</ele>
        <time>2024-03-20T13:07:06.000Z</time>
      </trkpt>
      <trkpt lat="43.51235" lon="5.29739">
        <ele>158.7</ele>
        <time>2024-03-20T13:10:45.000Z</time>
      </trkpt>
      <trkpt lat="43.51237" lon="5.29738">
        <ele>158.5</ele>
        <time>2024-03-20T13:10:47.000Z</time>
      </trkpt>
      <trkpt lat="43.51239" lon="5.29737">
        <ele>158.4</ele>
        <time>2024-03-20T13:10:49.000Z</time>
      </trkpt>
      <trkpt lat="43.51241" lon="5.29735">
        <ele>158.3</ele>
        <time>2024-03-20T13:10:51.000Z</time>
      </trkpt>
      <trkpt lat="43.51244" lon="5.29733">
        <ele>158</ele>
        <time>2024-03-20T13:10:53.000Z</time>
      </trkpt>
      <trkpt lat="43.51246" lon="5.29732">
        <ele>157.8</ele>
        <time>2024-03-20T13:10:55.000Z</time>
      </trkpt>
      <trkpt lat="43.51249" lon="5.29729">
        <ele>157.7</ele>
        <time>2024-03-20T13:10:58.000Z</time>
      </trkpt>
      <trkpt lat="43.51251" lon="5.29728">
        <ele>157.5</ele>
        <time>2024-03-20T13:11:00.000Z</time>
      </trkpt>
      <trkpt lat="43.51253" lon="5.29728">
        <ele>157.5</ele>
        <time>2024-03-20T13:11:02.000Z</time>
      </trkpt>
      <trkpt lat="43.51256" lon="5.29727">
        <ele>157.3</ele>
        <time>2024-03-20T13:11:04.000Z</time>
      </trkpt>
      <trkpt lat="43.51259" lon="5.29726">
        <ele>157.3</ele>
        <time>2024-03-20T13:11:06.000Z</time>
      </trkpt>
      <trkpt lat="43.5126" lon="5.29726">
        <ele>157.3</ele>
        <time>2024-03-20T13:11:08.000Z</time>
      </trkpt>
      <trkpt lat="43.51263" lon="5.29724">
        <ele>157.3</ele>
        <time>2024-03-20T13:11:10.000Z</time>
      </trkpt>
      <trkpt lat="43.51264" lon="5.29723">
        <ele>157.4</ele>
        <time>2024-03-20T13:11:12.000Z</time>
      </trkpt>
      <trkpt lat="43.51267" lon="5.29721">
        <ele>157.7</ele>
        <time>2024-03-20T13:11:14.000Z</time>
      </trkpt>
      <trkpt lat="43.51269" lon="5.2972">
        <ele>157.9</ele>
        <time>2024-03-20T13:11:16.000Z</time>
      </trkpt>
      <trkpt lat="43.51272" lon="5.2972">
        <ele>158</ele>
        <time>2024-03-20T13:11:18.000Z</time>
      </trkpt>
      <trkpt lat="43.51274" lon="5.29719">
        <ele>158.2</ele>
        <time>2024-03-20T13:11:20.000Z</time>
      </trkpt>
      <trkpt lat="43.51276" lon="5.29718">
        <ele>158.3</ele>
        <time>2024-03-20T13:11:22.000Z</time>
      </trkpt>
      <trkpt lat="43.51279" lon="5.29718">
        <ele>158.1</ele>
        <time>2024-03-20T13:11:24.000Z</time>
      </trkpt>
      <trkpt lat="43.51279" lon="5.29715">
        <ele>158.8</ele>
        <time>2024-03-20T13:11:25.000Z</time>
      </trkpt>
      <trkpt lat="43.51279" lon="5.29712">
        <ele>159.8</ele>
        <time>2024-03-20T13:11:26.000Z</time>
      </trkpt>
      <trkpt lat="43.51283" lon="5.29708">
        <ele>160.2</ele>
        <time>2024-03-20T13:11:29.000Z</time>
      </trkpt>
      <trkpt lat="43.51287" lon="5.29706">
        <ele>160.1</ele>
        <time>2024-03-20T13:11:31.000Z</time>
      </trkpt>
      <trkpt lat="43.51289" lon="5.29704">
        <ele>160.3</ele>
        <time>2024-03-20T13:11:33.000Z</time>
      </trkpt>
      <trkpt lat="43.51291" lon="5.29701">
        <ele>160.5</ele>
        <time>2024-03-20T13:11:35.000Z</time>
      </trkpt>
      <trkpt lat="43.51291" lon="5.29699">
        <ele>161.1</ele>
        <time>2024-03-20T13:11:36.000Z</time>
      </trkpt>
      <trkpt lat="43.51294" lon="5.29699">
        <ele>160.6</ele>
        <time>2024-03-20T13:11:37.000Z</time>
      </trkpt>
      <trkpt lat="43.51295" lon="5.29697">
        <ele>160.8</ele>
        <time>2024-03-20T13:11:38.000Z</time>
      </trkpt>
      <trkpt lat="43.51296" lon="5.29696">
        <ele>160.8</ele>
        <time>2024-03-20T13:11:39.000Z</time>
      </trkpt>
      <trkpt lat="43.51299" lon="5.29694">
        <ele>160.4</ele>
        <time>2024-03-20T13:11:43.000Z</time>
      </trkpt>
      <trkpt lat="43.51302" lon="5.29693">
        <ele>160.2</ele>
        <time>2024-03-20T13:11:46.000Z</time>
      </trkpt>
      <trkpt lat="43.51303" lon="5.29691">
        <ele>160.4</ele>
        <time>2024-03-20T13:11:48.000Z</time>
      </trkpt>
      <trkpt lat="43.51305" lon="5.2969">
        <ele>160.4</ele>
        <time>2024-03-20T13:11:49.000Z</time>
      </trkpt>
      <trkpt lat="43.51306" lon="5.29689">
        <ele>160.4</ele>
        <time>2024-03-20T13:11:51.000Z</time>
      </trkpt>
      <trkpt lat="43.51308" lon="5.29686">
        <ele>160.5</ele>
        <time>2024-03-20T13:11:53.000Z</time>
      </trkpt>
      <trkpt lat="43.51311" lon="5.29685">
        <ele>160.5</ele>
        <time>2024-03-20T13:11:55.000Z</time>
      </trkpt>
      <trkpt lat="43.51313" lon="5.29683">
        <ele>160.4</ele>
        <time>2024-03-20T13:11:57.000Z</time>
      </trkpt>
      <trkpt lat="43.51316" lon="5.29681">
        <ele>160.5</ele>
        <time>2024-03-20T13:11:59.000Z</time>
      </trkpt>
      <trkpt lat="43.51317" lon="5.29678">
        <ele>160.8</ele>
        <time>2024-03-20T13:12:01.000Z</time>
      </trkpt>
      <trkpt lat="43.51318" lon="5.29676">
        <ele>161</ele>
        <time>2024-03-20T13:12:03.000Z</time>
      </trkpt>
      <trkpt lat="43.5132" lon="5.29673">
        <ele>161</ele>
        <time>2024-03-20T13:12:05.000Z</time>
      </trkpt>
      <trkpt lat="43.51322" lon="5.29672">
        <ele>160.8</ele>
        <time>2024-03-20T13:12:07.000Z</time>
      </trkpt>
      <trkpt lat="43.51324" lon="5.2967">
        <ele>160.8</ele>
        <time>2024-03-20T13:12:09.000Z</time>
      </trkpt>
      <trkpt lat="43.51326" lon="5.29669">
        <ele>160.5</ele>
        <time>2024-03-20T13:12:11.000Z</time>
      </trkpt>
      <trkpt lat="43.51328" lon="5.29668">
        <ele>160.3</ele>
        <time>2024-03-20T13:12:13.000Z</time>
      </trkpt>
      <trkpt lat="43.5133" lon="5.29666">
        <ele>160.1</ele>
        <time>2024-03-20T13:12:15.000Z</time>
      </trkpt>
      <trkpt lat="43.51329" lon="5.29662">
        <ele>161.1</ele>
        <time>2024-03-20T13:12:17.000Z</time>
      </trkpt>
      <trkpt lat="43.51332" lon="5.29661">
        <ele>160.8</ele>
        <time>2024-03-20T13:12:19.000Z</time>
      </trkpt>
      <trkpt lat="43.51335" lon="5.2966">
        <ele>160.1</ele>
        <time>2024-03-20T13:12:22.000Z</time>
      </trkpt>
      <trkpt lat="43.51338" lon="5.29658">
        <ele>159.9</ele>
        <time>2024-03-20T13:12:26.000Z</time>
      </trkpt>
      <trkpt lat="43.51339" lon="5.29656">
        <ele>160</ele>
        <time>2024-03-20T13:12:27.000Z</time>
      </trkpt>
      <trkpt lat="43.51339" lon="5.29654">
        <ele>160.5</ele>
        <time>2024-03-20T13:12:28.000Z</time>
      </trkpt>
      <trkpt lat="43.51342" lon="5.2965">
        <ele>160.5</ele>
        <time>2024-03-20T13:12:30.000Z</time>
      </trkpt>
      <trkpt lat="43.51344" lon="5.29649">
        <ele>160.2</ele>
        <time>2024-03-20T13:12:33.000Z</time>
      </trkpt>
      <trkpt lat="43.51346" lon="5.29647">
        <ele>159.9</ele>
        <time>2024-03-20T13:12:35.000Z</time>
      </trkpt>
      <trkpt lat="43.51348" lon="5.29645">
        <ele>159.7</ele>
        <time>2024-03-20T13:12:37.000Z</time>
      </trkpt>
      <trkpt lat="43.5135" lon="5.29643">
        <ele>159.5</ele>
        <time>2024-03-20T13:12:39.000Z</time>
      </trkpt>
      <trkpt lat="43.51352" lon="5.29641">
        <ele>159.5</ele>
        <time>2024-03-20T13:12:40.000Z</time>
      </trkpt>
      <trkpt lat="43.51353" lon="5.29639">
        <ele>159.3</ele>
        <time>2024-03-20T13:12:42.000Z</time>
      </trkpt>
      <trkpt lat="43.51356" lon="5.29637">
        <ele>159</ele>
        <time>2024-03-20T13:12:44.000Z</time>
      </trkpt>
      <trkpt lat="43.51358" lon="5.29635">
        <ele>158.6</ele>
        <time>2024-03-20T13:12:47.000Z</time>
      </trkpt>
      <trkpt lat="43.51361" lon="5.29633">
        <ele>158.3</ele>
        <time>2024-03-20T13:12:50.000Z</time>
      </trkpt>
      <trkpt lat="43.51363" lon="5.29631">
        <ele>158</ele>
        <time>2024-03-20T13:12:53.000Z</time>
      </trkpt>
      <trkpt lat="43.51366" lon="5.29629">
        <ele>158.1</ele>
        <time>2024-03-20T13:12:55.000Z</time>
      </trkpt>
      <trkpt lat="43.51367" lon="5.29627">
        <ele>158.1</ele>
        <time>2024-03-20T13:12:58.000Z</time>
      </trkpt>
      <trkpt lat="43.51369" lon="5.29624">
        <ele>158.3</ele>
        <time>2024-03-20T13:13:01.000Z</time>
      </trkpt>
      <trkpt lat="43.51371" lon="5.29623">
        <ele>158.1</ele>
        <time>2024-03-20T13:13:04.000Z</time>
      </trkpt>
      <trkpt lat="43.51373" lon="5.29621">
        <ele>158.1</ele>
        <time>2024-03-20T13:13:06.000Z</time>
      </trkpt>
      <trkpt lat="43.51375" lon="5.29618">
        <ele>158.1</ele>
        <time>2024-03-20T13:13:07.000Z</time>
      </trkpt>
      <trkpt lat="43.51377" lon="5.29617">
        <ele>157.7</ele>
        <time>2024-03-20T13:13:09.000Z</time>
      </trkpt>
      <trkpt lat="43.5138" lon="5.29616">
        <ele>157.3</ele>
        <time>2024-03-20T13:13:12.000Z</time>
      </trkpt>
      <trkpt lat="43.51382" lon="5.29615">
        <ele>157</ele>
        <time>2024-03-20T13:13:14.000Z</time>
      </trkpt>
      <trkpt lat="43.51384" lon="5.29613">
        <ele>156.8</ele>
        <time>2024-03-20T13:13:18.000Z</time>
      </trkpt>
      <trkpt lat="43.51387" lon="5.29612">
        <ele>156.4</ele>
        <time>2024-03-20T13:13:20.000Z</time>
      </trkpt>
      <trkpt lat="43.51387" lon="5.29608">
        <ele>157</ele>
        <time>2024-03-20T13:13:21.000Z</time>
      </trkpt>
      <trkpt lat="43.51388" lon="5.29607">
        <ele>156.6</ele>
        <time>2024-03-20T13:13:22.000Z</time>
      </trkpt>
      <trkpt lat="43.5139" lon="5.29606">
        <ele>156.6</ele>
        <time>2024-03-20T13:13:25.000Z</time>
      </trkpt>
      <trkpt lat="43.51393" lon="5.29604">
        <ele>156.3</ele>
        <time>2024-03-20T13:13:27.000Z</time>
      </trkpt>
      <trkpt lat="43.51395" lon="5.29601">
        <ele>156.5</ele>
        <time>2024-03-20T13:13:30.000Z</time>
      </trkpt>
      <trkpt lat="43.51396" lon="5.29599">
        <ele>156.5</ele>
        <time>2024-03-20T13:13:32.000Z</time>
      </trkpt>
      <trkpt lat="43.51398" lon="5.29596">
        <ele>156.6</ele>
        <time>2024-03-20T13:13:34.000Z</time>
      </trkpt>
      <trkpt lat="43.51401" lon="5.29594">
        <ele>156.3</ele>
        <time>2024-03-20T13:13:37.000Z</time>
      </trkpt>
      <trkpt lat="43.51403" lon="5.29592">
        <ele>156.2</ele>
        <time>2024-03-20T13:13:39.000Z</time>
      </trkpt>
      <trkpt lat="43.51405" lon="5.2959">
        <ele>156.2</ele>
        <time>2024-03-20T13:13:41.000Z</time>
      </trkpt>
      <trkpt lat="43.51405" lon="5.29588">
        <ele>156.4</ele>
        <time>2024-03-20T13:13:43.000Z</time>
      </trkpt>
      <trkpt lat="43.51407" lon="5.29585">
        <ele>156.4</ele>
        <time>2024-03-20T13:13:45.000Z</time>
      </trkpt>
      <trkpt lat="43.51409" lon="5.29585">
        <ele>156.1</ele>
        <time>2024-03-20T13:13:47.000Z</time>
      </trkpt>
      <trkpt lat="43.51411" lon="5.29583">
        <ele>156</ele>
        <time>2024-03-20T13:13:50.000Z</time>
      </trkpt>
      <trkpt lat="43.51413" lon="5.29578">
        <ele>156</ele>
        <time>2024-03-20T13:13:52.000Z</time>
      </trkpt>
      <trkpt lat="43.51414" lon="5.29576">
        <ele>156.1</ele>
        <time>2024-03-20T13:13:55.000Z</time>
      </trkpt>
      <trkpt lat="43.51416" lon="5.29574">
        <ele>155.9</ele>
        <time>2024-03-20T13:13:57.000Z</time>
      </trkpt>
      <trkpt lat="43.51417" lon="5.29572">
        <ele>155.7</ele>
        <time>2024-03-20T13:13:59.000Z</time>
      </trkpt>
      <trkpt lat="43.51419" lon="5.29568">
        <ele>155.4</ele>
        <time>2024-03-20T13:14:01.000Z</time>
      </trkpt>
      <trkpt lat="43.51421" lon="5.29565">
        <ele>154.8</ele>
        <time>2024-03-20T13:14:04.000Z</time>
      </trkpt>
      <trkpt lat="43.51423" lon="5.29562">
        <ele>154.6</ele>
        <time>2024-03-20T13:14:06.000Z</time>
      </trkpt>
      <trkpt lat="43.51425" lon="5.29558">
        <ele>154.3</ele>
        <time>2024-03-20T13:14:10.000Z</time>
      </trkpt>
      <trkpt lat="43.51426" lon="5.29556">
        <ele>154.2</ele>
        <time>2024-03-20T13:14:13.000Z</time>
      </trkpt>
      <trkpt lat="43.51429" lon="5.29551">
        <ele>154.2</ele>
        <time>2024-03-20T13:14:17.000Z</time>
      </trkpt>
      <trkpt lat="43.51431" lon="5.2955">
        <ele>153.7</ele>
        <time>2024-03-20T13:14:19.000Z</time>
      </trkpt>
      <trkpt lat="43.51433" lon="5.29548">
        <ele>153.3</ele>
        <time>2024-03-20T13:14:21.000Z</time>
      </trkpt>
      <trkpt lat="43.51435" lon="5.29546">
        <ele>153.2</ele>
        <time>2024-03-20T13:14:23.000Z</time>
      </trkpt>
      <trkpt lat="43.51436" lon="5.29544">
        <ele>153.3</ele>
        <time>2024-03-20T13:14:24.000Z</time>
      </trkpt>
      <trkpt lat="43.51438" lon="5.29541">
        <ele>153</ele>
        <time>2024-03-20T13:14:26.000Z</time>
      </trkpt>
      <trkpt lat="43.51439" lon="5.29538">
        <ele>153</ele>
        <time>2024-03-20T13:14:28.000Z</time>
      </trkpt>
      <trkpt lat="43.51441" lon="5.29537">
        <ele>152.7</ele>
        <time>2024-03-20T13:14:31.000Z</time>
      </trkpt>
      <trkpt lat="43.51443" lon="5.29534">
        <ele>152.7</ele>
        <time>2024-03-20T13:14:33.000Z</time>
      </trkpt>
      <trkpt lat="43.51443" lon="5.29531">
        <ele>152.9</ele>
        <time>2024-03-20T13:14:35.000Z</time>
      </trkpt>
      <trkpt lat="43.51445" lon="5.29528">
        <ele>153</ele>
        <time>2024-03-20T13:14:38.000Z</time>
      </trkpt>
      <trkpt lat="43.51447" lon="5.29525">
        <ele>152.8</ele>
        <time>2024-03-20T13:14:41.000Z</time>
      </trkpt>
      <trkpt lat="43.5145" lon="5.29524">
        <ele>152.3</ele>
        <time>2024-03-20T13:14:44.000Z</time>
      </trkpt>
      <trkpt lat="43.51451" lon="5.29522">
        <ele>152.1</ele>
        <time>2024-03-20T13:14:46.000Z</time>
      </trkpt>
      <trkpt lat="43.51453" lon="5.2952">
        <ele>152.2</ele>
        <time>2024-03-20T13:14:48.000Z</time>
      </trkpt>
      <trkpt lat="43.51455" lon="5.29519">
        <ele>151.9</ele>
        <time>2024-03-20T13:14:50.000Z</time>
      </trkpt>
      <trkpt lat="43.51456" lon="5.29518">
        <ele>151.8</ele>
        <time>2024-03-20T13:14:52.000Z</time>
      </trkpt>
      <trkpt lat="43.51458" lon="5.29517">
        <ele>151.5</ele>
        <time>2024-03-20T13:14:54.000Z</time>
      </trkpt>
      <trkpt lat="43.5146" lon="5.29515">
        <ele>151.3</ele>
        <time>2024-03-20T13:14:56.000Z</time>
      </trkpt>
      <trkpt lat="43.51462" lon="5.29514">
        <ele>151.1</ele>
        <time>2024-03-20T13:14:59.000Z</time>
      </trkpt>
      <trkpt lat="43.51465" lon="5.29512">
        <ele>150.9</ele>
        <time>2024-03-20T13:15:02.000Z</time>
      </trkpt>
      <trkpt lat="43.51466" lon="5.2951">
        <ele>150.8</ele>
        <time>2024-03-20T13:15:06.000Z</time>
      </trkpt>
      <trkpt lat="43.51468" lon="5.29507">
        <ele>151.2</ele>
        <time>2024-03-20T13:15:18.000Z</time>
      </trkpt>
      <trkpt lat="43.51472" lon="5.29504">
        <ele>151.1</ele>
        <time>2024-03-20T13:15:22.000Z</time>
      </trkpt>
      <trkpt lat="43.51474" lon="5.29501">
        <ele>151.1</ele>
        <time>2024-03-20T13:15:24.000Z</time>
      </trkpt>
      <trkpt lat="43.51476" lon="5.29499">
        <ele>151</ele>
        <time>2024-03-20T13:15:26.000Z</time>
      </trkpt>
      <trkpt lat="43.51478" lon="5.29497">
        <ele>150.9</ele>
        <time>2024-03-20T13:15:27.000Z</time>
      </trkpt>
      <trkpt lat="43.5148" lon="5.29495">
        <ele>150.7</ele>
        <time>2024-03-20T13:15:29.000Z</time>
      </trkpt>
      <trkpt lat="43.51482" lon="5.29492">
        <ele>150.6</ele>
        <time>2024-03-20T13:15:31.000Z</time>
      </trkpt>
      <trkpt lat="43.51485" lon="5.29489">
        <ele>150.4</ele>
        <time>2024-03-20T13:15:33.000Z</time>
      </trkpt>
      <trkpt lat="43.51487" lon="5.29486">
        <ele>150.6</ele>
        <time>2024-03-20T13:15:35.000Z</time>
      </trkpt>
      <trkpt lat="43.51489" lon="5.29484">
        <ele>150.3</ele>
        <time>2024-03-20T13:15:37.000Z</time>
      </trkpt>
      <trkpt lat="43.51491" lon="5.29482">
        <ele>150.2</ele>
        <time>2024-03-20T13:15:39.000Z</time>
      </trkpt>
      <trkpt lat="43.51493" lon="5.29479">
        <ele>150.2</ele>
        <time>2024-03-20T13:15:41.000Z</time>
      </trkpt>
      <trkpt lat="43.51495" lon="5.29477">
        <ele>150.1</ele>
        <time>2024-03-20T13:15:44.000Z</time>
      </trkpt>
      <trkpt lat="43.51497" lon="5.29475">
        <ele>150.2</ele>
        <time>2024-03-20T13:15:46.000Z</time>
      </trkpt>
      <trkpt lat="43.51498" lon="5.29472">
        <ele>150.8</ele>
        <time>2024-03-20T13:15:48.000Z</time>
      </trkpt>
      <trkpt lat="43.515" lon="5.29469">
        <ele>150.9</ele>
        <time>2024-03-20T13:15:51.000Z</time>
      </trkpt>
      <trkpt lat="43.51502" lon="5.29468">
        <ele>150.8</ele>
        <time>2024-03-20T13:15:53.000Z</time>
      </trkpt>
      <trkpt lat="43.51505" lon="5.29466">
        <ele>150.9</ele>
        <time>2024-03-20T13:15:55.000Z</time>
      </trkpt>
      <trkpt lat="43.51506" lon="5.29463">
        <ele>151.1</ele>
        <time>2024-03-20T13:15:57.000Z</time>
      </trkpt>
      <trkpt lat="43.51507" lon="5.29461">
        <ele>151.6</ele>
        <time>2024-03-20T13:15:59.000Z</time>
      </trkpt>
      <trkpt lat="43.5151" lon="5.29459">
        <ele>151.7</ele>
        <time>2024-03-20T13:16:01.000Z</time>
      </trkpt>
      <trkpt lat="43.51512" lon="5.29457">
        <ele>151.7</ele>
        <time>2024-03-20T13:16:03.000Z</time>
      </trkpt>
      <trkpt lat="43.51514" lon="5.29454">
        <ele>152.2</ele>
        <time>2024-03-20T13:16:05.000Z</time>
      </trkpt>
      <trkpt lat="43.51515" lon="5.29452">
        <ele>152.8</ele>
        <time>2024-03-20T13:16:07.000Z</time>
      </trkpt>
      <trkpt lat="43.51516" lon="5.2945">
        <ele>153</ele>
        <time>2024-03-20T13:16:09.000Z</time>
      </trkpt>
      <trkpt lat="43.51518" lon="5.29448">
        <ele>153.1</ele>
        <time>2024-03-20T13:16:11.000Z</time>
      </trkpt>
      <trkpt lat="43.5152" lon="5.29446">
        <ele>153.3</ele>
        <time>2024-03-20T13:16:13.000Z</time>
      </trkpt>
      <trkpt lat="43.51522" lon="5.29445">
        <ele>153.4</ele>
        <time>2024-03-20T13:16:15.000Z</time>
      </trkpt>
      <trkpt lat="43.51523" lon="5.29443">
        <ele>153.4</ele>
        <time>2024-03-20T13:16:17.000Z</time>
      </trkpt>
      <trkpt lat="43.51525" lon="5.29441">
        <ele>153.5</ele>
        <time>2024-03-20T13:16:19.000Z</time>
      </trkpt>
      <trkpt lat="43.51527" lon="5.29439">
        <ele>153.6</ele>
        <time>2024-03-20T13:16:21.000Z</time>
      </trkpt>
      <trkpt lat="43.51529" lon="5.29437">
        <ele>153.5</ele>
        <time>2024-03-20T13:16:23.000Z</time>
      </trkpt>
      <trkpt lat="43.51531" lon="5.29435">
        <ele>153.3</ele>
        <time>2024-03-20T13:16:25.000Z</time>
      </trkpt>
      <trkpt lat="43.51533" lon="5.29433">
        <ele>152.9</ele>
        <time>2024-03-20T13:16:28.000Z</time>
      </trkpt>
      <trkpt lat="43.51535" lon="5.29432">
        <ele>152.6</ele>
        <time>2024-03-20T13:16:30.000Z</time>
      </trkpt>
      <trkpt lat="43.51537" lon="5.2943">
        <ele>152.7</ele>
        <time>2024-03-20T13:16:32.000Z</time>
      </trkpt>
      <trkpt lat="43.51538" lon="5.29427">
        <ele>152.9</ele>
        <time>2024-03-20T13:16:34.000Z</time>
      </trkpt>
      <trkpt lat="43.5154" lon="5.29424">
        <ele>153</ele>
        <time>2024-03-20T13:16:36.000Z</time>
      </trkpt>
      <trkpt lat="43.51542" lon="5.29421">
        <ele>153.1</ele>
        <time>2024-03-20T13:16:39.000Z</time>
      </trkpt>
      <trkpt lat="43.51544" lon="5.2942">
        <ele>153</ele>
        <time>2024-03-20T13:16:41.000Z</time>
      </trkpt>
      <trkpt lat="43.51546" lon="5.29417">
        <ele>153.1</ele>
        <time>2024-03-20T13:16:43.000Z</time>
      </trkpt>
      <trkpt lat="43.51548" lon="5.29414">
        <ele>153.1</ele>
        <time>2024-03-20T13:16:45.000Z</time>
      </trkpt>
      <trkpt lat="43.51549" lon="5.29411">
        <ele>153.5</ele>
        <time>2024-03-20T13:16:47.000Z</time>
      </trkpt>
      <trkpt lat="43.51551" lon="5.29409">
        <ele>153.5</ele>
        <time>2024-03-20T13:16:49.000Z</time>
      </trkpt>
      <trkpt lat="43.51552" lon="5.29407">
        <ele>153.7</ele>
        <time>2024-03-20T13:16:51.000Z</time>
      </trkpt>
      <trkpt lat="43.51554" lon="5.29404">
        <ele>153.8</ele>
        <time>2024-03-20T13:16:53.000Z</time>
      </trkpt>
      <trkpt lat="43.51556" lon="5.29402">
        <ele>153.6</ele>
        <time>2024-03-20T13:16:55.000Z</time>
      </trkpt>
      <trkpt lat="43.51557" lon="5.294">
        <ele>153.6</ele>
        <time>2024-03-20T13:16:57.000Z</time>
      </trkpt>
      <trkpt lat="43.51559" lon="5.29398">
        <ele>153.6</ele>
        <time>2024-03-20T13:16:59.000Z</time>
      </trkpt>
      <trkpt lat="43.51562" lon="5.29396">
        <ele>153.4</ele>
        <time>2024-03-20T13:17:01.000Z</time>
      </trkpt>
      <trkpt lat="43.51564" lon="5.29393">
        <ele>153.6</ele>
        <time>2024-03-20T13:17:03.000Z</time>
      </trkpt>
      <trkpt lat="43.51565" lon="5.29391">
        <ele>153.7</ele>
        <time>2024-03-20T13:17:05.000Z</time>
      </trkpt>
      <trkpt lat="43.51567" lon="5.29389">
        <ele>153.6</ele>
        <time>2024-03-20T13:17:07.000Z</time>
      </trkpt>
      <trkpt lat="43.51569" lon="5.29388">
        <ele>153.7</ele>
        <time>2024-03-20T13:17:09.000Z</time>
      </trkpt>
      <trkpt lat="43.51571" lon="5.29385">
        <ele>154</ele>
        <time>2024-03-20T13:17:12.000Z</time>
      </trkpt>
      <trkpt lat="43.51574" lon="5.29381">
        <ele>154.3</ele>
        <time>2024-03-20T13:17:15.000Z</time>
      </trkpt>
      <trkpt lat="43.51576" lon="5.2938">
        <ele>154.3</ele>
        <time>2024-03-20T13:17:17.000Z</time>
      </trkpt>
      <trkpt lat="43.51579" lon="5.29378">
        <ele>154</ele>
        <time>2024-03-20T13:17:20.000Z</time>
      </trkpt>
      <trkpt lat="43.51581" lon="5.29377">
        <ele>153.7</ele>
        <time>2024-03-20T13:17:22.000Z</time>
      </trkpt>
      <trkpt lat="43.51583" lon="5.29376">
        <ele>153.4</ele>
        <time>2024-03-20T13:17:25.000Z</time>
      </trkpt>
      <trkpt lat="43.51584" lon="5.29374">
        <ele>153.7</ele>
        <time>2024-03-20T13:17:27.000Z</time>
      </trkpt>
      <trkpt lat="43.51586" lon="5.29372">
        <ele>154.2</ele>
        <time>2024-03-20T13:17:29.000Z</time>
      </trkpt>
      <trkpt lat="43.51588" lon="5.29372">
        <ele>154.2</ele>
        <time>2024-03-20T13:17:33.000Z</time>
      </trkpt>
      <trkpt lat="43.51591" lon="5.29371">
        <ele>154.2</ele>
        <time>2024-03-20T13:17:35.000Z</time>
      </trkpt>
      <trkpt lat="43.51593" lon="5.29371">
        <ele>154</ele>
        <time>2024-03-20T13:17:37.000Z</time>
      </trkpt>
      <trkpt lat="43.51596" lon="5.29369">
        <ele>154.4</ele>
        <time>2024-03-20T13:17:39.000Z</time>
      </trkpt>
      <trkpt lat="43.516" lon="5.29367">
        <ele>154.8</ele>
        <time>2024-03-20T13:17:42.000Z</time>
      </trkpt>
      <trkpt lat="43.51602" lon="5.29366">
        <ele>155.1</ele>
        <time>2024-03-20T13:17:44.000Z</time>
      </trkpt>
      <trkpt lat="43.51604" lon="5.29365">
        <ele>155.2</ele>
        <time>2024-03-20T13:17:46.000Z</time>
      </trkpt>
      <trkpt lat="43.51606" lon="5.29363">
        <ele>155.6</ele>
        <time>2024-03-20T13:17:48.000Z</time>
      </trkpt>
      <trkpt lat="43.51609" lon="5.29362">
        <ele>155.9</ele>
        <time>2024-03-20T13:17:51.000Z</time>
      </trkpt>
      <trkpt lat="43.51611" lon="5.29363">
        <ele>155.4</ele>
        <time>2024-03-20T13:17:53.000Z</time>
      </trkpt>
      <trkpt lat="43.51613" lon="5.29363">
        <ele>155.5</ele>
        <time>2024-03-20T13:17:56.000Z</time>
      </trkpt>
      <trkpt lat="43.51616" lon="5.29362">
        <ele>155.7</ele>
        <time>2024-03-20T13:17:58.000Z</time>
      </trkpt>
      <trkpt lat="43.51618" lon="5.29362">
        <ele>155.8</ele>
        <time>2024-03-20T13:18:01.000Z</time>
      </trkpt>
      <trkpt lat="43.5162" lon="5.29361">
        <ele>155.9</ele>
        <time>2024-03-20T13:18:03.000Z</time>
      </trkpt>
      <trkpt lat="43.51622" lon="5.2936">
        <ele>156.2</ele>
        <time>2024-03-20T13:18:05.000Z</time>
      </trkpt>
      <trkpt lat="43.51624" lon="5.2936">
        <ele>156.4</ele>
        <time>2024-03-20T13:18:07.000Z</time>
      </trkpt>
      <trkpt lat="43.51626" lon="5.29359">
        <ele>156.5</ele>
        <time>2024-03-20T13:18:10.000Z</time>
      </trkpt>
      <trkpt lat="43.51627" lon="5.29362">
        <ele>155.9</ele>
        <time>2024-03-20T13:18:17.000Z</time>
      </trkpt>
      <trkpt lat="43.51629" lon="5.29361">
        <ele>156.1</ele>
        <time>2024-03-20T13:18:25.000Z</time>
      </trkpt>
      <trkpt lat="43.51631" lon="5.29359">
        <ele>156.5</ele>
        <time>2024-03-20T13:18:28.000Z</time>
      </trkpt>
      <trkpt lat="43.51633" lon="5.29359">
        <ele>156.5</ele>
        <time>2024-03-20T13:18:30.000Z</time>
      </trkpt>
      <trkpt lat="43.51635" lon="5.29359">
        <ele>156.5</ele>
        <time>2024-03-20T13:18:33.000Z</time>
      </trkpt>
      <trkpt lat="43.51637" lon="5.29357">
        <ele>157</ele>
        <time>2024-03-20T13:18:37.000Z</time>
      </trkpt>
      <trkpt lat="43.5164" lon="5.29357">
        <ele>156.8</ele>
        <time>2024-03-20T13:18:39.000Z</time>
      </trkpt>
      <trkpt lat="43.51642" lon="5.29357">
        <ele>156.6</ele>
        <time>2024-03-20T13:18:41.000Z</time>
      </trkpt>
      <trkpt lat="43.51644" lon="5.29356">
        <ele>156.5</ele>
        <time>2024-03-20T13:18:44.000Z</time>
      </trkpt>
      <trkpt lat="43.51646" lon="5.29355">
        <ele>156.4</ele>
        <time>2024-03-20T13:18:46.000Z</time>
      </trkpt>
      <trkpt lat="43.51648" lon="5.29353">
        <ele>156.5</ele>
        <time>2024-03-20T13:18:48.000Z</time>
      </trkpt>
      <trkpt lat="43.5165" lon="5.29351">
        <ele>156.6</ele>
        <time>2024-03-20T13:18:50.000Z</time>
      </trkpt>
      <trkpt lat="43.51651" lon="5.2935">
        <ele>156.7</ele>
        <time>2024-03-20T13:18:52.000Z</time>
      </trkpt>
      <trkpt lat="43.51653" lon="5.29348">
        <ele>156.8</ele>
        <time>2024-03-20T13:18:54.000Z</time>
      </trkpt>
      <trkpt lat="43.51655" lon="5.29346">
        <ele>156.8</ele>
        <time>2024-03-20T13:18:57.000Z</time>
      </trkpt>
      <trkpt lat="43.51658" lon="5.29344">
        <ele>156.9</ele>
        <time>2024-03-20T13:19:00.000Z</time>
      </trkpt>
      <trkpt lat="43.5166" lon="5.29342">
        <ele>156.9</ele>
        <time>2024-03-20T13:19:03.000Z</time>
      </trkpt>
      <trkpt lat="43.51661" lon="5.2934">
        <ele>156.9</ele>
        <time>2024-03-20T13:19:05.000Z</time>
      </trkpt>
      <trkpt lat="43.51664" lon="5.29338">
        <ele>156.8</ele>
        <time>2024-03-20T13:19:07.000Z</time>
      </trkpt>
      <trkpt lat="43.51666" lon="5.29336">
        <ele>156.8</ele>
        <time>2024-03-20T13:19:09.000Z</time>
      </trkpt>
      <trkpt lat="43.51667" lon="5.29334">
        <ele>156.9</ele>
        <time>2024-03-20T13:19:11.000Z</time>
      </trkpt>
      <trkpt lat="43.51668" lon="5.29332">
        <ele>156.9</ele>
        <time>2024-03-20T13:19:13.000Z</time>
      </trkpt>
      <trkpt lat="43.5167" lon="5.2933">
        <ele>156.9</ele>
        <time>2024-03-20T13:19:15.000Z</time>
      </trkpt>
      <trkpt lat="43.51671" lon="5.29327">
        <ele>156.9</ele>
        <time>2024-03-20T13:19:18.000Z</time>
      </trkpt>
      <trkpt lat="43.51672" lon="5.29325">
        <ele>156.9</ele>
        <time>2024-03-20T13:19:25.000Z</time>
      </trkpt>
      <trkpt lat="43.51672" lon="5.29321">
        <ele>157.2</ele>
        <time>2024-03-20T13:19:35.000Z</time>
      </trkpt>
      <trkpt lat="43.51674" lon="5.29319">
        <ele>157.3</ele>
        <time>2024-03-20T13:19:37.000Z</time>
      </trkpt>
      <trkpt lat="43.51674" lon="5.29315">
        <ele>157.6</ele>
        <time>2024-03-20T13:19:40.000Z</time>
      </trkpt>
      <trkpt lat="43.51675" lon="5.29312">
        <ele>157.8</ele>
        <time>2024-03-20T13:19:45.000Z</time>
      </trkpt>
      <trkpt lat="43.51675" lon="5.2931">
        <ele>158</ele>
        <time>2024-03-20T13:19:48.000Z</time>
      </trkpt>
      <trkpt lat="43.51675" lon="5.29307">
        <ele>158.3</ele>
        <time>2024-03-20T13:19:50.000Z</time>
      </trkpt>
      <trkpt lat="43.51675" lon="5.29304">
        <ele>158.1</ele>
        <time>2024-03-20T13:19:53.000Z</time>
      </trkpt>
      <trkpt lat="43.51674" lon="5.29301">
        <ele>157.9</ele>
        <time>2024-03-20T13:20:03.000Z</time>
      </trkpt>
      <trkpt lat="43.51673" lon="5.29303">
        <ele>158.2</ele>
        <time>2024-03-20T13:21:00.000Z</time>
      </trkpt>
      <trkpt lat="43.51672" lon="5.29301">
        <ele>158</ele>
        <time>2024-03-20T13:21:30.000Z</time>
      </trkpt>
      <trkpt lat="43.51669" lon="5.29301">
        <ele>158.3</ele>
        <time>2024-03-20T13:22:17.000Z</time>
      </trkpt>
      <trkpt lat="43.51667" lon="5.293">
        <ele>158.1</ele>
        <time>2024-03-20T13:22:20.000Z</time>
      </trkpt>
      <trkpt lat="43.51665" lon="5.293">
        <ele>158.4</ele>
        <time>2024-03-20T13:22:22.000Z</time>
      </trkpt>
      <trkpt lat="43.51663" lon="5.293">
        <ele>158.9</ele>
        <time>2024-03-20T13:22:24.000Z</time>
      </trkpt>
      <trkpt lat="43.51663" lon="5.29297">
        <ele>158.5</ele>
        <time>2024-03-20T13:22:32.000Z</time>
      </trkpt>
      <trkpt lat="43.51661" lon="5.29296">
        <ele>158.6</ele>
        <time>2024-03-20T13:22:39.000Z</time>
      </trkpt>
      <trkpt lat="43.51659" lon="5.29295">
        <ele>158.8</ele>
        <time>2024-03-20T13:22:42.000Z</time>
      </trkpt>
      <trkpt lat="43.51656" lon="5.29294">
        <ele>159.2</ele>
        <time>2024-03-20T13:22:45.000Z</time>
      </trkpt>
      <trkpt lat="43.51654" lon="5.29293">
        <ele>159.5</ele>
        <time>2024-03-20T13:22:47.000Z</time>
      </trkpt>
      <trkpt lat="43.51653" lon="5.29293">
        <ele>159.7</ele>
        <time>2024-03-20T13:22:49.000Z</time>
      </trkpt>
      <trkpt lat="43.5165" lon="5.29291">
        <ele>160</ele>
        <time>2024-03-20T13:22:53.000Z</time>
      </trkpt>
      <trkpt lat="43.51648" lon="5.2929">
        <ele>160.2</ele>
        <time>2024-03-20T13:22:56.000Z</time>
      </trkpt>
      <trkpt lat="43.51645" lon="5.2929">
        <ele>160.6</ele>
        <time>2024-03-20T13:22:59.000Z</time>
      </trkpt>
      <trkpt lat="43.51643" lon="5.29288">
        <ele>160.8</ele>
        <time>2024-03-20T13:23:02.000Z</time>
      </trkpt>
      <trkpt lat="43.51641" lon="5.29286">
        <ele>160.7</ele>
        <time>2024-03-20T13:23:04.000Z</time>
      </trkpt>
      <trkpt lat="43.5164" lon="5.29283">
        <ele>160.7</ele>
        <time>2024-03-20T13:23:07.000Z</time>
      </trkpt>
      <trkpt lat="43.51639" lon="5.2928">
        <ele>160.3</ele>
        <time>2024-03-20T13:23:10.000Z</time>
      </trkpt>
      <trkpt lat="43.51638" lon="5.29277">
        <ele>160.5</ele>
        <time>2024-03-20T13:23:12.000Z</time>
      </trkpt>
      <trkpt lat="43.51637" lon="5.29275">
        <ele>160.4</ele>
        <time>2024-03-20T13:23:14.000Z</time>
      </trkpt>
      <trkpt lat="43.51636" lon="5.29273">
        <ele>160.8</ele>
        <time>2024-03-20T13:23:17.000Z</time>
      </trkpt>
      <trkpt lat="43.51635" lon="5.2927">
        <ele>160.8</ele>
        <time>2024-03-20T13:23:19.000Z</time>
      </trkpt>
      <trkpt lat="43.51634" lon="5.29267">
        <ele>160.7</ele>
        <time>2024-03-20T13:23:21.000Z</time>
      </trkpt>
      <trkpt lat="43.51634" lon="5.29264">
        <ele>160.6</ele>
        <time>2024-03-20T13:23:23.000Z</time>
      </trkpt>
      <trkpt lat="43.51633" lon="5.2926">
        <ele>160.6</ele>
        <time>2024-03-20T13:23:25.000Z</time>
      </trkpt>
      <trkpt lat="43.51632" lon="5.29258">
        <ele>160.8</ele>
        <time>2024-03-20T13:23:27.000Z</time>
      </trkpt>
      <trkpt lat="43.51631" lon="5.29255">
        <ele>160.9</ele>
        <time>2024-03-20T13:23:30.000Z</time>
      </trkpt>
      <trkpt lat="43.5163" lon="5.29252">
        <ele>160.9</ele>
        <time>2024-03-20T13:23:32.000Z</time>
      </trkpt>
      <trkpt lat="43.51629" lon="5.29249">
        <ele>160.9</ele>
        <time>2024-03-20T13:23:34.000Z</time>
      </trkpt>
      <trkpt lat="43.51628" lon="5.29246">
        <ele>160.8</ele>
        <time>2024-03-20T13:23:36.000Z</time>
      </trkpt>
      <trkpt lat="43.51627" lon="5.29243">
        <ele>160.8</ele>
        <time>2024-03-20T13:23:38.000Z</time>
      </trkpt>
      <trkpt lat="43.51626" lon="5.2924">
        <ele>160.9</ele>
        <time>2024-03-20T13:23:40.000Z</time>
      </trkpt>
      <trkpt lat="43.51625" lon="5.29238">
        <ele>160.9</ele>
        <time>2024-03-20T13:23:42.000Z</time>
      </trkpt>
      <trkpt lat="43.51625" lon="5.29234">
        <ele>160.5</ele>
        <time>2024-03-20T13:23:45.000Z</time>
      </trkpt>
      <trkpt lat="43.51625" lon="5.2923">
        <ele>160.2</ele>
        <time>2024-03-20T13:23:47.000Z</time>
      </trkpt>
      <trkpt lat="43.51623" lon="5.29227">
        <ele>160.3</ele>
        <time>2024-03-20T13:23:49.000Z</time>
      </trkpt>
      <trkpt lat="43.51623" lon="5.29224">
        <ele>160.1</ele>
        <time>2024-03-20T13:23:51.000Z</time>
      </trkpt>
      <trkpt lat="43.5162" lon="5.29221">
        <ele>160.5</ele>
        <time>2024-03-20T13:23:54.000Z</time>
      </trkpt>
      <trkpt lat="43.5162" lon="5.29218">
        <ele>160.6</ele>
        <time>2024-03-20T13:23:56.000Z</time>
      </trkpt>
      <trkpt lat="43.51619" lon="5.29216">
        <ele>160.6</ele>
        <time>2024-03-20T13:23:58.000Z</time>
      </trkpt>
      <trkpt lat="43.51618" lon="5.29213">
        <ele>160.5</ele>
        <time>2024-03-20T13:24:00.000Z</time>
      </trkpt>
      <trkpt lat="43.51618" lon="5.29211">
        <ele>160.4</ele>
        <time>2024-03-20T13:24:02.000Z</time>
      </trkpt>
      <trkpt lat="43.51617" lon="5.29208">
        <ele>160.4</ele>
        <time>2024-03-20T13:24:04.000Z</time>
      </trkpt>
      <trkpt lat="43.51617" lon="5.29205">
        <ele>160.3</ele>
        <time>2024-03-20T13:24:06.000Z</time>
      </trkpt>
      <trkpt lat="43.51615" lon="5.29201">
        <ele>160.3</ele>
        <time>2024-03-20T13:24:09.000Z</time>
      </trkpt>
      <trkpt lat="43.51615" lon="5.29198">
        <ele>160.1</ele>
        <time>2024-03-20T13:24:11.000Z</time>
      </trkpt>
      <trkpt lat="43.51615" lon="5.29195">
        <ele>159.9</ele>
        <time>2024-03-20T13:24:14.000Z</time>
      </trkpt>
      <trkpt lat="43.51614" lon="5.29192">
        <ele>159.7</ele>
        <time>2024-03-20T13:24:16.000Z</time>
      </trkpt>
      <trkpt lat="43.51613" lon="5.29189">
        <ele>159.7</ele>
        <time>2024-03-20T13:24:18.000Z</time>
      </trkpt>
      <trkpt lat="43.51612" lon="5.29187">
        <ele>159.7</ele>
        <time>2024-03-20T13:24:20.000Z</time>
      </trkpt>
      <trkpt lat="43.51611" lon="5.29185">
        <ele>159.9</ele>
        <time>2024-03-20T13:24:22.000Z</time>
      </trkpt>
      <trkpt lat="43.51609" lon="5.29182">
        <ele>160.3</ele>
        <time>2024-03-20T13:24:24.000Z</time>
      </trkpt>
      <trkpt lat="43.51608" lon="5.29181">
        <ele>160.6</ele>
        <time>2024-03-20T13:24:26.000Z</time>
      </trkpt>
      <trkpt lat="43.51606" lon="5.29179">
        <ele>160.9</ele>
        <time>2024-03-20T13:24:28.000Z</time>
      </trkpt>
      <trkpt lat="43.51605" lon="5.29177">
        <ele>161.1</ele>
        <time>2024-03-20T13:24:30.000Z</time>
      </trkpt>
      <trkpt lat="43.51603" lon="5.29174">
        <ele>161.3</ele>
        <time>2024-03-20T13:24:32.000Z</time>
      </trkpt>
      <trkpt lat="43.516" lon="5.29171">
        <ele>161.5</ele>
        <time>2024-03-20T13:24:34.000Z</time>
      </trkpt>
      <trkpt lat="43.51598" lon="5.29169">
        <ele>161.8</ele>
        <time>2024-03-20T13:24:36.000Z</time>
      </trkpt>
      <trkpt lat="43.51597" lon="5.29167">
        <ele>161.7</ele>
        <time>2024-03-20T13:24:38.000Z</time>
      </trkpt>
      <trkpt lat="43.51595" lon="5.29166">
        <ele>161.9</ele>
        <time>2024-03-20T13:24:40.000Z</time>
      </trkpt>
      <trkpt lat="43.51593" lon="5.29164">
        <ele>162</ele>
        <time>2024-03-20T13:24:42.000Z</time>
      </trkpt>
      <trkpt lat="43.51591" lon="5.29162">
        <ele>162.1</ele>
        <time>2024-03-20T13:24:44.000Z</time>
      </trkpt>
      <trkpt lat="43.51589" lon="5.29159">
        <ele>161.8</ele>
        <time>2024-03-20T13:24:47.000Z</time>
      </trkpt>
      <trkpt lat="43.51587" lon="5.29158">
        <ele>161.9</ele>
        <time>2024-03-20T13:24:49.000Z</time>
      </trkpt>
      <trkpt lat="43.51585" lon="5.29156">
        <ele>162</ele>
        <time>2024-03-20T13:24:51.000Z</time>
      </trkpt>
      <trkpt lat="43.51582" lon="5.29155">
        <ele>162.2</ele>
        <time>2024-03-20T13:24:54.000Z</time>
      </trkpt>
      <trkpt lat="43.5158" lon="5.29153">
        <ele>162.2</ele>
        <time>2024-03-20T13:24:56.000Z</time>
      </trkpt>
      <trkpt lat="43.51578" lon="5.29152">
        <ele>162.3</ele>
        <time>2024-03-20T13:24:58.000Z</time>
      </trkpt>
      <trkpt lat="43.51576" lon="5.2915">
        <ele>162.1</ele>
        <time>2024-03-20T13:25:00.000Z</time>
      </trkpt>
      <trkpt lat="43.51575" lon="5.29149">
        <ele>162.1</ele>
        <time>2024-03-20T13:25:02.000Z</time>
      </trkpt>
      <trkpt lat="43.51573" lon="5.29147">
        <ele>162</ele>
        <time>2024-03-20T13:25:04.000Z</time>
      </trkpt>
      <trkpt lat="43.5157" lon="5.29145">
        <ele>162.1</ele>
        <time>2024-03-20T13:25:06.000Z</time>
      </trkpt>
      <trkpt lat="43.51568" lon="5.29144">
        <ele>162.1</ele>
        <time>2024-03-20T13:25:08.000Z</time>
      </trkpt>
      <trkpt lat="43.51566" lon="5.29143">
        <ele>162.2</ele>
        <time>2024-03-20T13:25:10.000Z</time>
      </trkpt>
      <trkpt lat="43.51562" lon="5.2914">
        <ele>162.2</ele>
        <time>2024-03-20T13:25:13.000Z</time>
      </trkpt>
      <trkpt lat="43.5156" lon="5.29138">
        <ele>162</ele>
        <time>2024-03-20T13:25:15.000Z</time>
      </trkpt>
      <trkpt lat="43.51558" lon="5.29136">
        <ele>162</ele>
        <time>2024-03-20T13:25:17.000Z</time>
      </trkpt>
      <trkpt lat="43.51556" lon="5.29134">
        <ele>162</ele>
        <time>2024-03-20T13:25:19.000Z</time>
      </trkpt>
      <trkpt lat="43.51554" lon="5.29133">
        <ele>162.2</ele>
        <time>2024-03-20T13:25:21.000Z</time>
      </trkpt>
      <trkpt lat="43.51552" lon="5.29131">
        <ele>162.1</ele>
        <time>2024-03-20T13:25:23.000Z</time>
      </trkpt>
      <trkpt lat="43.5155" lon="5.29128">
        <ele>162.1</ele>
        <time>2024-03-20T13:25:26.000Z</time>
      </trkpt>
      <trkpt lat="43.51549" lon="5.29126">
        <ele>162</ele>
        <time>2024-03-20T13:25:28.000Z</time>
      </trkpt>
      <trkpt lat="43.51547" lon="5.29124">
        <ele>162</ele>
        <time>2024-03-20T13:25:30.000Z</time>
      </trkpt>
      <trkpt lat="43.51545" lon="5.29122">
        <ele>162.1</ele>
        <time>2024-03-20T13:25:32.000Z</time>
      </trkpt>
      <trkpt lat="43.51543" lon="5.29119">
        <ele>162</ele>
        <time>2024-03-20T13:25:34.000Z</time>
      </trkpt>
      <trkpt lat="43.51542" lon="5.29117">
        <ele>162</ele>
        <time>2024-03-20T13:25:37.000Z</time>
      </trkpt>
      <trkpt lat="43.51541" lon="5.29114">
        <ele>161.7</ele>
        <time>2024-03-20T13:25:40.000Z</time>
      </trkpt>
      <trkpt lat="43.5154" lon="5.29111">
        <ele>161.5</ele>
        <time>2024-03-20T13:25:42.000Z</time>
      </trkpt>
      <trkpt lat="43.51539" lon="5.29109">
        <ele>161.6</ele>
        <time>2024-03-20T13:25:44.000Z</time>
      </trkpt>
      <trkpt lat="43.51539" lon="5.29105">
        <ele>161.7</ele>
        <time>2024-03-20T13:25:46.000Z</time>
      </trkpt>
      <trkpt lat="43.51539" lon="5.29103">
        <ele>161.8</ele>
        <time>2024-03-20T13:25:48.000Z</time>
      </trkpt>
      <trkpt lat="43.51538" lon="5.29098">
        <ele>161.8</ele>
        <time>2024-03-20T13:25:51.000Z</time>
      </trkpt>
      <trkpt lat="43.51538" lon="5.29094">
        <ele>161.9</ele>
        <time>2024-03-20T13:25:53.000Z</time>
      </trkpt>
      <trkpt lat="43.51539" lon="5.29091">
        <ele>161.8</ele>
        <time>2024-03-20T13:25:55.000Z</time>
      </trkpt>
      <trkpt lat="43.51539" lon="5.29087">
        <ele>161.7</ele>
        <time>2024-03-20T13:25:57.000Z</time>
      </trkpt>
      <trkpt lat="43.5154" lon="5.29083">
        <ele>161.7</ele>
        <time>2024-03-20T13:25:59.000Z</time>
      </trkpt>
      <trkpt lat="43.5154" lon="5.29079">
        <ele>162.1</ele>
        <time>2024-03-20T13:26:01.000Z</time>
      </trkpt>
      <trkpt lat="43.51542" lon="5.29074">
        <ele>162.3</ele>
        <time>2024-03-20T13:26:04.000Z</time>
      </trkpt>
      <trkpt lat="43.51543" lon="5.29071">
        <ele>162.6</ele>
        <time>2024-03-20T13:26:07.000Z</time>
      </trkpt>
      <trkpt lat="43.51543" lon="5.29069">
        <ele>162.9</ele>
        <time>2024-03-20T13:26:09.000Z</time>
      </trkpt>
      <trkpt lat="43.51544" lon="5.29065">
        <ele>163.2</ele>
        <time>2024-03-20T13:26:12.000Z</time>
      </trkpt>
      <trkpt lat="43.51545" lon="5.29063">
        <ele>163</ele>
        <time>2024-03-20T13:26:14.000Z</time>
      </trkpt>
      <trkpt lat="43.51547" lon="5.29058">
        <ele>163.2</ele>
        <time>2024-03-20T13:26:17.000Z</time>
      </trkpt>
      <trkpt lat="43.51547" lon="5.29056">
        <ele>163.2</ele>
        <time>2024-03-20T13:26:19.000Z</time>
      </trkpt>
      <trkpt lat="43.51548" lon="5.29053">
        <ele>163.3</ele>
        <time>2024-03-20T13:26:21.000Z</time>
      </trkpt>
      <trkpt lat="43.51548" lon="5.2905">
        <ele>163.6</ele>
        <time>2024-03-20T13:26:23.000Z</time>
      </trkpt>
      <trkpt lat="43.51549" lon="5.29047">
        <ele>163.3</ele>
        <time>2024-03-20T13:26:25.000Z</time>
      </trkpt>
      <trkpt lat="43.5155" lon="5.29044">
        <ele>163.3</ele>
        <time>2024-03-20T13:26:27.000Z</time>
      </trkpt>
      <trkpt lat="43.5155" lon="5.29041">
        <ele>163.3</ele>
        <time>2024-03-20T13:26:29.000Z</time>
      </trkpt>
      <trkpt lat="43.51551" lon="5.29037">
        <ele>163.3</ele>
        <time>2024-03-20T13:26:31.000Z</time>
      </trkpt>
      <trkpt lat="43.51552" lon="5.29033">
        <ele>163.3</ele>
        <time>2024-03-20T13:26:33.000Z</time>
      </trkpt>
      <trkpt lat="43.51553" lon="5.2903">
        <ele>163.1</ele>
        <time>2024-03-20T13:26:35.000Z</time>
      </trkpt>
      <trkpt lat="43.51553" lon="5.29027">
        <ele>163.1</ele>
        <time>2024-03-20T13:26:37.000Z</time>
      </trkpt>
      <trkpt lat="43.51554" lon="5.29024">
        <ele>163.1</ele>
        <time>2024-03-20T13:26:39.000Z</time>
      </trkpt>
      <trkpt lat="43.51554" lon="5.2902">
        <ele>163.1</ele>
        <time>2024-03-20T13:26:41.000Z</time>
      </trkpt>
      <trkpt lat="43.51555" lon="5.29017">
        <ele>162.9</ele>
        <time>2024-03-20T13:26:43.000Z</time>
      </trkpt>
      <trkpt lat="43.51556" lon="5.29015">
        <ele>163</ele>
        <time>2024-03-20T13:26:45.000Z</time>
      </trkpt>
      <trkpt lat="43.51557" lon="5.29012">
        <ele>162.9</ele>
        <time>2024-03-20T13:26:47.000Z</time>
      </trkpt>
      <trkpt lat="43.51557" lon="5.29009">
        <ele>163.1</ele>
        <time>2024-03-20T13:26:49.000Z</time>
      </trkpt>
      <trkpt lat="43.51558" lon="5.29006">
        <ele>163.1</ele>
        <time>2024-03-20T13:26:51.000Z</time>
      </trkpt>
      <trkpt lat="43.51559" lon="5.29003">
        <ele>163</ele>
        <time>2024-03-20T13:26:53.000Z</time>
      </trkpt>
      <trkpt lat="43.51559" lon="5.29">
        <ele>163.2</ele>
        <time>2024-03-20T13:26:55.000Z</time>
      </trkpt>
      <trkpt lat="43.51561" lon="5.28996">
        <ele>163.1</ele>
        <time>2024-03-20T13:26:58.000Z</time>
      </trkpt>
      <trkpt lat="43.51562" lon="5.28993">
        <ele>163</ele>
        <time>2024-03-20T13:27:01.000Z</time>
      </trkpt>
      <trkpt lat="43.51564" lon="5.28991">
        <ele>163</ele>
        <time>2024-03-20T13:27:03.000Z</time>
      </trkpt>
      <trkpt lat="43.51565" lon="5.28989">
        <ele>162.7</ele>
        <time>2024-03-20T13:27:07.000Z</time>
      </trkpt>
      <trkpt lat="43.51566" lon="5.28987">
        <ele>162.8</ele>
        <time>2024-03-20T13:27:09.000Z</time>
      </trkpt>
      <trkpt lat="43.51567" lon="5.28984">
        <ele>162.6</ele>
        <time>2024-03-20T13:27:11.000Z</time>
      </trkpt>
      <trkpt lat="43.51568" lon="5.2898">
        <ele>162.7</ele>
        <time>2024-03-20T13:27:13.000Z</time>
      </trkpt>
      <trkpt lat="43.5157" lon="5.28978">
        <ele>162.5</ele>
        <time>2024-03-20T13:27:15.000Z</time>
      </trkpt>
      <trkpt lat="43.51571" lon="5.28975">
        <ele>162.4</ele>
        <time>2024-03-20T13:27:17.000Z</time>
      </trkpt>
      <trkpt lat="43.51572" lon="5.28972">
        <ele>162.4</ele>
        <time>2024-03-20T13:27:19.000Z</time>
      </trkpt>
      <trkpt lat="43.51573" lon="5.28969">
        <ele>162.3</ele>
        <time>2024-03-20T13:27:21.000Z</time>
      </trkpt>
      <trkpt lat="43.51574" lon="5.28965">
        <ele>162.3</ele>
        <time>2024-03-20T13:27:23.000Z</time>
      </trkpt>
      <trkpt lat="43.51575" lon="5.28962">
        <ele>162.2</ele>
        <time>2024-03-20T13:27:25.000Z</time>
      </trkpt>
      <trkpt lat="43.51576" lon="5.28959">
        <ele>162.1</ele>
        <time>2024-03-20T13:27:27.000Z</time>
      </trkpt>
      <trkpt lat="43.51576" lon="5.28956">
        <ele>162</ele>
        <time>2024-03-20T13:27:29.000Z</time>
      </trkpt>
      <trkpt lat="43.51576" lon="5.28954">
        <ele>162.1</ele>
        <time>2024-03-20T13:27:31.000Z</time>
      </trkpt>
      <trkpt lat="43.51576" lon="5.28951">
        <ele>162.2</ele>
        <time>2024-03-20T13:27:33.000Z</time>
      </trkpt>
      <trkpt lat="43.51577" lon="5.28947">
        <ele>162.1</ele>
        <time>2024-03-20T13:27:35.000Z</time>
      </trkpt>
      <trkpt lat="43.51577" lon="5.28943">
        <ele>162</ele>
        <time>2024-03-20T13:27:38.000Z</time>
      </trkpt>
      <trkpt lat="43.51576" lon="5.2894">
        <ele>162.1</ele>
        <time>2024-03-20T13:27:40.000Z</time>
      </trkpt>
      <trkpt lat="43.51576" lon="5.28937">
        <ele>161.9</ele>
        <time>2024-03-20T13:27:42.000Z</time>
      </trkpt>
      <trkpt lat="43.51575" lon="5.28935">
        <ele>162.2</ele>
        <time>2024-03-20T13:27:44.000Z</time>
      </trkpt>
      <trkpt lat="43.51574" lon="5.2893">
        <ele>162.1</ele>
        <time>2024-03-20T13:27:46.000Z</time>
      </trkpt>
      <trkpt lat="43.51574" lon="5.28927">
        <ele>162</ele>
        <time>2024-03-20T13:27:49.000Z</time>
      </trkpt>
      <trkpt lat="43.51574" lon="5.28923">
        <ele>161.7</ele>
        <time>2024-03-20T13:27:52.000Z</time>
      </trkpt>
      <trkpt lat="43.51574" lon="5.2892">
        <ele>161.7</ele>
        <time>2024-03-20T13:27:55.000Z</time>
      </trkpt>
      <trkpt lat="43.51574" lon="5.28917">
        <ele>161.5</ele>
        <time>2024-03-20T13:27:57.000Z</time>
      </trkpt>
      <trkpt lat="43.51574" lon="5.28913">
        <ele>161.4</ele>
        <time>2024-03-20T13:27:59.000Z</time>
      </trkpt>
      <trkpt lat="43.51574" lon="5.2891">
        <ele>161.2</ele>
        <time>2024-03-20T13:28:01.000Z</time>
      </trkpt>
      <trkpt lat="43.51574" lon="5.28906">
        <ele>161</ele>
        <time>2024-03-20T13:28:03.000Z</time>
      </trkpt>
      <trkpt lat="43.51574" lon="5.28902">
        <ele>160.6</ele>
        <time>2024-03-20T13:28:05.000Z</time>
      </trkpt>
      <trkpt lat="43.51574" lon="5.28899">
        <ele>160.4</ele>
        <time>2024-03-20T13:28:07.000Z</time>
      </trkpt>
      <trkpt lat="43.51574" lon="5.28896">
        <ele>160.5</ele>
        <time>2024-03-20T13:28:09.000Z</time>
      </trkpt>
      <trkpt lat="43.51573" lon="5.28893">
        <ele>160.7</ele>
        <time>2024-03-20T13:28:11.000Z</time>
      </trkpt>
      <trkpt lat="43.51572" lon="5.28888">
        <ele>160.4</ele>
        <time>2024-03-20T13:28:15.000Z</time>
      </trkpt>
      <trkpt lat="43.51571" lon="5.28884">
        <ele>160.2</ele>
        <time>2024-03-20T13:28:17.000Z</time>
      </trkpt>
      <trkpt lat="43.51571" lon="5.28881">
        <ele>160</ele>
        <time>2024-03-20T13:28:19.000Z</time>
      </trkpt>
      <trkpt lat="43.51569" lon="5.28877">
        <ele>160</ele>
        <time>2024-03-20T13:28:21.000Z</time>
      </trkpt>
      <trkpt lat="43.51568" lon="5.28875">
        <ele>159.9</ele>
        <time>2024-03-20T13:28:23.000Z</time>
      </trkpt>
      <trkpt lat="43.51566" lon="5.28871">
        <ele>159.9</ele>
        <time>2024-03-20T13:28:25.000Z</time>
      </trkpt>
      <trkpt lat="43.51564" lon="5.28866">
        <ele>159.7</ele>
        <time>2024-03-20T13:28:28.000Z</time>
      </trkpt>
      <trkpt lat="43.51563" lon="5.28864">
        <ele>159.5</ele>
        <time>2024-03-20T13:28:30.000Z</time>
      </trkpt>
      <trkpt lat="43.51562" lon="5.28861">
        <ele>159.3</ele>
        <time>2024-03-20T13:28:32.000Z</time>
      </trkpt>
      <trkpt lat="43.51561" lon="5.28859">
        <ele>159.2</ele>
        <time>2024-03-20T13:28:34.000Z</time>
      </trkpt>
      <trkpt lat="43.51559" lon="5.28856">
        <ele>159.1</ele>
        <time>2024-03-20T13:28:37.000Z</time>
      </trkpt>
      <trkpt lat="43.51558" lon="5.28854">
        <ele>159.1</ele>
        <time>2024-03-20T13:28:39.000Z</time>
      </trkpt>
      <trkpt lat="43.51556" lon="5.28851">
        <ele>159.2</ele>
        <time>2024-03-20T13:28:42.000Z</time>
      </trkpt>
      <trkpt lat="43.51554" lon="5.28848">
        <ele>159.2</ele>
        <time>2024-03-20T13:28:44.000Z</time>
      </trkpt>
      <trkpt lat="43.51552" lon="5.28846">
        <ele>159.5</ele>
        <time>2024-03-20T13:28:47.000Z</time>
      </trkpt>
      <trkpt lat="43.51551" lon="5.28844">
        <ele>159.8</ele>
        <time>2024-03-20T13:28:49.000Z</time>
      </trkpt>
      <trkpt lat="43.51549" lon="5.28841">
        <ele>160.1</ele>
        <time>2024-03-20T13:28:51.000Z</time>
      </trkpt>
      <trkpt lat="43.51547" lon="5.28838">
        <ele>160.2</ele>
        <time>2024-03-20T13:28:54.000Z</time>
      </trkpt>
      <trkpt lat="43.51545" lon="5.28835">
        <ele>160.2</ele>
        <time>2024-03-20T13:28:56.000Z</time>
      </trkpt>
      <trkpt lat="43.51544" lon="5.28832">
        <ele>159.9</ele>
        <time>2024-03-20T13:28:58.000Z</time>
      </trkpt>
      <trkpt lat="43.51543" lon="5.2883">
        <ele>160.1</ele>
        <time>2024-03-20T13:29:00.000Z</time>
      </trkpt>
      <trkpt lat="43.51541" lon="5.28828">
        <ele>160.3</ele>
        <time>2024-03-20T13:29:03.000Z</time>
      </trkpt>
      <trkpt lat="43.5154" lon="5.28825">
        <ele>160.4</ele>
        <time>2024-03-20T13:29:05.000Z</time>
      </trkpt>
      <trkpt lat="43.51539" lon="5.28822">
        <ele>160.3</ele>
        <time>2024-03-20T13:29:08.000Z</time>
      </trkpt>
      <trkpt lat="43.51538" lon="5.2882">
        <ele>160.3</ele>
        <time>2024-03-20T13:29:10.000Z</time>
      </trkpt>
      <trkpt lat="43.51537" lon="5.28817">
        <ele>160.2</ele>
        <time>2024-03-20T13:29:12.000Z</time>
      </trkpt>
      <trkpt lat="43.51536" lon="5.28814">
        <ele>160.2</ele>
        <time>2024-03-20T13:29:14.000Z</time>
      </trkpt>
      <trkpt lat="43.51534" lon="5.28812">
        <ele>160.3</ele>
        <time>2024-03-20T13:29:16.000Z</time>
      </trkpt>
      <trkpt lat="43.51533" lon="5.2881">
        <ele>160.2</ele>
        <time>2024-03-20T13:29:18.000Z</time>
      </trkpt>
      <trkpt lat="43.51532" lon="5.28808">
        <ele>160.2</ele>
        <time>2024-03-20T13:29:20.000Z</time>
      </trkpt>
      <trkpt lat="43.51531" lon="5.28804">
        <ele>160</ele>
        <time>2024-03-20T13:29:22.000Z</time>
      </trkpt>
      <trkpt lat="43.5153" lon="5.28802">
        <ele>160.1</ele>
        <time>2024-03-20T13:29:24.000Z</time>
      </trkpt>
      <trkpt lat="43.51529" lon="5.28799">
        <ele>160.3</ele>
        <time>2024-03-20T13:29:26.000Z</time>
      </trkpt>
      <trkpt lat="43.51527" lon="5.28796">
        <ele>160.7</ele>
        <time>2024-03-20T13:29:29.000Z</time>
      </trkpt>
      <trkpt lat="43.51525" lon="5.28796">
        <ele>161.3</ele>
        <time>2024-03-20T13:29:31.000Z</time>
      </trkpt>
      <trkpt lat="43.51523" lon="5.28793">
        <ele>161.7</ele>
        <time>2024-03-20T13:29:35.000Z</time>
      </trkpt>
      <trkpt lat="43.51522" lon="5.28791">
        <ele>162</ele>
        <time>2024-03-20T13:29:37.000Z</time>
      </trkpt>
      <trkpt lat="43.5152" lon="5.28788">
        <ele>162.1</ele>
        <time>2024-03-20T13:29:39.000Z</time>
      </trkpt>
      <trkpt lat="43.51519" lon="5.28786">
        <ele>162.5</ele>
        <time>2024-03-20T13:29:41.000Z</time>
      </trkpt>
      <trkpt lat="43.51517" lon="5.28784">
        <ele>162.5</ele>
        <time>2024-03-20T13:29:43.000Z</time>
      </trkpt>
      <trkpt lat="43.51515" lon="5.28781">
        <ele>162.6</ele>
        <time>2024-03-20T13:29:46.000Z</time>
      </trkpt>
      <trkpt lat="43.51514" lon="5.28779">
        <ele>162.7</ele>
        <time>2024-03-20T13:29:48.000Z</time>
      </trkpt>
      <trkpt lat="43.51512" lon="5.28777">
        <ele>163</ele>
        <time>2024-03-20T13:29:50.000Z</time>
      </trkpt>
      <trkpt lat="43.51511" lon="5.28775">
        <ele>163.4</ele>
        <time>2024-03-20T13:29:52.000Z</time>
      </trkpt>
      <trkpt lat="43.51509" lon="5.28772">
        <ele>163.8</ele>
        <time>2024-03-20T13:29:55.000Z</time>
      </trkpt>
      <trkpt lat="43.51508" lon="5.28769">
        <ele>163.9</ele>
        <time>2024-03-20T13:29:58.000Z</time>
      </trkpt>
      <trkpt lat="43.51508" lon="5.28767">
        <ele>164</ele>
        <time>2024-03-20T13:30:00.000Z</time>
      </trkpt>
      <trkpt lat="43.51507" lon="5.28764">
        <ele>164.1</ele>
        <time>2024-03-20T13:30:02.000Z</time>
      </trkpt>
      <trkpt lat="43.51507" lon="5.28762">
        <ele>164.1</ele>
        <time>2024-03-20T13:30:04.000Z</time>
      </trkpt>
      <trkpt lat="43.51506" lon="5.28758">
        <ele>164.1</ele>
        <time>2024-03-20T13:30:07.000Z</time>
      </trkpt>
      <trkpt lat="43.51506" lon="5.28755">
        <ele>164.1</ele>
        <time>2024-03-20T13:30:10.000Z</time>
      </trkpt>
      <trkpt lat="43.51507" lon="5.28752">
        <ele>164</ele>
        <time>2024-03-20T13:30:13.000Z</time>
      </trkpt>
      <trkpt lat="43.51509" lon="5.28752">
        <ele>164</ele>
        <time>2024-03-20T13:30:18.000Z</time>
      </trkpt>
      <trkpt lat="43.51512" lon="5.28752">
        <ele>163.9</ele>
        <time>2024-03-20T13:30:21.000Z</time>
      </trkpt>
      <trkpt lat="43.51513" lon="5.28752">
        <ele>163.9</ele>
        <time>2024-03-20T13:30:23.000Z</time>
      </trkpt>
      <trkpt lat="43.51515" lon="5.28753">
        <ele>163.8</ele>
        <time>2024-03-20T13:30:26.000Z</time>
      </trkpt>
      <trkpt lat="43.51517" lon="5.28756">
        <ele>163.5</ele>
        <time>2024-03-20T13:30:29.000Z</time>
      </trkpt>
      <trkpt lat="43.51519" lon="5.28758">
        <ele>163.2</ele>
        <time>2024-03-20T13:30:31.000Z</time>
      </trkpt>
      <trkpt lat="43.51522" lon="5.28758">
        <ele>163</ele>
        <time>2024-03-20T13:30:33.000Z</time>
      </trkpt>
      <trkpt lat="43.51524" lon="5.28757">
        <ele>163</ele>
        <time>2024-03-20T13:30:35.000Z</time>
      </trkpt>
      <trkpt lat="43.51526" lon="5.28757">
        <ele>162.9</ele>
        <time>2024-03-20T13:30:37.000Z</time>
      </trkpt>
      <trkpt lat="43.51528" lon="5.28756">
        <ele>162.9</ele>
        <time>2024-03-20T13:30:39.000Z</time>
      </trkpt>
      <trkpt lat="43.5153" lon="5.28756">
        <ele>162.7</ele>
        <time>2024-03-20T13:30:41.000Z</time>
      </trkpt>
      <trkpt lat="43.51533" lon="5.28756">
        <ele>162.6</ele>
        <time>2024-03-20T13:30:43.000Z</time>
      </trkpt>
      <trkpt lat="43.51536" lon="5.28756">
        <ele>162.5</ele>
        <time>2024-03-20T13:30:45.000Z</time>
      </trkpt>
      <trkpt lat="43.51538" lon="5.28756">
        <ele>162.4</ele>
        <time>2024-03-20T13:30:47.000Z</time>
      </trkpt>
      <trkpt lat="43.51541" lon="5.28756">
        <ele>162.3</ele>
        <time>2024-03-20T13:30:49.000Z</time>
      </trkpt>
      <trkpt lat="43.51543" lon="5.28755">
        <ele>162.3</ele>
        <time>2024-03-20T13:30:51.000Z</time>
      </trkpt>
      <trkpt lat="43.51545" lon="5.28754">
        <ele>162.6</ele>
        <time>2024-03-20T13:30:53.000Z</time>
      </trkpt>
      <trkpt lat="43.51549" lon="5.28753">
        <ele>162.5</ele>
        <time>2024-03-20T13:30:56.000Z</time>
      </trkpt>
      <trkpt lat="43.51551" lon="5.28753">
        <ele>162.5</ele>
        <time>2024-03-20T13:30:58.000Z</time>
      </trkpt>
      <trkpt lat="43.51553" lon="5.28753">
        <ele>162.4</ele>
        <time>2024-03-20T13:31:00.000Z</time>
      </trkpt>
      <trkpt lat="43.51555" lon="5.28752">
        <ele>162.5</ele>
        <time>2024-03-20T13:31:02.000Z</time>
      </trkpt>
      <trkpt lat="43.51559" lon="5.28751">
        <ele>162.6</ele>
        <time>2024-03-20T13:31:05.000Z</time>
      </trkpt>
      <trkpt lat="43.5156" lon="5.28751">
        <ele>162.7</ele>
        <time>2024-03-20T13:31:07.000Z</time>
      </trkpt>
      <trkpt lat="43.51563" lon="5.2875">
        <ele>162.9</ele>
        <time>2024-03-20T13:31:09.000Z</time>
      </trkpt>
      <trkpt lat="43.51565" lon="5.2875">
        <ele>162.8</ele>
        <time>2024-03-20T13:31:11.000Z</time>
      </trkpt>
      <trkpt lat="43.51567" lon="5.28748">
        <ele>163</ele>
        <time>2024-03-20T13:31:13.000Z</time>
      </trkpt>
      <trkpt lat="43.5157" lon="5.28747">
        <ele>163</ele>
        <time>2024-03-20T13:31:15.000Z</time>
      </trkpt>
      <trkpt lat="43.51572" lon="5.28748">
        <ele>162.8</ele>
        <time>2024-03-20T13:31:17.000Z</time>
      </trkpt>
      <trkpt lat="43.51574" lon="5.28747">
        <ele>162.9</ele>
        <time>2024-03-20T13:31:19.000Z</time>
      </trkpt>
      <trkpt lat="43.51577" lon="5.28746">
        <ele>162.8</ele>
        <time>2024-03-20T13:31:21.000Z</time>
      </trkpt>
      <trkpt lat="43.51579" lon="5.28745">
        <ele>162.9</ele>
        <time>2024-03-20T13:31:23.000Z</time>
      </trkpt>
      <trkpt lat="43.5158" lon="5.28744">
        <ele>162.9</ele>
        <time>2024-03-20T13:31:25.000Z</time>
      </trkpt>
      <trkpt lat="43.51583" lon="5.28742">
        <ele>162.9</ele>
        <time>2024-03-20T13:31:28.000Z</time>
      </trkpt>
      <trkpt lat="43.51585" lon="5.2874">
        <ele>163</ele>
        <time>2024-03-20T13:31:31.000Z</time>
      </trkpt>
      <trkpt lat="43.51587" lon="5.28737">
        <ele>163.1</ele>
        <time>2024-03-20T13:31:33.000Z</time>
      </trkpt>
      <trkpt lat="43.51589" lon="5.28735">
        <ele>163.2</ele>
        <time>2024-03-20T13:31:35.000Z</time>
      </trkpt>
      <trkpt lat="43.51591" lon="5.28732">
        <ele>163.3</ele>
        <time>2024-03-20T13:31:37.000Z</time>
      </trkpt>
      <trkpt lat="43.51592" lon="5.28729">
        <ele>163.4</ele>
        <time>2024-03-20T13:31:39.000Z</time>
      </trkpt>
      <trkpt lat="43.51593" lon="5.28727">
        <ele>163.5</ele>
        <time>2024-03-20T13:31:41.000Z</time>
      </trkpt>
      <trkpt lat="43.51594" lon="5.28724">
        <ele>163.7</ele>
        <time>2024-03-20T13:31:43.000Z</time>
      </trkpt>
      <trkpt lat="43.51595" lon="5.28721">
        <ele>163.8</ele>
        <time>2024-03-20T13:31:45.000Z</time>
      </trkpt>
      <trkpt lat="43.51597" lon="5.28718">
        <ele>163.9</ele>
        <time>2024-03-20T13:31:47.000Z</time>
      </trkpt>
      <trkpt lat="43.51597" lon="5.28714">
        <ele>164.1</ele>
        <time>2024-03-20T13:31:49.000Z</time>
      </trkpt>
      <trkpt lat="43.51597" lon="5.28712">
        <ele>164.3</ele>
        <time>2024-03-20T13:31:51.000Z</time>
      </trkpt>
      <trkpt lat="43.51597" lon="5.28708">
        <ele>164.5</ele>
        <time>2024-03-20T13:31:53.000Z</time>
      </trkpt>
      <trkpt lat="43.51598" lon="5.28703">
        <ele>164.7</ele>
        <time>2024-03-20T13:31:56.000Z</time>
      </trkpt>
      <trkpt lat="43.51598" lon="5.287">
        <ele>164.9</ele>
        <time>2024-03-20T13:31:58.000Z</time>
      </trkpt>
      <trkpt lat="43.51599" lon="5.28697">
        <ele>165</ele>
        <time>2024-03-20T13:32:00.000Z</time>
      </trkpt>
      <trkpt lat="43.51599" lon="5.28693">
        <ele>165</ele>
        <time>2024-03-20T13:32:03.000Z</time>
      </trkpt>
      <trkpt lat="43.516" lon="5.2869">
        <ele>164.5</ele>
        <time>2024-03-20T13:32:05.000Z</time>
      </trkpt>
      <trkpt lat="43.516" lon="5.28687">
        <ele>164.2</ele>
        <time>2024-03-20T13:32:07.000Z</time>
      </trkpt>
      <trkpt lat="43.516" lon="5.28683">
        <ele>164</ele>
        <time>2024-03-20T13:32:09.000Z</time>
      </trkpt>
      <trkpt lat="43.516" lon="5.2868">
        <ele>163.8</ele>
        <time>2024-03-20T13:32:11.000Z</time>
      </trkpt>
      <trkpt lat="43.516" lon="5.28677">
        <ele>163.7</ele>
        <time>2024-03-20T13:32:13.000Z</time>
      </trkpt>
      <trkpt lat="43.516" lon="5.28673">
        <ele>163.4</ele>
        <time>2024-03-20T13:32:15.000Z</time>
      </trkpt>
      <trkpt lat="43.516" lon="5.2867">
        <ele>163.3</ele>
        <time>2024-03-20T13:32:17.000Z</time>
      </trkpt>
      <trkpt lat="43.516" lon="5.28667">
        <ele>163</ele>
        <time>2024-03-20T13:32:19.000Z</time>
      </trkpt>
      <trkpt lat="43.516" lon="5.28663">
        <ele>163.3</ele>
        <time>2024-03-20T13:32:21.000Z</time>
      </trkpt>
      <trkpt lat="43.51601" lon="5.2866">
        <ele>163.5</ele>
        <time>2024-03-20T13:32:23.000Z</time>
      </trkpt>
      <trkpt lat="43.51601" lon="5.28658">
        <ele>163.7</ele>
        <time>2024-03-20T13:32:25.000Z</time>
      </trkpt>
      <trkpt lat="43.51601" lon="5.28655">
        <ele>163.9</ele>
        <time>2024-03-20T13:32:27.000Z</time>
      </trkpt>
      <trkpt lat="43.51601" lon="5.28651">
        <ele>164.3</ele>
        <time>2024-03-20T13:32:29.000Z</time>
      </trkpt>
      <trkpt lat="43.51603" lon="5.28648">
        <ele>164.1</ele>
        <time>2024-03-20T13:32:31.000Z</time>
      </trkpt>
      <trkpt lat="43.51604" lon="5.28643">
        <ele>164.1</ele>
        <time>2024-03-20T13:32:34.000Z</time>
      </trkpt>
      <trkpt lat="43.51605" lon="5.28641">
        <ele>164</ele>
        <time>2024-03-20T13:32:36.000Z</time>
      </trkpt>
      <trkpt lat="43.51606" lon="5.28638">
        <ele>163.7</ele>
        <time>2024-03-20T13:32:38.000Z</time>
      </trkpt>
      <trkpt lat="43.51607" lon="5.28635">
        <ele>163.5</ele>
        <time>2024-03-20T13:32:40.000Z</time>
      </trkpt>
      <trkpt lat="43.51608" lon="5.28632">
        <ele>163.1</ele>
        <time>2024-03-20T13:32:42.000Z</time>
      </trkpt>
      <trkpt lat="43.51608" lon="5.28629">
        <ele>163.1</ele>
        <time>2024-03-20T13:32:44.000Z</time>
      </trkpt>
      <trkpt lat="43.51608" lon="5.28624">
        <ele>163.1</ele>
        <time>2024-03-20T13:32:46.000Z</time>
      </trkpt>
      <trkpt lat="43.51608" lon="5.28621">
        <ele>163.2</ele>
        <time>2024-03-20T13:32:48.000Z</time>
      </trkpt>
      <trkpt lat="43.51608" lon="5.28616">
        <ele>163.1</ele>
        <time>2024-03-20T13:32:50.000Z</time>
      </trkpt>
      <trkpt lat="43.51608" lon="5.28613">
        <ele>163.3</ele>
        <time>2024-03-20T13:32:52.000Z</time>
      </trkpt>
      <trkpt lat="43.51607" lon="5.28609">
        <ele>163.5</ele>
        <time>2024-03-20T13:32:55.000Z</time>
      </trkpt>
      <trkpt lat="43.51607" lon="5.28606">
        <ele>163.4</ele>
        <time>2024-03-20T13:32:57.000Z</time>
      </trkpt>
      <trkpt lat="43.51607" lon="5.28603">
        <ele>163.3</ele>
        <time>2024-03-20T13:32:59.000Z</time>
      </trkpt>
      <trkpt lat="43.51606" lon="5.286">
        <ele>163.5</ele>
        <time>2024-03-20T13:33:01.000Z</time>
      </trkpt>
      <trkpt lat="43.51605" lon="5.28596">
        <ele>163.5</ele>
        <time>2024-03-20T13:33:04.000Z</time>
      </trkpt>
      <trkpt lat="43.51605" lon="5.28593">
        <ele>163.4</ele>
        <time>2024-03-20T13:33:06.000Z</time>
      </trkpt>
      <trkpt lat="43.51603" lon="5.28589">
        <ele>163.9</ele>
        <time>2024-03-20T13:33:08.000Z</time>
      </trkpt>
      <trkpt lat="43.51603" lon="5.28586">
        <ele>164.1</ele>
        <time>2024-03-20T13:33:10.000Z</time>
      </trkpt>
      <trkpt lat="43.51602" lon="5.28583">
        <ele>164.2</ele>
        <time>2024-03-20T13:33:12.000Z</time>
      </trkpt>
      <trkpt lat="43.51602" lon="5.28579">
        <ele>164.3</ele>
        <time>2024-03-20T13:33:14.000Z</time>
      </trkpt>
      <trkpt lat="43.51601" lon="5.28576">
        <ele>164.4</ele>
        <time>2024-03-20T13:33:16.000Z</time>
      </trkpt>
      <trkpt lat="43.51601" lon="5.28573">
        <ele>164.5</ele>
        <time>2024-03-20T13:33:18.000Z</time>
      </trkpt>
      <trkpt lat="43.51601" lon="5.28569">
        <ele>164.5</ele>
        <time>2024-03-20T13:33:20.000Z</time>
      </trkpt>
      <trkpt lat="43.516" lon="5.28566">
        <ele>164.6</ele>
        <time>2024-03-20T13:33:22.000Z</time>
      </trkpt>
      <trkpt lat="43.516" lon="5.28563">
        <ele>164.8</ele>
        <time>2024-03-20T13:33:25.000Z</time>
      </trkpt>
      <trkpt lat="43.51599" lon="5.28561">
        <ele>164.9</ele>
        <time>2024-03-20T13:33:27.000Z</time>
      </trkpt>
      <trkpt lat="43.51599" lon="5.28558">
        <ele>165</ele>
        <time>2024-03-20T13:33:29.000Z</time>
      </trkpt>
      <trkpt lat="43.51598" lon="5.28555">
        <ele>165.1</ele>
        <time>2024-03-20T13:33:31.000Z</time>
      </trkpt>
      <trkpt lat="43.51597" lon="5.28553">
        <ele>165.1</ele>
        <time>2024-03-20T13:33:33.000Z</time>
      </trkpt>
      <trkpt lat="43.51596" lon="5.2855">
        <ele>165.3</ele>
        <time>2024-03-20T13:33:35.000Z</time>
      </trkpt>
      <trkpt lat="43.51595" lon="5.28547">
        <ele>165.3</ele>
        <time>2024-03-20T13:33:38.000Z</time>
      </trkpt>
      <trkpt lat="43.51594" lon="5.28544">
        <ele>165.3</ele>
        <time>2024-03-20T13:33:40.000Z</time>
      </trkpt>
      <trkpt lat="43.51592" lon="5.28542">
        <ele>166</ele>
        <time>2024-03-20T13:33:42.000Z</time>
      </trkpt>
      <trkpt lat="43.5159" lon="5.28541">
        <ele>166.7</ele>
        <time>2024-03-20T13:33:44.000Z</time>
      </trkpt>
      <trkpt lat="43.51588" lon="5.28539">
        <ele>166.9</ele>
        <time>2024-03-20T13:33:46.000Z</time>
      </trkpt>
      <trkpt lat="43.51586" lon="5.28537">
        <ele>167.4</ele>
        <time>2024-03-20T13:33:48.000Z</time>
      </trkpt>
      <trkpt lat="43.51585" lon="5.28536">
        <ele>167.6</ele>
        <time>2024-03-20T13:33:50.000Z</time>
      </trkpt>
      <trkpt lat="43.51584" lon="5.28534">
        <ele>167.8</ele>
        <time>2024-03-20T13:33:52.000Z</time>
      </trkpt>
      <trkpt lat="43.51581" lon="5.28531">
        <ele>168.4</ele>
        <time>2024-03-20T13:33:55.000Z</time>
      </trkpt>
      <trkpt lat="43.5158" lon="5.28528">
        <ele>168.5</ele>
        <time>2024-03-20T13:33:58.000Z</time>
      </trkpt>
      <trkpt lat="43.51579" lon="5.28526">
        <ele>168.8</ele>
        <time>2024-03-20T13:34:01.000Z</time>
      </trkpt>
      <trkpt lat="43.51577" lon="5.28523">
        <ele>169.5</ele>
        <time>2024-03-20T13:34:05.000Z</time>
      </trkpt>
      <trkpt lat="43.51576" lon="5.2852">
        <ele>169.8</ele>
        <time>2024-03-20T13:34:07.000Z</time>
      </trkpt>
      <trkpt lat="43.51574" lon="5.28517">
        <ele>170.2</ele>
        <time>2024-03-20T13:34:10.000Z</time>
      </trkpt>
      <trkpt lat="43.51574" lon="5.28515">
        <ele>170.1</ele>
        <time>2024-03-20T13:34:12.000Z</time>
      </trkpt>
      <trkpt lat="43.51572" lon="5.28512">
        <ele>170.6</ele>
        <time>2024-03-20T13:34:15.000Z</time>
      </trkpt>
      <trkpt lat="43.5157" lon="5.2851">
        <ele>170.8</ele>
        <time>2024-03-20T13:34:18.000Z</time>
      </trkpt>
      <trkpt lat="43.5157" lon="5.28507">
        <ele>170.9</ele>
        <time>2024-03-20T13:34:20.000Z</time>
      </trkpt>
      <trkpt lat="43.51568" lon="5.28506">
        <ele>171.2</ele>
        <time>2024-03-20T13:34:22.000Z</time>
      </trkpt>
      <trkpt lat="43.51567" lon="5.28503">
        <ele>171.4</ele>
        <time>2024-03-20T13:34:25.000Z</time>
      </trkpt>
      <trkpt lat="43.51564" lon="5.285">
        <ele>171.8</ele>
        <time>2024-03-20T13:34:28.000Z</time>
      </trkpt>
      <trkpt lat="43.51563" lon="5.28497">
        <ele>171.6</ele>
        <time>2024-03-20T13:34:30.000Z</time>
      </trkpt>
      <trkpt lat="43.51561" lon="5.28495">
        <ele>171.9</ele>
        <time>2024-03-20T13:34:32.000Z</time>
      </trkpt>
      <trkpt lat="43.51559" lon="5.28493">
        <ele>172.1</ele>
        <time>2024-03-20T13:34:34.000Z</time>
      </trkpt>
      <trkpt lat="43.51556" lon="5.28491">
        <ele>172.3</ele>
        <time>2024-03-20T13:34:36.000Z</time>
      </trkpt>
      <trkpt lat="43.51554" lon="5.2849">
        <ele>172.8</ele>
        <time>2024-03-20T13:34:38.000Z</time>
      </trkpt>
      <trkpt lat="43.51553" lon="5.28487">
        <ele>172.6</ele>
        <time>2024-03-20T13:34:41.000Z</time>
      </trkpt>
      <trkpt lat="43.51551" lon="5.28484">
        <ele>172.5</ele>
        <time>2024-03-20T13:34:43.000Z</time>
      </trkpt>
      <trkpt lat="43.5155" lon="5.28482">
        <ele>172.7</ele>
        <time>2024-03-20T13:34:45.000Z</time>
      </trkpt>
      <trkpt lat="43.51548" lon="5.2848">
        <ele>172.9</ele>
        <time>2024-03-20T13:34:47.000Z</time>
      </trkpt>
      <trkpt lat="43.51547" lon="5.28477">
        <ele>172.7</ele>
        <time>2024-03-20T13:34:50.000Z</time>
      </trkpt>
      <trkpt lat="43.51545" lon="5.28475">
        <ele>173</ele>
        <time>2024-03-20T13:34:52.000Z</time>
      </trkpt>
      <trkpt lat="43.51543" lon="5.28473">
        <ele>173.4</ele>
        <time>2024-03-20T13:34:54.000Z</time>
      </trkpt>
      <trkpt lat="43.51542" lon="5.2847">
        <ele>173.7</ele>
        <time>2024-03-20T13:34:56.000Z</time>
      </trkpt>
      <trkpt lat="43.5154" lon="5.28467">
        <ele>174.3</ele>
        <time>2024-03-20T13:34:58.000Z</time>
      </trkpt>
      <trkpt lat="43.51539" lon="5.28465">
        <ele>174.3</ele>
        <time>2024-03-20T13:35:00.000Z</time>
      </trkpt>
      <trkpt lat="43.51537" lon="5.28462">
        <ele>174.5</ele>
        <time>2024-03-20T13:35:02.000Z</time>
      </trkpt>
      <trkpt lat="43.51536" lon="5.28459">
        <ele>174.7</ele>
        <time>2024-03-20T13:35:04.000Z</time>
      </trkpt>
      <trkpt lat="43.51534" lon="5.28456">
        <ele>174.8</ele>
        <time>2024-03-20T13:35:07.000Z</time>
      </trkpt>
      <trkpt lat="43.51533" lon="5.28453">
        <ele>174.6</ele>
        <time>2024-03-20T13:35:09.000Z</time>
      </trkpt>
      <trkpt lat="43.51531" lon="5.28451">
        <ele>174.6</ele>
        <time>2024-03-20T13:35:12.000Z</time>
      </trkpt>
      <trkpt lat="43.5153" lon="5.28448">
        <ele>174.4</ele>
        <time>2024-03-20T13:35:14.000Z</time>
      </trkpt>
      <trkpt lat="43.51528" lon="5.28446">
        <ele>174.1</ele>
        <time>2024-03-20T13:35:16.000Z</time>
      </trkpt>
      <trkpt lat="43.51528" lon="5.28443">
        <ele>173.6</ele>
        <time>2024-03-20T13:35:18.000Z</time>
      </trkpt>
      <trkpt lat="43.51527" lon="5.28439">
        <ele>173.1</ele>
        <time>2024-03-20T13:35:20.000Z</time>
      </trkpt>
      <trkpt lat="43.51525" lon="5.28438">
        <ele>173.1</ele>
        <time>2024-03-20T13:35:22.000Z</time>
      </trkpt>
      <trkpt lat="43.51524" lon="5.28436">
        <ele>173.2</ele>
        <time>2024-03-20T13:35:24.000Z</time>
      </trkpt>
      <trkpt lat="43.51523" lon="5.28433">
        <ele>172.9</ele>
        <time>2024-03-20T13:35:27.000Z</time>
      </trkpt>
      <trkpt lat="43.51521" lon="5.2843">
        <ele>172.5</ele>
        <time>2024-03-20T13:35:31.000Z</time>
      </trkpt>
      <trkpt lat="43.51519" lon="5.2843">
        <ele>173</ele>
        <time>2024-03-20T13:35:59.000Z</time>
      </trkpt>
      <trkpt lat="43.51518" lon="5.28428">
        <ele>172.7</ele>
        <time>2024-03-20T13:36:02.000Z</time>
      </trkpt>
      <trkpt lat="43.51517" lon="5.28425">
        <ele>172.1</ele>
        <time>2024-03-20T13:36:05.000Z</time>
      </trkpt>
      <trkpt lat="43.51516" lon="5.28424">
        <ele>171.9</ele>
        <time>2024-03-20T13:36:07.000Z</time>
      </trkpt>
      <trkpt lat="43.51518" lon="5.28426">
        <ele>172.2</ele>
        <time>2024-03-20T13:36:52.000Z</time>
      </trkpt>
      <trkpt lat="43.51517" lon="5.28429">
        <ele>173.1</ele>
        <time>2024-03-20T13:36:57.000Z</time>
      </trkpt>
      <trkpt lat="43.51516" lon="5.28432">
        <ele>174.2</ele>
        <time>2024-03-20T13:37:09.000Z</time>
      </trkpt>
      <trkpt lat="43.51515" lon="5.28431">
        <ele>174.2</ele>
        <time>2024-03-20T13:37:54.000Z</time>
      </trkpt>
      <trkpt lat="43.51512" lon="5.28431">
        <ele>174.6</ele>
        <time>2024-03-20T13:37:59.000Z</time>
      </trkpt>
      <trkpt lat="43.5151" lon="5.2843">
        <ele>175.1</ele>
        <time>2024-03-20T13:38:08.000Z</time>
      </trkpt>
      <trkpt lat="43.51508" lon="5.28429">
        <ele>175</ele>
        <time>2024-03-20T13:38:11.000Z</time>
      </trkpt>
      <trkpt lat="43.51507" lon="5.28426">
        <ele>174.6</ele>
        <time>2024-03-20T13:38:13.000Z</time>
      </trkpt>
      <trkpt lat="43.51505" lon="5.28425">
        <ele>174.6</ele>
        <time>2024-03-20T13:38:15.000Z</time>
      </trkpt>
      <trkpt lat="43.51503" lon="5.28423">
        <ele>174.5</ele>
        <time>2024-03-20T13:38:17.000Z</time>
      </trkpt>
      <trkpt lat="43.515" lon="5.28421">
        <ele>174.5</ele>
        <time>2024-03-20T13:38:19.000Z</time>
      </trkpt>
      <trkpt lat="43.51498" lon="5.2842">
        <ele>174.4</ele>
        <time>2024-03-20T13:38:21.000Z</time>
      </trkpt>
      <trkpt lat="43.51495" lon="5.28419">
        <ele>174.1</ele>
        <time>2024-03-20T13:38:23.000Z</time>
      </trkpt>
      <trkpt lat="43.51493" lon="5.28419">
        <ele>174.2</ele>
        <time>2024-03-20T13:38:25.000Z</time>
      </trkpt>
      <trkpt lat="43.51491" lon="5.28418">
        <ele>174.1</ele>
        <time>2024-03-20T13:38:27.000Z</time>
      </trkpt>
      <trkpt lat="43.51489" lon="5.28417">
        <ele>174</ele>
        <time>2024-03-20T13:38:29.000Z</time>
      </trkpt>
      <trkpt lat="43.51487" lon="5.28417">
        <ele>174.2</ele>
        <time>2024-03-20T13:38:31.000Z</time>
      </trkpt>
      <trkpt lat="43.51484" lon="5.28416">
        <ele>174.1</ele>
        <time>2024-03-20T13:38:33.000Z</time>
      </trkpt>
      <trkpt lat="43.51482" lon="5.28415">
        <ele>173.9</ele>
        <time>2024-03-20T13:38:35.000Z</time>
      </trkpt>
      <trkpt lat="43.5148" lon="5.28415">
        <ele>173.8</ele>
        <time>2024-03-20T13:38:37.000Z</time>
      </trkpt>
      <trkpt lat="43.51477" lon="5.28415">
        <ele>174</ele>
        <time>2024-03-20T13:38:39.000Z</time>
      </trkpt>
      <trkpt lat="43.51475" lon="5.28415">
        <ele>174.2</ele>
        <time>2024-03-20T13:38:41.000Z</time>
      </trkpt>
      <trkpt lat="43.51472" lon="5.28414">
        <ele>174.1</ele>
        <time>2024-03-20T13:38:44.000Z</time>
      </trkpt>
      <trkpt lat="43.5147" lon="5.28414">
        <ele>174.1</ele>
        <time>2024-03-20T13:38:46.000Z</time>
      </trkpt>
      <trkpt lat="43.51468" lon="5.28413">
        <ele>173.9</ele>
        <time>2024-03-20T13:38:48.000Z</time>
      </trkpt>
      <trkpt lat="43.51466" lon="5.28412">
        <ele>173.7</ele>
        <time>2024-03-20T13:38:50.000Z</time>
      </trkpt>
      <trkpt lat="43.51464" lon="5.28411">
        <ele>173.4</ele>
        <time>2024-03-20T13:38:52.000Z</time>
      </trkpt>
      <trkpt lat="43.51461" lon="5.28411">
        <ele>173.6</ele>
        <time>2024-03-20T13:38:56.000Z</time>
      </trkpt>
      <trkpt lat="43.51458" lon="5.2841">
        <ele>173.5</ele>
        <time>2024-03-20T13:38:58.000Z</time>
      </trkpt>
      <trkpt lat="43.51456" lon="5.28409">
        <ele>173.2</ele>
        <time>2024-03-20T13:39:03.000Z</time>
      </trkpt>
      <trkpt lat="43.51454" lon="5.28409">
        <ele>173</ele>
        <time>2024-03-20T13:39:05.000Z</time>
      </trkpt>
      <trkpt lat="43.51451" lon="5.28409">
        <ele>173.3</ele>
        <time>2024-03-20T13:39:08.000Z</time>
      </trkpt>
      <trkpt lat="43.51449" lon="5.28408">
        <ele>173.1</ele>
        <time>2024-03-20T13:39:11.000Z</time>
      </trkpt>
      <trkpt lat="43.51447" lon="5.28406">
        <ele>172.5</ele>
        <time>2024-03-20T13:39:13.000Z</time>
      </trkpt>
      <trkpt lat="43.51444" lon="5.28406">
        <ele>172.6</ele>
        <time>2024-03-20T13:39:15.000Z</time>
      </trkpt>
      <trkpt lat="43.51442" lon="5.28405">
        <ele>172.4</ele>
        <time>2024-03-20T13:39:17.000Z</time>
      </trkpt>
      <trkpt lat="43.5144" lon="5.28404">
        <ele>172.1</ele>
        <time>2024-03-20T13:39:19.000Z</time>
      </trkpt>
      <trkpt lat="43.51436" lon="5.28404">
        <ele>172</ele>
        <time>2024-03-20T13:39:22.000Z</time>
      </trkpt>
      <trkpt lat="43.51433" lon="5.28404">
        <ele>172.1</ele>
        <time>2024-03-20T13:39:24.000Z</time>
      </trkpt>
      <trkpt lat="43.51431" lon="5.28404">
        <ele>172.2</ele>
        <time>2024-03-20T13:39:26.000Z</time>
      </trkpt>
      <trkpt lat="43.51429" lon="5.28404">
        <ele>172.2</ele>
        <time>2024-03-20T13:39:28.000Z</time>
      </trkpt>
      <trkpt lat="43.51427" lon="5.28404">
        <ele>172.1</ele>
        <time>2024-03-20T13:39:30.000Z</time>
      </trkpt>
      <trkpt lat="43.51424" lon="5.28404">
        <ele>172.3</ele>
        <time>2024-03-20T13:39:32.000Z</time>
      </trkpt>
      <trkpt lat="43.51421" lon="5.28404">
        <ele>172.3</ele>
        <time>2024-03-20T13:39:35.000Z</time>
      </trkpt>
      <trkpt lat="43.51419" lon="5.28404">
        <ele>172.4</ele>
        <time>2024-03-20T13:39:37.000Z</time>
      </trkpt>
      <trkpt lat="43.51417" lon="5.28404">
        <ele>172.5</ele>
        <time>2024-03-20T13:39:39.000Z</time>
      </trkpt>
      <trkpt lat="43.51415" lon="5.28405">
        <ele>172.7</ele>
        <time>2024-03-20T13:39:41.000Z</time>
      </trkpt>
      <trkpt lat="43.51412" lon="5.28404">
        <ele>172.6</ele>
        <time>2024-03-20T13:39:44.000Z</time>
      </trkpt>
      <trkpt lat="43.5141" lon="5.28404">
        <ele>172.8</ele>
        <time>2024-03-20T13:39:46.000Z</time>
      </trkpt>
      <trkpt lat="43.51408" lon="5.28404">
        <ele>172.9</ele>
        <time>2024-03-20T13:39:48.000Z</time>
      </trkpt>
      <trkpt lat="43.51406" lon="5.28405">
        <ele>173.2</ele>
        <time>2024-03-20T13:39:50.000Z</time>
      </trkpt>
      <trkpt lat="43.51404" lon="5.28404">
        <ele>173.1</ele>
        <time>2024-03-20T13:39:52.000Z</time>
      </trkpt>
      <trkpt lat="43.51402" lon="5.28404">
        <ele>173.2</ele>
        <time>2024-03-20T13:39:54.000Z</time>
      </trkpt>
      <trkpt lat="43.514" lon="5.28403">
        <ele>172.9</ele>
        <time>2024-03-20T13:39:56.000Z</time>
      </trkpt>
      <trkpt lat="43.51398" lon="5.28403">
        <ele>173.1</ele>
        <time>2024-03-20T13:39:58.000Z</time>
      </trkpt>
      <trkpt lat="43.51394" lon="5.28402">
        <ele>173</ele>
        <time>2024-03-20T13:40:01.000Z</time>
      </trkpt>
      <trkpt lat="43.51392" lon="5.28402">
        <ele>173</ele>
        <time>2024-03-20T13:40:03.000Z</time>
      </trkpt>
      <trkpt lat="43.51389" lon="5.28401">
        <ele>172.9</ele>
        <time>2024-03-20T13:40:05.000Z</time>
      </trkpt>
      <trkpt lat="43.51387" lon="5.284">
        <ele>172.9</ele>
        <time>2024-03-20T13:40:07.000Z</time>
      </trkpt>
      <trkpt lat="43.51385" lon="5.284">
        <ele>173.1</ele>
        <time>2024-03-20T13:40:12.000Z</time>
      </trkpt>
      <trkpt lat="43.51383" lon="5.284">
        <ele>173.3</ele>
        <time>2024-03-20T13:40:15.000Z</time>
      </trkpt>
      <trkpt lat="43.51381" lon="5.28399">
        <ele>173.2</ele>
        <time>2024-03-20T13:40:17.000Z</time>
      </trkpt>
      <trkpt lat="43.51379" lon="5.28398">
        <ele>173</ele>
        <time>2024-03-20T13:40:20.000Z</time>
      </trkpt>
      <trkpt lat="43.51377" lon="5.28398">
        <ele>173.2</ele>
        <time>2024-03-20T13:40:22.000Z</time>
      </trkpt>
      <trkpt lat="43.51375" lon="5.28399">
        <ele>173.7</ele>
        <time>2024-03-20T13:40:24.000Z</time>
      </trkpt>
      <trkpt lat="43.51371" lon="5.28398">
        <ele>173.9</ele>
        <time>2024-03-20T13:40:27.000Z</time>
      </trkpt>
      <trkpt lat="43.51369" lon="5.28398">
        <ele>174.1</ele>
        <time>2024-03-20T13:40:29.000Z</time>
      </trkpt>
      <trkpt lat="43.51366" lon="5.28398">
        <ele>174.3</ele>
        <time>2024-03-20T13:40:31.000Z</time>
      </trkpt>
      <trkpt lat="43.51364" lon="5.28398">
        <ele>174.5</ele>
        <time>2024-03-20T13:40:33.000Z</time>
      </trkpt>
      <trkpt lat="43.51362" lon="5.28398">
        <ele>175</ele>
        <time>2024-03-20T13:40:34.000Z</time>
      </trkpt>
      <trkpt lat="43.5136" lon="5.284">
        <ele>175.7</ele>
        <time>2024-03-20T13:40:36.000Z</time>
      </trkpt>
      <trkpt lat="43.51357" lon="5.284">
        <ele>175.9</ele>
        <time>2024-03-20T13:40:40.000Z</time>
      </trkpt>
      <trkpt lat="43.51356" lon="5.28399">
        <ele>175.6</ele>
        <time>2024-03-20T13:40:42.000Z</time>
      </trkpt>
      <trkpt lat="43.51353" lon="5.28398">
        <ele>175.7</ele>
        <time>2024-03-20T13:40:44.000Z</time>
      </trkpt>
      <trkpt lat="43.51351" lon="5.28397">
        <ele>175.5</ele>
        <time>2024-03-20T13:40:46.000Z</time>
      </trkpt>
      <trkpt lat="43.51349" lon="5.28397">
        <ele>175.8</ele>
        <time>2024-03-20T13:40:49.000Z</time>
      </trkpt>
      <trkpt lat="43.51346" lon="5.28397">
        <ele>176</ele>
        <time>2024-03-20T13:40:51.000Z</time>
      </trkpt>
      <trkpt lat="43.51344" lon="5.28398">
        <ele>176.3</ele>
        <time>2024-03-20T13:40:53.000Z</time>
      </trkpt>
      <trkpt lat="43.51342" lon="5.28397">
        <ele>176.2</ele>
        <time>2024-03-20T13:40:55.000Z</time>
      </trkpt>
      <trkpt lat="43.5134" lon="5.28396">
        <ele>176.3</ele>
        <time>2024-03-20T13:40:57.000Z</time>
      </trkpt>
      <trkpt lat="43.51338" lon="5.28396">
        <ele>176.4</ele>
        <time>2024-03-20T13:40:59.000Z</time>
      </trkpt>
      <trkpt lat="43.51335" lon="5.28395">
        <ele>176.4</ele>
        <time>2024-03-20T13:41:01.000Z</time>
      </trkpt>
      <trkpt lat="43.51333" lon="5.28395">
        <ele>176.5</ele>
        <time>2024-03-20T13:41:03.000Z</time>
      </trkpt>
      <trkpt lat="43.5133" lon="5.28395">
        <ele>176.8</ele>
        <time>2024-03-20T13:41:06.000Z</time>
      </trkpt>
      <trkpt lat="43.51327" lon="5.28395">
        <ele>177</ele>
        <time>2024-03-20T13:41:08.000Z</time>
      </trkpt>
      <trkpt lat="43.51325" lon="5.28396">
        <ele>177.4</ele>
        <time>2024-03-20T13:41:11.000Z</time>
      </trkpt>
      <trkpt lat="43.51322" lon="5.28395">
        <ele>177.6</ele>
        <time>2024-03-20T13:41:13.000Z</time>
      </trkpt>
      <trkpt lat="43.5132" lon="5.28395">
        <ele>177.6</ele>
        <time>2024-03-20T13:41:15.000Z</time>
      </trkpt>
      <trkpt lat="43.51317" lon="5.28395">
        <ele>177.7</ele>
        <time>2024-03-20T13:41:17.000Z</time>
      </trkpt>
      <trkpt lat="43.51315" lon="5.28394">
        <ele>177.6</ele>
        <time>2024-03-20T13:41:19.000Z</time>
      </trkpt>
      <trkpt lat="43.51313" lon="5.28393">
        <ele>177.5</ele>
        <time>2024-03-20T13:41:22.000Z</time>
      </trkpt>
      <trkpt lat="43.5131" lon="5.28392">
        <ele>177.4</ele>
        <time>2024-03-20T13:41:25.000Z</time>
      </trkpt>
      <trkpt lat="43.51308" lon="5.2839">
        <ele>177.2</ele>
        <time>2024-03-20T13:41:27.000Z</time>
      </trkpt>
      <trkpt lat="43.51306" lon="5.28389">
        <ele>177.1</ele>
        <time>2024-03-20T13:41:29.000Z</time>
      </trkpt>
      <trkpt lat="43.51303" lon="5.28388">
        <ele>177.1</ele>
        <time>2024-03-20T13:41:32.000Z</time>
      </trkpt>
      <trkpt lat="43.513" lon="5.28387">
        <ele>177.2</ele>
        <time>2024-03-20T13:41:34.000Z</time>
      </trkpt>
      <trkpt lat="43.51298" lon="5.28387">
        <ele>177.4</ele>
        <time>2024-03-20T13:41:36.000Z</time>
      </trkpt>
      <trkpt lat="43.51296" lon="5.28385">
        <ele>177.2</ele>
        <time>2024-03-20T13:41:38.000Z</time>
      </trkpt>
      <trkpt lat="43.51294" lon="5.28384">
        <ele>177.2</ele>
        <time>2024-03-20T13:41:41.000Z</time>
      </trkpt>
      <trkpt lat="43.51291" lon="5.28384">
        <ele>177.5</ele>
        <time>2024-03-20T13:41:43.000Z</time>
      </trkpt>
      <trkpt lat="43.5129" lon="5.28383">
        <ele>177.6</ele>
        <time>2024-03-20T13:41:45.000Z</time>
      </trkpt>
      <trkpt lat="43.51287" lon="5.28382">
        <ele>177.4</ele>
        <time>2024-03-20T13:41:47.000Z</time>
      </trkpt>
      <trkpt lat="43.51285" lon="5.28381">
        <ele>177.5</ele>
        <time>2024-03-20T13:41:49.000Z</time>
      </trkpt>
      <trkpt lat="43.51282" lon="5.28381">
        <ele>177.8</ele>
        <time>2024-03-20T13:41:51.000Z</time>
      </trkpt>
      <trkpt lat="43.5128" lon="5.2838">
        <ele>177.9</ele>
        <time>2024-03-20T13:41:53.000Z</time>
      </trkpt>
      <trkpt lat="43.51278" lon="5.2838">
        <ele>178</ele>
        <time>2024-03-20T13:41:55.000Z</time>
      </trkpt>
      <trkpt lat="43.51275" lon="5.2838">
        <ele>178.4</ele>
        <time>2024-03-20T13:41:57.000Z</time>
      </trkpt>
      <trkpt lat="43.51274" lon="5.28378">
        <ele>178</ele>
        <time>2024-03-20T13:41:59.000Z</time>
      </trkpt>
      <trkpt lat="43.51271" lon="5.28377">
        <ele>178.1</ele>
        <time>2024-03-20T13:42:02.000Z</time>
      </trkpt>
      <trkpt lat="43.51269" lon="5.28376">
        <ele>178.1</ele>
        <time>2024-03-20T13:42:04.000Z</time>
      </trkpt>
      <trkpt lat="43.51266" lon="5.28375">
        <ele>178.3</ele>
        <time>2024-03-20T13:42:06.000Z</time>
      </trkpt>
      <trkpt lat="43.51264" lon="5.28375">
        <ele>178.4</ele>
        <time>2024-03-20T13:42:08.000Z</time>
      </trkpt>
      <trkpt lat="43.51261" lon="5.28375">
        <ele>178.7</ele>
        <time>2024-03-20T13:42:11.000Z</time>
      </trkpt>
      <trkpt lat="43.51259" lon="5.28375">
        <ele>179</ele>
        <time>2024-03-20T13:42:13.000Z</time>
      </trkpt>
      <trkpt lat="43.51258" lon="5.28375">
        <ele>179.2</ele>
        <time>2024-03-20T13:42:16.000Z</time>
      </trkpt>
      <trkpt lat="43.51257" lon="5.28372">
        <ele>178.4</ele>
        <time>2024-03-20T13:42:43.000Z</time>
      </trkpt>
      <trkpt lat="43.51258" lon="5.2837">
        <ele>177.6</ele>
        <time>2024-03-20T13:42:56.000Z</time>
      </trkpt>
      <trkpt lat="43.5126" lon="5.28366">
        <ele>176</ele>
        <time>2024-03-20T13:43:13.000Z</time>
      </trkpt>
      <trkpt lat="43.51263" lon="5.28364">
        <ele>175.2</ele>
        <time>2024-03-20T13:43:20.000Z</time>
      </trkpt>
      <trkpt lat="43.51264" lon="5.28363">
        <ele>174.5</ele>
        <time>2024-03-20T13:43:26.000Z</time>
      </trkpt>
      <trkpt lat="43.51266" lon="5.28359">
        <ele>173.1</ele>
        <time>2024-03-20T13:43:37.000Z</time>
      </trkpt>
      <trkpt lat="43.51267" lon="5.28357">
        <ele>172.2</ele>
        <time>2024-03-20T13:43:46.000Z</time>
      </trkpt>
      <trkpt lat="43.51267" lon="5.28354">
        <ele>171.3</ele>
        <time>2024-03-20T13:43:50.000Z</time>
      </trkpt>
      <trkpt lat="43.51267" lon="5.28351">
        <ele>170.3</ele>
        <time>2024-03-20T13:43:53.000Z</time>
      </trkpt>
      <trkpt lat="43.51266" lon="5.28348">
        <ele>169.8</ele>
        <time>2024-03-20T13:43:57.000Z</time>
      </trkpt>
      <trkpt lat="43.51264" lon="5.28348">
        <ele>169.9</ele>
        <time>2024-03-20T13:44:00.000Z</time>
      </trkpt>
      <trkpt lat="43.51266" lon="5.28342">
        <ele>167.9</ele>
        <time>2024-03-20T13:44:19.000Z</time>
      </trkpt>
      <trkpt lat="43.51266" lon="5.28339">
        <ele>167</ele>
        <time>2024-03-20T13:44:20.000Z</time>
      </trkpt>
      <trkpt lat="43.51265" lon="5.28336">
        <ele>166.2</ele>
        <time>2024-03-20T13:44:26.000Z</time>
      </trkpt>
      <trkpt lat="43.51263" lon="5.28338">
        <ele>167.1</ele>
        <time>2024-03-20T13:45:17.000Z</time>
      </trkpt>
      <trkpt lat="43.51266" lon="5.28336">
        <ele>166.1</ele>
        <time>2024-03-20T13:45:46.000Z</time>
      </trkpt>
      <trkpt lat="43.51268" lon="5.28336">
        <ele>165.6</ele>
        <time>2024-03-20T13:45:49.000Z</time>
      </trkpt>
      <trkpt lat="43.51271" lon="5.28337">
        <ele>165.5</ele>
        <time>2024-03-20T13:45:52.000Z</time>
      </trkpt>
      <trkpt lat="43.51273" lon="5.28338">
        <ele>165.3</ele>
        <time>2024-03-20T13:45:55.000Z</time>
      </trkpt>
      <trkpt lat="43.51276" lon="5.28338">
        <ele>165</ele>
        <time>2024-03-20T13:45:59.000Z</time>
      </trkpt>
      <trkpt lat="43.51278" lon="5.28339">
        <ele>164.6</ele>
        <time>2024-03-20T13:46:03.000Z</time>
      </trkpt>
      <trkpt lat="43.5128" lon="5.28338">
        <ele>164.4</ele>
        <time>2024-03-20T13:46:05.000Z</time>
      </trkpt>
      <trkpt lat="43.51282" lon="5.28337">
        <ele>163.9</ele>
        <time>2024-03-20T13:46:09.000Z</time>
      </trkpt>
      <trkpt lat="43.51284" lon="5.28335">
        <ele>163</ele>
        <time>2024-03-20T13:46:12.000Z</time>
      </trkpt>
      <trkpt lat="43.51287" lon="5.28333">
        <ele>162.3</ele>
        <time>2024-03-20T13:46:16.000Z</time>
      </trkpt>
      <trkpt lat="43.51289" lon="5.28333">
        <ele>162.2</ele>
        <time>2024-03-20T13:46:19.000Z</time>
      </trkpt>
      <trkpt lat="43.51292" lon="5.28332">
        <ele>161.7</ele>
        <time>2024-03-20T13:46:24.000Z</time>
      </trkpt>
      <trkpt lat="43.51294" lon="5.28332">
        <ele>161.5</ele>
        <time>2024-03-20T13:46:27.000Z</time>
      </trkpt>
      <trkpt lat="43.51295" lon="5.28331">
        <ele>161.1</ele>
        <time>2024-03-20T13:46:36.000Z</time>
      </trkpt>
      <trkpt lat="43.51296" lon="5.28328">
        <ele>160.6</ele>
        <time>2024-03-20T13:47:57.000Z</time>
      </trkpt>
      <trkpt lat="43.51297" lon="5.28325">
        <ele>159.9</ele>
        <time>2024-03-20T13:48:55.000Z</time>
      </trkpt>
      <trkpt lat="43.51296" lon="5.28323">
        <ele>159.5</ele>
        <time>2024-03-20T13:48:58.000Z</time>
      </trkpt>
      <trkpt lat="43.51294" lon="5.28321">
        <ele>159.1</ele>
        <time>2024-03-20T13:49:01.000Z</time>
      </trkpt>
      <trkpt lat="43.51293" lon="5.28319">
        <ele>158.9</ele>
        <time>2024-03-20T13:49:03.000Z</time>
      </trkpt>
      <trkpt lat="43.51292" lon="5.28317">
        <ele>158.5</ele>
        <time>2024-03-20T13:49:06.000Z</time>
      </trkpt>
      <trkpt lat="43.5129" lon="5.28315">
        <ele>158.1</ele>
        <time>2024-03-20T13:49:09.000Z</time>
      </trkpt>
      <trkpt lat="43.51289" lon="5.28313">
        <ele>157.7</ele>
        <time>2024-03-20T13:49:11.000Z</time>
      </trkpt>
      <trkpt lat="43.51287" lon="5.2831">
        <ele>157.4</ele>
        <time>2024-03-20T13:49:13.000Z</time>
      </trkpt>
      <trkpt lat="43.51284" lon="5.28308">
        <ele>157.1</ele>
        <time>2024-03-20T13:49:16.000Z</time>
      </trkpt>
      <trkpt lat="43.51283" lon="5.28306">
        <ele>156.6</ele>
        <time>2024-03-20T13:49:18.000Z</time>
      </trkpt>
      <trkpt lat="43.51282" lon="5.28303">
        <ele>156.3</ele>
        <time>2024-03-20T13:49:21.000Z</time>
      </trkpt>
      <trkpt lat="43.5128" lon="5.283">
        <ele>156</ele>
        <time>2024-03-20T13:49:23.000Z</time>
      </trkpt>
      <trkpt lat="43.51278" lon="5.283">
        <ele>156.2</ele>
        <time>2024-03-20T13:49:24.000Z</time>
      </trkpt>
      <trkpt lat="43.51277" lon="5.28298">
        <ele>156.1</ele>
        <time>2024-03-20T13:49:27.000Z</time>
      </trkpt>
      <trkpt lat="43.51275" lon="5.28295">
        <ele>156</ele>
        <time>2024-03-20T13:49:30.000Z</time>
      </trkpt>
      <trkpt lat="43.51274" lon="5.28294">
        <ele>156</ele>
        <time>2024-03-20T13:49:32.000Z</time>
      </trkpt>
      <trkpt lat="43.51273" lon="5.28291">
        <ele>155.8</ele>
        <time>2024-03-20T13:49:34.000Z</time>
      </trkpt>
      <trkpt lat="43.51272" lon="5.28289">
        <ele>155.5</ele>
        <time>2024-03-20T13:49:36.000Z</time>
      </trkpt>
      <trkpt lat="43.5127" lon="5.28286">
        <ele>155.4</ele>
        <time>2024-03-20T13:49:39.000Z</time>
      </trkpt>
      <trkpt lat="43.51267" lon="5.28283">
        <ele>155.4</ele>
        <time>2024-03-20T13:49:42.000Z</time>
      </trkpt>
      <trkpt lat="43.51265" lon="5.28282">
        <ele>155.5</ele>
        <time>2024-03-20T13:49:44.000Z</time>
      </trkpt>
      <trkpt lat="43.51264" lon="5.2828">
        <ele>155.4</ele>
        <time>2024-03-20T13:49:46.000Z</time>
      </trkpt>
      <trkpt lat="43.51261" lon="5.28278">
        <ele>155.3</ele>
        <time>2024-03-20T13:49:48.000Z</time>
      </trkpt>
      <trkpt lat="43.51259" lon="5.28276">
        <ele>155.3</ele>
        <time>2024-03-20T13:49:50.000Z</time>
      </trkpt>
      <trkpt lat="43.51257" lon="5.28275">
        <ele>155.4</ele>
        <time>2024-03-20T13:49:52.000Z</time>
      </trkpt>
      <trkpt lat="43.51254" lon="5.28272">
        <ele>155.3</ele>
        <time>2024-03-20T13:49:55.000Z</time>
      </trkpt>
      <trkpt lat="43.51253" lon="5.28269">
        <ele>155.1</ele>
        <time>2024-03-20T13:49:58.000Z</time>
      </trkpt>
      <trkpt lat="43.51251" lon="5.28268">
        <ele>155.1</ele>
        <time>2024-03-20T13:50:00.000Z</time>
      </trkpt>
      <trkpt lat="43.51249" lon="5.28266">
        <ele>155.1</ele>
        <time>2024-03-20T13:50:02.000Z</time>
      </trkpt>
      <trkpt lat="43.51246" lon="5.28266">
        <ele>155.2</ele>
        <time>2024-03-20T13:50:04.000Z</time>
      </trkpt>
      <trkpt lat="43.51244" lon="5.28264">
        <ele>155.1</ele>
        <time>2024-03-20T13:50:06.000Z</time>
      </trkpt>
      <trkpt lat="43.51242" lon="5.28263">
        <ele>155</ele>
        <time>2024-03-20T13:50:08.000Z</time>
      </trkpt>
      <trkpt lat="43.51239" lon="5.28261">
        <ele>154.9</ele>
        <time>2024-03-20T13:50:11.000Z</time>
      </trkpt>
      <trkpt lat="43.51237" lon="5.2826">
        <ele>154.9</ele>
        <time>2024-03-20T13:50:14.000Z</time>
      </trkpt>
      <trkpt lat="43.51235" lon="5.28257">
        <ele>154.6</ele>
        <time>2024-03-20T13:50:17.000Z</time>
      </trkpt>
      <trkpt lat="43.51233" lon="5.28256">
        <ele>154.4</ele>
        <time>2024-03-20T13:50:19.000Z</time>
      </trkpt>
      <trkpt lat="43.51231" lon="5.28254">
        <ele>154.2</ele>
        <time>2024-03-20T13:50:22.000Z</time>
      </trkpt>
      <trkpt lat="43.51229" lon="5.28253">
        <ele>154.1</ele>
        <time>2024-03-20T13:50:24.000Z</time>
      </trkpt>
      <trkpt lat="43.51227" lon="5.28251">
        <ele>153.8</ele>
        <time>2024-03-20T13:50:26.000Z</time>
      </trkpt>
      <trkpt lat="43.51226" lon="5.28249">
        <ele>153.6</ele>
        <time>2024-03-20T13:50:28.000Z</time>
      </trkpt>
      <trkpt lat="43.51223" lon="5.28245">
        <ele>153.1</ele>
        <time>2024-03-20T13:50:31.000Z</time>
      </trkpt>
      <trkpt lat="43.51221" lon="5.28244">
        <ele>152.9</ele>
        <time>2024-03-20T13:50:33.000Z</time>
      </trkpt>
      <trkpt lat="43.51219" lon="5.28241">
        <ele>152.7</ele>
        <time>2024-03-20T13:50:35.000Z</time>
      </trkpt>
      <trkpt lat="43.51218" lon="5.2824">
        <ele>152.5</ele>
        <time>2024-03-20T13:50:37.000Z</time>
      </trkpt>
      <trkpt lat="43.51216" lon="5.28238">
        <ele>152.4</ele>
        <time>2024-03-20T13:50:39.000Z</time>
      </trkpt>
      <trkpt lat="43.51213" lon="5.28238">
        <ele>152.5</ele>
        <time>2024-03-20T13:50:41.000Z</time>
      </trkpt>
      <trkpt lat="43.51211" lon="5.28237">
        <ele>152.5</ele>
        <time>2024-03-20T13:50:43.000Z</time>
      </trkpt>
      <trkpt lat="43.51209" lon="5.28238">
        <ele>152.7</ele>
        <time>2024-03-20T13:50:45.000Z</time>
      </trkpt>
      <trkpt lat="43.51206" lon="5.28236">
        <ele>152.7</ele>
        <time>2024-03-20T13:50:47.000Z</time>
      </trkpt>
      <trkpt lat="43.51203" lon="5.28235">
        <ele>152.6</ele>
        <time>2024-03-20T13:50:49.000Z</time>
      </trkpt>
      <trkpt lat="43.51201" lon="5.28235">
        <ele>152.7</ele>
        <time>2024-03-20T13:50:51.000Z</time>
      </trkpt>
      <trkpt lat="43.51199" lon="5.28233">
        <ele>152.6</ele>
        <time>2024-03-20T13:50:53.000Z</time>
      </trkpt>
      <trkpt lat="43.51197" lon="5.28233">
        <ele>152.7</ele>
        <time>2024-03-20T13:50:55.000Z</time>
      </trkpt>
      <trkpt lat="43.51195" lon="5.28232">
        <ele>152.8</ele>
        <time>2024-03-20T13:50:57.000Z</time>
      </trkpt>
      <trkpt lat="43.51192" lon="5.28233">
        <ele>153</ele>
        <time>2024-03-20T13:50:59.000Z</time>
      </trkpt>
      <trkpt lat="43.51189" lon="5.28232">
        <ele>153.1</ele>
        <time>2024-03-20T13:51:01.000Z</time>
      </trkpt>
      <trkpt lat="43.51187" lon="5.28231">
        <ele>153</ele>
        <time>2024-03-20T13:51:03.000Z</time>
      </trkpt>
      <trkpt lat="43.51185" lon="5.28232">
        <ele>153.1</ele>
        <time>2024-03-20T13:51:05.000Z</time>
      </trkpt>
      <trkpt lat="43.51183" lon="5.28231">
        <ele>153.1</ele>
        <time>2024-03-20T13:51:07.000Z</time>
      </trkpt>
      <trkpt lat="43.51181" lon="5.2823">
        <ele>152.9</ele>
        <time>2024-03-20T13:51:09.000Z</time>
      </trkpt>
      <trkpt lat="43.51178" lon="5.28229">
        <ele>153</ele>
        <time>2024-03-20T13:51:12.000Z</time>
      </trkpt>
      <trkpt lat="43.51176" lon="5.28228">
        <ele>152.8</ele>
        <time>2024-03-20T13:51:15.000Z</time>
      </trkpt>
      <trkpt lat="43.51173" lon="5.28226">
        <ele>152.6</ele>
        <time>2024-03-20T13:51:17.000Z</time>
      </trkpt>
      <trkpt lat="43.51171" lon="5.28225">
        <ele>152.4</ele>
        <time>2024-03-20T13:51:20.000Z</time>
      </trkpt>
      <trkpt lat="43.51169" lon="5.28224">
        <ele>152.3</ele>
        <time>2024-03-20T13:51:22.000Z</time>
      </trkpt>
      <trkpt lat="43.51166" lon="5.28222">
        <ele>152</ele>
        <time>2024-03-20T13:51:26.000Z</time>
      </trkpt>
      <trkpt lat="43.51164" lon="5.2822">
        <ele>152</ele>
        <time>2024-03-20T13:51:28.000Z</time>
      </trkpt>
      <trkpt lat="43.51162" lon="5.28219">
        <ele>152</ele>
        <time>2024-03-20T13:51:30.000Z</time>
      </trkpt>
      <trkpt lat="43.5116" lon="5.28217">
        <ele>152</ele>
        <time>2024-03-20T13:51:32.000Z</time>
      </trkpt>
      <trkpt lat="43.51158" lon="5.28215">
        <ele>152</ele>
        <time>2024-03-20T13:51:35.000Z</time>
      </trkpt>
      <trkpt lat="43.51158" lon="5.28212">
        <ele>151.9</ele>
        <time>2024-03-20T13:51:38.000Z</time>
      </trkpt>
      <trkpt lat="43.51158" lon="5.28209">
        <ele>151.8</ele>
        <time>2024-03-20T13:51:40.000Z</time>
      </trkpt>
      <trkpt lat="43.51159" lon="5.28207">
        <ele>151.6</ele>
        <time>2024-03-20T13:51:43.000Z</time>
      </trkpt>
      <trkpt lat="43.5116" lon="5.28203">
        <ele>151.4</ele>
        <time>2024-03-20T13:51:46.000Z</time>
      </trkpt>
      <trkpt lat="43.51161" lon="5.28202">
        <ele>151.1</ele>
        <time>2024-03-20T13:51:48.000Z</time>
      </trkpt>
      <trkpt lat="43.51164" lon="5.28198">
        <ele>150.7</ele>
        <time>2024-03-20T13:51:51.000Z</time>
      </trkpt>
      <trkpt lat="43.51165" lon="5.28196">
        <ele>150.3</ele>
        <time>2024-03-20T13:51:53.000Z</time>
      </trkpt>
      <trkpt lat="43.51167" lon="5.28194">
        <ele>150.1</ele>
        <time>2024-03-20T13:51:56.000Z</time>
      </trkpt>
      <trkpt lat="43.51169" lon="5.28192">
        <ele>150.4</ele>
        <time>2024-03-20T13:51:58.000Z</time>
      </trkpt>
      <trkpt lat="43.51172" lon="5.28191">
        <ele>150.1</ele>
        <time>2024-03-20T13:52:01.000Z</time>
      </trkpt>
      <trkpt lat="43.51174" lon="5.28192">
        <ele>149.6</ele>
        <time>2024-03-20T13:52:03.000Z</time>
      </trkpt>
      <trkpt lat="43.51176" lon="5.28191">
        <ele>149.5</ele>
        <time>2024-03-20T13:52:05.000Z</time>
      </trkpt>
      <trkpt lat="43.51178" lon="5.2819">
        <ele>149.2</ele>
        <time>2024-03-20T13:52:08.000Z</time>
      </trkpt>
      <trkpt lat="43.51181" lon="5.2819">
        <ele>148.8</ele>
        <time>2024-03-20T13:52:11.000Z</time>
      </trkpt>
      <trkpt lat="43.51183" lon="5.28189">
        <ele>148.5</ele>
        <time>2024-03-20T13:52:14.000Z</time>
      </trkpt>
      <trkpt lat="43.51185" lon="5.28189">
        <ele>148.1</ele>
        <time>2024-03-20T13:52:16.000Z</time>
      </trkpt>
      <trkpt lat="43.51188" lon="5.28189">
        <ele>147.8</ele>
        <time>2024-03-20T13:52:20.000Z</time>
      </trkpt>
      <trkpt lat="43.5119" lon="5.28188">
        <ele>147.6</ele>
        <time>2024-03-20T13:52:22.000Z</time>
      </trkpt>
      <trkpt lat="43.51192" lon="5.28186">
        <ele>147.3</ele>
        <time>2024-03-20T13:52:24.000Z</time>
      </trkpt>
      <trkpt lat="43.51196" lon="5.28184">
        <ele>147.1</ele>
        <time>2024-03-20T13:52:27.000Z</time>
      </trkpt>
      <trkpt lat="43.51198" lon="5.28183">
        <ele>147.1</ele>
        <time>2024-03-20T13:52:29.000Z</time>
      </trkpt>
      <trkpt lat="43.51199" lon="5.28181">
        <ele>147.2</ele>
        <time>2024-03-20T13:52:31.000Z</time>
      </trkpt>
      <trkpt lat="43.51201" lon="5.2818">
        <ele>147.1</ele>
        <time>2024-03-20T13:52:33.000Z</time>
      </trkpt>
      <trkpt lat="43.51203" lon="5.28179">
        <ele>147</ele>
        <time>2024-03-20T13:52:35.000Z</time>
      </trkpt>
      <trkpt lat="43.51205" lon="5.28177">
        <ele>147</ele>
        <time>2024-03-20T13:52:37.000Z</time>
      </trkpt>
      <trkpt lat="43.51208" lon="5.28175">
        <ele>146.8</ele>
        <time>2024-03-20T13:52:40.000Z</time>
      </trkpt>
      <trkpt lat="43.5121" lon="5.28174">
        <ele>146.6</ele>
        <time>2024-03-20T13:52:42.000Z</time>
      </trkpt>
      <trkpt lat="43.51212" lon="5.28174">
        <ele>146.4</ele>
        <time>2024-03-20T13:52:44.000Z</time>
      </trkpt>
      <trkpt lat="43.51215" lon="5.28174">
        <ele>146</ele>
        <time>2024-03-20T13:52:47.000Z</time>
      </trkpt>
      <trkpt lat="43.51217" lon="5.28173">
        <ele>145.8</ele>
        <time>2024-03-20T13:52:49.000Z</time>
      </trkpt>
      <trkpt lat="43.51219" lon="5.28171">
        <ele>145.5</ele>
        <time>2024-03-20T13:52:51.000Z</time>
      </trkpt>
      <trkpt lat="43.51221" lon="5.28169">
        <ele>145.3</ele>
        <time>2024-03-20T13:52:53.000Z</time>
      </trkpt>
      <trkpt lat="43.51222" lon="5.28167">
        <ele>145.1</ele>
        <time>2024-03-20T13:52:55.000Z</time>
      </trkpt>
      <trkpt lat="43.51222" lon="5.28164">
        <ele>145.3</ele>
        <time>2024-03-20T13:53:09.000Z</time>
      </trkpt>
      <trkpt lat="43.51223" lon="5.28162">
        <ele>145.5</ele>
        <time>2024-03-20T13:53:46.000Z</time>
      </trkpt>
      <trkpt lat="43.51224" lon="5.28157">
        <ele>145.9</ele>
        <time>2024-03-20T13:53:58.000Z</time>
      </trkpt>
      <trkpt lat="43.51225" lon="5.28155">
        <ele>146</ele>
        <time>2024-03-20T13:54:14.000Z</time>
      </trkpt>
      <trkpt lat="43.51227" lon="5.28153">
        <ele>146.1</ele>
        <time>2024-03-20T13:54:18.000Z</time>
      </trkpt>
      <trkpt lat="43.51228" lon="5.28155">
        <ele>145.7</ele>
        <time>2024-03-20T13:54:19.000Z</time>
      </trkpt>
      <trkpt lat="43.51229" lon="5.28152">
        <ele>146</ele>
        <time>2024-03-20T13:54:22.000Z</time>
      </trkpt>
      <trkpt lat="43.51229" lon="5.28149">
        <ele>146.3</ele>
        <time>2024-03-20T13:54:29.000Z</time>
      </trkpt>
      <trkpt lat="43.5123" lon="5.28146">
        <ele>146.5</ele>
        <time>2024-03-20T13:54:32.000Z</time>
      </trkpt>
      <trkpt lat="43.51231" lon="5.28143">
        <ele>146.7</ele>
        <time>2024-03-20T13:54:34.000Z</time>
      </trkpt>
      <trkpt lat="43.51232" lon="5.2814">
        <ele>146.9</ele>
        <time>2024-03-20T13:54:37.000Z</time>
      </trkpt>
      <trkpt lat="43.51234" lon="5.28138">
        <ele>146.9</ele>
        <time>2024-03-20T13:54:39.000Z</time>
      </trkpt>
      <trkpt lat="43.51235" lon="5.28135">
        <ele>147</ele>
        <time>2024-03-20T13:54:41.000Z</time>
      </trkpt>
      <trkpt lat="43.51234" lon="5.28131">
        <ele>147.5</ele>
        <time>2024-03-20T13:54:44.000Z</time>
      </trkpt>
      <trkpt lat="43.51234" lon="5.28127">
        <ele>148</ele>
        <time>2024-03-20T13:54:47.000Z</time>
      </trkpt>
      <trkpt lat="43.51233" lon="5.28124">
        <ele>148.3</ele>
        <time>2024-03-20T13:54:49.000Z</time>
      </trkpt>
      <trkpt lat="43.51232" lon="5.2812">
        <ele>148.8</ele>
        <time>2024-03-20T13:54:52.000Z</time>
      </trkpt>
      <trkpt lat="43.51231" lon="5.28117">
        <ele>149.1</ele>
        <time>2024-03-20T13:54:55.000Z</time>
      </trkpt>
      <trkpt lat="43.5123" lon="5.28115">
        <ele>149.4</ele>
        <time>2024-03-20T13:54:58.000Z</time>
      </trkpt>
      <trkpt lat="43.5123" lon="5.28111">
        <ele>149.7</ele>
        <time>2024-03-20T13:55:00.000Z</time>
      </trkpt>
      <trkpt lat="43.5123" lon="5.28109">
        <ele>149.8</ele>
        <time>2024-03-20T13:55:02.000Z</time>
      </trkpt>
      <trkpt lat="43.5123" lon="5.28106">
        <ele>149.9</ele>
        <time>2024-03-20T13:55:04.000Z</time>
      </trkpt>
      <trkpt lat="43.51229" lon="5.28103">
        <ele>150</ele>
        <time>2024-03-20T13:55:06.000Z</time>
      </trkpt>
      <trkpt lat="43.51228" lon="5.28101">
        <ele>150</ele>
        <time>2024-03-20T13:55:08.000Z</time>
      </trkpt>
      <trkpt lat="43.51226" lon="5.28099">
        <ele>150</ele>
        <time>2024-03-20T13:55:11.000Z</time>
      </trkpt>
      <trkpt lat="43.51225" lon="5.28096">
        <ele>150</ele>
        <time>2024-03-20T13:55:13.000Z</time>
      </trkpt>
      <trkpt lat="43.51223" lon="5.28093">
        <ele>150</ele>
        <time>2024-03-20T13:55:17.000Z</time>
      </trkpt>
      <trkpt lat="43.51221" lon="5.28093">
        <ele>150.4</ele>
        <time>2024-03-20T13:55:20.000Z</time>
      </trkpt>
      <trkpt lat="43.5122" lon="5.28091">
        <ele>150.6</ele>
        <time>2024-03-20T13:55:23.000Z</time>
      </trkpt>
      <trkpt lat="43.51218" lon="5.2809">
        <ele>151.1</ele>
        <time>2024-03-20T13:55:25.000Z</time>
      </trkpt>
      <trkpt lat="43.51216" lon="5.2809">
        <ele>151.6</ele>
        <time>2024-03-20T13:55:29.000Z</time>
      </trkpt>
      <trkpt lat="43.51214" lon="5.2809">
        <ele>152.1</ele>
        <time>2024-03-20T13:55:31.000Z</time>
      </trkpt>
      <trkpt lat="43.51212" lon="5.28089">
        <ele>152.5</ele>
        <time>2024-03-20T13:55:34.000Z</time>
      </trkpt>
      <trkpt lat="43.51209" lon="5.28091">
        <ele>153.5</ele>
        <time>2024-03-20T13:55:39.000Z</time>
      </trkpt>
      <trkpt lat="43.51207" lon="5.2809">
        <ele>153.8</ele>
        <time>2024-03-20T13:55:42.000Z</time>
      </trkpt>
      <trkpt lat="43.51205" lon="5.28088">
        <ele>154.3</ele>
        <time>2024-03-20T13:55:46.000Z</time>
      </trkpt>
      <trkpt lat="43.51203" lon="5.28087">
        <ele>154.5</ele>
        <time>2024-03-20T13:55:50.000Z</time>
      </trkpt>
      <trkpt lat="43.51201" lon="5.28086">
        <ele>154.9</ele>
        <time>2024-03-20T13:55:53.000Z</time>
      </trkpt>
      <trkpt lat="43.512" lon="5.28084">
        <ele>154.8</ele>
        <time>2024-03-20T13:55:55.000Z</time>
      </trkpt>
      <trkpt lat="43.51198" lon="5.28082">
        <ele>155.4</ele>
        <time>2024-03-20T13:55:58.000Z</time>
      </trkpt>
      <trkpt lat="43.51196" lon="5.2808">
        <ele>155.7</ele>
        <time>2024-03-20T13:56:03.000Z</time>
      </trkpt>
      <trkpt lat="43.51195" lon="5.28078">
        <ele>156.2</ele>
        <time>2024-03-20T13:56:06.000Z</time>
      </trkpt>
      <trkpt lat="43.51193" lon="5.28075">
        <ele>156.6</ele>
        <time>2024-03-20T13:56:09.000Z</time>
      </trkpt>
      <trkpt lat="43.5119" lon="5.28074">
        <ele>157.5</ele>
        <time>2024-03-20T13:56:14.000Z</time>
      </trkpt>
      <trkpt lat="43.51188" lon="5.28074">
        <ele>158.1</ele>
        <time>2024-03-20T13:56:17.000Z</time>
      </trkpt>
      <trkpt lat="43.51187" lon="5.28072">
        <ele>158.5</ele>
        <time>2024-03-20T13:56:20.000Z</time>
      </trkpt>
      <trkpt lat="43.51186" lon="5.2807">
        <ele>158.8</ele>
        <time>2024-03-20T13:56:25.000Z</time>
      </trkpt>
      <trkpt lat="43.51185" lon="5.28066">
        <ele>158.8</ele>
        <time>2024-03-20T13:56:28.000Z</time>
      </trkpt>
      <trkpt lat="43.51185" lon="5.28063">
        <ele>158.8</ele>
        <time>2024-03-20T13:56:31.000Z</time>
      </trkpt>
      <trkpt lat="43.51186" lon="5.2806">
        <ele>158.6</ele>
        <time>2024-03-20T13:56:34.000Z</time>
      </trkpt>
      <trkpt lat="43.51186" lon="5.28057">
        <ele>158.5</ele>
        <time>2024-03-20T13:56:39.000Z</time>
      </trkpt>
      <trkpt lat="43.51188" lon="5.28056">
        <ele>158.2</ele>
        <time>2024-03-20T13:56:41.000Z</time>
      </trkpt>
      <trkpt lat="43.51191" lon="5.28056">
        <ele>157.7</ele>
        <time>2024-03-20T13:56:45.000Z</time>
      </trkpt>
      <trkpt lat="43.51193" lon="5.28054">
        <ele>157.4</ele>
        <time>2024-03-20T13:56:48.000Z</time>
      </trkpt>
      <trkpt lat="43.51194" lon="5.28052">
        <ele>157.5</ele>
        <time>2024-03-20T13:56:50.000Z</time>
      </trkpt>
      <trkpt lat="43.51195" lon="5.28048">
        <ele>157.7</ele>
        <time>2024-03-20T13:56:52.000Z</time>
      </trkpt>
      <trkpt lat="43.51195" lon="5.28045">
        <ele>158.1</ele>
        <time>2024-03-20T13:56:56.000Z</time>
      </trkpt>
      <trkpt lat="43.51195" lon="5.2804">
        <ele>158.6</ele>
        <time>2024-03-20T13:57:01.000Z</time>
      </trkpt>
      <trkpt lat="43.51194" lon="5.28037">
        <ele>159.1</ele>
        <time>2024-03-20T13:57:04.000Z</time>
      </trkpt>
      <trkpt lat="43.51194" lon="5.28033">
        <ele>159.6</ele>
        <time>2024-03-20T13:57:07.000Z</time>
      </trkpt>
      <trkpt lat="43.51193" lon="5.28029">
        <ele>160.2</ele>
        <time>2024-03-20T13:57:10.000Z</time>
      </trkpt>
      <trkpt lat="43.51194" lon="5.28026">
        <ele>160.1</ele>
        <time>2024-03-20T13:57:13.000Z</time>
      </trkpt>
      <trkpt lat="43.51193" lon="5.28022">
        <ele>160</ele>
        <time>2024-03-20T13:57:16.000Z</time>
      </trkpt>
      <trkpt lat="43.51193" lon="5.28019">
        <ele>159.9</ele>
        <time>2024-03-20T13:57:18.000Z</time>
      </trkpt>
      <trkpt lat="43.51193" lon="5.28015">
        <ele>159.6</ele>
        <time>2024-03-20T13:57:21.000Z</time>
      </trkpt>
      <trkpt lat="43.51193" lon="5.28013">
        <ele>159.3</ele>
        <time>2024-03-20T13:57:23.000Z</time>
      </trkpt>
      <trkpt lat="43.51194" lon="5.28009">
        <ele>159</ele>
        <time>2024-03-20T13:57:26.000Z</time>
      </trkpt>
      <trkpt lat="43.51194" lon="5.28006">
        <ele>158.7</ele>
        <time>2024-03-20T13:57:28.000Z</time>
      </trkpt>
      <trkpt lat="43.51194" lon="5.28003">
        <ele>158.5</ele>
        <time>2024-03-20T13:57:30.000Z</time>
      </trkpt>
      <trkpt lat="43.51194" lon="5.28">
        <ele>158.5</ele>
        <time>2024-03-20T13:57:32.000Z</time>
      </trkpt>
      <trkpt lat="43.51193" lon="5.27997">
        <ele>158.6</ele>
        <time>2024-03-20T13:57:34.000Z</time>
      </trkpt>
      <trkpt lat="43.51193" lon="5.27993">
        <ele>159.1</ele>
        <time>2024-03-20T13:57:36.000Z</time>
      </trkpt>
      <trkpt lat="43.51192" lon="5.2799">
        <ele>159.4</ele>
        <time>2024-03-20T13:57:37.000Z</time>
      </trkpt>
      <trkpt lat="43.51192" lon="5.27986">
        <ele>159.7</ele>
        <time>2024-03-20T13:57:39.000Z</time>
      </trkpt>
      <trkpt lat="43.51192" lon="5.27983">
        <ele>159.8</ele>
        <time>2024-03-20T13:57:41.000Z</time>
      </trkpt>
      <trkpt lat="43.51191" lon="5.27981">
        <ele>160.2</ele>
        <time>2024-03-20T13:57:43.000Z</time>
      </trkpt>
      <trkpt lat="43.5119" lon="5.27978">
        <ele>160.4</ele>
        <time>2024-03-20T13:57:45.000Z</time>
      </trkpt>
      <trkpt lat="43.51189" lon="5.27975">
        <ele>160.9</ele>
        <time>2024-03-20T13:57:48.000Z</time>
      </trkpt>
      <trkpt lat="43.51188" lon="5.27974">
        <ele>161.3</ele>
        <time>2024-03-20T13:57:50.000Z</time>
      </trkpt>
      <trkpt lat="43.51187" lon="5.27971">
        <ele>161.9</ele>
        <time>2024-03-20T13:57:52.000Z</time>
      </trkpt>
      <trkpt lat="43.51186" lon="5.27968">
        <ele>162.5</ele>
        <time>2024-03-20T13:57:55.000Z</time>
      </trkpt>
      <trkpt lat="43.51186" lon="5.27964">
        <ele>163.2</ele>
        <time>2024-03-20T13:57:57.000Z</time>
      </trkpt>
      <trkpt lat="43.51185" lon="5.27962">
        <ele>163.8</ele>
        <time>2024-03-20T13:57:59.000Z</time>
      </trkpt>
      <trkpt lat="43.51184" lon="5.27958">
        <ele>164.3</ele>
        <time>2024-03-20T13:58:01.000Z</time>
      </trkpt>
      <trkpt lat="43.51183" lon="5.27955">
        <ele>164.8</ele>
        <time>2024-03-20T13:58:03.000Z</time>
      </trkpt>
      <trkpt lat="43.51183" lon="5.27953">
        <ele>165.1</ele>
        <time>2024-03-20T13:58:05.000Z</time>
      </trkpt>
      <trkpt lat="43.51182" lon="5.2795">
        <ele>165.4</ele>
        <time>2024-03-20T13:58:07.000Z</time>
      </trkpt>
      <trkpt lat="43.51181" lon="5.27947">
        <ele>165.8</ele>
        <time>2024-03-20T13:58:09.000Z</time>
      </trkpt>
      <trkpt lat="43.51181" lon="5.27944">
        <ele>166.1</ele>
        <time>2024-03-20T13:58:11.000Z</time>
      </trkpt>
      <trkpt lat="43.51181" lon="5.27941">
        <ele>166.5</ele>
        <time>2024-03-20T13:58:13.000Z</time>
      </trkpt>
      <trkpt lat="43.51183" lon="5.27941">
        <ele>166.4</ele>
        <time>2024-03-20T13:58:19.000Z</time>
      </trkpt>
      <trkpt lat="43.51185" lon="5.27941">
        <ele>166.3</ele>
        <time>2024-03-20T13:58:21.000Z</time>
      </trkpt>
      <trkpt lat="43.51186" lon="5.27944">
        <ele>165.7</ele>
        <time>2024-03-20T13:58:26.000Z</time>
      </trkpt>
      <trkpt lat="43.51187" lon="5.27947">
        <ele>165.2</ele>
        <time>2024-03-20T13:58:28.000Z</time>
      </trkpt>
      <trkpt lat="43.51188" lon="5.27949">
        <ele>164.8</ele>
        <time>2024-03-20T13:58:30.000Z</time>
      </trkpt>
      <trkpt lat="43.51189" lon="5.27952">
        <ele>164.2</ele>
        <time>2024-03-20T13:58:32.000Z</time>
      </trkpt>
      <trkpt lat="43.5119" lon="5.27954">
        <ele>163.7</ele>
        <time>2024-03-20T13:58:34.000Z</time>
      </trkpt>
      <trkpt lat="43.51191" lon="5.27957">
        <ele>163</ele>
        <time>2024-03-20T13:58:37.000Z</time>
      </trkpt>
      <trkpt lat="43.51193" lon="5.27959">
        <ele>162.2</ele>
        <time>2024-03-20T13:58:39.000Z</time>
      </trkpt>
      <trkpt lat="43.51194" lon="5.27961">
        <ele>161.4</ele>
        <time>2024-03-20T13:58:41.000Z</time>
      </trkpt>
      <trkpt lat="43.51195" lon="5.27964">
        <ele>161</ele>
        <time>2024-03-20T13:58:44.000Z</time>
      </trkpt>
      <trkpt lat="43.51197" lon="5.27967">
        <ele>160.8</ele>
        <time>2024-03-20T13:58:47.000Z</time>
      </trkpt>
      <trkpt lat="43.51198" lon="5.27969">
        <ele>160.6</ele>
        <time>2024-03-20T13:58:49.000Z</time>
      </trkpt>
      <trkpt lat="43.51199" lon="5.27971">
        <ele>160.6</ele>
        <time>2024-03-20T13:58:51.000Z</time>
      </trkpt>
      <trkpt lat="43.51201" lon="5.27974">
        <ele>160.7</ele>
        <time>2024-03-20T13:58:54.000Z</time>
      </trkpt>
      <trkpt lat="43.51202" lon="5.27976">
        <ele>160.8</ele>
        <time>2024-03-20T13:58:56.000Z</time>
      </trkpt>
      <trkpt lat="43.51204" lon="5.27979">
        <ele>161.2</ele>
        <time>2024-03-20T13:58:59.000Z</time>
      </trkpt>
      <trkpt lat="43.51205" lon="5.27981">
        <ele>161.1</ele>
        <time>2024-03-20T13:59:02.000Z</time>
      </trkpt>
      <trkpt lat="43.51205" lon="5.27984">
        <ele>161</ele>
        <time>2024-03-20T13:59:05.000Z</time>
      </trkpt>
      <trkpt lat="43.51205" lon="5.27987">
        <ele>160.8</ele>
        <time>2024-03-20T13:59:07.000Z</time>
      </trkpt>
      <trkpt lat="43.51206" lon="5.2799">
        <ele>160.6</ele>
        <time>2024-03-20T13:59:10.000Z</time>
      </trkpt>
      <trkpt lat="43.51207" lon="5.27994">
        <ele>160.4</ele>
        <time>2024-03-20T13:59:13.000Z</time>
      </trkpt>
      <trkpt lat="43.51208" lon="5.27996">
        <ele>160.4</ele>
        <time>2024-03-20T13:59:15.000Z</time>
      </trkpt>
      <trkpt lat="43.51211" lon="5.27999">
        <ele>160.4</ele>
        <time>2024-03-20T13:59:17.000Z</time>
      </trkpt>
      <trkpt lat="43.51212" lon="5.28">
        <ele>160.5</ele>
        <time>2024-03-20T13:59:19.000Z</time>
      </trkpt>
      <trkpt lat="43.51213" lon="5.28004">
        <ele>160.3</ele>
        <time>2024-03-20T13:59:22.000Z</time>
      </trkpt>
      <trkpt lat="43.51214" lon="5.28006">
        <ele>160</ele>
        <time>2024-03-20T13:59:24.000Z</time>
      </trkpt>
      <trkpt lat="43.51216" lon="5.28009">
        <ele>159.8</ele>
        <time>2024-03-20T13:59:26.000Z</time>
      </trkpt>
      <trkpt lat="43.51217" lon="5.28011">
        <ele>159.4</ele>
        <time>2024-03-20T13:59:28.000Z</time>
      </trkpt>
      <trkpt lat="43.51219" lon="5.28014">
        <ele>159</ele>
        <time>2024-03-20T13:59:30.000Z</time>
      </trkpt>
      <trkpt lat="43.51219" lon="5.28017">
        <ele>158.5</ele>
        <time>2024-03-20T13:59:32.000Z</time>
      </trkpt>
      <trkpt lat="43.5122" lon="5.2802">
        <ele>157.8</ele>
        <time>2024-03-20T13:59:35.000Z</time>
      </trkpt>
      <trkpt lat="43.51221" lon="5.28023">
        <ele>157.1</ele>
        <time>2024-03-20T13:59:38.000Z</time>
      </trkpt>
      <trkpt lat="43.51222" lon="5.28026">
        <ele>156.5</ele>
        <time>2024-03-20T13:59:41.000Z</time>
      </trkpt>
      <trkpt lat="43.51223" lon="5.28029">
        <ele>155.9</ele>
        <time>2024-03-20T13:59:44.000Z</time>
      </trkpt>
      <trkpt lat="43.51224" lon="5.28031">
        <ele>156</ele>
        <time>2024-03-20T13:59:47.000Z</time>
      </trkpt>
      <trkpt lat="43.51225" lon="5.28034">
        <ele>155.8</ele>
        <time>2024-03-20T13:59:49.000Z</time>
      </trkpt>
      <trkpt lat="43.51226" lon="5.28036">
        <ele>155.8</ele>
        <time>2024-03-20T13:59:51.000Z</time>
      </trkpt>
      <trkpt lat="43.51227" lon="5.28038">
        <ele>155.6</ele>
        <time>2024-03-20T13:59:53.000Z</time>
      </trkpt>
      <trkpt lat="43.51229" lon="5.2804">
        <ele>155.6</ele>
        <time>2024-03-20T13:59:55.000Z</time>
      </trkpt>
      <trkpt lat="43.51231" lon="5.28042">
        <ele>156</ele>
        <time>2024-03-20T13:59:59.000Z</time>
      </trkpt>
      <trkpt lat="43.51232" lon="5.28045">
        <ele>155.6</ele>
        <time>2024-03-20T14:00:01.000Z</time>
      </trkpt>
      <trkpt lat="43.51234" lon="5.28047">
        <ele>155.6</ele>
        <time>2024-03-20T14:00:04.000Z</time>
      </trkpt>
      <trkpt lat="43.51236" lon="5.28047">
        <ele>156.3</ele>
        <time>2024-03-20T14:00:06.000Z</time>
      </trkpt>
      <trkpt lat="43.51237" lon="5.28049">
        <ele>156</ele>
        <time>2024-03-20T14:00:09.000Z</time>
      </trkpt>
      <trkpt lat="43.51239" lon="5.28052">
        <ele>155.9</ele>
        <time>2024-03-20T14:00:11.000Z</time>
      </trkpt>
      <trkpt lat="43.51239" lon="5.28055">
        <ele>155.5</ele>
        <time>2024-03-20T14:00:14.000Z</time>
      </trkpt>
      <trkpt lat="43.5124" lon="5.28058">
        <ele>155.2</ele>
        <time>2024-03-20T14:00:16.000Z</time>
      </trkpt>
      <trkpt lat="43.5124" lon="5.28061">
        <ele>154.6</ele>
        <time>2024-03-20T14:00:19.000Z</time>
      </trkpt>
      <trkpt lat="43.5124" lon="5.28064">
        <ele>154.2</ele>
        <time>2024-03-20T14:00:21.000Z</time>
      </trkpt>
      <trkpt lat="43.5124" lon="5.28067">
        <ele>153.9</ele>
        <time>2024-03-20T14:00:23.000Z</time>
      </trkpt>
      <trkpt lat="43.51241" lon="5.2807">
        <ele>153.5</ele>
        <time>2024-03-20T14:00:26.000Z</time>
      </trkpt>
      <trkpt lat="43.51243" lon="5.28073">
        <ele>153.3</ele>
        <time>2024-03-20T14:00:30.000Z</time>
      </trkpt>
      <trkpt lat="43.51244" lon="5.28076">
        <ele>152.8</ele>
        <time>2024-03-20T14:00:35.000Z</time>
      </trkpt>
      <trkpt lat="43.51246" lon="5.2808">
        <ele>152.4</ele>
        <time>2024-03-20T14:00:37.000Z</time>
      </trkpt>
      <trkpt lat="43.51249" lon="5.28082">
        <ele>152.2</ele>
        <time>2024-03-20T14:00:40.000Z</time>
      </trkpt>
      <trkpt lat="43.51251" lon="5.28081">
        <ele>152.9</ele>
        <time>2024-03-20T14:00:43.000Z</time>
      </trkpt>
      <trkpt lat="43.51251" lon="5.28085">
        <ele>152.3</ele>
        <time>2024-03-20T14:00:50.000Z</time>
      </trkpt>
      <trkpt lat="43.51252" lon="5.28088">
        <ele>152.2</ele>
        <time>2024-03-20T14:00:51.000Z</time>
      </trkpt>
      <trkpt lat="43.51252" lon="5.28091">
        <ele>151.8</ele>
        <time>2024-03-20T14:00:53.000Z</time>
      </trkpt>
      <trkpt lat="43.51253" lon="5.28095">
        <ele>151.8</ele>
        <time>2024-03-20T14:00:58.000Z</time>
      </trkpt>
      <trkpt lat="43.51254" lon="5.28097">
        <ele>151.9</ele>
        <time>2024-03-20T14:01:03.000Z</time>
      </trkpt>
      <trkpt lat="43.51253" lon="5.281">
        <ele>151.3</ele>
        <time>2024-03-20T14:01:06.000Z</time>
      </trkpt>
      <trkpt lat="43.51252" lon="5.28103">
        <ele>150.7</ele>
        <time>2024-03-20T14:01:10.000Z</time>
      </trkpt>
      <trkpt lat="43.51251" lon="5.28107">
        <ele>149.7</ele>
        <time>2024-03-20T14:01:18.000Z</time>
      </trkpt>
      <trkpt lat="43.5125" lon="5.2811">
        <ele>149.3</ele>
        <time>2024-03-20T14:01:20.000Z</time>
      </trkpt>
      <trkpt lat="43.5125" lon="5.28114">
        <ele>148.7</ele>
        <time>2024-03-20T14:01:22.000Z</time>
      </trkpt>
      <trkpt lat="43.51251" lon="5.28117">
        <ele>148.5</ele>
        <time>2024-03-20T14:01:24.000Z</time>
      </trkpt>
      <trkpt lat="43.51252" lon="5.2812">
        <ele>148.2</ele>
        <time>2024-03-20T14:01:26.000Z</time>
      </trkpt>
      <trkpt lat="43.51254" lon="5.28123">
        <ele>148.2</ele>
        <time>2024-03-20T14:01:28.000Z</time>
      </trkpt>
      <trkpt lat="43.51256" lon="5.28126">
        <ele>148.2</ele>
        <time>2024-03-20T14:01:31.000Z</time>
      </trkpt>
      <trkpt lat="43.51257" lon="5.28129">
        <ele>147.9</ele>
        <time>2024-03-20T14:01:33.000Z</time>
      </trkpt>
      <trkpt lat="43.51258" lon="5.28131">
        <ele>147.8</ele>
        <time>2024-03-20T14:01:35.000Z</time>
      </trkpt>
      <trkpt lat="43.5126" lon="5.28133">
        <ele>147.6</ele>
        <time>2024-03-20T14:01:37.000Z</time>
      </trkpt>
      <trkpt lat="43.51261" lon="5.28136">
        <ele>147.2</ele>
        <time>2024-03-20T14:01:39.000Z</time>
      </trkpt>
      <trkpt lat="43.51262" lon="5.28138">
        <ele>146.9</ele>
        <time>2024-03-20T14:01:41.000Z</time>
      </trkpt>
      <trkpt lat="43.51264" lon="5.28142">
        <ele>146.7</ele>
        <time>2024-03-20T14:01:44.000Z</time>
      </trkpt>
      <trkpt lat="43.51265" lon="5.28144">
        <ele>146.6</ele>
        <time>2024-03-20T14:01:46.000Z</time>
      </trkpt>
      <trkpt lat="43.51267" lon="5.28146">
        <ele>146.6</ele>
        <time>2024-03-20T14:01:48.000Z</time>
      </trkpt>
      <trkpt lat="43.51269" lon="5.28148">
        <ele>146.6</ele>
        <time>2024-03-20T14:01:51.000Z</time>
      </trkpt>
      <trkpt lat="43.51271" lon="5.28149">
        <ele>146.7</ele>
        <time>2024-03-20T14:01:53.000Z</time>
      </trkpt>
      <trkpt lat="43.51272" lon="5.28151">
        <ele>146.6</ele>
        <time>2024-03-20T14:01:55.000Z</time>
      </trkpt>
      <trkpt lat="43.51275" lon="5.28153">
        <ele>146.7</ele>
        <time>2024-03-20T14:01:57.000Z</time>
      </trkpt>
      <trkpt lat="43.51278" lon="5.28155">
        <ele>146.7</ele>
        <time>2024-03-20T14:02:00.000Z</time>
      </trkpt>
      <trkpt lat="43.51279" lon="5.28157">
        <ele>146.4</ele>
        <time>2024-03-20T14:02:02.000Z</time>
      </trkpt>
      <trkpt lat="43.51281" lon="5.2816">
        <ele>146</ele>
        <time>2024-03-20T14:02:04.000Z</time>
      </trkpt>
      <trkpt lat="43.51283" lon="5.28162">
        <ele>145.8</ele>
        <time>2024-03-20T14:02:07.000Z</time>
      </trkpt>
      <trkpt lat="43.51285" lon="5.28163">
        <ele>145.7</ele>
        <time>2024-03-20T14:02:09.000Z</time>
      </trkpt>
      <trkpt lat="43.51287" lon="5.28164">
        <ele>145.4</ele>
        <time>2024-03-20T14:02:11.000Z</time>
      </trkpt>
      <trkpt lat="43.51289" lon="5.28166">
        <ele>145.2</ele>
        <time>2024-03-20T14:02:13.000Z</time>
      </trkpt>
      <trkpt lat="43.51291" lon="5.28166">
        <ele>145.1</ele>
        <time>2024-03-20T14:02:15.000Z</time>
      </trkpt>
      <trkpt lat="43.51294" lon="5.28167">
        <ele>144.9</ele>
        <time>2024-03-20T14:02:18.000Z</time>
      </trkpt>
      <trkpt lat="43.51295" lon="5.28168">
        <ele>144.8</ele>
        <time>2024-03-20T14:02:19.000Z</time>
      </trkpt>
      <trkpt lat="43.51298" lon="5.28167">
        <ele>145</ele>
        <time>2024-03-20T14:02:22.000Z</time>
      </trkpt>
      <trkpt lat="43.51301" lon="5.28166">
        <ele>145.1</ele>
        <time>2024-03-20T14:02:24.000Z</time>
      </trkpt>
      <trkpt lat="43.51303" lon="5.28165">
        <ele>145.4</ele>
        <time>2024-03-20T14:02:26.000Z</time>
      </trkpt>
      <trkpt lat="43.51306" lon="5.28166">
        <ele>145.2</ele>
        <time>2024-03-20T14:02:28.000Z</time>
      </trkpt>
      <trkpt lat="43.51308" lon="5.28166">
        <ele>145</ele>
        <time>2024-03-20T14:02:31.000Z</time>
      </trkpt>
      <trkpt lat="43.51311" lon="5.28167">
        <ele>144.7</ele>
        <time>2024-03-20T14:02:33.000Z</time>
      </trkpt>
      <trkpt lat="43.51314" lon="5.28168">
        <ele>144.5</ele>
        <time>2024-03-20T14:02:36.000Z</time>
      </trkpt>
      <trkpt lat="43.51315" lon="5.28165">
        <ele>145</ele>
        <time>2024-03-20T14:02:37.000Z</time>
      </trkpt>
      <trkpt lat="43.51319" lon="5.28163">
        <ele>145.2</ele>
        <time>2024-03-20T14:02:39.000Z</time>
      </trkpt>
      <trkpt lat="43.51321" lon="5.28161">
        <ele>145.4</ele>
        <time>2024-03-20T14:02:40.000Z</time>
      </trkpt>
      <trkpt lat="43.51322" lon="5.28158">
        <ele>145.7</ele>
        <time>2024-03-20T14:02:42.000Z</time>
      </trkpt>
      <trkpt lat="43.51324" lon="5.28156">
        <ele>145.9</ele>
        <time>2024-03-20T14:02:43.000Z</time>
      </trkpt>
      <trkpt lat="43.51325" lon="5.28153">
        <ele>146.2</ele>
        <time>2024-03-20T14:02:44.000Z</time>
      </trkpt>
      <trkpt lat="43.51328" lon="5.28152">
        <ele>146</ele>
        <time>2024-03-20T14:02:47.000Z</time>
      </trkpt>
      <trkpt lat="43.5133" lon="5.2815">
        <ele>146.2</ele>
        <time>2024-03-20T14:02:52.000Z</time>
      </trkpt>
      <trkpt lat="43.51332" lon="5.28149">
        <ele>146.1</ele>
        <time>2024-03-20T14:02:55.000Z</time>
      </trkpt>
      <trkpt lat="43.51334" lon="5.28146">
        <ele>146.2</ele>
        <time>2024-03-20T14:02:58.000Z</time>
      </trkpt>
      <trkpt lat="43.51337" lon="5.28144">
        <ele>146.1</ele>
        <time>2024-03-20T14:03:04.000Z</time>
      </trkpt>
      <trkpt lat="43.51339" lon="5.28143">
        <ele>146</ele>
        <time>2024-03-20T14:03:06.000Z</time>
      </trkpt>
      <trkpt lat="43.51341" lon="5.28142">
        <ele>145.8</ele>
        <time>2024-03-20T14:03:08.000Z</time>
      </trkpt>
      <trkpt lat="43.51344" lon="5.2814">
        <ele>145.7</ele>
        <time>2024-03-20T14:03:11.000Z</time>
      </trkpt>
      <trkpt lat="43.51346" lon="5.28137">
        <ele>146</ele>
        <time>2024-03-20T14:03:13.000Z</time>
      </trkpt>
      <trkpt lat="43.51349" lon="5.28136">
        <ele>146</ele>
        <time>2024-03-20T14:03:15.000Z</time>
      </trkpt>
      <trkpt lat="43.5135" lon="5.28133">
        <ele>146.4</ele>
        <time>2024-03-20T14:03:17.000Z</time>
      </trkpt>
      <trkpt lat="43.51352" lon="5.28133">
        <ele>146.2</ele>
        <time>2024-03-20T14:03:19.000Z</time>
      </trkpt>
      <trkpt lat="43.51355" lon="5.28132">
        <ele>145.9</ele>
        <time>2024-03-20T14:03:21.000Z</time>
      </trkpt>
      <trkpt lat="43.51357" lon="5.28131">
        <ele>145.8</ele>
        <time>2024-03-20T14:03:23.000Z</time>
      </trkpt>
      <trkpt lat="43.5136" lon="5.2813">
        <ele>145.6</ele>
        <time>2024-03-20T14:03:25.000Z</time>
      </trkpt>
      <trkpt lat="43.51362" lon="5.28127">
        <ele>145.7</ele>
        <time>2024-03-20T14:03:27.000Z</time>
      </trkpt>
      <trkpt lat="43.51363" lon="5.28124">
        <ele>145.9</ele>
        <time>2024-03-20T14:03:29.000Z</time>
      </trkpt>
      <trkpt lat="43.51365" lon="5.28122">
        <ele>145.9</ele>
        <time>2024-03-20T14:03:31.000Z</time>
      </trkpt>
      <trkpt lat="43.51367" lon="5.2812">
        <ele>145.9</ele>
        <time>2024-03-20T14:03:33.000Z</time>
      </trkpt>
      <trkpt lat="43.51369" lon="5.28118">
        <ele>146.1</ele>
        <time>2024-03-20T14:03:36.000Z</time>
      </trkpt>
      <trkpt lat="43.5137" lon="5.28114">
        <ele>146.3</ele>
        <time>2024-03-20T14:03:39.000Z</time>
      </trkpt>
      <trkpt lat="43.51372" lon="5.28112">
        <ele>146.3</ele>
        <time>2024-03-20T14:03:41.000Z</time>
      </trkpt>
      <trkpt lat="43.51374" lon="5.2811">
        <ele>146.5</ele>
        <time>2024-03-20T14:03:43.000Z</time>
      </trkpt>
      <trkpt lat="43.51375" lon="5.28108">
        <ele>146.7</ele>
        <time>2024-03-20T14:03:46.000Z</time>
      </trkpt>
      <trkpt lat="43.51377" lon="5.28105">
        <ele>146.9</ele>
        <time>2024-03-20T14:03:49.000Z</time>
      </trkpt>
      <trkpt lat="43.51379" lon="5.28103">
        <ele>147</ele>
        <time>2024-03-20T14:03:53.000Z</time>
      </trkpt>
      <trkpt lat="43.51381" lon="5.28101">
        <ele>147.1</ele>
        <time>2024-03-20T14:03:55.000Z</time>
      </trkpt>
      <trkpt lat="43.51383" lon="5.28101">
        <ele>146.7</ele>
        <time>2024-03-20T14:03:58.000Z</time>
      </trkpt>
      <trkpt lat="43.51386" lon="5.28102">
        <ele>146.2</ele>
        <time>2024-03-20T14:04:01.000Z</time>
      </trkpt>
      <trkpt lat="43.51388" lon="5.28103">
        <ele>145.5</ele>
        <time>2024-03-20T14:04:03.000Z</time>
      </trkpt>
      <trkpt lat="43.51392" lon="5.28106">
        <ele>144.9</ele>
        <time>2024-03-20T14:04:06.000Z</time>
      </trkpt>
      <trkpt lat="43.51393" lon="5.28108">
        <ele>144.6</ele>
        <time>2024-03-20T14:04:08.000Z</time>
      </trkpt>
      <trkpt lat="43.51395" lon="5.28109">
        <ele>144.3</ele>
        <time>2024-03-20T14:04:10.000Z</time>
      </trkpt>
      <trkpt lat="43.51398" lon="5.28109">
        <ele>144.3</ele>
        <time>2024-03-20T14:04:13.000Z</time>
      </trkpt>
      <trkpt lat="43.514" lon="5.28109">
        <ele>144.2</ele>
        <time>2024-03-20T14:04:15.000Z</time>
      </trkpt>
      <trkpt lat="43.51402" lon="5.2811">
        <ele>144.2</ele>
        <time>2024-03-20T14:04:17.000Z</time>
      </trkpt>
      <trkpt lat="43.51404" lon="5.28109">
        <ele>144.3</ele>
        <time>2024-03-20T14:04:21.000Z</time>
      </trkpt>
      <trkpt lat="43.51406" lon="5.28107">
        <ele>144.5</ele>
        <time>2024-03-20T14:04:23.000Z</time>
      </trkpt>
      <trkpt lat="43.51408" lon="5.28104">
        <ele>144.7</ele>
        <time>2024-03-20T14:04:25.000Z</time>
      </trkpt>
      <trkpt lat="43.5141" lon="5.28101">
        <ele>144.9</ele>
        <time>2024-03-20T14:04:27.000Z</time>
      </trkpt>
      <trkpt lat="43.51412" lon="5.28099">
        <ele>145.1</ele>
        <time>2024-03-20T14:04:29.000Z</time>
      </trkpt>
      <trkpt lat="43.51414" lon="5.28096">
        <ele>145.2</ele>
        <time>2024-03-20T14:04:31.000Z</time>
      </trkpt>
      <trkpt lat="43.51416" lon="5.28093">
        <ele>145.4</ele>
        <time>2024-03-20T14:04:33.000Z</time>
      </trkpt>
      <trkpt lat="43.51418" lon="5.28091">
        <ele>145.4</ele>
        <time>2024-03-20T14:04:35.000Z</time>
      </trkpt>
      <trkpt lat="43.5142" lon="5.28089">
        <ele>145.2</ele>
        <time>2024-03-20T14:04:38.000Z</time>
      </trkpt>
      <trkpt lat="43.51422" lon="5.28087">
        <ele>145.1</ele>
        <time>2024-03-20T14:04:40.000Z</time>
      </trkpt>
      <trkpt lat="43.51424" lon="5.28086">
        <ele>145</ele>
        <time>2024-03-20T14:04:42.000Z</time>
      </trkpt>
      <trkpt lat="43.51427" lon="5.28085">
        <ele>144.8</ele>
        <time>2024-03-20T14:04:45.000Z</time>
      </trkpt>
      <trkpt lat="43.51429" lon="5.28083">
        <ele>144.8</ele>
        <time>2024-03-20T14:04:51.000Z</time>
      </trkpt>
      <trkpt lat="43.51432" lon="5.28081">
        <ele>144.7</ele>
        <time>2024-03-20T14:04:54.000Z</time>
      </trkpt>
      <trkpt lat="43.51434" lon="5.28079">
        <ele>144.9</ele>
        <time>2024-03-20T14:04:56.000Z</time>
      </trkpt>
      <trkpt lat="43.51436" lon="5.28078">
        <ele>144.8</ele>
        <time>2024-03-20T14:04:58.000Z</time>
      </trkpt>
      <trkpt lat="43.51438" lon="5.28076">
        <ele>144.9</ele>
        <time>2024-03-20T14:05:00.000Z</time>
      </trkpt>
      <trkpt lat="43.5144" lon="5.28073">
        <ele>145.1</ele>
        <time>2024-03-20T14:05:02.000Z</time>
      </trkpt>
      <trkpt lat="43.51441" lon="5.28071">
        <ele>145.4</ele>
        <time>2024-03-20T14:05:04.000Z</time>
      </trkpt>
      <trkpt lat="43.51443" lon="5.28067">
        <ele>145.7</ele>
        <time>2024-03-20T14:05:07.000Z</time>
      </trkpt>
      <trkpt lat="43.51444" lon="5.28064">
        <ele>145.8</ele>
        <time>2024-03-20T14:05:09.000Z</time>
      </trkpt>
      <trkpt lat="43.51446" lon="5.28061">
        <ele>146</ele>
        <time>2024-03-20T14:05:12.000Z</time>
      </trkpt>
      <trkpt lat="43.51447" lon="5.28059">
        <ele>146</ele>
        <time>2024-03-20T14:05:14.000Z</time>
      </trkpt>
      <trkpt lat="43.51448" lon="5.28057">
        <ele>146.1</ele>
        <time>2024-03-20T14:05:16.000Z</time>
      </trkpt>
      <trkpt lat="43.51449" lon="5.28053">
        <ele>146.1</ele>
        <time>2024-03-20T14:05:18.000Z</time>
      </trkpt>
      <trkpt lat="43.51451" lon="5.28051">
        <ele>145.9</ele>
        <time>2024-03-20T14:05:20.000Z</time>
      </trkpt>
      <trkpt lat="43.51453" lon="5.28049">
        <ele>145.7</ele>
        <time>2024-03-20T14:05:22.000Z</time>
      </trkpt>
      <trkpt lat="43.51454" lon="5.28046">
        <ele>145.5</ele>
        <time>2024-03-20T14:05:25.000Z</time>
      </trkpt>
      <trkpt lat="43.51456" lon="5.28045">
        <ele>145.3</ele>
        <time>2024-03-20T14:05:27.000Z</time>
      </trkpt>
      <trkpt lat="43.51458" lon="5.28042">
        <ele>145.1</ele>
        <time>2024-03-20T14:05:30.000Z</time>
      </trkpt>
      <trkpt lat="43.5146" lon="5.28039">
        <ele>144.8</ele>
        <time>2024-03-20T14:05:33.000Z</time>
      </trkpt>
      <trkpt lat="43.51463" lon="5.28037">
        <ele>144.4</ele>
        <time>2024-03-20T14:05:36.000Z</time>
      </trkpt>
      <trkpt lat="43.51464" lon="5.28035">
        <ele>144.2</ele>
        <time>2024-03-20T14:05:39.000Z</time>
      </trkpt>
      <trkpt lat="43.51466" lon="5.28033">
        <ele>143.9</ele>
        <time>2024-03-20T14:05:42.000Z</time>
      </trkpt>
      <trkpt lat="43.51468" lon="5.28031">
        <ele>143.8</ele>
        <time>2024-03-20T14:05:44.000Z</time>
      </trkpt>
      <trkpt lat="43.51469" lon="5.28029">
        <ele>143.6</ele>
        <time>2024-03-20T14:05:46.000Z</time>
      </trkpt>
      <trkpt lat="43.51471" lon="5.28027">
        <ele>143.4</ele>
        <time>2024-03-20T14:05:48.000Z</time>
      </trkpt>
      <trkpt lat="43.51473" lon="5.28025">
        <ele>143.1</ele>
        <time>2024-03-20T14:05:50.000Z</time>
      </trkpt>
      <trkpt lat="43.51475" lon="5.28023">
        <ele>143</ele>
        <time>2024-03-20T14:05:53.000Z</time>
      </trkpt>
      <trkpt lat="43.51477" lon="5.28021">
        <ele>142.8</ele>
        <time>2024-03-20T14:05:55.000Z</time>
      </trkpt>
      <trkpt lat="43.51478" lon="5.28018">
        <ele>142.7</ele>
        <time>2024-03-20T14:05:58.000Z</time>
      </trkpt>
      <trkpt lat="43.5148" lon="5.28016">
        <ele>142.7</ele>
        <time>2024-03-20T14:06:00.000Z</time>
      </trkpt>
      <trkpt lat="43.51481" lon="5.28013">
        <ele>142.6</ele>
        <time>2024-03-20T14:06:02.000Z</time>
      </trkpt>
      <trkpt lat="43.51483" lon="5.2801">
        <ele>142.6</ele>
        <time>2024-03-20T14:06:04.000Z</time>
      </trkpt>
      <trkpt lat="43.51484" lon="5.28008">
        <ele>142.5</ele>
        <time>2024-03-20T14:06:05.000Z</time>
      </trkpt>
      <trkpt lat="43.51485" lon="5.28005">
        <ele>142.4</ele>
        <time>2024-03-20T14:06:07.000Z</time>
      </trkpt>
      <trkpt lat="43.51486" lon="5.28001">
        <ele>142.5</ele>
        <time>2024-03-20T14:06:09.000Z</time>
      </trkpt>
      <trkpt lat="43.51487" lon="5.27999">
        <ele>142.4</ele>
        <time>2024-03-20T14:06:11.000Z</time>
      </trkpt>
      <trkpt lat="43.51489" lon="5.27996">
        <ele>142.1</ele>
        <time>2024-03-20T14:06:14.000Z</time>
      </trkpt>
      <trkpt lat="43.5149" lon="5.27994">
        <ele>142</ele>
        <time>2024-03-20T14:06:16.000Z</time>
      </trkpt>
      <trkpt lat="43.51491" lon="5.2799">
        <ele>141.9</ele>
        <time>2024-03-20T14:06:19.000Z</time>
      </trkpt>
      <trkpt lat="43.51492" lon="5.27988">
        <ele>141.8</ele>
        <time>2024-03-20T14:06:21.000Z</time>
      </trkpt>
      <trkpt lat="43.51493" lon="5.27985">
        <ele>141.8</ele>
        <time>2024-03-20T14:06:23.000Z</time>
      </trkpt>
      <trkpt lat="43.51494" lon="5.27982">
        <ele>141.8</ele>
        <time>2024-03-20T14:06:25.000Z</time>
      </trkpt>
      <trkpt lat="43.51495" lon="5.27979">
        <ele>141.6</ele>
        <time>2024-03-20T14:06:27.000Z</time>
      </trkpt>
      <trkpt lat="43.51497" lon="5.27977">
        <ele>141.4</ele>
        <time>2024-03-20T14:06:29.000Z</time>
      </trkpt>
      <trkpt lat="43.51498" lon="5.27975">
        <ele>141.3</ele>
        <time>2024-03-20T14:06:31.000Z</time>
      </trkpt>
      <trkpt lat="43.515" lon="5.27972">
        <ele>141.1</ele>
        <time>2024-03-20T14:06:34.000Z</time>
      </trkpt>
      <trkpt lat="43.51501" lon="5.27969">
        <ele>141</ele>
        <time>2024-03-20T14:06:36.000Z</time>
      </trkpt>
      <trkpt lat="43.51502" lon="5.27967">
        <ele>140.8</ele>
        <time>2024-03-20T14:06:39.000Z</time>
      </trkpt>
      <trkpt lat="43.51503" lon="5.27964">
        <ele>140.6</ele>
        <time>2024-03-20T14:06:41.000Z</time>
      </trkpt>
      <trkpt lat="43.51504" lon="5.27961">
        <ele>140.6</ele>
        <time>2024-03-20T14:06:44.000Z</time>
      </trkpt>
      <trkpt lat="43.51505" lon="5.27958">
        <ele>140.4</ele>
        <time>2024-03-20T14:06:46.000Z</time>
      </trkpt>
      <trkpt lat="43.51506" lon="5.27955">
        <ele>140.3</ele>
        <time>2024-03-20T14:06:48.000Z</time>
      </trkpt>
      <trkpt lat="43.51508" lon="5.27951">
        <ele>140</ele>
        <time>2024-03-20T14:06:52.000Z</time>
      </trkpt>
      <trkpt lat="43.51509" lon="5.27948">
        <ele>139.9</ele>
        <time>2024-03-20T14:06:55.000Z</time>
      </trkpt>
      <trkpt lat="43.5151" lon="5.27945">
        <ele>139.9</ele>
        <time>2024-03-20T14:06:58.000Z</time>
      </trkpt>
      <trkpt lat="43.51511" lon="5.27943">
        <ele>139.7</ele>
        <time>2024-03-20T14:07:00.000Z</time>
      </trkpt>
      <trkpt lat="43.51512" lon="5.2794">
        <ele>139.5</ele>
        <time>2024-03-20T14:07:18.000Z</time>
      </trkpt>
      <trkpt lat="43.51512" lon="5.27937">
        <ele>139.5</ele>
        <time>2024-03-20T14:07:25.000Z</time>
      </trkpt>
      <trkpt lat="43.51514" lon="5.27937">
        <ele>138.9</ele>
        <time>2024-03-20T14:07:37.000Z</time>
      </trkpt>
      <trkpt lat="43.51516" lon="5.27937">
        <ele>138.5</ele>
        <time>2024-03-20T14:07:43.000Z</time>
      </trkpt>
      <trkpt lat="43.51518" lon="5.27935">
        <ele>138</ele>
        <time>2024-03-20T14:07:48.000Z</time>
      </trkpt>
      <trkpt lat="43.51521" lon="5.27935">
        <ele>137.6</ele>
        <time>2024-03-20T14:07:52.000Z</time>
      </trkpt>
      <trkpt lat="43.51523" lon="5.27936">
        <ele>137.1</ele>
        <time>2024-03-20T14:07:56.000Z</time>
      </trkpt>
      <trkpt lat="43.51526" lon="5.27937">
        <ele>136.4</ele>
        <time>2024-03-20T14:08:01.000Z</time>
      </trkpt>
      <trkpt lat="43.51528" lon="5.27938">
        <ele>136</ele>
        <time>2024-03-20T14:08:03.000Z</time>
      </trkpt>
      <trkpt lat="43.5153" lon="5.27939">
        <ele>136</ele>
        <time>2024-03-20T14:08:06.000Z</time>
      </trkpt>
      <trkpt lat="43.51532" lon="5.2794">
        <ele>135.9</ele>
        <time>2024-03-20T14:08:09.000Z</time>
      </trkpt>
      <trkpt lat="43.51535" lon="5.27941">
        <ele>135.8</ele>
        <time>2024-03-20T14:08:12.000Z</time>
      </trkpt>
      <trkpt lat="43.51537" lon="5.27941">
        <ele>135.8</ele>
        <time>2024-03-20T14:08:14.000Z</time>
      </trkpt>
      <trkpt lat="43.5154" lon="5.27941">
        <ele>135.7</ele>
        <time>2024-03-20T14:08:17.000Z</time>
      </trkpt>
      <trkpt lat="43.51542" lon="5.27942">
        <ele>135.6</ele>
        <time>2024-03-20T14:08:20.000Z</time>
      </trkpt>
      <trkpt lat="43.51544" lon="5.27943">
        <ele>135.5</ele>
        <time>2024-03-20T14:08:22.000Z</time>
      </trkpt>
      <trkpt lat="43.51546" lon="5.27945">
        <ele>135.4</ele>
        <time>2024-03-20T14:08:24.000Z</time>
      </trkpt>
      <trkpt lat="43.51547" lon="5.27946">
        <ele>135.2</ele>
        <time>2024-03-20T14:08:27.000Z</time>
      </trkpt>
      <trkpt lat="43.51548" lon="5.27948">
        <ele>135.1</ele>
        <time>2024-03-20T14:08:30.000Z</time>
      </trkpt>
      <trkpt lat="43.5155" lon="5.2795">
        <ele>135</ele>
        <time>2024-03-20T14:08:33.000Z</time>
      </trkpt>
      <trkpt lat="43.51553" lon="5.27952">
        <ele>134.8</ele>
        <time>2024-03-20T14:08:35.000Z</time>
      </trkpt>
      <trkpt lat="43.51554" lon="5.27954">
        <ele>134.7</ele>
        <time>2024-03-20T14:08:37.000Z</time>
      </trkpt>
      <trkpt lat="43.51556" lon="5.27957">
        <ele>134.6</ele>
        <time>2024-03-20T14:08:40.000Z</time>
      </trkpt>
      <trkpt lat="43.51557" lon="5.2796">
        <ele>134.6</ele>
        <time>2024-03-20T14:08:43.000Z</time>
      </trkpt>
      <trkpt lat="43.51559" lon="5.27962">
        <ele>134.7</ele>
        <time>2024-03-20T14:08:45.000Z</time>
      </trkpt>
      <trkpt lat="43.5156" lon="5.27964">
        <ele>134.7</ele>
        <time>2024-03-20T14:08:48.000Z</time>
      </trkpt>
      <trkpt lat="43.51561" lon="5.27967">
        <ele>134.6</ele>
        <time>2024-03-20T14:08:51.000Z</time>
      </trkpt>
      <trkpt lat="43.51563" lon="5.2797">
        <ele>134.7</ele>
        <time>2024-03-20T14:08:57.000Z</time>
      </trkpt>
      <trkpt lat="43.51565" lon="5.27972">
        <ele>134.6</ele>
        <time>2024-03-20T14:08:59.000Z</time>
      </trkpt>
      <trkpt lat="43.51565" lon="5.27975">
        <ele>134.6</ele>
        <time>2024-03-20T14:09:01.000Z</time>
      </trkpt>
      <trkpt lat="43.51566" lon="5.27978">
        <ele>134.5</ele>
        <time>2024-03-20T14:09:03.000Z</time>
      </trkpt>
      <trkpt lat="43.51567" lon="5.2798">
        <ele>134.4</ele>
        <time>2024-03-20T14:09:05.000Z</time>
      </trkpt>
      <trkpt lat="43.51568" lon="5.27983">
        <ele>134.3</ele>
        <time>2024-03-20T14:09:07.000Z</time>
      </trkpt>
      <trkpt lat="43.51569" lon="5.27986">
        <ele>134.2</ele>
        <time>2024-03-20T14:09:09.000Z</time>
      </trkpt>
      <trkpt lat="43.5157" lon="5.2799">
        <ele>134.1</ele>
        <time>2024-03-20T14:09:12.000Z</time>
      </trkpt>
      <trkpt lat="43.51571" lon="5.27993">
        <ele>134</ele>
        <time>2024-03-20T14:09:14.000Z</time>
      </trkpt>
      <trkpt lat="43.51571" lon="5.27996">
        <ele>133.8</ele>
        <time>2024-03-20T14:09:17.000Z</time>
      </trkpt>
      <trkpt lat="43.51573" lon="5.27999">
        <ele>133.7</ele>
        <time>2024-03-20T14:09:25.000Z</time>
      </trkpt>
      <trkpt lat="43.51573" lon="5.28002">
        <ele>133.5</ele>
        <time>2024-03-20T14:09:27.000Z</time>
      </trkpt>
      <trkpt lat="43.51574" lon="5.28005">
        <ele>133.3</ele>
        <time>2024-03-20T14:09:28.000Z</time>
      </trkpt>
      <trkpt lat="43.51574" lon="5.28007">
        <ele>133.1</ele>
        <time>2024-03-20T14:09:29.000Z</time>
      </trkpt>
      <trkpt lat="43.51575" lon="5.28011">
        <ele>132.8</ele>
        <time>2024-03-20T14:09:31.000Z</time>
      </trkpt>
      <trkpt lat="43.51577" lon="5.28015">
        <ele>132.4</ele>
        <time>2024-03-20T14:09:34.000Z</time>
      </trkpt>
      <trkpt lat="43.51577" lon="5.28018">
        <ele>132.2</ele>
        <time>2024-03-20T14:09:37.000Z</time>
      </trkpt>
      <trkpt lat="43.5158" lon="5.28019">
        <ele>132</ele>
        <time>2024-03-20T14:09:54.000Z</time>
      </trkpt>
      <trkpt lat="43.51582" lon="5.2802">
        <ele>131.9</ele>
        <time>2024-03-20T14:09:56.000Z</time>
      </trkpt>
      <trkpt lat="43.51584" lon="5.28018">
        <ele>132</ele>
        <time>2024-03-20T14:09:58.000Z</time>
      </trkpt>
      <trkpt lat="43.51584" lon="5.28015">
        <ele>132.4</ele>
        <time>2024-03-20T14:10:00.000Z</time>
      </trkpt>
      <trkpt lat="43.51586" lon="5.28014">
        <ele>132.7</ele>
        <time>2024-03-20T14:10:03.000Z</time>
      </trkpt>
      <trkpt lat="43.51587" lon="5.28011">
        <ele>133.2</ele>
        <time>2024-03-20T14:10:05.000Z</time>
      </trkpt>
      <trkpt lat="43.51588" lon="5.28009">
        <ele>133.5</ele>
        <time>2024-03-20T14:10:07.000Z</time>
      </trkpt>
      <trkpt lat="43.51589" lon="5.28005">
        <ele>134</ele>
        <time>2024-03-20T14:10:10.000Z</time>
      </trkpt>
      <trkpt lat="43.5159" lon="5.28003">
        <ele>134.4</ele>
        <time>2024-03-20T14:10:12.000Z</time>
      </trkpt>
      <trkpt lat="43.51592" lon="5.28">
        <ele>134.9</ele>
        <time>2024-03-20T14:10:14.000Z</time>
      </trkpt>
      <trkpt lat="43.51592" lon="5.27997">
        <ele>135.2</ele>
        <time>2024-03-20T14:10:18.000Z</time>
      </trkpt>
      <trkpt lat="43.51594" lon="5.27995">
        <ele>135.6</ele>
        <time>2024-03-20T14:10:20.000Z</time>
      </trkpt>
      <trkpt lat="43.51594" lon="5.27993">
        <ele>135.8</ele>
        <time>2024-03-20T14:10:24.000Z</time>
      </trkpt>
      <trkpt lat="43.51595" lon="5.2799">
        <ele>136.2</ele>
        <time>2024-03-20T14:10:26.000Z</time>
      </trkpt>
      <trkpt lat="43.51598" lon="5.27989">
        <ele>136.5</ele>
        <time>2024-03-20T14:10:31.000Z</time>
      </trkpt>
      <trkpt lat="43.51599" lon="5.27988">
        <ele>136.9</ele>
        <time>2024-03-20T14:10:34.000Z</time>
      </trkpt>
      <trkpt lat="43.51601" lon="5.27985">
        <ele>137.3</ele>
        <time>2024-03-20T14:10:38.000Z</time>
      </trkpt>
      <trkpt lat="43.51603" lon="5.27984">
        <ele>137.8</ele>
        <time>2024-03-20T14:10:42.000Z</time>
      </trkpt>
      <trkpt lat="43.51605" lon="5.27982">
        <ele>138.1</ele>
        <time>2024-03-20T14:10:45.000Z</time>
      </trkpt>
      <trkpt lat="43.51607" lon="5.2798">
        <ele>138.6</ele>
        <time>2024-03-20T14:10:49.000Z</time>
      </trkpt>
      <trkpt lat="43.51608" lon="5.27978">
        <ele>139</ele>
        <time>2024-03-20T14:10:52.000Z</time>
      </trkpt>
      <trkpt lat="43.5161" lon="5.27976">
        <ele>139.4</ele>
        <time>2024-03-20T14:10:55.000Z</time>
      </trkpt>
      <trkpt lat="43.51611" lon="5.27974">
        <ele>139.8</ele>
        <time>2024-03-20T14:11:00.000Z</time>
      </trkpt>
      <trkpt lat="43.51612" lon="5.27972">
        <ele>140.1</ele>
        <time>2024-03-20T14:11:03.000Z</time>
      </trkpt>
      <trkpt lat="43.51614" lon="5.27969">
        <ele>140.3</ele>
        <time>2024-03-20T14:11:06.000Z</time>
      </trkpt>
      <trkpt lat="43.51615" lon="5.27966">
        <ele>140.6</ele>
        <time>2024-03-20T14:11:10.000Z</time>
      </trkpt>
      <trkpt lat="43.51616" lon="5.27964">
        <ele>140.9</ele>
        <time>2024-03-20T14:11:14.000Z</time>
      </trkpt>
      <trkpt lat="43.51617" lon="5.27962">
        <ele>141.1</ele>
        <time>2024-03-20T14:11:17.000Z</time>
      </trkpt>
      <trkpt lat="43.51618" lon="5.2796">
        <ele>141.4</ele>
        <time>2024-03-20T14:11:23.000Z</time>
      </trkpt>
      <trkpt lat="43.51621" lon="5.27961">
        <ele>141.7</ele>
        <time>2024-03-20T14:11:27.000Z</time>
      </trkpt>
      <trkpt lat="43.51623" lon="5.27959">
        <ele>142.1</ele>
        <time>2024-03-20T14:11:32.000Z</time>
      </trkpt>
      <trkpt lat="43.51624" lon="5.27956">
        <ele>142.5</ele>
        <time>2024-03-20T14:11:34.000Z</time>
      </trkpt>
      <trkpt lat="43.51626" lon="5.27955">
        <ele>142.9</ele>
        <time>2024-03-20T14:11:40.000Z</time>
      </trkpt>
      <trkpt lat="43.51629" lon="5.27954">
        <ele>143.6</ele>
        <time>2024-03-20T14:11:42.000Z</time>
      </trkpt>
      <trkpt lat="43.5163" lon="5.27954">
        <ele>143.9</ele>
        <time>2024-03-20T14:11:45.000Z</time>
      </trkpt>
      <trkpt lat="43.51632" lon="5.27952">
        <ele>144.4</ele>
        <time>2024-03-20T14:11:49.000Z</time>
      </trkpt>
      <trkpt lat="43.51634" lon="5.27949">
        <ele>145.1</ele>
        <time>2024-03-20T14:11:54.000Z</time>
      </trkpt>
      <trkpt lat="43.51635" lon="5.27948">
        <ele>145.7</ele>
        <time>2024-03-20T14:11:58.000Z</time>
      </trkpt>
      <trkpt lat="43.51638" lon="5.27945">
        <ele>146.6</ele>
        <time>2024-03-20T14:12:03.000Z</time>
      </trkpt>
      <trkpt lat="43.51639" lon="5.27944">
        <ele>147</ele>
        <time>2024-03-20T14:12:06.000Z</time>
      </trkpt>
      <trkpt lat="43.51641" lon="5.27942">
        <ele>147.2</ele>
        <time>2024-03-20T14:12:09.000Z</time>
      </trkpt>
      <trkpt lat="43.51642" lon="5.2794">
        <ele>147.3</ele>
        <time>2024-03-20T14:12:11.000Z</time>
      </trkpt>
      <trkpt lat="43.51644" lon="5.27939">
        <ele>147.5</ele>
        <time>2024-03-20T14:12:14.000Z</time>
      </trkpt>
      <trkpt lat="43.51646" lon="5.27938">
        <ele>147.6</ele>
        <time>2024-03-20T14:12:20.000Z</time>
      </trkpt>
      <trkpt lat="43.51649" lon="5.27938">
        <ele>147.7</ele>
        <time>2024-03-20T14:12:23.000Z</time>
      </trkpt>
      <trkpt lat="43.51652" lon="5.27936">
        <ele>148.1</ele>
        <time>2024-03-20T14:12:28.000Z</time>
      </trkpt>
      <trkpt lat="43.51655" lon="5.27935">
        <ele>148.3</ele>
        <time>2024-03-20T14:12:31.000Z</time>
      </trkpt>
      <trkpt lat="43.51657" lon="5.27934">
        <ele>148.5</ele>
        <time>2024-03-20T14:12:34.000Z</time>
      </trkpt>
      <trkpt lat="43.51659" lon="5.27934">
        <ele>148.6</ele>
        <time>2024-03-20T14:12:36.000Z</time>
      </trkpt>
      <trkpt lat="43.51661" lon="5.27934">
        <ele>148.8</ele>
        <time>2024-03-20T14:12:39.000Z</time>
      </trkpt>
      <trkpt lat="43.51663" lon="5.27933">
        <ele>149</ele>
        <time>2024-03-20T14:12:41.000Z</time>
      </trkpt>
      <trkpt lat="43.51665" lon="5.27933">
        <ele>149.1</ele>
        <time>2024-03-20T14:12:43.000Z</time>
      </trkpt>
      <trkpt lat="43.51667" lon="5.27933">
        <ele>149.3</ele>
        <time>2024-03-20T14:12:46.000Z</time>
      </trkpt>
      <trkpt lat="43.51669" lon="5.27932">
        <ele>149.4</ele>
        <time>2024-03-20T14:12:49.000Z</time>
      </trkpt>
      <trkpt lat="43.51671" lon="5.27933">
        <ele>149.5</ele>
        <time>2024-03-20T14:12:54.000Z</time>
      </trkpt>
      <trkpt lat="43.51673" lon="5.27932">
        <ele>149.7</ele>
        <time>2024-03-20T14:12:57.000Z</time>
      </trkpt>
      <trkpt lat="43.51675" lon="5.27928">
        <ele>150.2</ele>
        <time>2024-03-20T14:13:12.000Z</time>
      </trkpt>
      <trkpt lat="43.51677" lon="5.27928">
        <ele>150.3</ele>
        <time>2024-03-20T14:14:39.000Z</time>
      </trkpt>
      <trkpt lat="43.51678" lon="5.27926">
        <ele>150.5</ele>
        <time>2024-03-20T14:15:35.000Z</time>
      </trkpt>
      <trkpt lat="43.51679" lon="5.27929">
        <ele>150.3</ele>
        <time>2024-03-20T14:15:46.000Z</time>
      </trkpt>
      <trkpt lat="43.5168" lon="5.27931">
        <ele>150.1</ele>
        <time>2024-03-20T14:15:52.000Z</time>
      </trkpt>
      <trkpt lat="43.51682" lon="5.27932">
        <ele>150.2</ele>
        <time>2024-03-20T14:15:55.000Z</time>
      </trkpt>
      <trkpt lat="43.51684" lon="5.2793">
        <ele>150.4</ele>
        <time>2024-03-20T14:15:57.000Z</time>
      </trkpt>
      <trkpt lat="43.51686" lon="5.2793">
        <ele>150.6</ele>
        <time>2024-03-20T14:16:00.000Z</time>
      </trkpt>
      <trkpt lat="43.51688" lon="5.27931">
        <ele>150.6</ele>
        <time>2024-03-20T14:16:02.000Z</time>
      </trkpt>
      <trkpt lat="43.5169" lon="5.27932">
        <ele>150.6</ele>
        <time>2024-03-20T14:16:04.000Z</time>
      </trkpt>
      <trkpt lat="43.51692" lon="5.27932">
        <ele>150.8</ele>
        <time>2024-03-20T14:16:07.000Z</time>
      </trkpt>
      <trkpt lat="43.51694" lon="5.27932">
        <ele>150.9</ele>
        <time>2024-03-20T14:16:09.000Z</time>
      </trkpt>
      <trkpt lat="43.51697" lon="5.27932">
        <ele>150.6</ele>
        <time>2024-03-20T14:16:11.000Z</time>
      </trkpt>
      <trkpt lat="43.51699" lon="5.27931">
        <ele>150.3</ele>
        <time>2024-03-20T14:16:15.000Z</time>
      </trkpt>
      <trkpt lat="43.51701" lon="5.27931">
        <ele>150</ele>
        <time>2024-03-20T14:16:18.000Z</time>
      </trkpt>
      <trkpt lat="43.51703" lon="5.27929">
        <ele>149.9</ele>
        <time>2024-03-20T14:16:21.000Z</time>
      </trkpt>
      <trkpt lat="43.51704" lon="5.27928">
        <ele>149.8</ele>
        <time>2024-03-20T14:16:23.000Z</time>
      </trkpt>
      <trkpt lat="43.51706" lon="5.27926">
        <ele>149.7</ele>
        <time>2024-03-20T14:16:25.000Z</time>
      </trkpt>
      <trkpt lat="43.51707" lon="5.27924">
        <ele>149.6</ele>
        <time>2024-03-20T14:16:27.000Z</time>
      </trkpt>
      <trkpt lat="43.51708" lon="5.27922">
        <ele>149.6</ele>
        <time>2024-03-20T14:16:29.000Z</time>
      </trkpt>
      <trkpt lat="43.5171" lon="5.2792">
        <ele>149.5</ele>
        <time>2024-03-20T14:16:32.000Z</time>
      </trkpt>
      <trkpt lat="43.51712" lon="5.27918">
        <ele>149.4</ele>
        <time>2024-03-20T14:16:35.000Z</time>
      </trkpt>
      <trkpt lat="43.51714" lon="5.27916">
        <ele>149.4</ele>
        <time>2024-03-20T14:16:37.000Z</time>
      </trkpt>
      <trkpt lat="43.51715" lon="5.27914">
        <ele>149.6</ele>
        <time>2024-03-20T14:16:39.000Z</time>
      </trkpt>
      <trkpt lat="43.51716" lon="5.27911">
        <ele>149.9</ele>
        <time>2024-03-20T14:16:41.000Z</time>
      </trkpt>
      <trkpt lat="43.51718" lon="5.27909">
        <ele>150</ele>
        <time>2024-03-20T14:16:43.000Z</time>
      </trkpt>
      <trkpt lat="43.51719" lon="5.27907">
        <ele>150.3</ele>
        <time>2024-03-20T14:16:45.000Z</time>
      </trkpt>
      <trkpt lat="43.51721" lon="5.27905">
        <ele>150.4</ele>
        <time>2024-03-20T14:16:47.000Z</time>
      </trkpt>
      <trkpt lat="43.51722" lon="5.27901">
        <ele>150.8</ele>
        <time>2024-03-20T14:16:50.000Z</time>
      </trkpt>
      <trkpt lat="43.51724" lon="5.27898">
        <ele>151.1</ele>
        <time>2024-03-20T14:16:53.000Z</time>
      </trkpt>
      <trkpt lat="43.51725" lon="5.27896">
        <ele>151.3</ele>
        <time>2024-03-20T14:16:55.000Z</time>
      </trkpt>
      <trkpt lat="43.51728" lon="5.27893">
        <ele>151.4</ele>
        <time>2024-03-20T14:16:58.000Z</time>
      </trkpt>
      <trkpt lat="43.51729" lon="5.27891">
        <ele>151.6</ele>
        <time>2024-03-20T14:17:00.000Z</time>
      </trkpt>
      <trkpt lat="43.5173" lon="5.27889">
        <ele>151.9</ele>
        <time>2024-03-20T14:17:02.000Z</time>
      </trkpt>
      <trkpt lat="43.51732" lon="5.27887">
        <ele>152</ele>
        <time>2024-03-20T14:17:04.000Z</time>
      </trkpt>
      <trkpt lat="43.51734" lon="5.27885">
        <ele>152.3</ele>
        <time>2024-03-20T14:17:07.000Z</time>
      </trkpt>
      <trkpt lat="43.51735" lon="5.27882">
        <ele>152.6</ele>
        <time>2024-03-20T14:17:09.000Z</time>
      </trkpt>
      <trkpt lat="43.51737" lon="5.2788">
        <ele>152.6</ele>
        <time>2024-03-20T14:17:12.000Z</time>
      </trkpt>
      <trkpt lat="43.51739" lon="5.27877">
        <ele>152.8</ele>
        <time>2024-03-20T14:17:14.000Z</time>
      </trkpt>
      <trkpt lat="43.51742" lon="5.27876">
        <ele>152.5</ele>
        <time>2024-03-20T14:17:17.000Z</time>
      </trkpt>
      <trkpt lat="43.51744" lon="5.27874">
        <ele>152.4</ele>
        <time>2024-03-20T14:17:19.000Z</time>
      </trkpt>
      <trkpt lat="43.51746" lon="5.27872">
        <ele>152.2</ele>
        <time>2024-03-20T14:17:22.000Z</time>
      </trkpt>
      <trkpt lat="43.51748" lon="5.27869">
        <ele>152.3</ele>
        <time>2024-03-20T14:17:24.000Z</time>
      </trkpt>
      <trkpt lat="43.5175" lon="5.27867">
        <ele>152.2</ele>
        <time>2024-03-20T14:17:26.000Z</time>
      </trkpt>
      <trkpt lat="43.51752" lon="5.27865">
        <ele>152.4</ele>
        <time>2024-03-20T14:17:28.000Z</time>
      </trkpt>
      <trkpt lat="43.51753" lon="5.27861">
        <ele>152.9</ele>
        <time>2024-03-20T14:17:30.000Z</time>
      </trkpt>
      <trkpt lat="43.51755" lon="5.27858">
        <ele>153.2</ele>
        <time>2024-03-20T14:17:32.000Z</time>
      </trkpt>
      <trkpt lat="43.51756" lon="5.27855">
        <ele>153.6</ele>
        <time>2024-03-20T14:17:34.000Z</time>
      </trkpt>
      <trkpt lat="43.51757" lon="5.27852">
        <ele>153.9</ele>
        <time>2024-03-20T14:17:36.000Z</time>
      </trkpt>
      <trkpt lat="43.51758" lon="5.2785">
        <ele>154.2</ele>
        <time>2024-03-20T14:17:38.000Z</time>
      </trkpt>
      <trkpt lat="43.51759" lon="5.27846">
        <ele>154.7</ele>
        <time>2024-03-20T14:17:41.000Z</time>
      </trkpt>
      <trkpt lat="43.51759" lon="5.27843">
        <ele>155</ele>
        <time>2024-03-20T14:17:43.000Z</time>
      </trkpt>
      <trkpt lat="43.5176" lon="5.27841">
        <ele>155.3</ele>
        <time>2024-03-20T14:17:45.000Z</time>
      </trkpt>
      <trkpt lat="43.51762" lon="5.27838">
        <ele>155.6</ele>
        <time>2024-03-20T14:17:47.000Z</time>
      </trkpt>
      <trkpt lat="43.51765" lon="5.27838">
        <ele>155.4</ele>
        <time>2024-03-20T14:17:51.000Z</time>
      </trkpt>
      <trkpt lat="43.51767" lon="5.27838">
        <ele>155.2</ele>
        <time>2024-03-20T14:17:54.000Z</time>
      </trkpt>
      <trkpt lat="43.51769" lon="5.27837">
        <ele>155.2</ele>
        <time>2024-03-20T14:17:56.000Z</time>
      </trkpt>
      <trkpt lat="43.51771" lon="5.27838">
        <ele>155</ele>
        <time>2024-03-20T14:17:58.000Z</time>
      </trkpt>
      <trkpt lat="43.51773" lon="5.27839">
        <ele>154.7</ele>
        <time>2024-03-20T14:18:00.000Z</time>
      </trkpt>
      <trkpt lat="43.51776" lon="5.2784">
        <ele>154.4</ele>
        <time>2024-03-20T14:18:02.000Z</time>
      </trkpt>
      <trkpt lat="43.51778" lon="5.27841">
        <ele>154.2</ele>
        <time>2024-03-20T14:18:04.000Z</time>
      </trkpt>
      <trkpt lat="43.5178" lon="5.27841">
        <ele>154.1</ele>
        <time>2024-03-20T14:18:06.000Z</time>
      </trkpt>
      <trkpt lat="43.51783" lon="5.27841">
        <ele>154</ele>
        <time>2024-03-20T14:18:08.000Z</time>
      </trkpt>
      <trkpt lat="43.51785" lon="5.27841">
        <ele>153.9</ele>
        <time>2024-03-20T14:18:10.000Z</time>
      </trkpt>
      <trkpt lat="43.51787" lon="5.27841">
        <ele>153.8</ele>
        <time>2024-03-20T14:18:12.000Z</time>
      </trkpt>
      <trkpt lat="43.51789" lon="5.27841">
        <ele>153.7</ele>
        <time>2024-03-20T14:18:14.000Z</time>
      </trkpt>
      <trkpt lat="43.51792" lon="5.27841">
        <ele>153.6</ele>
        <time>2024-03-20T14:18:18.000Z</time>
      </trkpt>
      <trkpt lat="43.51794" lon="5.27841">
        <ele>153.5</ele>
        <time>2024-03-20T14:18:20.000Z</time>
      </trkpt>
      <trkpt lat="43.51797" lon="5.27841">
        <ele>153.5</ele>
        <time>2024-03-20T14:18:22.000Z</time>
      </trkpt>
      <trkpt lat="43.51799" lon="5.2784">
        <ele>153.5</ele>
        <time>2024-03-20T14:18:24.000Z</time>
      </trkpt>
      <trkpt lat="43.51802" lon="5.2784">
        <ele>153.4</ele>
        <time>2024-03-20T14:18:27.000Z</time>
      </trkpt>
      <trkpt lat="43.51805" lon="5.2784">
        <ele>153.3</ele>
        <time>2024-03-20T14:18:30.000Z</time>
      </trkpt>
      <trkpt lat="43.51807" lon="5.2784">
        <ele>153.4</ele>
        <time>2024-03-20T14:18:32.000Z</time>
      </trkpt>
      <trkpt lat="43.5181" lon="5.2784">
        <ele>153.5</ele>
        <time>2024-03-20T14:18:34.000Z</time>
      </trkpt>
      <trkpt lat="43.51812" lon="5.2784">
        <ele>153.8</ele>
        <time>2024-03-20T14:18:37.000Z</time>
      </trkpt>
      <trkpt lat="43.51814" lon="5.27839">
        <ele>154</ele>
        <time>2024-03-20T14:18:40.000Z</time>
      </trkpt>
      <trkpt lat="43.51817" lon="5.27838">
        <ele>154.3</ele>
        <time>2024-03-20T14:18:42.000Z</time>
      </trkpt>
      <trkpt lat="43.51819" lon="5.27838">
        <ele>154.5</ele>
        <time>2024-03-20T14:18:44.000Z</time>
      </trkpt>
      <trkpt lat="43.51822" lon="5.27838">
        <ele>154.7</ele>
        <time>2024-03-20T14:18:46.000Z</time>
      </trkpt>
      <trkpt lat="43.51825" lon="5.27838">
        <ele>154.9</ele>
        <time>2024-03-20T14:18:48.000Z</time>
      </trkpt>
      <trkpt lat="43.51828" lon="5.27839">
        <ele>155</ele>
        <time>2024-03-20T14:18:50.000Z</time>
      </trkpt>
      <trkpt lat="43.5183" lon="5.2784">
        <ele>155.1</ele>
        <time>2024-03-20T14:18:52.000Z</time>
      </trkpt>
      <trkpt lat="43.51832" lon="5.27842">
        <ele>155</ele>
        <time>2024-03-20T14:18:54.000Z</time>
      </trkpt>
      <trkpt lat="43.51834" lon="5.27844">
        <ele>155.1</ele>
        <time>2024-03-20T14:18:57.000Z</time>
      </trkpt>
      <trkpt lat="43.51837" lon="5.27846">
        <ele>155.5</ele>
        <time>2024-03-20T14:19:00.000Z</time>
      </trkpt>
      <trkpt lat="43.51839" lon="5.27847">
        <ele>155.9</ele>
        <time>2024-03-20T14:19:02.000Z</time>
      </trkpt>
      <trkpt lat="43.5184" lon="5.27848">
        <ele>156</ele>
        <time>2024-03-20T14:19:04.000Z</time>
      </trkpt>
      <trkpt lat="43.51842" lon="5.2785">
        <ele>156.3</ele>
        <time>2024-03-20T14:19:06.000Z</time>
      </trkpt>
      <trkpt lat="43.51845" lon="5.27852">
        <ele>156.7</ele>
        <time>2024-03-20T14:19:08.000Z</time>
      </trkpt>
      <trkpt lat="43.51846" lon="5.27854">
        <ele>156.9</ele>
        <time>2024-03-20T14:19:10.000Z</time>
      </trkpt>
      <trkpt lat="43.51848" lon="5.27855">
        <ele>157.1</ele>
        <time>2024-03-20T14:19:13.000Z</time>
      </trkpt>
      <trkpt lat="43.5185" lon="5.27856">
        <ele>157.5</ele>
        <time>2024-03-20T14:19:15.000Z</time>
      </trkpt>
      <trkpt lat="43.51852" lon="5.27857">
        <ele>157.7</ele>
        <time>2024-03-20T14:19:17.000Z</time>
      </trkpt>
      <trkpt lat="43.51854" lon="5.27857">
        <ele>158.2</ele>
        <time>2024-03-20T14:19:19.000Z</time>
      </trkpt>
      <trkpt lat="43.51857" lon="5.27856">
        <ele>158.8</ele>
        <time>2024-03-20T14:19:21.000Z</time>
      </trkpt>
      <trkpt lat="43.51858" lon="5.27857">
        <ele>159.1</ele>
        <time>2024-03-20T14:19:23.000Z</time>
      </trkpt>
      <trkpt lat="43.5186" lon="5.27857">
        <ele>159.5</ele>
        <time>2024-03-20T14:19:25.000Z</time>
      </trkpt>
      <trkpt lat="43.51862" lon="5.27859">
        <ele>159.4</ele>
        <time>2024-03-20T14:19:27.000Z</time>
      </trkpt>
      <trkpt lat="43.51864" lon="5.2786">
        <ele>159.1</ele>
        <time>2024-03-20T14:19:29.000Z</time>
      </trkpt>
      <trkpt lat="43.51867" lon="5.2786">
        <ele>159</ele>
        <time>2024-03-20T14:19:32.000Z</time>
      </trkpt>
      <trkpt lat="43.51869" lon="5.27861">
        <ele>158.7</ele>
        <time>2024-03-20T14:19:35.000Z</time>
      </trkpt>
      <trkpt lat="43.51871" lon="5.27862">
        <ele>158.6</ele>
        <time>2024-03-20T14:19:37.000Z</time>
      </trkpt>
      <trkpt lat="43.51874" lon="5.27862">
        <ele>158.4</ele>
        <time>2024-03-20T14:19:40.000Z</time>
      </trkpt>
      <trkpt lat="43.51876" lon="5.27862">
        <ele>158.4</ele>
        <time>2024-03-20T14:19:42.000Z</time>
      </trkpt>
      <trkpt lat="43.51878" lon="5.27862">
        <ele>158.3</ele>
        <time>2024-03-20T14:19:46.000Z</time>
      </trkpt>
      <trkpt lat="43.5188" lon="5.2786">
        <ele>158.5</ele>
        <time>2024-03-20T14:19:51.000Z</time>
      </trkpt>
      <trkpt lat="43.51882" lon="5.27863">
        <ele>157.9</ele>
        <time>2024-03-20T14:19:56.000Z</time>
      </trkpt>
      <trkpt lat="43.51884" lon="5.27863">
        <ele>157.9</ele>
        <time>2024-03-20T14:19:59.000Z</time>
      </trkpt>
      <trkpt lat="43.51886" lon="5.27863">
        <ele>157.7</ele>
        <time>2024-03-20T14:20:01.000Z</time>
      </trkpt>
      <trkpt lat="43.51889" lon="5.27864">
        <ele>157.6</ele>
        <time>2024-03-20T14:20:04.000Z</time>
      </trkpt>
      <trkpt lat="43.51891" lon="5.27863">
        <ele>157.4</ele>
        <time>2024-03-20T14:20:06.000Z</time>
      </trkpt>
      <trkpt lat="43.51894" lon="5.27863">
        <ele>157.2</ele>
        <time>2024-03-20T14:20:10.000Z</time>
      </trkpt>
      <trkpt lat="43.51896" lon="5.27863">
        <ele>157.1</ele>
        <time>2024-03-20T14:20:12.000Z</time>
      </trkpt>
      <trkpt lat="43.51898" lon="5.27863">
        <ele>156.8</ele>
        <time>2024-03-20T14:20:15.000Z</time>
      </trkpt>
      <trkpt lat="43.519" lon="5.27863">
        <ele>156.6</ele>
        <time>2024-03-20T14:20:17.000Z</time>
      </trkpt>
      <trkpt lat="43.51903" lon="5.27864">
        <ele>156.2</ele>
        <time>2024-03-20T14:20:20.000Z</time>
      </trkpt>
      <trkpt lat="43.51905" lon="5.27864">
        <ele>156</ele>
        <time>2024-03-20T14:20:22.000Z</time>
      </trkpt>
      <trkpt lat="43.51907" lon="5.27864">
        <ele>155.7</ele>
        <time>2024-03-20T14:20:25.000Z</time>
      </trkpt>
      <trkpt lat="43.5191" lon="5.27864">
        <ele>155.5</ele>
        <time>2024-03-20T14:20:27.000Z</time>
      </trkpt>
      <trkpt lat="43.51913" lon="5.27863">
        <ele>155.3</ele>
        <time>2024-03-20T14:20:29.000Z</time>
      </trkpt>
      <trkpt lat="43.51915" lon="5.27862">
        <ele>155.1</ele>
        <time>2024-03-20T14:20:31.000Z</time>
      </trkpt>
      <trkpt lat="43.51917" lon="5.27862">
        <ele>154.9</ele>
        <time>2024-03-20T14:20:33.000Z</time>
      </trkpt>
      <trkpt lat="43.5192" lon="5.27861">
        <ele>154.8</ele>
        <time>2024-03-20T14:20:36.000Z</time>
      </trkpt>
      <trkpt lat="43.51922" lon="5.27859">
        <ele>154.7</ele>
        <time>2024-03-20T14:20:38.000Z</time>
      </trkpt>
      <trkpt lat="43.51925" lon="5.27859">
        <ele>154.6</ele>
        <time>2024-03-20T14:20:40.000Z</time>
      </trkpt>
      <trkpt lat="43.51927" lon="5.27859">
        <ele>154.4</ele>
        <time>2024-03-20T14:20:41.000Z</time>
      </trkpt>
      <trkpt lat="43.51929" lon="5.27858">
        <ele>154.3</ele>
        <time>2024-03-20T14:20:43.000Z</time>
      </trkpt>
      <trkpt lat="43.5193" lon="5.27857">
        <ele>154.2</ele>
        <time>2024-03-20T14:20:45.000Z</time>
      </trkpt>
      <trkpt lat="43.51933" lon="5.27855">
        <ele>154.2</ele>
        <time>2024-03-20T14:20:47.000Z</time>
      </trkpt>
      <trkpt lat="43.51935" lon="5.27853">
        <ele>154.1</ele>
        <time>2024-03-20T14:20:49.000Z</time>
      </trkpt>
      <trkpt lat="43.51938" lon="5.2785">
        <ele>154</ele>
        <time>2024-03-20T14:20:51.000Z</time>
      </trkpt>
      <trkpt lat="43.5194" lon="5.27848">
        <ele>153.9</ele>
        <time>2024-03-20T14:20:53.000Z</time>
      </trkpt>
      <trkpt lat="43.51941" lon="5.27846">
        <ele>153.9</ele>
        <time>2024-03-20T14:20:55.000Z</time>
      </trkpt>
      <trkpt lat="43.51941" lon="5.27843">
        <ele>154</ele>
        <time>2024-03-20T14:20:56.000Z</time>
      </trkpt>
      <trkpt lat="43.51942" lon="5.2784">
        <ele>154</ele>
        <time>2024-03-20T14:20:57.000Z</time>
      </trkpt>
      <trkpt lat="43.51944" lon="5.27839">
        <ele>153.9</ele>
        <time>2024-03-20T14:21:01.000Z</time>
      </trkpt>
      <trkpt lat="43.51945" lon="5.27837">
        <ele>153.8</ele>
        <time>2024-03-20T14:21:03.000Z</time>
      </trkpt>
      <trkpt lat="43.51947" lon="5.27835">
        <ele>153.6</ele>
        <time>2024-03-20T14:21:05.000Z</time>
      </trkpt>
      <trkpt lat="43.5195" lon="5.27833">
        <ele>153.5</ele>
        <time>2024-03-20T14:21:08.000Z</time>
      </trkpt>
      <trkpt lat="43.51953" lon="5.27833">
        <ele>153.1</ele>
        <time>2024-03-20T14:21:10.000Z</time>
      </trkpt>
      <trkpt lat="43.51955" lon="5.27833">
        <ele>152.9</ele>
        <time>2024-03-20T14:21:12.000Z</time>
      </trkpt>
      <trkpt lat="43.51958" lon="5.27833">
        <ele>152.6</ele>
        <time>2024-03-20T14:21:15.000Z</time>
      </trkpt>
      <trkpt lat="43.5196" lon="5.27832">
        <ele>152.4</ele>
        <time>2024-03-20T14:21:17.000Z</time>
      </trkpt>
      <trkpt lat="43.51962" lon="5.27832">
        <ele>152.3</ele>
        <time>2024-03-20T14:21:20.000Z</time>
      </trkpt>
      <trkpt lat="43.51964" lon="5.27831">
        <ele>152</ele>
        <time>2024-03-20T14:21:23.000Z</time>
      </trkpt>
      <trkpt lat="43.51966" lon="5.2783">
        <ele>151.9</ele>
        <time>2024-03-20T14:21:25.000Z</time>
      </trkpt>
      <trkpt lat="43.51969" lon="5.27826">
        <ele>151.9</ele>
        <time>2024-03-20T14:21:27.000Z</time>
      </trkpt>
      <trkpt lat="43.51971" lon="5.27822">
        <ele>151.9</ele>
        <time>2024-03-20T14:21:29.000Z</time>
      </trkpt>
      <trkpt lat="43.51973" lon="5.2782">
        <ele>152</ele>
        <time>2024-03-20T14:21:31.000Z</time>
      </trkpt>
      <trkpt lat="43.51974" lon="5.27817">
        <ele>152</ele>
        <time>2024-03-20T14:21:33.000Z</time>
      </trkpt>
      <trkpt lat="43.51976" lon="5.27814">
        <ele>152.1</ele>
        <time>2024-03-20T14:21:36.000Z</time>
      </trkpt>
      <trkpt lat="43.51978" lon="5.27812">
        <ele>152.1</ele>
        <time>2024-03-20T14:21:38.000Z</time>
      </trkpt>
      <trkpt lat="43.5198" lon="5.27808">
        <ele>152</ele>
        <time>2024-03-20T14:21:40.000Z</time>
      </trkpt>
      <trkpt lat="43.51981" lon="5.27806">
        <ele>152.1</ele>
        <time>2024-03-20T14:21:42.000Z</time>
      </trkpt>
      <trkpt lat="43.51982" lon="5.27802">
        <ele>152.2</ele>
        <time>2024-03-20T14:21:44.000Z</time>
      </trkpt>
      <trkpt lat="43.51984" lon="5.27799">
        <ele>152.1</ele>
        <time>2024-03-20T14:21:46.000Z</time>
      </trkpt>
      <trkpt lat="43.51985" lon="5.27797">
        <ele>152.1</ele>
        <time>2024-03-20T14:21:48.000Z</time>
      </trkpt>
      <trkpt lat="43.51987" lon="5.27795">
        <ele>152</ele>
        <time>2024-03-20T14:21:50.000Z</time>
      </trkpt>
      <trkpt lat="43.51988" lon="5.27793">
        <ele>151.9</ele>
        <time>2024-03-20T14:21:52.000Z</time>
      </trkpt>
      <trkpt lat="43.51989" lon="5.27791">
        <ele>151.9</ele>
        <time>2024-03-20T14:21:54.000Z</time>
      </trkpt>
      <trkpt lat="43.51991" lon="5.27789">
        <ele>151.8</ele>
        <time>2024-03-20T14:21:57.000Z</time>
      </trkpt>
      <trkpt lat="43.51992" lon="5.27786">
        <ele>151.7</ele>
        <time>2024-03-20T14:22:00.000Z</time>
      </trkpt>
      <trkpt lat="43.51994" lon="5.27784">
        <ele>151.7</ele>
        <time>2024-03-20T14:22:02.000Z</time>
      </trkpt>
      <trkpt lat="43.51995" lon="5.2778">
        <ele>151.6</ele>
        <time>2024-03-20T14:22:04.000Z</time>
      </trkpt>
      <trkpt lat="43.51997" lon="5.27778">
        <ele>151.5</ele>
        <time>2024-03-20T14:22:06.000Z</time>
      </trkpt>
      <trkpt lat="43.51998" lon="5.27776">
        <ele>151.4</ele>
        <time>2024-03-20T14:22:09.000Z</time>
      </trkpt>
      <trkpt lat="43.51999" lon="5.27773">
        <ele>151.4</ele>
        <time>2024-03-20T14:22:10.000Z</time>
      </trkpt>
      <trkpt lat="43.52" lon="5.27771">
        <ele>151.2</ele>
        <time>2024-03-20T14:22:12.000Z</time>
      </trkpt>
      <trkpt lat="43.52001" lon="5.27769">
        <ele>151.2</ele>
        <time>2024-03-20T14:22:14.000Z</time>
      </trkpt>
      <trkpt lat="43.52003" lon="5.27765">
        <ele>151.3</ele>
        <time>2024-03-20T14:22:16.000Z</time>
      </trkpt>
      <trkpt lat="43.52004" lon="5.27762">
        <ele>151.3</ele>
        <time>2024-03-20T14:22:18.000Z</time>
      </trkpt>
      <trkpt lat="43.52005" lon="5.27759">
        <ele>151.2</ele>
        <time>2024-03-20T14:22:20.000Z</time>
      </trkpt>
      <trkpt lat="43.52007" lon="5.27756">
        <ele>151.2</ele>
        <time>2024-03-20T14:22:22.000Z</time>
      </trkpt>
      <trkpt lat="43.52009" lon="5.27753">
        <ele>151</ele>
        <time>2024-03-20T14:22:25.000Z</time>
      </trkpt>
      <trkpt lat="43.5201" lon="5.2775">
        <ele>150.9</ele>
        <time>2024-03-20T14:22:28.000Z</time>
      </trkpt>
      <trkpt lat="43.52012" lon="5.27748">
        <ele>150.9</ele>
        <time>2024-03-20T14:22:30.000Z</time>
      </trkpt>
      <trkpt lat="43.52014" lon="5.27743">
        <ele>150.7</ele>
        <time>2024-03-20T14:22:33.000Z</time>
      </trkpt>
      <trkpt lat="43.52016" lon="5.2774">
        <ele>150.6</ele>
        <time>2024-03-20T14:22:36.000Z</time>
      </trkpt>
      <trkpt lat="43.52018" lon="5.27738">
        <ele>150.4</ele>
        <time>2024-03-20T14:22:39.000Z</time>
      </trkpt>
      <trkpt lat="43.52019" lon="5.27735">
        <ele>150.2</ele>
        <time>2024-03-20T14:22:43.000Z</time>
      </trkpt>
      <trkpt lat="43.52022" lon="5.27731">
        <ele>150</ele>
        <time>2024-03-20T14:22:48.000Z</time>
      </trkpt>
      <trkpt lat="43.52022" lon="5.27729">
        <ele>149.9</ele>
        <time>2024-03-20T14:22:50.000Z</time>
      </trkpt>
      <trkpt lat="43.52024" lon="5.27727">
        <ele>149.6</ele>
        <time>2024-03-20T14:22:52.000Z</time>
      </trkpt>
      <trkpt lat="43.52025" lon="5.27725">
        <ele>149.4</ele>
        <time>2024-03-20T14:22:54.000Z</time>
      </trkpt>
      <trkpt lat="43.52026" lon="5.27722">
        <ele>149.3</ele>
        <time>2024-03-20T14:22:56.000Z</time>
      </trkpt>
      <trkpt lat="43.52028" lon="5.27719">
        <ele>149.2</ele>
        <time>2024-03-20T14:22:58.000Z</time>
      </trkpt>
      <trkpt lat="43.52029" lon="5.27717">
        <ele>149.1</ele>
        <time>2024-03-20T14:23:00.000Z</time>
      </trkpt>
      <trkpt lat="43.5203" lon="5.27714">
        <ele>149.1</ele>
        <time>2024-03-20T14:23:04.000Z</time>
      </trkpt>
      <trkpt lat="43.52031" lon="5.27712">
        <ele>149</ele>
        <time>2024-03-20T14:23:06.000Z</time>
      </trkpt>
      <trkpt lat="43.52033" lon="5.27709">
        <ele>148.9</ele>
        <time>2024-03-20T14:23:09.000Z</time>
      </trkpt>
      <trkpt lat="43.52035" lon="5.27705">
        <ele>148.8</ele>
        <time>2024-03-20T14:23:13.000Z</time>
      </trkpt>
      <trkpt lat="43.52036" lon="5.27703">
        <ele>148.7</ele>
        <time>2024-03-20T14:23:15.000Z</time>
      </trkpt>
      <trkpt lat="43.52038" lon="5.277">
        <ele>148.5</ele>
        <time>2024-03-20T14:23:17.000Z</time>
      </trkpt>
      <trkpt lat="43.52039" lon="5.27697">
        <ele>148.4</ele>
        <time>2024-03-20T14:23:19.000Z</time>
      </trkpt>
      <trkpt lat="43.5204" lon="5.27695">
        <ele>148.2</ele>
        <time>2024-03-20T14:23:21.000Z</time>
      </trkpt>
      <trkpt lat="43.52042" lon="5.27691">
        <ele>147.9</ele>
        <time>2024-03-20T14:23:25.000Z</time>
      </trkpt>
      <trkpt lat="43.52044" lon="5.27689">
        <ele>147.6</ele>
        <time>2024-03-20T14:23:28.000Z</time>
      </trkpt>
      <trkpt lat="43.52045" lon="5.27686">
        <ele>147.4</ele>
        <time>2024-03-20T14:23:30.000Z</time>
      </trkpt>
      <trkpt lat="43.52047" lon="5.27684">
        <ele>147.2</ele>
        <time>2024-03-20T14:23:32.000Z</time>
      </trkpt>
      <trkpt lat="43.52048" lon="5.27681">
        <ele>146.8</ele>
        <time>2024-03-20T14:23:34.000Z</time>
      </trkpt>
      <trkpt lat="43.52049" lon="5.27679">
        <ele>146.6</ele>
        <time>2024-03-20T14:23:35.000Z</time>
      </trkpt>
      <trkpt lat="43.5205" lon="5.27676">
        <ele>146.4</ele>
        <time>2024-03-20T14:23:36.000Z</time>
      </trkpt>
      <trkpt lat="43.52052" lon="5.27673">
        <ele>146</ele>
        <time>2024-03-20T14:23:38.000Z</time>
      </trkpt>
      <trkpt lat="43.52053" lon="5.27671">
        <ele>145.6</ele>
        <time>2024-03-20T14:23:39.000Z</time>
      </trkpt>
      <trkpt lat="43.52055" lon="5.27667">
        <ele>145.2</ele>
        <time>2024-03-20T14:23:41.000Z</time>
      </trkpt>
      <trkpt lat="43.52055" lon="5.27664">
        <ele>145.2</ele>
        <time>2024-03-20T14:23:44.000Z</time>
      </trkpt>
      <trkpt lat="43.52057" lon="5.27659">
        <ele>145.3</ele>
        <time>2024-03-20T14:23:51.000Z</time>
      </trkpt>
      <trkpt lat="43.52058" lon="5.27655">
        <ele>145.4</ele>
        <time>2024-03-20T14:23:53.000Z</time>
      </trkpt>
      <trkpt lat="43.52059" lon="5.27653">
        <ele>145.4</ele>
        <time>2024-03-20T14:23:55.000Z</time>
      </trkpt>
      <trkpt lat="43.52061" lon="5.2765">
        <ele>145.5</ele>
        <time>2024-03-20T14:23:57.000Z</time>
      </trkpt>
      <trkpt lat="43.52062" lon="5.27648">
        <ele>145.4</ele>
        <time>2024-03-20T14:23:59.000Z</time>
      </trkpt>
      <trkpt lat="43.52064" lon="5.27643">
        <ele>145.4</ele>
        <time>2024-03-20T14:24:01.000Z</time>
      </trkpt>
      <trkpt lat="43.52066" lon="5.27641">
        <ele>145.3</ele>
        <time>2024-03-20T14:24:03.000Z</time>
      </trkpt>
      <trkpt lat="43.52067" lon="5.27638">
        <ele>145.1</ele>
        <time>2024-03-20T14:24:05.000Z</time>
      </trkpt>
      <trkpt lat="43.52068" lon="5.27635">
        <ele>144.8</ele>
        <time>2024-03-20T14:24:07.000Z</time>
      </trkpt>
      <trkpt lat="43.52069" lon="5.27632">
        <ele>144.5</ele>
        <time>2024-03-20T14:24:09.000Z</time>
      </trkpt>
      <trkpt lat="43.5207" lon="5.27628">
        <ele>144.2</ele>
        <time>2024-03-20T14:24:11.000Z</time>
      </trkpt>
      <trkpt lat="43.52072" lon="5.27624">
        <ele>143.8</ele>
        <time>2024-03-20T14:24:14.000Z</time>
      </trkpt>
      <trkpt lat="43.52072" lon="5.27621">
        <ele>143.5</ele>
        <time>2024-03-20T14:24:16.000Z</time>
      </trkpt>
      <trkpt lat="43.52073" lon="5.27618">
        <ele>143.3</ele>
        <time>2024-03-20T14:24:18.000Z</time>
      </trkpt>
      <trkpt lat="43.52073" lon="5.27616">
        <ele>143.1</ele>
        <time>2024-03-20T14:24:20.000Z</time>
      </trkpt>
      <trkpt lat="43.52074" lon="5.27613">
        <ele>142.8</ele>
        <time>2024-03-20T14:24:22.000Z</time>
      </trkpt>
      <trkpt lat="43.52074" lon="5.2761">
        <ele>142.6</ele>
        <time>2024-03-20T14:24:24.000Z</time>
      </trkpt>
      <trkpt lat="43.52075" lon="5.27607">
        <ele>142.5</ele>
        <time>2024-03-20T14:24:27.000Z</time>
      </trkpt>
      <trkpt lat="43.52076" lon="5.27604">
        <ele>142.3</ele>
        <time>2024-03-20T14:24:30.000Z</time>
      </trkpt>
      <trkpt lat="43.52077" lon="5.27601">
        <ele>142.2</ele>
        <time>2024-03-20T14:24:32.000Z</time>
      </trkpt>
      <trkpt lat="43.52078" lon="5.27598">
        <ele>142</ele>
        <time>2024-03-20T14:24:34.000Z</time>
      </trkpt>
      <trkpt lat="43.52079" lon="5.27595">
        <ele>141.8</ele>
        <time>2024-03-20T14:24:37.000Z</time>
      </trkpt>
      <trkpt lat="43.5208" lon="5.27593">
        <ele>141.7</ele>
        <time>2024-03-20T14:24:39.000Z</time>
      </trkpt>
      <trkpt lat="43.52081" lon="5.2759">
        <ele>141.5</ele>
        <time>2024-03-20T14:24:41.000Z</time>
      </trkpt>
      <trkpt lat="43.52082" lon="5.27587">
        <ele>141.3</ele>
        <time>2024-03-20T14:24:43.000Z</time>
      </trkpt>
      <trkpt lat="43.52084" lon="5.27586">
        <ele>141.1</ele>
        <time>2024-03-20T14:24:47.000Z</time>
      </trkpt>
      <trkpt lat="43.52086" lon="5.27583">
        <ele>141.3</ele>
        <time>2024-03-20T14:24:53.000Z</time>
      </trkpt>
      <trkpt lat="43.52088" lon="5.2758">
        <ele>141.3</ele>
        <time>2024-03-20T14:24:56.000Z</time>
      </trkpt>
      <trkpt lat="43.5209" lon="5.27576">
        <ele>141.2</ele>
        <time>2024-03-20T14:24:58.000Z</time>
      </trkpt>
      <trkpt lat="43.52091" lon="5.27574">
        <ele>141.2</ele>
        <time>2024-03-20T14:25:00.000Z</time>
      </trkpt>
      <trkpt lat="43.52093" lon="5.27571">
        <ele>141.1</ele>
        <time>2024-03-20T14:25:02.000Z</time>
      </trkpt>
      <trkpt lat="43.52095" lon="5.27567">
        <ele>141</ele>
        <time>2024-03-20T14:25:04.000Z</time>
      </trkpt>
      <trkpt lat="43.52096" lon="5.27564">
        <ele>141</ele>
        <time>2024-03-20T14:25:06.000Z</time>
      </trkpt>
      <trkpt lat="43.52097" lon="5.27561">
        <ele>140.9</ele>
        <time>2024-03-20T14:25:08.000Z</time>
      </trkpt>
      <trkpt lat="43.52098" lon="5.27558">
        <ele>140.8</ele>
        <time>2024-03-20T14:25:10.000Z</time>
      </trkpt>
      <trkpt lat="43.521" lon="5.27555">
        <ele>140.8</ele>
        <time>2024-03-20T14:25:12.000Z</time>
      </trkpt>
      <trkpt lat="43.52102" lon="5.27552">
        <ele>140.7</ele>
        <time>2024-03-20T14:25:14.000Z</time>
      </trkpt>
      <trkpt lat="43.52102" lon="5.27549">
        <ele>140.6</ele>
        <time>2024-03-20T14:25:16.000Z</time>
      </trkpt>
      <trkpt lat="43.52103" lon="5.27547">
        <ele>140.4</ele>
        <time>2024-03-20T14:25:18.000Z</time>
      </trkpt>
      <trkpt lat="43.52103" lon="5.27544">
        <ele>140.3</ele>
        <time>2024-03-20T14:25:20.000Z</time>
      </trkpt>
      <trkpt lat="43.52104" lon="5.27541">
        <ele>140</ele>
        <time>2024-03-20T14:25:22.000Z</time>
      </trkpt>
      <trkpt lat="43.52105" lon="5.27537">
        <ele>139.7</ele>
        <time>2024-03-20T14:25:24.000Z</time>
      </trkpt>
      <trkpt lat="43.52105" lon="5.27534">
        <ele>139.5</ele>
        <time>2024-03-20T14:25:26.000Z</time>
      </trkpt>
      <trkpt lat="43.52106" lon="5.27531">
        <ele>139.3</ele>
        <time>2024-03-20T14:25:28.000Z</time>
      </trkpt>
      <trkpt lat="43.52106" lon="5.27528">
        <ele>139</ele>
        <time>2024-03-20T14:25:30.000Z</time>
      </trkpt>
      <trkpt lat="43.52107" lon="5.27526">
        <ele>138.8</ele>
        <time>2024-03-20T14:25:32.000Z</time>
      </trkpt>
      <trkpt lat="43.52108" lon="5.27523">
        <ele>138.6</ele>
        <time>2024-03-20T14:25:34.000Z</time>
      </trkpt>
      <trkpt lat="43.5211" lon="5.27521">
        <ele>138.3</ele>
        <time>2024-03-20T14:25:36.000Z</time>
      </trkpt>
      <trkpt lat="43.52111" lon="5.27518">
        <ele>138</ele>
        <time>2024-03-20T14:25:38.000Z</time>
      </trkpt>
      <trkpt lat="43.52113" lon="5.27515">
        <ele>137.9</ele>
        <time>2024-03-20T14:25:40.000Z</time>
      </trkpt>
      <trkpt lat="43.52114" lon="5.27512">
        <ele>137.6</ele>
        <time>2024-03-20T14:25:42.000Z</time>
      </trkpt>
      <trkpt lat="43.52115" lon="5.27509">
        <ele>137.4</ele>
        <time>2024-03-20T14:25:44.000Z</time>
      </trkpt>
      <trkpt lat="43.52115" lon="5.27505">
        <ele>137.1</ele>
        <time>2024-03-20T14:25:46.000Z</time>
      </trkpt>
      <trkpt lat="43.52116" lon="5.27502">
        <ele>137</ele>
        <time>2024-03-20T14:25:48.000Z</time>
      </trkpt>
      <trkpt lat="43.52117" lon="5.27499">
        <ele>136.8</ele>
        <time>2024-03-20T14:25:50.000Z</time>
      </trkpt>
      <trkpt lat="43.52117" lon="5.27496">
        <ele>136.6</ele>
        <time>2024-03-20T14:25:52.000Z</time>
      </trkpt>
      <trkpt lat="43.52118" lon="5.27493">
        <ele>136.6</ele>
        <time>2024-03-20T14:25:54.000Z</time>
      </trkpt>
      <trkpt lat="43.52118" lon="5.27489">
        <ele>136.5</ele>
        <time>2024-03-20T14:25:56.000Z</time>
      </trkpt>
      <trkpt lat="43.52119" lon="5.27486">
        <ele>136.3</ele>
        <time>2024-03-20T14:25:58.000Z</time>
      </trkpt>
      <trkpt lat="43.5212" lon="5.27482">
        <ele>136.4</ele>
        <time>2024-03-20T14:26:00.000Z</time>
      </trkpt>
      <trkpt lat="43.5212" lon="5.27479">
        <ele>136.3</ele>
        <time>2024-03-20T14:26:02.000Z</time>
      </trkpt>
      <trkpt lat="43.52121" lon="5.27476">
        <ele>136.2</ele>
        <time>2024-03-20T14:26:04.000Z</time>
      </trkpt>
      <trkpt lat="43.52121" lon="5.27473">
        <ele>136.2</ele>
        <time>2024-03-20T14:26:06.000Z</time>
      </trkpt>
      <trkpt lat="43.52122" lon="5.2747">
        <ele>136.2</ele>
        <time>2024-03-20T14:26:09.000Z</time>
      </trkpt>
      <trkpt lat="43.52123" lon="5.27467">
        <ele>136.1</ele>
        <time>2024-03-20T14:26:11.000Z</time>
      </trkpt>
      <trkpt lat="43.52125" lon="5.27464">
        <ele>136.1</ele>
        <time>2024-03-20T14:26:13.000Z</time>
      </trkpt>
      <trkpt lat="43.52126" lon="5.27461">
        <ele>135.9</ele>
        <time>2024-03-20T14:26:15.000Z</time>
      </trkpt>
      <trkpt lat="43.52127" lon="5.27459">
        <ele>135.8</ele>
        <time>2024-03-20T14:26:18.000Z</time>
      </trkpt>
      <trkpt lat="43.52128" lon="5.27456">
        <ele>135.7</ele>
        <time>2024-03-20T14:26:20.000Z</time>
      </trkpt>
      <trkpt lat="43.5213" lon="5.27453">
        <ele>135.5</ele>
        <time>2024-03-20T14:26:22.000Z</time>
      </trkpt>
      <trkpt lat="43.52131" lon="5.27451">
        <ele>135.4</ele>
        <time>2024-03-20T14:26:24.000Z</time>
      </trkpt>
      <trkpt lat="43.52133" lon="5.27448">
        <ele>135.1</ele>
        <time>2024-03-20T14:26:26.000Z</time>
      </trkpt>
      <trkpt lat="43.52134" lon="5.27446">
        <ele>134.9</ele>
        <time>2024-03-20T14:26:28.000Z</time>
      </trkpt>
      <trkpt lat="43.52136" lon="5.27443">
        <ele>134.6</ele>
        <time>2024-03-20T14:26:30.000Z</time>
      </trkpt>
      <trkpt lat="43.52137" lon="5.2744">
        <ele>134.3</ele>
        <time>2024-03-20T14:26:32.000Z</time>
      </trkpt>
      <trkpt lat="43.52139" lon="5.27438">
        <ele>134.1</ele>
        <time>2024-03-20T14:26:34.000Z</time>
      </trkpt>
      <trkpt lat="43.52141" lon="5.27435">
        <ele>133.9</ele>
        <time>2024-03-20T14:26:37.000Z</time>
      </trkpt>
      <trkpt lat="43.52142" lon="5.27433">
        <ele>133.8</ele>
        <time>2024-03-20T14:26:39.000Z</time>
      </trkpt>
      <trkpt lat="43.52143" lon="5.2743">
        <ele>133.6</ele>
        <time>2024-03-20T14:26:41.000Z</time>
      </trkpt>
      <trkpt lat="43.52144" lon="5.27427">
        <ele>133.6</ele>
        <time>2024-03-20T14:26:43.000Z</time>
      </trkpt>
      <trkpt lat="43.52146" lon="5.27425">
        <ele>133.6</ele>
        <time>2024-03-20T14:26:45.000Z</time>
      </trkpt>
      <trkpt lat="43.52147" lon="5.27422">
        <ele>133.7</ele>
        <time>2024-03-20T14:26:47.000Z</time>
      </trkpt>
      <trkpt lat="43.52149" lon="5.2742">
        <ele>133.8</ele>
        <time>2024-03-20T14:26:49.000Z</time>
      </trkpt>
      <trkpt lat="43.5215" lon="5.27418">
        <ele>133.8</ele>
        <time>2024-03-20T14:26:51.000Z</time>
      </trkpt>
      <trkpt lat="43.52152" lon="5.27416">
        <ele>134.2</ele>
        <time>2024-03-20T14:26:54.000Z</time>
      </trkpt>
      <trkpt lat="43.52154" lon="5.27414">
        <ele>134.4</ele>
        <time>2024-03-20T14:26:56.000Z</time>
      </trkpt>
      <trkpt lat="43.52156" lon="5.27411">
        <ele>134.4</ele>
        <time>2024-03-20T14:26:59.000Z</time>
      </trkpt>
      <trkpt lat="43.52159" lon="5.27409">
        <ele>134.6</ele>
        <time>2024-03-20T14:27:02.000Z</time>
      </trkpt>
      <trkpt lat="43.5216" lon="5.27407">
        <ele>134.7</ele>
        <time>2024-03-20T14:27:04.000Z</time>
      </trkpt>
      <trkpt lat="43.52162" lon="5.27405">
        <ele>134.5</ele>
        <time>2024-03-20T14:27:06.000Z</time>
      </trkpt>
      <trkpt lat="43.52164" lon="5.27403">
        <ele>134.5</ele>
        <time>2024-03-20T14:27:09.000Z</time>
      </trkpt>
      <trkpt lat="43.52165" lon="5.27402">
        <ele>134.5</ele>
        <time>2024-03-20T14:27:11.000Z</time>
      </trkpt>
      <trkpt lat="43.52167" lon="5.274">
        <ele>134.4</ele>
        <time>2024-03-20T14:27:14.000Z</time>
      </trkpt>
      <trkpt lat="43.52168" lon="5.27396">
        <ele>133.8</ele>
        <time>2024-03-20T14:27:16.000Z</time>
      </trkpt>
      <trkpt lat="43.5217" lon="5.27394">
        <ele>133.5</ele>
        <time>2024-03-20T14:27:18.000Z</time>
      </trkpt>
      <trkpt lat="43.52171" lon="5.27391">
        <ele>133.2</ele>
        <time>2024-03-20T14:27:20.000Z</time>
      </trkpt>
      <trkpt lat="43.52172" lon="5.27388">
        <ele>132.9</ele>
        <time>2024-03-20T14:27:22.000Z</time>
      </trkpt>
      <trkpt lat="43.52173" lon="5.27385">
        <ele>133.1</ele>
        <time>2024-03-20T14:27:24.000Z</time>
      </trkpt>
      <trkpt lat="43.52173" lon="5.2738">
        <ele>133.2</ele>
        <time>2024-03-20T14:27:27.000Z</time>
      </trkpt>
      <trkpt lat="43.52174" lon="5.27377">
        <ele>133.2</ele>
        <time>2024-03-20T14:27:29.000Z</time>
      </trkpt>
      <trkpt lat="43.52174" lon="5.27374">
        <ele>133.3</ele>
        <time>2024-03-20T14:27:31.000Z</time>
      </trkpt>
      <trkpt lat="43.52174" lon="5.27371">
        <ele>133.3</ele>
        <time>2024-03-20T14:27:33.000Z</time>
      </trkpt>
      <trkpt lat="43.52174" lon="5.27369">
        <ele>133.3</ele>
        <time>2024-03-20T14:27:35.000Z</time>
      </trkpt>
      <trkpt lat="43.52174" lon="5.27365">
        <ele>133.4</ele>
        <time>2024-03-20T14:27:38.000Z</time>
      </trkpt>
      <trkpt lat="43.52174" lon="5.27361">
        <ele>133.3</ele>
        <time>2024-03-20T14:27:40.000Z</time>
      </trkpt>
      <trkpt lat="43.52174" lon="5.27358">
        <ele>133.2</ele>
        <time>2024-03-20T14:27:43.000Z</time>
      </trkpt>
      <trkpt lat="43.52175" lon="5.27355">
        <ele>133.2</ele>
        <time>2024-03-20T14:27:45.000Z</time>
      </trkpt>
      <trkpt lat="43.52175" lon="5.27352">
        <ele>133</ele>
        <time>2024-03-20T14:27:48.000Z</time>
      </trkpt>
      <trkpt lat="43.52175" lon="5.27349">
        <ele>132.9</ele>
        <time>2024-03-20T14:27:50.000Z</time>
      </trkpt>
      <trkpt lat="43.52176" lon="5.27345">
        <ele>132.9</ele>
        <time>2024-03-20T14:27:52.000Z</time>
      </trkpt>
      <trkpt lat="43.52177" lon="5.27342">
        <ele>133</ele>
        <time>2024-03-20T14:27:54.000Z</time>
      </trkpt>
      <trkpt lat="43.52177" lon="5.2734">
        <ele>132.9</ele>
        <time>2024-03-20T14:27:56.000Z</time>
      </trkpt>
      <trkpt lat="43.52178" lon="5.27336">
        <ele>132.9</ele>
        <time>2024-03-20T14:27:58.000Z</time>
      </trkpt>
      <trkpt lat="43.52179" lon="5.27333">
        <ele>133</ele>
        <time>2024-03-20T14:28:00.000Z</time>
      </trkpt>
      <trkpt lat="43.5218" lon="5.2733">
        <ele>133</ele>
        <time>2024-03-20T14:28:02.000Z</time>
      </trkpt>
      <trkpt lat="43.52181" lon="5.27326">
        <ele>133</ele>
        <time>2024-03-20T14:28:05.000Z</time>
      </trkpt>
      <trkpt lat="43.52182" lon="5.27321">
        <ele>132.9</ele>
        <time>2024-03-20T14:28:08.000Z</time>
      </trkpt>
      <trkpt lat="43.52182" lon="5.27319">
        <ele>132.8</ele>
        <time>2024-03-20T14:28:10.000Z</time>
      </trkpt>
      <trkpt lat="43.52183" lon="5.27316">
        <ele>132.7</ele>
        <time>2024-03-20T14:28:12.000Z</time>
      </trkpt>
      <trkpt lat="43.52184" lon="5.27313">
        <ele>132.6</ele>
        <time>2024-03-20T14:28:14.000Z</time>
      </trkpt>
      <trkpt lat="43.52184" lon="5.2731">
        <ele>132.5</ele>
        <time>2024-03-20T14:28:16.000Z</time>
      </trkpt>
      <trkpt lat="43.52185" lon="5.27307">
        <ele>132.4</ele>
        <time>2024-03-20T14:28:18.000Z</time>
      </trkpt>
      <trkpt lat="43.52186" lon="5.27305">
        <ele>132.4</ele>
        <time>2024-03-20T14:28:20.000Z</time>
      </trkpt>
      <trkpt lat="43.52188" lon="5.27303">
        <ele>132.6</ele>
        <time>2024-03-20T14:28:22.000Z</time>
      </trkpt>
      <trkpt lat="43.52189" lon="5.273">
        <ele>132.6</ele>
        <time>2024-03-20T14:28:24.000Z</time>
      </trkpt>
      <trkpt lat="43.5219" lon="5.27297">
        <ele>132.6</ele>
        <time>2024-03-20T14:28:26.000Z</time>
      </trkpt>
      <trkpt lat="43.52191" lon="5.27295">
        <ele>132.6</ele>
        <time>2024-03-20T14:28:28.000Z</time>
      </trkpt>
      <trkpt lat="43.52193" lon="5.27292">
        <ele>132.7</ele>
        <time>2024-03-20T14:28:31.000Z</time>
      </trkpt>
      <trkpt lat="43.52193" lon="5.27289">
        <ele>132.6</ele>
        <time>2024-03-20T14:28:33.000Z</time>
      </trkpt>
      <trkpt lat="43.52195" lon="5.27287">
        <ele>132.7</ele>
        <time>2024-03-20T14:28:35.000Z</time>
      </trkpt>
      <trkpt lat="43.52196" lon="5.27285">
        <ele>132.6</ele>
        <time>2024-03-20T14:28:38.000Z</time>
      </trkpt>
      <trkpt lat="43.52197" lon="5.27282">
        <ele>132.5</ele>
        <time>2024-03-20T14:28:40.000Z</time>
      </trkpt>
      <trkpt lat="43.52197" lon="5.27279">
        <ele>132.3</ele>
        <time>2024-03-20T14:28:42.000Z</time>
      </trkpt>
      <trkpt lat="43.52199" lon="5.27277">
        <ele>132.2</ele>
        <time>2024-03-20T14:28:44.000Z</time>
      </trkpt>
      <trkpt lat="43.52201" lon="5.27274">
        <ele>132</ele>
        <time>2024-03-20T14:28:46.000Z</time>
      </trkpt>
      <trkpt lat="43.52202" lon="5.27271">
        <ele>131.8</ele>
        <time>2024-03-20T14:28:48.000Z</time>
      </trkpt>
      <trkpt lat="43.52203" lon="5.27268">
        <ele>131.6</ele>
        <time>2024-03-20T14:28:50.000Z</time>
      </trkpt>
      <trkpt lat="43.52205" lon="5.27265">
        <ele>131.4</ele>
        <time>2024-03-20T14:28:52.000Z</time>
      </trkpt>
      <trkpt lat="43.52207" lon="5.27263">
        <ele>131.2</ele>
        <time>2024-03-20T14:28:54.000Z</time>
      </trkpt>
      <trkpt lat="43.52209" lon="5.27259">
        <ele>131</ele>
        <time>2024-03-20T14:28:57.000Z</time>
      </trkpt>
      <trkpt lat="43.5221" lon="5.27254">
        <ele>130.6</ele>
        <time>2024-03-20T14:29:00.000Z</time>
      </trkpt>
      <trkpt lat="43.52211" lon="5.27251">
        <ele>130.4</ele>
        <time>2024-03-20T14:29:02.000Z</time>
      </trkpt>
      <trkpt lat="43.52212" lon="5.27249">
        <ele>130.2</ele>
        <time>2024-03-20T14:29:04.000Z</time>
      </trkpt>
      <trkpt lat="43.52214" lon="5.27247">
        <ele>130.1</ele>
        <time>2024-03-20T14:29:06.000Z</time>
      </trkpt>
      <trkpt lat="43.52215" lon="5.27244">
        <ele>130</ele>
        <time>2024-03-20T14:29:08.000Z</time>
      </trkpt>
      <trkpt lat="43.52216" lon="5.27242">
        <ele>130</ele>
        <time>2024-03-20T14:29:10.000Z</time>
      </trkpt>
      <trkpt lat="43.52218" lon="5.2724">
        <ele>130</ele>
        <time>2024-03-20T14:29:12.000Z</time>
      </trkpt>
      <trkpt lat="43.5222" lon="5.27238">
        <ele>130.3</ele>
        <time>2024-03-20T14:29:15.000Z</time>
      </trkpt>
      <trkpt lat="43.52222" lon="5.27235">
        <ele>130.5</ele>
        <time>2024-03-20T14:29:18.000Z</time>
      </trkpt>
      <trkpt lat="43.52223" lon="5.27232">
        <ele>130.4</ele>
        <time>2024-03-20T14:29:20.000Z</time>
      </trkpt>
      <trkpt lat="43.52224" lon="5.2723">
        <ele>130.3</ele>
        <time>2024-03-20T14:29:22.000Z</time>
      </trkpt>
      <trkpt lat="43.52226" lon="5.27225">
        <ele>130.1</ele>
        <time>2024-03-20T14:29:26.000Z</time>
      </trkpt>
      <trkpt lat="43.52227" lon="5.27222">
        <ele>130</ele>
        <time>2024-03-20T14:29:28.000Z</time>
      </trkpt>
      <trkpt lat="43.52228" lon="5.27219">
        <ele>129.7</ele>
        <time>2024-03-20T14:29:31.000Z</time>
      </trkpt>
      <trkpt lat="43.52229" lon="5.27216">
        <ele>129.4</ele>
        <time>2024-03-20T14:29:33.000Z</time>
      </trkpt>
      <trkpt lat="43.5223" lon="5.27213">
        <ele>129.2</ele>
        <time>2024-03-20T14:29:35.000Z</time>
      </trkpt>
      <trkpt lat="43.52231" lon="5.27211">
        <ele>129</ele>
        <time>2024-03-20T14:29:37.000Z</time>
      </trkpt>
      <trkpt lat="43.52233" lon="5.27208">
        <ele>128.9</ele>
        <time>2024-03-20T14:29:39.000Z</time>
      </trkpt>
      <trkpt lat="43.52234" lon="5.27206">
        <ele>128.7</ele>
        <time>2024-03-20T14:29:41.000Z</time>
      </trkpt>
      <trkpt lat="43.52235" lon="5.27204">
        <ele>128.6</ele>
        <time>2024-03-20T14:29:43.000Z</time>
      </trkpt>
      <trkpt lat="43.52236" lon="5.27201">
        <ele>128.5</ele>
        <time>2024-03-20T14:29:45.000Z</time>
      </trkpt>
      <trkpt lat="43.52238" lon="5.272">
        <ele>128.5</ele>
        <time>2024-03-20T14:29:47.000Z</time>
      </trkpt>
      <trkpt lat="43.52239" lon="5.27198">
        <ele>128.4</ele>
        <time>2024-03-20T14:29:50.000Z</time>
      </trkpt>
      <trkpt lat="43.52241" lon="5.27195">
        <ele>128.4</ele>
        <time>2024-03-20T14:29:52.000Z</time>
      </trkpt>
      <trkpt lat="43.52242" lon="5.27193">
        <ele>128.3</ele>
        <time>2024-03-20T14:29:54.000Z</time>
      </trkpt>
      <trkpt lat="43.52244" lon="5.27191">
        <ele>128.2</ele>
        <time>2024-03-20T14:29:57.000Z</time>
      </trkpt>
      <trkpt lat="43.52246" lon="5.27187">
        <ele>128.2</ele>
        <time>2024-03-20T14:29:59.000Z</time>
      </trkpt>
      <trkpt lat="43.52247" lon="5.27184">
        <ele>128.2</ele>
        <time>2024-03-20T14:30:01.000Z</time>
      </trkpt>
      <trkpt lat="43.52249" lon="5.27182">
        <ele>128.3</ele>
        <time>2024-03-20T14:30:03.000Z</time>
      </trkpt>
      <trkpt lat="43.5225" lon="5.27179">
        <ele>128.4</ele>
        <time>2024-03-20T14:30:06.000Z</time>
      </trkpt>
      <trkpt lat="43.52252" lon="5.27178">
        <ele>128.5</ele>
        <time>2024-03-20T14:30:08.000Z</time>
      </trkpt>
      <trkpt lat="43.52253" lon="5.27175">
        <ele>128.5</ele>
        <time>2024-03-20T14:30:10.000Z</time>
      </trkpt>
      <trkpt lat="43.52255" lon="5.27172">
        <ele>128.4</ele>
        <time>2024-03-20T14:30:13.000Z</time>
      </trkpt>
      <trkpt lat="43.52256" lon="5.2717">
        <ele>128.4</ele>
        <time>2024-03-20T14:30:15.000Z</time>
      </trkpt>
      <trkpt lat="43.52257" lon="5.27168">
        <ele>128.3</ele>
        <time>2024-03-20T14:30:18.000Z</time>
      </trkpt>
      <trkpt lat="43.52259" lon="5.27166">
        <ele>128.3</ele>
        <time>2024-03-20T14:30:21.000Z</time>
      </trkpt>
      <trkpt lat="43.52261" lon="5.27164">
        <ele>128.2</ele>
        <time>2024-03-20T14:30:23.000Z</time>
      </trkpt>
      <trkpt lat="43.52263" lon="5.27161">
        <ele>128.2</ele>
        <time>2024-03-20T14:30:26.000Z</time>
      </trkpt>
      <trkpt lat="43.52265" lon="5.27159">
        <ele>128.1</ele>
        <time>2024-03-20T14:30:28.000Z</time>
      </trkpt>
      <trkpt lat="43.52268" lon="5.27156">
        <ele>128.1</ele>
        <time>2024-03-20T14:30:30.000Z</time>
      </trkpt>
      <trkpt lat="43.5227" lon="5.27153">
        <ele>128.1</ele>
        <time>2024-03-20T14:30:32.000Z</time>
      </trkpt>
      <trkpt lat="43.52272" lon="5.27151">
        <ele>128.1</ele>
        <time>2024-03-20T14:30:35.000Z</time>
      </trkpt>
      <trkpt lat="43.52273" lon="5.27148">
        <ele>128.1</ele>
        <time>2024-03-20T14:30:37.000Z</time>
      </trkpt>
      <trkpt lat="43.52275" lon="5.27146">
        <ele>128.1</ele>
        <time>2024-03-20T14:30:39.000Z</time>
      </trkpt>
      <trkpt lat="43.52277" lon="5.27143">
        <ele>128.1</ele>
        <time>2024-03-20T14:30:41.000Z</time>
      </trkpt>
      <trkpt lat="43.52279" lon="5.2714">
        <ele>128.1</ele>
        <time>2024-03-20T14:30:44.000Z</time>
      </trkpt>
      <trkpt lat="43.52281" lon="5.27139">
        <ele>128.2</ele>
        <time>2024-03-20T14:30:46.000Z</time>
      </trkpt>
      <trkpt lat="43.52283" lon="5.27138">
        <ele>128.3</ele>
        <time>2024-03-20T14:30:48.000Z</time>
      </trkpt>
      <trkpt lat="43.52285" lon="5.27136">
        <ele>128.3</ele>
        <time>2024-03-20T14:30:51.000Z</time>
      </trkpt>
      <trkpt lat="43.52287" lon="5.27136">
        <ele>128.5</ele>
        <time>2024-03-20T14:30:54.000Z</time>
      </trkpt>
      <trkpt lat="43.52289" lon="5.27133">
        <ele>128.5</ele>
        <time>2024-03-20T14:30:57.000Z</time>
      </trkpt>
      <trkpt lat="43.52291" lon="5.27131">
        <ele>128.4</ele>
        <time>2024-03-20T14:30:59.000Z</time>
      </trkpt>
      <trkpt lat="43.52292" lon="5.27128">
        <ele>128.2</ele>
        <time>2024-03-20T14:31:01.000Z</time>
      </trkpt>
      <trkpt lat="43.52294" lon="5.27125">
        <ele>128.1</ele>
        <time>2024-03-20T14:31:03.000Z</time>
      </trkpt>
      <trkpt lat="43.52297" lon="5.27123">
        <ele>128</ele>
        <time>2024-03-20T14:31:05.000Z</time>
      </trkpt>
      <trkpt lat="43.52299" lon="5.27121">
        <ele>127.9</ele>
        <time>2024-03-20T14:31:07.000Z</time>
      </trkpt>
      <trkpt lat="43.52301" lon="5.27118">
        <ele>127.7</ele>
        <time>2024-03-20T14:31:09.000Z</time>
      </trkpt>
      <trkpt lat="43.52303" lon="5.27116">
        <ele>127.5</ele>
        <time>2024-03-20T14:31:11.000Z</time>
      </trkpt>
      <trkpt lat="43.52304" lon="5.27114">
        <ele>127.3</ele>
        <time>2024-03-20T14:31:13.000Z</time>
      </trkpt>
      <trkpt lat="43.52306" lon="5.2711">
        <ele>127</ele>
        <time>2024-03-20T14:31:16.000Z</time>
      </trkpt>
      <trkpt lat="43.52308" lon="5.27109">
        <ele>127.2</ele>
        <time>2024-03-20T14:31:19.000Z</time>
      </trkpt>
      <trkpt lat="43.5231" lon="5.27105">
        <ele>127.3</ele>
        <time>2024-03-20T14:31:22.000Z</time>
      </trkpt>
      <trkpt lat="43.52313" lon="5.27104">
        <ele>127.4</ele>
        <time>2024-03-20T14:31:24.000Z</time>
      </trkpt>
      <trkpt lat="43.52314" lon="5.27102">
        <ele>127.4</ele>
        <time>2024-03-20T14:31:26.000Z</time>
      </trkpt>
      <trkpt lat="43.52317" lon="5.27101">
        <ele>127.5</ele>
        <time>2024-03-20T14:31:30.000Z</time>
      </trkpt>
      <trkpt lat="43.52319" lon="5.271">
        <ele>127.6</ele>
        <time>2024-03-20T14:31:32.000Z</time>
      </trkpt>
      <trkpt lat="43.52321" lon="5.271">
        <ele>127.6</ele>
        <time>2024-03-20T14:31:34.000Z</time>
      </trkpt>
      <trkpt lat="43.52324" lon="5.27099">
        <ele>127.7</ele>
        <time>2024-03-20T14:31:37.000Z</time>
      </trkpt>
      <trkpt lat="43.52326" lon="5.27099">
        <ele>127.8</ele>
        <time>2024-03-20T14:31:40.000Z</time>
      </trkpt>
      <trkpt lat="43.52328" lon="5.27097">
        <ele>127.8</ele>
        <time>2024-03-20T14:31:43.000Z</time>
      </trkpt>
      <trkpt lat="43.5233" lon="5.27095">
        <ele>127.7</ele>
        <time>2024-03-20T14:31:45.000Z</time>
      </trkpt>
      <trkpt lat="43.52331" lon="5.27093">
        <ele>127.6</ele>
        <time>2024-03-20T14:31:47.000Z</time>
      </trkpt>
      <trkpt lat="43.52333" lon="5.27091">
        <ele>127.6</ele>
        <time>2024-03-20T14:31:49.000Z</time>
      </trkpt>
      <trkpt lat="43.52335" lon="5.27087">
        <ele>127.3</ele>
        <time>2024-03-20T14:31:51.000Z</time>
      </trkpt>
      <trkpt lat="43.52336" lon="5.27085">
        <ele>127.2</ele>
        <time>2024-03-20T14:31:52.000Z</time>
      </trkpt>
      <trkpt lat="43.52338" lon="5.27081">
        <ele>127.1</ele>
        <time>2024-03-20T14:31:54.000Z</time>
      </trkpt>
      <trkpt lat="43.52339" lon="5.27078">
        <ele>127.1</ele>
        <time>2024-03-20T14:31:56.000Z</time>
      </trkpt>
      <trkpt lat="43.5234" lon="5.27075">
        <ele>127.1</ele>
        <time>2024-03-20T14:31:58.000Z</time>
      </trkpt>
      <trkpt lat="43.52342" lon="5.27071">
        <ele>127</ele>
        <time>2024-03-20T14:32:00.000Z</time>
      </trkpt>
      <trkpt lat="43.52344" lon="5.27068">
        <ele>127</ele>
        <time>2024-03-20T14:32:02.000Z</time>
      </trkpt>
      <trkpt lat="43.52346" lon="5.27066">
        <ele>126.9</ele>
        <time>2024-03-20T14:32:04.000Z</time>
      </trkpt>
      <trkpt lat="43.52348" lon="5.27064">
        <ele>126.8</ele>
        <time>2024-03-20T14:32:06.000Z</time>
      </trkpt>
      <trkpt lat="43.5235" lon="5.27062">
        <ele>126.7</ele>
        <time>2024-03-20T14:32:07.000Z</time>
      </trkpt>
      <trkpt lat="43.52351" lon="5.2706">
        <ele>126.5</ele>
        <time>2024-03-20T14:32:09.000Z</time>
      </trkpt>
      <trkpt lat="43.52353" lon="5.27057">
        <ele>126.4</ele>
        <time>2024-03-20T14:32:11.000Z</time>
      </trkpt>
      <trkpt lat="43.52354" lon="5.27054">
        <ele>126.2</ele>
        <time>2024-03-20T14:32:14.000Z</time>
      </trkpt>
      <trkpt lat="43.52356" lon="5.27051">
        <ele>126.2</ele>
        <time>2024-03-20T14:32:17.000Z</time>
      </trkpt>
      <trkpt lat="43.52357" lon="5.27049">
        <ele>126.1</ele>
        <time>2024-03-20T14:32:19.000Z</time>
      </trkpt>
      <trkpt lat="43.52359" lon="5.27046">
        <ele>126.1</ele>
        <time>2024-03-20T14:32:21.000Z</time>
      </trkpt>
      <trkpt lat="43.52361" lon="5.27044">
        <ele>126</ele>
        <time>2024-03-20T14:32:23.000Z</time>
      </trkpt>
      <trkpt lat="43.52362" lon="5.27042">
        <ele>126</ele>
        <time>2024-03-20T14:32:25.000Z</time>
      </trkpt>
      <trkpt lat="43.52364" lon="5.2704">
        <ele>126</ele>
        <time>2024-03-20T14:32:28.000Z</time>
      </trkpt>
      <trkpt lat="43.52366" lon="5.27037">
        <ele>126.1</ele>
        <time>2024-03-20T14:32:31.000Z</time>
      </trkpt>
      <trkpt lat="43.52368" lon="5.27035">
        <ele>126.1</ele>
        <time>2024-03-20T14:32:33.000Z</time>
      </trkpt>
      <trkpt lat="43.5237" lon="5.27032">
        <ele>126.1</ele>
        <time>2024-03-20T14:32:35.000Z</time>
      </trkpt>
      <trkpt lat="43.52372" lon="5.27029">
        <ele>126</ele>
        <time>2024-03-20T14:32:37.000Z</time>
      </trkpt>
      <trkpt lat="43.52374" lon="5.27025">
        <ele>126</ele>
        <time>2024-03-20T14:32:39.000Z</time>
      </trkpt>
      <trkpt lat="43.52374" lon="5.27022">
        <ele>125.9</ele>
        <time>2024-03-20T14:32:41.000Z</time>
      </trkpt>
      <trkpt lat="43.52376" lon="5.27019">
        <ele>125.8</ele>
        <time>2024-03-20T14:32:43.000Z</time>
      </trkpt>
      <trkpt lat="43.52378" lon="5.27017">
        <ele>125.8</ele>
        <time>2024-03-20T14:32:45.000Z</time>
      </trkpt>
      <trkpt lat="43.52379" lon="5.27015">
        <ele>125.7</ele>
        <time>2024-03-20T14:32:48.000Z</time>
      </trkpt>
      <trkpt lat="43.5238" lon="5.27012">
        <ele>125.6</ele>
        <time>2024-03-20T14:32:51.000Z</time>
      </trkpt>
      <trkpt lat="43.52382" lon="5.2701">
        <ele>125.5</ele>
        <time>2024-03-20T14:32:54.000Z</time>
      </trkpt>
      <trkpt lat="43.52384" lon="5.27008">
        <ele>125.4</ele>
        <time>2024-03-20T14:32:56.000Z</time>
      </trkpt>
      <trkpt lat="43.52385" lon="5.27005">
        <ele>125.3</ele>
        <time>2024-03-20T14:32:59.000Z</time>
      </trkpt>
      <trkpt lat="43.52387" lon="5.27003">
        <ele>125.2</ele>
        <time>2024-03-20T14:33:01.000Z</time>
      </trkpt>
      <trkpt lat="43.52389" lon="5.27002">
        <ele>125.1</ele>
        <time>2024-03-20T14:33:03.000Z</time>
      </trkpt>
      <trkpt lat="43.52391" lon="5.27">
        <ele>125</ele>
        <time>2024-03-20T14:33:07.000Z</time>
      </trkpt>
      <trkpt lat="43.52393" lon="5.26997">
        <ele>125</ele>
        <time>2024-03-20T14:33:10.000Z</time>
      </trkpt>
      <trkpt lat="43.52395" lon="5.26996">
        <ele>125</ele>
        <time>2024-03-20T14:33:12.000Z</time>
      </trkpt>
      <trkpt lat="43.52397" lon="5.26995">
        <ele>125</ele>
        <time>2024-03-20T14:33:14.000Z</time>
      </trkpt>
      <trkpt lat="43.52399" lon="5.26996">
        <ele>124.9</ele>
        <time>2024-03-20T14:33:16.000Z</time>
      </trkpt>
      <trkpt lat="43.52402" lon="5.26996">
        <ele>124.9</ele>
        <time>2024-03-20T14:33:19.000Z</time>
      </trkpt>
      <trkpt lat="43.52405" lon="5.26997">
        <ele>124.9</ele>
        <time>2024-03-20T14:33:22.000Z</time>
      </trkpt>
      <trkpt lat="43.52407" lon="5.26996">
        <ele>124.9</ele>
        <time>2024-03-20T14:33:26.000Z</time>
      </trkpt>
      <trkpt lat="43.52408" lon="5.26994">
        <ele>124.9</ele>
        <time>2024-03-20T14:33:28.000Z</time>
      </trkpt>
      <trkpt lat="43.52411" lon="5.26994">
        <ele>124.8</ele>
        <time>2024-03-20T14:33:31.000Z</time>
      </trkpt>
      <trkpt lat="43.52413" lon="5.26994">
        <ele>124.8</ele>
        <time>2024-03-20T14:33:35.000Z</time>
      </trkpt>
      <trkpt lat="43.52416" lon="5.26995">
        <ele>124.8</ele>
        <time>2024-03-20T14:33:37.000Z</time>
      </trkpt>
      <trkpt lat="43.52418" lon="5.26995">
        <ele>124.9</ele>
        <time>2024-03-20T14:33:39.000Z</time>
      </trkpt>
      <trkpt lat="43.52421" lon="5.26996">
        <ele>125</ele>
        <time>2024-03-20T14:33:41.000Z</time>
      </trkpt>
      <trkpt lat="43.52424" lon="5.26997">
        <ele>125.1</ele>
        <time>2024-03-20T14:33:43.000Z</time>
      </trkpt>
      <trkpt lat="43.52426" lon="5.26997">
        <ele>125.2</ele>
        <time>2024-03-20T14:33:45.000Z</time>
      </trkpt>
      <trkpt lat="43.52428" lon="5.26997">
        <ele>125.3</ele>
        <time>2024-03-20T14:33:47.000Z</time>
      </trkpt>
      <trkpt lat="43.5243" lon="5.26996">
        <ele>125.3</ele>
        <time>2024-03-20T14:33:49.000Z</time>
      </trkpt>
      <trkpt lat="43.52432" lon="5.26995">
        <ele>125.3</ele>
        <time>2024-03-20T14:33:51.000Z</time>
      </trkpt>
      <trkpt lat="43.52435" lon="5.26994">
        <ele>125.3</ele>
        <time>2024-03-20T14:33:53.000Z</time>
      </trkpt>
      <trkpt lat="43.52438" lon="5.26991">
        <ele>125.2</ele>
        <time>2024-03-20T14:33:56.000Z</time>
      </trkpt>
      <trkpt lat="43.5244" lon="5.26988">
        <ele>125</ele>
        <time>2024-03-20T14:33:58.000Z</time>
      </trkpt>
      <trkpt lat="43.52441" lon="5.26986">
        <ele>124.9</ele>
        <time>2024-03-20T14:33:59.000Z</time>
      </trkpt>
      <trkpt lat="43.52443" lon="5.26982">
        <ele>124.7</ele>
        <time>2024-03-20T14:34:01.000Z</time>
      </trkpt>
      <trkpt lat="43.52444" lon="5.2698">
        <ele>124.6</ele>
        <time>2024-03-20T14:34:02.000Z</time>
      </trkpt>
      <trkpt lat="43.52445" lon="5.26978">
        <ele>124.5</ele>
        <time>2024-03-20T14:34:03.000Z</time>
      </trkpt>
      <trkpt lat="43.52446" lon="5.26975">
        <ele>124.5</ele>
        <time>2024-03-20T14:34:04.000Z</time>
      </trkpt>
      <trkpt lat="43.52448" lon="5.26973">
        <ele>124.6</ele>
        <time>2024-03-20T14:34:05.000Z</time>
      </trkpt>
      <trkpt lat="43.5245" lon="5.26971">
        <ele>124.7</ele>
        <time>2024-03-20T14:34:07.000Z</time>
      </trkpt>
      <trkpt lat="43.52451" lon="5.26969">
        <ele>124.8</ele>
        <time>2024-03-20T14:34:08.000Z</time>
      </trkpt>
      <trkpt lat="43.52452" lon="5.26966">
        <ele>124.7</ele>
        <time>2024-03-20T14:34:10.000Z</time>
      </trkpt>
      <trkpt lat="43.52453" lon="5.26962">
        <ele>124.7</ele>
        <time>2024-03-20T14:34:12.000Z</time>
      </trkpt>
      <trkpt lat="43.52455" lon="5.2696">
        <ele>124.7</ele>
        <time>2024-03-20T14:34:14.000Z</time>
      </trkpt>
      <trkpt lat="43.52456" lon="5.26958">
        <ele>124.7</ele>
        <time>2024-03-20T14:34:16.000Z</time>
      </trkpt>
      <trkpt lat="43.52458" lon="5.26954">
        <ele>124.7</ele>
        <time>2024-03-20T14:34:18.000Z</time>
      </trkpt>
      <trkpt lat="43.52459" lon="5.2695">
        <ele>124.5</ele>
        <time>2024-03-20T14:34:20.000Z</time>
      </trkpt>
      <trkpt lat="43.5246" lon="5.26948">
        <ele>124.4</ele>
        <time>2024-03-20T14:34:22.000Z</time>
      </trkpt>
      <trkpt lat="43.52461" lon="5.26945">
        <ele>124.2</ele>
        <time>2024-03-20T14:34:24.000Z</time>
      </trkpt>
      <trkpt lat="43.52462" lon="5.26942">
        <ele>124</ele>
        <time>2024-03-20T14:34:26.000Z</time>
      </trkpt>
      <trkpt lat="43.52462" lon="5.26938">
        <ele>123.8</ele>
        <time>2024-03-20T14:34:28.000Z</time>
      </trkpt>
      <trkpt lat="43.52463" lon="5.26935">
        <ele>123.6</ele>
        <time>2024-03-20T14:34:30.000Z</time>
      </trkpt>
      <trkpt lat="43.52465" lon="5.26933">
        <ele>123.6</ele>
        <time>2024-03-20T14:34:32.000Z</time>
      </trkpt>
      <trkpt lat="43.52467" lon="5.26931">
        <ele>123.7</ele>
        <time>2024-03-20T14:34:34.000Z</time>
      </trkpt>
      <trkpt lat="43.52468" lon="5.26929">
        <ele>123.8</ele>
        <time>2024-03-20T14:34:36.000Z</time>
      </trkpt>
      <trkpt lat="43.5247" lon="5.26927">
        <ele>123.9</ele>
        <time>2024-03-20T14:34:38.000Z</time>
      </trkpt>
      <trkpt lat="43.52471" lon="5.26925">
        <ele>124.1</ele>
        <time>2024-03-20T14:34:51.000Z</time>
      </trkpt>
      <trkpt lat="43.52473" lon="5.26922">
        <ele>124.2</ele>
        <time>2024-03-20T14:34:54.000Z</time>
      </trkpt>
      <trkpt lat="43.52474" lon="5.26919">
        <ele>124.2</ele>
        <time>2024-03-20T14:34:56.000Z</time>
      </trkpt>
      <trkpt lat="43.52475" lon="5.26917">
        <ele>124.1</ele>
        <time>2024-03-20T14:34:58.000Z</time>
      </trkpt>
      <trkpt lat="43.52477" lon="5.26915">
        <ele>124</ele>
        <time>2024-03-20T14:35:01.000Z</time>
      </trkpt>
      <trkpt lat="43.52478" lon="5.26912">
        <ele>123.9</ele>
        <time>2024-03-20T14:35:04.000Z</time>
      </trkpt>
      <trkpt lat="43.52479" lon="5.26909">
        <ele>123.7</ele>
        <time>2024-03-20T14:35:06.000Z</time>
      </trkpt>
      <trkpt lat="43.5248" lon="5.26907">
        <ele>123.6</ele>
        <time>2024-03-20T14:35:09.000Z</time>
      </trkpt>
    </trkseg>
  </trk>
</gpx>